<?xml version='1.0' encoding='UTF-8'?><gpx version="1.1" creator="JPX - https://github.com/jenetics/jpx" xmlns="http://www.topografix.com/GPX/1/1"><trk><trkseg><trkpt lat="45.0009822" lon="7.8429606"><ele>268.0</ele><time>2026-03-29T09:38:45.866Z</time></trkpt><trkpt lat="45.0010229" lon="7.8428569"><ele>268.0</ele><time>2026-03-29T09:38:47.877Z</time></trkpt><trkpt lat="45.0010968" lon="7.8428354"><ele>268.0</ele><time>2026-03-29T09:38:49.866Z</time></trkpt><trkpt lat="45.0012089" lon="7.8429142"><ele>268.0</ele><time>2026-03-29T09:38:51.871Z</time></trkpt><trkpt lat="45.0012781" lon="7.842977"><ele>268.0</ele><time>2026-03-29T09:38:52.884Z</time></trkpt><trkpt lat="45.0013495" lon="7.8430376"><ele>268.0</ele><time>2026-03-29T09:38:53.878Z</time></trkpt><trkpt lat="45.0014224" lon="7.8430938"><ele>268.0</ele><time>2026-03-29T09:38:54.887Z</time></trkpt><trkpt lat="45.0015019" lon="7.8431539"><ele>268.0</ele><time>2026-03-29T09:38:55.885Z</time></trkpt><trkpt lat="45.0015832" lon="7.8432135"><ele>268.0</ele><time>2026-03-29T09:38:56.9Z</time></trkpt><trkpt lat="45.001659" lon="7.8432664"><ele>268.0</ele><time>2026-03-29T09:38:57.867Z</time></trkpt><trkpt lat="45.0017239" lon="7.8433164"><ele>268.0</ele><time>2026-03-29T09:38:58.871Z</time></trkpt><trkpt lat="45.0018167" lon="7.8434151"><ele>268.0</ele><time>2026-03-29T09:39:00.879Z</time></trkpt><trkpt lat="45.0018539" lon="7.8435597"><ele>268.0</ele><time>2026-03-29T09:39:02.884Z</time></trkpt><trkpt lat="45.0018499" lon="7.8436556"><ele>268.0</ele><time>2026-03-29T09:39:03.88Z</time></trkpt><trkpt lat="45.0018164" lon="7.8437654"><ele>268.0</ele><time>2026-03-29T09:39:04.879Z</time></trkpt><trkpt lat="45.0017449" lon="7.8438806"><ele>268.0</ele><time>2026-03-29T09:39:05.873Z</time></trkpt><trkpt lat="45.0016645" lon="7.8440146"><ele>268.0</ele><time>2026-03-29T09:39:06.88Z</time></trkpt><trkpt lat="45.0015773" lon="7.8441586"><ele>268.0</ele><time>2026-03-29T09:39:07.878Z</time></trkpt><trkpt lat="45.0015009" lon="7.8443122"><ele>268.0</ele><time>2026-03-29T09:39:08.867Z</time></trkpt><trkpt lat="45.0014326" lon="7.8444463"><ele>268.0</ele><time>2026-03-29T09:39:09.868Z</time></trkpt><trkpt lat="45.001364" lon="7.8445839"><ele>268.0</ele><time>2026-03-29T09:39:10.868Z</time></trkpt><trkpt lat="45.0012979" lon="7.8447208"><ele>268.0</ele><time>2026-03-29T09:39:11.891Z</time></trkpt><trkpt lat="45.0012307" lon="7.8448584"><ele>268.0</ele><time>2026-03-29T09:39:12.871Z</time></trkpt><trkpt lat="45.0011646" lon="7.8449939"><ele>268.0</ele><time>2026-03-29T09:39:13.889Z</time></trkpt><trkpt lat="45.0011025" lon="7.8451293"><ele>268.0</ele><time>2026-03-29T09:39:14.872Z</time></trkpt><trkpt lat="45.0010427" lon="7.8452686"><ele>268.0</ele><time>2026-03-29T09:39:15.874Z</time></trkpt><trkpt lat="45.0009828" lon="7.8454043"><ele>268.0</ele><time>2026-03-29T09:39:16.898Z</time></trkpt><trkpt lat="45.0009219" lon="7.8455421"><ele>268.0</ele><time>2026-03-29T09:39:17.898Z</time></trkpt><trkpt lat="45.0008574" lon="7.8456786"><ele>267.8</ele><time>2026-03-29T09:39:18.872Z</time></trkpt><trkpt lat="45.0007882" lon="7.8458068"><ele>267.6</ele><time>2026-03-29T09:39:19.868Z</time></trkpt><trkpt lat="45.0007237" lon="7.8459388"><ele>267.4</ele><time>2026-03-29T09:39:20.876Z</time></trkpt><trkpt lat="45.0006675" lon="7.8460727"><ele>267.2</ele><time>2026-03-29T09:39:21.878Z</time></trkpt><trkpt lat="45.0006142" lon="7.8461987"><ele>267.0</ele><time>2026-03-29T09:39:22.88Z</time></trkpt><trkpt lat="45.0005633" lon="7.8463191"><ele>266.8</ele><time>2026-03-29T09:39:23.894Z</time></trkpt><trkpt lat="45.0005129" lon="7.8464353"><ele>266.6</ele><time>2026-03-29T09:39:24.902Z</time></trkpt><trkpt lat="45.0004587" lon="7.8465503"><ele>266.40000000000003</ele><time>2026-03-29T09:39:25.887Z</time></trkpt><trkpt lat="45.0004029" lon="7.8466732"><ele>266.2</ele><time>2026-03-29T09:39:26.872Z</time></trkpt><trkpt lat="45.0003523" lon="7.8467942"><ele>266.0</ele><time>2026-03-29T09:39:27.881Z</time></trkpt><trkpt lat="45.000303" lon="7.8469085"><ele>265.6666666666667</ele><time>2026-03-29T09:39:28.879Z</time></trkpt><trkpt lat="45.0002514" lon="7.8469961"><ele>265.33333333333337</ele><time>2026-03-29T09:39:29.901Z</time></trkpt><trkpt lat="45.0001926" lon="7.8470721"><ele>265.0</ele><time>2026-03-29T09:39:30.89Z</time></trkpt><trkpt lat="45.0001214" lon="7.8471277"><ele>264.6666666666667</ele><time>2026-03-29T09:39:31.883Z</time></trkpt><trkpt lat="45.0000421" lon="7.8471715"><ele>264.3333333333333</ele><time>2026-03-29T09:39:32.874Z</time></trkpt><trkpt lat="44.9999737" lon="7.8472302"><ele>264.0</ele><time>2026-03-29T09:39:33.887Z</time></trkpt><trkpt lat="44.9999145" lon="7.8473049"><ele>264.0</ele><time>2026-03-29T09:39:34.876Z</time></trkpt><trkpt lat="44.9998754" lon="7.8474068"><ele>264.0</ele><time>2026-03-29T09:39:35.913Z</time></trkpt><trkpt lat="44.999856" lon="7.8475313"><ele>264.0</ele><time>2026-03-29T09:39:36.877Z</time></trkpt><trkpt lat="44.9998572" lon="7.8476709"><ele>264.0</ele><time>2026-03-29T09:39:37.868Z</time></trkpt><trkpt lat="44.9998575" lon="7.8478114"><ele>264.0</ele><time>2026-03-29T09:39:38.883Z</time></trkpt><trkpt lat="44.9998409" lon="7.8479504"><ele>264.0</ele><time>2026-03-29T09:39:39.869Z</time></trkpt><trkpt lat="44.9997946" lon="7.8480855"><ele>264.0</ele><time>2026-03-29T09:39:40.894Z</time></trkpt><trkpt lat="44.9997289" lon="7.8482255"><ele>264.0</ele><time>2026-03-29T09:39:41.871Z</time></trkpt><trkpt lat="44.9996529" lon="7.8483766"><ele>264.0</ele><time>2026-03-29T09:39:42.869Z</time></trkpt><trkpt lat="44.9995685" lon="7.8485411"><ele>264.0</ele><time>2026-03-29T09:39:43.872Z</time></trkpt><trkpt lat="44.999481" lon="7.8487164"><ele>264.0</ele><time>2026-03-29T09:39:44.87Z</time></trkpt><trkpt lat="44.9993892" lon="7.8489077"><ele>264.0</ele><time>2026-03-29T09:39:45.877Z</time></trkpt><trkpt lat="44.999293" lon="7.849109"><ele>263.3333333333333</ele><time>2026-03-29T09:39:46.883Z</time></trkpt><trkpt lat="44.9991972" lon="7.8493075"><ele>262.66666666666663</ele><time>2026-03-29T09:39:47.885Z</time></trkpt><trkpt lat="44.9991057" lon="7.8494984"><ele>262.0</ele><time>2026-03-29T09:39:48.882Z</time></trkpt><trkpt lat="44.9990167" lon="7.8496876"><ele>262.0</ele><time>2026-03-29T09:39:49.87Z</time></trkpt><trkpt lat="44.9989295" lon="7.8498744"><ele>262.0</ele><time>2026-03-29T09:39:50.87Z</time></trkpt><trkpt lat="44.9988479" lon="7.8500567"><ele>262.0</ele><time>2026-03-29T09:39:51.869Z</time></trkpt><trkpt lat="44.9987683" lon="7.850233"><ele>262.0</ele><time>2026-03-29T09:39:52.87Z</time></trkpt><trkpt lat="44.998689" lon="7.8504074"><ele>262.0</ele><time>2026-03-29T09:39:53.883Z</time></trkpt><trkpt lat="44.9986089" lon="7.8505794"><ele>262.0</ele><time>2026-03-29T09:39:54.876Z</time></trkpt><trkpt lat="44.998524" lon="7.850754"><ele>262.0</ele><time>2026-03-29T09:39:55.89Z</time></trkpt><trkpt lat="44.998439" lon="7.8509316"><ele>262.0</ele><time>2026-03-29T09:39:56.869Z</time></trkpt><trkpt lat="44.9983548" lon="7.8511117"><ele>262.0</ele><time>2026-03-29T09:39:57.867Z</time></trkpt><trkpt lat="44.99827" lon="7.8512912"><ele>262.0</ele><time>2026-03-29T09:39:58.867Z</time></trkpt><trkpt lat="44.998186" lon="7.8514719"><ele>262.0</ele><time>2026-03-29T09:39:59.874Z</time></trkpt><trkpt lat="44.9981008" lon="7.8516547"><ele>262.0</ele><time>2026-03-29T09:40:00.882Z</time></trkpt><trkpt lat="44.9980133" lon="7.8518427"><ele>262.0</ele><time>2026-03-29T09:40:01.875Z</time></trkpt><trkpt lat="44.9979239" lon="7.8520372"><ele>261.66666666666663</ele><time>2026-03-29T09:40:02.868Z</time></trkpt><trkpt lat="44.9978326" lon="7.8522365"><ele>261.3333333333333</ele><time>2026-03-29T09:40:03.868Z</time></trkpt><trkpt lat="44.9977406" lon="7.8524373"><ele>261.0</ele><time>2026-03-29T09:40:04.9Z</time></trkpt><trkpt lat="44.9976488" lon="7.8526444"><ele>260.3333333333333</ele><time>2026-03-29T09:40:05.874Z</time></trkpt><trkpt lat="44.9975551" lon="7.8528555"><ele>259.66666666666663</ele><time>2026-03-29T09:40:06.869Z</time></trkpt><trkpt lat="44.9974552" lon="7.8530743"><ele>259.0</ele><time>2026-03-29T09:40:07.874Z</time></trkpt><trkpt lat="44.9973489" lon="7.8532978"><ele>258.66666666666663</ele><time>2026-03-29T09:40:08.884Z</time></trkpt><trkpt lat="44.9972395" lon="7.8535247"><ele>258.3333333333333</ele><time>2026-03-29T09:40:09.869Z</time></trkpt><trkpt lat="44.9971293" lon="7.8537539"><ele>258.0</ele><time>2026-03-29T09:40:10.867Z</time></trkpt><trkpt lat="44.9970188" lon="7.8539831"><ele>258.0</ele><time>2026-03-29T09:40:11.869Z</time></trkpt><trkpt lat="44.9969086" lon="7.8542104"><ele>258.0</ele><time>2026-03-29T09:40:12.877Z</time></trkpt><trkpt lat="44.9967984" lon="7.8544352"><ele>258.0</ele><time>2026-03-29T09:40:13.871Z</time></trkpt><trkpt lat="44.9966874" lon="7.8546621"><ele>257.6666666666667</ele><time>2026-03-29T09:40:14.872Z</time></trkpt><trkpt lat="44.996578" lon="7.8548872"><ele>257.33333333333337</ele><time>2026-03-29T09:40:15.871Z</time></trkpt><trkpt lat="44.9964718" lon="7.855117"><ele>257.0</ele><time>2026-03-29T09:40:16.867Z</time></trkpt><trkpt lat="44.9963668" lon="7.8553483"><ele>257.0</ele><time>2026-03-29T09:40:17.869Z</time></trkpt><trkpt lat="44.9962639" lon="7.8555826"><ele>257.0</ele><time>2026-03-29T09:40:18.868Z</time></trkpt><trkpt lat="44.9961588" lon="7.8558141"><ele>257.0</ele><time>2026-03-29T09:40:19.87Z</time></trkpt><trkpt lat="44.9960513" lon="7.8560457"><ele>257.0</ele><time>2026-03-29T09:40:20.874Z</time></trkpt><trkpt lat="44.9959421" lon="7.8562786"><ele>257.0</ele><time>2026-03-29T09:40:21.883Z</time></trkpt><trkpt lat="44.9958362" lon="7.8565139"><ele>257.0</ele><time>2026-03-29T09:40:22.868Z</time></trkpt><trkpt lat="44.99573" lon="7.8567487"><ele>257.33333333333337</ele><time>2026-03-29T09:40:23.875Z</time></trkpt><trkpt lat="44.995622" lon="7.8569838"><ele>257.6666666666667</ele><time>2026-03-29T09:40:24.886Z</time></trkpt><trkpt lat="44.9955144" lon="7.8572241"><ele>258.0</ele><time>2026-03-29T09:40:25.872Z</time></trkpt><trkpt lat="44.9954039" lon="7.8574658"><ele>258.3333333333333</ele><time>2026-03-29T09:40:26.87Z</time></trkpt><trkpt lat="44.9952923" lon="7.8577065"><ele>258.66666666666663</ele><time>2026-03-29T09:40:27.884Z</time></trkpt><trkpt lat="44.9951799" lon="7.8579447"><ele>259.0</ele><time>2026-03-29T09:40:28.868Z</time></trkpt><trkpt lat="44.9950687" lon="7.8581808"><ele>259.0</ele><time>2026-03-29T09:40:29.867Z</time></trkpt><trkpt lat="44.9949563" lon="7.8584142"><ele>259.0</ele><time>2026-03-29T09:40:30.882Z</time></trkpt><trkpt lat="44.9948448" lon="7.8586451"><ele>259.0</ele><time>2026-03-29T09:40:31.894Z</time></trkpt><trkpt lat="44.9947333" lon="7.8588795"><ele>259.0</ele><time>2026-03-29T09:40:32.891Z</time></trkpt><trkpt lat="44.994623" lon="7.8591184"><ele>259.0</ele><time>2026-03-29T09:40:33.874Z</time></trkpt><trkpt lat="44.99451" lon="7.8593643"><ele>259.0</ele><time>2026-03-29T09:40:34.866Z</time></trkpt><trkpt lat="44.9943942" lon="7.8596167"><ele>258.0</ele><time>2026-03-29T09:40:35.878Z</time></trkpt><trkpt lat="44.9942777" lon="7.8598685"><ele>257.0</ele><time>2026-03-29T09:40:36.869Z</time></trkpt><trkpt lat="44.9941603" lon="7.8601184"><ele>256.0</ele><time>2026-03-29T09:40:37.87Z</time></trkpt><trkpt lat="44.9940412" lon="7.8603626"><ele>255.33333333333331</ele><time>2026-03-29T09:40:38.897Z</time></trkpt><trkpt lat="44.993922" lon="7.8606046"><ele>254.66666666666669</ele><time>2026-03-29T09:40:39.876Z</time></trkpt><trkpt lat="44.9938007" lon="7.8608455"><ele>254.0</ele><time>2026-03-29T09:40:40.871Z</time></trkpt><trkpt lat="44.9936828" lon="7.8610915"><ele>254.33333333333334</ele><time>2026-03-29T09:40:41.869Z</time></trkpt><trkpt lat="44.9935662" lon="7.8613391"><ele>254.66666666666669</ele><time>2026-03-29T09:40:42.868Z</time></trkpt><trkpt lat="44.9934497" lon="7.8615838"><ele>255.0</ele><time>2026-03-29T09:40:43.867Z</time></trkpt><trkpt lat="44.9933332" lon="7.8618255"><ele>255.0</ele><time>2026-03-29T09:40:44.867Z</time></trkpt><trkpt lat="44.9932169" lon="7.8620625"><ele>255.0</ele><time>2026-03-29T09:40:45.872Z</time></trkpt><trkpt lat="44.9931032" lon="7.8622946"><ele>255.0</ele><time>2026-03-29T09:40:46.876Z</time></trkpt><trkpt lat="44.992993" lon="7.8625223"><ele>255.0</ele><time>2026-03-29T09:40:47.87Z</time></trkpt><trkpt lat="44.9928848" lon="7.8627453"><ele>255.0</ele><time>2026-03-29T09:40:48.87Z</time></trkpt><trkpt lat="44.9927796" lon="7.8629651"><ele>255.0</ele><time>2026-03-29T09:40:49.879Z</time></trkpt><trkpt lat="44.9926767" lon="7.8631847"><ele>255.0</ele><time>2026-03-29T09:40:50.869Z</time></trkpt><trkpt lat="44.992575" lon="7.8634014"><ele>255.0</ele><time>2026-03-29T09:40:51.89Z</time></trkpt><trkpt lat="44.9924736" lon="7.8636172"><ele>255.0</ele><time>2026-03-29T09:40:52.868Z</time></trkpt><trkpt lat="44.9923741" lon="7.8638357"><ele>255.0</ele><time>2026-03-29T09:40:53.87Z</time></trkpt><trkpt lat="44.9922731" lon="7.864056"><ele>255.0</ele><time>2026-03-29T09:40:54.908Z</time></trkpt><trkpt lat="44.9921708" lon="7.8642755"><ele>255.0</ele><time>2026-03-29T09:40:55.871Z</time></trkpt><trkpt lat="44.9920677" lon="7.8644928"><ele>256.0</ele><time>2026-03-29T09:40:56.901Z</time></trkpt><trkpt lat="44.991963" lon="7.864713"><ele>257.0</ele><time>2026-03-29T09:40:57.873Z</time></trkpt><trkpt lat="44.9918541" lon="7.8649327"><ele>258.0</ele><time>2026-03-29T09:40:58.872Z</time></trkpt><trkpt lat="44.9917441" lon="7.8651536"><ele>258.3333333333333</ele><time>2026-03-29T09:40:59.901Z</time></trkpt><trkpt lat="44.9916359" lon="7.8653765"><ele>258.66666666666663</ele><time>2026-03-29T09:41:00.9Z</time></trkpt><trkpt lat="44.9915296" lon="7.865602"><ele>259.0</ele><time>2026-03-29T09:41:01.868Z</time></trkpt><trkpt lat="44.9914211" lon="7.8658237"><ele>258.3333333333333</ele><time>2026-03-29T09:41:02.871Z</time></trkpt><trkpt lat="44.991315" lon="7.8660481"><ele>257.6666666666667</ele><time>2026-03-29T09:41:03.868Z</time></trkpt><trkpt lat="44.9912115" lon="7.866276"><ele>257.0</ele><time>2026-03-29T09:41:04.867Z</time></trkpt><trkpt lat="44.9911109" lon="7.8665035"><ele>257.0</ele><time>2026-03-29T09:41:05.867Z</time></trkpt><trkpt lat="44.9910113" lon="7.8667296"><ele>257.0</ele><time>2026-03-29T09:41:06.866Z</time></trkpt><trkpt lat="44.9909087" lon="7.8669529"><ele>257.0</ele><time>2026-03-29T09:41:07.869Z</time></trkpt><trkpt lat="44.9908031" lon="7.8671767"><ele>257.0</ele><time>2026-03-29T09:41:08.881Z</time></trkpt><trkpt lat="44.9906971" lon="7.8674012"><ele>257.0</ele><time>2026-03-29T09:41:09.877Z</time></trkpt><trkpt lat="44.9905902" lon="7.8676272"><ele>257.0</ele><time>2026-03-29T09:41:10.897Z</time></trkpt><trkpt lat="44.9904849" lon="7.8678536"><ele>256.6666666666667</ele><time>2026-03-29T09:41:11.899Z</time></trkpt><trkpt lat="44.9903793" lon="7.8680775"><ele>256.3333333333333</ele><time>2026-03-29T09:41:12.864Z</time></trkpt><trkpt lat="44.990273" lon="7.8682959"><ele>256.0</ele><time>2026-03-29T09:41:13.869Z</time></trkpt><trkpt lat="44.9901661" lon="7.8685117"><ele>256.0</ele><time>2026-03-29T09:41:14.88Z</time></trkpt><trkpt lat="44.9900617" lon="7.8687312"><ele>256.0</ele><time>2026-03-29T09:41:15.869Z</time></trkpt><trkpt lat="44.989959" lon="7.8689523"><ele>256.0</ele><time>2026-03-29T09:41:16.868Z</time></trkpt><trkpt lat="44.9898585" lon="7.8691734"><ele>255.33333333333331</ele><time>2026-03-29T09:41:17.868Z</time></trkpt><trkpt lat="44.9897594" lon="7.8693962"><ele>254.66666666666669</ele><time>2026-03-29T09:41:18.87Z</time></trkpt><trkpt lat="44.9896567" lon="7.8696179"><ele>254.0</ele><time>2026-03-29T09:41:19.869Z</time></trkpt><trkpt lat="44.9895526" lon="7.8698401"><ele>254.0</ele><time>2026-03-29T09:41:20.876Z</time></trkpt><trkpt lat="44.9894474" lon="7.870065"><ele>254.0</ele><time>2026-03-29T09:41:21.874Z</time></trkpt><trkpt lat="44.9893396" lon="7.8702921"><ele>254.0</ele><time>2026-03-29T09:41:22.875Z</time></trkpt><trkpt lat="44.9892318" lon="7.8705208"><ele>256.33333333333337</ele><time>2026-03-29T09:41:23.869Z</time></trkpt><trkpt lat="44.9891269" lon="7.8707453"><ele>258.6666666666667</ele><time>2026-03-29T09:41:24.878Z</time></trkpt><trkpt lat="44.9890252" lon="7.8709659"><ele>261.0</ele><time>2026-03-29T09:41:25.889Z</time></trkpt><trkpt lat="44.9889292" lon="7.8711789"><ele>261.0</ele><time>2026-03-29T09:41:26.892Z</time></trkpt><trkpt lat="44.9888383" lon="7.871388"><ele>261.0</ele><time>2026-03-29T09:41:27.873Z</time></trkpt><trkpt lat="44.9887583" lon="7.8716019"><ele>261.0</ele><time>2026-03-29T09:41:28.87Z</time></trkpt><trkpt lat="44.9886818" lon="7.8718156"><ele>260.0</ele><time>2026-03-29T09:41:29.885Z</time></trkpt><trkpt lat="44.9886123" lon="7.8720227"><ele>259.0</ele><time>2026-03-29T09:41:30.866Z</time></trkpt><trkpt lat="44.9885483" lon="7.8722173"><ele>258.0</ele><time>2026-03-29T09:41:31.883Z</time></trkpt><trkpt lat="44.9884866" lon="7.8723964"><ele>258.0</ele><time>2026-03-29T09:41:32.887Z</time></trkpt><trkpt lat="44.9884286" lon="7.8725633"><ele>258.0</ele><time>2026-03-29T09:41:33.897Z</time></trkpt><trkpt lat="44.9883682" lon="7.8727159"><ele>258.0</ele><time>2026-03-29T09:41:34.878Z</time></trkpt><trkpt lat="44.9883095" lon="7.8728564"><ele>258.0</ele><time>2026-03-29T09:41:35.884Z</time></trkpt><trkpt lat="44.9882507" lon="7.8729874"><ele>259.0</ele><time>2026-03-29T09:41:36.867Z</time></trkpt><trkpt lat="44.9881946" lon="7.8731063"><ele>260.0</ele><time>2026-03-29T09:41:37.873Z</time></trkpt><trkpt lat="44.9881452" lon="7.8732134"><ele>261.0</ele><time>2026-03-29T09:41:38.871Z</time></trkpt><trkpt lat="44.9880915" lon="7.8732997"><ele>262.0</ele><time>2026-03-29T09:41:39.87Z</time></trkpt><trkpt lat="44.98803" lon="7.8733721"><ele>263.0</ele><time>2026-03-29T09:41:40.874Z</time></trkpt><trkpt lat="44.9879568" lon="7.8734289"><ele>264.0</ele><time>2026-03-29T09:41:41.864Z</time></trkpt><trkpt lat="44.9879019" lon="7.8735"><ele>264.0</ele><time>2026-03-29T09:41:42.894Z</time></trkpt><trkpt lat="44.9878628" lon="7.873579"><ele>264.0</ele><time>2026-03-29T09:41:43.886Z</time></trkpt><trkpt lat="44.9878604" lon="7.8736718"><ele>264.0</ele><time>2026-03-29T09:41:44.885Z</time></trkpt><trkpt lat="44.9878902" lon="7.8737624"><ele>264.0</ele><time>2026-03-29T09:41:45.9Z</time></trkpt><trkpt lat="44.9879519" lon="7.8738424"><ele>264.0</ele><time>2026-03-29T09:41:46.865Z</time></trkpt><trkpt lat="44.9880263" lon="7.8738992"><ele>264.0</ele><time>2026-03-29T09:41:47.871Z</time></trkpt><trkpt lat="44.9880994" lon="7.873955"><ele>264.0</ele><time>2026-03-29T09:41:48.87Z</time></trkpt><trkpt lat="44.9881689" lon="7.8740316"><ele>264.0</ele><time>2026-03-29T09:41:49.88Z</time></trkpt><trkpt lat="44.9882338" lon="7.8741381"><ele>264.0</ele><time>2026-03-29T09:41:50.883Z</time></trkpt><trkpt lat="44.9882961" lon="7.8742788"><ele>264.0</ele><time>2026-03-29T09:41:51.874Z</time></trkpt><trkpt lat="44.9883618" lon="7.874449"><ele>264.0</ele><time>2026-03-29T09:41:52.886Z</time></trkpt><trkpt lat="44.9884359" lon="7.8746311"><ele>264.3333333333333</ele><time>2026-03-29T09:41:53.864Z</time></trkpt><trkpt lat="44.9885159" lon="7.8748146"><ele>264.66666666666663</ele><time>2026-03-29T09:41:54.879Z</time></trkpt><trkpt lat="44.9886008" lon="7.8750006"><ele>265.0</ele><time>2026-03-29T09:41:55.878Z</time></trkpt><trkpt lat="44.9886908" lon="7.8751964"><ele>265.0</ele><time>2026-03-29T09:41:56.882Z</time></trkpt><trkpt lat="44.9887864" lon="7.8753928"><ele>265.0</ele><time>2026-03-29T09:41:57.888Z</time></trkpt><trkpt lat="44.9888849" lon="7.8755971"><ele>265.0</ele><time>2026-03-29T09:41:58.878Z</time></trkpt><trkpt lat="44.9889842" lon="7.8758053"><ele>265.0</ele><time>2026-03-29T09:41:59.874Z</time></trkpt><trkpt lat="44.9890821" lon="7.8760058"><ele>265.0</ele><time>2026-03-29T09:42:00.877Z</time></trkpt><trkpt lat="44.9891764" lon="7.8761944"><ele>265.0</ele><time>2026-03-29T09:42:01.885Z</time></trkpt><trkpt lat="44.9892622" lon="7.87637"><ele>265.0</ele><time>2026-03-29T09:42:02.865Z</time></trkpt><trkpt lat="44.989338" lon="7.876533"><ele>265.0</ele><time>2026-03-29T09:42:03.869Z</time></trkpt><trkpt lat="44.9894079" lon="7.8766824"><ele>265.0</ele><time>2026-03-29T09:42:04.869Z</time></trkpt><trkpt lat="44.9894731" lon="7.876823"><ele>265.0</ele><time>2026-03-29T09:42:05.869Z</time></trkpt><trkpt lat="44.9895328" lon="7.8769565"><ele>264.5</ele><time>2026-03-29T09:42:06.877Z</time></trkpt><trkpt lat="44.9895888" lon="7.8770772"><ele>264.0</ele><time>2026-03-29T09:42:07.877Z</time></trkpt><trkpt lat="44.9896376" lon="7.8771869"><ele>263.5</ele><time>2026-03-29T09:42:08.874Z</time></trkpt><trkpt lat="44.9896739" lon="7.8772888"><ele>263.0</ele><time>2026-03-29T09:42:09.875Z</time></trkpt><trkpt lat="44.989696" lon="7.8773892"><ele>262.5</ele><time>2026-03-29T09:42:10.892Z</time></trkpt><trkpt lat="44.9897062" lon="7.8774925"><ele>262.0</ele><time>2026-03-29T09:42:11.872Z</time></trkpt><trkpt lat="44.9897134" lon="7.8775985"><ele>262.0</ele><time>2026-03-29T09:42:12.895Z</time></trkpt><trkpt lat="44.9897299" lon="7.8776944"><ele>262.0</ele><time>2026-03-29T09:42:13.89Z</time></trkpt><trkpt lat="44.9897633" lon="7.877772"><ele>262.0</ele><time>2026-03-29T09:42:14.876Z</time></trkpt><trkpt lat="44.9898727" lon="7.8778077"><ele>262.0</ele><time>2026-03-29T09:42:16.877Z</time></trkpt><trkpt lat="44.9899482" lon="7.8776873"><ele>262.0</ele><time>2026-03-29T09:42:18.88Z</time></trkpt><trkpt lat="44.9899602" lon="7.8775886"><ele>262.0</ele><time>2026-03-29T09:42:19.868Z</time></trkpt><trkpt lat="44.9899513" lon="7.8774871"><ele>262.0</ele><time>2026-03-29T09:42:20.868Z</time></trkpt><trkpt lat="44.9899208" lon="7.8773981"><ele>262.0</ele><time>2026-03-29T09:42:21.874Z</time></trkpt><trkpt lat="44.9898637" lon="7.877332"><ele>262.0</ele><time>2026-03-29T09:42:22.887Z</time></trkpt><trkpt lat="44.9897887" lon="7.8772774"><ele>262.0</ele><time>2026-03-29T09:42:23.867Z</time></trkpt><trkpt lat="44.9897066" lon="7.8772138"><ele>262.0</ele><time>2026-03-29T09:42:24.88Z</time></trkpt><trkpt lat="44.9896152" lon="7.8771237"><ele>262.0</ele><time>2026-03-29T09:42:25.886Z</time></trkpt><trkpt lat="44.9895254" lon="7.8769915"><ele>262.0</ele><time>2026-03-29T09:42:26.87Z</time></trkpt><trkpt lat="44.9894431" lon="7.8768295"><ele>262.0</ele><time>2026-03-29T09:42:27.879Z</time></trkpt><trkpt lat="44.9893626" lon="7.8766506"><ele>262.0</ele><time>2026-03-29T09:42:28.876Z</time></trkpt><trkpt lat="44.9892713" lon="7.8764582"><ele>263.0</ele><time>2026-03-29T09:42:29.871Z</time></trkpt><trkpt lat="44.9891766" lon="7.8762541"><ele>264.0</ele><time>2026-03-29T09:42:30.874Z</time></trkpt><trkpt lat="44.9890721" lon="7.8760401"><ele>265.0</ele><time>2026-03-29T09:42:31.873Z</time></trkpt><trkpt lat="44.9889646" lon="7.8758161"><ele>265.0</ele><time>2026-03-29T09:42:32.897Z</time></trkpt><trkpt lat="44.988856" lon="7.8755901"><ele>265.0</ele><time>2026-03-29T09:42:33.862Z</time></trkpt><trkpt lat="44.9887546" lon="7.8753717"><ele>265.0</ele><time>2026-03-29T09:42:34.87Z</time></trkpt><trkpt lat="44.9886613" lon="7.8751653"><ele>265.0</ele><time>2026-03-29T09:42:35.879Z</time></trkpt><trkpt lat="44.9885766" lon="7.874975"><ele>265.0</ele><time>2026-03-29T09:42:36.873Z</time></trkpt><trkpt lat="44.9884966" lon="7.8748052"><ele>265.0</ele><time>2026-03-29T09:42:37.883Z</time></trkpt><trkpt lat="44.9884231" lon="7.8746483"><ele>265.0</ele><time>2026-03-29T09:42:38.866Z</time></trkpt><trkpt lat="44.9883584" lon="7.8745038"><ele>264.8</ele><time>2026-03-29T09:42:39.873Z</time></trkpt><trkpt lat="44.9882986" lon="7.874369"><ele>264.6</ele><time>2026-03-29T09:42:40.872Z</time></trkpt><trkpt lat="44.9882482" lon="7.8742396"><ele>264.4</ele><time>2026-03-29T09:42:41.89Z</time></trkpt><trkpt lat="44.9882141" lon="7.8741267"><ele>264.2</ele><time>2026-03-29T09:42:42.872Z</time></trkpt><trkpt lat="44.9881939" lon="7.8740274"><ele>264.0</ele><time>2026-03-29T09:42:43.872Z</time></trkpt><trkpt lat="44.9882019" lon="7.8739021"><ele>264.0</ele><time>2026-03-29T09:42:45.867Z</time></trkpt><trkpt lat="44.9882734" lon="7.8737826"><ele>264.0</ele><time>2026-03-29T09:42:47.872Z</time></trkpt><trkpt lat="44.9883581" lon="7.8737809"><ele>264.0</ele><time>2026-03-29T09:42:49.888Z</time></trkpt><trkpt lat="44.9884219" lon="7.8738102"><ele>264.0</ele><time>2026-03-29T09:42:50.867Z</time></trkpt><trkpt lat="44.988487" lon="7.8738607"><ele>264.0</ele><time>2026-03-29T09:42:51.89Z</time></trkpt><trkpt lat="44.9885778" lon="7.8739353"><ele>264.0</ele><time>2026-03-29T09:42:52.877Z</time></trkpt><trkpt lat="44.988704" lon="7.8740087"><ele>263.6666666666667</ele><time>2026-03-29T09:42:53.867Z</time></trkpt><trkpt lat="44.9888386" lon="7.8740764"><ele>263.33333333333337</ele><time>2026-03-29T09:42:54.871Z</time></trkpt><trkpt lat="44.9889828" lon="7.8741699"><ele>263.0</ele><time>2026-03-29T09:42:55.87Z</time></trkpt><trkpt lat="44.9891338" lon="7.8742763"><ele>263.0</ele><time>2026-03-29T09:42:56.867Z</time></trkpt><trkpt lat="44.9892794" lon="7.8743925"><ele>263.0</ele><time>2026-03-29T09:42:57.866Z</time></trkpt><trkpt lat="44.9894311" lon="7.8745147"><ele>263.0</ele><time>2026-03-29T09:42:58.872Z</time></trkpt><trkpt lat="44.9896061" lon="7.8746434"><ele>263.0</ele><time>2026-03-29T09:42:59.887Z</time></trkpt><trkpt lat="44.9897901" lon="7.8747635"><ele>263.0</ele><time>2026-03-29T09:43:00.895Z</time></trkpt><trkpt lat="44.9899115" lon="7.8748758"><ele>263.0</ele><time>2026-03-29T09:43:01.865Z</time></trkpt><trkpt lat="44.9900621" lon="7.8750019"><ele>262.33333333333337</ele><time>2026-03-29T09:43:02.865Z</time></trkpt><trkpt lat="44.9902031" lon="7.8751255"><ele>261.6666666666667</ele><time>2026-03-29T09:43:03.863Z</time></trkpt><trkpt lat="44.9903257" lon="7.8752476"><ele>261.0</ele><time>2026-03-29T09:43:04.869Z</time></trkpt><trkpt lat="44.9904284" lon="7.8753727"><ele>261.0</ele><time>2026-03-29T09:43:05.864Z</time></trkpt><trkpt lat="44.990519" lon="7.8754989"><ele>261.0</ele><time>2026-03-29T09:43:06.861Z</time></trkpt><trkpt lat="44.9905966" lon="7.875633"><ele>261.0</ele><time>2026-03-29T09:43:07.867Z</time></trkpt><trkpt lat="44.9906665" lon="7.8757865"><ele>261.0</ele><time>2026-03-29T09:43:08.865Z</time></trkpt><trkpt lat="44.9907286" lon="7.8759641"><ele>261.3333333333333</ele><time>2026-03-29T09:43:09.875Z</time></trkpt><trkpt lat="44.9907962" lon="7.8761565"><ele>261.66666666666663</ele><time>2026-03-29T09:43:10.867Z</time></trkpt><trkpt lat="44.9908756" lon="7.8763427"><ele>262.0</ele><time>2026-03-29T09:43:11.868Z</time></trkpt><trkpt lat="44.9909763" lon="7.8765064"><ele>262.0</ele><time>2026-03-29T09:43:12.864Z</time></trkpt><trkpt lat="44.9911006" lon="7.8766273"><ele>262.0</ele><time>2026-03-29T09:43:13.861Z</time></trkpt><trkpt lat="44.9912515" lon="7.8767038"><ele>262.0</ele><time>2026-03-29T09:43:14.862Z</time></trkpt><trkpt lat="44.9914207" lon="7.8767555"><ele>262.0</ele><time>2026-03-29T09:43:15.867Z</time></trkpt><trkpt lat="44.9915961" lon="7.876809"><ele>262.0</ele><time>2026-03-29T09:43:16.86Z</time></trkpt><trkpt lat="44.9917683" lon="7.8768739"><ele>262.0</ele><time>2026-03-29T09:43:17.865Z</time></trkpt><trkpt lat="44.9919303" lon="7.8769525"><ele>262.0</ele><time>2026-03-29T09:43:18.86Z</time></trkpt><trkpt lat="44.9920908" lon="7.8770447"><ele>262.0</ele><time>2026-03-29T09:43:19.86Z</time></trkpt><trkpt lat="44.9922562" lon="7.8771384"><ele>262.0</ele><time>2026-03-29T09:43:20.864Z</time></trkpt><trkpt lat="44.992428" lon="7.877216"><ele>262.66666666666663</ele><time>2026-03-29T09:43:21.868Z</time></trkpt><trkpt lat="44.9926118" lon="7.8772722"><ele>263.3333333333333</ele><time>2026-03-29T09:43:22.864Z</time></trkpt><trkpt lat="44.9928008" lon="7.8773106"><ele>264.0</ele><time>2026-03-29T09:43:23.863Z</time></trkpt><trkpt lat="44.9929857" lon="7.8773517"><ele>264.0</ele><time>2026-03-29T09:43:24.862Z</time></trkpt><trkpt lat="44.9931678" lon="7.877408"><ele>264.0</ele><time>2026-03-29T09:43:25.863Z</time></trkpt><trkpt lat="44.9933525" lon="7.877491"><ele>264.0</ele><time>2026-03-29T09:43:26.862Z</time></trkpt><trkpt lat="44.9935369" lon="7.8776005"><ele>264.6666666666667</ele><time>2026-03-29T09:43:27.862Z</time></trkpt><trkpt lat="44.9937183" lon="7.8777214"><ele>265.33333333333337</ele><time>2026-03-29T09:43:28.893Z</time></trkpt><trkpt lat="44.9938994" lon="7.8778494"><ele>266.0</ele><time>2026-03-29T09:43:29.862Z</time></trkpt><trkpt lat="44.994082" lon="7.8779763"><ele>265.0</ele><time>2026-03-29T09:43:30.864Z</time></trkpt><trkpt lat="44.9942676" lon="7.8780949"><ele>264.0</ele><time>2026-03-29T09:43:31.866Z</time></trkpt><trkpt lat="44.994463" lon="7.878204"><ele>263.0</ele><time>2026-03-29T09:43:32.863Z</time></trkpt><trkpt lat="44.9946702" lon="7.8783079"><ele>263.0</ele><time>2026-03-29T09:43:33.866Z</time></trkpt><trkpt lat="44.9948859" lon="7.8784114"><ele>263.0</ele><time>2026-03-29T09:43:34.867Z</time></trkpt><trkpt lat="44.9950937" lon="7.8785164"><ele>263.0</ele><time>2026-03-29T09:43:35.862Z</time></trkpt><trkpt lat="44.9952884" lon="7.8786202"><ele>263.33333333333337</ele><time>2026-03-29T09:43:36.863Z</time></trkpt><trkpt lat="44.9954687" lon="7.8787178"><ele>263.6666666666667</ele><time>2026-03-29T09:43:37.86Z</time></trkpt><trkpt lat="44.995639" lon="7.8788006"><ele>264.0</ele><time>2026-03-29T09:43:38.864Z</time></trkpt><trkpt lat="44.9958069" lon="7.8788656"><ele>264.0</ele><time>2026-03-29T09:43:39.867Z</time></trkpt><trkpt lat="44.9959795" lon="7.8789134"><ele>264.0</ele><time>2026-03-29T09:43:40.864Z</time></trkpt><trkpt lat="44.9961597" lon="7.878952"><ele>264.0</ele><time>2026-03-29T09:43:41.863Z</time></trkpt><trkpt lat="44.9963535" lon="7.8789989"><ele>264.0</ele><time>2026-03-29T09:43:42.864Z</time></trkpt><trkpt lat="44.9965562" lon="7.8790705"><ele>264.0</ele><time>2026-03-29T09:43:43.868Z</time></trkpt><trkpt lat="44.9967655" lon="7.8791651"><ele>264.0</ele><time>2026-03-29T09:43:44.863Z</time></trkpt><trkpt lat="44.9969743" lon="7.8792722"><ele>265.5</ele><time>2026-03-29T09:43:45.867Z</time></trkpt><trkpt lat="44.9971853" lon="7.8793847"><ele>267.0</ele><time>2026-03-29T09:43:46.863Z</time></trkpt><trkpt lat="44.9973959" lon="7.8795048"><ele>266.6666666666667</ele><time>2026-03-29T09:43:47.864Z</time></trkpt><trkpt lat="44.9976059" lon="7.8796208"><ele>266.33333333333337</ele><time>2026-03-29T09:43:48.862Z</time></trkpt><trkpt lat="44.9978158" lon="7.8797307"><ele>266.0</ele><time>2026-03-29T09:43:49.863Z</time></trkpt><trkpt lat="44.9980301" lon="7.879829"><ele>266.0</ele><time>2026-03-29T09:43:50.865Z</time></trkpt><trkpt lat="44.9982477" lon="7.87992"><ele>266.0</ele><time>2026-03-29T09:43:51.864Z</time></trkpt><trkpt lat="44.9984612" lon="7.8800127"><ele>267.0</ele><time>2026-03-29T09:43:52.863Z</time></trkpt><trkpt lat="44.998667" lon="7.8801112"><ele>268.0</ele><time>2026-03-29T09:43:53.866Z</time></trkpt><trkpt lat="44.9988616" lon="7.8802239"><ele>269.0</ele><time>2026-03-29T09:43:54.862Z</time></trkpt><trkpt lat="44.9990436" lon="7.8803523"><ele>268.33333333333337</ele><time>2026-03-29T09:43:55.865Z</time></trkpt><trkpt lat="44.9992164" lon="7.880496"><ele>267.6666666666667</ele><time>2026-03-29T09:43:56.861Z</time></trkpt><trkpt lat="44.9993843" lon="7.8806568"><ele>267.0</ele><time>2026-03-29T09:43:57.864Z</time></trkpt><trkpt lat="44.9995466" lon="7.8808293"><ele>266.3333333333333</ele><time>2026-03-29T09:43:58.861Z</time></trkpt><trkpt lat="44.9996965" lon="7.8810108"><ele>265.66666666666663</ele><time>2026-03-29T09:43:59.864Z</time></trkpt><trkpt lat="44.9998331" lon="7.8812115"><ele>265.0</ele><time>2026-03-29T09:44:00.865Z</time></trkpt><trkpt lat="44.9999586" lon="7.8814385"><ele>265.0</ele><time>2026-03-29T09:44:01.869Z</time></trkpt><trkpt lat="45.0000787" lon="7.8816954"><ele>265.0</ele><time>2026-03-29T09:44:02.862Z</time></trkpt><trkpt lat="45.0002016" lon="7.8819678"><ele>265.0</ele><time>2026-03-29T09:44:03.864Z</time></trkpt><trkpt lat="45.0003335" lon="7.8822507"><ele>266.5</ele><time>2026-03-29T09:44:04.864Z</time></trkpt><trkpt lat="45.0004725" lon="7.8825371"><ele>268.0</ele><time>2026-03-29T09:44:05.872Z</time></trkpt><trkpt lat="45.0006121" lon="7.8828157"><ele>268.0</ele><time>2026-03-29T09:44:06.861Z</time></trkpt><trkpt lat="45.0007479" lon="7.8830777"><ele>268.0</ele><time>2026-03-29T09:44:07.893Z</time></trkpt><trkpt lat="45.0008726" lon="7.8833224"><ele>268.0</ele><time>2026-03-29T09:44:08.861Z</time></trkpt><trkpt lat="45.0009869" lon="7.8835485"><ele>268.0</ele><time>2026-03-29T09:44:09.861Z</time></trkpt><trkpt lat="45.0010978" lon="7.8837557"><ele>268.0</ele><time>2026-03-29T09:44:10.864Z</time></trkpt><trkpt lat="45.0012146" lon="7.8839514"><ele>268.0</ele><time>2026-03-29T09:44:11.865Z</time></trkpt><trkpt lat="45.0013447" lon="7.8841374"><ele>268.3333333333333</ele><time>2026-03-29T09:44:12.864Z</time></trkpt><trkpt lat="45.0014891" lon="7.8843182"><ele>268.6666666666667</ele><time>2026-03-29T09:44:13.868Z</time></trkpt><trkpt lat="45.0016503" lon="7.8844948"><ele>269.0</ele><time>2026-03-29T09:44:14.871Z</time></trkpt><trkpt lat="45.0018255" lon="7.8846743"><ele>269.0</ele><time>2026-03-29T09:44:15.866Z</time></trkpt><trkpt lat="45.0020083" lon="7.8848606"><ele>269.0</ele><time>2026-03-29T09:44:16.864Z</time></trkpt><trkpt lat="45.002193" lon="7.8850501"><ele>269.5</ele><time>2026-03-29T09:44:17.865Z</time></trkpt><trkpt lat="45.0023741" lon="7.8852494"><ele>270.0</ele><time>2026-03-29T09:44:18.865Z</time></trkpt><trkpt lat="45.0025537" lon="7.885452"><ele>270.0</ele><time>2026-03-29T09:44:19.863Z</time></trkpt><trkpt lat="45.002734" lon="7.8856574"><ele>270.0</ele><time>2026-03-29T09:44:20.865Z</time></trkpt><trkpt lat="45.0029136" lon="7.8858644"><ele>269.5</ele><time>2026-03-29T09:44:21.86Z</time></trkpt><trkpt lat="45.0030921" lon="7.8860697"><ele>269.0</ele><time>2026-03-29T09:44:22.862Z</time></trkpt><trkpt lat="45.0032663" lon="7.88627"><ele>269.6666666666667</ele><time>2026-03-29T09:44:23.861Z</time></trkpt><trkpt lat="45.0034327" lon="7.8864589"><ele>270.3333333333333</ele><time>2026-03-29T09:44:24.865Z</time></trkpt><trkpt lat="45.0035887" lon="7.8866363"><ele>271.0</ele><time>2026-03-29T09:44:25.862Z</time></trkpt><trkpt lat="45.0037344" lon="7.8868043"><ele>271.66666666666663</ele><time>2026-03-29T09:44:26.861Z</time></trkpt><trkpt lat="45.0038732" lon="7.8869682"><ele>272.3333333333333</ele><time>2026-03-29T09:44:27.862Z</time></trkpt><trkpt lat="45.0040096" lon="7.8871332"><ele>273.0</ele><time>2026-03-29T09:44:28.861Z</time></trkpt><trkpt lat="45.0041458" lon="7.8873018"><ele>272.3333333333333</ele><time>2026-03-29T09:44:29.859Z</time></trkpt><trkpt lat="45.0042841" lon="7.8874709"><ele>271.66666666666663</ele><time>2026-03-29T09:44:30.862Z</time></trkpt><trkpt lat="45.0044274" lon="7.8876429"><ele>271.0</ele><time>2026-03-29T09:44:31.896Z</time></trkpt><trkpt lat="45.0045727" lon="7.8878158"><ele>271.0</ele><time>2026-03-29T09:44:32.859Z</time></trkpt><trkpt lat="45.0047186" lon="7.8879897"><ele>271.0</ele><time>2026-03-29T09:44:33.863Z</time></trkpt><trkpt lat="45.0048631" lon="7.8881619"><ele>271.0</ele><time>2026-03-29T09:44:34.862Z</time></trkpt><trkpt lat="45.0050079" lon="7.8883282"><ele>271.0</ele><time>2026-03-29T09:44:35.864Z</time></trkpt><trkpt lat="45.0051518" lon="7.8884957"><ele>271.0</ele><time>2026-03-29T09:44:36.867Z</time></trkpt><trkpt lat="45.0052967" lon="7.8886667"><ele>271.0</ele><time>2026-03-29T09:44:37.862Z</time></trkpt><trkpt lat="45.0054443" lon="7.8888422"><ele>271.0</ele><time>2026-03-29T09:44:38.862Z</time></trkpt><trkpt lat="45.0055956" lon="7.8890169"><ele>271.0</ele><time>2026-03-29T09:44:39.864Z</time></trkpt><trkpt lat="45.0057452" lon="7.8891947"><ele>271.0</ele><time>2026-03-29T09:44:40.863Z</time></trkpt><trkpt lat="45.005895" lon="7.889369"><ele>271.66666666666663</ele><time>2026-03-29T09:44:41.891Z</time></trkpt><trkpt lat="45.0060448" lon="7.8895446"><ele>272.3333333333333</ele><time>2026-03-29T09:44:42.865Z</time></trkpt><trkpt lat="45.006194" lon="7.8897178"><ele>273.0</ele><time>2026-03-29T09:44:43.862Z</time></trkpt><trkpt lat="45.0063426" lon="7.8898915"><ele>273.0</ele><time>2026-03-29T09:44:44.861Z</time></trkpt><trkpt lat="45.0064908" lon="7.8900694"><ele>273.0</ele><time>2026-03-29T09:44:45.895Z</time></trkpt><trkpt lat="45.0066396" lon="7.8902489"><ele>273.0</ele><time>2026-03-29T09:44:46.865Z</time></trkpt><trkpt lat="45.0067904" lon="7.8904224"><ele>273.6666666666667</ele><time>2026-03-29T09:44:47.867Z</time></trkpt><trkpt lat="45.0069432" lon="7.8905907"><ele>274.33333333333337</ele><time>2026-03-29T09:44:48.864Z</time></trkpt><trkpt lat="45.0070977" lon="7.8907616"><ele>275.0</ele><time>2026-03-29T09:44:49.862Z</time></trkpt><trkpt lat="45.0072528" lon="7.8909346"><ele>275.0</ele><time>2026-03-29T09:44:50.862Z</time></trkpt><trkpt lat="45.0074042" lon="7.8911106"><ele>275.0</ele><time>2026-03-29T09:44:51.869Z</time></trkpt><trkpt lat="45.0075557" lon="7.8912874"><ele>275.0</ele><time>2026-03-29T09:44:52.862Z</time></trkpt><trkpt lat="45.0077049" lon="7.8914628"><ele>274.6666666666667</ele><time>2026-03-29T09:44:53.862Z</time></trkpt><trkpt lat="45.0078494" lon="7.8916341"><ele>274.3333333333333</ele><time>2026-03-29T09:44:54.865Z</time></trkpt><trkpt lat="45.00799" lon="7.8918039"><ele>274.0</ele><time>2026-03-29T09:44:55.863Z</time></trkpt><trkpt lat="45.0081223" lon="7.8919629"><ele>274.5</ele><time>2026-03-29T09:44:56.862Z</time></trkpt><trkpt lat="45.0082312" lon="7.8920998"><ele>275.0</ele><time>2026-03-29T09:44:57.865Z</time></trkpt><trkpt lat="45.0083293" lon="7.8922158"><ele>275.5</ele><time>2026-03-29T09:44:58.859Z</time></trkpt><trkpt lat="45.0084199" lon="7.8923233"><ele>276.0</ele><time>2026-03-29T09:44:59.859Z</time></trkpt><trkpt lat="45.0085139" lon="7.8924239"><ele>276.25</ele><time>2026-03-29T09:45:00.87Z</time></trkpt><trkpt lat="45.0086132" lon="7.8925327"><ele>276.5</ele><time>2026-03-29T09:45:01.861Z</time></trkpt><trkpt lat="45.0087216" lon="7.8926532"><ele>276.75</ele><time>2026-03-29T09:45:02.868Z</time></trkpt><trkpt lat="45.0088413" lon="7.8927903"><ele>277.0</ele><time>2026-03-29T09:45:03.86Z</time></trkpt><trkpt lat="45.0089723" lon="7.8929385"><ele>277.0</ele><time>2026-03-29T09:45:04.864Z</time></trkpt><trkpt lat="45.0091156" lon="7.8931002"><ele>277.0</ele><time>2026-03-29T09:45:05.867Z</time></trkpt><trkpt lat="45.0092664" lon="7.8932725"><ele>277.0</ele><time>2026-03-29T09:45:06.866Z</time></trkpt><trkpt lat="45.0094251" lon="7.8934552"><ele>277.0</ele><time>2026-03-29T09:45:07.869Z</time></trkpt><trkpt lat="45.0095878" lon="7.8936421"><ele>277.0</ele><time>2026-03-29T09:45:08.859Z</time></trkpt><trkpt lat="45.0097458" lon="7.8938308"><ele>277.0</ele><time>2026-03-29T09:45:09.863Z</time></trkpt><trkpt lat="45.0098902" lon="7.8940107"><ele>276.66666666666663</ele><time>2026-03-29T09:45:10.868Z</time></trkpt><trkpt lat="45.0100235" lon="7.8941826"><ele>276.3333333333333</ele><time>2026-03-29T09:45:11.867Z</time></trkpt><trkpt lat="45.0101346" lon="7.8943468"><ele>276.0</ele><time>2026-03-29T09:45:12.865Z</time></trkpt><trkpt lat="45.0102227" lon="7.8945125"><ele>276.0</ele><time>2026-03-29T09:45:13.869Z</time></trkpt><trkpt lat="45.0102843" lon="7.894682"><ele>276.0</ele><time>2026-03-29T09:45:14.86Z</time></trkpt><trkpt lat="45.0103361" lon="7.8948527"><ele>276.0</ele><time>2026-03-29T09:45:15.864Z</time></trkpt><trkpt lat="45.0104126" lon="7.895009"><ele>276.0</ele><time>2026-03-29T09:45:16.865Z</time></trkpt><trkpt lat="45.0105104" lon="7.8951561"><ele>276.0</ele><time>2026-03-29T09:45:17.863Z</time></trkpt><trkpt lat="45.0106392" lon="7.8952879"><ele>276.0</ele><time>2026-03-29T09:45:18.866Z</time></trkpt><trkpt lat="45.0107751" lon="7.8954336"><ele>276.0</ele><time>2026-03-29T09:45:19.871Z</time></trkpt><trkpt lat="45.0109084" lon="7.8956142"><ele>274.6666666666667</ele><time>2026-03-29T09:45:20.865Z</time></trkpt><trkpt lat="45.0110386" lon="7.8958292"><ele>273.33333333333337</ele><time>2026-03-29T09:45:21.896Z</time></trkpt><trkpt lat="45.01117" lon="7.8960565"><ele>272.0</ele><time>2026-03-29T09:45:22.869Z</time></trkpt><trkpt lat="45.0113061" lon="7.8962833"><ele>271.6666666666667</ele><time>2026-03-29T09:45:23.862Z</time></trkpt><trkpt lat="45.0114399" lon="7.8965061"><ele>271.3333333333333</ele><time>2026-03-29T09:45:24.862Z</time></trkpt><trkpt lat="45.0115722" lon="7.896726"><ele>271.0</ele><time>2026-03-29T09:45:25.868Z</time></trkpt><trkpt lat="45.0117073" lon="7.896942"><ele>269.66666666666663</ele><time>2026-03-29T09:45:26.894Z</time></trkpt><trkpt lat="45.0118454" lon="7.8971592"><ele>268.3333333333333</ele><time>2026-03-29T09:45:27.863Z</time></trkpt><trkpt lat="45.0119865" lon="7.8973756"><ele>267.0</ele><time>2026-03-29T09:45:28.863Z</time></trkpt><trkpt lat="45.0121248" lon="7.8975901"><ele>266.6666666666667</ele><time>2026-03-29T09:45:29.865Z</time></trkpt><trkpt lat="45.0122569" lon="7.8977898"><ele>266.33333333333337</ele><time>2026-03-29T09:45:30.868Z</time></trkpt><trkpt lat="45.0123815" lon="7.897978"><ele>266.0</ele><time>2026-03-29T09:45:31.863Z</time></trkpt><trkpt lat="45.0124969" lon="7.8981588"><ele>267.0</ele><time>2026-03-29T09:45:32.862Z</time></trkpt><trkpt lat="45.0126051" lon="7.8983405"><ele>268.0</ele><time>2026-03-29T09:45:33.865Z</time></trkpt><trkpt lat="45.0127158" lon="7.8985175"><ele>269.0</ele><time>2026-03-29T09:45:34.861Z</time></trkpt><trkpt lat="45.0128276" lon="7.8986947"><ele>270.33333333333337</ele><time>2026-03-29T09:45:35.862Z</time></trkpt><trkpt lat="45.0129407" lon="7.8988635"><ele>271.6666666666667</ele><time>2026-03-29T09:45:36.862Z</time></trkpt><trkpt lat="45.0130586" lon="7.8990127"><ele>273.0</ele><time>2026-03-29T09:45:37.865Z</time></trkpt><trkpt lat="45.0131776" lon="7.8991356"><ele>273.0</ele><time>2026-03-29T09:45:38.869Z</time></trkpt><trkpt lat="45.0132977" lon="7.899223"><ele>273.0</ele><time>2026-03-29T09:45:39.861Z</time></trkpt><trkpt lat="45.0134245" lon="7.8992665"><ele>273.0</ele><time>2026-03-29T09:45:40.866Z</time></trkpt><trkpt lat="45.01356" lon="7.8992692"><ele>273.0</ele><time>2026-03-29T09:45:41.864Z</time></trkpt><trkpt lat="45.0137078" lon="7.8992441"><ele>271.6666666666667</ele><time>2026-03-29T09:45:42.865Z</time></trkpt><trkpt lat="45.0138647" lon="7.8992132"><ele>270.33333333333337</ele><time>2026-03-29T09:45:43.867Z</time></trkpt><trkpt lat="45.0140219" lon="7.8991874"><ele>269.0</ele><time>2026-03-29T09:45:44.863Z</time></trkpt><trkpt lat="45.0141672" lon="7.8991698"><ele>269.0</ele><time>2026-03-29T09:45:45.872Z</time></trkpt><trkpt lat="45.0142953" lon="7.8991545"><ele>269.0</ele><time>2026-03-29T09:45:46.858Z</time></trkpt><trkpt lat="45.0143986" lon="7.8991261"><ele>269.0</ele><time>2026-03-29T09:45:47.86Z</time></trkpt><trkpt lat="45.0144759" lon="7.8990765"><ele>269.0</ele><time>2026-03-29T09:45:48.86Z</time></trkpt><trkpt lat="45.0145219" lon="7.8989865"><ele>269.0</ele><time>2026-03-29T09:45:49.861Z</time></trkpt><trkpt lat="45.0145416" lon="7.8988724"><ele>269.0</ele><time>2026-03-29T09:45:50.869Z</time></trkpt><trkpt lat="45.0145516" lon="7.8987465"><ele>269.0</ele><time>2026-03-29T09:45:51.861Z</time></trkpt><trkpt lat="45.0145742" lon="7.8986288"><ele>269.0</ele><time>2026-03-29T09:45:52.863Z</time></trkpt><trkpt lat="45.0146127" lon="7.8985185"><ele>269.0</ele><time>2026-03-29T09:45:53.866Z</time></trkpt><trkpt lat="45.0146747" lon="7.8984287"><ele>269.0</ele><time>2026-03-29T09:45:54.861Z</time></trkpt><trkpt lat="45.0147785" lon="7.8983729"><ele>268.5</ele><time>2026-03-29T09:45:55.864Z</time></trkpt><trkpt lat="45.0149143" lon="7.8983216"><ele>268.0</ele><time>2026-03-29T09:45:56.862Z</time></trkpt><trkpt lat="45.0150563" lon="7.8982613"><ele>267.5</ele><time>2026-03-29T09:45:57.863Z</time></trkpt><trkpt lat="45.0151998" lon="7.8981854"><ele>267.0</ele><time>2026-03-29T09:45:58.873Z</time></trkpt><trkpt lat="45.0153439" lon="7.8980914"><ele>268.0</ele><time>2026-03-29T09:45:59.884Z</time></trkpt><trkpt lat="45.0154722" lon="7.8980024"><ele>269.0</ele><time>2026-03-29T09:46:00.866Z</time></trkpt><trkpt lat="45.0155846" lon="7.897923"><ele>270.0</ele><time>2026-03-29T09:46:01.867Z</time></trkpt><trkpt lat="45.0156734" lon="7.8978574"><ele>271.0</ele><time>2026-03-29T09:46:02.87Z</time></trkpt><trkpt lat="45.0157483" lon="7.8978215"><ele>272.0</ele><time>2026-03-29T09:46:03.86Z</time></trkpt><trkpt lat="45.0158455" lon="7.8978489"><ele>272.25</ele><time>2026-03-29T09:46:05.865Z</time></trkpt><trkpt lat="45.0159231" lon="7.8979826"><ele>272.5</ele><time>2026-03-29T09:46:07.863Z</time></trkpt><trkpt lat="45.0159878" lon="7.8981097"><ele>272.75</ele><time>2026-03-29T09:46:08.865Z</time></trkpt><trkpt lat="45.0160675" lon="7.8982577"><ele>273.0</ele><time>2026-03-29T09:46:09.901Z</time></trkpt><trkpt lat="45.0161581" lon="7.8984241"><ele>274.5</ele><time>2026-03-29T09:46:10.864Z</time></trkpt><trkpt lat="45.0162545" lon="7.898583"><ele>276.0</ele><time>2026-03-29T09:46:11.863Z</time></trkpt><trkpt lat="45.016351" lon="7.8987378"><ele>277.5</ele><time>2026-03-29T09:46:12.868Z</time></trkpt><trkpt lat="45.0164421" lon="7.8988825"><ele>279.0</ele><time>2026-03-29T09:46:13.872Z</time></trkpt><trkpt lat="45.0165275" lon="7.8990107"><ele>279.0</ele><time>2026-03-29T09:46:14.861Z</time></trkpt><trkpt lat="45.0166057" lon="7.8991179"><ele>279.0</ele><time>2026-03-29T09:46:15.862Z</time></trkpt><trkpt lat="45.0166829" lon="7.8992004"><ele>279.0</ele><time>2026-03-29T09:46:16.861Z</time></trkpt><trkpt lat="45.0167643" lon="7.8992535"><ele>279.0</ele><time>2026-03-29T09:46:17.865Z</time></trkpt><trkpt lat="45.0168594" lon="7.8992685"><ele>279.0</ele><time>2026-03-29T09:46:18.871Z</time></trkpt><trkpt lat="45.0169675" lon="7.8992661"><ele>278.0</ele><time>2026-03-29T09:46:19.868Z</time></trkpt><trkpt lat="45.017083" lon="7.8992395"><ele>277.0</ele><time>2026-03-29T09:46:20.899Z</time></trkpt><trkpt lat="45.0172077" lon="7.8991981"><ele>276.0</ele><time>2026-03-29T09:46:21.872Z</time></trkpt><trkpt lat="45.0173377" lon="7.8991564"><ele>275.0</ele><time>2026-03-29T09:46:22.864Z</time></trkpt><trkpt lat="45.0174793" lon="7.899121"><ele>275.33333333333337</ele><time>2026-03-29T09:46:23.865Z</time></trkpt><trkpt lat="45.017632" lon="7.8990881"><ele>275.6666666666667</ele><time>2026-03-29T09:46:24.87Z</time></trkpt><trkpt lat="45.0177886" lon="7.8990578"><ele>276.0</ele><time>2026-03-29T09:46:25.879Z</time></trkpt><trkpt lat="45.0179495" lon="7.8990242"><ele>276.0</ele><time>2026-03-29T09:46:26.872Z</time></trkpt><trkpt lat="45.018108" lon="7.898993"><ele>276.0</ele><time>2026-03-29T09:46:27.876Z</time></trkpt><trkpt lat="45.0182495" lon="7.8989613"><ele>276.0</ele><time>2026-03-29T09:46:28.868Z</time></trkpt><trkpt lat="45.0183724" lon="7.8989345"><ele>276.0</ele><time>2026-03-29T09:46:29.86Z</time></trkpt><trkpt lat="45.0184801" lon="7.8989133"><ele>277.1666666666667</ele><time>2026-03-29T09:46:30.859Z</time></trkpt><trkpt lat="45.0185668" lon="7.8988894"><ele>278.3333333333333</ele><time>2026-03-29T09:46:31.863Z</time></trkpt><trkpt lat="45.0186438" lon="7.8988715"><ele>279.5</ele><time>2026-03-29T09:46:32.86Z</time></trkpt><trkpt lat="45.0187131" lon="7.8988717"><ele>280.66666666666663</ele><time>2026-03-29T09:46:33.861Z</time></trkpt><trkpt lat="45.0187796" lon="7.8989022"><ele>281.8333333333333</ele><time>2026-03-29T09:46:35.872Z</time></trkpt><trkpt lat="45.0187701" lon="7.8989936"><ele>283.0</ele><time>2026-03-29T09:46:37.861Z</time></trkpt><trkpt lat="45.0187794" lon="7.8992119"><ele>282.25</ele><time>2026-03-29T09:46:39.868Z</time></trkpt><trkpt lat="45.0188112" lon="7.8993825"><ele>281.5</ele><time>2026-03-29T09:46:40.861Z</time></trkpt><trkpt lat="45.0188593" lon="7.8995737"><ele>280.75</ele><time>2026-03-29T09:46:41.863Z</time></trkpt><trkpt lat="45.0189233" lon="7.8997519"><ele>280.0</ele><time>2026-03-29T09:46:42.861Z</time></trkpt><trkpt lat="45.0189988" lon="7.8999212"><ele>280.0</ele><time>2026-03-29T09:46:43.871Z</time></trkpt><trkpt lat="45.0190895" lon="7.9000732"><ele>280.0</ele><time>2026-03-29T09:46:44.884Z</time></trkpt><trkpt lat="45.019193" lon="7.9002181"><ele>280.0</ele><time>2026-03-29T09:46:45.864Z</time></trkpt><trkpt lat="45.0192918" lon="7.9003596"><ele>280.0</ele><time>2026-03-29T09:46:46.863Z</time></trkpt><trkpt lat="45.0193807" lon="7.9005038"><ele>280.6</ele><time>2026-03-29T09:46:47.865Z</time></trkpt><trkpt lat="45.0194529" lon="7.9006492"><ele>281.2</ele><time>2026-03-29T09:46:48.861Z</time></trkpt><trkpt lat="45.0195065" lon="7.9007926"><ele>281.8</ele><time>2026-03-29T09:46:49.861Z</time></trkpt><trkpt lat="45.019547" lon="7.9009307"><ele>282.4</ele><time>2026-03-29T09:46:50.905Z</time></trkpt><trkpt lat="45.0195788" lon="7.9010692"><ele>283.0</ele><time>2026-03-29T09:46:51.863Z</time></trkpt><trkpt lat="45.0196102" lon="7.9012062"><ele>283.0</ele><time>2026-03-29T09:46:52.865Z</time></trkpt><trkpt lat="45.019643" lon="7.90134"><ele>283.0</ele><time>2026-03-29T09:46:53.872Z</time></trkpt><trkpt lat="45.0196785" lon="7.9014728"><ele>283.0</ele><time>2026-03-29T09:46:54.865Z</time></trkpt><trkpt lat="45.019713" lon="7.9016103"><ele>283.0</ele><time>2026-03-29T09:46:55.867Z</time></trkpt><trkpt lat="45.0197503" lon="7.9017527"><ele>283.0</ele><time>2026-03-29T09:46:56.881Z</time></trkpt><trkpt lat="45.0197861" lon="7.9018988"><ele>282.5</ele><time>2026-03-29T09:46:57.865Z</time></trkpt><trkpt lat="45.0198237" lon="7.9020506"><ele>282.0</ele><time>2026-03-29T09:46:58.863Z</time></trkpt><trkpt lat="45.0198599" lon="7.9022096"><ele>281.5</ele><time>2026-03-29T09:46:59.864Z</time></trkpt><trkpt lat="45.0198977" lon="7.902373"><ele>281.0</ele><time>2026-03-29T09:47:00.865Z</time></trkpt><trkpt lat="45.0199385" lon="7.9025434"><ele>281.25</ele><time>2026-03-29T09:47:01.874Z</time></trkpt><trkpt lat="45.0199791" lon="7.9027214"><ele>281.5</ele><time>2026-03-29T09:47:02.865Z</time></trkpt><trkpt lat="45.0200219" lon="7.9029009"><ele>281.75</ele><time>2026-03-29T09:47:03.863Z</time></trkpt><trkpt lat="45.0200649" lon="7.9030785"><ele>282.0</ele><time>2026-03-29T09:47:04.858Z</time></trkpt><trkpt lat="45.0201123" lon="7.9032551"><ele>283.0</ele><time>2026-03-29T09:47:05.862Z</time></trkpt><trkpt lat="45.0201607" lon="7.9034317"><ele>284.0</ele><time>2026-03-29T09:47:06.866Z</time></trkpt><trkpt lat="45.0202097" lon="7.9036138"><ele>285.0</ele><time>2026-03-29T09:47:07.869Z</time></trkpt><trkpt lat="45.0202605" lon="7.903798"><ele>286.0</ele><time>2026-03-29T09:47:08.866Z</time></trkpt><trkpt lat="45.0203093" lon="7.9039839"><ele>286.0</ele><time>2026-03-29T09:47:09.865Z</time></trkpt><trkpt lat="45.0203572" lon="7.9041717"><ele>286.0</ele><time>2026-03-29T09:47:10.868Z</time></trkpt><trkpt lat="45.0204074" lon="7.904352"><ele>286.0</ele><time>2026-03-29T09:47:11.863Z</time></trkpt><trkpt lat="45.0204541" lon="7.9045257"><ele>286.0</ele><time>2026-03-29T09:47:12.866Z</time></trkpt><trkpt lat="45.0205004" lon="7.9046849"><ele>286.2</ele><time>2026-03-29T09:47:13.865Z</time></trkpt><trkpt lat="45.0205431" lon="7.9048294"><ele>286.40000000000003</ele><time>2026-03-29T09:47:14.891Z</time></trkpt><trkpt lat="45.0205821" lon="7.9049696"><ele>286.6</ele><time>2026-03-29T09:47:15.898Z</time></trkpt><trkpt lat="45.0206165" lon="7.9051034"><ele>286.8</ele><time>2026-03-29T09:47:16.862Z</time></trkpt><trkpt lat="45.0206471" lon="7.9052348"><ele>287.0</ele><time>2026-03-29T09:47:17.87Z</time></trkpt><trkpt lat="45.020677" lon="7.9053597"><ele>287.0</ele><time>2026-03-29T09:47:18.863Z</time></trkpt><trkpt lat="45.0207041" lon="7.9054707"><ele>287.0</ele><time>2026-03-29T09:47:19.862Z</time></trkpt><trkpt lat="45.0207294" lon="7.9055644"><ele>287.0</ele><time>2026-03-29T09:47:20.862Z</time></trkpt><trkpt lat="45.0207744" lon="7.9057203"><ele>287.0</ele><time>2026-03-29T09:47:22.867Z</time></trkpt><trkpt lat="45.0208185" lon="7.9058836"><ele>287.0</ele><time>2026-03-29T09:47:24.871Z</time></trkpt><trkpt lat="45.0208619" lon="7.9060389"><ele>286.83333333333337</ele><time>2026-03-29T09:47:26.898Z</time></trkpt><trkpt lat="45.0209414" lon="7.9061566"><ele>286.6666666666667</ele><time>2026-03-29T09:47:28.861Z</time></trkpt><trkpt lat="45.0210024" lon="7.9061921"><ele>286.5</ele><time>2026-03-29T09:47:29.867Z</time></trkpt><trkpt lat="45.0210777" lon="7.9062101"><ele>286.3333333333333</ele><time>2026-03-29T09:47:30.869Z</time></trkpt><trkpt lat="45.0211677" lon="7.9062166"><ele>286.16666666666663</ele><time>2026-03-29T09:47:31.87Z</time></trkpt><trkpt lat="45.0212618" lon="7.9062232"><ele>286.0</ele><time>2026-03-29T09:47:32.864Z</time></trkpt><trkpt lat="45.0213533" lon="7.9062321"><ele>286.0</ele><time>2026-03-29T09:47:33.865Z</time></trkpt><trkpt lat="45.0214414" lon="7.9062418"><ele>286.0</ele><time>2026-03-29T09:47:34.871Z</time></trkpt><trkpt lat="45.0215281" lon="7.9062566"><ele>286.0</ele><time>2026-03-29T09:47:35.86Z</time></trkpt><trkpt lat="45.0216111" lon="7.9062693"><ele>286.0</ele><time>2026-03-29T09:47:36.862Z</time></trkpt><trkpt lat="45.0216903" lon="7.9062849"><ele>286.0</ele><time>2026-03-29T09:47:37.865Z</time></trkpt><trkpt lat="45.0217638" lon="7.9063004"><ele>286.0</ele><time>2026-03-29T09:47:38.869Z</time></trkpt><trkpt lat="45.0218304" lon="7.9063131"><ele>285.40000000000003</ele><time>2026-03-29T09:47:39.865Z</time></trkpt><trkpt lat="45.021946" lon="7.9063251"><ele>284.8</ele><time>2026-03-29T09:47:41.873Z</time></trkpt><trkpt lat="45.0220426" lon="7.9063368"><ele>284.20000000000005</ele><time>2026-03-29T09:47:43.864Z</time></trkpt><trkpt lat="45.0221137" lon="7.9063629"><ele>283.6</ele><time>2026-03-29T09:47:45.864Z</time></trkpt><trkpt lat="45.0221429" lon="7.9064608"><ele>283.0</ele><time>2026-03-29T09:47:48.867Z</time></trkpt><trkpt lat="45.0221258" lon="7.906596"><ele>283.0</ele><time>2026-03-29T09:47:50.876Z</time></trkpt><trkpt lat="45.0221096" lon="7.9066927"><ele>283.0</ele><time>2026-03-29T09:47:51.865Z</time></trkpt><trkpt lat="45.022092" lon="7.9068209"><ele>283.0</ele><time>2026-03-29T09:47:52.87Z</time></trkpt><trkpt lat="45.0220641" lon="7.9069853"><ele>283.0</ele><time>2026-03-29T09:47:53.872Z</time></trkpt><trkpt lat="45.0220428" lon="7.9071542"><ele>283.0</ele><time>2026-03-29T09:47:54.863Z</time></trkpt><trkpt lat="45.0220222" lon="7.9073174"><ele>282.4</ele><time>2026-03-29T09:47:55.865Z</time></trkpt><trkpt lat="45.0220121" lon="7.9074769"><ele>281.8</ele><time>2026-03-29T09:47:56.871Z</time></trkpt><trkpt lat="45.0220053" lon="7.9076271"><ele>281.2</ele><time>2026-03-29T09:47:57.867Z</time></trkpt><trkpt lat="45.0219955" lon="7.9077711"><ele>280.6</ele><time>2026-03-29T09:47:58.863Z</time></trkpt><trkpt lat="45.0219832" lon="7.9079048"><ele>280.0</ele><time>2026-03-29T09:47:59.864Z</time></trkpt><trkpt lat="45.0219804" lon="7.9080308"><ele>279.8333333333333</ele><time>2026-03-29T09:48:00.864Z</time></trkpt><trkpt lat="45.0219746" lon="7.9081511"><ele>279.66666666666663</ele><time>2026-03-29T09:48:01.864Z</time></trkpt><trkpt lat="45.0219662" lon="7.908266"><ele>279.5</ele><time>2026-03-29T09:48:02.866Z</time></trkpt><trkpt lat="45.0219571" lon="7.908386"><ele>279.3333333333333</ele><time>2026-03-29T09:48:03.868Z</time></trkpt><trkpt lat="45.0219562" lon="7.9085099"><ele>279.1666666666667</ele><time>2026-03-29T09:48:04.864Z</time></trkpt><trkpt lat="45.021951" lon="7.908636"><ele>279.0</ele><time>2026-03-29T09:48:05.864Z</time></trkpt><trkpt lat="45.0219422" lon="7.9087621"><ele>278.8333333333333</ele><time>2026-03-29T09:48:06.859Z</time></trkpt><trkpt lat="45.0219337" lon="7.9088842"><ele>278.6666666666667</ele><time>2026-03-29T09:48:07.864Z</time></trkpt><trkpt lat="45.0219278" lon="7.9089979"><ele>278.5</ele><time>2026-03-29T09:48:08.865Z</time></trkpt><trkpt lat="45.0219235" lon="7.9091125"><ele>278.33333333333337</ele><time>2026-03-29T09:48:09.866Z</time></trkpt><trkpt lat="45.0219138" lon="7.9092312"><ele>278.1666666666667</ele><time>2026-03-29T09:48:10.862Z</time></trkpt><trkpt lat="45.0218944" lon="7.9093474"><ele>278.0</ele><time>2026-03-29T09:48:11.863Z</time></trkpt><trkpt lat="45.0218633" lon="7.9094672"><ele>278.0</ele><time>2026-03-29T09:48:12.863Z</time></trkpt><trkpt lat="45.0218235" lon="7.9095807"><ele>278.0</ele><time>2026-03-29T09:48:13.861Z</time></trkpt><trkpt lat="45.0217828" lon="7.9096943"><ele>278.0</ele><time>2026-03-29T09:48:14.865Z</time></trkpt><trkpt lat="45.0217426" lon="7.9098039"><ele>278.0</ele><time>2026-03-29T09:48:15.863Z</time></trkpt><trkpt lat="45.021707" lon="7.9099063"><ele>278.0</ele><time>2026-03-29T09:48:16.863Z</time></trkpt><trkpt lat="45.0216816" lon="7.9099925"><ele>278.0</ele><time>2026-03-29T09:48:17.862Z</time></trkpt><trkpt lat="45.021637" lon="7.9101409"><ele>277.6666666666667</ele><time>2026-03-29T09:48:19.863Z</time></trkpt><trkpt lat="45.0215863" lon="7.9102905"><ele>277.33333333333337</ele><time>2026-03-29T09:48:21.863Z</time></trkpt><trkpt lat="45.0215609" lon="7.9103754"><ele>277.0</ele><time>2026-03-29T09:48:22.86Z</time></trkpt><trkpt lat="45.0215318" lon="7.9104705"><ele>276.6666666666667</ele><time>2026-03-29T09:48:23.861Z</time></trkpt><trkpt lat="45.0214971" lon="7.910569"><ele>276.3333333333333</ele><time>2026-03-29T09:48:24.863Z</time></trkpt><trkpt lat="45.0214591" lon="7.9106631"><ele>276.0</ele><time>2026-03-29T09:48:25.864Z</time></trkpt><trkpt lat="45.0214275" lon="7.9107573"><ele>276.0</ele><time>2026-03-29T09:48:26.866Z</time></trkpt><trkpt lat="45.0214077" lon="7.9108606"><ele>276.0</ele><time>2026-03-29T09:48:27.862Z</time></trkpt><trkpt lat="45.0214069" lon="7.9109743"><ele>276.0</ele><time>2026-03-29T09:48:28.867Z</time></trkpt><trkpt lat="45.0214192" lon="7.9110953"><ele>276.0</ele><time>2026-03-29T09:48:29.864Z</time></trkpt><trkpt lat="45.0214326" lon="7.9112256"><ele>276.0</ele><time>2026-03-29T09:48:30.859Z</time></trkpt><trkpt lat="45.0214399" lon="7.9113676"><ele>276.0</ele><time>2026-03-29T09:48:31.862Z</time></trkpt><trkpt lat="45.0214416" lon="7.9115074"><ele>276.2</ele><time>2026-03-29T09:48:32.866Z</time></trkpt><trkpt lat="45.0214424" lon="7.9116456"><ele>276.40000000000003</ele><time>2026-03-29T09:48:33.869Z</time></trkpt><trkpt lat="45.0214452" lon="7.911779"><ele>276.6</ele><time>2026-03-29T09:48:34.874Z</time></trkpt><trkpt lat="45.0214542" lon="7.9119115"><ele>276.8</ele><time>2026-03-29T09:48:35.864Z</time></trkpt><trkpt lat="45.0214605" lon="7.9120372"><ele>277.0</ele><time>2026-03-29T09:48:36.869Z</time></trkpt><trkpt lat="45.0214618" lon="7.912164"><ele>277.8333333333333</ele><time>2026-03-29T09:48:37.868Z</time></trkpt><trkpt lat="45.0214615" lon="7.9122854"><ele>278.66666666666663</ele><time>2026-03-29T09:48:38.864Z</time></trkpt><trkpt lat="45.0214414" lon="7.9124063"><ele>279.5</ele><time>2026-03-29T09:48:39.867Z</time></trkpt><trkpt lat="45.0214144" lon="7.912529"><ele>280.3333333333333</ele><time>2026-03-29T09:48:40.865Z</time></trkpt><trkpt lat="45.02138" lon="7.9126403"><ele>281.1666666666667</ele><time>2026-03-29T09:48:41.863Z</time></trkpt><trkpt lat="45.0213479" lon="7.9127384"><ele>282.0</ele><time>2026-03-29T09:48:42.862Z</time></trkpt><trkpt lat="45.0213223" lon="7.9128363"><ele>282.0</ele><time>2026-03-29T09:48:43.862Z</time></trkpt><trkpt lat="45.0213053" lon="7.9129491"><ele>282.0</ele><time>2026-03-29T09:48:44.865Z</time></trkpt><trkpt lat="45.0212913" lon="7.9130712"><ele>282.0</ele><time>2026-03-29T09:48:45.869Z</time></trkpt><trkpt lat="45.0212785" lon="7.9132009"><ele>282.0</ele><time>2026-03-29T09:48:46.862Z</time></trkpt><trkpt lat="45.0212612" lon="7.9133353"><ele>282.0</ele><time>2026-03-29T09:48:47.861Z</time></trkpt><trkpt lat="45.0212402" lon="7.9134661"><ele>282.0</ele><time>2026-03-29T09:48:48.868Z</time></trkpt><trkpt lat="45.0212094" lon="7.9135871"><ele>282.0</ele><time>2026-03-29T09:48:49.861Z</time></trkpt><trkpt lat="45.0211722" lon="7.9137016"><ele>282.0</ele><time>2026-03-29T09:48:50.863Z</time></trkpt><trkpt lat="45.0211282" lon="7.9138084"><ele>282.0</ele><time>2026-03-29T09:48:51.867Z</time></trkpt><trkpt lat="45.0210876" lon="7.9139122"><ele>282.0</ele><time>2026-03-29T09:48:52.865Z</time></trkpt><trkpt lat="45.0210575" lon="7.9140141"><ele>282.0</ele><time>2026-03-29T09:48:53.892Z</time></trkpt><trkpt lat="45.0210371" lon="7.9141119"><ele>282.0</ele><time>2026-03-29T09:48:54.862Z</time></trkpt><trkpt lat="45.0210307" lon="7.9142268"><ele>282.0</ele><time>2026-03-29T09:48:55.866Z</time></trkpt><trkpt lat="45.0210268" lon="7.9143454"><ele>282.0</ele><time>2026-03-29T09:48:56.862Z</time></trkpt><trkpt lat="45.0210297" lon="7.9144654"><ele>282.0</ele><time>2026-03-29T09:48:57.866Z</time></trkpt><trkpt lat="45.0210352" lon="7.9145904"><ele>282.0</ele><time>2026-03-29T09:48:58.874Z</time></trkpt><trkpt lat="45.0210369" lon="7.9147119"><ele>282.0</ele><time>2026-03-29T09:48:59.868Z</time></trkpt><trkpt lat="45.0210481" lon="7.9148398"><ele>282.0</ele><time>2026-03-29T09:49:00.873Z</time></trkpt><trkpt lat="45.0210552" lon="7.9149679"><ele>282.0</ele><time>2026-03-29T09:49:01.865Z</time></trkpt><trkpt lat="45.0210603" lon="7.9150956"><ele>282.0</ele><time>2026-03-29T09:49:02.869Z</time></trkpt><trkpt lat="45.0210661" lon="7.9152289"><ele>282.0</ele><time>2026-03-29T09:49:03.867Z</time></trkpt><trkpt lat="45.0210668" lon="7.9153574"><ele>282.0</ele><time>2026-03-29T09:49:04.869Z</time></trkpt><trkpt lat="45.0210727" lon="7.9154851"><ele>282.0</ele><time>2026-03-29T09:49:05.87Z</time></trkpt><trkpt lat="45.0210765" lon="7.9156125"><ele>282.0</ele><time>2026-03-29T09:49:06.863Z</time></trkpt><trkpt lat="45.0210817" lon="7.9157453"><ele>282.0</ele><time>2026-03-29T09:49:07.874Z</time></trkpt><trkpt lat="45.021088" lon="7.9158778"><ele>282.0</ele><time>2026-03-29T09:49:08.87Z</time></trkpt><trkpt lat="45.0210956" lon="7.9160088"><ele>282.0</ele><time>2026-03-29T09:49:09.873Z</time></trkpt><trkpt lat="45.0211032" lon="7.9161431"><ele>283.0</ele><time>2026-03-29T09:49:10.864Z</time></trkpt><trkpt lat="45.0211088" lon="7.9162851"><ele>284.0</ele><time>2026-03-29T09:49:11.862Z</time></trkpt><trkpt lat="45.0211106" lon="7.9164317"><ele>285.0</ele><time>2026-03-29T09:49:12.859Z</time></trkpt><trkpt lat="45.0211089" lon="7.9165742"><ele>286.0</ele><time>2026-03-29T09:49:13.869Z</time></trkpt><trkpt lat="45.0211046" lon="7.9167132"><ele>287.0</ele><time>2026-03-29T09:49:14.873Z</time></trkpt><trkpt lat="45.0210951" lon="7.9168438"><ele>287.0</ele><time>2026-03-29T09:49:15.862Z</time></trkpt><trkpt lat="45.0210689" lon="7.9169591"><ele>287.0</ele><time>2026-03-29T09:49:16.863Z</time></trkpt><trkpt lat="45.0210428" lon="7.917055"><ele>287.0</ele><time>2026-03-29T09:49:17.867Z</time></trkpt><trkpt lat="45.0210073" lon="7.9171966"><ele>287.0</ele><time>2026-03-29T09:49:19.869Z</time></trkpt><trkpt lat="45.0209588" lon="7.917281"><ele>287.0</ele><time>2026-03-29T09:49:23.862Z</time></trkpt><trkpt lat="45.0208824" lon="7.9172935"><ele>287.0</ele><time>2026-03-29T09:49:25.875Z</time></trkpt><trkpt lat="45.0207634" lon="7.9173296"><ele>287.0</ele><time>2026-03-29T09:49:27.867Z</time></trkpt><trkpt lat="45.0206774" lon="7.9174038"><ele>287.0</ele><time>2026-03-29T09:49:29.861Z</time></trkpt><trkpt lat="45.0206095" lon="7.9174935"><ele>287.0</ele><time>2026-03-29T09:49:31.865Z</time></trkpt><trkpt lat="45.0205562" lon="7.9176246"><ele>287.0</ele><time>2026-03-29T09:49:33.869Z</time></trkpt><trkpt lat="45.0205441" lon="7.9177149"><ele>287.0</ele><time>2026-03-29T09:49:34.86Z</time></trkpt><trkpt lat="45.0205386" lon="7.9178271"><ele>287.0</ele><time>2026-03-29T09:49:35.862Z</time></trkpt><trkpt lat="45.0205373" lon="7.917958"><ele>287.0</ele><time>2026-03-29T09:49:36.866Z</time></trkpt><trkpt lat="45.0205357" lon="7.9181037"><ele>287.0</ele><time>2026-03-29T09:49:37.861Z</time></trkpt><trkpt lat="45.0205291" lon="7.9182543"><ele>287.0</ele><time>2026-03-29T09:49:38.86Z</time></trkpt><trkpt lat="45.020522" lon="7.9183966"><ele>287.0</ele><time>2026-03-29T09:49:39.865Z</time></trkpt><trkpt lat="45.0205105" lon="7.9185185"><ele>287.0</ele><time>2026-03-29T09:49:40.859Z</time></trkpt><trkpt lat="45.0205015" lon="7.9186298"><ele>286.5</ele><time>2026-03-29T09:49:41.863Z</time></trkpt><trkpt lat="45.0204954" lon="7.9187268"><ele>286.0</ele><time>2026-03-29T09:49:42.862Z</time></trkpt><trkpt lat="45.0204806" lon="7.9188798"><ele>285.5</ele><time>2026-03-29T09:49:44.862Z</time></trkpt><trkpt lat="45.0204658" lon="7.9189668"><ele>285.0</ele><time>2026-03-29T09:49:46.862Z</time></trkpt><trkpt lat="45.020438" lon="7.9191016"><ele>284.5</ele><time>2026-03-29T09:51:47.86Z</time></trkpt><trkpt lat="45.0204255" lon="7.9192405"><ele>284.0</ele><time>2026-03-29T09:51:48.893Z</time></trkpt><trkpt lat="45.0204082" lon="7.9194121"><ele>284.0</ele><time>2026-03-29T09:51:49.862Z</time></trkpt><trkpt lat="45.0203904" lon="7.919603"><ele>284.0</ele><time>2026-03-29T09:51:50.862Z</time></trkpt><trkpt lat="45.0203763" lon="7.9198068"><ele>284.0</ele><time>2026-03-29T09:51:51.864Z</time></trkpt><trkpt lat="45.0203686" lon="7.9200049"><ele>284.0</ele><time>2026-03-29T09:51:52.875Z</time></trkpt><trkpt lat="45.0203597" lon="7.9201863"><ele>284.0</ele><time>2026-03-29T09:51:53.885Z</time></trkpt><trkpt lat="45.0203553" lon="7.9203534"><ele>284.0</ele><time>2026-03-29T09:51:54.868Z</time></trkpt><trkpt lat="45.0203599" lon="7.9205182"><ele>284.0</ele><time>2026-03-29T09:51:55.872Z</time></trkpt><trkpt lat="45.0203664" lon="7.9206937"><ele>284.0</ele><time>2026-03-29T09:51:56.866Z</time></trkpt><trkpt lat="45.0203702" lon="7.920867"><ele>285.2</ele><time>2026-03-29T09:51:57.872Z</time></trkpt><trkpt lat="45.0203718" lon="7.9210347"><ele>286.4</ele><time>2026-03-29T09:51:58.87Z</time></trkpt><trkpt lat="45.0203672" lon="7.9211947"><ele>287.6</ele><time>2026-03-29T09:51:59.865Z</time></trkpt><trkpt lat="45.0203611" lon="7.9213484"><ele>288.8</ele><time>2026-03-29T09:52:00.869Z</time></trkpt><trkpt lat="45.0203526" lon="7.9214928"><ele>290.0</ele><time>2026-03-29T09:52:01.864Z</time></trkpt><trkpt lat="45.0203441" lon="7.9216285"><ele>290.1666666666667</ele><time>2026-03-29T09:52:02.867Z</time></trkpt><trkpt lat="45.0203406" lon="7.9217587"><ele>290.33333333333337</ele><time>2026-03-29T09:52:03.872Z</time></trkpt><trkpt lat="45.0203357" lon="7.921885"><ele>290.5</ele><time>2026-03-29T09:52:04.882Z</time></trkpt><trkpt lat="45.0203298" lon="7.9220069"><ele>290.6666666666667</ele><time>2026-03-29T09:52:05.865Z</time></trkpt><trkpt lat="45.0203201" lon="7.9221279"><ele>290.8333333333333</ele><time>2026-03-29T09:52:06.888Z</time></trkpt><trkpt lat="45.020307" lon="7.922245"><ele>291.0</ele><time>2026-03-29T09:52:07.876Z</time></trkpt><trkpt lat="45.0202869" lon="7.9223455"><ele>291.0</ele><time>2026-03-29T09:52:08.874Z</time></trkpt><trkpt lat="45.0202684" lon="7.9224384"><ele>291.0</ele><time>2026-03-29T09:52:09.87Z</time></trkpt><trkpt lat="45.0202553" lon="7.9225317"><ele>291.0</ele><time>2026-03-29T09:52:10.867Z</time></trkpt><trkpt lat="45.0202443" lon="7.9226272"><ele>291.0</ele><time>2026-03-29T09:52:11.867Z</time></trkpt><trkpt lat="45.0202354" lon="7.9227268"><ele>291.0</ele><time>2026-03-29T09:52:12.87Z</time></trkpt><trkpt lat="45.0202267" lon="7.9228315"><ele>291.0</ele><time>2026-03-29T09:52:13.869Z</time></trkpt><trkpt lat="45.0202167" lon="7.9229341"><ele>291.0</ele><time>2026-03-29T09:52:14.867Z</time></trkpt><trkpt lat="45.020211" lon="7.9230387"><ele>291.0</ele><time>2026-03-29T09:52:15.872Z</time></trkpt><trkpt lat="45.0202065" lon="7.9231437"><ele>291.0</ele><time>2026-03-29T09:52:16.868Z</time></trkpt><trkpt lat="45.020203" lon="7.9232474"><ele>291.0</ele><time>2026-03-29T09:52:17.874Z</time></trkpt><trkpt lat="45.020201" lon="7.9233465"><ele>291.0</ele><time>2026-03-29T09:52:18.87Z</time></trkpt><trkpt lat="45.0202004" lon="7.9234381"><ele>291.0</ele><time>2026-03-29T09:52:19.871Z</time></trkpt><trkpt lat="45.0202002" lon="7.923528"><ele>291.0</ele><time>2026-03-29T09:52:20.872Z</time></trkpt><trkpt lat="45.0202045" lon="7.9236185"><ele>291.0</ele><time>2026-03-29T09:52:21.908Z</time></trkpt><trkpt lat="45.0202109" lon="7.9237135"><ele>290.8333333333333</ele><time>2026-03-29T09:52:22.871Z</time></trkpt><trkpt lat="45.0202215" lon="7.9238178"><ele>290.6666666666667</ele><time>2026-03-29T09:52:23.867Z</time></trkpt><trkpt lat="45.0202338" lon="7.9239262"><ele>290.5</ele><time>2026-03-29T09:52:24.875Z</time></trkpt><trkpt lat="45.0202473" lon="7.9240309"><ele>290.33333333333337</ele><time>2026-03-29T09:52:25.868Z</time></trkpt><trkpt lat="45.0202655" lon="7.9241386"><ele>290.1666666666667</ele><time>2026-03-29T09:52:26.88Z</time></trkpt><trkpt lat="45.0202878" lon="7.9242457"><ele>290.0</ele><time>2026-03-29T09:52:27.866Z</time></trkpt><trkpt lat="45.0203143" lon="7.9243518"><ele>289.6666666666667</ele><time>2026-03-29T09:52:28.871Z</time></trkpt><trkpt lat="45.0203396" lon="7.9244532"><ele>289.33333333333337</ele><time>2026-03-29T09:52:29.868Z</time></trkpt><trkpt lat="45.0203593" lon="7.9245546"><ele>289.0</ele><time>2026-03-29T09:52:30.869Z</time></trkpt><trkpt lat="45.0203714" lon="7.9246608"><ele>288.6666666666667</ele><time>2026-03-29T09:52:31.902Z</time></trkpt><trkpt lat="45.0203742" lon="7.9247756"><ele>288.3333333333333</ele><time>2026-03-29T09:52:32.874Z</time></trkpt><trkpt lat="45.020366" lon="7.9249041"><ele>288.0</ele><time>2026-03-29T09:52:33.873Z</time></trkpt><trkpt lat="45.0203534" lon="7.9250429"><ele>287.8</ele><time>2026-03-29T09:52:34.879Z</time></trkpt><trkpt lat="45.0203395" lon="7.9251774"><ele>287.6</ele><time>2026-03-29T09:52:35.871Z</time></trkpt><trkpt lat="45.020322" lon="7.9253069"><ele>287.4</ele><time>2026-03-29T09:52:36.872Z</time></trkpt><trkpt lat="45.0203067" lon="7.9254309"><ele>287.2</ele><time>2026-03-29T09:52:37.886Z</time></trkpt><trkpt lat="45.0202934" lon="7.9255512"><ele>287.0</ele><time>2026-03-29T09:52:38.868Z</time></trkpt><trkpt lat="45.0202755" lon="7.9256753"><ele>287.0</ele><time>2026-03-29T09:52:39.867Z</time></trkpt><trkpt lat="45.0202537" lon="7.925803"><ele>287.0</ele><time>2026-03-29T09:52:40.875Z</time></trkpt><trkpt lat="45.0202264" lon="7.9259268"><ele>287.0</ele><time>2026-03-29T09:52:41.867Z</time></trkpt><trkpt lat="45.020191" lon="7.926049"><ele>287.0</ele><time>2026-03-29T09:52:42.869Z</time></trkpt><trkpt lat="45.020152" lon="7.926167"><ele>287.0</ele><time>2026-03-29T09:52:43.867Z</time></trkpt><trkpt lat="45.0201142" lon="7.9262848"><ele>286.8</ele><time>2026-03-29T09:52:44.865Z</time></trkpt><trkpt lat="45.0200808" lon="7.9264045"><ele>286.6</ele><time>2026-03-29T09:52:45.869Z</time></trkpt><trkpt lat="45.0200551" lon="7.9265238"><ele>286.40000000000003</ele><time>2026-03-29T09:52:46.874Z</time></trkpt><trkpt lat="45.0200313" lon="7.9266501"><ele>286.2</ele><time>2026-03-29T09:52:47.873Z</time></trkpt><trkpt lat="45.0200092" lon="7.9267816"><ele>286.0</ele><time>2026-03-29T09:52:48.869Z</time></trkpt><trkpt lat="45.0199883" lon="7.926914"><ele>285.6</ele><time>2026-03-29T09:52:49.871Z</time></trkpt><trkpt lat="45.01997" lon="7.927046"><ele>285.20000000000005</ele><time>2026-03-29T09:52:50.869Z</time></trkpt><trkpt lat="45.0199502" lon="7.9271789"><ele>284.79999999999995</ele><time>2026-03-29T09:52:51.874Z</time></trkpt><trkpt lat="45.0199323" lon="7.9273107"><ele>284.4</ele><time>2026-03-29T09:52:52.871Z</time></trkpt><trkpt lat="45.0199139" lon="7.9274469"><ele>284.0</ele><time>2026-03-29T09:52:53.87Z</time></trkpt><trkpt lat="45.0199023" lon="7.9275819"><ele>283.6666666666667</ele><time>2026-03-29T09:52:54.878Z</time></trkpt><trkpt lat="45.019893" lon="7.9277108"><ele>283.33333333333337</ele><time>2026-03-29T09:52:55.872Z</time></trkpt><trkpt lat="45.0198882" lon="7.9278341"><ele>283.0</ele><time>2026-03-29T09:52:56.885Z</time></trkpt><trkpt lat="45.0198878" lon="7.9279556"><ele>282.6666666666667</ele><time>2026-03-29T09:52:57.875Z</time></trkpt><trkpt lat="45.0198874" lon="7.928073"><ele>282.3333333333333</ele><time>2026-03-29T09:52:58.867Z</time></trkpt><trkpt lat="45.0198865" lon="7.9281904"><ele>282.0</ele><time>2026-03-29T09:52:59.87Z</time></trkpt><trkpt lat="45.0198872" lon="7.9283065"><ele>282.1666666666667</ele><time>2026-03-29T09:53:00.871Z</time></trkpt><trkpt lat="45.0198866" lon="7.9284281"><ele>282.3333333333333</ele><time>2026-03-29T09:53:01.867Z</time></trkpt><trkpt lat="45.0198847" lon="7.9285555"><ele>282.5</ele><time>2026-03-29T09:53:02.867Z</time></trkpt><trkpt lat="45.0198802" lon="7.9286848"><ele>282.66666666666663</ele><time>2026-03-29T09:53:03.87Z</time></trkpt><trkpt lat="45.0198772" lon="7.928812"><ele>282.8333333333333</ele><time>2026-03-29T09:53:04.878Z</time></trkpt><trkpt lat="45.0198808" lon="7.9289393"><ele>283.0</ele><time>2026-03-29T09:53:05.872Z</time></trkpt><trkpt lat="45.0198961" lon="7.929066"><ele>283.0</ele><time>2026-03-29T09:53:06.872Z</time></trkpt><trkpt lat="45.0199175" lon="7.929195"><ele>283.0</ele><time>2026-03-29T09:53:07.868Z</time></trkpt><trkpt lat="45.0199458" lon="7.929331"><ele>283.0</ele><time>2026-03-29T09:53:08.866Z</time></trkpt><trkpt lat="45.0199785" lon="7.9294711"><ele>283.0</ele><time>2026-03-29T09:53:09.867Z</time></trkpt><trkpt lat="45.0200143" lon="7.9296069"><ele>283.0</ele><time>2026-03-29T09:53:10.865Z</time></trkpt><trkpt lat="45.0200502" lon="7.9297413"><ele>283.2</ele><time>2026-03-29T09:53:11.874Z</time></trkpt><trkpt lat="45.0200873" lon="7.9298723"><ele>283.4</ele><time>2026-03-29T09:53:12.872Z</time></trkpt><trkpt lat="45.0201219" lon="7.9300052"><ele>283.59999999999997</ele><time>2026-03-29T09:53:13.872Z</time></trkpt><trkpt lat="45.0201504" lon="7.9301404"><ele>283.8</ele><time>2026-03-29T09:53:14.871Z</time></trkpt><trkpt lat="45.0201755" lon="7.9302793"><ele>284.0</ele><time>2026-03-29T09:53:15.899Z</time></trkpt><trkpt lat="45.0201878" lon="7.9304315"><ele>284.0</ele><time>2026-03-29T09:53:16.869Z</time></trkpt><trkpt lat="45.0201967" lon="7.9305884"><ele>284.0</ele><time>2026-03-29T09:53:17.884Z</time></trkpt><trkpt lat="45.020197" lon="7.9307507"><ele>284.0</ele><time>2026-03-29T09:53:18.896Z</time></trkpt><trkpt lat="45.0201901" lon="7.9309118"><ele>284.0</ele><time>2026-03-29T09:53:19.872Z</time></trkpt><trkpt lat="45.0201858" lon="7.9310713"><ele>283.75</ele><time>2026-03-29T09:53:20.87Z</time></trkpt><trkpt lat="45.0201772" lon="7.9312326"><ele>283.5</ele><time>2026-03-29T09:53:21.867Z</time></trkpt><trkpt lat="45.0201681" lon="7.931394"><ele>283.25</ele><time>2026-03-29T09:53:22.868Z</time></trkpt><trkpt lat="45.0201567" lon="7.9315508"><ele>283.0</ele><time>2026-03-29T09:53:23.87Z</time></trkpt><trkpt lat="45.020144" lon="7.9317054"><ele>283.5</ele><time>2026-03-29T09:53:24.869Z</time></trkpt><trkpt lat="45.0201273" lon="7.9318585"><ele>284.0</ele><time>2026-03-29T09:53:25.877Z</time></trkpt><trkpt lat="45.0201118" lon="7.9320142"><ele>284.5</ele><time>2026-03-29T09:53:26.868Z</time></trkpt><trkpt lat="45.0200955" lon="7.9321814"><ele>285.0</ele><time>2026-03-29T09:53:27.876Z</time></trkpt><trkpt lat="45.0200778" lon="7.9323533"><ele>285.0</ele><time>2026-03-29T09:53:28.89Z</time></trkpt><trkpt lat="45.0200612" lon="7.9325203"><ele>285.0</ele><time>2026-03-29T09:53:29.866Z</time></trkpt><trkpt lat="45.0200499" lon="7.9326792"><ele>285.0</ele><time>2026-03-29T09:53:30.868Z</time></trkpt><trkpt lat="45.0200352" lon="7.9328283"><ele>285.0</ele><time>2026-03-29T09:53:31.87Z</time></trkpt><trkpt lat="45.02002" lon="7.9329733"><ele>285.0</ele><time>2026-03-29T09:53:32.868Z</time></trkpt><trkpt lat="45.0200048" lon="7.9331186"><ele>285.4</ele><time>2026-03-29T09:53:33.879Z</time></trkpt><trkpt lat="45.0199892" lon="7.9332587"><ele>285.8</ele><time>2026-03-29T09:53:34.874Z</time></trkpt><trkpt lat="45.0199751" lon="7.9333946"><ele>286.2</ele><time>2026-03-29T09:53:35.867Z</time></trkpt><trkpt lat="45.0199653" lon="7.9335299"><ele>286.6</ele><time>2026-03-29T09:53:36.88Z</time></trkpt><trkpt lat="45.0199542" lon="7.9336538"><ele>287.0</ele><time>2026-03-29T09:53:37.875Z</time></trkpt><trkpt lat="45.0199444" lon="7.9337617"><ele>287.0</ele><time>2026-03-29T09:53:38.889Z</time></trkpt><trkpt lat="45.0199399" lon="7.9338739"><ele>287.0</ele><time>2026-03-29T09:53:39.87Z</time></trkpt><trkpt lat="45.0199354" lon="7.933981"><ele>287.0</ele><time>2026-03-29T09:53:40.868Z</time></trkpt><trkpt lat="45.0199345" lon="7.9340808"><ele>287.0</ele><time>2026-03-29T09:53:41.898Z</time></trkpt><trkpt lat="45.0199357" lon="7.9341801"><ele>287.0</ele><time>2026-03-29T09:53:42.88Z</time></trkpt><trkpt lat="45.0199371" lon="7.9342767"><ele>287.0</ele><time>2026-03-29T09:53:43.875Z</time></trkpt><trkpt lat="45.0199356" lon="7.9343678"><ele>287.0</ele><time>2026-03-29T09:53:44.879Z</time></trkpt><trkpt lat="45.0199306" lon="7.934523"><ele>286.6</ele><time>2026-03-29T09:53:46.873Z</time></trkpt><trkpt lat="45.0199126" lon="7.9346875"><ele>286.2</ele><time>2026-03-29T09:53:48.884Z</time></trkpt><trkpt lat="45.0198943" lon="7.9347742"><ele>285.8</ele><time>2026-03-29T09:53:49.887Z</time></trkpt><trkpt lat="45.0198532" lon="7.9349363"><ele>285.4</ele><time>2026-03-29T09:53:51.872Z</time></trkpt><trkpt lat="45.0197866" lon="7.9350629"><ele>285.0</ele><time>2026-03-29T09:53:53.881Z</time></trkpt><trkpt lat="45.019739" lon="7.9351263"><ele>285.0</ele><time>2026-03-29T09:53:55.891Z</time></trkpt><trkpt lat="45.0198864" lon="7.9352127"><ele>285.0</ele><time>2026-03-29T09:54:09.88Z</time></trkpt><trkpt lat="45.0199809" lon="7.935212"><ele>285.0</ele><time>2026-03-29T09:54:10.886Z</time></trkpt><trkpt lat="45.02009" lon="7.9352076"><ele>285.0</ele><time>2026-03-29T09:54:11.873Z</time></trkpt><trkpt lat="45.0202172" lon="7.9351998"><ele>285.0</ele><time>2026-03-29T09:54:12.892Z</time></trkpt><trkpt lat="45.02036" lon="7.9351933"><ele>285.0</ele><time>2026-03-29T09:54:13.867Z</time></trkpt><trkpt lat="45.0205064" lon="7.9351873"><ele>285.0</ele><time>2026-03-29T09:54:14.889Z</time></trkpt><trkpt lat="45.0206562" lon="7.9351813"><ele>285.0</ele><time>2026-03-29T09:54:15.868Z</time></trkpt><trkpt lat="45.0208156" lon="7.935174"><ele>286.0</ele><time>2026-03-29T09:54:16.867Z</time></trkpt><trkpt lat="45.0209873" lon="7.9351681"><ele>287.0</ele><time>2026-03-29T09:54:17.87Z</time></trkpt><trkpt lat="45.0211719" lon="7.9351665"><ele>288.0</ele><time>2026-03-29T09:54:18.87Z</time></trkpt><trkpt lat="45.0213574" lon="7.9351783"><ele>288.0</ele><time>2026-03-29T09:54:19.87Z</time></trkpt><trkpt lat="45.0215395" lon="7.9352043"><ele>288.0</ele><time>2026-03-29T09:54:20.868Z</time></trkpt><trkpt lat="45.0217245" lon="7.9352457"><ele>288.0</ele><time>2026-03-29T09:54:21.865Z</time></trkpt><trkpt lat="45.0219142" lon="7.9353037"><ele>289.0</ele><time>2026-03-29T09:54:22.874Z</time></trkpt><trkpt lat="45.0221078" lon="7.9353758"><ele>290.0</ele><time>2026-03-29T09:54:23.878Z</time></trkpt><trkpt lat="45.022302" lon="7.9354629"><ele>291.0</ele><time>2026-03-29T09:54:24.866Z</time></trkpt><trkpt lat="45.0224944" lon="7.9355687"><ele>291.6666666666667</ele><time>2026-03-29T09:54:25.87Z</time></trkpt><trkpt lat="45.0226816" lon="7.9356915"><ele>292.33333333333337</ele><time>2026-03-29T09:54:26.87Z</time></trkpt><trkpt lat="45.0228654" lon="7.9358343"><ele>293.0</ele><time>2026-03-29T09:54:27.866Z</time></trkpt><trkpt lat="45.0230434" lon="7.9359924"><ele>292.33333333333337</ele><time>2026-03-29T09:54:28.866Z</time></trkpt><trkpt lat="45.0232123" lon="7.9361629"><ele>291.6666666666667</ele><time>2026-03-29T09:54:29.866Z</time></trkpt><trkpt lat="45.0233764" lon="7.9363457"><ele>291.0</ele><time>2026-03-29T09:54:30.869Z</time></trkpt><trkpt lat="45.0235309" lon="7.9365394"><ele>291.3333333333333</ele><time>2026-03-29T09:54:31.868Z</time></trkpt><trkpt lat="45.0236784" lon="7.936745"><ele>291.66666666666663</ele><time>2026-03-29T09:54:32.87Z</time></trkpt><trkpt lat="45.0238184" lon="7.9369603"><ele>292.0</ele><time>2026-03-29T09:54:33.875Z</time></trkpt><trkpt lat="45.02395" lon="7.9371839"><ele>292.0</ele><time>2026-03-29T09:54:34.872Z</time></trkpt><trkpt lat="45.0240722" lon="7.9374225"><ele>292.0</ele><time>2026-03-29T09:54:35.872Z</time></trkpt><trkpt lat="45.0241857" lon="7.937666"><ele>292.0</ele><time>2026-03-29T09:54:36.867Z</time></trkpt><trkpt lat="45.0242926" lon="7.9379173"><ele>293.66666666666663</ele><time>2026-03-29T09:54:37.874Z</time></trkpt><trkpt lat="45.0243969" lon="7.9381674"><ele>295.3333333333333</ele><time>2026-03-29T09:54:38.868Z</time></trkpt><trkpt lat="45.0245" lon="7.9384168"><ele>297.0</ele><time>2026-03-29T09:54:39.872Z</time></trkpt><trkpt lat="45.0246055" lon="7.9386669"><ele>297.0</ele><time>2026-03-29T09:54:40.866Z</time></trkpt><trkpt lat="45.0247166" lon="7.9389122"><ele>297.0</ele><time>2026-03-29T09:54:41.869Z</time></trkpt><trkpt lat="45.0248348" lon="7.9391509"><ele>297.0</ele><time>2026-03-29T09:54:42.87Z</time></trkpt><trkpt lat="45.0249602" lon="7.9393847"><ele>297.0</ele><time>2026-03-29T09:54:43.884Z</time></trkpt><trkpt lat="45.0250941" lon="7.9396143"><ele>297.0</ele><time>2026-03-29T09:54:44.873Z</time></trkpt><trkpt lat="45.0252391" lon="7.9398419"><ele>297.0</ele><time>2026-03-29T09:54:45.871Z</time></trkpt><trkpt lat="45.025394" lon="7.9400657"><ele>295.5</ele><time>2026-03-29T09:54:46.866Z</time></trkpt><trkpt lat="45.0255594" lon="7.9402816"><ele>294.0</ele><time>2026-03-29T09:54:47.868Z</time></trkpt><trkpt lat="45.0257381" lon="7.9404891"><ele>293.5</ele><time>2026-03-29T09:54:48.888Z</time></trkpt><trkpt lat="45.0259291" lon="7.9406872"><ele>293.0</ele><time>2026-03-29T09:54:49.872Z</time></trkpt><trkpt lat="45.0261328" lon="7.9408757"><ele>289.5</ele><time>2026-03-29T09:54:50.897Z</time></trkpt><trkpt lat="45.0263455" lon="7.9410521"><ele>286.0</ele><time>2026-03-29T09:54:51.873Z</time></trkpt><trkpt lat="45.0265611" lon="7.9412243"><ele>288.5</ele><time>2026-03-29T09:54:52.866Z</time></trkpt><trkpt lat="45.0267771" lon="7.9413926"><ele>291.0</ele><time>2026-03-29T09:54:53.872Z</time></trkpt><trkpt lat="45.026982" lon="7.9415559"><ele>291.0</ele><time>2026-03-29T09:54:54.872Z</time></trkpt><trkpt lat="45.0271751" lon="7.9417116"><ele>291.0</ele><time>2026-03-29T09:54:55.874Z</time></trkpt><trkpt lat="45.0273498" lon="7.9418538"><ele>291.0</ele><time>2026-03-29T09:54:56.869Z</time></trkpt><trkpt lat="45.0275073" lon="7.9419815"><ele>291.0</ele><time>2026-03-29T09:54:57.872Z</time></trkpt><trkpt lat="45.0276467" lon="7.942094"><ele>291.0</ele><time>2026-03-29T09:54:58.866Z</time></trkpt><trkpt lat="45.027767" lon="7.9421966"><ele>291.0</ele><time>2026-03-29T09:54:59.87Z</time></trkpt><trkpt lat="45.0278693" lon="7.9423021"><ele>291.0</ele><time>2026-03-29T09:55:00.884Z</time></trkpt><trkpt lat="45.0279579" lon="7.9424203"><ele>290.5</ele><time>2026-03-29T09:55:01.873Z</time></trkpt><trkpt lat="45.0280287" lon="7.9425604"><ele>290.0</ele><time>2026-03-29T09:55:02.882Z</time></trkpt><trkpt lat="45.0280823" lon="7.9427202"><ele>289.5</ele><time>2026-03-29T09:55:03.876Z</time></trkpt><trkpt lat="45.0281258" lon="7.9428895"><ele>289.0</ele><time>2026-03-29T09:55:04.882Z</time></trkpt><trkpt lat="45.0281706" lon="7.9430567"><ele>289.0</ele><time>2026-03-29T09:55:05.879Z</time></trkpt><trkpt lat="45.0282197" lon="7.9431973"><ele>289.0</ele><time>2026-03-29T09:55:06.9Z</time></trkpt><trkpt lat="45.0282725" lon="7.9432974"><ele>289.0</ele><time>2026-03-29T09:55:07.879Z</time></trkpt><trkpt lat="45.0283222" lon="7.9433589"><ele>289.0</ele><time>2026-03-29T09:55:08.883Z</time></trkpt><trkpt lat="45.0284132" lon="7.94348"><ele>289.0</ele><time>2026-03-29T09:55:10.89Z</time></trkpt><trkpt lat="45.0284492" lon="7.943573"><ele>289.5</ele><time>2026-03-29T09:55:11.869Z</time></trkpt><trkpt lat="45.0284748" lon="7.9436783"><ele>290.0</ele><time>2026-03-29T09:55:12.881Z</time></trkpt><trkpt lat="45.0285032" lon="7.9437776"><ele>290.5</ele><time>2026-03-29T09:55:13.88Z</time></trkpt><trkpt lat="45.0285505" lon="7.9438597"><ele>291.0</ele><time>2026-03-29T09:55:14.866Z</time></trkpt><trkpt lat="45.028613" lon="7.9439163"><ele>291.5</ele><time>2026-03-29T09:55:15.885Z</time></trkpt><trkpt lat="45.0286888" lon="7.9439335"><ele>292.0</ele><time>2026-03-29T09:55:16.886Z</time></trkpt><trkpt lat="45.0287746" lon="7.9439086"><ele>292.0</ele><time>2026-03-29T09:55:17.873Z</time></trkpt><trkpt lat="45.028857" lon="7.9438406"><ele>292.0</ele><time>2026-03-29T09:55:18.884Z</time></trkpt><trkpt lat="45.0289293" lon="7.9437484"><ele>292.0</ele><time>2026-03-29T09:55:19.884Z</time></trkpt><trkpt lat="45.028986" lon="7.943632"><ele>292.0</ele><time>2026-03-29T09:55:20.878Z</time></trkpt><trkpt lat="45.0290277" lon="7.9435107"><ele>292.0</ele><time>2026-03-29T09:55:21.871Z</time></trkpt><trkpt lat="45.0290615" lon="7.9434108"><ele>291.8333333333333</ele><time>2026-03-29T09:55:22.872Z</time></trkpt><trkpt lat="45.0291031" lon="7.9433347"><ele>291.66666666666663</ele><time>2026-03-29T09:55:23.868Z</time></trkpt><trkpt lat="45.0291611" lon="7.943275"><ele>291.5</ele><time>2026-03-29T09:55:24.873Z</time></trkpt><trkpt lat="45.0292322" lon="7.9432259"><ele>291.3333333333333</ele><time>2026-03-29T09:55:25.883Z</time></trkpt><trkpt lat="45.0293172" lon="7.9431774"><ele>291.1666666666667</ele><time>2026-03-29T09:55:26.878Z</time></trkpt><trkpt lat="45.0294146" lon="7.9431175"><ele>291.0</ele><time>2026-03-29T09:55:27.867Z</time></trkpt><trkpt lat="45.0295281" lon="7.9430477"><ele>290.75</ele><time>2026-03-29T09:55:28.87Z</time></trkpt><trkpt lat="45.0296549" lon="7.9429773"><ele>290.5</ele><time>2026-03-29T09:55:29.901Z</time></trkpt><trkpt lat="45.0297867" lon="7.9429114"><ele>290.25</ele><time>2026-03-29T09:55:30.887Z</time></trkpt><trkpt lat="45.0299191" lon="7.9428569"><ele>290.0</ele><time>2026-03-29T09:55:31.876Z</time></trkpt><trkpt lat="45.0300534" lon="7.942816"><ele>291.0</ele><time>2026-03-29T09:55:32.87Z</time></trkpt><trkpt lat="45.0301865" lon="7.9427844"><ele>292.0</ele><time>2026-03-29T09:55:33.87Z</time></trkpt><trkpt lat="45.0303176" lon="7.9427564"><ele>293.0</ele><time>2026-03-29T09:55:34.868Z</time></trkpt><trkpt lat="45.0304463" lon="7.9427275"><ele>294.0</ele><time>2026-03-29T09:55:35.903Z</time></trkpt><trkpt lat="45.0305814" lon="7.9426961"><ele>294.0</ele><time>2026-03-29T09:55:36.871Z</time></trkpt><trkpt lat="45.0307239" lon="7.9426662"><ele>294.0</ele><time>2026-03-29T09:55:37.872Z</time></trkpt><trkpt lat="45.0308741" lon="7.942633"><ele>294.0</ele><time>2026-03-29T09:55:38.873Z</time></trkpt><trkpt lat="45.0310226" lon="7.9426033"><ele>294.0</ele><time>2026-03-29T09:55:39.866Z</time></trkpt><trkpt lat="45.0311617" lon="7.9425755"><ele>293.75</ele><time>2026-03-29T09:55:40.866Z</time></trkpt><trkpt lat="45.0312929" lon="7.9425516"><ele>293.5</ele><time>2026-03-29T09:55:41.88Z</time></trkpt><trkpt lat="45.0314177" lon="7.9425251"><ele>293.25</ele><time>2026-03-29T09:55:42.869Z</time></trkpt><trkpt lat="45.0315441" lon="7.9424982"><ele>293.0</ele><time>2026-03-29T09:55:43.871Z</time></trkpt><trkpt lat="45.0316745" lon="7.9424706"><ele>293.75</ele><time>2026-03-29T09:55:44.872Z</time></trkpt><trkpt lat="45.0318139" lon="7.9424419"><ele>294.5</ele><time>2026-03-29T09:55:45.89Z</time></trkpt><trkpt lat="45.0319622" lon="7.9424129"><ele>295.25</ele><time>2026-03-29T09:55:46.872Z</time></trkpt><trkpt lat="45.032109" lon="7.9423847"><ele>296.0</ele><time>2026-03-29T09:55:47.878Z</time></trkpt><trkpt lat="45.0322546" lon="7.942357"><ele>296.0</ele><time>2026-03-29T09:55:48.893Z</time></trkpt><trkpt lat="45.032397" lon="7.9423366"><ele>296.0</ele><time>2026-03-29T09:55:49.878Z</time></trkpt><trkpt lat="45.0325365" lon="7.942329"><ele>296.0</ele><time>2026-03-29T09:55:50.877Z</time></trkpt><trkpt lat="45.0326726" lon="7.9423296"><ele>296.0</ele><time>2026-03-29T09:55:51.874Z</time></trkpt><trkpt lat="45.0328086" lon="7.9423386"><ele>296.25</ele><time>2026-03-29T09:55:52.869Z</time></trkpt><trkpt lat="45.0329478" lon="7.9423434"><ele>296.5</ele><time>2026-03-29T09:55:53.867Z</time></trkpt><trkpt lat="45.0330924" lon="7.9423495"><ele>296.75</ele><time>2026-03-29T09:55:54.874Z</time></trkpt><trkpt lat="45.033241" lon="7.9423606"><ele>297.0</ele><time>2026-03-29T09:55:55.872Z</time></trkpt><trkpt lat="45.033389" lon="7.9423798"><ele>296.5</ele><time>2026-03-29T09:55:56.868Z</time></trkpt><trkpt lat="45.033535" lon="7.942405"><ele>296.0</ele><time>2026-03-29T09:55:57.87Z</time></trkpt><trkpt lat="45.0336766" lon="7.9424361"><ele>295.5</ele><time>2026-03-29T09:55:58.881Z</time></trkpt><trkpt lat="45.0338139" lon="7.942464"><ele>295.0</ele><time>2026-03-29T09:55:59.898Z</time></trkpt><trkpt lat="45.0339492" lon="7.942496"><ele>295.0</ele><time>2026-03-29T09:56:00.874Z</time></trkpt><trkpt lat="45.0340819" lon="7.9425434"><ele>295.0</ele><time>2026-03-29T09:56:01.865Z</time></trkpt><trkpt lat="45.034211" lon="7.9426029"><ele>295.0</ele><time>2026-03-29T09:56:02.894Z</time></trkpt><trkpt lat="45.0343353" lon="7.9426707"><ele>295.0</ele><time>2026-03-29T09:56:03.87Z</time></trkpt><trkpt lat="45.0344584" lon="7.9427415"><ele>296.5</ele><time>2026-03-29T09:56:04.873Z</time></trkpt><trkpt lat="45.0345818" lon="7.9428112"><ele>298.0</ele><time>2026-03-29T09:56:05.871Z</time></trkpt><trkpt lat="45.0347061" lon="7.9428758"><ele>299.5</ele><time>2026-03-29T09:56:06.875Z</time></trkpt><trkpt lat="45.0348319" lon="7.9429421"><ele>301.0</ele><time>2026-03-29T09:56:07.866Z</time></trkpt><trkpt lat="45.0349568" lon="7.9430116"><ele>301.5</ele><time>2026-03-29T09:56:08.873Z</time></trkpt><trkpt lat="45.0350773" lon="7.943086"><ele>302.0</ele><time>2026-03-29T09:56:09.876Z</time></trkpt><trkpt lat="45.0351925" lon="7.9431584"><ele>302.5</ele><time>2026-03-29T09:56:10.87Z</time></trkpt><trkpt lat="45.0353021" lon="7.9432299"><ele>303.0</ele><time>2026-03-29T09:56:11.872Z</time></trkpt><trkpt lat="45.0354031" lon="7.9432919"><ele>303.0</ele><time>2026-03-29T09:56:12.867Z</time></trkpt><trkpt lat="45.0355028" lon="7.9433511"><ele>303.0</ele><time>2026-03-29T09:56:13.875Z</time></trkpt><trkpt lat="45.0355975" lon="7.9434053"><ele>303.0</ele><time>2026-03-29T09:56:14.882Z</time></trkpt><trkpt lat="45.0356869" lon="7.9434522"><ele>303.0</ele><time>2026-03-29T09:56:15.869Z</time></trkpt><trkpt lat="45.0357721" lon="7.9434916"><ele>303.0</ele><time>2026-03-29T09:56:16.871Z</time></trkpt><trkpt lat="45.0358552" lon="7.9435249"><ele>303.3333333333333</ele><time>2026-03-29T09:56:17.87Z</time></trkpt><trkpt lat="45.0359299" lon="7.9435508"><ele>303.6666666666667</ele><time>2026-03-29T09:56:18.87Z</time></trkpt><trkpt lat="45.0360039" lon="7.9435736"><ele>304.0</ele><time>2026-03-29T09:56:19.874Z</time></trkpt><trkpt lat="45.0360781" lon="7.9435863"><ele>304.33333333333337</ele><time>2026-03-29T09:56:20.866Z</time></trkpt><trkpt lat="45.03616" lon="7.9435921"><ele>304.6666666666667</ele><time>2026-03-29T09:56:21.869Z</time></trkpt><trkpt lat="45.0362508" lon="7.9435942"><ele>305.0</ele><time>2026-03-29T09:56:22.87Z</time></trkpt><trkpt lat="45.0363498" lon="7.9435973"><ele>305.0</ele><time>2026-03-29T09:56:23.873Z</time></trkpt><trkpt lat="45.036449" lon="7.9436011"><ele>305.0</ele><time>2026-03-29T09:56:24.875Z</time></trkpt><trkpt lat="45.0365499" lon="7.9436059"><ele>305.0</ele><time>2026-03-29T09:56:25.889Z</time></trkpt><trkpt lat="45.0366585" lon="7.9436188"><ele>305.0</ele><time>2026-03-29T09:56:26.889Z</time></trkpt><trkpt lat="45.0367739" lon="7.94363"><ele>305.0</ele><time>2026-03-29T09:56:27.873Z</time></trkpt><trkpt lat="45.0368977" lon="7.9436361"><ele>305.75</ele><time>2026-03-29T09:56:28.893Z</time></trkpt><trkpt lat="45.0370256" lon="7.9436406"><ele>306.5</ele><time>2026-03-29T09:56:29.869Z</time></trkpt><trkpt lat="45.0371605" lon="7.9436448"><ele>307.25</ele><time>2026-03-29T09:56:30.871Z</time></trkpt><trkpt lat="45.0373011" lon="7.9436395"><ele>308.0</ele><time>2026-03-29T09:56:31.88Z</time></trkpt><trkpt lat="45.0374422" lon="7.9436357"><ele>309.5</ele><time>2026-03-29T09:56:32.876Z</time></trkpt><trkpt lat="45.0375826" lon="7.9436363"><ele>311.0</ele><time>2026-03-29T09:56:33.871Z</time></trkpt><trkpt lat="45.0377153" lon="7.9436434"><ele>312.5</ele><time>2026-03-29T09:56:34.877Z</time></trkpt><trkpt lat="45.0378355" lon="7.9436432"><ele>314.0</ele><time>2026-03-29T09:56:35.894Z</time></trkpt><trkpt lat="45.0379389" lon="7.943647"><ele>314.0</ele><time>2026-03-29T09:56:36.87Z</time></trkpt><trkpt lat="45.0380398" lon="7.9436531"><ele>314.0</ele><time>2026-03-29T09:56:37.867Z</time></trkpt><trkpt lat="45.0381295" lon="7.9436607"><ele>314.0</ele><time>2026-03-29T09:56:38.873Z</time></trkpt><trkpt lat="45.0382255" lon="7.9436635"><ele>314.0</ele><time>2026-03-29T09:56:39.873Z</time></trkpt><trkpt lat="45.0383259" lon="7.9436693"><ele>314.0</ele><time>2026-03-29T09:56:40.873Z</time></trkpt><trkpt lat="45.0384267" lon="7.9436706"><ele>314.4</ele><time>2026-03-29T09:56:41.864Z</time></trkpt><trkpt lat="45.0385311" lon="7.9436774"><ele>314.79999999999995</ele><time>2026-03-29T09:56:42.87Z</time></trkpt><trkpt lat="45.0386326" lon="7.9436745"><ele>315.20000000000005</ele><time>2026-03-29T09:56:43.876Z</time></trkpt><trkpt lat="45.0387232" lon="7.9436727"><ele>315.6</ele><time>2026-03-29T09:56:44.871Z</time></trkpt><trkpt lat="45.0387942" lon="7.9436723"><ele>316.0</ele><time>2026-03-29T09:56:45.878Z</time></trkpt><trkpt lat="45.0388983" lon="7.943675"><ele>316.0</ele><time>2026-03-29T09:56:47.887Z</time></trkpt><trkpt lat="45.0389891" lon="7.9437174"><ele>316.0</ele><time>2026-03-29T09:56:52.885Z</time></trkpt><trkpt lat="45.0390632" lon="7.9437343"><ele>316.0</ele><time>2026-03-29T09:56:57.869Z</time></trkpt><trkpt lat="45.0391547" lon="7.9438203"><ele>316.0</ele><time>2026-03-29T09:57:00.865Z</time></trkpt><trkpt lat="45.0391892" lon="7.9438962"><ele>316.0</ele><time>2026-03-29T09:57:01.872Z</time></trkpt><trkpt lat="45.0392247" lon="7.9439728"><ele>316.0</ele><time>2026-03-29T09:57:02.881Z</time></trkpt><trkpt lat="45.0392678" lon="7.9440513"><ele>316.3333333333333</ele><time>2026-03-29T09:57:03.868Z</time></trkpt><trkpt lat="45.0393163" lon="7.9441323"><ele>316.66666666666663</ele><time>2026-03-29T09:57:04.885Z</time></trkpt><trkpt lat="45.0393723" lon="7.9442153"><ele>317.0</ele><time>2026-03-29T09:57:05.874Z</time></trkpt><trkpt lat="45.0394384" lon="7.944281"><ele>317.3333333333333</ele><time>2026-03-29T09:57:06.87Z</time></trkpt><trkpt lat="45.0395142" lon="7.9443459"><ele>317.6666666666667</ele><time>2026-03-29T09:57:07.889Z</time></trkpt><trkpt lat="45.0396063" lon="7.9444192"><ele>318.0</ele><time>2026-03-29T09:57:08.896Z</time></trkpt><trkpt lat="45.039705" lon="7.9444971"><ele>318.8</ele><time>2026-03-29T09:57:09.866Z</time></trkpt><trkpt lat="45.0397987" lon="7.944581"><ele>319.6</ele><time>2026-03-29T09:57:10.864Z</time></trkpt><trkpt lat="45.039886" lon="7.9446828"><ele>320.40000000000003</ele><time>2026-03-29T09:57:11.891Z</time></trkpt><trkpt lat="45.0399497" lon="7.94481"><ele>321.20000000000005</ele><time>2026-03-29T09:57:12.883Z</time></trkpt><trkpt lat="45.0399796" lon="7.9449574"><ele>322.0</ele><time>2026-03-29T09:57:13.866Z</time></trkpt><trkpt lat="45.039976" lon="7.9451428"><ele>322.5</ele><time>2026-03-29T09:57:14.87Z</time></trkpt><trkpt lat="45.0399557" lon="7.9453522"><ele>323.0</ele><time>2026-03-29T09:57:15.871Z</time></trkpt><trkpt lat="45.0399414" lon="7.9455552"><ele>323.5</ele><time>2026-03-29T09:57:16.866Z</time></trkpt><trkpt lat="45.0399384" lon="7.9457364"><ele>324.0</ele><time>2026-03-29T09:57:17.867Z</time></trkpt><trkpt lat="45.0399487" lon="7.9458953"><ele>321.4</ele><time>2026-03-29T09:57:18.866Z</time></trkpt><trkpt lat="45.0399843" lon="7.9460413"><ele>318.79999999999995</ele><time>2026-03-29T09:57:19.872Z</time></trkpt><trkpt lat="45.040011" lon="7.9461788"><ele>316.20000000000005</ele><time>2026-03-29T09:57:20.887Z</time></trkpt><trkpt lat="45.0400139" lon="7.9463159"><ele>313.6</ele><time>2026-03-29T09:57:21.866Z</time></trkpt><trkpt lat="45.0399808" lon="7.946433"><ele>311.0</ele><time>2026-03-29T09:57:22.868Z</time></trkpt><trkpt lat="45.0399094" lon="7.9465326"><ele>311.0</ele><time>2026-03-29T09:57:23.87Z</time></trkpt><trkpt lat="45.0398" lon="7.9465993"><ele>311.0</ele><time>2026-03-29T09:57:24.876Z</time></trkpt><trkpt lat="45.0396699" lon="7.9466211"><ele>311.0</ele><time>2026-03-29T09:57:25.875Z</time></trkpt><trkpt lat="45.0395519" lon="7.9466401"><ele>311.0</ele><time>2026-03-29T09:57:26.893Z</time></trkpt><trkpt lat="45.039453" lon="7.9466746"><ele>307.6</ele><time>2026-03-29T09:57:27.867Z</time></trkpt><trkpt lat="45.0393674" lon="7.9467356"><ele>304.20000000000005</ele><time>2026-03-29T09:57:28.873Z</time></trkpt><trkpt lat="45.0393115" lon="7.9468505"><ele>300.79999999999995</ele><time>2026-03-29T09:57:29.89Z</time></trkpt><trkpt lat="45.0392767" lon="7.9469973"><ele>297.4</ele><time>2026-03-29T09:57:30.867Z</time></trkpt><trkpt lat="45.0392519" lon="7.9471659"><ele>294.0</ele><time>2026-03-29T09:57:31.87Z</time></trkpt><trkpt lat="45.0392376" lon="7.947346"><ele>294.0</ele><time>2026-03-29T09:57:32.874Z</time></trkpt><trkpt lat="45.0392296" lon="7.9475262"><ele>294.0</ele><time>2026-03-29T09:57:33.871Z</time></trkpt><trkpt lat="45.0392149" lon="7.9477043"><ele>294.0</ele><time>2026-03-29T09:57:34.868Z</time></trkpt><trkpt lat="45.0391865" lon="7.9478781"><ele>294.0</ele><time>2026-03-29T09:57:35.87Z</time></trkpt><trkpt lat="45.0391459" lon="7.9480443"><ele>289.75</ele><time>2026-03-29T09:57:36.87Z</time></trkpt><trkpt lat="45.0391009" lon="7.9482191"><ele>285.5</ele><time>2026-03-29T09:57:37.865Z</time></trkpt><trkpt lat="45.0390817" lon="7.9484096"><ele>281.25</ele><time>2026-03-29T09:57:38.867Z</time></trkpt><trkpt lat="45.0390857" lon="7.9486182"><ele>277.0</ele><time>2026-03-29T09:57:39.869Z</time></trkpt><trkpt lat="45.0391185" lon="7.9488261"><ele>275.0</ele><time>2026-03-29T09:57:40.865Z</time></trkpt><trkpt lat="45.0391612" lon="7.9490279"><ele>273.0</ele><time>2026-03-29T09:57:41.867Z</time></trkpt><trkpt lat="45.039202" lon="7.9492215"><ele>271.0</ele><time>2026-03-29T09:57:42.867Z</time></trkpt><trkpt lat="45.0392382" lon="7.9494164"><ele>269.0</ele><time>2026-03-29T09:57:43.901Z</time></trkpt><trkpt lat="45.039276" lon="7.9496133"><ele>268.25</ele><time>2026-03-29T09:57:44.87Z</time></trkpt><trkpt lat="45.0393051" lon="7.9498132"><ele>267.5</ele><time>2026-03-29T09:57:45.867Z</time></trkpt><trkpt lat="45.0393176" lon="7.9500037"><ele>266.75</ele><time>2026-03-29T09:57:46.864Z</time></trkpt><trkpt lat="45.039314" lon="7.9501855"><ele>266.0</ele><time>2026-03-29T09:57:47.869Z</time></trkpt><trkpt lat="45.0392937" lon="7.9503628"><ele>265.75</ele><time>2026-03-29T09:57:48.865Z</time></trkpt><trkpt lat="45.0392572" lon="7.950538"><ele>265.5</ele><time>2026-03-29T09:57:49.867Z</time></trkpt><trkpt lat="45.0391945" lon="7.9507103"><ele>265.25</ele><time>2026-03-29T09:57:50.895Z</time></trkpt><trkpt lat="45.0391064" lon="7.9508885"><ele>265.0</ele><time>2026-03-29T09:57:51.866Z</time></trkpt><trkpt lat="45.0390079" lon="7.9510576"><ele>261.3333333333333</ele><time>2026-03-29T09:57:52.865Z</time></trkpt><trkpt lat="45.0389058" lon="7.9512354"><ele>257.6666666666667</ele><time>2026-03-29T09:57:53.868Z</time></trkpt><trkpt lat="45.0388116" lon="7.9514149"><ele>254.0</ele><time>2026-03-29T09:57:54.866Z</time></trkpt><trkpt lat="45.0387333" lon="7.9515959"><ele>252.5</ele><time>2026-03-29T09:57:55.87Z</time></trkpt><trkpt lat="45.0386624" lon="7.95178"><ele>251.0</ele><time>2026-03-29T09:57:56.869Z</time></trkpt><trkpt lat="45.0386009" lon="7.9519664"><ele>249.5</ele><time>2026-03-29T09:57:57.873Z</time></trkpt><trkpt lat="45.0385508" lon="7.9521519"><ele>248.0</ele><time>2026-03-29T09:57:58.886Z</time></trkpt><trkpt lat="45.0385095" lon="7.952337"><ele>248.0</ele><time>2026-03-29T09:57:59.875Z</time></trkpt><trkpt lat="45.0384892" lon="7.9525365"><ele>248.0</ele><time>2026-03-29T09:58:00.867Z</time></trkpt><trkpt lat="45.0384976" lon="7.9527449"><ele>248.0</ele><time>2026-03-29T09:58:01.867Z</time></trkpt><trkpt lat="45.0385186" lon="7.9529628"><ele>248.0</ele><time>2026-03-29T09:58:02.869Z</time></trkpt><trkpt lat="45.0385648" lon="7.9531678"><ele>247.0</ele><time>2026-03-29T09:58:03.879Z</time></trkpt><trkpt lat="45.0386187" lon="7.9533656"><ele>246.0</ele><time>2026-03-29T09:58:04.866Z</time></trkpt><trkpt lat="45.0386739" lon="7.9535553"><ele>245.0</ele><time>2026-03-29T09:58:05.865Z</time></trkpt><trkpt lat="45.0387229" lon="7.9537446"><ele>244.0</ele><time>2026-03-29T09:58:06.891Z</time></trkpt><trkpt lat="45.038775" lon="7.9539371"><ele>243.66666666666666</ele><time>2026-03-29T09:58:07.867Z</time></trkpt><trkpt lat="45.0388312" lon="7.9541382"><ele>243.33333333333331</ele><time>2026-03-29T09:58:08.872Z</time></trkpt><trkpt lat="45.0388886" lon="7.9543352"><ele>243.0</ele><time>2026-03-29T09:58:09.873Z</time></trkpt><trkpt lat="45.0389389" lon="7.9545302"><ele>242.75</ele><time>2026-03-29T09:58:10.868Z</time></trkpt><trkpt lat="45.0389911" lon="7.9547263"><ele>242.5</ele><time>2026-03-29T09:58:11.873Z</time></trkpt><trkpt lat="45.0390458" lon="7.9549191"><ele>242.25</ele><time>2026-03-29T09:58:12.87Z</time></trkpt><trkpt lat="45.0391029" lon="7.9551159"><ele>242.0</ele><time>2026-03-29T09:58:13.871Z</time></trkpt><trkpt lat="45.039165" lon="7.9553186"><ele>249.0</ele><time>2026-03-29T09:58:14.868Z</time></trkpt><trkpt lat="45.0392269" lon="7.955532"><ele>256.0</ele><time>2026-03-29T09:58:15.892Z</time></trkpt><trkpt lat="45.0392902" lon="7.9557543"><ele>263.0</ele><time>2026-03-29T09:58:16.876Z</time></trkpt><trkpt lat="45.0393527" lon="7.955984"><ele>266.0</ele><time>2026-03-29T09:58:17.872Z</time></trkpt><trkpt lat="45.0394186" lon="7.9562101"><ele>269.0</ele><time>2026-03-29T09:58:18.874Z</time></trkpt><trkpt lat="45.0394791" lon="7.9564315"><ele>272.0</ele><time>2026-03-29T09:58:19.868Z</time></trkpt><trkpt lat="45.039541" lon="7.956632"><ele>271.0</ele><time>2026-03-29T09:58:20.864Z</time></trkpt><trkpt lat="45.0396004" lon="7.9568134"><ele>270.0</ele><time>2026-03-29T09:58:21.87Z</time></trkpt><trkpt lat="45.0396628" lon="7.9569751"><ele>269.0</ele><time>2026-03-29T09:58:22.884Z</time></trkpt><trkpt lat="45.0397215" lon="7.9571282"><ele>268.0</ele><time>2026-03-29T09:58:23.878Z</time></trkpt><trkpt lat="45.0397701" lon="7.9572826"><ele>268.0</ele><time>2026-03-29T09:58:24.873Z</time></trkpt><trkpt lat="45.0398097" lon="7.9574388"><ele>268.0</ele><time>2026-03-29T09:58:25.872Z</time></trkpt><trkpt lat="45.0398515" lon="7.9575845"><ele>268.0</ele><time>2026-03-29T09:58:26.88Z</time></trkpt><trkpt lat="45.0398935" lon="7.9577304"><ele>268.0</ele><time>2026-03-29T09:58:27.874Z</time></trkpt><trkpt lat="45.0399305" lon="7.9578798"><ele>264.2</ele><time>2026-03-29T09:58:28.871Z</time></trkpt><trkpt lat="45.0399706" lon="7.9580232"><ele>260.4</ele><time>2026-03-29T09:58:29.872Z</time></trkpt><trkpt lat="45.040014" lon="7.9581629"><ele>256.59999999999997</ele><time>2026-03-29T09:58:30.869Z</time></trkpt><trkpt lat="45.0400589" lon="7.9583051"><ele>252.79999999999998</ele><time>2026-03-29T09:58:31.877Z</time></trkpt><trkpt lat="45.0401146" lon="7.9584576"><ele>249.0</ele><time>2026-03-29T09:58:32.899Z</time></trkpt><trkpt lat="45.0401684" lon="7.9586172"><ele>249.0</ele><time>2026-03-29T09:58:33.867Z</time></trkpt><trkpt lat="45.0402201" lon="7.9587827"><ele>249.0</ele><time>2026-03-29T09:58:34.869Z</time></trkpt><trkpt lat="45.0402719" lon="7.9589522"><ele>249.0</ele><time>2026-03-29T09:58:35.88Z</time></trkpt><trkpt lat="45.0403229" lon="7.9591178"><ele>249.0</ele><time>2026-03-29T09:58:36.883Z</time></trkpt><trkpt lat="45.0403727" lon="7.9592795"><ele>248.25</ele><time>2026-03-29T09:58:37.885Z</time></trkpt><trkpt lat="45.0404187" lon="7.9594415"><ele>247.5</ele><time>2026-03-29T09:58:38.902Z</time></trkpt><trkpt lat="45.0404711" lon="7.9596074"><ele>246.75</ele><time>2026-03-29T09:58:39.866Z</time></trkpt><trkpt lat="45.0405218" lon="7.9597791"><ele>246.0</ele><time>2026-03-29T09:58:40.918Z</time></trkpt><trkpt lat="45.0405752" lon="7.9599563"><ele>245.5</ele><time>2026-03-29T09:58:41.87Z</time></trkpt><trkpt lat="45.0406255" lon="7.9601314"><ele>245.0</ele><time>2026-03-29T09:58:42.87Z</time></trkpt><trkpt lat="45.040679" lon="7.9603033"><ele>244.5</ele><time>2026-03-29T09:58:43.875Z</time></trkpt><trkpt lat="45.0407336" lon="7.9604701"><ele>244.0</ele><time>2026-03-29T09:58:44.867Z</time></trkpt><trkpt lat="45.0407856" lon="7.9606276"><ele>243.79999999999998</ele><time>2026-03-29T09:58:45.873Z</time></trkpt><trkpt lat="45.040838" lon="7.9607816"><ele>243.59999999999997</ele><time>2026-03-29T09:58:46.868Z</time></trkpt><trkpt lat="45.0408865" lon="7.9609329"><ele>243.4</ele><time>2026-03-29T09:58:47.867Z</time></trkpt><trkpt lat="45.0409295" lon="7.9610727"><ele>243.2</ele><time>2026-03-29T09:58:48.875Z</time></trkpt><trkpt lat="45.0409664" lon="7.9612018"><ele>243.0</ele><time>2026-03-29T09:58:49.888Z</time></trkpt><trkpt lat="45.0410021" lon="7.9613201"><ele>243.0</ele><time>2026-03-29T09:58:50.879Z</time></trkpt><trkpt lat="45.0410354" lon="7.9614308"><ele>243.0</ele><time>2026-03-29T09:58:51.884Z</time></trkpt><trkpt lat="45.0410674" lon="7.9615327"><ele>243.0</ele><time>2026-03-29T09:58:52.891Z</time></trkpt><trkpt lat="45.0410974" lon="7.9616198"><ele>243.0</ele><time>2026-03-29T09:58:53.874Z</time></trkpt><trkpt lat="45.0411538" lon="7.9617778"><ele>243.0</ele><time>2026-03-29T09:58:55.901Z</time></trkpt><trkpt lat="45.041187" lon="7.9618642"><ele>243.0</ele><time>2026-03-29T09:58:56.87Z</time></trkpt><trkpt lat="45.0412218" lon="7.9619547"><ele>242.5</ele><time>2026-03-29T09:58:57.894Z</time></trkpt><trkpt lat="45.0412607" lon="7.9620563"><ele>242.0</ele><time>2026-03-29T09:58:58.865Z</time></trkpt><trkpt lat="45.0412911" lon="7.9621593"><ele>241.5</ele><time>2026-03-29T09:58:59.885Z</time></trkpt><trkpt lat="45.041318" lon="7.96225"><ele>241.0</ele><time>2026-03-29T09:59:00.874Z</time></trkpt><trkpt lat="45.0413572" lon="7.9623873"><ele>240.5</ele><time>2026-03-29T09:59:02.869Z</time></trkpt><trkpt lat="45.0414227" lon="7.9624452"><ele>240.0</ele><time>2026-03-29T09:59:04.874Z</time></trkpt><trkpt lat="45.0414766" lon="7.9625602"><ele>239.6</ele><time>2026-03-29T09:59:06.868Z</time></trkpt><trkpt lat="45.0415387" lon="7.9626985"><ele>239.2</ele><time>2026-03-29T09:59:08.868Z</time></trkpt><trkpt lat="45.041573" lon="7.9628616"><ele>238.8</ele><time>2026-03-29T09:59:10.868Z</time></trkpt><trkpt lat="45.0415779" lon="7.9629685"><ele>238.4</ele><time>2026-03-29T09:59:11.867Z</time></trkpt><trkpt lat="45.0415857" lon="7.9630738"><ele>238.0</ele><time>2026-03-29T09:59:12.866Z</time></trkpt><trkpt lat="45.0415818" lon="7.9631834"><ele>237.99999999999997</ele><time>2026-03-29T09:59:13.868Z</time></trkpt><trkpt lat="45.0415833" lon="7.9632756"><ele>238.0</ele><time>2026-03-29T09:59:14.868Z</time></trkpt><trkpt lat="45.0416027" lon="7.9633991"><ele>238.0</ele><time>2026-03-29T09:59:16.871Z</time></trkpt><trkpt lat="45.0415869" lon="7.9634941"><ele>238.0</ele><time>2026-03-29T09:59:18.873Z</time></trkpt><trkpt lat="45.0415245" lon="7.9636074"><ele>237.99999999999997</ele><time>2026-03-29T09:59:20.87Z</time></trkpt><trkpt lat="45.0414279" lon="7.9636934"><ele>238.0</ele><time>2026-03-29T09:59:22.871Z</time></trkpt><trkpt lat="45.0413578" lon="7.9637857"><ele>238.16666666666666</ele><time>2026-03-29T09:59:24.867Z</time></trkpt><trkpt lat="45.0413212" lon="7.9638625"><ele>238.33333333333331</ele><time>2026-03-29T09:59:26.873Z</time></trkpt><trkpt lat="45.0412843" lon="7.9639605"><ele>238.5</ele><time>2026-03-29T09:59:29.869Z</time></trkpt><trkpt lat="45.0412407" lon="7.964053"><ele>238.66666666666669</ele><time>2026-03-29T09:59:31.876Z</time></trkpt><trkpt lat="45.0411705" lon="7.9641624"><ele>238.83333333333334</ele><time>2026-03-29T09:59:33.884Z</time></trkpt><trkpt lat="45.0410944" lon="7.9642272"><ele>239.0</ele><time>2026-03-29T09:59:35.866Z</time></trkpt><trkpt lat="45.0410337" lon="7.9643424"><ele>239.0</ele><time>2026-03-29T09:59:37.879Z</time></trkpt><trkpt lat="45.0409242" lon="7.9644547"><ele>238.99999999999997</ele><time>2026-03-29T09:59:39.869Z</time></trkpt><trkpt lat="45.0408598" lon="7.9645173"><ele>238.99999999999997</ele><time>2026-03-29T09:59:40.87Z</time></trkpt><trkpt lat="45.0407953" lon="7.9645903"><ele>239.0</ele><time>2026-03-29T09:59:41.868Z</time></trkpt><trkpt lat="45.0407333" lon="7.9646645"><ele>239.0</ele><time>2026-03-29T09:59:42.891Z</time></trkpt><trkpt lat="45.0406755" lon="7.964734"><ele>239.00000000000003</ele><time>2026-03-29T09:59:43.877Z</time></trkpt><trkpt lat="45.0406194" lon="7.964805"><ele>239.0</ele><time>2026-03-29T09:59:44.875Z</time></trkpt><trkpt lat="45.0405667" lon="7.9648801"><ele>239.0</ele><time>2026-03-29T09:59:45.87Z</time></trkpt><trkpt lat="45.040513" lon="7.9649593"><ele>239.0</ele><time>2026-03-29T09:59:46.872Z</time></trkpt><trkpt lat="45.0404587" lon="7.9650386"><ele>239.00000000000003</ele><time>2026-03-29T09:59:47.868Z</time></trkpt><trkpt lat="45.0404043" lon="7.9651181"><ele>239.0</ele><time>2026-03-29T09:59:48.871Z</time></trkpt><trkpt lat="45.0403505" lon="7.9651898"><ele>239.00000000000003</ele><time>2026-03-29T09:59:49.884Z</time></trkpt><trkpt lat="45.0403011" lon="7.9652552"><ele>239.0</ele><time>2026-03-29T09:59:50.904Z</time></trkpt><trkpt lat="45.0402525" lon="7.9653181"><ele>239.0</ele><time>2026-03-29T09:59:51.869Z</time></trkpt><trkpt lat="45.0402042" lon="7.9653849"><ele>239.0</ele><time>2026-03-29T09:59:52.883Z</time></trkpt><trkpt lat="45.0401546" lon="7.9654516"><ele>239.00000000000003</ele><time>2026-03-29T09:59:53.876Z</time></trkpt><trkpt lat="45.0400771" lon="7.9655589"><ele>239.0</ele><time>2026-03-29T09:59:55.888Z</time></trkpt><trkpt lat="45.0400177" lon="7.9656491"><ele>238.75</ele><time>2026-03-29T10:00:06.884Z</time></trkpt><trkpt lat="45.0399382" lon="7.9658202"><ele>238.5</ele><time>2026-03-29T10:00:08.871Z</time></trkpt><trkpt lat="45.0398798" lon="7.965938"><ele>238.25</ele><time>2026-03-29T10:00:09.872Z</time></trkpt><trkpt lat="45.0398134" lon="7.9660583"><ele>238.0</ele><time>2026-03-29T10:00:10.872Z</time></trkpt><trkpt lat="45.0397406" lon="7.966184"><ele>238.0</ele><time>2026-03-29T10:00:11.868Z</time></trkpt><trkpt lat="45.0396601" lon="7.9663119"><ele>238.0</ele><time>2026-03-29T10:00:12.873Z</time></trkpt><trkpt lat="45.039582" lon="7.9664369"><ele>238.0</ele><time>2026-03-29T10:00:13.871Z</time></trkpt><trkpt lat="45.0395204" lon="7.9665642"><ele>238.0</ele><time>2026-03-29T10:00:14.867Z</time></trkpt><trkpt lat="45.0394794" lon="7.9666988"><ele>238.2</ele><time>2026-03-29T10:00:15.874Z</time></trkpt><trkpt lat="45.0394676" lon="7.9668374"><ele>238.4</ele><time>2026-03-29T10:00:16.882Z</time></trkpt><trkpt lat="45.0394828" lon="7.9669883"><ele>238.59999999999997</ele><time>2026-03-29T10:00:17.865Z</time></trkpt><trkpt lat="45.0395156" lon="7.9671433"><ele>238.79999999999998</ele><time>2026-03-29T10:00:18.877Z</time></trkpt><trkpt lat="45.0395633" lon="7.9673076"><ele>239.0</ele><time>2026-03-29T10:00:19.869Z</time></trkpt><trkpt lat="45.0396192" lon="7.9674971"><ele>239.66666666666669</ele><time>2026-03-29T10:00:20.871Z</time></trkpt><trkpt lat="45.0396779" lon="7.9677006"><ele>240.33333333333331</ele><time>2026-03-29T10:00:21.869Z</time></trkpt><trkpt lat="45.0397302" lon="7.9679027"><ele>241.0</ele><time>2026-03-29T10:00:22.865Z</time></trkpt><trkpt lat="45.0397797" lon="7.9681062"><ele>241.0</ele><time>2026-03-29T10:00:23.867Z</time></trkpt><trkpt lat="45.0398299" lon="7.9683203"><ele>241.0</ele><time>2026-03-29T10:00:24.87Z</time></trkpt><trkpt lat="45.03988" lon="7.9685348"><ele>241.0</ele><time>2026-03-29T10:00:25.871Z</time></trkpt><trkpt lat="45.0399271" lon="7.9687599"><ele>242.33333333333331</ele><time>2026-03-29T10:00:26.87Z</time></trkpt><trkpt lat="45.0399731" lon="7.9689911"><ele>243.66666666666669</ele><time>2026-03-29T10:00:27.874Z</time></trkpt><trkpt lat="45.0400194" lon="7.9692277"><ele>245.0</ele><time>2026-03-29T10:00:28.87Z</time></trkpt><trkpt lat="45.0400641" lon="7.9694693"><ele>246.0</ele><time>2026-03-29T10:00:29.879Z</time></trkpt><trkpt lat="45.0401111" lon="7.9697131"><ele>247.0</ele><time>2026-03-29T10:00:30.87Z</time></trkpt><trkpt lat="45.0401548" lon="7.9699543"><ele>248.0</ele><time>2026-03-29T10:00:31.871Z</time></trkpt><trkpt lat="45.0401966" lon="7.9701872"><ele>252.66666666666669</ele><time>2026-03-29T10:00:32.873Z</time></trkpt><trkpt lat="45.0402367" lon="7.9704139"><ele>257.3333333333333</ele><time>2026-03-29T10:00:33.871Z</time></trkpt><trkpt lat="45.0402761" lon="7.9706446"><ele>262.0</ele><time>2026-03-29T10:00:34.868Z</time></trkpt><trkpt lat="45.0403116" lon="7.9708876"><ele>264.66666666666663</ele><time>2026-03-29T10:00:35.869Z</time></trkpt><trkpt lat="45.0403489" lon="7.9711363"><ele>267.3333333333333</ele><time>2026-03-29T10:00:36.867Z</time></trkpt><trkpt lat="45.0403849" lon="7.971397"><ele>270.0</ele><time>2026-03-29T10:00:37.869Z</time></trkpt><trkpt lat="45.0404185" lon="7.9716716"><ele>265.6666666666667</ele><time>2026-03-29T10:00:38.867Z</time></trkpt><trkpt lat="45.0404491" lon="7.9719612"><ele>261.33333333333337</ele><time>2026-03-29T10:00:39.869Z</time></trkpt><trkpt lat="45.0404818" lon="7.9722603"><ele>257.0</ele><time>2026-03-29T10:00:40.87Z</time></trkpt><trkpt lat="45.0405157" lon="7.9725639"><ele>255.33333333333334</ele><time>2026-03-29T10:00:41.89Z</time></trkpt><trkpt lat="45.0405491" lon="7.972867"><ele>253.66666666666669</ele><time>2026-03-29T10:00:42.868Z</time></trkpt><trkpt lat="45.0405813" lon="7.9731701"><ele>252.0</ele><time>2026-03-29T10:00:43.876Z</time></trkpt><trkpt lat="45.0406144" lon="7.9734712"><ele>256.6666666666667</ele><time>2026-03-29T10:00:44.869Z</time></trkpt><trkpt lat="45.0406503" lon="7.9737485"><ele>261.33333333333337</ele><time>2026-03-29T10:00:45.866Z</time></trkpt><trkpt lat="45.0406787" lon="7.9740217"><ele>266.0</ele><time>2026-03-29T10:00:46.871Z</time></trkpt><trkpt lat="45.040707" lon="7.9742776"><ele>272.6666666666667</ele><time>2026-03-29T10:00:47.865Z</time></trkpt><trkpt lat="45.0407305" lon="7.9745223"><ele>279.3333333333333</ele><time>2026-03-29T10:00:48.872Z</time></trkpt><trkpt lat="45.040752" lon="7.9747569"><ele>286.0</ele><time>2026-03-29T10:00:49.87Z</time></trkpt><trkpt lat="45.0407838" lon="7.9749815"><ele>287.3333333333333</ele><time>2026-03-29T10:00:50.872Z</time></trkpt><trkpt lat="45.0408148" lon="7.9752063"><ele>288.6666666666667</ele><time>2026-03-29T10:00:51.867Z</time></trkpt><trkpt lat="45.0408448" lon="7.9754318"><ele>290.0</ele><time>2026-03-29T10:00:52.871Z</time></trkpt><trkpt lat="45.0408788" lon="7.9756547"><ele>286.0</ele><time>2026-03-29T10:00:53.869Z</time></trkpt><trkpt lat="45.0409143" lon="7.9758846"><ele>282.0</ele><time>2026-03-29T10:00:54.874Z</time></trkpt><trkpt lat="45.0409497" lon="7.9761099"><ele>278.0</ele><time>2026-03-29T10:00:55.872Z</time></trkpt><trkpt lat="45.0409802" lon="7.9763618"><ele>278.0</ele><time>2026-03-29T10:00:56.884Z</time></trkpt><trkpt lat="45.0409955" lon="7.9766271"><ele>278.0</ele><time>2026-03-29T10:00:57.874Z</time></trkpt><trkpt lat="45.0410174" lon="7.9768737"><ele>278.0</ele><time>2026-03-29T10:00:58.869Z</time></trkpt><trkpt lat="45.0410494" lon="7.9771065"><ele>273.25</ele><time>2026-03-29T10:00:59.868Z</time></trkpt><trkpt lat="45.0410549" lon="7.977323"><ele>268.5</ele><time>2026-03-29T10:01:00.883Z</time></trkpt><trkpt lat="45.0410654" lon="7.977543"><ele>263.75</ele><time>2026-03-29T10:01:01.868Z</time></trkpt><trkpt lat="45.0410811" lon="7.9777316"><ele>259.0</ele><time>2026-03-29T10:01:02.888Z</time></trkpt><trkpt lat="45.0411074" lon="7.9778904"><ele>259.3333333333333</ele><time>2026-03-29T10:01:03.874Z</time></trkpt><trkpt lat="45.0411207" lon="7.9780345"><ele>259.66666666666663</ele><time>2026-03-29T10:01:04.87Z</time></trkpt><trkpt lat="45.0411312" lon="7.9781631"><ele>260.0</ele><time>2026-03-29T10:01:05.869Z</time></trkpt><trkpt lat="45.0411363" lon="7.978277"><ele>260.3333333333333</ele><time>2026-03-29T10:01:06.869Z</time></trkpt><trkpt lat="45.0411266" lon="7.9783712"><ele>260.6666666666667</ele><time>2026-03-29T10:01:07.872Z</time></trkpt><trkpt lat="45.0411023" lon="7.9784594"><ele>261.0</ele><time>2026-03-29T10:01:08.876Z</time></trkpt><trkpt lat="45.0410724" lon="7.9785514"><ele>261.0</ele><time>2026-03-29T10:01:09.88Z</time></trkpt><trkpt lat="45.0410443" lon="7.9786558"><ele>261.0</ele><time>2026-03-29T10:01:10.867Z</time></trkpt><trkpt lat="45.0410394" lon="7.9787647"><ele>261.0</ele><time>2026-03-29T10:01:11.884Z</time></trkpt><trkpt lat="45.0410724" lon="7.9788765"><ele>261.0</ele><time>2026-03-29T10:01:12.871Z</time></trkpt><trkpt lat="45.0411366" lon="7.9789782"><ele>261.0</ele><time>2026-03-29T10:01:13.869Z</time></trkpt><trkpt lat="45.0412073" lon="7.9790842"><ele>261.0</ele><time>2026-03-29T10:01:14.867Z</time></trkpt><trkpt lat="45.0412606" lon="7.9792097"><ele>263.75</ele><time>2026-03-29T10:01:15.867Z</time></trkpt><trkpt lat="45.0412988" lon="7.979358"><ele>266.5</ele><time>2026-03-29T10:01:16.877Z</time></trkpt><trkpt lat="45.0413135" lon="7.9795478"><ele>269.25</ele><time>2026-03-29T10:01:17.872Z</time></trkpt><trkpt lat="45.0413243" lon="7.9797659"><ele>272.0</ele><time>2026-03-29T10:01:18.868Z</time></trkpt><trkpt lat="45.041343" lon="7.9800043"><ele>276.33333333333337</ele><time>2026-03-29T10:01:19.869Z</time></trkpt><trkpt lat="45.0413707" lon="7.9802502"><ele>280.6666666666667</ele><time>2026-03-29T10:01:20.871Z</time></trkpt><trkpt lat="45.0413991" lon="7.9804923"><ele>285.0</ele><time>2026-03-29T10:01:21.877Z</time></trkpt><trkpt lat="45.041428" lon="7.9807205"><ele>288.3333333333333</ele><time>2026-03-29T10:01:22.899Z</time></trkpt><trkpt lat="45.0414639" lon="7.980944"><ele>291.66666666666663</ele><time>2026-03-29T10:01:23.867Z</time></trkpt><trkpt lat="45.0415008" lon="7.981155"><ele>295.0</ele><time>2026-03-29T10:01:24.869Z</time></trkpt><trkpt lat="45.0415396" lon="7.9813627"><ele>295.0</ele><time>2026-03-29T10:01:25.895Z</time></trkpt><trkpt lat="45.0415779" lon="7.9815704"><ele>295.0</ele><time>2026-03-29T10:01:26.88Z</time></trkpt><trkpt lat="45.041616" lon="7.9817782"><ele>295.0</ele><time>2026-03-29T10:01:27.88Z</time></trkpt><trkpt lat="45.0416629" lon="7.9820026"><ele>291.66666666666663</ele><time>2026-03-29T10:01:28.872Z</time></trkpt><trkpt lat="45.0417404" lon="7.9822556"><ele>288.3333333333333</ele><time>2026-03-29T10:01:29.867Z</time></trkpt><trkpt lat="45.0418124" lon="7.9824988"><ele>285.0</ele><time>2026-03-29T10:01:30.866Z</time></trkpt><trkpt lat="45.041877" lon="7.9827105"><ele>281.5</ele><time>2026-03-29T10:01:31.871Z</time></trkpt><trkpt lat="45.0419311" lon="7.9828969"><ele>278.0</ele><time>2026-03-29T10:01:32.882Z</time></trkpt><trkpt lat="45.041967" lon="7.9830733"><ele>274.5</ele><time>2026-03-29T10:01:33.868Z</time></trkpt><trkpt lat="45.0419694" lon="7.9832657"><ele>271.0</ele><time>2026-03-29T10:01:34.872Z</time></trkpt><trkpt lat="45.0419764" lon="7.9834699"><ele>270.3333333333333</ele><time>2026-03-29T10:01:35.874Z</time></trkpt><trkpt lat="45.041955" lon="7.9836753"><ele>269.6666666666667</ele><time>2026-03-29T10:01:36.868Z</time></trkpt><trkpt lat="45.0419113" lon="7.9838811"><ele>269.0</ele><time>2026-03-29T10:01:37.868Z</time></trkpt><trkpt lat="45.0417912" lon="7.9840853"><ele>269.0</ele><time>2026-03-29T10:01:38.866Z</time></trkpt><trkpt lat="45.0416451" lon="7.9842974"><ele>269.0</ele><time>2026-03-29T10:01:39.869Z</time></trkpt><trkpt lat="45.0414891" lon="7.9845207"><ele>269.0</ele><time>2026-03-29T10:01:40.867Z</time></trkpt><trkpt lat="45.0413262" lon="7.9847546"><ele>267.0</ele><time>2026-03-29T10:01:41.871Z</time></trkpt><trkpt lat="45.04117" lon="7.9850151"><ele>265.0</ele><time>2026-03-29T10:01:42.886Z</time></trkpt><trkpt lat="45.0410302" lon="7.9852963"><ele>265.0</ele><time>2026-03-29T10:01:43.873Z</time></trkpt><trkpt lat="45.0408992" lon="7.9855726"><ele>265.0</ele><time>2026-03-29T10:01:44.865Z</time></trkpt><trkpt lat="45.0407717" lon="7.9858582"><ele>263.0</ele><time>2026-03-29T10:01:45.87Z</time></trkpt><trkpt lat="45.0406451" lon="7.9861481"><ele>261.0</ele><time>2026-03-29T10:01:46.876Z</time></trkpt><trkpt lat="45.0405212" lon="7.9864306"><ele>262.6666666666667</ele><time>2026-03-29T10:01:47.88Z</time></trkpt><trkpt lat="45.0404039" lon="7.9866966"><ele>264.33333333333337</ele><time>2026-03-29T10:01:48.864Z</time></trkpt><trkpt lat="45.0402894" lon="7.9869433"><ele>266.0</ele><time>2026-03-29T10:01:49.871Z</time></trkpt><trkpt lat="45.0401674" lon="7.9871692"><ele>266.0</ele><time>2026-03-29T10:01:50.868Z</time></trkpt><trkpt lat="45.0400285" lon="7.9873735"><ele>266.0</ele><time>2026-03-29T10:01:51.873Z</time></trkpt><trkpt lat="45.0398761" lon="7.9875511"><ele>266.0</ele><time>2026-03-29T10:01:52.874Z</time></trkpt><trkpt lat="45.0397028" lon="7.9877128"><ele>264.6666666666667</ele><time>2026-03-29T10:01:53.88Z</time></trkpt><trkpt lat="45.0395147" lon="7.987869"><ele>263.3333333333333</ele><time>2026-03-29T10:01:54.887Z</time></trkpt><trkpt lat="45.0393119" lon="7.9880123"><ele>262.0</ele><time>2026-03-29T10:01:55.87Z</time></trkpt><trkpt lat="45.039096" lon="7.9881416"><ele>262.3333333333333</ele><time>2026-03-29T10:01:56.888Z</time></trkpt><trkpt lat="45.0388817" lon="7.988244"><ele>262.6666666666667</ele><time>2026-03-29T10:01:57.876Z</time></trkpt><trkpt lat="45.0386723" lon="7.9883248"><ele>263.0</ele><time>2026-03-29T10:01:58.868Z</time></trkpt><trkpt lat="45.0384716" lon="7.9884136"><ele>258.0</ele><time>2026-03-29T10:01:59.885Z</time></trkpt><trkpt lat="45.038291" lon="7.9885236"><ele>253.0</ele><time>2026-03-29T10:02:00.867Z</time></trkpt><trkpt lat="45.038134" lon="7.9886731"><ele>248.0</ele><time>2026-03-29T10:02:01.878Z</time></trkpt><trkpt lat="45.0379945" lon="7.9888588"><ele>248.0</ele><time>2026-03-29T10:02:02.892Z</time></trkpt><trkpt lat="45.0378685" lon="7.9890822"><ele>248.0</ele><time>2026-03-29T10:02:03.866Z</time></trkpt><trkpt lat="45.0377532" lon="7.9893305"><ele>248.0</ele><time>2026-03-29T10:02:04.869Z</time></trkpt><trkpt lat="45.0376431" lon="7.9895876"><ele>250.66666666666669</ele><time>2026-03-29T10:02:05.889Z</time></trkpt><trkpt lat="45.0375396" lon="7.9898303"><ele>253.33333333333331</ele><time>2026-03-29T10:02:06.87Z</time></trkpt><trkpt lat="45.037438" lon="7.9900528"><ele>256.0</ele><time>2026-03-29T10:02:07.877Z</time></trkpt><trkpt lat="45.0373451" lon="7.9902545"><ele>256.0</ele><time>2026-03-29T10:02:08.869Z</time></trkpt><trkpt lat="45.0372611" lon="7.9904403"><ele>256.0</ele><time>2026-03-29T10:02:09.867Z</time></trkpt><trkpt lat="45.0371896" lon="7.9906179"><ele>256.0</ele><time>2026-03-29T10:02:10.874Z</time></trkpt><trkpt lat="45.0371403" lon="7.9907856"><ele>256.0</ele><time>2026-03-29T10:02:11.869Z</time></trkpt><trkpt lat="45.0371134" lon="7.9909472"><ele>256.0</ele><time>2026-03-29T10:02:12.869Z</time></trkpt><trkpt lat="45.037112" lon="7.9911173"><ele>256.0</ele><time>2026-03-29T10:02:13.873Z</time></trkpt><trkpt lat="45.037134" lon="7.9913058"><ele>256.0</ele><time>2026-03-29T10:02:14.872Z</time></trkpt><trkpt lat="45.0371737" lon="7.9915074"><ele>256.0</ele><time>2026-03-29T10:02:15.884Z</time></trkpt><trkpt lat="45.0372234" lon="7.9917036"><ele>253.66666666666666</ele><time>2026-03-29T10:02:16.872Z</time></trkpt><trkpt lat="45.0372834" lon="7.9918939"><ele>251.33333333333331</ele><time>2026-03-29T10:02:17.87Z</time></trkpt><trkpt lat="45.0373373" lon="7.9920901"><ele>249.0</ele><time>2026-03-29T10:02:18.866Z</time></trkpt><trkpt lat="45.0373884" lon="7.9923073"><ele>248.66666666666669</ele><time>2026-03-29T10:02:19.868Z</time></trkpt><trkpt lat="45.037434" lon="7.992527"><ele>248.33333333333334</ele><time>2026-03-29T10:02:20.875Z</time></trkpt><trkpt lat="45.0374847" lon="7.9927586"><ele>248.0</ele><time>2026-03-29T10:02:21.885Z</time></trkpt><trkpt lat="45.0375308" lon="7.9929961"><ele>247.33333333333334</ele><time>2026-03-29T10:02:22.867Z</time></trkpt><trkpt lat="45.0375812" lon="7.9932386"><ele>246.66666666666669</ele><time>2026-03-29T10:02:23.88Z</time></trkpt><trkpt lat="45.0376345" lon="7.9934855"><ele>246.0</ele><time>2026-03-29T10:02:24.868Z</time></trkpt><trkpt lat="45.0376866" lon="7.9937346"><ele>245.66666666666669</ele><time>2026-03-29T10:02:25.868Z</time></trkpt><trkpt lat="45.0377388" lon="7.9939832"><ele>245.33333333333334</ele><time>2026-03-29T10:02:26.864Z</time></trkpt><trkpt lat="45.0377932" lon="7.9942288"><ele>245.0</ele><time>2026-03-29T10:02:27.868Z</time></trkpt><trkpt lat="45.0378469" lon="7.9944753"><ele>244.33333333333334</ele><time>2026-03-29T10:02:28.869Z</time></trkpt><trkpt lat="45.0379001" lon="7.9947254"><ele>243.66666666666669</ele><time>2026-03-29T10:02:29.87Z</time></trkpt><trkpt lat="45.0379554" lon="7.9949774"><ele>243.0</ele><time>2026-03-29T10:02:30.869Z</time></trkpt><trkpt lat="45.0380103" lon="7.9952351"><ele>242.66666666666669</ele><time>2026-03-29T10:02:31.866Z</time></trkpt><trkpt lat="45.0380681" lon="7.9954972"><ele>242.33333333333334</ele><time>2026-03-29T10:02:32.872Z</time></trkpt><trkpt lat="45.0381282" lon="7.9957659"><ele>242.0</ele><time>2026-03-29T10:02:33.872Z</time></trkpt><trkpt lat="45.0381887" lon="7.9960361"><ele>241.66666666666669</ele><time>2026-03-29T10:02:34.872Z</time></trkpt><trkpt lat="45.0382485" lon="7.9963099"><ele>241.33333333333331</ele><time>2026-03-29T10:02:35.875Z</time></trkpt><trkpt lat="45.0383147" lon="7.9965916"><ele>241.0</ele><time>2026-03-29T10:02:36.873Z</time></trkpt><trkpt lat="45.0383842" lon="7.99688"><ele>241.66666666666666</ele><time>2026-03-29T10:02:37.867Z</time></trkpt><trkpt lat="45.038451" lon="7.9971769"><ele>242.33333333333331</ele><time>2026-03-29T10:02:38.864Z</time></trkpt><trkpt lat="45.0385144" lon="7.9974782"><ele>243.0</ele><time>2026-03-29T10:02:39.874Z</time></trkpt><trkpt lat="45.0385777" lon="7.9977767"><ele>245.33333333333331</ele><time>2026-03-29T10:02:40.866Z</time></trkpt><trkpt lat="45.0386418" lon="7.9980725"><ele>247.66666666666666</ele><time>2026-03-29T10:02:41.87Z</time></trkpt><trkpt lat="45.0387056" lon="7.9983668"><ele>250.0</ele><time>2026-03-29T10:02:42.874Z</time></trkpt><trkpt lat="45.0387708" lon="7.998658"><ele>254.33333333333331</ele><time>2026-03-29T10:02:43.869Z</time></trkpt><trkpt lat="45.0388357" lon="7.9989461"><ele>258.6666666666667</ele><time>2026-03-29T10:02:44.868Z</time></trkpt><trkpt lat="45.0388979" lon="7.9992257"><ele>263.0</ele><time>2026-03-29T10:02:45.869Z</time></trkpt><trkpt lat="45.0389563" lon="7.9994955"><ele>267.6666666666667</ele><time>2026-03-29T10:02:46.887Z</time></trkpt><trkpt lat="45.0390079" lon="7.999748"><ele>272.3333333333333</ele><time>2026-03-29T10:02:47.873Z</time></trkpt><trkpt lat="45.0390565" lon="7.9999834"><ele>277.0</ele><time>2026-03-29T10:02:48.867Z</time></trkpt><trkpt lat="45.0390994" lon="8.0002017"><ele>272.5</ele><time>2026-03-29T10:02:49.866Z</time></trkpt><trkpt lat="45.0391355" lon="8.0004038"><ele>268.0</ele><time>2026-03-29T10:02:50.883Z</time></trkpt><trkpt lat="45.0391712" lon="8.000598"><ele>263.5</ele><time>2026-03-29T10:02:51.876Z</time></trkpt><trkpt lat="45.0392112" lon="8.0007905"><ele>259.0</ele><time>2026-03-29T10:02:52.867Z</time></trkpt><trkpt lat="45.0392458" lon="8.0009924"><ele>259.0</ele><time>2026-03-29T10:02:53.875Z</time></trkpt><trkpt lat="45.0392743" lon="8.0012028"><ele>259.0</ele><time>2026-03-29T10:02:54.885Z</time></trkpt><trkpt lat="45.0392907" lon="8.0014327"><ele>259.0</ele><time>2026-03-29T10:02:55.867Z</time></trkpt><trkpt lat="45.0393119" lon="8.0016545"><ele>264.0</ele><time>2026-03-29T10:02:56.868Z</time></trkpt><trkpt lat="45.0393308" lon="8.0018721"><ele>269.0</ele><time>2026-03-29T10:02:57.868Z</time></trkpt><trkpt lat="45.0393541" lon="8.0020986"><ele>274.0</ele><time>2026-03-29T10:02:58.887Z</time></trkpt><trkpt lat="45.0393755" lon="8.0023212"><ele>278.0</ele><time>2026-03-29T10:02:59.893Z</time></trkpt><trkpt lat="45.0393969" lon="8.0025422"><ele>282.0</ele><time>2026-03-29T10:03:00.867Z</time></trkpt><trkpt lat="45.0394002" lon="8.003312"><ele>279.3333333333333</ele><time>2026-03-29T10:03:03.882Z</time></trkpt><trkpt lat="45.0394286" lon="8.0035498"><ele>276.66666666666663</ele><time>2026-03-29T10:03:04.867Z</time></trkpt><trkpt lat="45.0394111" lon="8.0038977"><ele>274.0</ele><time>2026-03-29T10:03:05.877Z</time></trkpt><trkpt lat="45.0394802" lon="8.0041599"><ele>270.66666666666663</ele><time>2026-03-29T10:03:06.868Z</time></trkpt><trkpt lat="45.039575" lon="8.0044496"><ele>267.3333333333333</ele><time>2026-03-29T10:03:07.9Z</time></trkpt><trkpt lat="45.0396061" lon="8.0046835"><ele>264.0</ele><time>2026-03-29T10:03:08.867Z</time></trkpt><trkpt lat="45.0396638" lon="8.0049218"><ele>264.3333333333333</ele><time>2026-03-29T10:03:09.871Z</time></trkpt><trkpt lat="45.0397435" lon="8.005165"><ele>264.66666666666663</ele><time>2026-03-29T10:03:10.874Z</time></trkpt><trkpt lat="45.0398455" lon="8.0053782"><ele>265.0</ele><time>2026-03-29T10:03:11.867Z</time></trkpt><trkpt lat="45.0399522" lon="8.0055782"><ele>262.25</ele><time>2026-03-29T10:03:12.874Z</time></trkpt><trkpt lat="45.0400541" lon="8.0057578"><ele>259.5</ele><time>2026-03-29T10:03:13.888Z</time></trkpt><trkpt lat="45.0401278" lon="8.0059407"><ele>256.75</ele><time>2026-03-29T10:03:14.867Z</time></trkpt><trkpt lat="45.0401822" lon="8.0061106"><ele>254.0</ele><time>2026-03-29T10:03:15.881Z</time></trkpt><trkpt lat="45.0401961" lon="8.0062725"><ele>255.75</ele><time>2026-03-29T10:03:16.888Z</time></trkpt><trkpt lat="45.0401508" lon="8.0064466"><ele>257.5</ele><time>2026-03-29T10:03:17.891Z</time></trkpt><trkpt lat="45.0400788" lon="8.0066175"><ele>259.25</ele><time>2026-03-29T10:03:18.873Z</time></trkpt><trkpt lat="45.0399824" lon="8.0068164"><ele>261.0</ele><time>2026-03-29T10:03:19.87Z</time></trkpt><trkpt lat="45.0398881" lon="8.0070291"><ele>261.0</ele><time>2026-03-29T10:03:20.891Z</time></trkpt><trkpt lat="45.0397983" lon="8.0072499"><ele>261.0</ele><time>2026-03-29T10:03:21.887Z</time></trkpt><trkpt lat="45.039713" lon="8.0074697"><ele>261.0</ele><time>2026-03-29T10:03:22.868Z</time></trkpt><trkpt lat="45.0396288" lon="8.0076865"><ele>255.0</ele><time>2026-03-29T10:03:23.892Z</time></trkpt><trkpt lat="45.0395429" lon="8.0079124"><ele>249.0</ele><time>2026-03-29T10:03:24.869Z</time></trkpt><trkpt lat="45.039462" lon="8.0081462"><ele>243.0</ele><time>2026-03-29T10:03:25.873Z</time></trkpt><trkpt lat="45.0393726" lon="8.008379"><ele>243.66666666666669</ele><time>2026-03-29T10:03:26.867Z</time></trkpt><trkpt lat="45.0392717" lon="8.0086011"><ele>244.33333333333334</ele><time>2026-03-29T10:03:27.876Z</time></trkpt><trkpt lat="45.0391485" lon="8.0088109"><ele>245.0</ele><time>2026-03-29T10:03:28.872Z</time></trkpt><trkpt lat="45.0390219" lon="8.0090132"><ele>242.0</ele><time>2026-03-29T10:03:29.868Z</time></trkpt><trkpt lat="45.0389014" lon="8.0092106"><ele>239.0</ele><time>2026-03-29T10:03:30.869Z</time></trkpt><trkpt lat="45.0387909" lon="8.0093949"><ele>236.0</ele><time>2026-03-29T10:03:31.867Z</time></trkpt><trkpt lat="45.0386898" lon="8.0095685"><ele>236.0</ele><time>2026-03-29T10:03:32.868Z</time></trkpt><trkpt lat="45.0385969" lon="8.009735"><ele>236.0</ele><time>2026-03-29T10:03:33.865Z</time></trkpt><trkpt lat="45.0385073" lon="8.0099019"><ele>236.0</ele><time>2026-03-29T10:03:34.868Z</time></trkpt><trkpt lat="45.0384138" lon="8.0100705"><ele>236.0</ele><time>2026-03-29T10:03:35.874Z</time></trkpt><trkpt lat="45.0383188" lon="8.0102375"><ele>236.66666666666669</ele><time>2026-03-29T10:03:36.877Z</time></trkpt><trkpt lat="45.0382285" lon="8.010404"><ele>237.33333333333331</ele><time>2026-03-29T10:03:37.871Z</time></trkpt><trkpt lat="45.0381477" lon="8.0105817"><ele>238.0</ele><time>2026-03-29T10:03:38.894Z</time></trkpt><trkpt lat="45.0380794" lon="8.0107752"><ele>236.0</ele><time>2026-03-29T10:03:39.876Z</time></trkpt><trkpt lat="45.0380402" lon="8.0109955"><ele>234.0</ele><time>2026-03-29T10:03:40.869Z</time></trkpt><trkpt lat="45.0380196" lon="8.0112285"><ele>232.0</ele><time>2026-03-29T10:03:41.864Z</time></trkpt><trkpt lat="45.0380059" lon="8.0114584"><ele>231.0</ele><time>2026-03-29T10:03:42.887Z</time></trkpt><trkpt lat="45.037993" lon="8.0116827"><ele>230.0</ele><time>2026-03-29T10:03:43.869Z</time></trkpt><trkpt lat="45.0379749" lon="8.0118996"><ele>229.0</ele><time>2026-03-29T10:03:44.877Z</time></trkpt><trkpt lat="45.03795" lon="8.01212"><ele>229.0</ele><time>2026-03-29T10:03:45.866Z</time></trkpt><trkpt lat="45.0379179" lon="8.0123448"><ele>229.0</ele><time>2026-03-29T10:03:46.869Z</time></trkpt><trkpt lat="45.0378879" lon="8.0125664"><ele>229.0</ele><time>2026-03-29T10:03:47.869Z</time></trkpt><trkpt lat="45.0378528" lon="8.0127813"><ele>228.0</ele><time>2026-03-29T10:03:48.869Z</time></trkpt><trkpt lat="45.0378154" lon="8.0129909"><ele>227.0</ele><time>2026-03-29T10:03:49.868Z</time></trkpt><trkpt lat="45.0377822" lon="8.0131894"><ele>226.0</ele><time>2026-03-29T10:03:50.887Z</time></trkpt><trkpt lat="45.0377531" lon="8.0133739"><ele>225.0</ele><time>2026-03-29T10:03:51.864Z</time></trkpt><trkpt lat="45.0377242" lon="8.0135489"><ele>223.75</ele><time>2026-03-29T10:03:52.865Z</time></trkpt><trkpt lat="45.0376959" lon="8.0137226"><ele>222.5</ele><time>2026-03-29T10:03:53.871Z</time></trkpt><trkpt lat="45.0376678" lon="8.0138966"><ele>221.25</ele><time>2026-03-29T10:03:54.88Z</time></trkpt><trkpt lat="45.037647" lon="8.0140677"><ele>220.0</ele><time>2026-03-29T10:03:55.871Z</time></trkpt><trkpt lat="45.0376306" lon="8.0142307"><ele>219.4</ele><time>2026-03-29T10:03:56.868Z</time></trkpt><trkpt lat="45.03762" lon="8.0143895"><ele>218.8</ele><time>2026-03-29T10:03:57.865Z</time></trkpt><trkpt lat="45.037603" lon="8.0145377"><ele>218.2</ele><time>2026-03-29T10:03:58.876Z</time></trkpt><trkpt lat="45.0375864" lon="8.014675"><ele>217.6</ele><time>2026-03-29T10:03:59.875Z</time></trkpt><trkpt lat="45.0375741" lon="8.0147981"><ele>217.0</ele><time>2026-03-29T10:04:00.877Z</time></trkpt><trkpt lat="45.0375587" lon="8.0149083"><ele>217.0</ele><time>2026-03-29T10:04:01.872Z</time></trkpt><trkpt lat="45.0375447" lon="8.0149998"><ele>217.0</ele><time>2026-03-29T10:04:02.872Z</time></trkpt><trkpt lat="45.0375318" lon="8.0151437"><ele>217.0</ele><time>2026-03-29T10:04:04.87Z</time></trkpt><trkpt lat="45.0375265" lon="8.0152368"><ele>217.0</ele><time>2026-03-29T10:04:06.879Z</time></trkpt><trkpt lat="45.037538" lon="8.015501"><ele>217.0</ele><time>2026-03-29T10:04:15.871Z</time></trkpt><trkpt lat="45.0375479" lon="8.0156752"><ele>216.99999999999997</ele><time>2026-03-29T10:04:17.89Z</time></trkpt><trkpt lat="45.0375524" lon="8.0157698"><ele>217.0</ele><time>2026-03-29T10:04:18.871Z</time></trkpt><trkpt lat="45.0375603" lon="8.0158724"><ele>217.0</ele><time>2026-03-29T10:04:19.884Z</time></trkpt><trkpt lat="45.0375761" lon="8.0159852"><ele>217.0</ele><time>2026-03-29T10:04:20.872Z</time></trkpt><trkpt lat="45.0375865" lon="8.0161003"><ele>216.99999999999997</ele><time>2026-03-29T10:04:21.872Z</time></trkpt><trkpt lat="45.0375949" lon="8.0162243"><ele>217.0</ele><time>2026-03-29T10:04:22.87Z</time></trkpt><trkpt lat="45.0376063" lon="8.0163581"><ele>217.0</ele><time>2026-03-29T10:04:23.87Z</time></trkpt><trkpt lat="45.0376181" lon="8.016504"><ele>217.0</ele><time>2026-03-29T10:04:24.875Z</time></trkpt><trkpt lat="45.0376274" lon="8.0166562"><ele>217.0</ele><time>2026-03-29T10:04:25.868Z</time></trkpt><trkpt lat="45.037638" lon="8.0168103"><ele>217.0</ele><time>2026-03-29T10:04:26.87Z</time></trkpt><trkpt lat="45.03765" lon="8.0169651"><ele>217.0</ele><time>2026-03-29T10:04:27.871Z</time></trkpt><trkpt lat="45.0376632" lon="8.0171262"><ele>216.75</ele><time>2026-03-29T10:04:28.891Z</time></trkpt><trkpt lat="45.0376786" lon="8.0172991"><ele>216.5</ele><time>2026-03-29T10:04:29.87Z</time></trkpt><trkpt lat="45.0376965" lon="8.0174889"><ele>216.25</ele><time>2026-03-29T10:04:30.867Z</time></trkpt><trkpt lat="45.0377112" lon="8.0176891"><ele>216.0</ele><time>2026-03-29T10:04:31.871Z</time></trkpt><trkpt lat="45.0377295" lon="8.0178957"><ele>216.0</ele><time>2026-03-29T10:04:32.881Z</time></trkpt><trkpt lat="45.0377468" lon="8.0181127"><ele>216.0</ele><time>2026-03-29T10:04:33.875Z</time></trkpt><trkpt lat="45.0377614" lon="8.0183383"><ele>216.0</ele><time>2026-03-29T10:04:34.883Z</time></trkpt><trkpt lat="45.0377855" lon="8.0185768"><ele>215.66666666666669</ele><time>2026-03-29T10:04:35.875Z</time></trkpt><trkpt lat="45.0378103" lon="8.018828"><ele>215.33333333333334</ele><time>2026-03-29T10:04:36.868Z</time></trkpt><trkpt lat="45.0378347" lon="8.0190863"><ele>215.0</ele><time>2026-03-29T10:04:37.884Z</time></trkpt><trkpt lat="45.0378633" lon="8.0193489"><ele>215.0</ele><time>2026-03-29T10:04:38.873Z</time></trkpt><trkpt lat="45.0378877" lon="8.0196082"><ele>215.0</ele><time>2026-03-29T10:04:39.877Z</time></trkpt><trkpt lat="45.0379113" lon="8.0198321"><ele>215.0</ele><time>2026-03-29T10:04:40.881Z</time></trkpt><trkpt lat="45.0379342" lon="8.0200472"><ele>215.0</ele><time>2026-03-29T10:04:41.898Z</time></trkpt><trkpt lat="45.0379578" lon="8.0202381"><ele>215.0</ele><time>2026-03-29T10:04:42.888Z</time></trkpt><trkpt lat="45.0379812" lon="8.0204074"><ele>215.0</ele><time>2026-03-29T10:04:43.877Z</time></trkpt><trkpt lat="45.0379997" lon="8.0205527"><ele>215.0</ele><time>2026-03-29T10:04:44.874Z</time></trkpt><trkpt lat="45.0380159" lon="8.0206698"><ele>215.0</ele><time>2026-03-29T10:04:45.877Z</time></trkpt><trkpt lat="45.0380314" lon="8.020806"><ele>215.0</ele><time>2026-03-29T10:04:47.882Z</time></trkpt><trkpt lat="45.0379445" lon="8.0208521"><ele>215.0</ele><time>2026-03-29T10:04:52.867Z</time></trkpt><trkpt lat="45.0378545" lon="8.0208523"><ele>215.0</ele><time>2026-03-29T10:04:54.877Z</time></trkpt><trkpt lat="45.0377705" lon="8.0208311"><ele>215.0</ele><time>2026-03-29T10:04:56.889Z</time></trkpt><trkpt lat="45.0376671" lon="8.020813"><ele>215.0</ele><time>2026-03-29T10:04:58.885Z</time></trkpt><trkpt lat="45.0375459" lon="8.0208103"><ele>215.0</ele><time>2026-03-29T10:05:00.874Z</time></trkpt><trkpt lat="45.0374792" lon="8.0207999"><ele>215.0</ele><time>2026-03-29T10:05:01.885Z</time></trkpt><trkpt lat="45.0374058" lon="8.0207936"><ele>215.0</ele><time>2026-03-29T10:05:02.867Z</time></trkpt><trkpt lat="45.0373355" lon="8.0207883"><ele>215.0</ele><time>2026-03-29T10:05:03.875Z</time></trkpt><trkpt lat="45.0372618" lon="8.0207704"><ele>215.0</ele><time>2026-03-29T10:05:04.867Z</time></trkpt><trkpt lat="45.0371834" lon="8.0207527"><ele>215.0</ele><time>2026-03-29T10:05:05.868Z</time></trkpt><trkpt lat="45.0371012" lon="8.0207284"><ele>215.0</ele><time>2026-03-29T10:05:06.884Z</time></trkpt><trkpt lat="45.0370168" lon="8.0207035"><ele>214.6</ele><time>2026-03-29T10:05:07.87Z</time></trkpt><trkpt lat="45.0369229" lon="8.0206738"><ele>214.2</ele><time>2026-03-29T10:05:08.879Z</time></trkpt><trkpt lat="45.03683" lon="8.0206458"><ele>213.8</ele><time>2026-03-29T10:05:09.879Z</time></trkpt><trkpt lat="45.0367374" lon="8.0206014"><ele>213.4</ele><time>2026-03-29T10:05:10.867Z</time></trkpt><trkpt lat="45.0366443" lon="8.0205496"><ele>213.0</ele><time>2026-03-29T10:05:11.865Z</time></trkpt><trkpt lat="45.0365533" lon="8.0204903"><ele>213.0</ele><time>2026-03-29T10:05:12.868Z</time></trkpt><trkpt lat="45.0364643" lon="8.0204303"><ele>213.0</ele><time>2026-03-29T10:05:13.872Z</time></trkpt><trkpt lat="45.0363806" lon="8.0203791"><ele>213.0</ele><time>2026-03-29T10:05:14.87Z</time></trkpt><trkpt lat="45.0362994" lon="8.0203288"><ele>213.0</ele><time>2026-03-29T10:05:15.868Z</time></trkpt><trkpt lat="45.0362146" lon="8.0202454"><ele>213.0</ele><time>2026-03-29T10:05:16.875Z</time></trkpt><trkpt lat="45.0361314" lon="8.0201944"><ele>213.0</ele><time>2026-03-29T10:05:17.87Z</time></trkpt><trkpt lat="45.0360479" lon="8.0201475"><ele>213.0</ele><time>2026-03-29T10:05:18.867Z</time></trkpt><trkpt lat="45.0359621" lon="8.0200992"><ele>213.0</ele><time>2026-03-29T10:05:19.875Z</time></trkpt><trkpt lat="45.0358694" lon="8.020044"><ele>213.0</ele><time>2026-03-29T10:05:20.873Z</time></trkpt><trkpt lat="45.0357741" lon="8.0199926"><ele>213.0</ele><time>2026-03-29T10:05:21.883Z</time></trkpt><trkpt lat="45.0356804" lon="8.0199562"><ele>212.33333333333334</ele><time>2026-03-29T10:05:22.869Z</time></trkpt><trkpt lat="45.0355905" lon="8.0199292"><ele>211.66666666666669</ele><time>2026-03-29T10:05:23.87Z</time></trkpt><trkpt lat="45.0355015" lon="8.0199122"><ele>211.0</ele><time>2026-03-29T10:05:24.881Z</time></trkpt><trkpt lat="45.0354171" lon="8.0199033"><ele>210.33333333333334</ele><time>2026-03-29T10:05:25.87Z</time></trkpt><trkpt lat="45.0353417" lon="8.0199"><ele>209.66666666666669</ele><time>2026-03-29T10:05:26.87Z</time></trkpt><trkpt lat="45.0352763" lon="8.0199006"><ele>209.0</ele><time>2026-03-29T10:05:27.873Z</time></trkpt><trkpt lat="45.0351622" lon="8.0199323"><ele>209.0</ele><time>2026-03-29T10:05:29.876Z</time></trkpt><trkpt lat="45.0350373" lon="8.0199758"><ele>209.0</ele><time>2026-03-29T10:05:31.873Z</time></trkpt><trkpt lat="45.0349736" lon="8.0199922"><ele>209.0</ele><time>2026-03-29T10:05:32.87Z</time></trkpt><trkpt lat="45.0348557" lon="8.0200155"><ele>209.0</ele><time>2026-03-29T10:05:34.87Z</time></trkpt><trkpt lat="45.0347527" lon="8.0200243"><ele>209.0</ele><time>2026-03-29T10:05:36.897Z</time></trkpt><trkpt lat="45.0346685" lon="8.0200322"><ele>209.50000000000003</ele><time>2026-03-29T10:05:38.872Z</time></trkpt><trkpt lat="45.0345948" lon="8.0200394"><ele>210.0</ele><time>2026-03-29T10:05:41.874Z</time></trkpt><trkpt lat="45.0344994" lon="8.0200311"><ele>210.5</ele><time>2026-03-29T10:06:48.882Z</time></trkpt><trkpt lat="45.0344207" lon="8.0200295"><ele>211.0</ele><time>2026-03-29T10:07:00.871Z</time></trkpt><trkpt lat="45.0343574" lon="8.0200395"><ele>211.50000000000003</ele><time>2026-03-29T10:07:03.874Z</time></trkpt><trkpt lat="45.0342847" lon="8.0200425"><ele>212.0</ele><time>2026-03-29T10:07:06.868Z</time></trkpt><trkpt lat="45.034218" lon="8.0200296"><ele>212.0</ele><time>2026-03-29T10:07:09.877Z</time></trkpt><trkpt lat="45.0341517" lon="8.0200035"><ele>212.0</ele><time>2026-03-29T10:07:15.877Z</time></trkpt><trkpt lat="45.0341914" lon="8.0199316"><ele>212.0</ele><time>2026-03-29T10:07:21.875Z</time></trkpt><trkpt lat="45.0342497" lon="8.0199667"><ele>212.0</ele><time>2026-03-29T10:07:24.874Z</time></trkpt><trkpt lat="45.0343191" lon="8.0200167"><ele>212.0</ele><time>2026-03-29T10:07:27.88Z</time></trkpt><trkpt lat="45.0343829" lon="8.0200168"><ele>212.0</ele><time>2026-03-29T10:07:33.873Z</time></trkpt><trkpt lat="45.0344557" lon="8.0200122"><ele>212.0</ele><time>2026-03-29T10:07:38.87Z</time></trkpt><trkpt lat="45.0345641" lon="8.02001"><ele>212.0</ele><time>2026-03-29T10:07:43.872Z</time></trkpt><trkpt lat="45.0347503" lon="8.0200092"><ele>212.0</ele><time>2026-03-29T10:07:48.882Z</time></trkpt><trkpt lat="45.034849" lon="8.02001"><ele>212.0</ele><time>2026-03-29T10:07:50.873Z</time></trkpt><trkpt lat="45.0349539" lon="8.0200014"><ele>212.0</ele><time>2026-03-29T10:07:52.894Z</time></trkpt><trkpt lat="45.0350642" lon="8.0199922"><ele>211.39999999999998</ele><time>2026-03-29T10:07:54.882Z</time></trkpt><trkpt lat="45.0351756" lon="8.0199797"><ele>210.79999999999998</ele><time>2026-03-29T10:07:56.876Z</time></trkpt><trkpt lat="45.0352814" lon="8.0199698"><ele>210.2</ele><time>2026-03-29T10:07:58.873Z</time></trkpt><trkpt lat="45.0353712" lon="8.0199704"><ele>209.6</ele><time>2026-03-29T10:08:00.871Z</time></trkpt><trkpt lat="45.0354693" lon="8.0199741"><ele>209.0</ele><time>2026-03-29T10:08:02.881Z</time></trkpt><trkpt lat="45.0355376" lon="8.0199787"><ele>209.39999999999998</ele><time>2026-03-29T10:08:03.876Z</time></trkpt><trkpt lat="45.0356164" lon="8.0199871"><ele>209.8</ele><time>2026-03-29T10:08:04.885Z</time></trkpt><trkpt lat="45.0357057" lon="8.0199981"><ele>210.2</ele><time>2026-03-29T10:08:05.878Z</time></trkpt><trkpt lat="45.0358006" lon="8.0200169"><ele>210.60000000000002</ele><time>2026-03-29T10:08:06.886Z</time></trkpt><trkpt lat="45.0358965" lon="8.0200419"><ele>211.0</ele><time>2026-03-29T10:08:07.876Z</time></trkpt><trkpt lat="45.0359916" lon="8.0200732"><ele>211.4</ele><time>2026-03-29T10:08:08.901Z</time></trkpt><trkpt lat="45.0360849" lon="8.020115"><ele>211.8</ele><time>2026-03-29T10:08:09.875Z</time></trkpt><trkpt lat="45.0361761" lon="8.020161"><ele>212.20000000000002</ele><time>2026-03-29T10:08:10.869Z</time></trkpt><trkpt lat="45.036271" lon="8.0202133"><ele>212.60000000000002</ele><time>2026-03-29T10:08:11.872Z</time></trkpt><trkpt lat="45.0363665" lon="8.0202641"><ele>213.0</ele><time>2026-03-29T10:08:12.868Z</time></trkpt><trkpt lat="45.0364587" lon="8.0203122"><ele>213.0</ele><time>2026-03-29T10:08:13.878Z</time></trkpt><trkpt lat="45.0365501" lon="8.0203609"><ele>213.0</ele><time>2026-03-29T10:08:14.866Z</time></trkpt><trkpt lat="45.0366381" lon="8.0204152"><ele>213.0</ele><time>2026-03-29T10:08:15.894Z</time></trkpt><trkpt lat="45.0367229" lon="8.0204739"><ele>213.0</ele><time>2026-03-29T10:08:16.869Z</time></trkpt><trkpt lat="45.0368047" lon="8.0205315"><ele>213.0</ele><time>2026-03-29T10:08:17.873Z</time></trkpt><trkpt lat="45.0368824" lon="8.0205853"><ele>212.83333333333334</ele><time>2026-03-29T10:08:18.908Z</time></trkpt><trkpt lat="45.0369545" lon="8.0206209"><ele>212.66666666666669</ele><time>2026-03-29T10:08:19.868Z</time></trkpt><trkpt lat="45.0370257" lon="8.0206448"><ele>212.5</ele><time>2026-03-29T10:08:20.871Z</time></trkpt><trkpt lat="45.0371" lon="8.0206647"><ele>212.33333333333334</ele><time>2026-03-29T10:08:21.883Z</time></trkpt><trkpt lat="45.037171" lon="8.0206803"><ele>212.16666666666669</ele><time>2026-03-29T10:08:22.875Z</time></trkpt><trkpt lat="45.0372579" lon="8.020703"><ele>212.0</ele><time>2026-03-29T10:08:23.876Z</time></trkpt><trkpt lat="45.0373447" lon="8.0207271"><ele>212.00000000000003</ele><time>2026-03-29T10:08:24.877Z</time></trkpt><trkpt lat="45.0374367" lon="8.0207526"><ele>212.0</ele><time>2026-03-29T10:08:25.871Z</time></trkpt><trkpt lat="45.0375128" lon="8.0207814"><ele>212.0</ele><time>2026-03-29T10:08:26.869Z</time></trkpt><trkpt lat="45.0375777" lon="8.0208086"><ele>212.0</ele><time>2026-03-29T10:08:27.87Z</time></trkpt><trkpt lat="45.0376857" lon="8.0208319"><ele>212.00000000000003</ele><time>2026-03-29T10:08:29.869Z</time></trkpt><trkpt lat="45.0377481" lon="8.0208438"><ele>212.0</ele><time>2026-03-29T10:08:31.868Z</time></trkpt><trkpt lat="45.0378454" lon="8.0208658"><ele>214.5</ele><time>2026-03-29T10:08:33.869Z</time></trkpt><trkpt lat="45.0380191" lon="8.0208809"><ele>217.0</ele><time>2026-03-29T10:08:38.865Z</time></trkpt><trkpt lat="45.0380449" lon="8.0209728"><ele>219.5</ele><time>2026-03-29T10:08:40.863Z</time></trkpt><trkpt lat="45.0380791" lon="8.0211845"><ele>222.0</ele><time>2026-03-29T10:08:42.866Z</time></trkpt><trkpt lat="45.0381" lon="8.0213332"><ele>222.0</ele><time>2026-03-29T10:08:43.868Z</time></trkpt><trkpt lat="45.0381324" lon="8.0215083"><ele>222.0</ele><time>2026-03-29T10:08:44.871Z</time></trkpt><trkpt lat="45.0381686" lon="8.0216976"><ele>222.0</ele><time>2026-03-29T10:08:45.864Z</time></trkpt><trkpt lat="45.0382105" lon="8.0218997"><ele>222.0</ele><time>2026-03-29T10:08:46.871Z</time></trkpt><trkpt lat="45.038252" lon="8.0221003"><ele>226.0</ele><time>2026-03-29T10:08:47.869Z</time></trkpt><trkpt lat="45.0382924" lon="8.022301"><ele>230.0</ele><time>2026-03-29T10:08:48.865Z</time></trkpt><trkpt lat="45.0383348" lon="8.022504"><ele>234.0</ele><time>2026-03-29T10:08:49.863Z</time></trkpt><trkpt lat="45.0383791" lon="8.022717"><ele>234.0</ele><time>2026-03-29T10:08:50.868Z</time></trkpt><trkpt lat="45.0384254" lon="8.0229428"><ele>234.0</ele><time>2026-03-29T10:08:51.866Z</time></trkpt><trkpt lat="45.0384698" lon="8.0231736"><ele>234.0</ele><time>2026-03-29T10:08:52.877Z</time></trkpt><trkpt lat="45.0385106" lon="8.0233959"><ele>237.5</ele><time>2026-03-29T10:08:53.874Z</time></trkpt><trkpt lat="45.0385485" lon="8.0236124"><ele>241.0</ele><time>2026-03-29T10:08:54.865Z</time></trkpt><trkpt lat="45.0385805" lon="8.0238106"><ele>244.5</ele><time>2026-03-29T10:08:55.872Z</time></trkpt><trkpt lat="45.0386115" lon="8.0239984"><ele>248.0</ele><time>2026-03-29T10:08:56.863Z</time></trkpt><trkpt lat="45.0386549" lon="8.0241885"><ele>250.33333333333334</ele><time>2026-03-29T10:08:57.866Z</time></trkpt><trkpt lat="45.038708" lon="8.0243846"><ele>252.66666666666669</ele><time>2026-03-29T10:08:58.864Z</time></trkpt><trkpt lat="45.0387772" lon="8.0245953"><ele>255.0</ele><time>2026-03-29T10:08:59.864Z</time></trkpt><trkpt lat="45.0388598" lon="8.024816"><ele>251.66666666666669</ele><time>2026-03-29T10:09:00.872Z</time></trkpt><trkpt lat="45.0389513" lon="8.0250448"><ele>248.33333333333334</ele><time>2026-03-29T10:09:01.864Z</time></trkpt><trkpt lat="45.0390505" lon="8.0252655"><ele>245.0</ele><time>2026-03-29T10:09:02.865Z</time></trkpt><trkpt lat="45.0391355" lon="8.0254791"><ele>245.0</ele><time>2026-03-29T10:09:03.862Z</time></trkpt><trkpt lat="45.0392092" lon="8.0256937"><ele>245.0</ele><time>2026-03-29T10:09:04.869Z</time></trkpt><trkpt lat="45.0392656" lon="8.0259074"><ele>245.0</ele><time>2026-03-29T10:09:05.864Z</time></trkpt><trkpt lat="45.0392674" lon="8.026125"><ele>241.66666666666669</ele><time>2026-03-29T10:09:06.868Z</time></trkpt><trkpt lat="45.0392479" lon="8.0263443"><ele>238.33333333333331</ele><time>2026-03-29T10:09:07.879Z</time></trkpt><trkpt lat="45.0391984" lon="8.0265848"><ele>235.0</ele><time>2026-03-29T10:09:08.865Z</time></trkpt><trkpt lat="45.0391244" lon="8.0268313"><ele>235.0</ele><time>2026-03-29T10:09:09.86Z</time></trkpt><trkpt lat="45.0390446" lon="8.0270745"><ele>235.0</ele><time>2026-03-29T10:09:10.862Z</time></trkpt><trkpt lat="45.0389505" lon="8.027316"><ele>235.0</ele><time>2026-03-29T10:09:11.864Z</time></trkpt><trkpt lat="45.0388622" lon="8.0275596"><ele>233.0</ele><time>2026-03-29T10:09:12.869Z</time></trkpt><trkpt lat="45.0387838" lon="8.0278123"><ele>231.0</ele><time>2026-03-29T10:09:13.863Z</time></trkpt><trkpt lat="45.0387262" lon="8.0280663"><ele>229.0</ele><time>2026-03-29T10:09:14.864Z</time></trkpt><trkpt lat="45.0386941" lon="8.0283256"><ele>225.0</ele><time>2026-03-29T10:09:15.873Z</time></trkpt><trkpt lat="45.03868" lon="8.028595"><ele>221.0</ele><time>2026-03-29T10:09:16.871Z</time></trkpt><trkpt lat="45.0386811" lon="8.0288611"><ele>217.0</ele><time>2026-03-29T10:09:17.865Z</time></trkpt><trkpt lat="45.0386891" lon="8.0291071"><ele>215.33333333333331</ele><time>2026-03-29T10:09:18.869Z</time></trkpt><trkpt lat="45.0386978" lon="8.0293408"><ele>213.66666666666669</ele><time>2026-03-29T10:09:19.869Z</time></trkpt><trkpt lat="45.0387031" lon="8.0295584"><ele>212.0</ele><time>2026-03-29T10:09:20.864Z</time></trkpt><trkpt lat="45.0387091" lon="8.0297608"><ele>212.0</ele><time>2026-03-29T10:09:21.873Z</time></trkpt><trkpt lat="45.0387265" lon="8.0299434"><ele>212.0</ele><time>2026-03-29T10:09:22.893Z</time></trkpt><trkpt lat="45.0387537" lon="8.0301133"><ele>212.0</ele><time>2026-03-29T10:09:23.863Z</time></trkpt><trkpt lat="45.0388045" lon="8.0302716"><ele>212.0</ele><time>2026-03-29T10:09:24.866Z</time></trkpt><trkpt lat="45.0388779" lon="8.0304205"><ele>212.66666666666669</ele><time>2026-03-29T10:09:25.864Z</time></trkpt><trkpt lat="45.0389715" lon="8.0305683"><ele>213.33333333333331</ele><time>2026-03-29T10:09:26.863Z</time></trkpt><trkpt lat="45.039083" lon="8.0307221"><ele>214.0</ele><time>2026-03-29T10:09:27.919Z</time></trkpt><trkpt lat="45.039208" lon="8.0308893"><ele>214.66666666666666</ele><time>2026-03-29T10:09:28.87Z</time></trkpt><trkpt lat="45.0393392" lon="8.0310723"><ele>215.33333333333331</ele><time>2026-03-29T10:09:29.865Z</time></trkpt><trkpt lat="45.0394758" lon="8.0312717"><ele>216.0</ele><time>2026-03-29T10:09:30.867Z</time></trkpt><trkpt lat="45.0396143" lon="8.031488"><ele>215.66666666666669</ele><time>2026-03-29T10:09:31.87Z</time></trkpt><trkpt lat="45.0397518" lon="8.0317176"><ele>215.33333333333334</ele><time>2026-03-29T10:09:32.868Z</time></trkpt><trkpt lat="45.039888" lon="8.0319638"><ele>215.0</ele><time>2026-03-29T10:09:33.876Z</time></trkpt><trkpt lat="45.0400247" lon="8.0322141"><ele>216.33333333333334</ele><time>2026-03-29T10:09:34.867Z</time></trkpt><trkpt lat="45.0401574" lon="8.0324592"><ele>217.66666666666669</ele><time>2026-03-29T10:09:35.865Z</time></trkpt><trkpt lat="45.0402887" lon="8.032699"><ele>219.0</ele><time>2026-03-29T10:09:36.865Z</time></trkpt><trkpt lat="45.0404172" lon="8.0329335"><ele>219.0</ele><time>2026-03-29T10:09:37.862Z</time></trkpt><trkpt lat="45.040545" lon="8.0331675"><ele>219.0</ele><time>2026-03-29T10:09:38.873Z</time></trkpt><trkpt lat="45.040672" lon="8.0334036"><ele>219.0</ele><time>2026-03-29T10:09:39.892Z</time></trkpt><trkpt lat="45.0407981" lon="8.0336362"><ele>220.0</ele><time>2026-03-29T10:09:40.862Z</time></trkpt><trkpt lat="45.0409207" lon="8.0338627"><ele>221.0</ele><time>2026-03-29T10:09:41.867Z</time></trkpt><trkpt lat="45.0410363" lon="8.0340769"><ele>222.0</ele><time>2026-03-29T10:09:42.864Z</time></trkpt><trkpt lat="45.0411466" lon="8.0342794"><ele>219.33333333333331</ele><time>2026-03-29T10:09:43.863Z</time></trkpt><trkpt lat="45.0412457" lon="8.0344655"><ele>216.66666666666666</ele><time>2026-03-29T10:09:44.863Z</time></trkpt><trkpt lat="45.041327" lon="8.0346486"><ele>214.0</ele><time>2026-03-29T10:09:45.867Z</time></trkpt><trkpt lat="45.0413875" lon="8.0348357"><ele>214.0</ele><time>2026-03-29T10:09:46.859Z</time></trkpt><trkpt lat="45.0414147" lon="8.0350294"><ele>214.0</ele><time>2026-03-29T10:09:47.865Z</time></trkpt><trkpt lat="45.0414102" lon="8.0352406"><ele>214.0</ele><time>2026-03-29T10:09:48.861Z</time></trkpt><trkpt lat="45.0413776" lon="8.0354449"><ele>214.0</ele><time>2026-03-29T10:09:49.871Z</time></trkpt><trkpt lat="45.0413045" lon="8.0356345"><ele>214.33333333333331</ele><time>2026-03-29T10:09:50.869Z</time></trkpt><trkpt lat="45.0412314" lon="8.035828"><ele>214.66666666666669</ele><time>2026-03-29T10:09:51.865Z</time></trkpt><trkpt lat="45.0411792" lon="8.0360263"><ele>215.0</ele><time>2026-03-29T10:09:52.863Z</time></trkpt><trkpt lat="45.0411519" lon="8.0362309"><ele>215.0</ele><time>2026-03-29T10:09:53.863Z</time></trkpt><trkpt lat="45.0411577" lon="8.0364375"><ele>215.0</ele><time>2026-03-29T10:09:54.86Z</time></trkpt><trkpt lat="45.0411833" lon="8.0366485"><ele>215.0</ele><time>2026-03-29T10:09:55.868Z</time></trkpt><trkpt lat="45.0412337" lon="8.0368515"><ele>215.0</ele><time>2026-03-29T10:09:56.864Z</time></trkpt><trkpt lat="45.0413026" lon="8.0370443"><ele>215.0</ele><time>2026-03-29T10:09:57.868Z</time></trkpt><trkpt lat="45.041385" lon="8.0372294"><ele>215.0</ele><time>2026-03-29T10:09:58.866Z</time></trkpt><trkpt lat="45.0414703" lon="8.037405"><ele>215.0</ele><time>2026-03-29T10:09:59.867Z</time></trkpt><trkpt lat="45.0415529" lon="8.0375758"><ele>215.75</ele><time>2026-03-29T10:10:00.864Z</time></trkpt><trkpt lat="45.0416353" lon="8.0377366"><ele>216.5</ele><time>2026-03-29T10:10:01.862Z</time></trkpt><trkpt lat="45.0417127" lon="8.0378863"><ele>217.25</ele><time>2026-03-29T10:10:02.867Z</time></trkpt><trkpt lat="45.0417823" lon="8.0380285"><ele>218.0</ele><time>2026-03-29T10:10:03.865Z</time></trkpt><trkpt lat="45.0418428" lon="8.0381615"><ele>218.0</ele><time>2026-03-29T10:10:04.862Z</time></trkpt><trkpt lat="45.0419005" lon="8.0382865"><ele>218.0</ele><time>2026-03-29T10:10:05.871Z</time></trkpt><trkpt lat="45.0419541" lon="8.0384084"><ele>218.0</ele><time>2026-03-29T10:10:06.864Z</time></trkpt><trkpt lat="45.0420135" lon="8.0385328"><ele>218.0</ele><time>2026-03-29T10:10:07.866Z</time></trkpt><trkpt lat="45.0420723" lon="8.0386648"><ele>218.0</ele><time>2026-03-29T10:10:08.878Z</time></trkpt><trkpt lat="45.0421357" lon="8.0388087"><ele>218.75</ele><time>2026-03-29T10:10:09.902Z</time></trkpt><trkpt lat="45.0422048" lon="8.0389565"><ele>219.5</ele><time>2026-03-29T10:10:10.864Z</time></trkpt><trkpt lat="45.0422785" lon="8.0391081"><ele>220.25</ele><time>2026-03-29T10:10:11.872Z</time></trkpt><trkpt lat="45.0423541" lon="8.0392631"><ele>221.0</ele><time>2026-03-29T10:10:12.866Z</time></trkpt><trkpt lat="45.0424284" lon="8.0394212"><ele>221.75</ele><time>2026-03-29T10:10:13.87Z</time></trkpt><trkpt lat="45.042502" lon="8.0395827"><ele>222.5</ele><time>2026-03-29T10:10:14.873Z</time></trkpt><trkpt lat="45.0425772" lon="8.0397501"><ele>223.25</ele><time>2026-03-29T10:10:15.875Z</time></trkpt><trkpt lat="45.0426514" lon="8.0399235"><ele>224.0</ele><time>2026-03-29T10:10:16.868Z</time></trkpt><trkpt lat="45.0427322" lon="8.0401004"><ele>224.0</ele><time>2026-03-29T10:10:17.867Z</time></trkpt><trkpt lat="45.0428136" lon="8.0402772"><ele>224.0</ele><time>2026-03-29T10:10:18.864Z</time></trkpt><trkpt lat="45.0428881" lon="8.0404462"><ele>224.0</ele><time>2026-03-29T10:10:19.871Z</time></trkpt><trkpt lat="45.0429611" lon="8.040604"><ele>224.0</ele><time>2026-03-29T10:10:20.874Z</time></trkpt><trkpt lat="45.0430262" lon="8.0407504"><ele>224.0</ele><time>2026-03-29T10:10:21.867Z</time></trkpt><trkpt lat="45.0430841" lon="8.0408785"><ele>223.99999999999997</ele><time>2026-03-29T10:10:22.865Z</time></trkpt><trkpt lat="45.0431298" lon="8.0409875"><ele>223.99999999999997</ele><time>2026-03-29T10:10:23.867Z</time></trkpt><trkpt lat="45.0431786" lon="8.0411118"><ele>224.0</ele><time>2026-03-29T10:10:25.87Z</time></trkpt><trkpt lat="45.0431265" lon="8.0412373"><ele>224.0</ele><time>2026-03-29T10:10:31.871Z</time></trkpt><trkpt lat="45.0430824" lon="8.04133"><ele>224.0</ele><time>2026-03-29T10:10:32.87Z</time></trkpt><trkpt lat="45.0430315" lon="8.0414435"><ele>223.99999999999997</ele><time>2026-03-29T10:10:33.874Z</time></trkpt><trkpt lat="45.0429872" lon="8.0415682"><ele>223.99999999999997</ele><time>2026-03-29T10:10:34.864Z</time></trkpt><trkpt lat="45.0429668" lon="8.0417091"><ele>224.0</ele><time>2026-03-29T10:10:35.869Z</time></trkpt><trkpt lat="45.0429784" lon="8.0418773"><ele>224.0</ele><time>2026-03-29T10:10:36.862Z</time></trkpt><trkpt lat="45.043" lon="8.042038"><ele>224.75</ele><time>2026-03-29T10:10:37.877Z</time></trkpt><trkpt lat="45.0430419" lon="8.0422001"><ele>225.5</ele><time>2026-03-29T10:10:38.872Z</time></trkpt><trkpt lat="45.0431048" lon="8.0423607"><ele>226.25</ele><time>2026-03-29T10:10:39.871Z</time></trkpt><trkpt lat="45.0431816" lon="8.0425234"><ele>227.0</ele><time>2026-03-29T10:10:40.86Z</time></trkpt><trkpt lat="45.0432828" lon="8.0426939"><ele>228.5</ele><time>2026-03-29T10:10:41.87Z</time></trkpt><trkpt lat="45.0433848" lon="8.0428583"><ele>230.0</ele><time>2026-03-29T10:10:42.863Z</time></trkpt><trkpt lat="45.0434751" lon="8.0430243"><ele>231.5</ele><time>2026-03-29T10:10:43.874Z</time></trkpt><trkpt lat="45.0435571" lon="8.0431753"><ele>233.0</ele><time>2026-03-29T10:10:44.87Z</time></trkpt><trkpt lat="45.0436268" lon="8.0433109"><ele>233.0</ele><time>2026-03-29T10:10:45.862Z</time></trkpt><trkpt lat="45.0436854" lon="8.0434277"><ele>233.0</ele><time>2026-03-29T10:10:46.87Z</time></trkpt><trkpt lat="45.0437337" lon="8.0435219"><ele>233.0</ele><time>2026-03-29T10:10:47.859Z</time></trkpt><trkpt lat="45.0437696" lon="8.0436052"><ele>233.0</ele><time>2026-03-29T10:10:48.868Z</time></trkpt><trkpt lat="45.04387" lon="8.0437242"><ele>233.0</ele><time>2026-03-29T10:10:50.864Z</time></trkpt><trkpt lat="45.0439479" lon="8.0437699"><ele>233.0</ele><time>2026-03-29T10:10:51.863Z</time></trkpt><trkpt lat="45.0440508" lon="8.0438108"><ele>233.0</ele><time>2026-03-29T10:10:52.865Z</time></trkpt><trkpt lat="45.0441651" lon="8.0438622"><ele>233.0</ele><time>2026-03-29T10:10:53.865Z</time></trkpt><trkpt lat="45.0442832" lon="8.0439596"><ele>233.0</ele><time>2026-03-29T10:10:54.86Z</time></trkpt><trkpt lat="45.0443909" lon="8.0440877"><ele>235.66666666666669</ele><time>2026-03-29T10:10:55.871Z</time></trkpt><trkpt lat="45.0444868" lon="8.0442545"><ele>238.33333333333331</ele><time>2026-03-29T10:10:56.878Z</time></trkpt><trkpt lat="45.0445687" lon="8.0444521"><ele>241.0</ele><time>2026-03-29T10:10:57.864Z</time></trkpt><trkpt lat="45.0446505" lon="8.04466"><ele>241.0</ele><time>2026-03-29T10:10:58.872Z</time></trkpt><trkpt lat="45.0447368" lon="8.0448872"><ele>241.0</ele><time>2026-03-29T10:10:59.862Z</time></trkpt><trkpt lat="45.0448079" lon="8.0451396"><ele>241.0</ele><time>2026-03-29T10:11:00.869Z</time></trkpt><trkpt lat="45.0448835" lon="8.0453809"><ele>241.66666666666666</ele><time>2026-03-29T10:11:01.866Z</time></trkpt><trkpt lat="45.0449594" lon="8.0456157"><ele>242.33333333333331</ele><time>2026-03-29T10:11:02.896Z</time></trkpt><trkpt lat="45.0450333" lon="8.0458333"><ele>243.0</ele><time>2026-03-29T10:11:03.863Z</time></trkpt><trkpt lat="45.0451015" lon="8.0460345"><ele>244.0</ele><time>2026-03-29T10:11:04.871Z</time></trkpt><trkpt lat="45.0451658" lon="8.0462161"><ele>245.0</ele><time>2026-03-29T10:11:05.864Z</time></trkpt><trkpt lat="45.0452384" lon="8.0463836"><ele>246.0</ele><time>2026-03-29T10:11:06.866Z</time></trkpt><trkpt lat="45.0453312" lon="8.0465279"><ele>247.0</ele><time>2026-03-29T10:11:07.865Z</time></trkpt><trkpt lat="45.0454259" lon="8.0466631"><ele>247.5</ele><time>2026-03-29T10:11:08.863Z</time></trkpt><trkpt lat="45.0455377" lon="8.0467629"><ele>248.0</ele><time>2026-03-29T10:11:09.874Z</time></trkpt><trkpt lat="45.0456557" lon="8.0468287"><ele>248.5</ele><time>2026-03-29T10:11:10.863Z</time></trkpt><trkpt lat="45.0457972" lon="8.046826"><ele>249.0</ele><time>2026-03-29T10:11:11.86Z</time></trkpt><trkpt lat="45.0459413" lon="8.0467978"><ele>249.0</ele><time>2026-03-29T10:11:12.863Z</time></trkpt><trkpt lat="45.04608" lon="8.046759"><ele>249.0</ele><time>2026-03-29T10:11:13.865Z</time></trkpt><trkpt lat="45.0462361" lon="8.0467146"><ele>249.0</ele><time>2026-03-29T10:11:14.864Z</time></trkpt><trkpt lat="45.0463909" lon="8.0467309"><ele>249.0</ele><time>2026-03-29T10:11:15.877Z</time></trkpt><trkpt lat="45.0465416" lon="8.0467786"><ele>249.0</ele><time>2026-03-29T10:11:16.867Z</time></trkpt><trkpt lat="45.0466848" lon="8.0468569"><ele>249.0</ele><time>2026-03-29T10:11:17.869Z</time></trkpt><trkpt lat="45.0468233" lon="8.0469956"><ele>250.33333333333331</ele><time>2026-03-29T10:11:18.865Z</time></trkpt><trkpt lat="45.0469453" lon="8.0471679"><ele>251.66666666666666</ele><time>2026-03-29T10:11:19.87Z</time></trkpt><trkpt lat="45.0470597" lon="8.0473422"><ele>253.0</ele><time>2026-03-29T10:11:20.871Z</time></trkpt><trkpt lat="45.0471556" lon="8.0475048"><ele>255.75</ele><time>2026-03-29T10:11:21.865Z</time></trkpt><trkpt lat="45.0472349" lon="8.0476609"><ele>258.5</ele><time>2026-03-29T10:11:22.862Z</time></trkpt><trkpt lat="45.0473082" lon="8.0478367"><ele>261.25</ele><time>2026-03-29T10:11:23.862Z</time></trkpt><trkpt lat="45.047384" lon="8.0480255"><ele>264.0</ele><time>2026-03-29T10:11:24.863Z</time></trkpt><trkpt lat="45.0474454" lon="8.0482359"><ele>266.0</ele><time>2026-03-29T10:11:25.875Z</time></trkpt><trkpt lat="45.0475081" lon="8.0484455"><ele>268.0</ele><time>2026-03-29T10:11:26.868Z</time></trkpt><trkpt lat="45.047564" lon="8.0486375"><ele>270.0</ele><time>2026-03-29T10:11:27.869Z</time></trkpt><trkpt lat="45.0476123" lon="8.0488101"><ele>272.0</ele><time>2026-03-29T10:11:28.865Z</time></trkpt><trkpt lat="45.0476625" lon="8.0489537"><ele>272.0</ele><time>2026-03-29T10:11:29.868Z</time></trkpt><trkpt lat="45.0477241" lon="8.0490647"><ele>272.0</ele><time>2026-03-29T10:11:30.866Z</time></trkpt><trkpt lat="45.0478001" lon="8.0491294"><ele>272.0</ele><time>2026-03-29T10:11:31.864Z</time></trkpt><trkpt lat="45.0478903" lon="8.0491318"><ele>272.0</ele><time>2026-03-29T10:11:32.864Z</time></trkpt><trkpt lat="45.0479957" lon="8.0490683"><ele>272.0</ele><time>2026-03-29T10:11:33.863Z</time></trkpt><trkpt lat="45.0480871" lon="8.0489705"><ele>272.0</ele><time>2026-03-29T10:11:34.863Z</time></trkpt><trkpt lat="45.0481703" lon="8.0488346"><ele>272.0</ele><time>2026-03-29T10:11:35.864Z</time></trkpt><trkpt lat="45.0482446" lon="8.0486688"><ele>272.0</ele><time>2026-03-29T10:11:36.865Z</time></trkpt><trkpt lat="45.0483095" lon="8.0484891"><ele>272.0</ele><time>2026-03-29T10:11:37.869Z</time></trkpt><trkpt lat="45.0483691" lon="8.0483381"><ele>269.8</ele><time>2026-03-29T10:11:38.871Z</time></trkpt><trkpt lat="45.0484324" lon="8.0482185"><ele>267.6</ele><time>2026-03-29T10:11:39.863Z</time></trkpt><trkpt lat="45.0485045" lon="8.0481438"><ele>265.40000000000003</ele><time>2026-03-29T10:11:40.869Z</time></trkpt><trkpt lat="45.048597" lon="8.0480944"><ele>263.2</ele><time>2026-03-29T10:11:41.863Z</time></trkpt><trkpt lat="45.048694" lon="8.0480786"><ele>261.0</ele><time>2026-03-29T10:11:42.863Z</time></trkpt><trkpt lat="45.0488043" lon="8.0480841"><ele>261.0</ele><time>2026-03-29T10:11:43.866Z</time></trkpt><trkpt lat="45.048938" lon="8.048109"><ele>261.0</ele><time>2026-03-29T10:11:44.865Z</time></trkpt><trkpt lat="45.0491177" lon="8.0481818"><ele>261.0</ele><time>2026-03-29T10:11:45.863Z</time></trkpt><trkpt lat="45.0492651" lon="8.0482357"><ele>263.75</ele><time>2026-03-29T10:11:46.864Z</time></trkpt><trkpt lat="45.0494127" lon="8.0482914"><ele>266.5</ele><time>2026-03-29T10:11:47.877Z</time></trkpt><trkpt lat="45.049559" lon="8.0483397"><ele>269.25</ele><time>2026-03-29T10:11:48.86Z</time></trkpt><trkpt lat="45.0496817" lon="8.0483916"><ele>272.0</ele><time>2026-03-29T10:11:49.868Z</time></trkpt><trkpt lat="45.0497942" lon="8.0484501"><ele>274.0</ele><time>2026-03-29T10:11:50.867Z</time></trkpt><trkpt lat="45.0498856" lon="8.0485186"><ele>276.0</ele><time>2026-03-29T10:11:51.863Z</time></trkpt><trkpt lat="45.0499889" lon="8.0486236"><ele>278.0</ele><time>2026-03-29T10:11:52.874Z</time></trkpt><trkpt lat="45.0500739" lon="8.0487529"><ele>280.0</ele><time>2026-03-29T10:11:53.866Z</time></trkpt><trkpt lat="45.0501584" lon="8.0489022"><ele>280.5</ele><time>2026-03-29T10:11:54.863Z</time></trkpt><trkpt lat="45.0502511" lon="8.0490539"><ele>281.0</ele><time>2026-03-29T10:11:55.864Z</time></trkpt><trkpt lat="45.0503473" lon="8.0491983"><ele>281.5</ele><time>2026-03-29T10:11:56.863Z</time></trkpt><trkpt lat="45.0504496" lon="8.049324"><ele>282.0</ele><time>2026-03-29T10:11:57.864Z</time></trkpt><trkpt lat="45.0505542" lon="8.0494267"><ele>285.0</ele><time>2026-03-29T10:11:58.867Z</time></trkpt><trkpt lat="45.0506586" lon="8.0495058"><ele>288.0</ele><time>2026-03-29T10:11:59.863Z</time></trkpt><trkpt lat="45.0507589" lon="8.0495691"><ele>291.0</ele><time>2026-03-29T10:12:00.865Z</time></trkpt><trkpt lat="45.0508666" lon="8.0495912"><ele>294.0</ele><time>2026-03-29T10:12:01.866Z</time></trkpt><trkpt lat="45.050985" lon="8.0495718"><ele>294.25</ele><time>2026-03-29T10:12:02.862Z</time></trkpt><trkpt lat="45.0511" lon="8.049537"><ele>294.5</ele><time>2026-03-29T10:12:03.867Z</time></trkpt><trkpt lat="45.0512212" lon="8.0494803"><ele>294.75</ele><time>2026-03-29T10:12:04.874Z</time></trkpt><trkpt lat="45.051333" lon="8.0494041"><ele>295.0</ele><time>2026-03-29T10:12:05.869Z</time></trkpt><trkpt lat="45.0514374" lon="8.0493301"><ele>295.0</ele><time>2026-03-29T10:12:06.869Z</time></trkpt><trkpt lat="45.0515366" lon="8.0492612"><ele>295.0</ele><time>2026-03-29T10:12:07.866Z</time></trkpt><trkpt lat="45.05164" lon="8.0491923"><ele>295.0</ele><time>2026-03-29T10:12:08.863Z</time></trkpt><trkpt lat="45.0517478" lon="8.0491293"><ele>295.0</ele><time>2026-03-29T10:12:09.868Z</time></trkpt><trkpt lat="45.0518505" lon="8.0490658"><ele>294.8</ele><time>2026-03-29T10:12:10.886Z</time></trkpt><trkpt lat="45.0519529" lon="8.0490018"><ele>294.6</ele><time>2026-03-29T10:12:11.874Z</time></trkpt><trkpt lat="45.0520616" lon="8.0489347"><ele>294.4</ele><time>2026-03-29T10:12:12.869Z</time></trkpt><trkpt lat="45.0521624" lon="8.0488735"><ele>294.2</ele><time>2026-03-29T10:12:13.868Z</time></trkpt><trkpt lat="45.0522578" lon="8.0488096"><ele>294.0</ele><time>2026-03-29T10:12:14.862Z</time></trkpt><trkpt lat="45.0523494" lon="8.0487509"><ele>294.0</ele><time>2026-03-29T10:12:15.866Z</time></trkpt><trkpt lat="45.0524387" lon="8.0486939"><ele>294.0</ele><time>2026-03-29T10:12:16.87Z</time></trkpt><trkpt lat="45.0525275" lon="8.04864"><ele>294.0</ele><time>2026-03-29T10:12:17.876Z</time></trkpt><trkpt lat="45.0526195" lon="8.0485932"><ele>294.0</ele><time>2026-03-29T10:12:18.872Z</time></trkpt><trkpt lat="45.0527107" lon="8.0485366"><ele>294.0</ele><time>2026-03-29T10:12:19.864Z</time></trkpt><trkpt lat="45.0528094" lon="8.0484845"><ele>296.8</ele><time>2026-03-29T10:12:20.862Z</time></trkpt><trkpt lat="45.052905" lon="8.0484535"><ele>299.59999999999997</ele><time>2026-03-29T10:12:21.862Z</time></trkpt><trkpt lat="45.0529951" lon="8.0484228"><ele>302.4</ele><time>2026-03-29T10:12:22.882Z</time></trkpt><trkpt lat="45.053059" lon="8.048406"><ele>305.2</ele><time>2026-03-29T10:12:23.886Z</time></trkpt><trkpt lat="45.0531891" lon="8.0484918"><ele>308.0</ele><time>2026-03-29T10:12:25.868Z</time></trkpt><trkpt lat="45.0532913" lon="8.0485675"><ele>309.4</ele><time>2026-03-29T10:12:26.863Z</time></trkpt><trkpt lat="45.0533712" lon="8.0486125"><ele>310.8</ele><time>2026-03-29T10:12:27.864Z</time></trkpt><trkpt lat="45.0534638" lon="8.0486722"><ele>312.2</ele><time>2026-03-29T10:12:29.866Z</time></trkpt><trkpt lat="45.0535614" lon="8.0487781"><ele>313.6</ele><time>2026-03-29T10:12:31.863Z</time></trkpt><trkpt lat="45.053625" lon="8.0488462"><ele>315.0</ele><time>2026-03-29T10:12:32.867Z</time></trkpt><trkpt lat="45.0536755" lon="8.0489367"><ele>315.0</ele><time>2026-03-29T10:12:33.866Z</time></trkpt><trkpt lat="45.0537509" lon="8.0490598"><ele>315.0</ele><time>2026-03-29T10:12:34.869Z</time></trkpt><trkpt lat="45.0538134" lon="8.049171"><ele>315.0</ele><time>2026-03-29T10:12:35.867Z</time></trkpt><trkpt lat="45.0538835" lon="8.049262"><ele>315.0</ele><time>2026-03-29T10:12:36.865Z</time></trkpt><trkpt lat="45.0539506" lon="8.0493729"><ele>315.0</ele><time>2026-03-29T10:12:37.86Z</time></trkpt><trkpt lat="45.0540137" lon="8.0494877"><ele>315.2</ele><time>2026-03-29T10:12:38.869Z</time></trkpt><trkpt lat="45.0540862" lon="8.0495737"><ele>315.4</ele><time>2026-03-29T10:12:39.867Z</time></trkpt><trkpt lat="45.0541536" lon="8.0496472"><ele>315.6</ele><time>2026-03-29T10:12:40.866Z</time></trkpt><trkpt lat="45.0542084" lon="8.04972"><ele>315.8</ele><time>2026-03-29T10:12:41.865Z</time></trkpt><trkpt lat="45.0542371" lon="8.0498641"><ele>316.0</ele><time>2026-03-29T10:12:43.867Z</time></trkpt><trkpt lat="45.0542218" lon="8.0500533"><ele>313.6</ele><time>2026-03-29T10:12:45.864Z</time></trkpt><trkpt lat="45.0542218" lon="8.0501822"><ele>311.20000000000005</ele><time>2026-03-29T10:12:46.868Z</time></trkpt><trkpt lat="45.0542232" lon="8.0503257"><ele>308.79999999999995</ele><time>2026-03-29T10:12:47.864Z</time></trkpt><trkpt lat="45.0542206" lon="8.0504728"><ele>306.4</ele><time>2026-03-29T10:12:48.866Z</time></trkpt><trkpt lat="45.0542104" lon="8.0506094"><ele>304.0</ele><time>2026-03-29T10:12:49.863Z</time></trkpt><trkpt lat="45.0541929" lon="8.0507303"><ele>303.16666666666663</ele><time>2026-03-29T10:12:50.867Z</time></trkpt><trkpt lat="45.0541607" lon="8.050828"><ele>302.3333333333333</ele><time>2026-03-29T10:12:51.865Z</time></trkpt><trkpt lat="45.0541151" lon="8.0508986"><ele>301.5</ele><time>2026-03-29T10:12:52.862Z</time></trkpt><trkpt lat="45.0540541" lon="8.0509263"><ele>300.6666666666667</ele><time>2026-03-29T10:12:53.864Z</time></trkpt><trkpt lat="45.0539876" lon="8.0509164"><ele>299.83333333333337</ele><time>2026-03-29T10:12:54.867Z</time></trkpt><trkpt lat="45.0539338" lon="8.0508609"><ele>299.0</ele><time>2026-03-29T10:12:55.865Z</time></trkpt><trkpt lat="45.053932" lon="8.0506798"><ele>297.83333333333337</ele><time>2026-03-29T10:12:57.865Z</time></trkpt><trkpt lat="45.0539622" lon="8.0505564"><ele>296.6666666666667</ele><time>2026-03-29T10:12:58.863Z</time></trkpt><trkpt lat="45.0539976" lon="8.0504482"><ele>295.5</ele><time>2026-03-29T10:12:59.871Z</time></trkpt><trkpt lat="45.0540199" lon="8.0503429"><ele>294.3333333333333</ele><time>2026-03-29T10:13:00.862Z</time></trkpt><trkpt lat="45.0540194" lon="8.050252"><ele>293.16666666666663</ele><time>2026-03-29T10:13:01.865Z</time></trkpt><trkpt lat="45.0539814" lon="8.0501788"><ele>292.0</ele><time>2026-03-29T10:13:02.864Z</time></trkpt><trkpt lat="45.0539103" lon="8.0501469"><ele>292.0</ele><time>2026-03-29T10:13:03.863Z</time></trkpt><trkpt lat="45.0538326" lon="8.0501572"><ele>292.0</ele><time>2026-03-29T10:13:04.868Z</time></trkpt><trkpt lat="45.0537575" lon="8.0502239"><ele>292.0</ele><time>2026-03-29T10:13:05.863Z</time></trkpt><trkpt lat="45.0537004" lon="8.0503378"><ele>292.0</ele><time>2026-03-29T10:13:06.862Z</time></trkpt><trkpt lat="45.0536621" lon="8.0504812"><ele>292.0</ele><time>2026-03-29T10:13:07.868Z</time></trkpt><trkpt lat="45.0536346" lon="8.0506462"><ele>290.0</ele><time>2026-03-29T10:13:08.862Z</time></trkpt><trkpt lat="45.053605" lon="8.0508045"><ele>288.0</ele><time>2026-03-29T10:13:09.865Z</time></trkpt><trkpt lat="45.0535659" lon="8.0509591"><ele>286.0</ele><time>2026-03-29T10:13:10.873Z</time></trkpt><trkpt lat="45.0535236" lon="8.0511049"><ele>284.0</ele><time>2026-03-29T10:13:11.908Z</time></trkpt><trkpt lat="45.0534444" lon="8.0512308"><ele>284.0</ele><time>2026-03-29T10:13:12.859Z</time></trkpt><trkpt lat="45.0533039" lon="8.0513401"><ele>284.0</ele><time>2026-03-29T10:13:13.866Z</time></trkpt><trkpt lat="45.0531368" lon="8.0514257"><ele>284.0</ele><time>2026-03-29T10:13:14.865Z</time></trkpt><trkpt lat="45.0529839" lon="8.051511"><ele>282.6666666666667</ele><time>2026-03-29T10:13:15.87Z</time></trkpt><trkpt lat="45.0528379" lon="8.0516118"><ele>281.3333333333333</ele><time>2026-03-29T10:13:16.868Z</time></trkpt><trkpt lat="45.0526919" lon="8.0517218"><ele>280.0</ele><time>2026-03-29T10:13:17.867Z</time></trkpt><trkpt lat="45.0525586" lon="8.051827"><ele>275.25</ele><time>2026-03-29T10:13:18.865Z</time></trkpt><trkpt lat="45.0524281" lon="8.0519239"><ele>270.5</ele><time>2026-03-29T10:13:19.872Z</time></trkpt><trkpt lat="45.0523119" lon="8.0520179"><ele>265.75</ele><time>2026-03-29T10:13:20.864Z</time></trkpt><trkpt lat="45.0522094" lon="8.0521144"><ele>261.0</ele><time>2026-03-29T10:13:21.869Z</time></trkpt><trkpt lat="45.0521139" lon="8.0522155"><ele>261.0</ele><time>2026-03-29T10:13:22.868Z</time></trkpt><trkpt lat="45.0520317" lon="8.052323"><ele>261.0</ele><time>2026-03-29T10:13:23.868Z</time></trkpt><trkpt lat="45.0519752" lon="8.0524422"><ele>261.0</ele><time>2026-03-29T10:13:24.866Z</time></trkpt><trkpt lat="45.0519324" lon="8.0525703"><ele>261.0</ele><time>2026-03-29T10:13:25.866Z</time></trkpt><trkpt lat="45.0519133" lon="8.0527108"><ele>261.0</ele><time>2026-03-29T10:13:26.9Z</time></trkpt><trkpt lat="45.0519192" lon="8.0528675"><ele>260.25</ele><time>2026-03-29T10:13:27.868Z</time></trkpt><trkpt lat="45.0519535" lon="8.0530517"><ele>259.5</ele><time>2026-03-29T10:13:28.863Z</time></trkpt><trkpt lat="45.0520154" lon="8.0532428"><ele>258.75</ele><time>2026-03-29T10:13:29.865Z</time></trkpt><trkpt lat="45.0520913" lon="8.0534465"><ele>258.0</ele><time>2026-03-29T10:13:30.866Z</time></trkpt><trkpt lat="45.0521698" lon="8.0536757"><ele>257.3333333333333</ele><time>2026-03-29T10:13:31.867Z</time></trkpt><trkpt lat="45.0522488" lon="8.053924"><ele>256.66666666666663</ele><time>2026-03-29T10:13:32.883Z</time></trkpt><trkpt lat="45.0523169" lon="8.0541799"><ele>256.0</ele><time>2026-03-29T10:13:33.866Z</time></trkpt><trkpt lat="45.052389" lon="8.0544324"><ele>258.0</ele><time>2026-03-29T10:13:34.867Z</time></trkpt><trkpt lat="45.0524474" lon="8.0546752"><ele>260.0</ele><time>2026-03-29T10:13:35.873Z</time></trkpt><trkpt lat="45.0524969" lon="8.0549122"><ele>262.0</ele><time>2026-03-29T10:13:36.864Z</time></trkpt><trkpt lat="45.0525439" lon="8.0551364"><ele>262.0</ele><time>2026-03-29T10:13:37.864Z</time></trkpt><trkpt lat="45.0525898" lon="8.0553452"><ele>262.0</ele><time>2026-03-29T10:13:38.863Z</time></trkpt><trkpt lat="45.0526388" lon="8.0555481"><ele>262.0</ele><time>2026-03-29T10:13:39.864Z</time></trkpt><trkpt lat="45.0526934" lon="8.0557493"><ele>259.25</ele><time>2026-03-29T10:13:40.867Z</time></trkpt><trkpt lat="45.0527523" lon="8.0559493"><ele>256.5</ele><time>2026-03-29T10:13:41.867Z</time></trkpt><trkpt lat="45.0528161" lon="8.0561352"><ele>253.75</ele><time>2026-03-29T10:13:42.87Z</time></trkpt><trkpt lat="45.0528819" lon="8.0562986"><ele>251.0</ele><time>2026-03-29T10:13:43.865Z</time></trkpt><trkpt lat="45.05295" lon="8.0564331"><ele>251.0</ele><time>2026-03-29T10:13:44.865Z</time></trkpt><trkpt lat="45.0530212" lon="8.0565371"><ele>251.00000000000003</ele><time>2026-03-29T10:13:45.867Z</time></trkpt><trkpt lat="45.0531041" lon="8.0566045"><ele>251.00000000000003</ele><time>2026-03-29T10:13:46.865Z</time></trkpt><trkpt lat="45.0532028" lon="8.0566421"><ele>251.0</ele><time>2026-03-29T10:13:47.868Z</time></trkpt><trkpt lat="45.0533272" lon="8.0566464"><ele>251.0</ele><time>2026-03-29T10:13:48.873Z</time></trkpt><trkpt lat="45.0534648" lon="8.0566213"><ele>254.33333333333334</ele><time>2026-03-29T10:13:49.861Z</time></trkpt><trkpt lat="45.0536129" lon="8.0565612"><ele>257.6666666666667</ele><time>2026-03-29T10:13:50.864Z</time></trkpt><trkpt lat="45.0537585" lon="8.0564891"><ele>261.0</ele><time>2026-03-29T10:13:51.867Z</time></trkpt><trkpt lat="45.0539016" lon="8.0563925"><ele>261.0</ele><time>2026-03-29T10:13:52.867Z</time></trkpt><trkpt lat="45.0540416" lon="8.0562586"><ele>261.0</ele><time>2026-03-29T10:13:53.876Z</time></trkpt><trkpt lat="45.0541658" lon="8.0561108"><ele>261.0</ele><time>2026-03-29T10:13:54.865Z</time></trkpt><trkpt lat="45.0542957" lon="8.0559652"><ele>259.0</ele><time>2026-03-29T10:13:55.865Z</time></trkpt><trkpt lat="45.0544248" lon="8.0558244"><ele>257.0</ele><time>2026-03-29T10:13:56.864Z</time></trkpt><trkpt lat="45.0545463" lon="8.0556969"><ele>255.0</ele><time>2026-03-29T10:13:57.868Z</time></trkpt><trkpt lat="45.0546264" lon="8.0556141"><ele>253.0</ele><time>2026-03-29T10:13:58.865Z</time></trkpt><trkpt lat="45.054702" lon="8.0555473"><ele>253.0</ele><time>2026-03-29T10:13:59.862Z</time></trkpt><trkpt lat="45.0547778" lon="8.0555436"><ele>253.0</ele><time>2026-03-29T10:14:00.865Z</time></trkpt><trkpt lat="45.0548592" lon="8.0555962"><ele>253.0</ele><time>2026-03-29T10:14:01.867Z</time></trkpt><trkpt lat="45.0549091" lon="8.0556896"><ele>253.0</ele><time>2026-03-29T10:14:02.864Z</time></trkpt><trkpt lat="45.0549449" lon="8.0558238"><ele>253.0</ele><time>2026-03-29T10:14:03.865Z</time></trkpt><trkpt lat="45.0549597" lon="8.0559979"><ele>253.0</ele><time>2026-03-29T10:14:04.868Z</time></trkpt><trkpt lat="45.0549327" lon="8.0562514"><ele>253.0</ele><time>2026-03-29T10:14:05.874Z</time></trkpt><trkpt lat="45.0549329" lon="8.0564853"><ele>253.0</ele><time>2026-03-29T10:14:06.87Z</time></trkpt><trkpt lat="45.054938" lon="8.0567175"><ele>249.0</ele><time>2026-03-29T10:14:07.863Z</time></trkpt><trkpt lat="45.0549355" lon="8.0569672"><ele>245.0</ele><time>2026-03-29T10:14:08.869Z</time></trkpt><trkpt lat="45.0549448" lon="8.0572165"><ele>241.0</ele><time>2026-03-29T10:14:09.866Z</time></trkpt><trkpt lat="45.0549508" lon="8.0574877"><ele>240.33333333333331</ele><time>2026-03-29T10:14:10.863Z</time></trkpt><trkpt lat="45.0549467" lon="8.0577629"><ele>239.66666666666669</ele><time>2026-03-29T10:14:11.864Z</time></trkpt><trkpt lat="45.0549257" lon="8.0580335"><ele>239.0</ele><time>2026-03-29T10:14:12.874Z</time></trkpt><trkpt lat="45.0548827" lon="8.0583012"><ele>237.33333333333334</ele><time>2026-03-29T10:14:13.874Z</time></trkpt><trkpt lat="45.0548266" lon="8.0585723"><ele>235.66666666666669</ele><time>2026-03-29T10:14:14.86Z</time></trkpt><trkpt lat="45.0547717" lon="8.0588465"><ele>234.0</ele><time>2026-03-29T10:14:15.867Z</time></trkpt><trkpt lat="45.0547212" lon="8.0591163"><ele>234.33333333333331</ele><time>2026-03-29T10:14:16.866Z</time></trkpt><trkpt lat="45.0546749" lon="8.059371"><ele>234.66666666666666</ele><time>2026-03-29T10:14:17.863Z</time></trkpt><trkpt lat="45.0546347" lon="8.0596067"><ele>235.0</ele><time>2026-03-29T10:14:18.863Z</time></trkpt><trkpt lat="45.0545977" lon="8.0598179"><ele>236.75</ele><time>2026-03-29T10:14:19.863Z</time></trkpt><trkpt lat="45.0545639" lon="8.0600055"><ele>238.5</ele><time>2026-03-29T10:14:20.875Z</time></trkpt><trkpt lat="45.0545268" lon="8.0601778"><ele>240.25</ele><time>2026-03-29T10:14:21.865Z</time></trkpt><trkpt lat="45.0544735" lon="8.0603211"><ele>242.0</ele><time>2026-03-29T10:14:22.867Z</time></trkpt><trkpt lat="45.0544046" lon="8.0604312"><ele>242.0</ele><time>2026-03-29T10:14:23.867Z</time></trkpt><trkpt lat="45.0543096" lon="8.060531"><ele>242.0</ele><time>2026-03-29T10:14:24.868Z</time></trkpt><trkpt lat="45.054214" lon="8.0606008"><ele>242.0</ele><time>2026-03-29T10:14:25.873Z</time></trkpt><trkpt lat="45.0540894" lon="8.0606316"><ele>242.0</ele><time>2026-03-29T10:14:26.869Z</time></trkpt><trkpt lat="45.053933" lon="8.0606144"><ele>243.0</ele><time>2026-03-29T10:14:27.862Z</time></trkpt><trkpt lat="45.0537603" lon="8.0605735"><ele>244.0</ele><time>2026-03-29T10:14:28.867Z</time></trkpt><trkpt lat="45.0535771" lon="8.0605141"><ele>245.0</ele><time>2026-03-29T10:14:29.862Z</time></trkpt><trkpt lat="45.053408" lon="8.0604502"><ele>244.6</ele><time>2026-03-29T10:14:30.873Z</time></trkpt><trkpt lat="45.0532632" lon="8.0604007"><ele>244.2</ele><time>2026-03-29T10:14:31.87Z</time></trkpt><trkpt lat="45.0531456" lon="8.060371"><ele>243.8</ele><time>2026-03-29T10:14:32.865Z</time></trkpt><trkpt lat="45.0530532" lon="8.0603635"><ele>243.4</ele><time>2026-03-29T10:14:33.866Z</time></trkpt><trkpt lat="45.0529863" lon="8.060397"><ele>243.0</ele><time>2026-03-29T10:14:34.864Z</time></trkpt><trkpt lat="45.052943" lon="8.0604772"><ele>243.0</ele><time>2026-03-29T10:14:35.868Z</time></trkpt><trkpt lat="45.052912" lon="8.060563"><ele>243.0</ele><time>2026-03-29T10:14:36.864Z</time></trkpt><trkpt lat="45.0529323" lon="8.0606892"><ele>243.0</ele><time>2026-03-29T10:14:37.866Z</time></trkpt><trkpt lat="45.052985" lon="8.0608015"><ele>243.0</ele><time>2026-03-29T10:14:38.867Z</time></trkpt><trkpt lat="45.0530587" lon="8.0608823"><ele>243.0</ele><time>2026-03-29T10:14:39.866Z</time></trkpt><trkpt lat="45.0531483" lon="8.0609252"><ele>243.0</ele><time>2026-03-29T10:14:40.862Z</time></trkpt><trkpt lat="45.0532579" lon="8.0609502"><ele>245.5</ele><time>2026-03-29T10:14:41.862Z</time></trkpt><trkpt lat="45.0533826" lon="8.0609867"><ele>248.0</ele><time>2026-03-29T10:14:42.868Z</time></trkpt><trkpt lat="45.0535181" lon="8.0610458"><ele>250.5</ele><time>2026-03-29T10:14:43.882Z</time></trkpt><trkpt lat="45.0536559" lon="8.0611263"><ele>253.0</ele><time>2026-03-29T10:14:44.863Z</time></trkpt><trkpt lat="45.0538088" lon="8.0612405"><ele>253.0</ele><time>2026-03-29T10:14:45.868Z</time></trkpt><trkpt lat="45.0539637" lon="8.0613777"><ele>253.0</ele><time>2026-03-29T10:14:46.862Z</time></trkpt><trkpt lat="45.0541231" lon="8.0615311"><ele>253.0</ele><time>2026-03-29T10:14:47.868Z</time></trkpt><trkpt lat="45.0542861" lon="8.0616929"><ele>256.66666666666663</ele><time>2026-03-29T10:14:48.898Z</time></trkpt><trkpt lat="45.0544438" lon="8.0618535"><ele>260.3333333333333</ele><time>2026-03-29T10:14:49.868Z</time></trkpt><trkpt lat="45.0545921" lon="8.0619997"><ele>264.0</ele><time>2026-03-29T10:14:50.863Z</time></trkpt><trkpt lat="45.054729" lon="8.0621471"><ele>264.0</ele><time>2026-03-29T10:14:51.866Z</time></trkpt><trkpt lat="45.0548453" lon="8.0622916"><ele>264.0</ele><time>2026-03-29T10:14:52.866Z</time></trkpt><trkpt lat="45.0549575" lon="8.0624373"><ele>264.0</ele><time>2026-03-29T10:14:53.864Z</time></trkpt><trkpt lat="45.0550669" lon="8.0625871"><ele>266.5</ele><time>2026-03-29T10:14:54.895Z</time></trkpt><trkpt lat="45.0551586" lon="8.0627449"><ele>269.0</ele><time>2026-03-29T10:14:55.869Z</time></trkpt><trkpt lat="45.0552402" lon="8.0628936"><ele>271.5</ele><time>2026-03-29T10:14:56.861Z</time></trkpt><trkpt lat="45.0553035" lon="8.0630319"><ele>274.0</ele><time>2026-03-29T10:14:57.865Z</time></trkpt><trkpt lat="45.0553436" lon="8.0631517"><ele>274.0</ele><time>2026-03-29T10:14:58.867Z</time></trkpt><trkpt lat="45.0553653" lon="8.0632658"><ele>274.0</ele><time>2026-03-29T10:14:59.867Z</time></trkpt><trkpt lat="45.0553605" lon="8.0633801"><ele>274.0</ele><time>2026-03-29T10:15:00.862Z</time></trkpt><trkpt lat="45.0553364" lon="8.0634919"><ele>274.0</ele><time>2026-03-29T10:15:01.861Z</time></trkpt><trkpt lat="45.0553135" lon="8.0635919"><ele>274.0</ele><time>2026-03-29T10:15:02.862Z</time></trkpt><trkpt lat="45.0552783" lon="8.0637035"><ele>274.0</ele><time>2026-03-29T10:15:03.863Z</time></trkpt><trkpt lat="45.0552202" lon="8.0638369"><ele>274.25</ele><time>2026-03-29T10:15:04.868Z</time></trkpt><trkpt lat="45.0551495" lon="8.0639821"><ele>274.5</ele><time>2026-03-29T10:15:05.863Z</time></trkpt><trkpt lat="45.0550609" lon="8.0641396"><ele>274.75</ele><time>2026-03-29T10:15:06.863Z</time></trkpt><trkpt lat="45.0549642" lon="8.0642971"><ele>275.0</ele><time>2026-03-29T10:15:07.866Z</time></trkpt><trkpt lat="45.0548705" lon="8.0644457"><ele>274.4</ele><time>2026-03-29T10:15:08.869Z</time></trkpt><trkpt lat="45.0547842" lon="8.0645913"><ele>273.8</ele><time>2026-03-29T10:15:09.867Z</time></trkpt><trkpt lat="45.0547135" lon="8.0647235"><ele>273.2</ele><time>2026-03-29T10:15:10.866Z</time></trkpt><trkpt lat="45.0546616" lon="8.0648488"><ele>272.6</ele><time>2026-03-29T10:15:11.866Z</time></trkpt><trkpt lat="45.0546508" lon="8.0649641"><ele>272.0</ele><time>2026-03-29T10:15:12.862Z</time></trkpt><trkpt lat="45.0546764" lon="8.0650823"><ele>271.25</ele><time>2026-03-29T10:15:13.863Z</time></trkpt><trkpt lat="45.0547285" lon="8.0651868"><ele>270.5</ele><time>2026-03-29T10:15:14.866Z</time></trkpt><trkpt lat="45.0548177" lon="8.0652639"><ele>269.75</ele><time>2026-03-29T10:15:15.867Z</time></trkpt><trkpt lat="45.0549388" lon="8.0653222"><ele>269.0</ele><time>2026-03-29T10:15:16.871Z</time></trkpt><trkpt lat="45.0550798" lon="8.0653595"><ele>269.0</ele><time>2026-03-29T10:15:17.863Z</time></trkpt><trkpt lat="45.0552208" lon="8.0653823"><ele>269.0</ele><time>2026-03-29T10:15:18.871Z</time></trkpt><trkpt lat="45.0553625" lon="8.0653812"><ele>269.0</ele><time>2026-03-29T10:15:19.878Z</time></trkpt><trkpt lat="45.0555013" lon="8.0653661"><ele>269.0</ele><time>2026-03-29T10:15:20.866Z</time></trkpt><trkpt lat="45.0556376" lon="8.0653491"><ele>269.0</ele><time>2026-03-29T10:15:21.865Z</time></trkpt><trkpt lat="45.0557667" lon="8.0653583"><ele>269.0</ele><time>2026-03-29T10:15:22.866Z</time></trkpt><trkpt lat="45.0558891" lon="8.0653947"><ele>269.0</ele><time>2026-03-29T10:15:23.864Z</time></trkpt><trkpt lat="45.0559994" lon="8.0654708"><ele>269.0</ele><time>2026-03-29T10:15:24.872Z</time></trkpt><trkpt lat="45.0560872" lon="8.0655853"><ele>269.2</ele><time>2026-03-29T10:15:25.875Z</time></trkpt><trkpt lat="45.0561594" lon="8.0657207"><ele>269.4</ele><time>2026-03-29T10:15:26.866Z</time></trkpt><trkpt lat="45.0562217" lon="8.0658563"><ele>269.6</ele><time>2026-03-29T10:15:27.864Z</time></trkpt><trkpt lat="45.0562821" lon="8.0659745"><ele>269.8</ele><time>2026-03-29T10:15:28.864Z</time></trkpt><trkpt lat="45.0563409" lon="8.066058"><ele>270.0</ele><time>2026-03-29T10:15:29.897Z</time></trkpt><trkpt lat="45.0564206" lon="8.0661386"><ele>268.0</ele><time>2026-03-29T10:15:31.864Z</time></trkpt><trkpt lat="45.0564881" lon="8.0661612"><ele>266.0</ele><time>2026-03-29T10:15:43.868Z</time></trkpt><trkpt lat="45.0565697" lon="8.0661107"><ele>264.0</ele><time>2026-03-29T10:15:45.869Z</time></trkpt><trkpt lat="45.0566545" lon="8.0660632"><ele>262.0</ele><time>2026-03-29T10:15:46.862Z</time></trkpt><trkpt lat="45.0567682" lon="8.0660034"><ele>260.0</ele><time>2026-03-29T10:15:47.873Z</time></trkpt><trkpt lat="45.0569027" lon="8.0659374"><ele>260.0</ele><time>2026-03-29T10:15:48.864Z</time></trkpt><trkpt lat="45.057059" lon="8.0658571"><ele>260.0</ele><time>2026-03-29T10:15:49.862Z</time></trkpt><trkpt lat="45.0572194" lon="8.0657655"><ele>260.0</ele><time>2026-03-29T10:15:50.867Z</time></trkpt><trkpt lat="45.0573672" lon="8.0656776"><ele>261.5</ele><time>2026-03-29T10:15:51.902Z</time></trkpt><trkpt lat="45.0575011" lon="8.0656"><ele>263.0</ele><time>2026-03-29T10:15:52.878Z</time></trkpt><trkpt lat="45.0576182" lon="8.0655474"><ele>264.5</ele><time>2026-03-29T10:15:53.863Z</time></trkpt><trkpt lat="45.0577258" lon="8.0655278"><ele>266.0</ele><time>2026-03-29T10:15:54.862Z</time></trkpt><trkpt lat="45.0578327" lon="8.0655358"><ele>266.0</ele><time>2026-03-29T10:15:55.863Z</time></trkpt><trkpt lat="45.0579354" lon="8.0655784"><ele>266.0</ele><time>2026-03-29T10:15:56.863Z</time></trkpt><trkpt lat="45.0580382" lon="8.0656425"><ele>266.0</ele><time>2026-03-29T10:15:57.867Z</time></trkpt><trkpt lat="45.0581463" lon="8.0657196"><ele>266.0</ele><time>2026-03-29T10:15:58.872Z</time></trkpt><trkpt lat="45.0582617" lon="8.0658002"><ele>262.5</ele><time>2026-03-29T10:15:59.862Z</time></trkpt><trkpt lat="45.0583822" lon="8.0658837"><ele>259.0</ele><time>2026-03-29T10:16:00.864Z</time></trkpt><trkpt lat="45.0585081" lon="8.0659631"><ele>255.5</ele><time>2026-03-29T10:16:01.865Z</time></trkpt><trkpt lat="45.0586422" lon="8.0660413"><ele>252.0</ele><time>2026-03-29T10:16:02.869Z</time></trkpt><trkpt lat="45.0587848" lon="8.0661178"><ele>252.0</ele><time>2026-03-29T10:16:03.874Z</time></trkpt><trkpt lat="45.0589326" lon="8.066194"><ele>252.0</ele><time>2026-03-29T10:16:04.869Z</time></trkpt><trkpt lat="45.059084" lon="8.0662706"><ele>252.0</ele><time>2026-03-29T10:16:05.868Z</time></trkpt><trkpt lat="45.0592372" lon="8.0663474"><ele>251.0</ele><time>2026-03-29T10:16:06.868Z</time></trkpt><trkpt lat="45.0593913" lon="8.0664264"><ele>250.0</ele><time>2026-03-29T10:16:07.863Z</time></trkpt><trkpt lat="45.0595455" lon="8.0665052"><ele>249.0</ele><time>2026-03-29T10:16:08.861Z</time></trkpt><trkpt lat="45.0596969" lon="8.0665861"><ele>246.75</ele><time>2026-03-29T10:16:09.862Z</time></trkpt><trkpt lat="45.0598384" lon="8.0666615"><ele>244.5</ele><time>2026-03-29T10:16:10.907Z</time></trkpt><trkpt lat="45.0599724" lon="8.0667346"><ele>242.25</ele><time>2026-03-29T10:16:11.867Z</time></trkpt><trkpt lat="45.0600985" lon="8.0668031"><ele>240.0</ele><time>2026-03-29T10:16:12.861Z</time></trkpt><trkpt lat="45.0602169" lon="8.0668638"><ele>239.6</ele><time>2026-03-29T10:16:13.879Z</time></trkpt><trkpt lat="45.060328" lon="8.0669195"><ele>239.2</ele><time>2026-03-29T10:16:14.869Z</time></trkpt><trkpt lat="45.0604326" lon="8.0669726"><ele>238.8</ele><time>2026-03-29T10:16:15.867Z</time></trkpt><trkpt lat="45.0605304" lon="8.0670338"><ele>238.4</ele><time>2026-03-29T10:16:16.867Z</time></trkpt><trkpt lat="45.0606169" lon="8.0671123"><ele>238.0</ele><time>2026-03-29T10:16:17.864Z</time></trkpt><trkpt lat="45.0606837" lon="8.0672101"><ele>238.0</ele><time>2026-03-29T10:16:18.897Z</time></trkpt><trkpt lat="45.0607236" lon="8.0673299"><ele>238.0</ele><time>2026-03-29T10:16:19.867Z</time></trkpt><trkpt lat="45.0607416" lon="8.067468"><ele>238.0</ele><time>2026-03-29T10:16:20.863Z</time></trkpt><trkpt lat="45.0607362" lon="8.0676102"><ele>238.0</ele><time>2026-03-29T10:16:21.869Z</time></trkpt><trkpt lat="45.0607041" lon="8.0677543"><ele>238.0</ele><time>2026-03-29T10:16:22.877Z</time></trkpt><trkpt lat="45.0606534" lon="8.0678932"><ele>237.75</ele><time>2026-03-29T10:16:23.866Z</time></trkpt><trkpt lat="45.0605811" lon="8.0680344"><ele>237.5</ele><time>2026-03-29T10:16:24.862Z</time></trkpt><trkpt lat="45.0604929" lon="8.0681867"><ele>237.25</ele><time>2026-03-29T10:16:25.866Z</time></trkpt><trkpt lat="45.0603941" lon="8.0683552"><ele>237.0</ele><time>2026-03-29T10:16:26.867Z</time></trkpt><trkpt lat="45.0602841" lon="8.0685261"><ele>236.66666666666669</ele><time>2026-03-29T10:16:27.874Z</time></trkpt><trkpt lat="45.0601621" lon="8.0686958"><ele>236.33333333333334</ele><time>2026-03-29T10:16:28.864Z</time></trkpt><trkpt lat="45.0600204" lon="8.0688629"><ele>236.0</ele><time>2026-03-29T10:16:29.866Z</time></trkpt><trkpt lat="45.0598615" lon="8.0690145"><ele>238.0</ele><time>2026-03-29T10:16:30.867Z</time></trkpt><trkpt lat="45.0596907" lon="8.0691574"><ele>240.0</ele><time>2026-03-29T10:16:31.864Z</time></trkpt><trkpt lat="45.0595242" lon="8.0692975"><ele>242.0</ele><time>2026-03-29T10:16:32.864Z</time></trkpt><trkpt lat="45.059373" lon="8.0694252"><ele>242.0</ele><time>2026-03-29T10:16:33.864Z</time></trkpt><trkpt lat="45.0592339" lon="8.0695453"><ele>242.0</ele><time>2026-03-29T10:16:34.858Z</time></trkpt><trkpt lat="45.0591103" lon="8.0696663"><ele>242.0</ele><time>2026-03-29T10:16:35.866Z</time></trkpt><trkpt lat="45.0589983" lon="8.0697784"><ele>242.8</ele><time>2026-03-29T10:16:36.867Z</time></trkpt><trkpt lat="45.0588967" lon="8.0698775"><ele>243.6</ele><time>2026-03-29T10:16:37.867Z</time></trkpt><trkpt lat="45.0588082" lon="8.0699636"><ele>244.40000000000003</ele><time>2026-03-29T10:16:38.868Z</time></trkpt><trkpt lat="45.0587338" lon="8.0700405"><ele>245.20000000000002</ele><time>2026-03-29T10:16:39.87Z</time></trkpt><trkpt lat="45.0586776" lon="8.0701193"><ele>246.0</ele><time>2026-03-29T10:16:40.863Z</time></trkpt><trkpt lat="45.0586444" lon="8.0702144"><ele>246.0</ele><time>2026-03-29T10:16:41.869Z</time></trkpt><trkpt lat="45.0586429" lon="8.0703251"><ele>246.0</ele><time>2026-03-29T10:16:42.87Z</time></trkpt><trkpt lat="45.0586757" lon="8.0704382"><ele>246.0</ele><time>2026-03-29T10:16:43.866Z</time></trkpt><trkpt lat="45.0587343" lon="8.0705303"><ele>246.0</ele><time>2026-03-29T10:16:44.864Z</time></trkpt><trkpt lat="45.0588118" lon="8.0705894"><ele>246.0</ele><time>2026-03-29T10:16:45.863Z</time></trkpt><trkpt lat="45.0589086" lon="8.0706082"><ele>246.0</ele><time>2026-03-29T10:16:46.863Z</time></trkpt><trkpt lat="45.0590106" lon="8.0705953"><ele>247.75</ele><time>2026-03-29T10:16:47.866Z</time></trkpt><trkpt lat="45.059134" lon="8.0705526"><ele>249.5</ele><time>2026-03-29T10:16:48.869Z</time></trkpt><trkpt lat="45.0592608" lon="8.0705087"><ele>251.25</ele><time>2026-03-29T10:16:49.865Z</time></trkpt><trkpt lat="45.0593911" lon="8.0704642"><ele>253.0</ele><time>2026-03-29T10:16:50.869Z</time></trkpt><trkpt lat="45.0595141" lon="8.0704272"><ele>252.99999999999997</ele><time>2026-03-29T10:16:51.897Z</time></trkpt><trkpt lat="45.0596223" lon="8.0703971"><ele>253.0</ele><time>2026-03-29T10:16:52.867Z</time></trkpt><trkpt lat="45.0597165" lon="8.0703807"><ele>253.0</ele><time>2026-03-29T10:16:53.868Z</time></trkpt><trkpt lat="45.0597973" lon="8.0703848"><ele>253.0</ele><time>2026-03-29T10:16:54.893Z</time></trkpt><trkpt lat="45.0598607" lon="8.070432"><ele>252.99999999999997</ele><time>2026-03-29T10:16:55.864Z</time></trkpt><trkpt lat="45.0599033" lon="8.0705057"><ele>253.0</ele><time>2026-03-29T10:16:56.862Z</time></trkpt><trkpt lat="45.0599233" lon="8.0706034"><ele>253.0</ele><time>2026-03-29T10:16:57.865Z</time></trkpt><trkpt lat="45.0599197" lon="8.0707217"><ele>253.0</ele><time>2026-03-29T10:16:58.866Z</time></trkpt><trkpt lat="45.059889" lon="8.070843"><ele>253.0</ele><time>2026-03-29T10:16:59.872Z</time></trkpt><trkpt lat="45.0598312" lon="8.0709509"><ele>253.0</ele><time>2026-03-29T10:17:00.863Z</time></trkpt><trkpt lat="45.0597525" lon="8.0710361"><ele>253.0</ele><time>2026-03-29T10:17:01.865Z</time></trkpt><trkpt lat="45.0596535" lon="8.0711061"><ele>253.75</ele><time>2026-03-29T10:17:02.864Z</time></trkpt><trkpt lat="45.0595289" lon="8.0711743"><ele>254.5</ele><time>2026-03-29T10:17:03.867Z</time></trkpt><trkpt lat="45.0593856" lon="8.0712518"><ele>255.25</ele><time>2026-03-29T10:17:04.889Z</time></trkpt><trkpt lat="45.059236" lon="8.0713379"><ele>256.0</ele><time>2026-03-29T10:17:05.877Z</time></trkpt><trkpt lat="45.0590845" lon="8.0714295"><ele>256.0</ele><time>2026-03-29T10:17:06.872Z</time></trkpt><trkpt lat="45.0589368" lon="8.0715197"><ele>256.0</ele><time>2026-03-29T10:17:07.873Z</time></trkpt><trkpt lat="45.0587952" lon="8.0716066"><ele>256.0</ele><time>2026-03-29T10:17:08.871Z</time></trkpt><trkpt lat="45.0586646" lon="8.071689"><ele>255.0</ele><time>2026-03-29T10:17:09.868Z</time></trkpt><trkpt lat="45.0585496" lon="8.0717673"><ele>254.00000000000003</ele><time>2026-03-29T10:17:10.863Z</time></trkpt><trkpt lat="45.0584478" lon="8.0718558"><ele>253.00000000000003</ele><time>2026-03-29T10:17:11.871Z</time></trkpt><trkpt lat="45.0583619" lon="8.0719449"><ele>252.0</ele><time>2026-03-29T10:17:12.87Z</time></trkpt><trkpt lat="45.0582922" lon="8.0720371"><ele>251.0</ele><time>2026-03-29T10:17:13.864Z</time></trkpt><trkpt lat="45.0582456" lon="8.0721323"><ele>251.0</ele><time>2026-03-29T10:17:14.867Z</time></trkpt><trkpt lat="45.0582316" lon="8.072223"><ele>251.00000000000003</ele><time>2026-03-29T10:17:15.866Z</time></trkpt><trkpt lat="45.0582687" lon="8.0723766"><ele>251.00000000000003</ele><time>2026-03-29T10:17:17.87Z</time></trkpt><trkpt lat="45.0583396" lon="8.0724725"><ele>251.0</ele><time>2026-03-29T10:17:19.867Z</time></trkpt><trkpt lat="45.058449" lon="8.0724904"><ele>251.0</ele><time>2026-03-29T10:17:27.867Z</time></trkpt><trkpt lat="45.0585955" lon="8.0724602"><ele>254.0</ele><time>2026-03-29T10:17:29.868Z</time></trkpt><trkpt lat="45.0586886" lon="8.0724367"><ele>257.0</ele><time>2026-03-29T10:17:30.865Z</time></trkpt><trkpt lat="45.0587929" lon="8.0724166"><ele>260.0</ele><time>2026-03-29T10:17:31.861Z</time></trkpt><trkpt lat="45.0589126" lon="8.0724061"><ele>263.0</ele><time>2026-03-29T10:17:32.862Z</time></trkpt><trkpt lat="45.0590301" lon="8.0724139"><ele>266.0</ele><time>2026-03-29T10:17:33.869Z</time></trkpt><trkpt lat="45.0591525" lon="8.0724406"><ele>270.0</ele><time>2026-03-29T10:17:34.872Z</time></trkpt><trkpt lat="45.0592977" lon="8.0724761"><ele>274.0</ele><time>2026-03-29T10:17:35.873Z</time></trkpt><trkpt lat="45.0594389" lon="8.0725101"><ele>278.0</ele><time>2026-03-29T10:17:36.864Z</time></trkpt><trkpt lat="45.0595837" lon="8.0725579"><ele>282.0</ele><time>2026-03-29T10:17:37.864Z</time></trkpt><trkpt lat="45.0597378" lon="8.0726164"><ele>282.0</ele><time>2026-03-29T10:17:38.862Z</time></trkpt><trkpt lat="45.0599317" lon="8.0726248"><ele>282.0</ele><time>2026-03-29T10:17:39.865Z</time></trkpt><trkpt lat="45.0601237" lon="8.0726354"><ele>282.0</ele><time>2026-03-29T10:17:40.878Z</time></trkpt><trkpt lat="45.0603066" lon="8.0726399"><ele>283.0</ele><time>2026-03-29T10:17:41.868Z</time></trkpt><trkpt lat="45.060483" lon="8.0726087"><ele>284.0</ele><time>2026-03-29T10:17:42.895Z</time></trkpt><trkpt lat="45.0606613" lon="8.0725684"><ele>285.0</ele><time>2026-03-29T10:17:43.871Z</time></trkpt><trkpt lat="45.0608319" lon="8.0725173"><ele>286.0</ele><time>2026-03-29T10:17:44.867Z</time></trkpt><trkpt lat="45.0609862" lon="8.0724635"><ele>287.0</ele><time>2026-03-29T10:17:45.868Z</time></trkpt><trkpt lat="45.0611206" lon="8.0724085"><ele>288.0</ele><time>2026-03-29T10:17:46.872Z</time></trkpt><trkpt lat="45.061232" lon="8.0723544"><ele>289.0</ele><time>2026-03-29T10:17:47.863Z</time></trkpt><trkpt lat="45.0613288" lon="8.0723076"><ele>288.0</ele><time>2026-03-29T10:17:48.862Z</time></trkpt><trkpt lat="45.0614161" lon="8.0722688"><ele>287.0</ele><time>2026-03-29T10:17:49.867Z</time></trkpt><trkpt lat="45.0615136" lon="8.0722303"><ele>286.0</ele><time>2026-03-29T10:17:50.865Z</time></trkpt><trkpt lat="45.0616244" lon="8.0721873"><ele>285.0</ele><time>2026-03-29T10:17:51.873Z</time></trkpt><trkpt lat="45.0617454" lon="8.0721397"><ele>284.0</ele><time>2026-03-29T10:17:52.867Z</time></trkpt><trkpt lat="45.0618758" lon="8.0720834"><ele>284.0</ele><time>2026-03-29T10:17:53.864Z</time></trkpt><trkpt lat="45.062014" lon="8.0720069"><ele>284.0</ele><time>2026-03-29T10:17:54.876Z</time></trkpt><trkpt lat="45.062151" lon="8.0719221"><ele>284.0</ele><time>2026-03-29T10:17:55.868Z</time></trkpt><trkpt lat="45.0622856" lon="8.0718147"><ele>284.0</ele><time>2026-03-29T10:17:56.865Z</time></trkpt><trkpt lat="45.062422" lon="8.0716807"><ele>284.0</ele><time>2026-03-29T10:17:57.868Z</time></trkpt><trkpt lat="45.0625575" lon="8.0715248"><ele>284.0</ele><time>2026-03-29T10:17:58.868Z</time></trkpt><trkpt lat="45.0626977" lon="8.0713585"><ele>285.6666666666667</ele><time>2026-03-29T10:17:59.865Z</time></trkpt><trkpt lat="45.0628442" lon="8.0711821"><ele>287.3333333333333</ele><time>2026-03-29T10:18:00.869Z</time></trkpt><trkpt lat="45.0629971" lon="8.0710023"><ele>289.0</ele><time>2026-03-29T10:18:01.867Z</time></trkpt><trkpt lat="45.0631555" lon="8.07082"><ele>286.0</ele><time>2026-03-29T10:18:02.866Z</time></trkpt><trkpt lat="45.0633212" lon="8.070631"><ele>283.0</ele><time>2026-03-29T10:18:03.871Z</time></trkpt><trkpt lat="45.0634945" lon="8.0704358"><ele>280.0</ele><time>2026-03-29T10:18:04.868Z</time></trkpt><trkpt lat="45.0636764" lon="8.0702386"><ele>280.0</ele><time>2026-03-29T10:18:05.867Z</time></trkpt><trkpt lat="45.0638565" lon="8.0700491"><ele>280.0</ele><time>2026-03-29T10:18:06.867Z</time></trkpt><trkpt lat="45.0640277" lon="8.0698739"><ele>280.0</ele><time>2026-03-29T10:18:07.864Z</time></trkpt><trkpt lat="45.0641905" lon="8.0697102"><ele>280.3333333333333</ele><time>2026-03-29T10:18:08.868Z</time></trkpt><trkpt lat="45.064351" lon="8.069551"><ele>280.6666666666667</ele><time>2026-03-29T10:18:09.867Z</time></trkpt><trkpt lat="45.0645172" lon="8.0693984"><ele>281.0</ele><time>2026-03-29T10:18:10.875Z</time></trkpt><trkpt lat="45.0646906" lon="8.0692476"><ele>279.33333333333337</ele><time>2026-03-29T10:18:11.865Z</time></trkpt><trkpt lat="45.0648693" lon="8.0691002"><ele>277.6666666666667</ele><time>2026-03-29T10:18:12.865Z</time></trkpt><trkpt lat="45.0650455" lon="8.0689534"><ele>276.0</ele><time>2026-03-29T10:18:13.863Z</time></trkpt><trkpt lat="45.0652231" lon="8.0688107"><ele>281.0</ele><time>2026-03-29T10:18:14.869Z</time></trkpt><trkpt lat="45.0653971" lon="8.0686706"><ele>286.0</ele><time>2026-03-29T10:18:15.868Z</time></trkpt><trkpt lat="45.0655666" lon="8.068531"><ele>291.0</ele><time>2026-03-29T10:18:16.865Z</time></trkpt><trkpt lat="45.0657384" lon="8.0683975"><ele>291.0</ele><time>2026-03-29T10:18:17.874Z</time></trkpt><trkpt lat="45.0658913" lon="8.0682784"><ele>291.0</ele><time>2026-03-29T10:18:18.871Z</time></trkpt><trkpt lat="45.066044" lon="8.0681578"><ele>291.0</ele><time>2026-03-29T10:18:19.867Z</time></trkpt><trkpt lat="45.0661701" lon="8.0680488"><ele>291.0</ele><time>2026-03-29T10:18:20.868Z</time></trkpt><trkpt lat="45.066284" lon="8.0679488"><ele>291.0</ele><time>2026-03-29T10:18:21.865Z</time></trkpt><trkpt lat="45.0663858" lon="8.0678602"><ele>291.0</ele><time>2026-03-29T10:18:22.871Z</time></trkpt><trkpt lat="45.066482" lon="8.0677814"><ele>291.0</ele><time>2026-03-29T10:18:23.866Z</time></trkpt><trkpt lat="45.0665711" lon="8.0677085"><ele>290.6</ele><time>2026-03-29T10:18:24.875Z</time></trkpt><trkpt lat="45.0666564" lon="8.0676407"><ele>290.20000000000005</ele><time>2026-03-29T10:18:25.871Z</time></trkpt><trkpt lat="45.0667366" lon="8.0675794"><ele>289.79999999999995</ele><time>2026-03-29T10:18:26.865Z</time></trkpt><trkpt lat="45.0668177" lon="8.0675162"><ele>289.4</ele><time>2026-03-29T10:18:27.866Z</time></trkpt><trkpt lat="45.0668992" lon="8.0674514"><ele>289.0</ele><time>2026-03-29T10:18:28.875Z</time></trkpt><trkpt lat="45.0669825" lon="8.0673917"><ele>289.0</ele><time>2026-03-29T10:18:29.868Z</time></trkpt><trkpt lat="45.0670599" lon="8.0673354"><ele>289.0</ele><time>2026-03-29T10:18:30.865Z</time></trkpt><trkpt lat="45.0671255" lon="8.0673009"><ele>289.0</ele><time>2026-03-29T10:18:31.909Z</time></trkpt><trkpt lat="45.0672199" lon="8.0673458"><ele>289.0</ele><time>2026-03-29T10:18:33.871Z</time></trkpt><trkpt lat="45.0672873" lon="8.0675244"><ele>289.0</ele><time>2026-03-29T10:18:35.865Z</time></trkpt><trkpt lat="45.0673287" lon="8.0676398"><ele>290.8</ele><time>2026-03-29T10:18:36.866Z</time></trkpt><trkpt lat="45.0673819" lon="8.0677423"><ele>292.59999999999997</ele><time>2026-03-29T10:18:37.864Z</time></trkpt><trkpt lat="45.067447" lon="8.0678282"><ele>294.4</ele><time>2026-03-29T10:18:38.869Z</time></trkpt><trkpt lat="45.0675265" lon="8.067895"><ele>296.2</ele><time>2026-03-29T10:18:39.864Z</time></trkpt><trkpt lat="45.0676187" lon="8.06795"><ele>298.0</ele><time>2026-03-29T10:18:40.864Z</time></trkpt><trkpt lat="45.0677175" lon="8.0679973"><ele>298.2</ele><time>2026-03-29T10:18:41.865Z</time></trkpt><trkpt lat="45.0678161" lon="8.0680482"><ele>298.4</ele><time>2026-03-29T10:18:42.862Z</time></trkpt><trkpt lat="45.0679179" lon="8.0681032"><ele>298.59999999999997</ele><time>2026-03-29T10:18:43.871Z</time></trkpt><trkpt lat="45.0680205" lon="8.0681722"><ele>298.8</ele><time>2026-03-29T10:18:44.868Z</time></trkpt><trkpt lat="45.068127" lon="8.068253"><ele>299.0</ele><time>2026-03-29T10:18:45.863Z</time></trkpt><trkpt lat="45.0682306" lon="8.0683644"><ele>295.6666666666667</ele><time>2026-03-29T10:18:46.874Z</time></trkpt><trkpt lat="45.0683261" lon="8.0685073"><ele>292.3333333333333</ele><time>2026-03-29T10:18:47.867Z</time></trkpt><trkpt lat="45.0684125" lon="8.0686864"><ele>289.0</ele><time>2026-03-29T10:18:48.866Z</time></trkpt><trkpt lat="45.0684959" lon="8.06889"><ele>289.0</ele><time>2026-03-29T10:18:49.869Z</time></trkpt><trkpt lat="45.068578" lon="8.0691025"><ele>289.0</ele><time>2026-03-29T10:18:50.866Z</time></trkpt><trkpt lat="45.068665" lon="8.0693069"><ele>289.0</ele><time>2026-03-29T10:18:51.867Z</time></trkpt><trkpt lat="45.0687517" lon="8.0695126"><ele>287.0</ele><time>2026-03-29T10:18:52.865Z</time></trkpt><trkpt lat="45.0688337" lon="8.0697258"><ele>285.0</ele><time>2026-03-29T10:18:53.866Z</time></trkpt><trkpt lat="45.068916" lon="8.069951"><ele>283.0</ele><time>2026-03-29T10:18:54.864Z</time></trkpt><trkpt lat="45.0689983" lon="8.0701821"><ele>282.66666666666663</ele><time>2026-03-29T10:18:55.895Z</time></trkpt><trkpt lat="45.0690713" lon="8.0704229"><ele>282.3333333333333</ele><time>2026-03-29T10:18:56.87Z</time></trkpt><trkpt lat="45.0691385" lon="8.0706702"><ele>282.0</ele><time>2026-03-29T10:18:57.868Z</time></trkpt><trkpt lat="45.0691913" lon="8.0709283"><ele>280.6666666666667</ele><time>2026-03-29T10:18:58.864Z</time></trkpt><trkpt lat="45.0692339" lon="8.0711934"><ele>279.33333333333337</ele><time>2026-03-29T10:18:59.866Z</time></trkpt><trkpt lat="45.0692685" lon="8.0714661"><ele>278.0</ele><time>2026-03-29T10:19:00.868Z</time></trkpt><trkpt lat="45.0693036" lon="8.0717319"><ele>275.33333333333337</ele><time>2026-03-29T10:19:01.863Z</time></trkpt><trkpt lat="45.0693406" lon="8.0719857"><ele>272.6666666666667</ele><time>2026-03-29T10:19:02.863Z</time></trkpt><trkpt lat="45.0693743" lon="8.0722215"><ele>270.0</ele><time>2026-03-29T10:19:03.866Z</time></trkpt><trkpt lat="45.0694072" lon="8.0724423"><ele>268.6666666666667</ele><time>2026-03-29T10:19:04.866Z</time></trkpt><trkpt lat="45.0694377" lon="8.0726582"><ele>267.33333333333337</ele><time>2026-03-29T10:19:05.865Z</time></trkpt><trkpt lat="45.0694669" lon="8.0728703"><ele>266.0</ele><time>2026-03-29T10:19:06.865Z</time></trkpt><trkpt lat="45.0694911" lon="8.073083"><ele>264.6666666666667</ele><time>2026-03-29T10:19:07.874Z</time></trkpt><trkpt lat="45.0695063" lon="8.0733059"><ele>263.3333333333333</ele><time>2026-03-29T10:19:08.867Z</time></trkpt><trkpt lat="45.0695121" lon="8.0735364"><ele>262.0</ele><time>2026-03-29T10:19:09.866Z</time></trkpt><trkpt lat="45.0695131" lon="8.0737713"><ele>262.0</ele><time>2026-03-29T10:19:10.868Z</time></trkpt><trkpt lat="45.069518" lon="8.0740209"><ele>262.0</ele><time>2026-03-29T10:19:11.867Z</time></trkpt><trkpt lat="45.0695339" lon="8.0742735"><ele>262.0</ele><time>2026-03-29T10:19:12.868Z</time></trkpt><trkpt lat="45.0695645" lon="8.0745306"><ele>262.0</ele><time>2026-03-29T10:19:13.866Z</time></trkpt><trkpt lat="45.0696106" lon="8.0747872"><ele>262.0</ele><time>2026-03-29T10:19:14.863Z</time></trkpt><trkpt lat="45.0696576" lon="8.0750359"><ele>262.0</ele><time>2026-03-29T10:19:15.866Z</time></trkpt><trkpt lat="45.0697006" lon="8.0752707"><ele>262.3333333333333</ele><time>2026-03-29T10:19:16.866Z</time></trkpt><trkpt lat="45.0697401" lon="8.0754916"><ele>262.6666666666667</ele><time>2026-03-29T10:19:17.868Z</time></trkpt><trkpt lat="45.0697815" lon="8.0756951"><ele>263.0</ele><time>2026-03-29T10:19:18.868Z</time></trkpt><trkpt lat="45.0698304" lon="8.0758804"><ele>262.5</ele><time>2026-03-29T10:19:19.867Z</time></trkpt><trkpt lat="45.0698871" lon="8.0760574"><ele>262.0</ele><time>2026-03-29T10:19:20.868Z</time></trkpt><trkpt lat="45.0699539" lon="8.0762383"><ele>261.5</ele><time>2026-03-29T10:19:21.864Z</time></trkpt><trkpt lat="45.0700205" lon="8.0764277"><ele>261.0</ele><time>2026-03-29T10:19:22.871Z</time></trkpt><trkpt lat="45.0700755" lon="8.0766306"><ele>264.0</ele><time>2026-03-29T10:19:23.868Z</time></trkpt><trkpt lat="45.070116" lon="8.0768487"><ele>267.0</ele><time>2026-03-29T10:19:24.866Z</time></trkpt><trkpt lat="45.0701394" lon="8.0770787"><ele>270.0</ele><time>2026-03-29T10:19:25.868Z</time></trkpt><trkpt lat="45.0701573" lon="8.0773168"><ele>270.6666666666667</ele><time>2026-03-29T10:19:26.866Z</time></trkpt><trkpt lat="45.070179" lon="8.0775578"><ele>271.33333333333337</ele><time>2026-03-29T10:19:27.884Z</time></trkpt><trkpt lat="45.0702074" lon="8.0777943"><ele>272.0</ele><time>2026-03-29T10:19:28.863Z</time></trkpt><trkpt lat="45.0702439" lon="8.0780258"><ele>272.0</ele><time>2026-03-29T10:19:29.865Z</time></trkpt><trkpt lat="45.0702926" lon="8.0782476"><ele>272.0</ele><time>2026-03-29T10:19:30.868Z</time></trkpt><trkpt lat="45.0703402" lon="8.0784686"><ele>272.0</ele><time>2026-03-29T10:19:31.866Z</time></trkpt><trkpt lat="45.0703808" lon="8.0786958"><ele>271.33333333333337</ele><time>2026-03-29T10:19:32.865Z</time></trkpt><trkpt lat="45.0704127" lon="8.0789324"><ele>270.6666666666667</ele><time>2026-03-29T10:19:33.864Z</time></trkpt><trkpt lat="45.070437" lon="8.0791727"><ele>270.0</ele><time>2026-03-29T10:19:34.865Z</time></trkpt><trkpt lat="45.0704504" lon="8.0794229"><ele>269.0</ele><time>2026-03-29T10:19:35.866Z</time></trkpt><trkpt lat="45.0704641" lon="8.0796707"><ele>268.0</ele><time>2026-03-29T10:19:36.871Z</time></trkpt><trkpt lat="45.0704767" lon="8.0799164"><ele>267.0</ele><time>2026-03-29T10:19:37.873Z</time></trkpt><trkpt lat="45.0704938" lon="8.0801545"><ele>265.6666666666667</ele><time>2026-03-29T10:19:38.867Z</time></trkpt><trkpt lat="45.0705046" lon="8.0803904"><ele>264.33333333333337</ele><time>2026-03-29T10:19:39.862Z</time></trkpt><trkpt lat="45.0705166" lon="8.0806172"><ele>263.0</ele><time>2026-03-29T10:19:40.864Z</time></trkpt><trkpt lat="45.0705356" lon="8.0808426"><ele>262.33333333333337</ele><time>2026-03-29T10:19:41.871Z</time></trkpt><trkpt lat="45.0705677" lon="8.0810581"><ele>261.6666666666667</ele><time>2026-03-29T10:19:42.867Z</time></trkpt><trkpt lat="45.0706137" lon="8.0812643"><ele>261.0</ele><time>2026-03-29T10:19:43.875Z</time></trkpt><trkpt lat="45.0706584" lon="8.0814727"><ele>260.75</ele><time>2026-03-29T10:19:44.866Z</time></trkpt><trkpt lat="45.0706993" lon="8.0816677"><ele>260.5</ele><time>2026-03-29T10:19:45.866Z</time></trkpt><trkpt lat="45.0707349" lon="8.0818497"><ele>260.25</ele><time>2026-03-29T10:19:46.867Z</time></trkpt><trkpt lat="45.0707533" lon="8.0820065"><ele>260.0</ele><time>2026-03-29T10:19:47.874Z</time></trkpt><trkpt lat="45.070758" lon="8.0821341"><ele>260.0</ele><time>2026-03-29T10:19:48.871Z</time></trkpt><trkpt lat="45.0707623" lon="8.0822273"><ele>260.0</ele><time>2026-03-29T10:19:49.864Z</time></trkpt><trkpt lat="45.0708095" lon="8.0823472"><ele>260.0</ele><time>2026-03-29T10:19:51.869Z</time></trkpt><trkpt lat="45.07088" lon="8.082435"><ele>260.0</ele><time>2026-03-29T10:19:53.866Z</time></trkpt><trkpt lat="45.070906" lon="8.0825175"><ele>260.0</ele><time>2026-03-29T10:19:54.863Z</time></trkpt><trkpt lat="45.0709254" lon="8.0826573"><ele>260.0</ele><time>2026-03-29T10:19:55.866Z</time></trkpt><trkpt lat="45.0709398" lon="8.0828673"><ele>258.6666666666667</ele><time>2026-03-29T10:19:56.862Z</time></trkpt><trkpt lat="45.070965" lon="8.0831032"><ele>257.3333333333333</ele><time>2026-03-29T10:19:57.865Z</time></trkpt><trkpt lat="45.0709893" lon="8.0833446"><ele>256.0</ele><time>2026-03-29T10:19:58.868Z</time></trkpt><trkpt lat="45.071021" lon="8.0835811"><ele>256.0</ele><time>2026-03-29T10:19:59.866Z</time></trkpt><trkpt lat="45.0710506" lon="8.0838206"><ele>256.0</ele><time>2026-03-29T10:20:00.868Z</time></trkpt><trkpt lat="45.0710693" lon="8.0840508"><ele>256.0</ele><time>2026-03-29T10:20:01.867Z</time></trkpt><trkpt lat="45.0710794" lon="8.0842825"><ele>256.3333333333333</ele><time>2026-03-29T10:20:02.864Z</time></trkpt><trkpt lat="45.0710591" lon="8.0845371"><ele>256.6666666666667</ele><time>2026-03-29T10:20:03.862Z</time></trkpt><trkpt lat="45.0709979" lon="8.0848336"><ele>257.0</ele><time>2026-03-29T10:20:04.865Z</time></trkpt><trkpt lat="45.0709262" lon="8.0851304"><ele>257.0</ele><time>2026-03-29T10:20:05.863Z</time></trkpt><trkpt lat="45.0708658" lon="8.0854169"><ele>257.0</ele><time>2026-03-29T10:20:06.867Z</time></trkpt><trkpt lat="45.0708185" lon="8.0857006"><ele>257.0</ele><time>2026-03-29T10:20:07.866Z</time></trkpt><trkpt lat="45.070778" lon="8.0859687"><ele>257.33333333333337</ele><time>2026-03-29T10:20:08.864Z</time></trkpt><trkpt lat="45.0707353" lon="8.0862217"><ele>257.6666666666667</ele><time>2026-03-29T10:20:09.864Z</time></trkpt><trkpt lat="45.0707026" lon="8.0864691"><ele>258.0</ele><time>2026-03-29T10:20:10.863Z</time></trkpt><trkpt lat="45.0706775" lon="8.0867164"><ele>257.3333333333333</ele><time>2026-03-29T10:20:11.866Z</time></trkpt><trkpt lat="45.0706732" lon="8.0869593"><ele>256.66666666666663</ele><time>2026-03-29T10:20:12.872Z</time></trkpt><trkpt lat="45.0706768" lon="8.0872026"><ele>256.0</ele><time>2026-03-29T10:20:13.867Z</time></trkpt><trkpt lat="45.0706869" lon="8.0874276"><ele>256.0</ele><time>2026-03-29T10:20:14.864Z</time></trkpt><trkpt lat="45.0707012" lon="8.0876288"><ele>256.0</ele><time>2026-03-29T10:20:15.876Z</time></trkpt><trkpt lat="45.0707187" lon="8.0878031"><ele>256.0</ele><time>2026-03-29T10:20:16.865Z</time></trkpt><trkpt lat="45.0707384" lon="8.0879583"><ele>256.0</ele><time>2026-03-29T10:20:17.867Z</time></trkpt><trkpt lat="45.0707627" lon="8.0881006"><ele>257.75</ele><time>2026-03-29T10:20:18.864Z</time></trkpt><trkpt lat="45.0707846" lon="8.0882514"><ele>259.5</ele><time>2026-03-29T10:20:19.868Z</time></trkpt><trkpt lat="45.0708006" lon="8.0884163"><ele>261.25</ele><time>2026-03-29T10:20:20.871Z</time></trkpt><trkpt lat="45.0708151" lon="8.0885999"><ele>263.0</ele><time>2026-03-29T10:20:21.868Z</time></trkpt><trkpt lat="45.0708312" lon="8.0887952"><ele>265.33333333333337</ele><time>2026-03-29T10:20:22.863Z</time></trkpt><trkpt lat="45.0708531" lon="8.0890038"><ele>267.6666666666667</ele><time>2026-03-29T10:20:23.868Z</time></trkpt><trkpt lat="45.0708746" lon="8.0892151"><ele>270.0</ele><time>2026-03-29T10:20:24.864Z</time></trkpt><trkpt lat="45.0708971" lon="8.0894277"><ele>270.6666666666667</ele><time>2026-03-29T10:20:25.862Z</time></trkpt><trkpt lat="45.0709171" lon="8.0896395"><ele>271.33333333333337</ele><time>2026-03-29T10:20:26.869Z</time></trkpt><trkpt lat="45.0709255" lon="8.0898573"><ele>272.0</ele><time>2026-03-29T10:20:27.875Z</time></trkpt><trkpt lat="45.070921" lon="8.0900798"><ele>272.0</ele><time>2026-03-29T10:20:28.866Z</time></trkpt><trkpt lat="45.0708933" lon="8.090314"><ele>272.0</ele><time>2026-03-29T10:20:29.874Z</time></trkpt><trkpt lat="45.0708482" lon="8.0905515"><ele>272.0</ele><time>2026-03-29T10:20:30.862Z</time></trkpt><trkpt lat="45.0708035" lon="8.090788"><ele>270.0</ele><time>2026-03-29T10:20:31.865Z</time></trkpt><trkpt lat="45.0707657" lon="8.0910152"><ele>268.0</ele><time>2026-03-29T10:20:32.867Z</time></trkpt><trkpt lat="45.070727" lon="8.0912318"><ele>266.0</ele><time>2026-03-29T10:20:33.866Z</time></trkpt><trkpt lat="45.0706926" lon="8.0914297"><ele>266.75</ele><time>2026-03-29T10:20:34.871Z</time></trkpt><trkpt lat="45.0706615" lon="8.0916176"><ele>267.5</ele><time>2026-03-29T10:20:35.867Z</time></trkpt><trkpt lat="45.0706327" lon="8.0917919"><ele>268.25</ele><time>2026-03-29T10:20:36.866Z</time></trkpt><trkpt lat="45.0706156" lon="8.0919504"><ele>269.0</ele><time>2026-03-29T10:20:37.87Z</time></trkpt><trkpt lat="45.0706057" lon="8.0920985"><ele>269.0</ele><time>2026-03-29T10:20:38.872Z</time></trkpt><trkpt lat="45.0706138" lon="8.0922338"><ele>269.0</ele><time>2026-03-29T10:20:39.872Z</time></trkpt><trkpt lat="45.0706228" lon="8.092376"><ele>269.0</ele><time>2026-03-29T10:20:40.883Z</time></trkpt><trkpt lat="45.0706359" lon="8.0925357"><ele>269.0</ele><time>2026-03-29T10:20:41.868Z</time></trkpt><trkpt lat="45.0706481" lon="8.092711"><ele>269.0</ele><time>2026-03-29T10:20:42.876Z</time></trkpt><trkpt lat="45.070651" lon="8.0929136"><ele>270.33333333333337</ele><time>2026-03-29T10:20:43.865Z</time></trkpt><trkpt lat="45.0706478" lon="8.0931266"><ele>271.6666666666667</ele><time>2026-03-29T10:20:44.865Z</time></trkpt><trkpt lat="45.0706198" lon="8.0933578"><ele>273.0</ele><time>2026-03-29T10:20:45.875Z</time></trkpt><trkpt lat="45.0705815" lon="8.0935807"><ele>274.5</ele><time>2026-03-29T10:20:46.864Z</time></trkpt><trkpt lat="45.0705274" lon="8.0937846"><ele>276.0</ele><time>2026-03-29T10:20:47.873Z</time></trkpt><trkpt lat="45.0704686" lon="8.0939694"><ele>277.5</ele><time>2026-03-29T10:20:48.868Z</time></trkpt><trkpt lat="45.0704139" lon="8.0941345"><ele>279.0</ele><time>2026-03-29T10:20:49.88Z</time></trkpt><trkpt lat="45.0703645" lon="8.0942824"><ele>280.1666666666667</ele><time>2026-03-29T10:20:50.865Z</time></trkpt><trkpt lat="45.0703211" lon="8.0944074"><ele>281.3333333333333</ele><time>2026-03-29T10:20:51.865Z</time></trkpt><trkpt lat="45.0702763" lon="8.0945132"><ele>282.5</ele><time>2026-03-29T10:20:52.868Z</time></trkpt><trkpt lat="45.0702306" lon="8.0945955"><ele>283.66666666666663</ele><time>2026-03-29T10:20:53.869Z</time></trkpt><trkpt lat="45.0701813" lon="8.094668"><ele>284.8333333333333</ele><time>2026-03-29T10:20:54.864Z</time></trkpt><trkpt lat="45.0701023" lon="8.0947104"><ele>286.0</ele><time>2026-03-29T10:20:55.866Z</time></trkpt><trkpt lat="45.0700207" lon="8.0947559"><ele>286.2</ele><time>2026-03-29T10:20:56.864Z</time></trkpt><trkpt lat="45.0699246" lon="8.0948071"><ele>286.40000000000003</ele><time>2026-03-29T10:20:57.863Z</time></trkpt><trkpt lat="45.0698233" lon="8.0948581"><ele>286.6</ele><time>2026-03-29T10:20:58.872Z</time></trkpt><trkpt lat="45.0697253" lon="8.0949104"><ele>286.8</ele><time>2026-03-29T10:20:59.869Z</time></trkpt><trkpt lat="45.0696376" lon="8.0949584"><ele>287.0</ele><time>2026-03-29T10:21:00.864Z</time></trkpt><trkpt lat="45.0695508" lon="8.0950041"><ele>287.0</ele><time>2026-03-29T10:21:01.867Z</time></trkpt><trkpt lat="45.0694636" lon="8.0950408"><ele>287.0</ele><time>2026-03-29T10:21:02.872Z</time></trkpt><trkpt lat="45.069372" lon="8.0950759"><ele>287.0</ele><time>2026-03-29T10:21:03.872Z</time></trkpt><trkpt lat="45.0692788" lon="8.0951127"><ele>287.0</ele><time>2026-03-29T10:21:04.87Z</time></trkpt><trkpt lat="45.0691809" lon="8.0951483"><ele>287.0</ele><time>2026-03-29T10:21:05.87Z</time></trkpt><trkpt lat="45.0690864" lon="8.0951789"><ele>285.33333333333337</ele><time>2026-03-29T10:21:06.869Z</time></trkpt><trkpt lat="45.0689954" lon="8.0952091"><ele>283.6666666666667</ele><time>2026-03-29T10:21:07.872Z</time></trkpt><trkpt lat="45.0689092" lon="8.0952252"><ele>282.0</ele><time>2026-03-29T10:21:08.878Z</time></trkpt><trkpt lat="45.068832" lon="8.0952351"><ele>280.3333333333333</ele><time>2026-03-29T10:21:09.866Z</time></trkpt><trkpt lat="45.0687224" lon="8.0952302"><ele>278.66666666666663</ele><time>2026-03-29T10:21:11.861Z</time></trkpt><trkpt lat="45.0687875" lon="8.0952845"><ele>277.0</ele><time>2026-03-29T10:21:20.867Z</time></trkpt><trkpt lat="45.0688624" lon="8.0952363"><ele>277.0</ele><time>2026-03-29T10:21:22.865Z</time></trkpt><trkpt lat="45.0689259" lon="8.0952095"><ele>277.0</ele><time>2026-03-29T10:21:23.865Z</time></trkpt><trkpt lat="45.069021" lon="8.0951897"><ele>277.0</ele><time>2026-03-29T10:21:24.86Z</time></trkpt><trkpt lat="45.0691928" lon="8.0951849"><ele>277.0</ele><time>2026-03-29T10:21:25.865Z</time></trkpt><trkpt lat="45.0694014" lon="8.0950933"><ele>274.66666666666663</ele><time>2026-03-29T10:21:26.868Z</time></trkpt><trkpt lat="45.0695765" lon="8.0950365"><ele>272.3333333333333</ele><time>2026-03-29T10:21:27.865Z</time></trkpt><trkpt lat="45.0697143" lon="8.0949635"><ele>270.0</ele><time>2026-03-29T10:21:28.864Z</time></trkpt><trkpt lat="45.0698342" lon="8.0948963"><ele>270.0</ele><time>2026-03-29T10:21:29.863Z</time></trkpt><trkpt lat="45.0699409" lon="8.0948311"><ele>270.0</ele><time>2026-03-29T10:21:30.869Z</time></trkpt><trkpt lat="45.0700321" lon="8.0947687"><ele>270.0</ele><time>2026-03-29T10:21:31.863Z</time></trkpt><trkpt lat="45.070106" lon="8.094713"><ele>270.0</ele><time>2026-03-29T10:21:32.861Z</time></trkpt><trkpt lat="45.0701659" lon="8.0946667"><ele>270.0</ele><time>2026-03-29T10:21:33.863Z</time></trkpt><trkpt lat="45.0702531" lon="8.0946016"><ele>273.2</ele><time>2026-03-29T10:21:35.862Z</time></trkpt><trkpt lat="45.0703275" lon="8.0946484"><ele>276.4</ele><time>2026-03-29T10:21:37.867Z</time></trkpt><trkpt lat="45.0703997" lon="8.0948075"><ele>279.6</ele><time>2026-03-29T10:21:39.88Z</time></trkpt><trkpt lat="45.0704286" lon="8.0949237"><ele>282.8</ele><time>2026-03-29T10:21:40.867Z</time></trkpt><trkpt lat="45.0704461" lon="8.0950493"><ele>286.0</ele><time>2026-03-29T10:21:41.868Z</time></trkpt><trkpt lat="45.070452" lon="8.0951764"><ele>286.8</ele><time>2026-03-29T10:21:42.868Z</time></trkpt><trkpt lat="45.0704419" lon="8.0952734"><ele>287.6</ele><time>2026-03-29T10:21:43.864Z</time></trkpt><trkpt lat="45.0704198" lon="8.0953651"><ele>288.4</ele><time>2026-03-29T10:21:44.861Z</time></trkpt><trkpt lat="45.0703683" lon="8.0954566"><ele>289.2</ele><time>2026-03-29T10:21:45.875Z</time></trkpt><trkpt lat="45.0702838" lon="8.0955533"><ele>290.0</ele><time>2026-03-29T10:21:46.864Z</time></trkpt><trkpt lat="45.0701828" lon="8.0956689"><ele>292.0</ele><time>2026-03-29T10:21:47.869Z</time></trkpt><trkpt lat="45.0700828" lon="8.0957977"><ele>294.0</ele><time>2026-03-29T10:21:48.868Z</time></trkpt><trkpt lat="45.0699817" lon="8.0959401"><ele>296.0</ele><time>2026-03-29T10:21:49.868Z</time></trkpt><trkpt lat="45.0698781" lon="8.0960946"><ele>298.0</ele><time>2026-03-29T10:21:50.87Z</time></trkpt><trkpt lat="45.0697832" lon="8.096253"><ele>299.0</ele><time>2026-03-29T10:21:51.882Z</time></trkpt><trkpt lat="45.0697007" lon="8.0964115"><ele>300.0</ele><time>2026-03-29T10:21:52.864Z</time></trkpt><trkpt lat="45.0696225" lon="8.096548"><ele>301.0</ele><time>2026-03-29T10:21:53.863Z</time></trkpt><trkpt lat="45.0695423" lon="8.096653"><ele>302.0</ele><time>2026-03-29T10:21:54.868Z</time></trkpt><trkpt lat="45.0694519" lon="8.0967363"><ele>304.75</ele><time>2026-03-29T10:21:55.879Z</time></trkpt><trkpt lat="45.0693411" lon="8.0968017"><ele>307.5</ele><time>2026-03-29T10:21:56.871Z</time></trkpt><trkpt lat="45.0692222" lon="8.0968584"><ele>310.25</ele><time>2026-03-29T10:21:57.865Z</time></trkpt><trkpt lat="45.0691088" lon="8.0969247"><ele>313.0</ele><time>2026-03-29T10:21:58.879Z</time></trkpt><trkpt lat="45.0689996" lon="8.0970047"><ele>313.5</ele><time>2026-03-29T10:21:59.871Z</time></trkpt><trkpt lat="45.0688952" lon="8.0970931"><ele>314.0</ele><time>2026-03-29T10:22:00.87Z</time></trkpt><trkpt lat="45.0687977" lon="8.0971919"><ele>314.5</ele><time>2026-03-29T10:22:01.865Z</time></trkpt><trkpt lat="45.0687055" lon="8.097298"><ele>315.0</ele><time>2026-03-29T10:22:02.873Z</time></trkpt><trkpt lat="45.0686114" lon="8.0974103"><ele>316.2</ele><time>2026-03-29T10:22:03.863Z</time></trkpt><trkpt lat="45.0685283" lon="8.0975174"><ele>317.4</ele><time>2026-03-29T10:22:04.87Z</time></trkpt><trkpt lat="45.0684513" lon="8.0976136"><ele>318.6</ele><time>2026-03-29T10:22:05.864Z</time></trkpt><trkpt lat="45.0683809" lon="8.0977027"><ele>319.8</ele><time>2026-03-29T10:22:06.863Z</time></trkpt><trkpt lat="45.0683313" lon="8.0977591"><ele>321.0</ele><time>2026-03-29T10:22:07.863Z</time></trkpt><trkpt lat="45.0682661" lon="8.0978268"><ele>321.0</ele><time>2026-03-29T10:22:09.871Z</time></trkpt><trkpt lat="45.0682044" lon="8.09789"><ele>321.0</ele><time>2026-03-29T10:22:12.863Z</time></trkpt><trkpt lat="45.0681073" lon="8.0979316"><ele>321.0</ele><time>2026-03-29T10:22:15.868Z</time></trkpt><trkpt lat="45.0680307" lon="8.0979155"><ele>321.0</ele><time>2026-03-29T10:22:17.867Z</time></trkpt><trkpt lat="45.0679485" lon="8.0978882"><ele>321.0</ele><time>2026-03-29T10:22:19.863Z</time></trkpt><trkpt lat="45.0678618" lon="8.097848"><ele>321.0</ele><time>2026-03-29T10:22:21.879Z</time></trkpt><trkpt lat="45.0677735" lon="8.0978218"><ele>321.0</ele><time>2026-03-29T10:22:23.864Z</time></trkpt><trkpt lat="45.0677241" lon="8.0977331"><ele>321.0</ele><time>2026-03-29T10:22:25.863Z</time></trkpt><trkpt lat="45.0676696" lon="8.0976363"><ele>321.0</ele><time>2026-03-29T10:22:27.865Z</time></trkpt><trkpt lat="45.0676394" lon="8.0975115"><ele>321.0</ele><time>2026-03-29T10:22:30.896Z</time></trkpt><trkpt lat="45.0676628" lon="8.0973843"><ele>321.0</ele><time>2026-03-29T10:22:32.864Z</time></trkpt><trkpt lat="45.0677173" lon="8.0972797"><ele>321.0</ele><time>2026-03-29T10:22:34.865Z</time></trkpt><trkpt lat="45.0677507" lon="8.097198"><ele>320.99999999999994</ele><time>2026-03-29T10:22:36.867Z</time></trkpt><trkpt lat="45.067699" lon="8.0971346"><ele>321.0</ele><time>2026-03-29T10:22:39.862Z</time></trkpt><trkpt lat="45.0676809" lon="8.097244"><ele>321.0</ele><time>2026-03-29T10:24:49.872Z</time></trkpt><trkpt lat="45.0676611" lon="8.097347"><ele>321.0</ele><time>2026-03-29T10:24:51.862Z</time></trkpt><trkpt lat="45.0676234" lon="8.0974317"><ele>321.0</ele><time>2026-03-29T10:24:53.865Z</time></trkpt><trkpt lat="45.0675633" lon="8.0974776"><ele>320.99999999999994</ele><time>2026-03-29T10:24:56.88Z</time></trkpt><trkpt lat="45.0675019" lon="8.0974355"><ele>321.0</ele><time>2026-03-29T10:24:59.868Z</time></trkpt><trkpt lat="45.0674421" lon="8.0973924"><ele>316.4285714285714</ele><time>2026-03-29T10:25:02.875Z</time></trkpt><trkpt lat="45.0673815" lon="8.0973628"><ele>311.85714285714283</ele><time>2026-03-29T10:25:04.895Z</time></trkpt><trkpt lat="45.0673087" lon="8.0973313"><ele>307.2857142857143</ele><time>2026-03-29T10:25:06.868Z</time></trkpt><trkpt lat="45.0672336" lon="8.0972858"><ele>302.71428571428567</ele><time>2026-03-29T10:25:08.862Z</time></trkpt><trkpt lat="45.0671718" lon="8.0972528"><ele>298.1428571428571</ele><time>2026-03-29T10:25:10.861Z</time></trkpt><trkpt lat="45.0671116" lon="8.097225"><ele>293.57142857142856</ele><time>2026-03-29T10:25:12.86Z</time></trkpt><trkpt lat="45.0670457" lon="8.0972002"><ele>289.0</ele><time>2026-03-29T10:25:14.861Z</time></trkpt><trkpt lat="45.0670177" lon="8.0972845"><ele>289.0</ele><time>2026-03-29T10:25:18.891Z</time></trkpt><trkpt lat="45.0670806" lon="8.0973518"><ele>289.0</ele><time>2026-03-29T10:25:20.87Z</time></trkpt><trkpt lat="45.0672448" lon="8.0973873"><ele>289.0</ele><time>2026-03-29T10:25:33.865Z</time></trkpt><trkpt lat="45.0673761" lon="8.0974246"><ele>289.0</ele><time>2026-03-29T10:25:34.863Z</time></trkpt><trkpt lat="45.0674629" lon="8.0974338"><ele>294.3333333333333</ele><time>2026-03-29T10:25:35.861Z</time></trkpt><trkpt lat="45.0675284" lon="8.0974859"><ele>299.66666666666663</ele><time>2026-03-29T10:25:36.863Z</time></trkpt><trkpt lat="45.0675777" lon="8.0975685"><ele>305.0</ele><time>2026-03-29T10:25:37.863Z</time></trkpt><trkpt lat="45.067654" lon="8.0976272"><ele>310.3333333333333</ele><time>2026-03-29T10:25:38.869Z</time></trkpt><trkpt lat="45.0677095" lon="8.0977088"><ele>315.6666666666667</ele><time>2026-03-29T10:25:39.864Z</time></trkpt><trkpt lat="45.0677703" lon="8.0977739"><ele>321.0</ele><time>2026-03-29T10:25:40.897Z</time></trkpt><trkpt lat="45.0678224" lon="8.0978328"><ele>321.0</ele><time>2026-03-29T10:25:41.861Z</time></trkpt><trkpt lat="45.0678753" lon="8.0978865"><ele>321.0</ele><time>2026-03-29T10:25:42.865Z</time></trkpt><trkpt lat="45.0679665" lon="8.0979802"><ele>321.0</ele><time>2026-03-29T10:25:44.868Z</time></trkpt><trkpt lat="45.0680246" lon="8.0980168"><ele>321.0</ele><time>2026-03-29T10:25:45.864Z</time></trkpt><trkpt lat="45.0681084" lon="8.0980739"><ele>321.0</ele><time>2026-03-29T10:25:47.866Z</time></trkpt><trkpt lat="45.0681779" lon="8.0980526"><ele>321.0</ele><time>2026-03-29T10:25:49.866Z</time></trkpt><trkpt lat="45.0682271" lon="8.0979927"><ele>321.0</ele><time>2026-03-29T10:25:51.864Z</time></trkpt><trkpt lat="45.0682757" lon="8.0979325"><ele>321.0</ele><time>2026-03-29T10:25:53.867Z</time></trkpt><trkpt lat="45.0683449" lon="8.097853"><ele>321.0</ele><time>2026-03-29T10:25:55.866Z</time></trkpt><trkpt lat="45.0684273" lon="8.0977553"><ele>321.0</ele><time>2026-03-29T10:25:57.864Z</time></trkpt><trkpt lat="45.0684782" lon="8.0976949"><ele>321.0</ele><time>2026-03-29T10:25:58.861Z</time></trkpt><trkpt lat="45.0685305" lon="8.0976307"><ele>321.0</ele><time>2026-03-29T10:25:59.865Z</time></trkpt><trkpt lat="45.0685838" lon="8.0975725"><ele>322.25</ele><time>2026-03-29T10:26:00.864Z</time></trkpt><trkpt lat="45.0686387" lon="8.0975215"><ele>323.5</ele><time>2026-03-29T10:26:01.864Z</time></trkpt><trkpt lat="45.0687012" lon="8.0974755"><ele>324.75</ele><time>2026-03-29T10:26:03.863Z</time></trkpt><trkpt lat="45.068659" lon="8.0977101"><ele>326.0</ele><time>2026-03-29T10:26:10.867Z</time></trkpt><trkpt lat="45.0685603" lon="8.0978599"><ele>326.0</ele><time>2026-03-29T10:26:12.867Z</time></trkpt><trkpt lat="45.0685004" lon="8.0979507"><ele>326.0</ele><time>2026-03-29T10:26:13.87Z</time></trkpt><trkpt lat="45.0684413" lon="8.0980431"><ele>326.0</ele><time>2026-03-29T10:26:14.865Z</time></trkpt><trkpt lat="45.0683875" lon="8.0981293"><ele>326.0</ele><time>2026-03-29T10:26:15.866Z</time></trkpt><trkpt lat="45.068337" lon="8.0982106"><ele>326.0</ele><time>2026-03-29T10:26:16.862Z</time></trkpt><trkpt lat="45.0682929" lon="8.0982911"><ele>326.0</ele><time>2026-03-29T10:26:17.864Z</time></trkpt><trkpt lat="45.0682492" lon="8.0983635"><ele>322.40000000000003</ele><time>2026-03-29T10:26:18.864Z</time></trkpt><trkpt lat="45.0682059" lon="8.0984312"><ele>318.8</ele><time>2026-03-29T10:26:19.867Z</time></trkpt><trkpt lat="45.0681102" lon="8.0985233"><ele>315.20000000000005</ele><time>2026-03-29T10:26:21.863Z</time></trkpt><trkpt lat="45.0680055" lon="8.0985737"><ele>311.6</ele><time>2026-03-29T10:26:23.865Z</time></trkpt><trkpt lat="45.0679022" lon="8.0985661"><ele>308.0</ele><time>2026-03-29T10:26:25.873Z</time></trkpt><trkpt lat="45.067806" lon="8.0985498"><ele>308.0</ele><time>2026-03-29T10:26:27.867Z</time></trkpt><trkpt lat="45.0677279" lon="8.0985169"><ele>308.0</ele><time>2026-03-29T10:26:29.864Z</time></trkpt><trkpt lat="45.0676557" lon="8.0984706"><ele>308.0</ele><time>2026-03-29T10:26:31.865Z</time></trkpt><trkpt lat="45.067567" lon="8.098431"><ele>308.0</ele><time>2026-03-29T10:26:33.867Z</time></trkpt><trkpt lat="45.0674704" lon="8.0984002"><ele>308.0</ele><time>2026-03-29T10:26:35.872Z</time></trkpt><trkpt lat="45.0673634" lon="8.0983516"><ele>307.0</ele><time>2026-03-29T10:26:37.87Z</time></trkpt><trkpt lat="45.0672982" lon="8.0983199"><ele>306.0</ele><time>2026-03-29T10:26:38.868Z</time></trkpt><trkpt lat="45.0672379" lon="8.0982705"><ele>305.0</ele><time>2026-03-29T10:26:39.864Z</time></trkpt><trkpt lat="45.0671807" lon="8.0982111"><ele>304.0</ele><time>2026-03-29T10:26:40.873Z</time></trkpt><trkpt lat="45.0671274" lon="8.0981466"><ele>303.0</ele><time>2026-03-29T10:26:41.869Z</time></trkpt><trkpt lat="45.0670696" lon="8.0980887"><ele>302.0</ele><time>2026-03-29T10:26:42.868Z</time></trkpt><trkpt lat="45.0670085" lon="8.0980172"><ele>301.0</ele><time>2026-03-29T10:26:43.871Z</time></trkpt><trkpt lat="45.0669363" lon="8.097951"><ele>301.0</ele><time>2026-03-29T10:26:44.867Z</time></trkpt><trkpt lat="45.0668633" lon="8.097884"><ele>301.0</ele><time>2026-03-29T10:26:45.867Z</time></trkpt><trkpt lat="45.0667882" lon="8.0978068"><ele>301.0</ele><time>2026-03-29T10:26:46.872Z</time></trkpt><trkpt lat="45.0667134" lon="8.0977403"><ele>301.0</ele><time>2026-03-29T10:26:47.867Z</time></trkpt><trkpt lat="45.0666455" lon="8.0976685"><ele>301.0</ele><time>2026-03-29T10:26:48.863Z</time></trkpt><trkpt lat="45.0665821" lon="8.0976087"><ele>301.0</ele><time>2026-03-29T10:26:49.865Z</time></trkpt><trkpt lat="45.0665178" lon="8.0975661"><ele>298.0</ele><time>2026-03-29T10:26:50.865Z</time></trkpt><trkpt lat="45.066454" lon="8.0975213"><ele>295.0</ele><time>2026-03-29T10:26:51.863Z</time></trkpt><trkpt lat="45.0663349" lon="8.0975162"><ele>292.0</ele><time>2026-03-29T10:26:53.865Z</time></trkpt><trkpt lat="45.0662268" lon="8.0975273"><ele>289.0</ele><time>2026-03-29T10:26:55.876Z</time></trkpt><trkpt lat="45.0661528" lon="8.0975313"><ele>286.0</ele><time>2026-03-29T10:26:57.864Z</time></trkpt><trkpt lat="45.0660745" lon="8.0974871"><ele>286.0</ele><time>2026-03-29T10:27:00.862Z</time></trkpt><trkpt lat="45.0659923" lon="8.0974926"><ele>286.0</ele><time>2026-03-29T10:27:06.866Z</time></trkpt><trkpt lat="45.0659265" lon="8.0975617"><ele>286.0</ele><time>2026-03-29T10:27:08.865Z</time></trkpt><trkpt lat="45.0658291" lon="8.0976051"><ele>286.0</ele><time>2026-03-29T10:27:10.867Z</time></trkpt><trkpt lat="45.0656818" lon="8.0977145"><ele>286.0</ele><time>2026-03-29T10:27:13.869Z</time></trkpt><trkpt lat="45.0656241" lon="8.0977536"><ele>282.8</ele><time>2026-03-29T10:27:14.889Z</time></trkpt><trkpt lat="45.0655639" lon="8.0977871"><ele>279.6</ele><time>2026-03-29T10:27:15.868Z</time></trkpt><trkpt lat="45.0654349" lon="8.0978074"><ele>276.4</ele><time>2026-03-29T10:27:17.868Z</time></trkpt><trkpt lat="45.0653338" lon="8.0978359"><ele>273.2</ele><time>2026-03-29T10:27:19.864Z</time></trkpt><trkpt lat="45.0652225" lon="8.0978811"><ele>270.0</ele><time>2026-03-29T10:27:21.867Z</time></trkpt><trkpt lat="45.0651245" lon="8.0979277"><ele>270.0</ele><time>2026-03-29T10:27:23.863Z</time></trkpt><trkpt lat="45.0650181" lon="8.0979654"><ele>270.0</ele><time>2026-03-29T10:27:25.874Z</time></trkpt><trkpt lat="45.064922" lon="8.0980581"><ele>270.0</ele><time>2026-03-29T10:27:27.863Z</time></trkpt><trkpt lat="45.0648804" lon="8.0981321"><ele>270.0</ele><time>2026-03-29T10:27:28.865Z</time></trkpt><trkpt lat="45.064811" lon="8.0982462"><ele>270.0</ele><time>2026-03-29T10:27:30.864Z</time></trkpt><trkpt lat="45.0647609" lon="8.0983361"><ele>267.8</ele><time>2026-03-29T10:27:32.865Z</time></trkpt><trkpt lat="45.0646821" lon="8.0983927"><ele>265.6</ele><time>2026-03-29T10:27:35.874Z</time></trkpt><trkpt lat="45.0646392" lon="8.0985005"><ele>263.4</ele><time>2026-03-29T10:27:37.867Z</time></trkpt><trkpt lat="45.0646257" lon="8.0986862"><ele>261.2</ele><time>2026-03-29T10:27:39.868Z</time></trkpt><trkpt lat="45.0646222" lon="8.0988217"><ele>259.0</ele><time>2026-03-29T10:27:41.864Z</time></trkpt><trkpt lat="45.064641" lon="8.0989452"><ele>259.0</ele><time>2026-03-29T10:27:43.865Z</time></trkpt><trkpt lat="45.064629" lon="8.099046"><ele>259.0</ele><time>2026-03-29T10:27:45.866Z</time></trkpt><trkpt lat="45.0645904" lon="8.0991388"><ele>259.0</ele><time>2026-03-29T10:27:47.87Z</time></trkpt><trkpt lat="45.0644988" lon="8.0991989"><ele>259.0</ele><time>2026-03-29T10:27:49.876Z</time></trkpt><trkpt lat="45.064394" lon="8.0992404"><ele>259.0</ele><time>2026-03-29T10:27:51.862Z</time></trkpt><trkpt lat="45.0642729" lon="8.099262"><ele>258.66666666666663</ele><time>2026-03-29T10:27:53.861Z</time></trkpt><trkpt lat="45.064171" lon="8.0992898"><ele>258.3333333333333</ele><time>2026-03-29T10:27:55.864Z</time></trkpt><trkpt lat="45.0640816" lon="8.0992848"><ele>258.0</ele><time>2026-03-29T10:27:58.864Z</time></trkpt><trkpt lat="45.0640668" lon="8.0993948"><ele>257.6666666666667</ele><time>2026-03-29T10:28:04.865Z</time></trkpt><trkpt lat="45.0640602" lon="8.0994993"><ele>257.33333333333337</ele><time>2026-03-29T10:28:06.864Z</time></trkpt><trkpt lat="45.0640684" lon="8.0996271"><ele>257.0</ele><time>2026-03-29T10:28:08.864Z</time></trkpt><trkpt lat="45.0640875" lon="8.0997233"><ele>256.4</ele><time>2026-03-29T10:28:09.862Z</time></trkpt><trkpt lat="45.064111" lon="8.0998533"><ele>255.79999999999998</ele><time>2026-03-29T10:28:10.875Z</time></trkpt><trkpt lat="45.0641594" lon="8.0999831"><ele>255.2</ele><time>2026-03-29T10:28:11.865Z</time></trkpt><trkpt lat="45.0642049" lon="8.1000931"><ele>254.6</ele><time>2026-03-29T10:28:12.864Z</time></trkpt><trkpt lat="45.0642716" lon="8.1002062"><ele>254.0</ele><time>2026-03-29T10:28:13.868Z</time></trkpt><trkpt lat="45.064358" lon="8.1003052"><ele>253.25</ele><time>2026-03-29T10:28:14.867Z</time></trkpt><trkpt lat="45.0644508" lon="8.1004044"><ele>252.5</ele><time>2026-03-29T10:28:15.867Z</time></trkpt><trkpt lat="45.0645534" lon="8.1004944"><ele>251.75</ele><time>2026-03-29T10:28:16.863Z</time></trkpt><trkpt lat="45.0646691" lon="8.1005869"><ele>251.0</ele><time>2026-03-29T10:28:17.867Z</time></trkpt><trkpt lat="45.0647857" lon="8.1006848"><ele>249.0</ele><time>2026-03-29T10:28:18.871Z</time></trkpt><trkpt lat="45.0649019" lon="8.100779"><ele>247.0</ele><time>2026-03-29T10:28:19.887Z</time></trkpt><trkpt lat="45.0650237" lon="8.1008744"><ele>245.0</ele><time>2026-03-29T10:28:20.872Z</time></trkpt><trkpt lat="45.0651409" lon="8.1009772"><ele>243.0</ele><time>2026-03-29T10:28:21.892Z</time></trkpt><trkpt lat="45.0652601" lon="8.1010801"><ele>243.0</ele><time>2026-03-29T10:28:22.87Z</time></trkpt><trkpt lat="45.0653733" lon="8.1011835"><ele>243.0</ele><time>2026-03-29T10:28:23.865Z</time></trkpt><trkpt lat="45.0654929" lon="8.1012885"><ele>243.0</ele><time>2026-03-29T10:28:24.9Z</time></trkpt><trkpt lat="45.065611" lon="8.1014018"><ele>243.0</ele><time>2026-03-29T10:28:25.867Z</time></trkpt><trkpt lat="45.0657288" lon="8.1015174"><ele>240.66666666666669</ele><time>2026-03-29T10:28:26.873Z</time></trkpt><trkpt lat="45.0658391" lon="8.101658"><ele>238.33333333333334</ele><time>2026-03-29T10:28:27.868Z</time></trkpt><trkpt lat="45.065945" lon="8.1018162"><ele>236.0</ele><time>2026-03-29T10:28:28.87Z</time></trkpt><trkpt lat="45.0660434" lon="8.1019936"><ele>236.0</ele><time>2026-03-29T10:28:29.876Z</time></trkpt><trkpt lat="45.0661343" lon="8.102182"><ele>236.0</ele><time>2026-03-29T10:28:30.895Z</time></trkpt><trkpt lat="45.0662265" lon="8.1023691"><ele>236.0</ele><time>2026-03-29T10:28:31.879Z</time></trkpt><trkpt lat="45.0663245" lon="8.1025641"><ele>234.0</ele><time>2026-03-29T10:28:32.869Z</time></trkpt><trkpt lat="45.066417" lon="8.102761"><ele>232.0</ele><time>2026-03-29T10:28:33.87Z</time></trkpt><trkpt lat="45.0665062" lon="8.1029579"><ele>230.0</ele><time>2026-03-29T10:28:34.87Z</time></trkpt><trkpt lat="45.0665909" lon="8.1031649"><ele>227.66666666666669</ele><time>2026-03-29T10:28:35.881Z</time></trkpt><trkpt lat="45.066669" lon="8.1033837"><ele>225.33333333333331</ele><time>2026-03-29T10:28:36.895Z</time></trkpt><trkpt lat="45.0667434" lon="8.1036145"><ele>223.0</ele><time>2026-03-29T10:28:37.896Z</time></trkpt><trkpt lat="45.0668195" lon="8.1038447"><ele>223.0</ele><time>2026-03-29T10:28:38.87Z</time></trkpt><trkpt lat="45.0668977" lon="8.104066"><ele>223.0</ele><time>2026-03-29T10:28:39.868Z</time></trkpt><trkpt lat="45.0669698" lon="8.1042789"><ele>223.0</ele><time>2026-03-29T10:28:40.871Z</time></trkpt><trkpt lat="45.067036" lon="8.1044816"><ele>220.25</ele><time>2026-03-29T10:28:41.869Z</time></trkpt><trkpt lat="45.0670978" lon="8.1046724"><ele>217.5</ele><time>2026-03-29T10:28:42.875Z</time></trkpt><trkpt lat="45.0671555" lon="8.1048464"><ele>214.75</ele><time>2026-03-29T10:28:43.872Z</time></trkpt><trkpt lat="45.0672085" lon="8.1049993"><ele>212.0</ele><time>2026-03-29T10:28:44.906Z</time></trkpt><trkpt lat="45.0672643" lon="8.10512"><ele>211.6</ele><time>2026-03-29T10:28:45.873Z</time></trkpt><trkpt lat="45.0673239" lon="8.1052066"><ele>211.2</ele><time>2026-03-29T10:28:46.869Z</time></trkpt><trkpt lat="45.0673925" lon="8.1052645"><ele>210.8</ele><time>2026-03-29T10:28:47.894Z</time></trkpt><trkpt lat="45.067477" lon="8.1052924"><ele>210.4</ele><time>2026-03-29T10:28:48.872Z</time></trkpt><trkpt lat="45.0675835" lon="8.1052945"><ele>210.0</ele><time>2026-03-29T10:28:49.871Z</time></trkpt><trkpt lat="45.0677007" lon="8.1052861"><ele>210.0</ele><time>2026-03-29T10:28:50.867Z</time></trkpt><trkpt lat="45.0678094" lon="8.1052906"><ele>210.0</ele><time>2026-03-29T10:28:51.872Z</time></trkpt><trkpt lat="45.0679036" lon="8.1053148"><ele>210.0</ele><time>2026-03-29T10:28:52.867Z</time></trkpt><trkpt lat="45.067975" lon="8.1053707"><ele>210.0</ele><time>2026-03-29T10:28:53.87Z</time></trkpt><trkpt lat="45.0680239" lon="8.1054526"><ele>210.0</ele><time>2026-03-29T10:28:54.902Z</time></trkpt><trkpt lat="45.0680374" lon="8.1055554"><ele>210.0</ele><time>2026-03-29T10:28:55.879Z</time></trkpt><trkpt lat="45.0680173" lon="8.1056615"><ele>208.0</ele><time>2026-03-29T10:28:56.879Z</time></trkpt><trkpt lat="45.067958" lon="8.1057663"><ele>206.0</ele><time>2026-03-29T10:28:57.873Z</time></trkpt><trkpt lat="45.0678734" lon="8.1058654"><ele>204.0</ele><time>2026-03-29T10:28:58.87Z</time></trkpt><trkpt lat="45.067776" lon="8.1059633"><ele>202.0</ele><time>2026-03-29T10:28:59.891Z</time></trkpt><trkpt lat="45.0676715" lon="8.1060686"><ele>202.0</ele><time>2026-03-29T10:29:00.877Z</time></trkpt><trkpt lat="45.0675683" lon="8.1061839"><ele>202.0</ele><time>2026-03-29T10:29:01.872Z</time></trkpt><trkpt lat="45.0674648" lon="8.1063005"><ele>202.0</ele><time>2026-03-29T10:29:02.887Z</time></trkpt><trkpt lat="45.0673618" lon="8.1064222"><ele>202.0</ele><time>2026-03-29T10:29:03.868Z</time></trkpt><trkpt lat="45.067262" lon="8.1065313"><ele>200.25</ele><time>2026-03-29T10:29:04.87Z</time></trkpt><trkpt lat="45.0671663" lon="8.1066442"><ele>198.5</ele><time>2026-03-29T10:29:05.87Z</time></trkpt><trkpt lat="45.0670743" lon="8.1067601"><ele>196.75</ele><time>2026-03-29T10:29:06.871Z</time></trkpt><trkpt lat="45.0669861" lon="8.1068844"><ele>195.0</ele><time>2026-03-29T10:29:07.892Z</time></trkpt><trkpt lat="45.0668944" lon="8.1070149"><ele>195.0</ele><time>2026-03-29T10:29:08.873Z</time></trkpt><trkpt lat="45.0667966" lon="8.1071549"><ele>195.0</ele><time>2026-03-29T10:29:09.869Z</time></trkpt><trkpt lat="45.0666976" lon="8.1072964"><ele>195.0</ele><time>2026-03-29T10:29:10.868Z</time></trkpt><trkpt lat="45.0666028" lon="8.1074301"><ele>195.0</ele><time>2026-03-29T10:29:11.87Z</time></trkpt><trkpt lat="45.066522" lon="8.1075434"><ele>195.33333333333334</ele><time>2026-03-29T10:29:12.867Z</time></trkpt><trkpt lat="45.0664606" lon="8.1076452"><ele>195.66666666666669</ele><time>2026-03-29T10:29:13.874Z</time></trkpt><trkpt lat="45.066423" lon="8.1077405"><ele>196.0</ele><time>2026-03-29T10:29:14.877Z</time></trkpt><trkpt lat="45.0664053" lon="8.1078499"><ele>196.33333333333334</ele><time>2026-03-29T10:29:15.872Z</time></trkpt><trkpt lat="45.0664122" lon="8.1079741"><ele>196.66666666666669</ele><time>2026-03-29T10:29:16.885Z</time></trkpt><trkpt lat="45.0664287" lon="8.108108"><ele>197.0</ele><time>2026-03-29T10:29:17.873Z</time></trkpt><trkpt lat="45.0664484" lon="8.1082689"><ele>196.0</ele><time>2026-03-29T10:29:18.87Z</time></trkpt><trkpt lat="45.0664504" lon="8.1084353"><ele>195.0</ele><time>2026-03-29T10:29:19.869Z</time></trkpt><trkpt lat="45.0664375" lon="8.1086119"><ele>194.0</ele><time>2026-03-29T10:29:20.878Z</time></trkpt><trkpt lat="45.0664061" lon="8.1087906"><ele>193.0</ele><time>2026-03-29T10:29:21.874Z</time></trkpt><trkpt lat="45.0663622" lon="8.1089701"><ele>192.66666666666666</ele><time>2026-03-29T10:29:22.901Z</time></trkpt><trkpt lat="45.0663067" lon="8.1091621"><ele>192.33333333333331</ele><time>2026-03-29T10:29:23.867Z</time></trkpt><trkpt lat="45.0662425" lon="8.1093692"><ele>192.0</ele><time>2026-03-29T10:29:24.87Z</time></trkpt><trkpt lat="45.0661707" lon="8.1095971"><ele>192.0</ele><time>2026-03-29T10:29:25.883Z</time></trkpt><trkpt lat="45.0661031" lon="8.1098271"><ele>192.0</ele><time>2026-03-29T10:29:26.871Z</time></trkpt><trkpt lat="45.0660342" lon="8.1100507"><ele>192.0</ele><time>2026-03-29T10:29:27.871Z</time></trkpt><trkpt lat="45.0659638" lon="8.1102511"><ele>191.66666666666666</ele><time>2026-03-29T10:29:28.879Z</time></trkpt><trkpt lat="45.0658823" lon="8.1104342"><ele>191.33333333333331</ele><time>2026-03-29T10:29:29.867Z</time></trkpt><trkpt lat="45.0657928" lon="8.1106034"><ele>191.0</ele><time>2026-03-29T10:29:30.885Z</time></trkpt><trkpt lat="45.065697" lon="8.1107712"><ele>190.66666666666666</ele><time>2026-03-29T10:29:31.874Z</time></trkpt><trkpt lat="45.065595" lon="8.1109421"><ele>190.33333333333334</ele><time>2026-03-29T10:29:32.871Z</time></trkpt><trkpt lat="45.0654931" lon="8.1111178"><ele>190.0</ele><time>2026-03-29T10:29:33.879Z</time></trkpt><trkpt lat="45.0653947" lon="8.1112958"><ele>190.0</ele><time>2026-03-29T10:29:34.87Z</time></trkpt><trkpt lat="45.0653057" lon="8.1114699"><ele>190.0</ele><time>2026-03-29T10:29:35.877Z</time></trkpt><trkpt lat="45.0652325" lon="8.1116377"><ele>190.0</ele><time>2026-03-29T10:29:36.874Z</time></trkpt><trkpt lat="45.0651812" lon="8.1117899"><ele>190.0</ele><time>2026-03-29T10:29:37.9Z</time></trkpt><trkpt lat="45.0651512" lon="8.1119245"><ele>190.0</ele><time>2026-03-29T10:29:38.882Z</time></trkpt><trkpt lat="45.0651324" lon="8.1120322"><ele>190.0</ele><time>2026-03-29T10:29:39.883Z</time></trkpt><trkpt lat="45.0650753" lon="8.1121865"><ele>190.0</ele><time>2026-03-29T10:29:41.871Z</time></trkpt><trkpt lat="45.065021" lon="8.1122432"><ele>190.0</ele><time>2026-03-29T10:29:42.867Z</time></trkpt><trkpt lat="45.0649627" lon="8.1123002"><ele>190.0</ele><time>2026-03-29T10:29:43.881Z</time></trkpt><trkpt lat="45.0649147" lon="8.1123622"><ele>190.0</ele><time>2026-03-29T10:29:44.869Z</time></trkpt><trkpt lat="45.0648821" lon="8.1124422"><ele>189.83333333333334</ele><time>2026-03-29T10:29:45.882Z</time></trkpt><trkpt lat="45.0648739" lon="8.1125334"><ele>189.66666666666669</ele><time>2026-03-29T10:29:46.873Z</time></trkpt><trkpt lat="45.0648959" lon="8.1126178"><ele>189.5</ele><time>2026-03-29T10:29:47.87Z</time></trkpt><trkpt lat="45.0649447" lon="8.1126922"><ele>189.33333333333334</ele><time>2026-03-29T10:29:48.87Z</time></trkpt><trkpt lat="45.0650201" lon="8.1127467"><ele>189.16666666666666</ele><time>2026-03-29T10:29:49.865Z</time></trkpt><trkpt lat="45.0651123" lon="8.1127797"><ele>189.0</ele><time>2026-03-29T10:29:50.876Z</time></trkpt><trkpt lat="45.0652053" lon="8.1128066"><ele>189.0</ele><time>2026-03-29T10:29:51.867Z</time></trkpt><trkpt lat="45.0652838" lon="8.112854"><ele>189.0</ele><time>2026-03-29T10:29:52.882Z</time></trkpt><trkpt lat="45.0653546" lon="8.1129353"><ele>189.0</ele><time>2026-03-29T10:29:53.871Z</time></trkpt><trkpt lat="45.0654132" lon="8.1130562"><ele>189.0</ele><time>2026-03-29T10:29:54.869Z</time></trkpt><trkpt lat="45.0654729" lon="8.1131961"><ele>189.0</ele><time>2026-03-29T10:29:55.873Z</time></trkpt><trkpt lat="45.0655406" lon="8.1133415"><ele>188.5</ele><time>2026-03-29T10:29:56.888Z</time></trkpt><trkpt lat="45.0656119" lon="8.1135018"><ele>188.0</ele><time>2026-03-29T10:29:57.873Z</time></trkpt><trkpt lat="45.0656956" lon="8.1136695"><ele>187.5</ele><time>2026-03-29T10:29:58.876Z</time></trkpt><trkpt lat="45.065787" lon="8.1138564"><ele>187.0</ele><time>2026-03-29T10:29:59.874Z</time></trkpt><trkpt lat="45.0658843" lon="8.1140492"><ele>187.66666666666669</ele><time>2026-03-29T10:30:00.869Z</time></trkpt><trkpt lat="45.0659849" lon="8.1142484"><ele>188.33333333333334</ele><time>2026-03-29T10:30:01.875Z</time></trkpt><trkpt lat="45.0660893" lon="8.1144526"><ele>189.0</ele><time>2026-03-29T10:30:02.873Z</time></trkpt><trkpt lat="45.0661975" lon="8.1146658"><ele>189.0</ele><time>2026-03-29T10:30:03.885Z</time></trkpt><trkpt lat="45.0663072" lon="8.1148865"><ele>189.0</ele><time>2026-03-29T10:30:04.874Z</time></trkpt><trkpt lat="45.066415" lon="8.1151073"><ele>189.0</ele><time>2026-03-29T10:30:05.875Z</time></trkpt><trkpt lat="45.0665179" lon="8.1153242"><ele>189.0</ele><time>2026-03-29T10:30:06.878Z</time></trkpt><trkpt lat="45.0666161" lon="8.1155362"><ele>189.0</ele><time>2026-03-29T10:30:07.885Z</time></trkpt><trkpt lat="45.0667132" lon="8.115743"><ele>189.0</ele><time>2026-03-29T10:30:08.876Z</time></trkpt><trkpt lat="45.0668069" lon="8.1159425"><ele>189.0</ele><time>2026-03-29T10:30:09.876Z</time></trkpt><trkpt lat="45.066897" lon="8.1161238"><ele>189.0</ele><time>2026-03-29T10:30:10.877Z</time></trkpt><trkpt lat="45.0669783" lon="8.1162869"><ele>189.0</ele><time>2026-03-29T10:30:11.879Z</time></trkpt><trkpt lat="45.0670497" lon="8.1164285"><ele>189.0</ele><time>2026-03-29T10:30:12.874Z</time></trkpt><trkpt lat="45.0671131" lon="8.1165525"><ele>189.16666666666666</ele><time>2026-03-29T10:30:13.868Z</time></trkpt><trkpt lat="45.0671682" lon="8.1166617"><ele>189.33333333333334</ele><time>2026-03-29T10:30:14.874Z</time></trkpt><trkpt lat="45.0672131" lon="8.1167566"><ele>189.5</ele><time>2026-03-29T10:30:15.886Z</time></trkpt><trkpt lat="45.0672499" lon="8.1168309"><ele>189.66666666666669</ele><time>2026-03-29T10:30:16.873Z</time></trkpt><trkpt lat="45.0673072" lon="8.1169112"><ele>189.83333333333334</ele><time>2026-03-29T10:30:18.911Z</time></trkpt><trkpt lat="45.0673842" lon="8.1168719"><ele>190.0</ele><time>2026-03-29T10:30:21.876Z</time></trkpt><trkpt lat="45.0674672" lon="8.1168058"><ele>190.6</ele><time>2026-03-29T10:30:23.871Z</time></trkpt><trkpt lat="45.0675787" lon="8.1168161"><ele>191.2</ele><time>2026-03-29T10:30:25.873Z</time></trkpt><trkpt lat="45.0676686" lon="8.1168922"><ele>191.8</ele><time>2026-03-29T10:30:27.872Z</time></trkpt><trkpt lat="45.0677313" lon="8.1169786"><ele>192.4</ele><time>2026-03-29T10:30:29.877Z</time></trkpt><trkpt lat="45.0678236" lon="8.1170881"><ele>193.0</ele><time>2026-03-29T10:30:31.896Z</time></trkpt><trkpt lat="45.0678741" lon="8.1171473"><ele>193.00000000000003</ele><time>2026-03-29T10:30:32.874Z</time></trkpt><trkpt lat="45.067926" lon="8.1172054"><ele>193.0</ele><time>2026-03-29T10:30:33.88Z</time></trkpt><trkpt lat="45.0679801" lon="8.1172671"><ele>193.0</ele><time>2026-03-29T10:30:34.868Z</time></trkpt><trkpt lat="45.0680355" lon="8.1173307"><ele>193.0</ele><time>2026-03-29T10:30:35.895Z</time></trkpt><trkpt lat="45.0680984" lon="8.1174012"><ele>193.0</ele><time>2026-03-29T10:30:36.869Z</time></trkpt><trkpt lat="45.0681613" lon="8.1174662"><ele>193.00000000000003</ele><time>2026-03-29T10:30:37.869Z</time></trkpt><trkpt lat="45.0682243" lon="8.1175291"><ele>193.0</ele><time>2026-03-29T10:30:38.876Z</time></trkpt><trkpt lat="45.0682896" lon="8.1175898"><ele>193.66666666666666</ele><time>2026-03-29T10:30:39.892Z</time></trkpt><trkpt lat="45.0683566" lon="8.1176505"><ele>194.33333333333331</ele><time>2026-03-29T10:30:40.871Z</time></trkpt><trkpt lat="45.0684234" lon="8.1177067"><ele>195.0</ele><time>2026-03-29T10:30:41.869Z</time></trkpt><trkpt lat="45.0684949" lon="8.117758"><ele>195.66666666666669</ele><time>2026-03-29T10:30:42.87Z</time></trkpt><trkpt lat="45.0685698" lon="8.1178097"><ele>196.33333333333334</ele><time>2026-03-29T10:30:43.87Z</time></trkpt><trkpt lat="45.0686466" lon="8.1178632"><ele>197.0</ele><time>2026-03-29T10:30:44.904Z</time></trkpt><trkpt lat="45.0687203" lon="8.1179181"><ele>197.00000000000003</ele><time>2026-03-29T10:30:45.874Z</time></trkpt><trkpt lat="45.0687907" lon="8.1179668"><ele>197.0</ele><time>2026-03-29T10:30:46.874Z</time></trkpt><trkpt lat="45.0688601" lon="8.1180154"><ele>197.0</ele><time>2026-03-29T10:30:47.869Z</time></trkpt><trkpt lat="45.0689278" lon="8.1180649"><ele>197.0</ele><time>2026-03-29T10:30:48.871Z</time></trkpt><trkpt lat="45.0689967" lon="8.1181134"><ele>197.00000000000003</ele><time>2026-03-29T10:30:49.872Z</time></trkpt><trkpt lat="45.0690652" lon="8.1181653"><ele>197.0</ele><time>2026-03-29T10:30:50.893Z</time></trkpt><trkpt lat="45.0691327" lon="8.1182172"><ele>196.83333333333334</ele><time>2026-03-29T10:30:51.878Z</time></trkpt><trkpt lat="45.0691936" lon="8.1182592"><ele>196.66666666666669</ele><time>2026-03-29T10:30:52.883Z</time></trkpt><trkpt lat="45.0692819" lon="8.1183334"><ele>196.5</ele><time>2026-03-29T10:30:54.876Z</time></trkpt><trkpt lat="45.0693253" lon="8.1184009"><ele>196.33333333333331</ele><time>2026-03-29T10:30:56.896Z</time></trkpt><trkpt lat="45.0693732" lon="8.1184732"><ele>196.16666666666666</ele><time>2026-03-29T10:30:58.894Z</time></trkpt><trkpt lat="45.0694711" lon="8.1185693"><ele>196.0</ele><time>2026-03-29T10:31:00.903Z</time></trkpt><trkpt lat="45.0695334" lon="8.1186198"><ele>196.0</ele><time>2026-03-29T10:31:01.867Z</time></trkpt><trkpt lat="45.0696022" lon="8.1186617"><ele>196.0</ele><time>2026-03-29T10:31:02.876Z</time></trkpt><trkpt lat="45.0696739" lon="8.1187007"><ele>196.0</ele><time>2026-03-29T10:31:03.871Z</time></trkpt><trkpt lat="45.0697437" lon="8.1187345"><ele>196.0</ele><time>2026-03-29T10:31:04.872Z</time></trkpt><trkpt lat="45.0698086" lon="8.118763"><ele>196.0</ele><time>2026-03-29T10:31:05.899Z</time></trkpt><trkpt lat="45.0698734" lon="8.1187884"><ele>196.0</ele><time>2026-03-29T10:31:06.873Z</time></trkpt><trkpt lat="45.0699363" lon="8.1188131"><ele>196.0</ele><time>2026-03-29T10:31:07.884Z</time></trkpt><trkpt lat="45.0700023" lon="8.1188369"><ele>196.16666666666666</ele><time>2026-03-29T10:31:08.874Z</time></trkpt><trkpt lat="45.0700712" lon="8.1188616"><ele>196.33333333333331</ele><time>2026-03-29T10:31:09.873Z</time></trkpt><trkpt lat="45.0701836" lon="8.118896"><ele>196.5</ele><time>2026-03-29T10:31:11.875Z</time></trkpt><trkpt lat="45.0702524" lon="8.1189206"><ele>196.66666666666669</ele><time>2026-03-29T10:31:13.892Z</time></trkpt><trkpt lat="45.0703171" lon="8.1189676"><ele>196.83333333333334</ele><time>2026-03-29T10:31:37.873Z</time></trkpt><trkpt lat="45.0704279" lon="8.1190187"><ele>197.0</ele><time>2026-03-29T10:31:39.871Z</time></trkpt><trkpt lat="45.0705485" lon="8.1190652"><ele>197.16666666666669</ele><time>2026-03-29T10:31:41.877Z</time></trkpt><trkpt lat="45.0706696" lon="8.1191091"><ele>197.33333333333334</ele><time>2026-03-29T10:31:43.868Z</time></trkpt><trkpt lat="45.0707325" lon="8.1191418"><ele>197.5</ele><time>2026-03-29T10:31:44.903Z</time></trkpt><trkpt lat="45.0707943" lon="8.1191788"><ele>197.66666666666669</ele><time>2026-03-29T10:31:45.874Z</time></trkpt><trkpt lat="45.0708548" lon="8.1192291"><ele>197.83333333333334</ele><time>2026-03-29T10:31:46.875Z</time></trkpt><trkpt lat="45.0709159" lon="8.119289"><ele>198.0</ele><time>2026-03-29T10:31:47.875Z</time></trkpt><trkpt lat="45.0709736" lon="8.119354"><ele>198.0</ele><time>2026-03-29T10:31:48.872Z</time></trkpt><trkpt lat="45.0710277" lon="8.1194218"><ele>198.0</ele><time>2026-03-29T10:31:49.875Z</time></trkpt><trkpt lat="45.0710846" lon="8.1194966"><ele>198.0</ele><time>2026-03-29T10:31:50.894Z</time></trkpt><trkpt lat="45.0711385" lon="8.1195628"><ele>198.0</ele><time>2026-03-29T10:31:51.881Z</time></trkpt><trkpt lat="45.0711937" lon="8.1196268"><ele>198.0</ele><time>2026-03-29T10:31:52.871Z</time></trkpt><trkpt lat="45.0712531" lon="8.1196821"><ele>198.0</ele><time>2026-03-29T10:31:53.868Z</time></trkpt><trkpt lat="45.0713194" lon="8.1197459"><ele>198.0</ele><time>2026-03-29T10:31:54.867Z</time></trkpt><trkpt lat="45.0713979" lon="8.1198038"><ele>198.0</ele><time>2026-03-29T10:31:55.872Z</time></trkpt><trkpt lat="45.0714794" lon="8.1198664"><ele>198.0</ele><time>2026-03-29T10:31:56.875Z</time></trkpt><trkpt lat="45.0715625" lon="8.1199263"><ele>198.0</ele><time>2026-03-29T10:31:57.877Z</time></trkpt><trkpt lat="45.0716458" lon="8.1199801"><ele>198.0</ele><time>2026-03-29T10:31:58.882Z</time></trkpt><trkpt lat="45.0717242" lon="8.1200279"><ele>198.0</ele><time>2026-03-29T10:31:59.895Z</time></trkpt><trkpt lat="45.0717986" lon="8.1200698"><ele>198.0</ele><time>2026-03-29T10:32:00.886Z</time></trkpt><trkpt lat="45.0718737" lon="8.1201039"><ele>198.33333333333334</ele><time>2026-03-29T10:32:01.871Z</time></trkpt><trkpt lat="45.0719534" lon="8.1201345"><ele>198.66666666666669</ele><time>2026-03-29T10:32:02.902Z</time></trkpt><trkpt lat="45.0720354" lon="8.1201658"><ele>199.0</ele><time>2026-03-29T10:32:03.875Z</time></trkpt><trkpt lat="45.0721221" lon="8.1201952"><ele>199.33333333333334</ele><time>2026-03-29T10:32:04.876Z</time></trkpt><trkpt lat="45.0722105" lon="8.1202211"><ele>199.66666666666669</ele><time>2026-03-29T10:32:05.884Z</time></trkpt><trkpt lat="45.0722923" lon="8.1202439"><ele>200.0</ele><time>2026-03-29T10:32:06.88Z</time></trkpt><trkpt lat="45.0723691" lon="8.1202662"><ele>201.33333333333334</ele><time>2026-03-29T10:32:07.872Z</time></trkpt><trkpt lat="45.0724441" lon="8.1202877"><ele>202.66666666666669</ele><time>2026-03-29T10:32:08.88Z</time></trkpt><trkpt lat="45.0725191" lon="8.1203054"><ele>204.0</ele><time>2026-03-29T10:32:09.874Z</time></trkpt><trkpt lat="45.0725964" lon="8.1203172"><ele>205.33333333333331</ele><time>2026-03-29T10:32:10.871Z</time></trkpt><trkpt lat="45.0726772" lon="8.12032"><ele>206.66666666666666</ele><time>2026-03-29T10:32:11.879Z</time></trkpt><trkpt lat="45.072762" lon="8.1203164"><ele>208.0</ele><time>2026-03-29T10:32:12.87Z</time></trkpt><trkpt lat="45.0728477" lon="8.1203093"><ele>207.99999999999997</ele><time>2026-03-29T10:32:13.868Z</time></trkpt><trkpt lat="45.0729309" lon="8.120302"><ele>208.0</ele><time>2026-03-29T10:32:14.876Z</time></trkpt><trkpt lat="45.0730113" lon="8.1202951"><ele>208.0</ele><time>2026-03-29T10:32:15.871Z</time></trkpt><trkpt lat="45.0730867" lon="8.1202851"><ele>208.0</ele><time>2026-03-29T10:32:16.871Z</time></trkpt><trkpt lat="45.0731593" lon="8.1202709"><ele>207.99999999999997</ele><time>2026-03-29T10:32:17.869Z</time></trkpt><trkpt lat="45.0732297" lon="8.1202556"><ele>208.0</ele><time>2026-03-29T10:32:18.868Z</time></trkpt><trkpt lat="45.0733008" lon="8.1202376"><ele>208.0</ele><time>2026-03-29T10:32:19.867Z</time></trkpt><trkpt lat="45.0733717" lon="8.1202188"><ele>208.0</ele><time>2026-03-29T10:32:20.869Z</time></trkpt><trkpt lat="45.0734426" lon="8.120197"><ele>208.0</ele><time>2026-03-29T10:32:21.866Z</time></trkpt><trkpt lat="45.073512" lon="8.1201757"><ele>208.0</ele><time>2026-03-29T10:32:22.873Z</time></trkpt><trkpt lat="45.0735763" lon="8.1201536"><ele>208.0</ele><time>2026-03-29T10:32:23.875Z</time></trkpt><trkpt lat="45.0736409" lon="8.1201275"><ele>208.0</ele><time>2026-03-29T10:32:24.872Z</time></trkpt><trkpt lat="45.0737138" lon="8.1200985"><ele>208.0</ele><time>2026-03-29T10:32:25.875Z</time></trkpt><trkpt lat="45.0737855" lon="8.1200739"><ele>208.0</ele><time>2026-03-29T10:32:26.87Z</time></trkpt><trkpt lat="45.0738609" lon="8.1200537"><ele>208.0</ele><time>2026-03-29T10:32:27.877Z</time></trkpt><trkpt lat="45.0739323" lon="8.1200406"><ele>208.0</ele><time>2026-03-29T10:32:28.874Z</time></trkpt><trkpt lat="45.0740028" lon="8.1200346"><ele>208.0</ele><time>2026-03-29T10:32:29.864Z</time></trkpt><trkpt lat="45.074075" lon="8.1200281"><ele>208.0</ele><time>2026-03-29T10:32:30.867Z</time></trkpt><trkpt lat="45.0741434" lon="8.1200237"><ele>208.0</ele><time>2026-03-29T10:32:31.87Z</time></trkpt><trkpt lat="45.0742092" lon="8.1200193"><ele>208.0</ele><time>2026-03-29T10:32:32.872Z</time></trkpt><trkpt lat="45.0743361" lon="8.1200047"><ele>207.83333333333331</ele><time>2026-03-29T10:32:34.869Z</time></trkpt><trkpt lat="45.0744029" lon="8.1200007"><ele>207.66666666666666</ele><time>2026-03-29T10:32:35.872Z</time></trkpt><trkpt lat="45.0744727" lon="8.119999"><ele>207.5</ele><time>2026-03-29T10:32:36.879Z</time></trkpt><trkpt lat="45.0745452" lon="8.1200027"><ele>207.33333333333331</ele><time>2026-03-29T10:32:37.873Z</time></trkpt><trkpt lat="45.074617" lon="8.1200116"><ele>207.16666666666666</ele><time>2026-03-29T10:32:38.87Z</time></trkpt><trkpt lat="45.0747224" lon="8.1200363"><ele>207.0</ele><time>2026-03-29T10:32:40.869Z</time></trkpt><trkpt lat="45.0747866" lon="8.1200687"><ele>207.0</ele><time>2026-03-29T10:32:58.886Z</time></trkpt><trkpt lat="45.0747472" lon="8.120308"><ele>207.0</ele><time>2026-03-29T10:33:06.872Z</time></trkpt><trkpt lat="45.0746816" lon="8.1204348"><ele>207.0</ele><time>2026-03-29T10:33:08.87Z</time></trkpt><trkpt lat="45.0746161" lon="8.120573"><ele>207.0</ele><time>2026-03-29T10:33:10.867Z</time></trkpt><trkpt lat="45.0745506" lon="8.1207002"><ele>207.16666666666666</ele><time>2026-03-29T10:33:12.886Z</time></trkpt><trkpt lat="45.0745054" lon="8.1208"><ele>207.33333333333331</ele><time>2026-03-29T10:33:14.88Z</time></trkpt><trkpt lat="45.0744577" lon="8.1208707"><ele>207.5</ele><time>2026-03-29T10:33:23.871Z</time></trkpt><trkpt lat="45.0744156" lon="8.1209689"><ele>207.66666666666666</ele><time>2026-03-29T10:33:26.871Z</time></trkpt><trkpt lat="45.0743923" lon="8.1210528"><ele>207.83333333333331</ele><time>2026-03-29T10:33:28.879Z</time></trkpt><trkpt lat="45.0743423" lon="8.1211831"><ele>208.0</ele><time>2026-03-29T10:33:30.883Z</time></trkpt><trkpt lat="45.07425" lon="8.121286"><ele>207.99999999999997</ele><time>2026-03-29T10:33:32.872Z</time></trkpt><trkpt lat="45.0741762" lon="8.1212898"><ele>208.0</ele><time>2026-03-29T10:33:35.876Z</time></trkpt><trkpt lat="45.0741143" lon="8.1212624"><ele>208.0</ele><time>2026-03-29T10:33:37.87Z</time></trkpt><trkpt lat="45.0740572" lon="8.1212085"><ele>208.0</ele><time>2026-03-29T10:33:40.874Z</time></trkpt><trkpt lat="45.0739946" lon="8.1211601"><ele>207.99999999999997</ele><time>2026-03-29T10:33:42.882Z</time></trkpt><trkpt lat="45.073913" lon="8.121099"><ele>208.0</ele><time>2026-03-29T10:33:46.868Z</time></trkpt><trkpt lat="45.0739702" lon="8.1211894"><ele>207.99999999999997</ele><time>2026-03-29T10:34:25.875Z</time></trkpt><trkpt lat="45.0740426" lon="8.1212161"><ele>208.0</ele><time>2026-03-29T10:34:29.878Z</time></trkpt><trkpt lat="45.0741086" lon="8.1212356"><ele>208.0</ele><time>2026-03-29T10:35:14.908Z</time></trkpt><trkpt lat="45.0741952" lon="8.1212428"><ele>208.0</ele><time>2026-03-29T10:35:17.868Z</time></trkpt><trkpt lat="45.0742707" lon="8.1212461"><ele>207.99999999999997</ele><time>2026-03-29T10:35:19.867Z</time></trkpt><trkpt lat="45.0743343" lon="8.1212146"><ele>208.0</ele><time>2026-03-29T10:35:21.872Z</time></trkpt><trkpt lat="45.0743572" lon="8.1210998"><ele>208.0</ele><time>2026-03-29T10:35:26.875Z</time></trkpt><trkpt lat="45.0743987" lon="8.1209667"><ele>208.0</ele><time>2026-03-29T10:35:30.882Z</time></trkpt><trkpt lat="45.0744284" lon="8.1208775"><ele>208.0</ele><time>2026-03-29T10:35:32.87Z</time></trkpt><trkpt lat="45.0744771" lon="8.1207939"><ele>208.0</ele><time>2026-03-29T10:35:33.87Z</time></trkpt><trkpt lat="45.0745354" lon="8.120663"><ele>208.0</ele><time>2026-03-29T10:35:35.869Z</time></trkpt><trkpt lat="45.0745896" lon="8.1205264"><ele>207.66666666666666</ele><time>2026-03-29T10:35:37.879Z</time></trkpt><trkpt lat="45.0746825" lon="8.1202833"><ele>207.33333333333331</ele><time>2026-03-29T10:35:39.874Z</time></trkpt><trkpt lat="45.0748213" lon="8.1202392"><ele>207.0</ele><time>2026-03-29T10:35:40.864Z</time></trkpt><trkpt lat="45.0746586" lon="8.1202834"><ele>207.0</ele><time>2026-03-29T10:35:41.871Z</time></trkpt><trkpt lat="45.0747717" lon="8.120148"><ele>207.0</ele><time>2026-03-29T10:35:48.871Z</time></trkpt><trkpt lat="45.0748812" lon="8.1201582"><ele>207.0</ele><time>2026-03-29T10:35:49.883Z</time></trkpt><trkpt lat="45.0749677" lon="8.1201765"><ele>207.0</ele><time>2026-03-29T10:35:50.888Z</time></trkpt><trkpt lat="45.0750497" lon="8.1201596"><ele>207.0</ele><time>2026-03-29T10:35:51.869Z</time></trkpt><trkpt lat="45.07513" lon="8.1201336"><ele>207.5</ele><time>2026-03-29T10:35:52.876Z</time></trkpt><trkpt lat="45.0752077" lon="8.1201122"><ele>208.0</ele><time>2026-03-29T10:35:53.871Z</time></trkpt><trkpt lat="45.07524" lon="8.1202028"><ele>208.5</ele><time>2026-03-29T10:36:05.875Z</time></trkpt><trkpt lat="45.075289" lon="8.120289"><ele>209.0</ele><time>2026-03-29T10:36:09.877Z</time></trkpt><trkpt lat="45.0753805" lon="8.120353"><ele>209.5</ele><time>2026-03-29T10:36:11.871Z</time></trkpt><trkpt lat="45.075484" lon="8.1204097"><ele>210.0</ele><time>2026-03-29T10:36:13.868Z</time></trkpt><trkpt lat="45.0755468" lon="8.1204474"><ele>210.0</ele><time>2026-03-29T10:36:15.873Z</time></trkpt><trkpt lat="45.0756987" lon="8.1203978"><ele>210.0</ele><time>2026-03-29T10:36:23.869Z</time></trkpt><trkpt lat="45.0757128" lon="8.120305"><ele>210.0</ele><time>2026-03-29T10:36:26.886Z</time></trkpt><trkpt lat="45.0756331" lon="8.1202348"><ele>210.0</ele><time>2026-03-29T10:36:29.886Z</time></trkpt><trkpt lat="45.0755785" lon="8.1203026"><ele>210.0</ele><time>2026-03-29T10:36:32.872Z</time></trkpt><trkpt lat="45.0755263" lon="8.1203897"><ele>210.0</ele><time>2026-03-29T10:36:36.876Z</time></trkpt><trkpt lat="45.0754402" lon="8.1203231"><ele>210.0</ele><time>2026-03-29T10:36:38.869Z</time></trkpt><trkpt lat="45.0753894" lon="8.1202628"><ele>210.0</ele><time>2026-03-29T10:36:39.875Z</time></trkpt><trkpt lat="45.0753047" lon="8.120141"><ele>210.0</ele><time>2026-03-29T10:36:41.904Z</time></trkpt><trkpt lat="45.0753502" lon="8.11992"><ele>210.0</ele><time>2026-03-29T10:36:45.876Z</time></trkpt><trkpt lat="45.0753763" lon="8.1198151"><ele>211.0</ele><time>2026-03-29T10:36:46.875Z</time></trkpt><trkpt lat="45.0753878" lon="8.1197206"><ele>212.0</ele><time>2026-03-29T10:36:47.876Z</time></trkpt><trkpt lat="45.0753626" lon="8.1195376"><ele>213.0</ele><time>2026-03-29T10:36:49.878Z</time></trkpt><trkpt lat="45.0753344" lon="8.1194355"><ele>214.0</ele><time>2026-03-29T10:36:50.866Z</time></trkpt><trkpt lat="45.0752952" lon="8.1193646"><ele>215.0</ele><time>2026-03-29T10:36:51.877Z</time></trkpt><trkpt lat="45.0752187" lon="8.1192594"><ele>216.0</ele><time>2026-03-29T10:36:53.867Z</time></trkpt><trkpt lat="45.075176" lon="8.1191801"><ele>216.0</ele><time>2026-03-29T10:36:54.889Z</time></trkpt><trkpt lat="45.0751343" lon="8.1191051"><ele>216.0</ele><time>2026-03-29T10:36:55.874Z</time></trkpt><trkpt lat="45.0750876" lon="8.1190118"><ele>216.0</ele><time>2026-03-29T10:36:56.872Z</time></trkpt><trkpt lat="45.0750458" lon="8.1189174"><ele>216.0</ele><time>2026-03-29T10:36:57.876Z</time></trkpt><trkpt lat="45.0750181" lon="8.1188019"><ele>216.0</ele><time>2026-03-29T10:36:58.869Z</time></trkpt><trkpt lat="45.0749952" lon="8.1186865"><ele>216.0</ele><time>2026-03-29T10:36:59.87Z</time></trkpt><trkpt lat="45.0750155" lon="8.1185327"><ele>218.60000000000002</ele><time>2026-03-29T10:37:01.868Z</time></trkpt><trkpt lat="45.0750202" lon="8.1183812"><ele>221.20000000000002</ele><time>2026-03-29T10:37:02.869Z</time></trkpt><trkpt lat="45.0750286" lon="8.1182573"><ele>223.79999999999998</ele><time>2026-03-29T10:37:03.88Z</time></trkpt><trkpt lat="45.075096" lon="8.1181608"><ele>226.39999999999998</ele><time>2026-03-29T10:37:05.874Z</time></trkpt><trkpt lat="45.0750903" lon="8.1182935"><ele>229.0</ele><time>2026-03-29T10:37:06.87Z</time></trkpt><trkpt lat="45.0751708" lon="8.1182173"><ele>231.0</ele><time>2026-03-29T10:37:08.882Z</time></trkpt><trkpt lat="45.0752085" lon="8.1181385"><ele>233.0</ele><time>2026-03-29T10:37:09.866Z</time></trkpt><trkpt lat="45.0753076" lon="8.1179883"><ele>235.0</ele><time>2026-03-29T10:37:11.867Z</time></trkpt><trkpt lat="45.075413" lon="8.1179003"><ele>237.0</ele><time>2026-03-29T10:37:16.873Z</time></trkpt><trkpt lat="45.0755344" lon="8.1177807"><ele>237.0</ele><time>2026-03-29T10:37:18.886Z</time></trkpt><trkpt lat="45.0755868" lon="8.1177126"><ele>237.0</ele><time>2026-03-29T10:37:19.874Z</time></trkpt><trkpt lat="45.0756617" lon="8.1176008"><ele>237.0</ele><time>2026-03-29T10:37:20.867Z</time></trkpt><trkpt lat="45.0757516" lon="8.1174504"><ele>237.0</ele><time>2026-03-29T10:37:22.872Z</time></trkpt><trkpt lat="45.0758394" lon="8.1172803"><ele>239.2</ele><time>2026-03-29T10:37:24.869Z</time></trkpt><trkpt lat="45.0759101" lon="8.1171769"><ele>241.39999999999998</ele><time>2026-03-29T10:37:25.87Z</time></trkpt><trkpt lat="45.0759399" lon="8.1170643"><ele>243.60000000000002</ele><time>2026-03-29T10:37:27.873Z</time></trkpt><trkpt lat="45.0759655" lon="8.1169573"><ele>245.8</ele><time>2026-03-29T10:37:29.881Z</time></trkpt><trkpt lat="45.0760028" lon="8.116861"><ele>248.0</ele><time>2026-03-29T10:37:30.873Z</time></trkpt><trkpt lat="45.0760762" lon="8.1167321"><ele>248.0</ele><time>2026-03-29T10:37:31.868Z</time></trkpt><trkpt lat="45.0761131" lon="8.1166545"><ele>248.0</ele><time>2026-03-29T10:37:32.867Z</time></trkpt><trkpt lat="45.0761675" lon="8.1165338"><ele>248.0</ele><time>2026-03-29T10:37:36.866Z</time></trkpt><trkpt lat="45.076234" lon="8.1164653"><ele>248.0</ele><time>2026-03-29T10:37:38.893Z</time></trkpt><trkpt lat="45.0762794" lon="8.1163908"><ele>248.0</ele><time>2026-03-29T10:37:39.866Z</time></trkpt><trkpt lat="45.0763875" lon="8.1161802"><ele>250.25</ele><time>2026-03-29T10:37:45.877Z</time></trkpt><trkpt lat="45.0764517" lon="8.1159477"><ele>252.5</ele><time>2026-03-29T10:37:47.869Z</time></trkpt><trkpt lat="45.0765213" lon="8.1157914"><ele>254.75</ele><time>2026-03-29T10:37:48.874Z</time></trkpt><trkpt lat="45.0764712" lon="8.115682"><ele>257.0</ele><time>2026-03-29T10:37:50.872Z</time></trkpt><trkpt lat="45.0765438" lon="8.1155241"><ele>258.4</ele><time>2026-03-29T10:37:51.865Z</time></trkpt><trkpt lat="45.0765779" lon="8.1153814"><ele>259.79999999999995</ele><time>2026-03-29T10:37:52.871Z</time></trkpt><trkpt lat="45.0766439" lon="8.1152143"><ele>261.2</ele><time>2026-03-29T10:37:53.883Z</time></trkpt><trkpt lat="45.0766764" lon="8.1151039"><ele>262.59999999999997</ele><time>2026-03-29T10:37:54.869Z</time></trkpt><trkpt lat="45.0766819" lon="8.1149746"><ele>264.0</ele><time>2026-03-29T10:38:03.867Z</time></trkpt><trkpt lat="45.0766299" lon="8.1151444"><ele>264.0</ele><time>2026-03-29T10:38:04.877Z</time></trkpt><trkpt lat="45.0765384" lon="8.1150828"><ele>264.0</ele><time>2026-03-29T10:38:07.874Z</time></trkpt><trkpt lat="45.0764013" lon="8.1149922"><ele>264.0</ele><time>2026-03-29T10:38:10.871Z</time></trkpt><trkpt lat="45.0763338" lon="8.1149675"><ele>264.0</ele><time>2026-03-29T10:38:11.871Z</time></trkpt><trkpt lat="45.0762479" lon="8.1148959"><ele>264.0</ele><time>2026-03-29T10:38:13.869Z</time></trkpt><trkpt lat="45.0761469" lon="8.1148303"><ele>264.5</ele><time>2026-03-29T10:38:15.877Z</time></trkpt><trkpt lat="45.0760838" lon="8.1148029"><ele>265.0</ele><time>2026-03-29T10:38:16.877Z</time></trkpt><trkpt lat="45.07592" lon="8.1147096"><ele>265.5</ele><time>2026-03-29T10:38:19.875Z</time></trkpt><trkpt lat="45.0758364" lon="8.1146389"><ele>266.0</ele><time>2026-03-29T10:38:20.867Z</time></trkpt><trkpt lat="45.07568" lon="8.1145207"><ele>266.5</ele><time>2026-03-29T10:38:21.873Z</time></trkpt><trkpt lat="45.075582" lon="8.1144187"><ele>267.0</ele><time>2026-03-29T10:38:22.862Z</time></trkpt><trkpt lat="45.0754999" lon="8.1143288"><ele>267.5</ele><time>2026-03-29T10:38:23.868Z</time></trkpt><trkpt lat="45.0754169" lon="8.1142301"><ele>268.0</ele><time>2026-03-29T10:38:24.871Z</time></trkpt><trkpt lat="45.075318" lon="8.114137"><ele>267.2</ele><time>2026-03-29T10:38:25.868Z</time></trkpt><trkpt lat="45.0752333" lon="8.114065"><ele>266.4</ele><time>2026-03-29T10:38:26.868Z</time></trkpt><trkpt lat="45.0751566" lon="8.113996"><ele>265.59999999999997</ele><time>2026-03-29T10:38:27.878Z</time></trkpt><trkpt lat="45.0750676" lon="8.1139199"><ele>264.8</ele><time>2026-03-29T10:38:28.867Z</time></trkpt><trkpt lat="45.074959" lon="8.1138304"><ele>264.0</ele><time>2026-03-29T10:38:29.873Z</time></trkpt><trkpt lat="45.0748811" lon="8.1137579"><ele>264.0</ele><time>2026-03-29T10:38:30.873Z</time></trkpt><trkpt lat="45.0747857" lon="8.1136757"><ele>264.0</ele><time>2026-03-29T10:38:31.875Z</time></trkpt><trkpt lat="45.0747132" lon="8.1136195"><ele>264.0</ele><time>2026-03-29T10:38:32.864Z</time></trkpt><trkpt lat="45.0746116" lon="8.1135332"><ele>264.0</ele><time>2026-03-29T10:38:33.865Z</time></trkpt><trkpt lat="45.0745309" lon="8.1134715"><ele>264.0</ele><time>2026-03-29T10:38:34.87Z</time></trkpt><trkpt lat="45.0744367" lon="8.1133934"><ele>264.0</ele><time>2026-03-29T10:38:35.878Z</time></trkpt><trkpt lat="45.074373" lon="8.1132694"><ele>264.0</ele><time>2026-03-29T10:38:37.875Z</time></trkpt><trkpt lat="45.0743227" lon="8.11319"><ele>264.0</ele><time>2026-03-29T10:38:38.873Z</time></trkpt><trkpt lat="45.0742568" lon="8.1130927"><ele>264.0</ele><time>2026-03-29T10:38:39.903Z</time></trkpt><trkpt lat="45.0742042" lon="8.1130157"><ele>264.0</ele><time>2026-03-29T10:38:40.872Z</time></trkpt><trkpt lat="45.0741458" lon="8.1129357"><ele>264.0</ele><time>2026-03-29T10:38:41.87Z</time></trkpt><trkpt lat="45.0740393" lon="8.1127954"><ele>262.25</ele><time>2026-03-29T10:38:42.873Z</time></trkpt><trkpt lat="45.0739509" lon="8.1126898"><ele>260.5</ele><time>2026-03-29T10:38:43.865Z</time></trkpt><trkpt lat="45.0738499" lon="8.1125667"><ele>258.75</ele><time>2026-03-29T10:38:45.865Z</time></trkpt><trkpt lat="45.073776" lon="8.112461"><ele>257.0</ele><time>2026-03-29T10:38:46.87Z</time></trkpt><trkpt lat="45.0736973" lon="8.1123532"><ele>254.33333333333334</ele><time>2026-03-29T10:38:47.876Z</time></trkpt><trkpt lat="45.0735991" lon="8.1122254"><ele>251.66666666666669</ele><time>2026-03-29T10:38:48.865Z</time></trkpt><trkpt lat="45.0734458" lon="8.1120043"><ele>249.0</ele><time>2026-03-29T10:38:49.874Z</time></trkpt><trkpt lat="45.0734832" lon="8.1121543"><ele>249.0</ele><time>2026-03-29T10:38:51.886Z</time></trkpt><trkpt lat="45.0734548" lon="8.1122515"><ele>249.0</ele><time>2026-03-29T10:38:54.875Z</time></trkpt><trkpt lat="45.0734107" lon="8.1124145"><ele>249.0</ele><time>2026-03-29T10:38:55.877Z</time></trkpt><trkpt lat="45.0733469" lon="8.1124932"><ele>249.0</ele><time>2026-03-29T10:38:57.873Z</time></trkpt><trkpt lat="45.073391" lon="8.1123757"><ele>249.0</ele><time>2026-03-29T10:41:48.885Z</time></trkpt><trkpt lat="45.0733379" lon="8.1123174"><ele>249.0</ele><time>2026-03-29T10:41:52.905Z</time></trkpt><trkpt lat="45.0733835" lon="8.1124035"><ele>250.6</ele><time>2026-03-29T10:41:53.869Z</time></trkpt><trkpt lat="45.0734399" lon="8.1124746"><ele>252.2</ele><time>2026-03-29T10:41:55.868Z</time></trkpt><trkpt lat="45.0734917" lon="8.1125745"><ele>253.79999999999998</ele><time>2026-03-29T10:41:56.87Z</time></trkpt><trkpt lat="45.0735462" lon="8.1126607"><ele>255.39999999999998</ele><time>2026-03-29T10:41:57.874Z</time></trkpt><trkpt lat="45.0736105" lon="8.112776"><ele>257.0</ele><time>2026-03-29T10:41:58.869Z</time></trkpt><trkpt lat="45.0736835" lon="8.1129013"><ele>257.0</ele><time>2026-03-29T10:41:59.871Z</time></trkpt><trkpt lat="45.0737631" lon="8.1130371"><ele>257.0</ele><time>2026-03-29T10:42:00.872Z</time></trkpt><trkpt lat="45.0738625" lon="8.1131892"><ele>257.0</ele><time>2026-03-29T10:42:01.868Z</time></trkpt><trkpt lat="45.0739397" lon="8.1133111"><ele>257.0</ele><time>2026-03-29T10:42:02.867Z</time></trkpt><trkpt lat="45.0740485" lon="8.1134632"><ele>258.75</ele><time>2026-03-29T10:42:03.868Z</time></trkpt><trkpt lat="45.0741641" lon="8.1136046"><ele>260.5</ele><time>2026-03-29T10:42:04.869Z</time></trkpt><trkpt lat="45.0742431" lon="8.1136471"><ele>262.25</ele><time>2026-03-29T10:42:05.871Z</time></trkpt><trkpt lat="45.0743599" lon="8.1137266"><ele>264.0</ele><time>2026-03-29T10:42:06.873Z</time></trkpt><trkpt lat="45.0744544" lon="8.1137838"><ele>264.0</ele><time>2026-03-29T10:42:07.867Z</time></trkpt><trkpt lat="45.0745264" lon="8.1138291"><ele>264.0</ele><time>2026-03-29T10:42:08.869Z</time></trkpt><trkpt lat="45.0746235" lon="8.1139121"><ele>264.0</ele><time>2026-03-29T10:42:09.871Z</time></trkpt><trkpt lat="45.0746994" lon="8.113973"><ele>264.0</ele><time>2026-03-29T10:42:10.88Z</time></trkpt><trkpt lat="45.0747844" lon="8.1140438"><ele>264.0</ele><time>2026-03-29T10:42:11.879Z</time></trkpt><trkpt lat="45.0748604" lon="8.1140894"><ele>264.6666666666667</ele><time>2026-03-29T10:42:12.889Z</time></trkpt><trkpt lat="45.0749206" lon="8.1141324"><ele>265.3333333333333</ele><time>2026-03-29T10:42:13.882Z</time></trkpt><trkpt lat="45.074999" lon="8.1141932"><ele>266.0</ele><time>2026-03-29T10:42:14.874Z</time></trkpt><trkpt lat="45.0750735" lon="8.1142457"><ele>266.66666666666663</ele><time>2026-03-29T10:42:15.895Z</time></trkpt><trkpt lat="45.0751529" lon="8.114311"><ele>267.3333333333333</ele><time>2026-03-29T10:42:16.869Z</time></trkpt><trkpt lat="45.0752192" lon="8.1143734"><ele>268.0</ele><time>2026-03-29T10:42:17.865Z</time></trkpt><trkpt lat="45.0753172" lon="8.1144646"><ele>268.0</ele><time>2026-03-29T10:42:18.872Z</time></trkpt><trkpt lat="45.0754022" lon="8.1145277"><ele>268.0</ele><time>2026-03-29T10:42:19.866Z</time></trkpt><trkpt lat="45.0754863" lon="8.1145758"><ele>268.0</ele><time>2026-03-29T10:42:20.872Z</time></trkpt><trkpt lat="45.0755675" lon="8.114582"><ele>268.0</ele><time>2026-03-29T10:42:21.873Z</time></trkpt><trkpt lat="45.0756739" lon="8.1145817"><ele>268.0</ele><time>2026-03-29T10:42:22.883Z</time></trkpt><trkpt lat="45.0757817" lon="8.1145807"><ele>267.6</ele><time>2026-03-29T10:42:23.866Z</time></trkpt><trkpt lat="45.0758974" lon="8.1145899"><ele>267.20000000000005</ele><time>2026-03-29T10:42:24.887Z</time></trkpt><trkpt lat="45.0760191" lon="8.1146217"><ele>266.8</ele><time>2026-03-29T10:42:25.869Z</time></trkpt><trkpt lat="45.0761103" lon="8.1146444"><ele>266.40000000000003</ele><time>2026-03-29T10:42:26.866Z</time></trkpt><trkpt lat="45.0762096" lon="8.1146684"><ele>266.0</ele><time>2026-03-29T10:42:27.877Z</time></trkpt><trkpt lat="45.0762783" lon="8.1146766"><ele>266.0</ele><time>2026-03-29T10:42:28.868Z</time></trkpt><trkpt lat="45.0763682" lon="8.1146941"><ele>266.0</ele><time>2026-03-29T10:42:30.871Z</time></trkpt><trkpt lat="45.0764321" lon="8.1147254"><ele>266.0</ele><time>2026-03-29T10:42:31.87Z</time></trkpt><trkpt lat="45.0766017" lon="8.1148193"><ele>266.0</ele><time>2026-03-29T10:42:32.874Z</time></trkpt><trkpt lat="45.0767047" lon="8.1148814"><ele>266.6666666666667</ele><time>2026-03-29T10:42:33.901Z</time></trkpt><trkpt lat="45.0767649" lon="8.1149593"><ele>267.33333333333337</ele><time>2026-03-29T10:42:36.873Z</time></trkpt><trkpt lat="45.0768269" lon="8.1150325"><ele>268.0</ele><time>2026-03-29T10:42:37.87Z</time></trkpt><trkpt lat="45.0768835" lon="8.1151054"><ele>268.6666666666667</ele><time>2026-03-29T10:42:38.873Z</time></trkpt><trkpt lat="45.0769292" lon="8.1151776"><ele>269.3333333333333</ele><time>2026-03-29T10:42:39.866Z</time></trkpt><trkpt lat="45.0769737" lon="8.1152655"><ele>270.0</ele><time>2026-03-29T10:42:40.882Z</time></trkpt><trkpt lat="45.0770193" lon="8.1153727"><ele>270.0</ele><time>2026-03-29T10:42:41.874Z</time></trkpt><trkpt lat="45.077046" lon="8.1154638"><ele>270.0</ele><time>2026-03-29T10:42:42.869Z</time></trkpt><trkpt lat="45.0771205" lon="8.115703"><ele>270.0</ele><time>2026-03-29T10:42:44.866Z</time></trkpt><trkpt lat="45.0771728" lon="8.1157843"><ele>270.0</ele><time>2026-03-29T10:42:46.863Z</time></trkpt><trkpt lat="45.0773127" lon="8.115958"><ele>268.0</ele><time>2026-03-29T10:42:47.869Z</time></trkpt><trkpt lat="45.077433" lon="8.1160797"><ele>266.0</ele><time>2026-03-29T10:42:48.88Z</time></trkpt><trkpt lat="45.077641" lon="8.1161268"><ele>264.0</ele><time>2026-03-29T10:42:49.87Z</time></trkpt><trkpt lat="45.0777287" lon="8.116192"><ele>266.0</ele><time>2026-03-29T10:42:50.891Z</time></trkpt><trkpt lat="45.077804" lon="8.1162607"><ele>268.0</ele><time>2026-03-29T10:42:51.86Z</time></trkpt><trkpt lat="45.0778747" lon="8.1163402"><ele>270.0</ele><time>2026-03-29T10:42:52.863Z</time></trkpt><trkpt lat="45.0779345" lon="8.1164556"><ele>272.0</ele><time>2026-03-29T10:42:53.861Z</time></trkpt><trkpt lat="45.0779825" lon="8.1166012"><ele>274.0</ele><time>2026-03-29T10:42:54.865Z</time></trkpt><trkpt lat="45.0780244" lon="8.1167688"><ele>274.0</ele><time>2026-03-29T10:42:55.862Z</time></trkpt><trkpt lat="45.0780657" lon="8.1169447"><ele>274.0</ele><time>2026-03-29T10:42:56.863Z</time></trkpt><trkpt lat="45.0781101" lon="8.1170914"><ele>274.0</ele><time>2026-03-29T10:42:57.862Z</time></trkpt><trkpt lat="45.0781553" lon="8.1172208"><ele>274.0</ele><time>2026-03-29T10:42:58.884Z</time></trkpt><trkpt lat="45.0782123" lon="8.117322"><ele>274.0</ele><time>2026-03-29T10:42:59.868Z</time></trkpt><trkpt lat="45.0782821" lon="8.1173958"><ele>276.59999999999997</ele><time>2026-03-29T10:43:00.864Z</time></trkpt><trkpt lat="45.0783595" lon="8.1174489"><ele>279.2</ele><time>2026-03-29T10:43:01.866Z</time></trkpt><trkpt lat="45.0784457" lon="8.1174926"><ele>281.79999999999995</ele><time>2026-03-29T10:43:02.859Z</time></trkpt><trkpt lat="45.0785392" lon="8.1175299"><ele>284.4</ele><time>2026-03-29T10:43:03.863Z</time></trkpt><trkpt lat="45.0786453" lon="8.1175707"><ele>287.0</ele><time>2026-03-29T10:43:04.869Z</time></trkpt><trkpt lat="45.0787611" lon="8.1176188"><ele>287.0</ele><time>2026-03-29T10:43:05.865Z</time></trkpt><trkpt lat="45.0788753" lon="8.1176719"><ele>287.0</ele><time>2026-03-29T10:43:06.873Z</time></trkpt><trkpt lat="45.0789837" lon="8.1177317"><ele>287.0</ele><time>2026-03-29T10:43:07.867Z</time></trkpt><trkpt lat="45.0790755" lon="8.1178146"><ele>287.0</ele><time>2026-03-29T10:43:08.86Z</time></trkpt><trkpt lat="45.0791528" lon="8.1179187"><ele>287.0</ele><time>2026-03-29T10:43:09.869Z</time></trkpt><trkpt lat="45.0792228" lon="8.1180439"><ele>287.0</ele><time>2026-03-29T10:43:10.866Z</time></trkpt><trkpt lat="45.0792878" lon="8.1181787"><ele>287.0</ele><time>2026-03-29T10:43:11.895Z</time></trkpt><trkpt lat="45.0793512" lon="8.1183141"><ele>287.0</ele><time>2026-03-29T10:43:12.863Z</time></trkpt><trkpt lat="45.0794096" lon="8.118451"><ele>287.0</ele><time>2026-03-29T10:43:13.862Z</time></trkpt><trkpt lat="45.0794642" lon="8.1185866"><ele>287.0</ele><time>2026-03-29T10:43:14.863Z</time></trkpt><trkpt lat="45.0795068" lon="8.118725"><ele>287.0</ele><time>2026-03-29T10:43:15.865Z</time></trkpt><trkpt lat="45.0795364" lon="8.1188668"><ele>287.0</ele><time>2026-03-29T10:43:16.866Z</time></trkpt><trkpt lat="45.079554" lon="8.1190246"><ele>287.0</ele><time>2026-03-29T10:43:17.863Z</time></trkpt><trkpt lat="45.0795582" lon="8.119179"><ele>285.8</ele><time>2026-03-29T10:43:18.862Z</time></trkpt><trkpt lat="45.0795595" lon="8.1193267"><ele>284.6</ele><time>2026-03-29T10:43:19.866Z</time></trkpt><trkpt lat="45.0795609" lon="8.1194545"><ele>283.40000000000003</ele><time>2026-03-29T10:43:20.869Z</time></trkpt><trkpt lat="45.0795669" lon="8.1195723"><ele>282.2</ele><time>2026-03-29T10:43:21.864Z</time></trkpt><trkpt lat="45.0795931" lon="8.1197006"><ele>281.0</ele><time>2026-03-29T10:43:22.867Z</time></trkpt><trkpt lat="45.0796328" lon="8.1198412"><ele>281.5</ele><time>2026-03-29T10:43:23.864Z</time></trkpt><trkpt lat="45.0796892" lon="8.1199988"><ele>282.0</ele><time>2026-03-29T10:43:24.863Z</time></trkpt><trkpt lat="45.0797552" lon="8.120158"><ele>282.5</ele><time>2026-03-29T10:43:25.864Z</time></trkpt><trkpt lat="45.07982" lon="8.1203135"><ele>283.0</ele><time>2026-03-29T10:43:26.865Z</time></trkpt><trkpt lat="45.0798907" lon="8.1204638"><ele>282.8</ele><time>2026-03-29T10:43:27.867Z</time></trkpt><trkpt lat="45.0799574" lon="8.1206083"><ele>282.6</ele><time>2026-03-29T10:43:28.86Z</time></trkpt><trkpt lat="45.0800094" lon="8.1207448"><ele>282.4</ele><time>2026-03-29T10:43:29.863Z</time></trkpt><trkpt lat="45.0800465" lon="8.1208767"><ele>282.2</ele><time>2026-03-29T10:43:30.866Z</time></trkpt><trkpt lat="45.080079" lon="8.1210153"><ele>282.0</ele><time>2026-03-29T10:43:31.867Z</time></trkpt><trkpt lat="45.0801115" lon="8.1211597"><ele>282.0</ele><time>2026-03-29T10:43:32.869Z</time></trkpt><trkpt lat="45.0801447" lon="8.1213"><ele>282.0</ele><time>2026-03-29T10:43:33.87Z</time></trkpt><trkpt lat="45.0801753" lon="8.1214375"><ele>282.0</ele><time>2026-03-29T10:43:34.874Z</time></trkpt><trkpt lat="45.0802033" lon="8.1215726"><ele>282.0</ele><time>2026-03-29T10:43:35.862Z</time></trkpt><trkpt lat="45.0802358" lon="8.1217131"><ele>282.0</ele><time>2026-03-29T10:43:36.861Z</time></trkpt><trkpt lat="45.0802776" lon="8.1218569"><ele>282.25</ele><time>2026-03-29T10:43:37.86Z</time></trkpt><trkpt lat="45.0803344" lon="8.1220082"><ele>282.5</ele><time>2026-03-29T10:43:38.9Z</time></trkpt><trkpt lat="45.0804063" lon="8.1221656"><ele>282.75</ele><time>2026-03-29T10:43:39.863Z</time></trkpt><trkpt lat="45.0804839" lon="8.1223194"><ele>283.0</ele><time>2026-03-29T10:43:40.863Z</time></trkpt><trkpt lat="45.0805502" lon="8.1224632"><ele>283.0</ele><time>2026-03-29T10:43:41.864Z</time></trkpt><trkpt lat="45.0806043" lon="8.1226031"><ele>283.0</ele><time>2026-03-29T10:43:42.867Z</time></trkpt><trkpt lat="45.0806397" lon="8.122736"><ele>283.0</ele><time>2026-03-29T10:43:43.866Z</time></trkpt><trkpt lat="45.0806538" lon="8.122879"><ele>283.0</ele><time>2026-03-29T10:43:44.863Z</time></trkpt><trkpt lat="45.0806484" lon="8.123044"><ele>283.0</ele><time>2026-03-29T10:43:45.862Z</time></trkpt><trkpt lat="45.0806316" lon="8.1232229"><ele>282.0</ele><time>2026-03-29T10:43:46.863Z</time></trkpt><trkpt lat="45.0806131" lon="8.1234004"><ele>281.0</ele><time>2026-03-29T10:43:47.862Z</time></trkpt><trkpt lat="45.0805938" lon="8.1235747"><ele>280.0</ele><time>2026-03-29T10:43:48.862Z</time></trkpt><trkpt lat="45.0805729" lon="8.1237432"><ele>279.0</ele><time>2026-03-29T10:43:49.861Z</time></trkpt><trkpt lat="45.0805557" lon="8.123908"><ele>277.5</ele><time>2026-03-29T10:43:50.872Z</time></trkpt><trkpt lat="45.0805338" lon="8.1240766"><ele>276.0</ele><time>2026-03-29T10:43:51.86Z</time></trkpt><trkpt lat="45.0805071" lon="8.1242526"><ele>274.5</ele><time>2026-03-29T10:43:52.859Z</time></trkpt><trkpt lat="45.0804709" lon="8.1244351"><ele>273.0</ele><time>2026-03-29T10:43:53.858Z</time></trkpt><trkpt lat="45.0804312" lon="8.1246294"><ele>273.0</ele><time>2026-03-29T10:43:54.863Z</time></trkpt><trkpt lat="45.0803944" lon="8.1248255"><ele>273.0</ele><time>2026-03-29T10:43:55.867Z</time></trkpt><trkpt lat="45.0803732" lon="8.1250113"><ele>273.0</ele><time>2026-03-29T10:43:56.869Z</time></trkpt><trkpt lat="45.0803634" lon="8.1251888"><ele>273.0</ele><time>2026-03-29T10:43:57.869Z</time></trkpt><trkpt lat="45.0803619" lon="8.1253621"><ele>271.5</ele><time>2026-03-29T10:43:58.869Z</time></trkpt><trkpt lat="45.0803671" lon="8.1255385"><ele>270.0</ele><time>2026-03-29T10:43:59.864Z</time></trkpt><trkpt lat="45.0803805" lon="8.125725"><ele>268.5</ele><time>2026-03-29T10:44:00.864Z</time></trkpt><trkpt lat="45.0803899" lon="8.1259214"><ele>267.0</ele><time>2026-03-29T10:44:01.865Z</time></trkpt><trkpt lat="45.080399" lon="8.1261297"><ele>265.25</ele><time>2026-03-29T10:44:02.87Z</time></trkpt><trkpt lat="45.0804075" lon="8.1263414"><ele>263.5</ele><time>2026-03-29T10:44:03.867Z</time></trkpt><trkpt lat="45.0804198" lon="8.1265508"><ele>261.75</ele><time>2026-03-29T10:44:04.863Z</time></trkpt><trkpt lat="45.0804329" lon="8.1267553"><ele>260.0</ele><time>2026-03-29T10:44:05.876Z</time></trkpt><trkpt lat="45.0804481" lon="8.1269541"><ele>259.25</ele><time>2026-03-29T10:44:06.871Z</time></trkpt><trkpt lat="45.0804683" lon="8.1271465"><ele>258.5</ele><time>2026-03-29T10:44:07.867Z</time></trkpt><trkpt lat="45.0804951" lon="8.1273353"><ele>257.75</ele><time>2026-03-29T10:44:08.865Z</time></trkpt><trkpt lat="45.0805297" lon="8.1275201"><ele>257.0</ele><time>2026-03-29T10:44:09.865Z</time></trkpt><trkpt lat="45.0805683" lon="8.1276976"><ele>257.4</ele><time>2026-03-29T10:44:10.869Z</time></trkpt><trkpt lat="45.0806072" lon="8.1278647"><ele>257.79999999999995</ele><time>2026-03-29T10:44:11.864Z</time></trkpt><trkpt lat="45.0806444" lon="8.1280186"><ele>258.2</ele><time>2026-03-29T10:44:12.864Z</time></trkpt><trkpt lat="45.0806735" lon="8.1281637"><ele>258.59999999999997</ele><time>2026-03-29T10:44:13.862Z</time></trkpt><trkpt lat="45.0806869" lon="8.1283062"><ele>259.0</ele><time>2026-03-29T10:44:14.864Z</time></trkpt><trkpt lat="45.0806854" lon="8.1284479"><ele>259.0</ele><time>2026-03-29T10:44:15.864Z</time></trkpt><trkpt lat="45.0806689" lon="8.1285867"><ele>259.0</ele><time>2026-03-29T10:44:16.865Z</time></trkpt><trkpt lat="45.0806453" lon="8.1287174"><ele>259.0</ele><time>2026-03-29T10:44:17.863Z</time></trkpt><trkpt lat="45.0806091" lon="8.1288481"><ele>259.0</ele><time>2026-03-29T10:44:18.861Z</time></trkpt><trkpt lat="45.0805544" lon="8.1289613"><ele>259.0</ele><time>2026-03-29T10:44:19.867Z</time></trkpt><trkpt lat="45.0804796" lon="8.1290704"><ele>260.2</ele><time>2026-03-29T10:44:20.869Z</time></trkpt><trkpt lat="45.0804111" lon="8.1291851"><ele>261.4</ele><time>2026-03-29T10:44:21.864Z</time></trkpt><trkpt lat="45.0803489" lon="8.1293028"><ele>262.6</ele><time>2026-03-29T10:44:22.861Z</time></trkpt><trkpt lat="45.0802979" lon="8.1294204"><ele>263.8</ele><time>2026-03-29T10:44:23.865Z</time></trkpt><trkpt lat="45.0802599" lon="8.1295463"><ele>265.0</ele><time>2026-03-29T10:44:24.869Z</time></trkpt><trkpt lat="45.0802352" lon="8.1296883"><ele>265.0</ele><time>2026-03-29T10:44:25.868Z</time></trkpt><trkpt lat="45.0802231" lon="8.1298442"><ele>265.0</ele><time>2026-03-29T10:44:26.872Z</time></trkpt><trkpt lat="45.0802207" lon="8.1300041"><ele>265.0</ele><time>2026-03-29T10:44:27.869Z</time></trkpt><trkpt lat="45.0802145" lon="8.1301535"><ele>265.0</ele><time>2026-03-29T10:44:28.863Z</time></trkpt><trkpt lat="45.0802115" lon="8.1302948"><ele>265.0</ele><time>2026-03-29T10:44:29.862Z</time></trkpt><trkpt lat="45.080209" lon="8.1304332"><ele>265.8333333333333</ele><time>2026-03-29T10:44:30.863Z</time></trkpt><trkpt lat="45.0802044" lon="8.1305664"><ele>266.66666666666663</ele><time>2026-03-29T10:44:31.865Z</time></trkpt><trkpt lat="45.0801992" lon="8.1306921"><ele>267.5</ele><time>2026-03-29T10:44:32.862Z</time></trkpt><trkpt lat="45.0801921" lon="8.1308023"><ele>268.3333333333333</ele><time>2026-03-29T10:44:33.87Z</time></trkpt><trkpt lat="45.0801744" lon="8.1309115"><ele>269.1666666666667</ele><time>2026-03-29T10:44:34.86Z</time></trkpt><trkpt lat="45.0801586" lon="8.1310179"><ele>270.0</ele><time>2026-03-29T10:44:35.863Z</time></trkpt><trkpt lat="45.080148" lon="8.1311063"><ele>270.6</ele><time>2026-03-29T10:44:36.865Z</time></trkpt><trkpt lat="45.0801424" lon="8.1312391"><ele>271.2</ele><time>2026-03-29T10:44:38.867Z</time></trkpt><trkpt lat="45.0801908" lon="8.131342"><ele>271.8</ele><time>2026-03-29T10:44:47.891Z</time></trkpt><trkpt lat="45.0802879" lon="8.1314861"><ele>272.4</ele><time>2026-03-29T10:44:49.864Z</time></trkpt><trkpt lat="45.0803433" lon="8.1315813"><ele>273.0</ele><time>2026-03-29T10:44:50.867Z</time></trkpt><trkpt lat="45.0803891" lon="8.1316971"><ele>274.0</ele><time>2026-03-29T10:44:51.866Z</time></trkpt><trkpt lat="45.0804243" lon="8.1318328"><ele>275.0</ele><time>2026-03-29T10:44:52.86Z</time></trkpt><trkpt lat="45.0804423" lon="8.1319929"><ele>276.0</ele><time>2026-03-29T10:44:53.869Z</time></trkpt><trkpt lat="45.0804495" lon="8.1321614"><ele>277.0</ele><time>2026-03-29T10:44:54.863Z</time></trkpt><trkpt lat="45.0804476" lon="8.1323417"><ele>277.5</ele><time>2026-03-29T10:44:55.876Z</time></trkpt><trkpt lat="45.0804478" lon="8.1325175"><ele>278.0</ele><time>2026-03-29T10:44:56.86Z</time></trkpt><trkpt lat="45.0804468" lon="8.1327007"><ele>278.5</ele><time>2026-03-29T10:44:57.862Z</time></trkpt><trkpt lat="45.0804499" lon="8.1328723"><ele>279.0</ele><time>2026-03-29T10:44:58.862Z</time></trkpt><trkpt lat="45.0804566" lon="8.1330318"><ele>279.0</ele><time>2026-03-29T10:44:59.864Z</time></trkpt><trkpt lat="45.0804631" lon="8.1331823"><ele>279.0</ele><time>2026-03-29T10:45:00.863Z</time></trkpt><trkpt lat="45.0804662" lon="8.1333263"><ele>279.0</ele><time>2026-03-29T10:45:01.865Z</time></trkpt><trkpt lat="45.0804671" lon="8.1334374"><ele>279.0</ele><time>2026-03-29T10:45:02.865Z</time></trkpt><trkpt lat="45.0804607" lon="8.1335733"><ele>279.0</ele><time>2026-03-29T10:45:04.866Z</time></trkpt><trkpt lat="45.0804242" lon="8.1336474"><ele>279.0</ele><time>2026-03-29T10:45:06.862Z</time></trkpt><trkpt lat="45.0803781" lon="8.1337324"><ele>279.1428571428571</ele><time>2026-03-29T10:45:08.869Z</time></trkpt><trkpt lat="45.0803724" lon="8.1338238"><ele>279.2857142857143</ele><time>2026-03-29T10:45:10.894Z</time></trkpt><trkpt lat="45.080372" lon="8.1339176"><ele>279.42857142857144</ele><time>2026-03-29T10:45:12.873Z</time></trkpt><trkpt lat="45.0803846" lon="8.134014"><ele>279.57142857142856</ele><time>2026-03-29T10:45:15.867Z</time></trkpt><trkpt lat="45.0804102" lon="8.1340988"><ele>279.7142857142857</ele><time>2026-03-29T10:52:40.863Z</time></trkpt><trkpt lat="45.0803991" lon="8.1341868"><ele>279.85714285714283</ele><time>2026-03-29T10:52:42.868Z</time></trkpt><trkpt lat="45.0803763" lon="8.1342939"><ele>280.0</ele><time>2026-03-29T10:52:45.868Z</time></trkpt><trkpt lat="45.0803686" lon="8.1343892"><ele>280.0</ele><time>2026-03-29T10:52:49.864Z</time></trkpt><trkpt lat="45.0804282" lon="8.1344498"><ele>280.0</ele><time>2026-03-29T10:52:52.861Z</time></trkpt><trkpt lat="45.0804878" lon="8.1345189"><ele>280.0</ele><time>2026-03-29T10:52:59.862Z</time></trkpt><trkpt lat="45.0805054" lon="8.1346364"><ele>280.0</ele><time>2026-03-29T10:53:01.864Z</time></trkpt><trkpt lat="45.0804916" lon="8.1348212"><ele>280.0</ele><time>2026-03-29T10:53:03.863Z</time></trkpt><trkpt lat="45.0804745" lon="8.1349134"><ele>280.0</ele><time>2026-03-29T10:53:04.859Z</time></trkpt><trkpt lat="45.0804293" lon="8.1350115"><ele>280.25</ele><time>2026-03-29T10:53:06.868Z</time></trkpt><trkpt lat="45.0806309" lon="8.1350459"><ele>280.5</ele><time>2026-03-29T10:53:32.869Z</time></trkpt><trkpt lat="45.0807237" lon="8.1350573"><ele>280.75</ele><time>2026-03-29T10:53:34.881Z</time></trkpt><trkpt lat="45.0808318" lon="8.135093"><ele>281.0</ele><time>2026-03-29T10:53:36.87Z</time></trkpt><trkpt lat="45.0809615" lon="8.1351448"><ele>279.2</ele><time>2026-03-29T10:53:38.876Z</time></trkpt><trkpt lat="45.0810388" lon="8.1351865"><ele>277.40000000000003</ele><time>2026-03-29T10:53:39.875Z</time></trkpt><trkpt lat="45.0811188" lon="8.1352271"><ele>275.6</ele><time>2026-03-29T10:53:40.863Z</time></trkpt><trkpt lat="45.0811875" lon="8.1352538"><ele>273.8</ele><time>2026-03-29T10:53:41.868Z</time></trkpt><trkpt lat="45.0813532" lon="8.1351749"><ele>272.0</ele><time>2026-03-29T10:53:45.871Z</time></trkpt><trkpt lat="45.0813775" lon="8.1349736"><ele>271.4</ele><time>2026-03-29T10:53:47.865Z</time></trkpt><trkpt lat="45.0813886" lon="8.1348406"><ele>270.79999999999995</ele><time>2026-03-29T10:53:48.88Z</time></trkpt><trkpt lat="45.0813976" lon="8.1346962"><ele>270.2</ele><time>2026-03-29T10:53:49.866Z</time></trkpt><trkpt lat="45.0814014" lon="8.1345371"><ele>269.59999999999997</ele><time>2026-03-29T10:53:50.872Z</time></trkpt><trkpt lat="45.081406" lon="8.1343731"><ele>269.0</ele><time>2026-03-29T10:53:51.868Z</time></trkpt><trkpt lat="45.0814131" lon="8.1342274"><ele>269.0</ele><time>2026-03-29T10:53:52.873Z</time></trkpt><trkpt lat="45.0814232" lon="8.1340917"><ele>269.0</ele><time>2026-03-29T10:53:53.867Z</time></trkpt><trkpt lat="45.0814326" lon="8.1339644"><ele>269.0</ele><time>2026-03-29T10:53:54.877Z</time></trkpt><trkpt lat="45.081446" lon="8.1338344"><ele>269.0</ele><time>2026-03-29T10:53:55.869Z</time></trkpt><trkpt lat="45.0814626" lon="8.1336913"><ele>269.0</ele><time>2026-03-29T10:53:56.882Z</time></trkpt><trkpt lat="45.0814786" lon="8.1335242"><ele>269.0</ele><time>2026-03-29T10:53:57.868Z</time></trkpt><trkpt lat="45.0814925" lon="8.1333308"><ele>269.0</ele><time>2026-03-29T10:53:58.884Z</time></trkpt><trkpt lat="45.0815053" lon="8.1331311"><ele>269.0</ele><time>2026-03-29T10:53:59.876Z</time></trkpt><trkpt lat="45.081519" lon="8.1329454"><ele>269.0</ele><time>2026-03-29T10:54:00.869Z</time></trkpt><trkpt lat="45.0815325" lon="8.1327804"><ele>269.2</ele><time>2026-03-29T10:54:01.88Z</time></trkpt><trkpt lat="45.0815487" lon="8.1326392"><ele>269.4</ele><time>2026-03-29T10:54:02.873Z</time></trkpt><trkpt lat="45.0815715" lon="8.1325206"><ele>269.6</ele><time>2026-03-29T10:54:03.865Z</time></trkpt><trkpt lat="45.0816201" lon="8.1324168"><ele>269.8</ele><time>2026-03-29T10:54:04.865Z</time></trkpt><trkpt lat="45.0816918" lon="8.1323321"><ele>270.0</ele><time>2026-03-29T10:54:05.866Z</time></trkpt><trkpt lat="45.081784" lon="8.1322711"><ele>267.25</ele><time>2026-03-29T10:54:06.871Z</time></trkpt><trkpt lat="45.0818904" lon="8.1322323"><ele>264.5</ele><time>2026-03-29T10:54:07.871Z</time></trkpt><trkpt lat="45.0820264" lon="8.1322046"><ele>261.75</ele><time>2026-03-29T10:54:08.874Z</time></trkpt><trkpt lat="45.082172" lon="8.1321798"><ele>259.0</ele><time>2026-03-29T10:54:09.867Z</time></trkpt><trkpt lat="45.0823287" lon="8.1321494"><ele>255.33333333333331</ele><time>2026-03-29T10:54:10.874Z</time></trkpt><trkpt lat="45.0824958" lon="8.1321003"><ele>251.66666666666669</ele><time>2026-03-29T10:54:11.877Z</time></trkpt><trkpt lat="45.0826533" lon="8.1320488"><ele>248.0</ele><time>2026-03-29T10:54:12.871Z</time></trkpt><trkpt lat="45.0827974" lon="8.1319945"><ele>248.0</ele><time>2026-03-29T10:54:13.868Z</time></trkpt><trkpt lat="45.0829309" lon="8.1319486"><ele>248.0</ele><time>2026-03-29T10:54:14.871Z</time></trkpt><trkpt lat="45.0830761" lon="8.1319046"><ele>248.0</ele><time>2026-03-29T10:54:15.871Z</time></trkpt><trkpt lat="45.0832334" lon="8.1318772"><ele>248.0</ele><time>2026-03-29T10:54:16.87Z</time></trkpt><trkpt lat="45.0834023" lon="8.1318715"><ele>245.33333333333334</ele><time>2026-03-29T10:54:17.868Z</time></trkpt><trkpt lat="45.0835812" lon="8.1318963"><ele>242.66666666666669</ele><time>2026-03-29T10:54:18.869Z</time></trkpt><trkpt lat="45.0837695" lon="8.1319508"><ele>240.0</ele><time>2026-03-29T10:54:19.874Z</time></trkpt><trkpt lat="45.0839648" lon="8.1320152"><ele>239.66666666666669</ele><time>2026-03-29T10:54:20.871Z</time></trkpt><trkpt lat="45.0841668" lon="8.1320834"><ele>239.33333333333334</ele><time>2026-03-29T10:54:21.901Z</time></trkpt><trkpt lat="45.0843746" lon="8.1321497"><ele>239.0</ele><time>2026-03-29T10:54:22.872Z</time></trkpt><trkpt lat="45.0845833" lon="8.1322176"><ele>239.0</ele><time>2026-03-29T10:54:23.867Z</time></trkpt><trkpt lat="45.0847921" lon="8.1322794"><ele>239.0</ele><time>2026-03-29T10:54:24.87Z</time></trkpt><trkpt lat="45.0850043" lon="8.1323373"><ele>239.0</ele><time>2026-03-29T10:54:25.867Z</time></trkpt><trkpt lat="45.0852179" lon="8.1323922"><ele>237.66666666666669</ele><time>2026-03-29T10:54:26.87Z</time></trkpt><trkpt lat="45.0854294" lon="8.132449"><ele>236.33333333333331</ele><time>2026-03-29T10:54:27.872Z</time></trkpt><trkpt lat="45.085629" lon="8.1325026"><ele>235.0</ele><time>2026-03-29T10:54:28.868Z</time></trkpt><trkpt lat="45.0858182" lon="8.132549"><ele>233.0</ele><time>2026-03-29T10:54:29.892Z</time></trkpt><trkpt lat="45.0859983" lon="8.1325927"><ele>231.0</ele><time>2026-03-29T10:54:30.87Z</time></trkpt><trkpt lat="45.0861704" lon="8.1326306"><ele>229.0</ele><time>2026-03-29T10:54:31.89Z</time></trkpt><trkpt lat="45.0863373" lon="8.1326622"><ele>229.0</ele><time>2026-03-29T10:54:32.884Z</time></trkpt><trkpt lat="45.0864995" lon="8.1326797"><ele>229.0</ele><time>2026-03-29T10:54:33.875Z</time></trkpt><trkpt lat="45.0866582" lon="8.1326784"><ele>229.0</ele><time>2026-03-29T10:54:34.87Z</time></trkpt><trkpt lat="45.0868124" lon="8.1326527"><ele>228.0</ele><time>2026-03-29T10:54:35.87Z</time></trkpt><trkpt lat="45.0869571" lon="8.1326027"><ele>227.0</ele><time>2026-03-29T10:54:36.868Z</time></trkpt><trkpt lat="45.0870962" lon="8.1325233"><ele>226.0</ele><time>2026-03-29T10:54:37.867Z</time></trkpt><trkpt lat="45.0872376" lon="8.1324179"><ele>226.66666666666666</ele><time>2026-03-29T10:54:38.87Z</time></trkpt><trkpt lat="45.0873833" lon="8.1323046"><ele>227.33333333333331</ele><time>2026-03-29T10:54:39.884Z</time></trkpt><trkpt lat="45.0875384" lon="8.1321876"><ele>228.0</ele><time>2026-03-29T10:54:40.882Z</time></trkpt><trkpt lat="45.0876933" lon="8.1320731"><ele>228.0</ele><time>2026-03-29T10:54:41.88Z</time></trkpt><trkpt lat="45.0878478" lon="8.1319624"><ele>228.0</ele><time>2026-03-29T10:54:42.869Z</time></trkpt><trkpt lat="45.0879958" lon="8.1318572"><ele>228.0</ele><time>2026-03-29T10:54:43.873Z</time></trkpt><trkpt lat="45.0881283" lon="8.1317665"><ele>228.0</ele><time>2026-03-29T10:54:44.863Z</time></trkpt><trkpt lat="45.0882543" lon="8.1316887"><ele>228.0</ele><time>2026-03-29T10:54:45.875Z</time></trkpt><trkpt lat="45.0883692" lon="8.1316221"><ele>228.0</ele><time>2026-03-29T10:54:46.866Z</time></trkpt><trkpt lat="45.0884686" lon="8.1315627"><ele>228.0</ele><time>2026-03-29T10:54:47.901Z</time></trkpt><trkpt lat="45.0885549" lon="8.1315062"><ele>227.66666666666666</ele><time>2026-03-29T10:54:48.879Z</time></trkpt><trkpt lat="45.0886201" lon="8.1314711"><ele>227.33333333333331</ele><time>2026-03-29T10:54:49.886Z</time></trkpt><trkpt lat="45.0886912" lon="8.1314807"><ele>227.0</ele><time>2026-03-29T10:54:51.872Z</time></trkpt><trkpt lat="45.0887355" lon="8.1316164"><ele>226.66666666666666</ele><time>2026-03-29T10:54:54.904Z</time></trkpt><trkpt lat="45.088766" lon="8.131713"><ele>226.33333333333331</ele><time>2026-03-29T10:54:55.873Z</time></trkpt><trkpt lat="45.0888083" lon="8.1318431"><ele>226.0</ele><time>2026-03-29T10:54:56.869Z</time></trkpt><trkpt lat="45.0888593" lon="8.1320227"><ele>226.0</ele><time>2026-03-29T10:54:57.874Z</time></trkpt><trkpt lat="45.0889207" lon="8.1322416"><ele>226.0</ele><time>2026-03-29T10:54:58.87Z</time></trkpt><trkpt lat="45.0890084" lon="8.1324779"><ele>226.0</ele><time>2026-03-29T10:54:59.87Z</time></trkpt><trkpt lat="45.0891021" lon="8.1327334"><ele>225.66666666666666</ele><time>2026-03-29T10:55:00.874Z</time></trkpt><trkpt lat="45.0892073" lon="8.1329976"><ele>225.33333333333331</ele><time>2026-03-29T10:55:01.868Z</time></trkpt><trkpt lat="45.0893258" lon="8.1332664"><ele>225.0</ele><time>2026-03-29T10:55:02.874Z</time></trkpt><trkpt lat="45.0894548" lon="8.1335326"><ele>225.0</ele><time>2026-03-29T10:55:03.869Z</time></trkpt><trkpt lat="45.0895912" lon="8.1337913"><ele>225.0</ele><time>2026-03-29T10:55:04.874Z</time></trkpt><trkpt lat="45.0897263" lon="8.1340253"><ele>225.0</ele><time>2026-03-29T10:55:05.871Z</time></trkpt><trkpt lat="45.0898661" lon="8.1342424"><ele>225.33333333333331</ele><time>2026-03-29T10:55:06.867Z</time></trkpt><trkpt lat="45.0900117" lon="8.1344505"><ele>225.66666666666666</ele><time>2026-03-29T10:55:07.885Z</time></trkpt><trkpt lat="45.09016" lon="8.1346502"><ele>226.0</ele><time>2026-03-29T10:55:08.877Z</time></trkpt><trkpt lat="45.0903112" lon="8.1348387"><ele>225.33333333333331</ele><time>2026-03-29T10:55:09.868Z</time></trkpt><trkpt lat="45.0904597" lon="8.1350102"><ele>224.66666666666669</ele><time>2026-03-29T10:55:10.87Z</time></trkpt><trkpt lat="45.0906013" lon="8.1351632"><ele>224.0</ele><time>2026-03-29T10:55:11.885Z</time></trkpt><trkpt lat="45.0907378" lon="8.1352873"><ele>227.0</ele><time>2026-03-29T10:55:12.869Z</time></trkpt><trkpt lat="45.0908623" lon="8.1353984"><ele>230.0</ele><time>2026-03-29T10:55:13.87Z</time></trkpt><trkpt lat="45.0909834" lon="8.1354991"><ele>233.0</ele><time>2026-03-29T10:55:14.869Z</time></trkpt><trkpt lat="45.0910987" lon="8.135596"><ele>236.0</ele><time>2026-03-29T10:55:15.865Z</time></trkpt><trkpt lat="45.0912101" lon="8.1356985"><ele>235.0</ele><time>2026-03-29T10:55:16.866Z</time></trkpt><trkpt lat="45.0913149" lon="8.1358138"><ele>234.0</ele><time>2026-03-29T10:55:17.867Z</time></trkpt><trkpt lat="45.0914189" lon="8.1359475"><ele>233.0</ele><time>2026-03-29T10:55:18.867Z</time></trkpt><trkpt lat="45.09152" lon="8.1361063"><ele>232.0</ele><time>2026-03-29T10:55:19.867Z</time></trkpt><trkpt lat="45.0916189" lon="8.1362905"><ele>232.0</ele><time>2026-03-29T10:55:20.868Z</time></trkpt><trkpt lat="45.0917108" lon="8.1365"><ele>232.0</ele><time>2026-03-29T10:55:21.869Z</time></trkpt><trkpt lat="45.0917935" lon="8.1367368"><ele>232.0</ele><time>2026-03-29T10:55:22.872Z</time></trkpt><trkpt lat="45.0918618" lon="8.1369919"><ele>229.0</ele><time>2026-03-29T10:55:23.87Z</time></trkpt><trkpt lat="45.0919144" lon="8.1372627"><ele>226.0</ele><time>2026-03-29T10:55:24.87Z</time></trkpt><trkpt lat="45.0919507" lon="8.1375498"><ele>223.0</ele><time>2026-03-29T10:55:25.867Z</time></trkpt><trkpt lat="45.0919765" lon="8.1378523"><ele>223.0</ele><time>2026-03-29T10:55:26.879Z</time></trkpt><trkpt lat="45.091993" lon="8.138163"><ele>223.0</ele><time>2026-03-29T10:55:27.867Z</time></trkpt><trkpt lat="45.09201" lon="8.1384873"><ele>223.0</ele><time>2026-03-29T10:55:28.881Z</time></trkpt><trkpt lat="45.0920269" lon="8.138816"><ele>223.0</ele><time>2026-03-29T10:55:29.896Z</time></trkpt><trkpt lat="45.0920414" lon="8.139132"><ele>223.0</ele><time>2026-03-29T10:55:30.873Z</time></trkpt><trkpt lat="45.0920563" lon="8.1394249"><ele>223.0</ele><time>2026-03-29T10:55:31.867Z</time></trkpt><trkpt lat="45.0920714" lon="8.1396974"><ele>223.0</ele><time>2026-03-29T10:55:32.909Z</time></trkpt><trkpt lat="45.0920826" lon="8.1399563"><ele>223.0</ele><time>2026-03-29T10:55:33.872Z</time></trkpt><trkpt lat="45.092083" lon="8.1402124"><ele>223.0</ele><time>2026-03-29T10:55:34.899Z</time></trkpt><trkpt lat="45.0920731" lon="8.1404579"><ele>223.0</ele><time>2026-03-29T10:55:35.874Z</time></trkpt><trkpt lat="45.0920374" lon="8.1406929"><ele>223.0</ele><time>2026-03-29T10:55:36.869Z</time></trkpt><trkpt lat="45.0919823" lon="8.1409192"><ele>223.0</ele><time>2026-03-29T10:55:37.891Z</time></trkpt><trkpt lat="45.0919132" lon="8.1411397"><ele>223.0</ele><time>2026-03-29T10:55:38.873Z</time></trkpt><trkpt lat="45.0918119" lon="8.1413546"><ele>223.33333333333331</ele><time>2026-03-29T10:55:39.871Z</time></trkpt><trkpt lat="45.091699" lon="8.1415582"><ele>223.66666666666669</ele><time>2026-03-29T10:55:40.875Z</time></trkpt><trkpt lat="45.0915652" lon="8.1417622"><ele>224.0</ele><time>2026-03-29T10:55:41.873Z</time></trkpt><trkpt lat="45.0914082" lon="8.1419534"><ele>223.0</ele><time>2026-03-29T10:55:42.868Z</time></trkpt><trkpt lat="45.0912309" lon="8.1421489"><ele>222.0</ele><time>2026-03-29T10:55:43.897Z</time></trkpt><trkpt lat="45.0910415" lon="8.1423508"><ele>222.5</ele><time>2026-03-29T10:55:44.87Z</time></trkpt><trkpt lat="45.0908467" lon="8.142558"><ele>223.0</ele><time>2026-03-29T10:55:45.891Z</time></trkpt><trkpt lat="45.0906625" lon="8.142769"><ele>221.5</ele><time>2026-03-29T10:55:46.872Z</time></trkpt><trkpt lat="45.0904844" lon="8.1429767"><ele>220.0</ele><time>2026-03-29T10:55:47.866Z</time></trkpt><trkpt lat="45.0903155" lon="8.1431824"><ele>220.0</ele><time>2026-03-29T10:55:48.874Z</time></trkpt><trkpt lat="45.0901546" lon="8.1433858"><ele>220.0</ele><time>2026-03-29T10:55:49.868Z</time></trkpt><trkpt lat="45.0900016" lon="8.1435876"><ele>220.0</ele><time>2026-03-29T10:55:50.869Z</time></trkpt><trkpt lat="45.0898507" lon="8.143785"><ele>218.66666666666666</ele><time>2026-03-29T10:55:51.877Z</time></trkpt><trkpt lat="45.0897035" lon="8.1439772"><ele>217.33333333333331</ele><time>2026-03-29T10:55:52.869Z</time></trkpt><trkpt lat="45.0895598" lon="8.1441635"><ele>216.0</ele><time>2026-03-29T10:55:53.873Z</time></trkpt><trkpt lat="45.0894199" lon="8.1443438"><ele>216.0</ele><time>2026-03-29T10:55:54.868Z</time></trkpt><trkpt lat="45.0892868" lon="8.1445278"><ele>216.0</ele><time>2026-03-29T10:55:55.87Z</time></trkpt><trkpt lat="45.0891601" lon="8.1447211"><ele>216.0</ele><time>2026-03-29T10:55:56.874Z</time></trkpt><trkpt lat="45.0890364" lon="8.1449272"><ele>216.66666666666669</ele><time>2026-03-29T10:55:57.868Z</time></trkpt><trkpt lat="45.0889146" lon="8.1451433"><ele>217.33333333333334</ele><time>2026-03-29T10:55:58.874Z</time></trkpt><trkpt lat="45.0887996" lon="8.1453672"><ele>218.0</ele><time>2026-03-29T10:55:59.905Z</time></trkpt><trkpt lat="45.0886877" lon="8.145593"><ele>217.33333333333334</ele><time>2026-03-29T10:56:00.867Z</time></trkpt><trkpt lat="45.0885829" lon="8.1458154"><ele>216.66666666666669</ele><time>2026-03-29T10:56:01.867Z</time></trkpt><trkpt lat="45.0884845" lon="8.1460272"><ele>216.0</ele><time>2026-03-29T10:56:02.869Z</time></trkpt><trkpt lat="45.0883928" lon="8.1462284"><ele>216.0</ele><time>2026-03-29T10:56:03.871Z</time></trkpt><trkpt lat="45.0883081" lon="8.1464162"><ele>216.0</ele><time>2026-03-29T10:56:04.868Z</time></trkpt><trkpt lat="45.0882295" lon="8.1465857"><ele>216.0</ele><time>2026-03-29T10:56:05.874Z</time></trkpt><trkpt lat="45.0881601" lon="8.1467375"><ele>216.0</ele><time>2026-03-29T10:56:06.872Z</time></trkpt><trkpt lat="45.0880992" lon="8.1468719"><ele>215.83333333333334</ele><time>2026-03-29T10:56:07.876Z</time></trkpt><trkpt lat="45.0880485" lon="8.146988"><ele>215.66666666666669</ele><time>2026-03-29T10:56:08.875Z</time></trkpt><trkpt lat="45.0880074" lon="8.1470879"><ele>215.5</ele><time>2026-03-29T10:56:09.866Z</time></trkpt><trkpt lat="45.0879677" lon="8.1471804"><ele>215.33333333333334</ele><time>2026-03-29T10:56:10.867Z</time></trkpt><trkpt lat="45.0879233" lon="8.147279"><ele>215.16666666666669</ele><time>2026-03-29T10:56:11.883Z</time></trkpt><trkpt lat="45.0878665" lon="8.1473941"><ele>215.0</ele><time>2026-03-29T10:56:12.868Z</time></trkpt><trkpt lat="45.0877946" lon="8.1475294"><ele>215.5</ele><time>2026-03-29T10:56:13.865Z</time></trkpt><trkpt lat="45.0877151" lon="8.1476821"><ele>216.0</ele><time>2026-03-29T10:56:14.872Z</time></trkpt><trkpt lat="45.0876357" lon="8.1478437"><ele>216.5</ele><time>2026-03-29T10:56:15.876Z</time></trkpt><trkpt lat="45.0875624" lon="8.1480011"><ele>217.0</ele><time>2026-03-29T10:56:16.868Z</time></trkpt><trkpt lat="45.0874985" lon="8.1481535"><ele>216.8</ele><time>2026-03-29T10:56:17.868Z</time></trkpt><trkpt lat="45.0874417" lon="8.1482869"><ele>216.6</ele><time>2026-03-29T10:56:18.89Z</time></trkpt><trkpt lat="45.0873887" lon="8.1484147"><ele>216.40000000000003</ele><time>2026-03-29T10:56:19.867Z</time></trkpt><trkpt lat="45.0873326" lon="8.1485492"><ele>216.20000000000002</ele><time>2026-03-29T10:56:20.867Z</time></trkpt><trkpt lat="45.0872689" lon="8.1486971"><ele>216.0</ele><time>2026-03-29T10:56:21.881Z</time></trkpt><trkpt lat="45.0871956" lon="8.1488607"><ele>216.0</ele><time>2026-03-29T10:56:22.879Z</time></trkpt><trkpt lat="45.087114" lon="8.1490286"><ele>216.0</ele><time>2026-03-29T10:56:23.867Z</time></trkpt><trkpt lat="45.0870187" lon="8.1491901"><ele>216.0</ele><time>2026-03-29T10:56:24.876Z</time></trkpt><trkpt lat="45.0869217" lon="8.1493463"><ele>216.0</ele><time>2026-03-29T10:56:25.869Z</time></trkpt><trkpt lat="45.086818" lon="8.1494989"><ele>216.0</ele><time>2026-03-29T10:56:26.87Z</time></trkpt><trkpt lat="45.0867144" lon="8.1496513"><ele>216.0</ele><time>2026-03-29T10:56:27.871Z</time></trkpt><trkpt lat="45.0865992" lon="8.1497909"><ele>216.0</ele><time>2026-03-29T10:56:28.872Z</time></trkpt><trkpt lat="45.0864866" lon="8.1499296"><ele>216.0</ele><time>2026-03-29T10:56:29.875Z</time></trkpt><trkpt lat="45.0863701" lon="8.1500491"><ele>216.0</ele><time>2026-03-29T10:56:30.867Z</time></trkpt><trkpt lat="45.086252" lon="8.1501503"><ele>216.0</ele><time>2026-03-29T10:56:31.884Z</time></trkpt><trkpt lat="45.0861307" lon="8.1502472"><ele>216.0</ele><time>2026-03-29T10:56:32.869Z</time></trkpt><trkpt lat="45.0860053" lon="8.1503375"><ele>216.0</ele><time>2026-03-29T10:56:33.871Z</time></trkpt><trkpt lat="45.0858695" lon="8.1504292"><ele>216.0</ele><time>2026-03-29T10:56:34.87Z</time></trkpt><trkpt lat="45.0857251" lon="8.1505297"><ele>216.0</ele><time>2026-03-29T10:56:35.87Z</time></trkpt><trkpt lat="45.0855759" lon="8.1506443"><ele>216.0</ele><time>2026-03-29T10:56:36.883Z</time></trkpt><trkpt lat="45.0854186" lon="8.1507563"><ele>216.0</ele><time>2026-03-29T10:56:37.867Z</time></trkpt><trkpt lat="45.0852583" lon="8.1508714"><ele>216.0</ele><time>2026-03-29T10:56:38.878Z</time></trkpt><trkpt lat="45.0850932" lon="8.1509879"><ele>214.66666666666669</ele><time>2026-03-29T10:56:39.872Z</time></trkpt><trkpt lat="45.0849234" lon="8.1511057"><ele>213.33333333333334</ele><time>2026-03-29T10:56:40.876Z</time></trkpt><trkpt lat="45.0847526" lon="8.1512301"><ele>212.0</ele><time>2026-03-29T10:56:41.87Z</time></trkpt><trkpt lat="45.0845724" lon="8.1513605"><ele>212.0</ele><time>2026-03-29T10:56:42.883Z</time></trkpt><trkpt lat="45.0843901" lon="8.1514967"><ele>212.0</ele><time>2026-03-29T10:56:43.867Z</time></trkpt><trkpt lat="45.0842034" lon="8.1516342"><ele>212.0</ele><time>2026-03-29T10:56:44.872Z</time></trkpt><trkpt lat="45.0840133" lon="8.1517717"><ele>212.33333333333334</ele><time>2026-03-29T10:56:45.873Z</time></trkpt><trkpt lat="45.0838239" lon="8.1519072"><ele>212.66666666666669</ele><time>2026-03-29T10:56:46.868Z</time></trkpt><trkpt lat="45.0836382" lon="8.1520414"><ele>213.0</ele><time>2026-03-29T10:56:47.864Z</time></trkpt><trkpt lat="45.0834554" lon="8.1521746"><ele>213.0</ele><time>2026-03-29T10:56:48.895Z</time></trkpt><trkpt lat="45.0832749" lon="8.1523069"><ele>213.0</ele><time>2026-03-29T10:56:49.868Z</time></trkpt><trkpt lat="45.0830997" lon="8.1524398"><ele>213.0</ele><time>2026-03-29T10:56:50.867Z</time></trkpt><trkpt lat="45.0829309" lon="8.152578"><ele>212.0</ele><time>2026-03-29T10:56:51.881Z</time></trkpt><trkpt lat="45.0827687" lon="8.1527216"><ele>211.0</ele><time>2026-03-29T10:56:52.871Z</time></trkpt><trkpt lat="45.0826177" lon="8.1528736"><ele>210.0</ele><time>2026-03-29T10:56:53.875Z</time></trkpt><trkpt lat="45.0824813" lon="8.153039"><ele>210.66666666666669</ele><time>2026-03-29T10:56:54.886Z</time></trkpt><trkpt lat="45.0823637" lon="8.1532182"><ele>211.33333333333334</ele><time>2026-03-29T10:56:55.869Z</time></trkpt><trkpt lat="45.0822624" lon="8.1534102"><ele>212.0</ele><time>2026-03-29T10:56:56.868Z</time></trkpt><trkpt lat="45.0821732" lon="8.1536154"><ele>212.0</ele><time>2026-03-29T10:56:57.868Z</time></trkpt><trkpt lat="45.0820917" lon="8.1538319"><ele>212.0</ele><time>2026-03-29T10:56:58.867Z</time></trkpt><trkpt lat="45.0820161" lon="8.1540617"><ele>212.0</ele><time>2026-03-29T10:56:59.875Z</time></trkpt><trkpt lat="45.0819427" lon="8.1542999"><ele>212.0</ele><time>2026-03-29T10:57:00.868Z</time></trkpt><trkpt lat="45.0818661" lon="8.1545451"><ele>212.0</ele><time>2026-03-29T10:57:01.888Z</time></trkpt><trkpt lat="45.0817872" lon="8.1547966"><ele>212.0</ele><time>2026-03-29T10:57:02.868Z</time></trkpt><trkpt lat="45.0817057" lon="8.1550559"><ele>212.0</ele><time>2026-03-29T10:57:03.871Z</time></trkpt><trkpt lat="45.0816215" lon="8.1553184"><ele>212.0</ele><time>2026-03-29T10:57:04.875Z</time></trkpt><trkpt lat="45.0815356" lon="8.1555867"><ele>212.0</ele><time>2026-03-29T10:57:05.899Z</time></trkpt><trkpt lat="45.081454" lon="8.155856"><ele>212.0</ele><time>2026-03-29T10:57:06.879Z</time></trkpt><trkpt lat="45.0813723" lon="8.1561271"><ele>212.0</ele><time>2026-03-29T10:57:07.87Z</time></trkpt><trkpt lat="45.0812876" lon="8.1563933"><ele>212.0</ele><time>2026-03-29T10:57:08.89Z</time></trkpt><trkpt lat="45.081198" lon="8.1566566"><ele>212.0</ele><time>2026-03-29T10:57:09.871Z</time></trkpt><trkpt lat="45.0811075" lon="8.1569214"><ele>212.0</ele><time>2026-03-29T10:57:10.868Z</time></trkpt><trkpt lat="45.0810174" lon="8.1571911"><ele>212.0</ele><time>2026-03-29T10:57:11.87Z</time></trkpt><trkpt lat="45.0809292" lon="8.1574626"><ele>212.0</ele><time>2026-03-29T10:57:12.872Z</time></trkpt><trkpt lat="45.0808481" lon="8.1577371"><ele>212.0</ele><time>2026-03-29T10:57:13.885Z</time></trkpt><trkpt lat="45.0807792" lon="8.1580173"><ele>212.0</ele><time>2026-03-29T10:57:14.884Z</time></trkpt><trkpt lat="45.080726" lon="8.1583087"><ele>210.0</ele><time>2026-03-29T10:57:15.87Z</time></trkpt><trkpt lat="45.0806916" lon="8.1586104"><ele>208.0</ele><time>2026-03-29T10:57:16.868Z</time></trkpt><trkpt lat="45.0806746" lon="8.1589157"><ele>206.0</ele><time>2026-03-29T10:57:17.875Z</time></trkpt><trkpt lat="45.0806755" lon="8.1592288"><ele>206.0</ele><time>2026-03-29T10:57:18.882Z</time></trkpt><trkpt lat="45.0806992" lon="8.1595442"><ele>206.0</ele><time>2026-03-29T10:57:19.87Z</time></trkpt><trkpt lat="45.0807431" lon="8.1598567"><ele>206.0</ele><time>2026-03-29T10:57:20.868Z</time></trkpt><trkpt lat="45.0808021" lon="8.1601621"><ele>206.0</ele><time>2026-03-29T10:57:21.869Z</time></trkpt><trkpt lat="45.0808764" lon="8.1604606"><ele>206.0</ele><time>2026-03-29T10:57:22.873Z</time></trkpt><trkpt lat="45.0809604" lon="8.1607584"><ele>206.0</ele><time>2026-03-29T10:57:23.885Z</time></trkpt><trkpt lat="45.0810489" lon="8.1610625"><ele>206.0</ele><time>2026-03-29T10:57:24.89Z</time></trkpt><trkpt lat="45.0811363" lon="8.1613717"><ele>206.5</ele><time>2026-03-29T10:57:25.906Z</time></trkpt><trkpt lat="45.0812226" lon="8.1616858"><ele>207.0</ele><time>2026-03-29T10:57:26.871Z</time></trkpt><trkpt lat="45.0813078" lon="8.1620005"><ele>207.0</ele><time>2026-03-29T10:57:27.867Z</time></trkpt><trkpt lat="45.0813919" lon="8.1623151"><ele>207.0</ele><time>2026-03-29T10:57:28.89Z</time></trkpt><trkpt lat="45.0814765" lon="8.1626296"><ele>206.5</ele><time>2026-03-29T10:57:29.869Z</time></trkpt><trkpt lat="45.0815595" lon="8.1629449"><ele>206.0</ele><time>2026-03-29T10:57:30.87Z</time></trkpt><trkpt lat="45.0816404" lon="8.1632612"><ele>206.0</ele><time>2026-03-29T10:57:31.868Z</time></trkpt><trkpt lat="45.0817221" lon="8.1635798"><ele>206.0</ele><time>2026-03-29T10:57:32.871Z</time></trkpt><trkpt lat="45.0818018" lon="8.1639001"><ele>206.0</ele><time>2026-03-29T10:57:33.868Z</time></trkpt><trkpt lat="45.0818792" lon="8.1642186"><ele>206.0</ele><time>2026-03-29T10:57:34.869Z</time></trkpt><trkpt lat="45.0819597" lon="8.164538"><ele>206.0</ele><time>2026-03-29T10:57:35.895Z</time></trkpt><trkpt lat="45.082039" lon="8.1648615"><ele>206.0</ele><time>2026-03-29T10:57:36.874Z</time></trkpt><trkpt lat="45.0821163" lon="8.1651853"><ele>206.5</ele><time>2026-03-29T10:57:37.866Z</time></trkpt><trkpt lat="45.082193" lon="8.1655035"><ele>207.0</ele><time>2026-03-29T10:57:38.871Z</time></trkpt><trkpt lat="45.0822737" lon="8.1658199"><ele>207.0</ele><time>2026-03-29T10:57:39.871Z</time></trkpt><trkpt lat="45.0823593" lon="8.1661308"><ele>207.0</ele><time>2026-03-29T10:57:40.873Z</time></trkpt><trkpt lat="45.0824398" lon="8.166437"><ele>206.66666666666669</ele><time>2026-03-29T10:57:41.872Z</time></trkpt><trkpt lat="45.082516" lon="8.1667356"><ele>206.33333333333334</ele><time>2026-03-29T10:57:42.873Z</time></trkpt><trkpt lat="45.0825906" lon="8.1670283"><ele>206.0</ele><time>2026-03-29T10:57:43.871Z</time></trkpt><trkpt lat="45.0826667" lon="8.167315"><ele>205.33333333333334</ele><time>2026-03-29T10:57:44.866Z</time></trkpt><trkpt lat="45.0827462" lon="8.1676"><ele>204.66666666666669</ele><time>2026-03-29T10:57:45.871Z</time></trkpt><trkpt lat="45.082829" lon="8.1678847"><ele>204.0</ele><time>2026-03-29T10:57:46.871Z</time></trkpt><trkpt lat="45.0829157" lon="8.1681684"><ele>204.0</ele><time>2026-03-29T10:57:47.874Z</time></trkpt><trkpt lat="45.0830081" lon="8.1684507"><ele>204.0</ele><time>2026-03-29T10:57:48.87Z</time></trkpt><trkpt lat="45.0831049" lon="8.1687317"><ele>204.0</ele><time>2026-03-29T10:57:49.873Z</time></trkpt><trkpt lat="45.0832037" lon="8.169008"><ele>203.33333333333331</ele><time>2026-03-29T10:57:50.869Z</time></trkpt><trkpt lat="45.0833043" lon="8.1692832"><ele>202.66666666666666</ele><time>2026-03-29T10:57:51.87Z</time></trkpt><trkpt lat="45.0834101" lon="8.1695601"><ele>202.0</ele><time>2026-03-29T10:57:52.87Z</time></trkpt><trkpt lat="45.0835211" lon="8.1698379"><ele>201.0</ele><time>2026-03-29T10:57:53.869Z</time></trkpt><trkpt lat="45.0836352" lon="8.1701169"><ele>200.0</ele><time>2026-03-29T10:57:54.869Z</time></trkpt><trkpt lat="45.0837537" lon="8.1703954"><ele>200.0</ele><time>2026-03-29T10:57:55.872Z</time></trkpt><trkpt lat="45.0838782" lon="8.1706746"><ele>200.0</ele><time>2026-03-29T10:57:56.866Z</time></trkpt><trkpt lat="45.0840072" lon="8.1709573"><ele>199.0</ele><time>2026-03-29T10:57:57.869Z</time></trkpt><trkpt lat="45.084141" lon="8.1712399"><ele>198.0</ele><time>2026-03-29T10:57:58.869Z</time></trkpt><trkpt lat="45.0842771" lon="8.171521"><ele>198.5</ele><time>2026-03-29T10:57:59.868Z</time></trkpt><trkpt lat="45.084416" lon="8.1717987"><ele>199.0</ele><time>2026-03-29T10:58:00.868Z</time></trkpt><trkpt lat="45.0845561" lon="8.1720735"><ele>199.0</ele><time>2026-03-29T10:58:01.873Z</time></trkpt><trkpt lat="45.0846985" lon="8.1723468"><ele>199.0</ele><time>2026-03-29T10:58:02.874Z</time></trkpt><trkpt lat="45.0848427" lon="8.1726132"><ele>199.66666666666666</ele><time>2026-03-29T10:58:03.874Z</time></trkpt><trkpt lat="45.084987" lon="8.1728662"><ele>200.33333333333331</ele><time>2026-03-29T10:58:04.868Z</time></trkpt><trkpt lat="45.0851301" lon="8.1730995"><ele>201.0</ele><time>2026-03-29T10:58:05.867Z</time></trkpt><trkpt lat="45.0852651" lon="8.1733124"><ele>201.0</ele><time>2026-03-29T10:58:06.876Z</time></trkpt><trkpt lat="45.0853902" lon="8.1735136"><ele>201.0</ele><time>2026-03-29T10:58:07.879Z</time></trkpt><trkpt lat="45.0855088" lon="8.1737046"><ele>201.0</ele><time>2026-03-29T10:58:08.874Z</time></trkpt><trkpt lat="45.0856264" lon="8.1738863"><ele>200.66666666666669</ele><time>2026-03-29T10:58:09.866Z</time></trkpt><trkpt lat="45.0857449" lon="8.1740634"><ele>200.33333333333334</ele><time>2026-03-29T10:58:10.871Z</time></trkpt><trkpt lat="45.0858633" lon="8.1742371"><ele>200.0</ele><time>2026-03-29T10:58:11.869Z</time></trkpt><trkpt lat="45.0859836" lon="8.1744077"><ele>200.0</ele><time>2026-03-29T10:58:12.9Z</time></trkpt><trkpt lat="45.0861042" lon="8.1745763"><ele>200.0</ele><time>2026-03-29T10:58:13.871Z</time></trkpt><trkpt lat="45.0862276" lon="8.1747399"><ele>200.0</ele><time>2026-03-29T10:58:14.868Z</time></trkpt><trkpt lat="45.0863498" lon="8.1748986"><ele>199.33333333333334</ele><time>2026-03-29T10:58:15.875Z</time></trkpt><trkpt lat="45.0864651" lon="8.1750553"><ele>198.66666666666669</ele><time>2026-03-29T10:58:16.867Z</time></trkpt><trkpt lat="45.0865764" lon="8.1752004"><ele>198.0</ele><time>2026-03-29T10:58:17.872Z</time></trkpt><trkpt lat="45.0866828" lon="8.1753333"><ele>198.25</ele><time>2026-03-29T10:58:18.876Z</time></trkpt><trkpt lat="45.0867795" lon="8.1754568"><ele>198.5</ele><time>2026-03-29T10:58:19.87Z</time></trkpt><trkpt lat="45.086868" lon="8.1755704"><ele>198.75</ele><time>2026-03-29T10:58:20.873Z</time></trkpt><trkpt lat="45.0869512" lon="8.1756713"><ele>199.0</ele><time>2026-03-29T10:58:21.883Z</time></trkpt><trkpt lat="45.0870393" lon="8.1757642"><ele>199.0</ele><time>2026-03-29T10:58:22.867Z</time></trkpt><trkpt lat="45.0871198" lon="8.1758537"><ele>199.0</ele><time>2026-03-29T10:58:23.875Z</time></trkpt><trkpt lat="45.0871947" lon="8.175943"><ele>199.0</ele><time>2026-03-29T10:58:24.864Z</time></trkpt><trkpt lat="45.087269" lon="8.1760339"><ele>199.0</ele><time>2026-03-29T10:58:25.878Z</time></trkpt><trkpt lat="45.0873434" lon="8.176128"><ele>199.0</ele><time>2026-03-29T10:58:26.869Z</time></trkpt><trkpt lat="45.0874141" lon="8.1762274"><ele>199.0</ele><time>2026-03-29T10:58:27.868Z</time></trkpt><trkpt lat="45.087486" lon="8.1763261"><ele>199.0</ele><time>2026-03-29T10:58:28.867Z</time></trkpt><trkpt lat="45.0875644" lon="8.1764279"><ele>199.0</ele><time>2026-03-29T10:58:29.876Z</time></trkpt><trkpt lat="45.0876483" lon="8.1765292"><ele>199.0</ele><time>2026-03-29T10:58:30.878Z</time></trkpt><trkpt lat="45.0877293" lon="8.1766356"><ele>199.0</ele><time>2026-03-29T10:58:31.904Z</time></trkpt><trkpt lat="45.0878086" lon="8.1767504"><ele>199.0</ele><time>2026-03-29T10:58:32.87Z</time></trkpt><trkpt lat="45.0878958" lon="8.1768621"><ele>199.0</ele><time>2026-03-29T10:58:33.894Z</time></trkpt><trkpt lat="45.0879888" lon="8.1769736"><ele>199.0</ele><time>2026-03-29T10:58:34.866Z</time></trkpt><trkpt lat="45.0880772" lon="8.1770881"><ele>199.0</ele><time>2026-03-29T10:58:35.876Z</time></trkpt><trkpt lat="45.0881604" lon="8.1771982"><ele>199.0</ele><time>2026-03-29T10:58:36.862Z</time></trkpt><trkpt lat="45.0882383" lon="8.1773107"><ele>199.0</ele><time>2026-03-29T10:58:37.889Z</time></trkpt><trkpt lat="45.0883205" lon="8.177427"><ele>199.0</ele><time>2026-03-29T10:58:38.866Z</time></trkpt><trkpt lat="45.0883991" lon="8.177547"><ele>199.0</ele><time>2026-03-29T10:58:39.867Z</time></trkpt><trkpt lat="45.0884853" lon="8.1776645"><ele>198.5</ele><time>2026-03-29T10:58:40.868Z</time></trkpt><trkpt lat="45.088569" lon="8.1777834"><ele>198.0</ele><time>2026-03-29T10:58:41.869Z</time></trkpt><trkpt lat="45.0886549" lon="8.1778988"><ele>197.5</ele><time>2026-03-29T10:58:42.87Z</time></trkpt><trkpt lat="45.0887409" lon="8.1780147"><ele>197.0</ele><time>2026-03-29T10:58:43.867Z</time></trkpt><trkpt lat="45.0888311" lon="8.1781288"><ele>197.0</ele><time>2026-03-29T10:58:44.867Z</time></trkpt><trkpt lat="45.0889181" lon="8.1782397"><ele>197.0</ele><time>2026-03-29T10:58:45.869Z</time></trkpt><trkpt lat="45.0890035" lon="8.1783455"><ele>197.0</ele><time>2026-03-29T10:58:46.87Z</time></trkpt><trkpt lat="45.08908" lon="8.1784449"><ele>197.0</ele><time>2026-03-29T10:58:47.867Z</time></trkpt><trkpt lat="45.0891418" lon="8.1785417"><ele>197.0</ele><time>2026-03-29T10:58:48.869Z</time></trkpt><trkpt lat="45.0892115" lon="8.1786428"><ele>197.0</ele><time>2026-03-29T10:58:49.871Z</time></trkpt><trkpt lat="45.0892914" lon="8.1787495"><ele>197.0</ele><time>2026-03-29T10:58:50.886Z</time></trkpt><trkpt lat="45.0893816" lon="8.1788616"><ele>197.0</ele><time>2026-03-29T10:58:51.872Z</time></trkpt><trkpt lat="45.0894772" lon="8.1789759"><ele>197.0</ele><time>2026-03-29T10:58:52.865Z</time></trkpt><trkpt lat="45.0895736" lon="8.179094"><ele>196.75</ele><time>2026-03-29T10:58:53.871Z</time></trkpt><trkpt lat="45.0896705" lon="8.1792165"><ele>196.5</ele><time>2026-03-29T10:58:54.895Z</time></trkpt><trkpt lat="45.0897698" lon="8.1793405"><ele>196.25</ele><time>2026-03-29T10:58:55.869Z</time></trkpt><trkpt lat="45.089872" lon="8.1794671"><ele>196.0</ele><time>2026-03-29T10:58:56.874Z</time></trkpt><trkpt lat="45.0899758" lon="8.179595"><ele>195.75</ele><time>2026-03-29T10:58:57.868Z</time></trkpt><trkpt lat="45.0900825" lon="8.1797269"><ele>195.5</ele><time>2026-03-29T10:58:58.869Z</time></trkpt><trkpt lat="45.090191" lon="8.1798594"><ele>195.25</ele><time>2026-03-29T10:58:59.867Z</time></trkpt><trkpt lat="45.0903016" lon="8.1799935"><ele>195.0</ele><time>2026-03-29T10:59:00.869Z</time></trkpt><trkpt lat="45.0904116" lon="8.1801292"><ele>194.75</ele><time>2026-03-29T10:59:01.873Z</time></trkpt><trkpt lat="45.090519" lon="8.1802631"><ele>194.5</ele><time>2026-03-29T10:59:02.87Z</time></trkpt><trkpt lat="45.0906197" lon="8.1803897"><ele>194.25</ele><time>2026-03-29T10:59:03.868Z</time></trkpt><trkpt lat="45.0907191" lon="8.1805081"><ele>194.0</ele><time>2026-03-29T10:59:04.866Z</time></trkpt><trkpt lat="45.0908161" lon="8.1806269"><ele>193.5</ele><time>2026-03-29T10:59:05.867Z</time></trkpt><trkpt lat="45.0909157" lon="8.1807525"><ele>193.0</ele><time>2026-03-29T10:59:06.868Z</time></trkpt><trkpt lat="45.0910195" lon="8.1808856"><ele>192.5</ele><time>2026-03-29T10:59:07.868Z</time></trkpt><trkpt lat="45.0911267" lon="8.1810265"><ele>192.0</ele><time>2026-03-29T10:59:08.887Z</time></trkpt><trkpt lat="45.0912363" lon="8.1811709"><ele>192.0</ele><time>2026-03-29T10:59:09.871Z</time></trkpt><trkpt lat="45.0913504" lon="8.1813188"><ele>192.0</ele><time>2026-03-29T10:59:10.868Z</time></trkpt><trkpt lat="45.0914666" lon="8.1814702"><ele>192.0</ele><time>2026-03-29T10:59:11.872Z</time></trkpt><trkpt lat="45.0915857" lon="8.1816232"><ele>193.0</ele><time>2026-03-29T10:59:12.896Z</time></trkpt><trkpt lat="45.0917083" lon="8.181779"><ele>194.0</ele><time>2026-03-29T10:59:13.867Z</time></trkpt><trkpt lat="45.0918356" lon="8.1819394"><ele>195.0</ele><time>2026-03-29T10:59:14.878Z</time></trkpt><trkpt lat="45.0919686" lon="8.182109"><ele>195.0</ele><time>2026-03-29T10:59:15.87Z</time></trkpt><trkpt lat="45.0921066" lon="8.1822864"><ele>195.0</ele><time>2026-03-29T10:59:16.899Z</time></trkpt><trkpt lat="45.0922465" lon="8.182468"><ele>195.0</ele><time>2026-03-29T10:59:17.868Z</time></trkpt><trkpt lat="45.0923901" lon="8.1826531"><ele>194.33333333333331</ele><time>2026-03-29T10:59:18.867Z</time></trkpt><trkpt lat="45.0925357" lon="8.1828411"><ele>193.66666666666666</ele><time>2026-03-29T10:59:19.877Z</time></trkpt><trkpt lat="45.0926856" lon="8.1830332"><ele>193.0</ele><time>2026-03-29T10:59:20.871Z</time></trkpt><trkpt lat="45.0928384" lon="8.1832289"><ele>193.0</ele><time>2026-03-29T10:59:21.873Z</time></trkpt><trkpt lat="45.092993" lon="8.1834273"><ele>193.0</ele><time>2026-03-29T10:59:22.869Z</time></trkpt><trkpt lat="45.0931499" lon="8.1836259"><ele>193.0</ele><time>2026-03-29T10:59:23.865Z</time></trkpt><trkpt lat="45.0933121" lon="8.1838292"><ele>192.0</ele><time>2026-03-29T10:59:24.869Z</time></trkpt><trkpt lat="45.0934773" lon="8.184038"><ele>191.0</ele><time>2026-03-29T10:59:25.868Z</time></trkpt><trkpt lat="45.093645" lon="8.1842501"><ele>190.0</ele><time>2026-03-29T10:59:26.867Z</time></trkpt><trkpt lat="45.0938121" lon="8.1844659"><ele>190.0</ele><time>2026-03-29T10:59:27.87Z</time></trkpt><trkpt lat="45.0939685" lon="8.1846914"><ele>190.0</ele><time>2026-03-29T10:59:28.867Z</time></trkpt><trkpt lat="45.0941267" lon="8.1849105"><ele>190.0</ele><time>2026-03-29T10:59:29.897Z</time></trkpt><trkpt lat="45.0942895" lon="8.1851219"><ele>190.33333333333334</ele><time>2026-03-29T10:59:30.864Z</time></trkpt><trkpt lat="45.0944488" lon="8.1853321"><ele>190.66666666666666</ele><time>2026-03-29T10:59:31.868Z</time></trkpt><trkpt lat="45.0946087" lon="8.1855368"><ele>191.0</ele><time>2026-03-29T10:59:32.871Z</time></trkpt><trkpt lat="45.094764" lon="8.1857401"><ele>191.0</ele><time>2026-03-29T10:59:33.869Z</time></trkpt><trkpt lat="45.0949168" lon="8.1859444"><ele>191.0</ele><time>2026-03-29T10:59:34.865Z</time></trkpt><trkpt lat="45.0950696" lon="8.1861522"><ele>191.0</ele><time>2026-03-29T10:59:35.87Z</time></trkpt><trkpt lat="45.095225" lon="8.1863608"><ele>191.66666666666666</ele><time>2026-03-29T10:59:36.866Z</time></trkpt><trkpt lat="45.095384" lon="8.1865681"><ele>192.33333333333331</ele><time>2026-03-29T10:59:37.867Z</time></trkpt><trkpt lat="45.0955496" lon="8.1867733"><ele>193.0</ele><time>2026-03-29T10:59:38.871Z</time></trkpt><trkpt lat="45.0957173" lon="8.1869803"><ele>193.5</ele><time>2026-03-29T10:59:39.872Z</time></trkpt><trkpt lat="45.0958854" lon="8.1871983"><ele>194.0</ele><time>2026-03-29T10:59:40.869Z</time></trkpt><trkpt lat="45.0960573" lon="8.187422"><ele>191.5</ele><time>2026-03-29T10:59:41.869Z</time></trkpt><trkpt lat="45.0962321" lon="8.1876487"><ele>189.0</ele><time>2026-03-29T10:59:42.894Z</time></trkpt><trkpt lat="45.0964081" lon="8.1878797"><ele>189.0</ele><time>2026-03-29T10:59:43.868Z</time></trkpt><trkpt lat="45.0965867" lon="8.1881128"><ele>189.0</ele><time>2026-03-29T10:59:44.871Z</time></trkpt><trkpt lat="45.0967673" lon="8.1883472"><ele>190.0</ele><time>2026-03-29T10:59:45.872Z</time></trkpt><trkpt lat="45.0969452" lon="8.188582"><ele>191.0</ele><time>2026-03-29T10:59:46.87Z</time></trkpt><trkpt lat="45.0971203" lon="8.1888128"><ele>191.0</ele><time>2026-03-29T10:59:47.865Z</time></trkpt><trkpt lat="45.0972902" lon="8.1890376"><ele>191.0</ele><time>2026-03-29T10:59:48.867Z</time></trkpt><trkpt lat="45.0974599" lon="8.1892559"><ele>191.0</ele><time>2026-03-29T10:59:49.868Z</time></trkpt><trkpt lat="45.0976281" lon="8.1894697"><ele>191.0</ele><time>2026-03-29T10:59:50.867Z</time></trkpt><trkpt lat="45.0977945" lon="8.1896822"><ele>190.0</ele><time>2026-03-29T10:59:51.87Z</time></trkpt><trkpt lat="45.097963" lon="8.1898962"><ele>189.0</ele><time>2026-03-29T10:59:52.873Z</time></trkpt><trkpt lat="45.09813" lon="8.1901106"><ele>189.0</ele><time>2026-03-29T10:59:53.869Z</time></trkpt><trkpt lat="45.098296" lon="8.1903237"><ele>189.0</ele><time>2026-03-29T10:59:54.877Z</time></trkpt><trkpt lat="45.0984601" lon="8.1905321"><ele>189.0</ele><time>2026-03-29T10:59:55.879Z</time></trkpt><trkpt lat="45.098619" lon="8.1907351"><ele>189.0</ele><time>2026-03-29T10:59:56.898Z</time></trkpt><trkpt lat="45.0987749" lon="8.1909316"><ele>189.0</ele><time>2026-03-29T10:59:57.873Z</time></trkpt><trkpt lat="45.0989302" lon="8.1911273"><ele>189.0</ele><time>2026-03-29T10:59:58.868Z</time></trkpt><trkpt lat="45.0990866" lon="8.1913275"><ele>188.66666666666666</ele><time>2026-03-29T10:59:59.873Z</time></trkpt><trkpt lat="45.0992445" lon="8.1915309"><ele>188.33333333333331</ele><time>2026-03-29T11:00:00.898Z</time></trkpt><trkpt lat="45.0994048" lon="8.1917377"><ele>188.0</ele><time>2026-03-29T11:00:01.867Z</time></trkpt><trkpt lat="45.0995675" lon="8.1919488"><ele>188.0</ele><time>2026-03-29T11:00:02.868Z</time></trkpt><trkpt lat="45.0997294" lon="8.1921647"><ele>188.0</ele><time>2026-03-29T11:00:03.877Z</time></trkpt><trkpt lat="45.0998926" lon="8.1923832"><ele>188.0</ele><time>2026-03-29T11:00:04.876Z</time></trkpt><trkpt lat="45.100058" lon="8.192601"><ele>186.5</ele><time>2026-03-29T11:00:05.875Z</time></trkpt><trkpt lat="45.1002248" lon="8.1928191"><ele>185.0</ele><time>2026-03-29T11:00:06.875Z</time></trkpt><trkpt lat="45.1003915" lon="8.1930382"><ele>185.0</ele><time>2026-03-29T11:00:07.874Z</time></trkpt><trkpt lat="45.1005562" lon="8.193253"><ele>185.0</ele><time>2026-03-29T11:00:08.865Z</time></trkpt><trkpt lat="45.1007169" lon="8.193462"><ele>185.0</ele><time>2026-03-29T11:00:09.875Z</time></trkpt><trkpt lat="45.1008772" lon="8.1936645"><ele>185.0</ele><time>2026-03-29T11:00:10.868Z</time></trkpt><trkpt lat="45.1010319" lon="8.1938623"><ele>185.0</ele><time>2026-03-29T11:00:11.871Z</time></trkpt><trkpt lat="45.1011813" lon="8.1940561"><ele>185.0</ele><time>2026-03-29T11:00:12.865Z</time></trkpt><trkpt lat="45.1013264" lon="8.1942443"><ele>185.0</ele><time>2026-03-29T11:00:13.906Z</time></trkpt><trkpt lat="45.1014697" lon="8.1944272"><ele>185.0</ele><time>2026-03-29T11:00:14.867Z</time></trkpt><trkpt lat="45.1016126" lon="8.194608"><ele>185.0</ele><time>2026-03-29T11:00:15.869Z</time></trkpt><trkpt lat="45.1017568" lon="8.194794"><ele>185.33333333333331</ele><time>2026-03-29T11:00:16.87Z</time></trkpt><trkpt lat="45.1019028" lon="8.194989"><ele>185.66666666666666</ele><time>2026-03-29T11:00:17.891Z</time></trkpt><trkpt lat="45.1020509" lon="8.1951916"><ele>186.0</ele><time>2026-03-29T11:00:18.868Z</time></trkpt><trkpt lat="45.1022023" lon="8.1953956"><ele>186.0</ele><time>2026-03-29T11:00:19.867Z</time></trkpt><trkpt lat="45.102355" lon="8.195598"><ele>186.0</ele><time>2026-03-29T11:00:20.869Z</time></trkpt><trkpt lat="45.1025037" lon="8.195796"><ele>186.0</ele><time>2026-03-29T11:00:21.872Z</time></trkpt><trkpt lat="45.1026479" lon="8.1959851"><ele>185.33333333333334</ele><time>2026-03-29T11:00:22.869Z</time></trkpt><trkpt lat="45.1027865" lon="8.1961672"><ele>184.66666666666669</ele><time>2026-03-29T11:00:23.868Z</time></trkpt><trkpt lat="45.1029206" lon="8.1963411"><ele>184.0</ele><time>2026-03-29T11:00:24.885Z</time></trkpt><trkpt lat="45.1030536" lon="8.1965098"><ele>184.0</ele><time>2026-03-29T11:00:25.867Z</time></trkpt><trkpt lat="45.1031856" lon="8.1966736"><ele>184.0</ele><time>2026-03-29T11:00:26.874Z</time></trkpt><trkpt lat="45.1033158" lon="8.1968392"><ele>184.0</ele><time>2026-03-29T11:00:27.874Z</time></trkpt><trkpt lat="45.1034466" lon="8.1970032"><ele>184.33333333333334</ele><time>2026-03-29T11:00:28.875Z</time></trkpt><trkpt lat="45.1035743" lon="8.1971676"><ele>184.66666666666666</ele><time>2026-03-29T11:00:29.865Z</time></trkpt><trkpt lat="45.1036999" lon="8.1973314"><ele>185.0</ele><time>2026-03-29T11:00:30.867Z</time></trkpt><trkpt lat="45.1038257" lon="8.1974949"><ele>185.0</ele><time>2026-03-29T11:00:31.874Z</time></trkpt><trkpt lat="45.1039493" lon="8.1976578"><ele>185.0</ele><time>2026-03-29T11:00:32.866Z</time></trkpt><trkpt lat="45.1040779" lon="8.1978162"><ele>185.0</ele><time>2026-03-29T11:00:33.868Z</time></trkpt><trkpt lat="45.1042093" lon="8.1979786"><ele>184.33333333333331</ele><time>2026-03-29T11:00:34.869Z</time></trkpt><trkpt lat="45.1043437" lon="8.1981455"><ele>183.66666666666666</ele><time>2026-03-29T11:00:35.91Z</time></trkpt><trkpt lat="45.1044797" lon="8.1983164"><ele>183.0</ele><time>2026-03-29T11:00:36.865Z</time></trkpt><trkpt lat="45.1046193" lon="8.1984938"><ele>182.66666666666666</ele><time>2026-03-29T11:00:37.869Z</time></trkpt><trkpt lat="45.1047612" lon="8.1986723"><ele>182.33333333333331</ele><time>2026-03-29T11:00:38.903Z</time></trkpt><trkpt lat="45.1049031" lon="8.1988513"><ele>182.0</ele><time>2026-03-29T11:00:39.873Z</time></trkpt><trkpt lat="45.1050458" lon="8.1990311"><ele>182.0</ele><time>2026-03-29T11:00:40.869Z</time></trkpt><trkpt lat="45.105191" lon="8.199212"><ele>182.0</ele><time>2026-03-29T11:00:41.866Z</time></trkpt><trkpt lat="45.1053325" lon="8.1993934"><ele>182.0</ele><time>2026-03-29T11:00:42.867Z</time></trkpt><trkpt lat="45.105475" lon="8.1995728"><ele>182.0</ele><time>2026-03-29T11:00:43.896Z</time></trkpt><trkpt lat="45.1056186" lon="8.1997532"><ele>182.0</ele><time>2026-03-29T11:00:44.867Z</time></trkpt><trkpt lat="45.1057619" lon="8.1999373"><ele>182.0</ele><time>2026-03-29T11:00:45.873Z</time></trkpt><trkpt lat="45.1059045" lon="8.200119"><ele>181.33333333333331</ele><time>2026-03-29T11:00:46.871Z</time></trkpt><trkpt lat="45.106047" lon="8.2003022"><ele>180.66666666666666</ele><time>2026-03-29T11:00:47.866Z</time></trkpt><trkpt lat="45.1061882" lon="8.2004903"><ele>180.0</ele><time>2026-03-29T11:00:48.873Z</time></trkpt><trkpt lat="45.1063303" lon="8.200679"><ele>180.0</ele><time>2026-03-29T11:00:49.868Z</time></trkpt><trkpt lat="45.1064749" lon="8.2008681"><ele>180.0</ele><time>2026-03-29T11:00:50.868Z</time></trkpt><trkpt lat="45.106619" lon="8.2010566"><ele>180.0</ele><time>2026-03-29T11:00:51.868Z</time></trkpt><trkpt lat="45.106761" lon="8.2012456"><ele>179.66666666666666</ele><time>2026-03-29T11:00:52.866Z</time></trkpt><trkpt lat="45.106901" lon="8.2014359"><ele>179.33333333333331</ele><time>2026-03-29T11:00:53.868Z</time></trkpt><trkpt lat="45.1070412" lon="8.2016297"><ele>179.0</ele><time>2026-03-29T11:00:54.864Z</time></trkpt><trkpt lat="45.1071843" lon="8.2018201"><ele>178.33333333333331</ele><time>2026-03-29T11:00:55.867Z</time></trkpt><trkpt lat="45.1073305" lon="8.2020075"><ele>177.66666666666666</ele><time>2026-03-29T11:00:56.867Z</time></trkpt><trkpt lat="45.1074772" lon="8.2021972"><ele>177.0</ele><time>2026-03-29T11:00:57.868Z</time></trkpt><trkpt lat="45.1076261" lon="8.2023882"><ele>177.0</ele><time>2026-03-29T11:00:58.873Z</time></trkpt><trkpt lat="45.1077755" lon="8.2025836"><ele>177.0</ele><time>2026-03-29T11:00:59.867Z</time></trkpt><trkpt lat="45.1079256" lon="8.2027807"><ele>177.0</ele><time>2026-03-29T11:01:00.865Z</time></trkpt><trkpt lat="45.1080737" lon="8.202975"><ele>175.66666666666666</ele><time>2026-03-29T11:01:01.876Z</time></trkpt><trkpt lat="45.1082228" lon="8.2031655"><ele>174.33333333333331</ele><time>2026-03-29T11:01:02.867Z</time></trkpt><trkpt lat="45.1083701" lon="8.2033526"><ele>173.0</ele><time>2026-03-29T11:01:03.865Z</time></trkpt><trkpt lat="45.1085135" lon="8.2035365"><ele>173.0</ele><time>2026-03-29T11:01:04.882Z</time></trkpt><trkpt lat="45.1086567" lon="8.2037199"><ele>173.0</ele><time>2026-03-29T11:01:05.867Z</time></trkpt><trkpt lat="45.1087982" lon="8.203901"><ele>173.0</ele><time>2026-03-29T11:01:06.87Z</time></trkpt><trkpt lat="45.1089365" lon="8.2040817"><ele>173.0</ele><time>2026-03-29T11:01:07.87Z</time></trkpt><trkpt lat="45.1090722" lon="8.2042639"><ele>173.0</ele><time>2026-03-29T11:01:08.866Z</time></trkpt><trkpt lat="45.1092056" lon="8.2044465"><ele>173.0</ele><time>2026-03-29T11:01:09.909Z</time></trkpt><trkpt lat="45.1093366" lon="8.2046306"><ele>173.0</ele><time>2026-03-29T11:01:10.872Z</time></trkpt><trkpt lat="45.1094621" lon="8.2048218"><ele>173.0</ele><time>2026-03-29T11:01:11.893Z</time></trkpt><trkpt lat="45.1095769" lon="8.2050243"><ele>173.0</ele><time>2026-03-29T11:01:12.865Z</time></trkpt><trkpt lat="45.1096748" lon="8.2052438"><ele>173.0</ele><time>2026-03-29T11:01:13.867Z</time></trkpt><trkpt lat="45.1097554" lon="8.2054755"><ele>173.0</ele><time>2026-03-29T11:01:14.867Z</time></trkpt><trkpt lat="45.1098166" lon="8.2057157"><ele>173.0</ele><time>2026-03-29T11:01:15.866Z</time></trkpt><trkpt lat="45.1098647" lon="8.2059627"><ele>172.66666666666666</ele><time>2026-03-29T11:01:16.866Z</time></trkpt><trkpt lat="45.1099022" lon="8.2062205"><ele>172.33333333333334</ele><time>2026-03-29T11:01:17.869Z</time></trkpt><trkpt lat="45.1099271" lon="8.2064834"><ele>172.0</ele><time>2026-03-29T11:01:18.865Z</time></trkpt><trkpt lat="45.1099539" lon="8.2067419"><ele>172.33333333333334</ele><time>2026-03-29T11:01:19.866Z</time></trkpt><trkpt lat="45.1099843" lon="8.206994"><ele>172.66666666666666</ele><time>2026-03-29T11:01:20.887Z</time></trkpt><trkpt lat="45.1100247" lon="8.2072376"><ele>173.0</ele><time>2026-03-29T11:01:21.867Z</time></trkpt><trkpt lat="45.1100825" lon="8.2074729"><ele>173.0</ele><time>2026-03-29T11:01:22.866Z</time></trkpt><trkpt lat="45.1101615" lon="8.2076983"><ele>173.0</ele><time>2026-03-29T11:01:23.866Z</time></trkpt><trkpt lat="45.1102607" lon="8.2079128"><ele>173.0</ele><time>2026-03-29T11:01:24.865Z</time></trkpt><trkpt lat="45.1103751" lon="8.2081119"><ele>173.0</ele><time>2026-03-29T11:01:25.871Z</time></trkpt><trkpt lat="45.1105051" lon="8.2082941"><ele>173.0</ele><time>2026-03-29T11:01:26.87Z</time></trkpt><trkpt lat="45.1106405" lon="8.2084546"><ele>173.0</ele><time>2026-03-29T11:01:27.864Z</time></trkpt><trkpt lat="45.110774" lon="8.2085916"><ele>173.75</ele><time>2026-03-29T11:01:28.873Z</time></trkpt><trkpt lat="45.110908" lon="8.208703"><ele>174.5</ele><time>2026-03-29T11:01:29.867Z</time></trkpt><trkpt lat="45.1110344" lon="8.2087994"><ele>175.25</ele><time>2026-03-29T11:01:30.871Z</time></trkpt><trkpt lat="45.1111408" lon="8.2088939"><ele>176.0</ele><time>2026-03-29T11:01:31.87Z</time></trkpt><trkpt lat="45.1112353" lon="8.2089784"><ele>175.20000000000002</ele><time>2026-03-29T11:01:32.876Z</time></trkpt><trkpt lat="45.1113239" lon="8.2090618"><ele>174.4</ele><time>2026-03-29T11:01:33.869Z</time></trkpt><trkpt lat="45.1114155" lon="8.2091496"><ele>173.6</ele><time>2026-03-29T11:01:34.871Z</time></trkpt><trkpt lat="45.1115047" lon="8.2092388"><ele>172.8</ele><time>2026-03-29T11:01:35.867Z</time></trkpt><trkpt lat="45.1115961" lon="8.2093284"><ele>172.0</ele><time>2026-03-29T11:01:36.864Z</time></trkpt><trkpt lat="45.1116882" lon="8.2094259"><ele>172.0</ele><time>2026-03-29T11:01:37.869Z</time></trkpt><trkpt lat="45.1117789" lon="8.2095277"><ele>172.0</ele><time>2026-03-29T11:01:38.869Z</time></trkpt><trkpt lat="45.11187" lon="8.2096301"><ele>172.0</ele><time>2026-03-29T11:01:39.868Z</time></trkpt><trkpt lat="45.1119651" lon="8.2097324"><ele>172.0</ele><time>2026-03-29T11:01:40.876Z</time></trkpt><trkpt lat="45.1120619" lon="8.209835"><ele>171.5</ele><time>2026-03-29T11:01:41.863Z</time></trkpt><trkpt lat="45.11216" lon="8.2099394"><ele>171.0</ele><time>2026-03-29T11:01:42.863Z</time></trkpt><trkpt lat="45.1122579" lon="8.2100447"><ele>170.5</ele><time>2026-03-29T11:01:43.867Z</time></trkpt><trkpt lat="45.1123576" lon="8.210152"><ele>170.0</ele><time>2026-03-29T11:01:44.867Z</time></trkpt><trkpt lat="45.1124528" lon="8.2102637"><ele>170.0</ele><time>2026-03-29T11:01:45.89Z</time></trkpt><trkpt lat="45.112547" lon="8.2103738"><ele>170.0</ele><time>2026-03-29T11:01:46.864Z</time></trkpt><trkpt lat="45.1126393" lon="8.2104845"><ele>170.0</ele><time>2026-03-29T11:01:47.878Z</time></trkpt><trkpt lat="45.1127327" lon="8.2105919"><ele>170.0</ele><time>2026-03-29T11:01:48.865Z</time></trkpt><trkpt lat="45.1128249" lon="8.2106971"><ele>169.8</ele><time>2026-03-29T11:01:49.864Z</time></trkpt><trkpt lat="45.1129138" lon="8.2107969"><ele>169.6</ele><time>2026-03-29T11:01:50.868Z</time></trkpt><trkpt lat="45.1130004" lon="8.2108886"><ele>169.39999999999998</ele><time>2026-03-29T11:01:51.864Z</time></trkpt><trkpt lat="45.113087" lon="8.2109831"><ele>169.2</ele><time>2026-03-29T11:01:52.868Z</time></trkpt><trkpt lat="45.11318" lon="8.2110759"><ele>169.0</ele><time>2026-03-29T11:01:53.869Z</time></trkpt><trkpt lat="45.113275" lon="8.2111811"><ele>169.75</ele><time>2026-03-29T11:01:54.867Z</time></trkpt><trkpt lat="45.1133731" lon="8.2112964"><ele>170.5</ele><time>2026-03-29T11:01:55.87Z</time></trkpt><trkpt lat="45.1134678" lon="8.2114153"><ele>171.25</ele><time>2026-03-29T11:01:56.868Z</time></trkpt><trkpt lat="45.1135612" lon="8.2115254"><ele>172.0</ele><time>2026-03-29T11:01:57.864Z</time></trkpt><trkpt lat="45.1136563" lon="8.2116307"><ele>172.0</ele><time>2026-03-29T11:01:58.867Z</time></trkpt><trkpt lat="45.1137515" lon="8.2117278"><ele>172.0</ele><time>2026-03-29T11:01:59.87Z</time></trkpt><trkpt lat="45.1138431" lon="8.2118162"><ele>172.0</ele><time>2026-03-29T11:02:00.873Z</time></trkpt><trkpt lat="45.1139256" lon="8.2118926"><ele>172.0</ele><time>2026-03-29T11:02:01.87Z</time></trkpt><trkpt lat="45.1140044" lon="8.2119663"><ele>172.0</ele><time>2026-03-29T11:02:02.874Z</time></trkpt><trkpt lat="45.1140872" lon="8.2120369"><ele>172.0</ele><time>2026-03-29T11:02:03.869Z</time></trkpt><trkpt lat="45.1141775" lon="8.2121178"><ele>172.0</ele><time>2026-03-29T11:02:04.87Z</time></trkpt><trkpt lat="45.1142798" lon="8.2122038"><ele>172.0</ele><time>2026-03-29T11:02:05.871Z</time></trkpt><trkpt lat="45.1143828" lon="8.2123069"><ele>172.0</ele><time>2026-03-29T11:02:06.868Z</time></trkpt><trkpt lat="45.1144818" lon="8.2124244"><ele>171.5</ele><time>2026-03-29T11:02:07.867Z</time></trkpt><trkpt lat="45.1145852" lon="8.2125444"><ele>171.0</ele><time>2026-03-29T11:02:08.87Z</time></trkpt><trkpt lat="45.1146816" lon="8.2126687"><ele>170.5</ele><time>2026-03-29T11:02:09.864Z</time></trkpt><trkpt lat="45.1147738" lon="8.2127955"><ele>170.0</ele><time>2026-03-29T11:02:10.866Z</time></trkpt><trkpt lat="45.1148581" lon="8.212938"><ele>170.25</ele><time>2026-03-29T11:02:11.882Z</time></trkpt><trkpt lat="45.1149516" lon="8.2130703"><ele>170.5</ele><time>2026-03-29T11:02:12.87Z</time></trkpt><trkpt lat="45.1150427" lon="8.2132099"><ele>170.75</ele><time>2026-03-29T11:02:13.865Z</time></trkpt><trkpt lat="45.1151259" lon="8.2133571"><ele>171.0</ele><time>2026-03-29T11:02:14.867Z</time></trkpt><trkpt lat="45.1152018" lon="8.2135004"><ele>171.0</ele><time>2026-03-29T11:02:15.864Z</time></trkpt><trkpt lat="45.115266" lon="8.2136431"><ele>171.0</ele><time>2026-03-29T11:02:16.886Z</time></trkpt><trkpt lat="45.1153243" lon="8.2137879"><ele>171.0</ele><time>2026-03-29T11:02:17.864Z</time></trkpt><trkpt lat="45.1153799" lon="8.2139305"><ele>171.0</ele><time>2026-03-29T11:02:18.868Z</time></trkpt><trkpt lat="45.11543" lon="8.2140723"><ele>170.5</ele><time>2026-03-29T11:02:19.886Z</time></trkpt><trkpt lat="45.1154761" lon="8.21422"><ele>170.0</ele><time>2026-03-29T11:02:20.866Z</time></trkpt><trkpt lat="45.1155086" lon="8.2143715"><ele>169.5</ele><time>2026-03-29T11:02:21.885Z</time></trkpt><trkpt lat="45.1155373" lon="8.2145212"><ele>169.0</ele><time>2026-03-29T11:02:22.875Z</time></trkpt><trkpt lat="45.1155622" lon="8.2146798"><ele>169.25</ele><time>2026-03-29T11:02:23.876Z</time></trkpt><trkpt lat="45.1155875" lon="8.2148493"><ele>169.5</ele><time>2026-03-29T11:02:24.87Z</time></trkpt><trkpt lat="45.1156117" lon="8.2150296"><ele>169.75</ele><time>2026-03-29T11:02:25.868Z</time></trkpt><trkpt lat="45.1156367" lon="8.2152175"><ele>170.0</ele><time>2026-03-29T11:02:26.866Z</time></trkpt><trkpt lat="45.115666" lon="8.2154114"><ele>170.0</ele><time>2026-03-29T11:02:27.865Z</time></trkpt><trkpt lat="45.1156963" lon="8.2156082"><ele>170.0</ele><time>2026-03-29T11:02:28.875Z</time></trkpt><trkpt lat="45.1157269" lon="8.2158062"><ele>170.0</ele><time>2026-03-29T11:02:29.871Z</time></trkpt><trkpt lat="45.1157582" lon="8.2160046"><ele>170.0</ele><time>2026-03-29T11:02:30.872Z</time></trkpt><trkpt lat="45.1157909" lon="8.2162034"><ele>169.75</ele><time>2026-03-29T11:02:31.864Z</time></trkpt><trkpt lat="45.1158258" lon="8.2164014"><ele>169.5</ele><time>2026-03-29T11:02:32.866Z</time></trkpt><trkpt lat="45.1158601" lon="8.2166011"><ele>169.25</ele><time>2026-03-29T11:02:33.867Z</time></trkpt><trkpt lat="45.1158938" lon="8.2168035"><ele>169.0</ele><time>2026-03-29T11:02:34.866Z</time></trkpt><trkpt lat="45.1159385" lon="8.2170024"><ele>168.75</ele><time>2026-03-29T11:02:35.878Z</time></trkpt><trkpt lat="45.1159788" lon="8.2172031"><ele>168.5</ele><time>2026-03-29T11:02:36.89Z</time></trkpt><trkpt lat="45.1160158" lon="8.2174075"><ele>168.25</ele><time>2026-03-29T11:02:37.875Z</time></trkpt><trkpt lat="45.1160447" lon="8.2176171"><ele>168.0</ele><time>2026-03-29T11:02:38.861Z</time></trkpt><trkpt lat="45.1160778" lon="8.2178354"><ele>168.0</ele><time>2026-03-29T11:02:39.872Z</time></trkpt><trkpt lat="45.1161145" lon="8.2180661"><ele>168.0</ele><time>2026-03-29T11:02:40.866Z</time></trkpt><trkpt lat="45.1161511" lon="8.2183129"><ele>168.0</ele><time>2026-03-29T11:02:41.876Z</time></trkpt><trkpt lat="45.1161934" lon="8.2185731"><ele>168.0</ele><time>2026-03-29T11:02:42.887Z</time></trkpt><trkpt lat="45.1162383" lon="8.2188449"><ele>168.0</ele><time>2026-03-29T11:02:43.876Z</time></trkpt><trkpt lat="45.1162856" lon="8.2191218"><ele>168.0</ele><time>2026-03-29T11:02:44.883Z</time></trkpt><trkpt lat="45.1163353" lon="8.2194016"><ele>168.0</ele><time>2026-03-29T11:02:45.867Z</time></trkpt><trkpt lat="45.1163862" lon="8.2196848"><ele>168.0</ele><time>2026-03-29T11:02:46.876Z</time></trkpt><trkpt lat="45.1164371" lon="8.2199716"><ele>168.0</ele><time>2026-03-29T11:02:47.874Z</time></trkpt><trkpt lat="45.1164889" lon="8.2202604"><ele>167.66666666666666</ele><time>2026-03-29T11:02:48.872Z</time></trkpt><trkpt lat="45.1165393" lon="8.2205495"><ele>167.33333333333331</ele><time>2026-03-29T11:02:49.868Z</time></trkpt><trkpt lat="45.1165886" lon="8.2208395"><ele>167.0</ele><time>2026-03-29T11:02:50.878Z</time></trkpt><trkpt lat="45.1166401" lon="8.2211263"><ele>167.0</ele><time>2026-03-29T11:02:51.871Z</time></trkpt><trkpt lat="45.1166942" lon="8.2214077"><ele>167.0</ele><time>2026-03-29T11:02:52.866Z</time></trkpt><trkpt lat="45.116747" lon="8.2216875"><ele>167.0</ele><time>2026-03-29T11:02:53.864Z</time></trkpt><trkpt lat="45.1167984" lon="8.2219708"><ele>166.66666666666666</ele><time>2026-03-29T11:02:54.87Z</time></trkpt><trkpt lat="45.1168483" lon="8.2222528"><ele>166.33333333333334</ele><time>2026-03-29T11:02:55.904Z</time></trkpt><trkpt lat="45.1168969" lon="8.2225372"><ele>166.0</ele><time>2026-03-29T11:02:56.866Z</time></trkpt><trkpt lat="45.116948" lon="8.2228276"><ele>166.0</ele><time>2026-03-29T11:02:57.867Z</time></trkpt><trkpt lat="45.1169992" lon="8.2231205"><ele>166.0</ele><time>2026-03-29T11:02:58.88Z</time></trkpt><trkpt lat="45.1170525" lon="8.2234135"><ele>166.0</ele><time>2026-03-29T11:02:59.867Z</time></trkpt><trkpt lat="45.1171077" lon="8.2237034"><ele>165.66666666666669</ele><time>2026-03-29T11:03:00.866Z</time></trkpt><trkpt lat="45.1171624" lon="8.2239911"><ele>165.33333333333334</ele><time>2026-03-29T11:03:01.866Z</time></trkpt><trkpt lat="45.1172169" lon="8.2242808"><ele>165.0</ele><time>2026-03-29T11:03:02.864Z</time></trkpt><trkpt lat="45.1172716" lon="8.2245727"><ele>164.66666666666666</ele><time>2026-03-29T11:03:03.868Z</time></trkpt><trkpt lat="45.1173262" lon="8.2248665"><ele>164.33333333333331</ele><time>2026-03-29T11:03:04.873Z</time></trkpt><trkpt lat="45.1173803" lon="8.2251635"><ele>164.0</ele><time>2026-03-29T11:03:05.878Z</time></trkpt><trkpt lat="45.1174335" lon="8.2254653"><ele>165.66666666666666</ele><time>2026-03-29T11:03:06.866Z</time></trkpt><trkpt lat="45.1174885" lon="8.2257692"><ele>167.33333333333334</ele><time>2026-03-29T11:03:07.865Z</time></trkpt><trkpt lat="45.1175448" lon="8.2260714"><ele>169.0</ele><time>2026-03-29T11:03:08.876Z</time></trkpt><trkpt lat="45.1176024" lon="8.2263733"><ele>168.66666666666669</ele><time>2026-03-29T11:03:09.872Z</time></trkpt><trkpt lat="45.1176592" lon="8.2266774"><ele>168.33333333333334</ele><time>2026-03-29T11:03:10.874Z</time></trkpt><trkpt lat="45.117714" lon="8.2269861"><ele>168.0</ele><time>2026-03-29T11:03:11.863Z</time></trkpt><trkpt lat="45.1177703" lon="8.2272967"><ele>165.5</ele><time>2026-03-29T11:03:12.873Z</time></trkpt><trkpt lat="45.1178255" lon="8.2276086"><ele>163.0</ele><time>2026-03-29T11:03:13.878Z</time></trkpt><trkpt lat="45.1178802" lon="8.2279205"><ele>162.5</ele><time>2026-03-29T11:03:14.89Z</time></trkpt><trkpt lat="45.1179338" lon="8.2282333"><ele>162.0</ele><time>2026-03-29T11:03:15.868Z</time></trkpt><trkpt lat="45.1179871" lon="8.2285457"><ele>162.0</ele><time>2026-03-29T11:03:16.869Z</time></trkpt><trkpt lat="45.1180417" lon="8.2288561"><ele>162.0</ele><time>2026-03-29T11:03:17.875Z</time></trkpt><trkpt lat="45.1180951" lon="8.2291668"><ele>162.0</ele><time>2026-03-29T11:03:18.868Z</time></trkpt><trkpt lat="45.1181483" lon="8.2294764"><ele>162.0</ele><time>2026-03-29T11:03:19.878Z</time></trkpt><trkpt lat="45.1182006" lon="8.2297862"><ele>162.33333333333334</ele><time>2026-03-29T11:03:20.868Z</time></trkpt><trkpt lat="45.1182528" lon="8.2300929"><ele>162.66666666666669</ele><time>2026-03-29T11:03:21.866Z</time></trkpt><trkpt lat="45.1183044" lon="8.2303931"><ele>163.0</ele><time>2026-03-29T11:03:22.87Z</time></trkpt><trkpt lat="45.1183571" lon="8.2306906"><ele>163.0</ele><time>2026-03-29T11:03:23.864Z</time></trkpt><trkpt lat="45.1184109" lon="8.230987"><ele>163.0</ele><time>2026-03-29T11:03:24.878Z</time></trkpt><trkpt lat="45.118464" lon="8.2312788"><ele>163.0</ele><time>2026-03-29T11:03:25.87Z</time></trkpt><trkpt lat="45.1185169" lon="8.2315618"><ele>162.66666666666669</ele><time>2026-03-29T11:03:26.868Z</time></trkpt><trkpt lat="45.1185674" lon="8.2318331"><ele>162.33333333333334</ele><time>2026-03-29T11:03:27.875Z</time></trkpt><trkpt lat="45.1186143" lon="8.2320956"><ele>162.0</ele><time>2026-03-29T11:03:28.869Z</time></trkpt><trkpt lat="45.1186589" lon="8.2323537"><ele>162.0</ele><time>2026-03-29T11:03:29.878Z</time></trkpt><trkpt lat="45.1187067" lon="8.2326109"><ele>162.0</ele><time>2026-03-29T11:03:30.871Z</time></trkpt><trkpt lat="45.1187542" lon="8.2328705"><ele>162.0</ele><time>2026-03-29T11:03:31.869Z</time></trkpt><trkpt lat="45.1188022" lon="8.2331327"><ele>161.66666666666666</ele><time>2026-03-29T11:03:32.865Z</time></trkpt><trkpt lat="45.1188477" lon="8.2333957"><ele>161.33333333333331</ele><time>2026-03-29T11:03:33.882Z</time></trkpt><trkpt lat="45.1188884" lon="8.2336548"><ele>161.0</ele><time>2026-03-29T11:03:34.873Z</time></trkpt><trkpt lat="45.1189203" lon="8.2339131"><ele>160.66666666666666</ele><time>2026-03-29T11:03:35.867Z</time></trkpt><trkpt lat="45.1189425" lon="8.2341718"><ele>160.33333333333334</ele><time>2026-03-29T11:03:36.868Z</time></trkpt><trkpt lat="45.1189553" lon="8.2344315"><ele>160.0</ele><time>2026-03-29T11:03:37.869Z</time></trkpt><trkpt lat="45.1189608" lon="8.2346956"><ele>161.0</ele><time>2026-03-29T11:03:38.883Z</time></trkpt><trkpt lat="45.1189615" lon="8.2349594"><ele>162.0</ele><time>2026-03-29T11:03:39.868Z</time></trkpt><trkpt lat="45.1189601" lon="8.2352224"><ele>163.0</ele><time>2026-03-29T11:03:40.868Z</time></trkpt><trkpt lat="45.1189623" lon="8.2354849"><ele>163.66666666666669</ele><time>2026-03-29T11:03:41.868Z</time></trkpt><trkpt lat="45.118966" lon="8.2357461"><ele>164.33333333333334</ele><time>2026-03-29T11:03:42.867Z</time></trkpt><trkpt lat="45.1189698" lon="8.2360084"><ele>165.0</ele><time>2026-03-29T11:03:43.866Z</time></trkpt><trkpt lat="45.1189721" lon="8.2362706"><ele>164.0</ele><time>2026-03-29T11:03:44.871Z</time></trkpt><trkpt lat="45.1189724" lon="8.2365331"><ele>163.0</ele><time>2026-03-29T11:03:45.868Z</time></trkpt><trkpt lat="45.1189724" lon="8.2367859"><ele>162.0</ele><time>2026-03-29T11:03:46.863Z</time></trkpt><trkpt lat="45.1189725" lon="8.2370328"><ele>162.0</ele><time>2026-03-29T11:03:47.874Z</time></trkpt><trkpt lat="45.1189719" lon="8.2372687"><ele>162.0</ele><time>2026-03-29T11:03:48.865Z</time></trkpt><trkpt lat="45.1189723" lon="8.2374996"><ele>162.0</ele><time>2026-03-29T11:03:49.87Z</time></trkpt><trkpt lat="45.1189728" lon="8.2377272"><ele>162.0</ele><time>2026-03-29T11:03:50.884Z</time></trkpt><trkpt lat="45.1189734" lon="8.2379557"><ele>162.0</ele><time>2026-03-29T11:03:51.87Z</time></trkpt><trkpt lat="45.1189731" lon="8.2381872"><ele>162.0</ele><time>2026-03-29T11:03:52.866Z</time></trkpt><trkpt lat="45.1189721" lon="8.2384214"><ele>162.33333333333334</ele><time>2026-03-29T11:03:53.864Z</time></trkpt><trkpt lat="45.1189725" lon="8.2386546"><ele>162.66666666666669</ele><time>2026-03-29T11:03:54.868Z</time></trkpt><trkpt lat="45.1189717" lon="8.2388877"><ele>163.0</ele><time>2026-03-29T11:03:55.867Z</time></trkpt><trkpt lat="45.1189705" lon="8.2391189"><ele>163.0</ele><time>2026-03-29T11:03:56.868Z</time></trkpt><trkpt lat="45.1189683" lon="8.2393517"><ele>163.0</ele><time>2026-03-29T11:03:57.864Z</time></trkpt><trkpt lat="45.1189676" lon="8.2395846"><ele>163.0</ele><time>2026-03-29T11:03:58.865Z</time></trkpt><trkpt lat="45.1189682" lon="8.2398172"><ele>162.33333333333334</ele><time>2026-03-29T11:03:59.87Z</time></trkpt><trkpt lat="45.1189679" lon="8.2400492"><ele>161.66666666666666</ele><time>2026-03-29T11:04:00.867Z</time></trkpt><trkpt lat="45.1189665" lon="8.2402738"><ele>161.0</ele><time>2026-03-29T11:04:01.868Z</time></trkpt><trkpt lat="45.1189669" lon="8.24049"><ele>161.0</ele><time>2026-03-29T11:04:02.868Z</time></trkpt><trkpt lat="45.1189683" lon="8.2406999"><ele>161.0</ele><time>2026-03-29T11:04:03.867Z</time></trkpt><trkpt lat="45.1189688" lon="8.240907"><ele>161.0</ele><time>2026-03-29T11:04:04.865Z</time></trkpt><trkpt lat="45.1189703" lon="8.2411151"><ele>161.0</ele><time>2026-03-29T11:04:05.869Z</time></trkpt><trkpt lat="45.1189694" lon="8.2413229"><ele>160.75</ele><time>2026-03-29T11:04:06.898Z</time></trkpt><trkpt lat="45.1189704" lon="8.2415259"><ele>160.5</ele><time>2026-03-29T11:04:07.874Z</time></trkpt><trkpt lat="45.1189714" lon="8.2417193"><ele>160.25</ele><time>2026-03-29T11:04:08.874Z</time></trkpt><trkpt lat="45.1189734" lon="8.2418991"><ele>160.0</ele><time>2026-03-29T11:04:09.873Z</time></trkpt><trkpt lat="45.1189728" lon="8.2420619"><ele>160.0</ele><time>2026-03-29T11:04:10.87Z</time></trkpt><trkpt lat="45.118975" lon="8.2422093"><ele>160.0</ele><time>2026-03-29T11:04:11.866Z</time></trkpt><trkpt lat="45.1189788" lon="8.2423441"><ele>160.0</ele><time>2026-03-29T11:04:12.869Z</time></trkpt><trkpt lat="45.1189805" lon="8.2424729"><ele>160.0</ele><time>2026-03-29T11:04:13.863Z</time></trkpt><trkpt lat="45.1189829" lon="8.2425913"><ele>160.0</ele><time>2026-03-29T11:04:14.872Z</time></trkpt><trkpt lat="45.1189881" lon="8.2427108"><ele>159.75</ele><time>2026-03-29T11:04:15.871Z</time></trkpt><trkpt lat="45.1189918" lon="8.242841"><ele>159.5</ele><time>2026-03-29T11:04:16.874Z</time></trkpt><trkpt lat="45.1189962" lon="8.2429896"><ele>159.25</ele><time>2026-03-29T11:04:17.872Z</time></trkpt><trkpt lat="45.1189992" lon="8.2431604"><ele>159.0</ele><time>2026-03-29T11:04:18.9Z</time></trkpt><trkpt lat="45.119" lon="8.2433483"><ele>159.0</ele><time>2026-03-29T11:04:19.867Z</time></trkpt><trkpt lat="45.119" lon="8.2435473"><ele>159.0</ele><time>2026-03-29T11:04:20.867Z</time></trkpt><trkpt lat="45.1189999" lon="8.243751"><ele>159.0</ele><time>2026-03-29T11:04:21.872Z</time></trkpt><trkpt lat="45.1190012" lon="8.2439547"><ele>159.0</ele><time>2026-03-29T11:04:22.868Z</time></trkpt><trkpt lat="45.1190035" lon="8.244155"><ele>159.0</ele><time>2026-03-29T11:04:23.864Z</time></trkpt><trkpt lat="45.1190066" lon="8.2443566"><ele>159.0</ele><time>2026-03-29T11:04:24.866Z</time></trkpt><trkpt lat="45.1190118" lon="8.2445575"><ele>159.0</ele><time>2026-03-29T11:04:25.896Z</time></trkpt><trkpt lat="45.1190082" lon="8.2447636"><ele>159.0</ele><time>2026-03-29T11:04:26.866Z</time></trkpt><trkpt lat="45.1190039" lon="8.244984"><ele>159.0</ele><time>2026-03-29T11:04:27.863Z</time></trkpt><trkpt lat="45.1190023" lon="8.2452169"><ele>159.0</ele><time>2026-03-29T11:04:28.866Z</time></trkpt><trkpt lat="45.1190034" lon="8.2454686"><ele>159.0</ele><time>2026-03-29T11:04:29.9Z</time></trkpt><trkpt lat="45.1190045" lon="8.2457337"><ele>159.0</ele><time>2026-03-29T11:04:30.894Z</time></trkpt><trkpt lat="45.1190039" lon="8.2459997"><ele>159.0</ele><time>2026-03-29T11:04:31.871Z</time></trkpt><trkpt lat="45.1190036" lon="8.2462631"><ele>159.0</ele><time>2026-03-29T11:04:32.868Z</time></trkpt><trkpt lat="45.1190059" lon="8.2465201"><ele>158.33333333333334</ele><time>2026-03-29T11:04:33.866Z</time></trkpt><trkpt lat="45.1190091" lon="8.2467707"><ele>157.66666666666669</ele><time>2026-03-29T11:04:34.869Z</time></trkpt><trkpt lat="45.1190126" lon="8.2470175"><ele>157.0</ele><time>2026-03-29T11:04:35.868Z</time></trkpt><trkpt lat="45.1190161" lon="8.2472622"><ele>157.33333333333334</ele><time>2026-03-29T11:04:36.868Z</time></trkpt><trkpt lat="45.1190192" lon="8.2475053"><ele>157.66666666666666</ele><time>2026-03-29T11:04:37.869Z</time></trkpt><trkpt lat="45.1190224" lon="8.2477519"><ele>158.0</ele><time>2026-03-29T11:04:38.889Z</time></trkpt><trkpt lat="45.1190237" lon="8.2480049"><ele>158.33333333333331</ele><time>2026-03-29T11:04:39.868Z</time></trkpt><trkpt lat="45.1190262" lon="8.2482587"><ele>158.66666666666666</ele><time>2026-03-29T11:04:40.864Z</time></trkpt><trkpt lat="45.1190281" lon="8.2485144"><ele>159.0</ele><time>2026-03-29T11:04:41.864Z</time></trkpt><trkpt lat="45.1190285" lon="8.2487716"><ele>158.66666666666666</ele><time>2026-03-29T11:04:42.886Z</time></trkpt><trkpt lat="45.1190307" lon="8.2490332"><ele>158.33333333333331</ele><time>2026-03-29T11:04:43.866Z</time></trkpt><trkpt lat="45.1190325" lon="8.2493008"><ele>158.0</ele><time>2026-03-29T11:04:44.868Z</time></trkpt><trkpt lat="45.119032" lon="8.2495763"><ele>158.0</ele><time>2026-03-29T11:04:45.869Z</time></trkpt><trkpt lat="45.1190294" lon="8.2498572"><ele>158.0</ele><time>2026-03-29T11:04:46.868Z</time></trkpt><trkpt lat="45.1190282" lon="8.2501405"><ele>158.0</ele><time>2026-03-29T11:04:47.872Z</time></trkpt><trkpt lat="45.1190276" lon="8.2504278"><ele>157.33333333333331</ele><time>2026-03-29T11:04:48.867Z</time></trkpt><trkpt lat="45.1190262" lon="8.2507165"><ele>156.66666666666666</ele><time>2026-03-29T11:04:49.867Z</time></trkpt><trkpt lat="45.1190181" lon="8.251008"><ele>156.0</ele><time>2026-03-29T11:04:50.873Z</time></trkpt><trkpt lat="45.1190039" lon="8.2512967"><ele>156.0</ele><time>2026-03-29T11:04:51.866Z</time></trkpt><trkpt lat="45.1189817" lon="8.2515854"><ele>156.0</ele><time>2026-03-29T11:04:52.87Z</time></trkpt><trkpt lat="45.118953" lon="8.2518772"><ele>156.0</ele><time>2026-03-29T11:04:53.866Z</time></trkpt><trkpt lat="45.1189139" lon="8.2521687"><ele>155.66666666666666</ele><time>2026-03-29T11:04:54.872Z</time></trkpt><trkpt lat="45.1188679" lon="8.2524627"><ele>155.33333333333331</ele><time>2026-03-29T11:04:55.869Z</time></trkpt><trkpt lat="45.1188088" lon="8.252758"><ele>155.0</ele><time>2026-03-29T11:04:56.863Z</time></trkpt><trkpt lat="45.1187363" lon="8.2530518"><ele>154.66666666666666</ele><time>2026-03-29T11:04:57.867Z</time></trkpt><trkpt lat="45.1186527" lon="8.2533429"><ele>154.33333333333334</ele><time>2026-03-29T11:04:58.868Z</time></trkpt><trkpt lat="45.1185663" lon="8.2536282"><ele>154.0</ele><time>2026-03-29T11:04:59.878Z</time></trkpt><trkpt lat="45.1184841" lon="8.2539018"><ele>155.0</ele><time>2026-03-29T11:05:00.872Z</time></trkpt><trkpt lat="45.1184087" lon="8.2541571"><ele>156.0</ele><time>2026-03-29T11:05:01.867Z</time></trkpt><trkpt lat="45.1183462" lon="8.2543856"><ele>157.0</ele><time>2026-03-29T11:05:02.869Z</time></trkpt><trkpt lat="45.1182906" lon="8.2545919"><ele>157.0</ele><time>2026-03-29T11:05:03.868Z</time></trkpt><trkpt lat="45.1182404" lon="8.2547794"><ele>157.0</ele><time>2026-03-29T11:05:04.876Z</time></trkpt><trkpt lat="45.1181958" lon="8.2549569"><ele>157.0</ele><time>2026-03-29T11:05:05.871Z</time></trkpt><trkpt lat="45.1181528" lon="8.2551283"><ele>157.0</ele><time>2026-03-29T11:05:06.869Z</time></trkpt><trkpt lat="45.1181112" lon="8.2553056"><ele>156.25</ele><time>2026-03-29T11:05:07.869Z</time></trkpt><trkpt lat="45.1180661" lon="8.2554923"><ele>155.5</ele><time>2026-03-29T11:05:08.873Z</time></trkpt><trkpt lat="45.1180183" lon="8.2556836"><ele>154.75</ele><time>2026-03-29T11:05:09.873Z</time></trkpt><trkpt lat="45.1179707" lon="8.2558737"><ele>154.0</ele><time>2026-03-29T11:05:10.871Z</time></trkpt><trkpt lat="45.1179245" lon="8.2560622"><ele>153.66666666666669</ele><time>2026-03-29T11:05:11.868Z</time></trkpt><trkpt lat="45.1178731" lon="8.2562563"><ele>153.33333333333334</ele><time>2026-03-29T11:05:12.874Z</time></trkpt><trkpt lat="45.1178176" lon="8.2564569"><ele>153.0</ele><time>2026-03-29T11:05:13.883Z</time></trkpt><trkpt lat="45.1177597" lon="8.2566625"><ele>153.0</ele><time>2026-03-29T11:05:14.87Z</time></trkpt><trkpt lat="45.1177026" lon="8.2568706"><ele>153.0</ele><time>2026-03-29T11:05:15.866Z</time></trkpt><trkpt lat="45.1176466" lon="8.2570776"><ele>153.0</ele><time>2026-03-29T11:05:16.873Z</time></trkpt><trkpt lat="45.1175927" lon="8.257279"><ele>153.33333333333334</ele><time>2026-03-29T11:05:17.874Z</time></trkpt><trkpt lat="45.117539" lon="8.2574761"><ele>153.66666666666669</ele><time>2026-03-29T11:05:18.871Z</time></trkpt><trkpt lat="45.117484" lon="8.257674"><ele>154.0</ele><time>2026-03-29T11:05:19.866Z</time></trkpt><trkpt lat="45.1174292" lon="8.257879"><ele>154.0</ele><time>2026-03-29T11:05:20.866Z</time></trkpt><trkpt lat="45.1173736" lon="8.2580855"><ele>154.0</ele><time>2026-03-29T11:05:21.87Z</time></trkpt><trkpt lat="45.1173177" lon="8.2582892"><ele>154.0</ele><time>2026-03-29T11:05:22.871Z</time></trkpt><trkpt lat="45.1172643" lon="8.2584908"><ele>154.0</ele><time>2026-03-29T11:05:23.868Z</time></trkpt><trkpt lat="45.1172101" lon="8.2586921"><ele>154.0</ele><time>2026-03-29T11:05:24.868Z</time></trkpt><trkpt lat="45.117154" lon="8.2588946"><ele>154.0</ele><time>2026-03-29T11:05:25.868Z</time></trkpt><trkpt lat="45.1170991" lon="8.2591016"><ele>154.33333333333334</ele><time>2026-03-29T11:05:26.87Z</time></trkpt><trkpt lat="45.1170427" lon="8.2593094"><ele>154.66666666666666</ele><time>2026-03-29T11:05:27.877Z</time></trkpt><trkpt lat="45.116986" lon="8.2595191"><ele>155.0</ele><time>2026-03-29T11:05:28.864Z</time></trkpt><trkpt lat="45.1169303" lon="8.2597364"><ele>155.0</ele><time>2026-03-29T11:05:29.871Z</time></trkpt><trkpt lat="45.1168738" lon="8.2599539"><ele>155.0</ele><time>2026-03-29T11:05:30.865Z</time></trkpt><trkpt lat="45.1168183" lon="8.2601655"><ele>155.0</ele><time>2026-03-29T11:05:31.864Z</time></trkpt><trkpt lat="45.116769" lon="8.2603633"><ele>155.0</ele><time>2026-03-29T11:05:32.868Z</time></trkpt><trkpt lat="45.1167257" lon="8.2605377"><ele>155.0</ele><time>2026-03-29T11:05:33.891Z</time></trkpt><trkpt lat="45.1166904" lon="8.2606787"><ele>155.0</ele><time>2026-03-29T11:05:34.874Z</time></trkpt><trkpt lat="45.1166611" lon="8.2607751"><ele>155.0</ele><time>2026-03-29T11:05:35.876Z</time></trkpt><trkpt lat="45.1166026" lon="8.2608701"><ele>155.0</ele><time>2026-03-29T11:05:37.866Z</time></trkpt><trkpt lat="45.1165186" lon="8.260905"><ele>154.71428571428572</ele><time>2026-03-29T11:05:39.867Z</time></trkpt><trkpt lat="45.1164397" lon="8.2609349"><ele>154.42857142857142</ele><time>2026-03-29T11:05:41.866Z</time></trkpt><trkpt lat="45.116379" lon="8.2609912"><ele>154.14285714285714</ele><time>2026-03-29T11:05:44.868Z</time></trkpt><trkpt lat="45.1163407" lon="8.2610696"><ele>153.85714285714286</ele><time>2026-03-29T11:05:48.873Z</time></trkpt><trkpt lat="45.1162739" lon="8.2609945"><ele>153.57142857142858</ele><time>2026-03-29T11:05:52.893Z</time></trkpt><trkpt lat="45.1162897" lon="8.260908"><ele>153.28571428571428</ele><time>2026-03-29T11:05:55.866Z</time></trkpt><trkpt lat="45.1163011" lon="8.2610076"><ele>153.0</ele><time>2026-03-29T11:06:01.87Z</time></trkpt><trkpt lat="45.1162822" lon="8.2611236"><ele>153.0</ele><time>2026-03-29T11:08:37.865Z</time></trkpt><trkpt lat="45.1163341" lon="8.2612738"><ele>153.0</ele><time>2026-03-29T11:08:39.86Z</time></trkpt><trkpt lat="45.1163784" lon="8.2614085"><ele>153.0</ele><time>2026-03-29T11:08:41.864Z</time></trkpt><trkpt lat="45.116401" lon="8.2615089"><ele>153.0</ele><time>2026-03-29T11:08:43.869Z</time></trkpt><trkpt lat="45.1163934" lon="8.2616635"><ele>153.0</ele><time>2026-03-29T11:08:45.863Z</time></trkpt><trkpt lat="45.1163706" lon="8.2617846"><ele>153.0</ele><time>2026-03-29T11:08:46.866Z</time></trkpt><trkpt lat="45.1163368" lon="8.2619269"><ele>153.0</ele><time>2026-03-29T11:08:47.867Z</time></trkpt><trkpt lat="45.1162965" lon="8.2620864"><ele>153.0</ele><time>2026-03-29T11:08:48.863Z</time></trkpt><trkpt lat="45.11625" lon="8.2622665"><ele>153.0</ele><time>2026-03-29T11:08:49.871Z</time></trkpt><trkpt lat="45.1161998" lon="8.2624582"><ele>153.0</ele><time>2026-03-29T11:08:50.871Z</time></trkpt><trkpt lat="45.116145" lon="8.2626618"><ele>153.0</ele><time>2026-03-29T11:08:51.873Z</time></trkpt><trkpt lat="45.1160892" lon="8.2628744"><ele>153.0</ele><time>2026-03-29T11:08:52.861Z</time></trkpt><trkpt lat="45.1160314" lon="8.2630937"><ele>153.0</ele><time>2026-03-29T11:08:53.885Z</time></trkpt><trkpt lat="45.115973" lon="8.2633234"><ele>153.0</ele><time>2026-03-29T11:08:54.878Z</time></trkpt><trkpt lat="45.1159103" lon="8.2635616"><ele>153.0</ele><time>2026-03-29T11:08:55.866Z</time></trkpt><trkpt lat="45.1158438" lon="8.2638074"><ele>152.66666666666666</ele><time>2026-03-29T11:08:56.864Z</time></trkpt><trkpt lat="45.1157765" lon="8.2640566"><ele>152.33333333333331</ele><time>2026-03-29T11:08:57.863Z</time></trkpt><trkpt lat="45.1157035" lon="8.2643063"><ele>152.0</ele><time>2026-03-29T11:08:58.866Z</time></trkpt><trkpt lat="45.1156299" lon="8.26456"><ele>153.0</ele><time>2026-03-29T11:08:59.865Z</time></trkpt><trkpt lat="45.1155557" lon="8.2648186"><ele>154.0</ele><time>2026-03-29T11:09:00.863Z</time></trkpt><trkpt lat="45.1154809" lon="8.265085"><ele>155.0</ele><time>2026-03-29T11:09:01.867Z</time></trkpt><trkpt lat="45.1154054" lon="8.2653597"><ele>155.0</ele><time>2026-03-29T11:09:02.867Z</time></trkpt><trkpt lat="45.1153284" lon="8.2656391"><ele>155.0</ele><time>2026-03-29T11:09:03.861Z</time></trkpt><trkpt lat="45.1152496" lon="8.2659197"><ele>155.0</ele><time>2026-03-29T11:09:04.861Z</time></trkpt><trkpt lat="45.115174" lon="8.2662072"><ele>155.0</ele><time>2026-03-29T11:09:05.864Z</time></trkpt><trkpt lat="45.1150978" lon="8.2665025"><ele>155.0</ele><time>2026-03-29T11:09:06.866Z</time></trkpt><trkpt lat="45.1150176" lon="8.266807"><ele>155.0</ele><time>2026-03-29T11:09:07.864Z</time></trkpt><trkpt lat="45.1149325" lon="8.2671145"><ele>155.0</ele><time>2026-03-29T11:09:08.873Z</time></trkpt><trkpt lat="45.1148462" lon="8.2674281"><ele>154.0</ele><time>2026-03-29T11:09:09.864Z</time></trkpt><trkpt lat="45.1147581" lon="8.2677515"><ele>153.0</ele><time>2026-03-29T11:09:10.864Z</time></trkpt><trkpt lat="45.1146669" lon="8.2680851"><ele>152.0</ele><time>2026-03-29T11:09:11.864Z</time></trkpt><trkpt lat="45.1145715" lon="8.2684262"><ele>151.0</ele><time>2026-03-29T11:09:12.867Z</time></trkpt><trkpt lat="45.1144752" lon="8.2687721"><ele>151.0</ele><time>2026-03-29T11:09:13.863Z</time></trkpt><trkpt lat="45.1143794" lon="8.2691231"><ele>151.0</ele><time>2026-03-29T11:09:14.863Z</time></trkpt><trkpt lat="45.1142839" lon="8.2694787"><ele>152.0</ele><time>2026-03-29T11:09:15.863Z</time></trkpt><trkpt lat="45.114188" lon="8.2698304"><ele>153.0</ele><time>2026-03-29T11:09:16.863Z</time></trkpt><trkpt lat="45.114094" lon="8.270178"><ele>153.0</ele><time>2026-03-29T11:09:17.863Z</time></trkpt><trkpt lat="45.1140026" lon="8.2705196"><ele>153.0</ele><time>2026-03-29T11:09:18.87Z</time></trkpt><trkpt lat="45.1139139" lon="8.2708559"><ele>153.0</ele><time>2026-03-29T11:09:19.864Z</time></trkpt><trkpt lat="45.1138292" lon="8.2711868"><ele>153.0</ele><time>2026-03-29T11:09:20.866Z</time></trkpt><trkpt lat="45.1137452" lon="8.2715135"><ele>153.0</ele><time>2026-03-29T11:09:21.863Z</time></trkpt><trkpt lat="45.1136614" lon="8.271836"><ele>153.0</ele><time>2026-03-29T11:09:22.868Z</time></trkpt><trkpt lat="45.1135764" lon="8.2721534"><ele>153.5</ele><time>2026-03-29T11:09:23.87Z</time></trkpt><trkpt lat="45.113491" lon="8.2724673"><ele>154.0</ele><time>2026-03-29T11:09:24.862Z</time></trkpt><trkpt lat="45.1134053" lon="8.2727793"><ele>154.0</ele><time>2026-03-29T11:09:25.863Z</time></trkpt><trkpt lat="45.1133216" lon="8.2730954"><ele>154.0</ele><time>2026-03-29T11:09:26.866Z</time></trkpt><trkpt lat="45.1132352" lon="8.2734193"><ele>152.5</ele><time>2026-03-29T11:09:27.866Z</time></trkpt><trkpt lat="45.1131471" lon="8.2737478"><ele>151.0</ele><time>2026-03-29T11:09:28.866Z</time></trkpt><trkpt lat="45.1130609" lon="8.2740774"><ele>150.0</ele><time>2026-03-29T11:09:29.866Z</time></trkpt><trkpt lat="45.1129844" lon="8.2744109"><ele>149.0</ele><time>2026-03-29T11:09:30.868Z</time></trkpt><trkpt lat="45.1129192" lon="8.2747455"><ele>149.0</ele><time>2026-03-29T11:09:31.866Z</time></trkpt><trkpt lat="45.1128684" lon="8.2750792"><ele>149.0</ele><time>2026-03-29T11:09:32.864Z</time></trkpt><trkpt lat="45.1128334" lon="8.275413"><ele>149.0</ele><time>2026-03-29T11:09:33.865Z</time></trkpt><trkpt lat="45.1128104" lon="8.2757534"><ele>149.0</ele><time>2026-03-29T11:09:34.869Z</time></trkpt><trkpt lat="45.1127984" lon="8.2760951"><ele>148.5</ele><time>2026-03-29T11:09:35.864Z</time></trkpt><trkpt lat="45.1127962" lon="8.2764437"><ele>148.0</ele><time>2026-03-29T11:09:36.864Z</time></trkpt><trkpt lat="45.1128027" lon="8.2767973"><ele>148.0</ele><time>2026-03-29T11:09:37.863Z</time></trkpt><trkpt lat="45.1128178" lon="8.2771521"><ele>148.0</ele><time>2026-03-29T11:09:38.866Z</time></trkpt><trkpt lat="45.1128339" lon="8.2775092"><ele>148.0</ele><time>2026-03-29T11:09:39.863Z</time></trkpt><trkpt lat="45.1128473" lon="8.2778674"><ele>148.0</ele><time>2026-03-29T11:09:40.862Z</time></trkpt><trkpt lat="45.1128564" lon="8.2782294"><ele>148.5</ele><time>2026-03-29T11:09:41.863Z</time></trkpt><trkpt lat="45.1128645" lon="8.2785933"><ele>149.0</ele><time>2026-03-29T11:09:42.863Z</time></trkpt><trkpt lat="45.1128723" lon="8.2789576"><ele>149.0</ele><time>2026-03-29T11:09:43.862Z</time></trkpt><trkpt lat="45.1128811" lon="8.2793247"><ele>149.0</ele><time>2026-03-29T11:09:44.866Z</time></trkpt><trkpt lat="45.1128907" lon="8.2796911"><ele>149.0</ele><time>2026-03-29T11:09:45.864Z</time></trkpt><trkpt lat="45.112903" lon="8.2800576"><ele>149.0</ele><time>2026-03-29T11:09:46.861Z</time></trkpt><trkpt lat="45.1129155" lon="8.2804236"><ele>148.0</ele><time>2026-03-29T11:09:47.862Z</time></trkpt><trkpt lat="45.1129274" lon="8.2807909"><ele>147.0</ele><time>2026-03-29T11:09:48.862Z</time></trkpt><trkpt lat="45.1129389" lon="8.2811589"><ele>146.5</ele><time>2026-03-29T11:09:49.863Z</time></trkpt><trkpt lat="45.1129491" lon="8.2815242"><ele>146.0</ele><time>2026-03-29T11:09:50.863Z</time></trkpt><trkpt lat="45.112961" lon="8.2818864"><ele>146.0</ele><time>2026-03-29T11:09:51.862Z</time></trkpt><trkpt lat="45.1129738" lon="8.2822481"><ele>146.0</ele><time>2026-03-29T11:09:52.866Z</time></trkpt><trkpt lat="45.1129873" lon="8.282608"><ele>146.0</ele><time>2026-03-29T11:09:53.864Z</time></trkpt><trkpt lat="45.1129999" lon="8.2829654"><ele>146.0</ele><time>2026-03-29T11:09:54.862Z</time></trkpt><trkpt lat="45.1130112" lon="8.2833211"><ele>146.0</ele><time>2026-03-29T11:09:55.866Z</time></trkpt><trkpt lat="45.1130235" lon="8.2836779"><ele>146.0</ele><time>2026-03-29T11:09:56.866Z</time></trkpt><trkpt lat="45.1130348" lon="8.2840336"><ele>146.0</ele><time>2026-03-29T11:09:57.867Z</time></trkpt><trkpt lat="45.1130464" lon="8.2843879"><ele>146.0</ele><time>2026-03-29T11:09:58.863Z</time></trkpt><trkpt lat="45.1130594" lon="8.2847401"><ele>144.5</ele><time>2026-03-29T11:09:59.863Z</time></trkpt><trkpt lat="45.1130713" lon="8.2850927"><ele>143.0</ele><time>2026-03-29T11:10:00.861Z</time></trkpt><trkpt lat="45.1130836" lon="8.2854474"><ele>142.5</ele><time>2026-03-29T11:10:01.863Z</time></trkpt><trkpt lat="45.1130954" lon="8.2858033"><ele>142.0</ele><time>2026-03-29T11:10:02.867Z</time></trkpt><trkpt lat="45.1131065" lon="8.2861642"><ele>143.0</ele><time>2026-03-29T11:10:03.864Z</time></trkpt><trkpt lat="45.1131153" lon="8.2865219"><ele>144.0</ele><time>2026-03-29T11:10:04.863Z</time></trkpt><trkpt lat="45.1131257" lon="8.286881"><ele>144.0</ele><time>2026-03-29T11:10:05.867Z</time></trkpt><trkpt lat="45.113135" lon="8.2872408"><ele>144.0</ele><time>2026-03-29T11:10:06.863Z</time></trkpt><trkpt lat="45.1131429" lon="8.287602"><ele>143.5</ele><time>2026-03-29T11:10:07.864Z</time></trkpt><trkpt lat="45.1131523" lon="8.2879628"><ele>143.0</ele><time>2026-03-29T11:10:08.861Z</time></trkpt><trkpt lat="45.113162" lon="8.2883217"><ele>143.0</ele><time>2026-03-29T11:10:09.863Z</time></trkpt><trkpt lat="45.1131698" lon="8.2886775"><ele>143.0</ele><time>2026-03-29T11:10:10.864Z</time></trkpt><trkpt lat="45.1131765" lon="8.2890299"><ele>143.0</ele><time>2026-03-29T11:10:11.866Z</time></trkpt><trkpt lat="45.1131816" lon="8.289378"><ele>143.0</ele><time>2026-03-29T11:10:12.865Z</time></trkpt><trkpt lat="45.1131848" lon="8.2897256"><ele>143.0</ele><time>2026-03-29T11:10:13.863Z</time></trkpt><trkpt lat="45.1131863" lon="8.2900781"><ele>143.0</ele><time>2026-03-29T11:10:14.862Z</time></trkpt><trkpt lat="45.1131873" lon="8.2904335"><ele>143.0</ele><time>2026-03-29T11:10:15.866Z</time></trkpt><trkpt lat="45.1131936" lon="8.2907909"><ele>143.0</ele><time>2026-03-29T11:10:16.865Z</time></trkpt><trkpt lat="45.1132007" lon="8.2911514"><ele>143.0</ele><time>2026-03-29T11:10:17.862Z</time></trkpt><trkpt lat="45.1132085" lon="8.2915158"><ele>143.0</ele><time>2026-03-29T11:10:18.863Z</time></trkpt><trkpt lat="45.1132148" lon="8.2918825"><ele>143.0</ele><time>2026-03-29T11:10:19.861Z</time></trkpt><trkpt lat="45.1132216" lon="8.2922522"><ele>143.0</ele><time>2026-03-29T11:10:20.864Z</time></trkpt><trkpt lat="45.1132308" lon="8.2926253"><ele>143.5</ele><time>2026-03-29T11:10:21.866Z</time></trkpt><trkpt lat="45.1132408" lon="8.2930014"><ele>144.0</ele><time>2026-03-29T11:10:22.87Z</time></trkpt><trkpt lat="45.1132504" lon="8.2933762"><ele>145.0</ele><time>2026-03-29T11:10:23.862Z</time></trkpt><trkpt lat="45.1132613" lon="8.2937484"><ele>146.0</ele><time>2026-03-29T11:10:24.864Z</time></trkpt><trkpt lat="45.1132732" lon="8.2941192"><ele>144.0</ele><time>2026-03-29T11:10:25.865Z</time></trkpt><trkpt lat="45.1132838" lon="8.294487"><ele>142.0</ele><time>2026-03-29T11:10:26.863Z</time></trkpt><trkpt lat="45.1132933" lon="8.2948561"><ele>142.0</ele><time>2026-03-29T11:10:27.868Z</time></trkpt><trkpt lat="45.113304" lon="8.2952238"><ele>142.0</ele><time>2026-03-29T11:10:28.864Z</time></trkpt><trkpt lat="45.113314" lon="8.2955913"><ele>142.0</ele><time>2026-03-29T11:10:29.863Z</time></trkpt><trkpt lat="45.1133242" lon="8.2959532"><ele>142.0</ele><time>2026-03-29T11:10:30.864Z</time></trkpt><trkpt lat="45.1133336" lon="8.2963095"><ele>141.5</ele><time>2026-03-29T11:10:31.863Z</time></trkpt><trkpt lat="45.1133442" lon="8.2966573"><ele>141.0</ele><time>2026-03-29T11:10:32.867Z</time></trkpt><trkpt lat="45.1133533" lon="8.29699"><ele>141.0</ele><time>2026-03-29T11:10:33.863Z</time></trkpt><trkpt lat="45.113362" lon="8.2973009"><ele>141.0</ele><time>2026-03-29T11:10:34.865Z</time></trkpt><trkpt lat="45.1133717" lon="8.2975914"><ele>141.0</ele><time>2026-03-29T11:10:35.865Z</time></trkpt><trkpt lat="45.1133836" lon="8.2978694"><ele>141.33333333333334</ele><time>2026-03-29T11:10:36.867Z</time></trkpt><trkpt lat="45.1133964" lon="8.2981434"><ele>141.66666666666669</ele><time>2026-03-29T11:10:37.863Z</time></trkpt><trkpt lat="45.1134091" lon="8.2984184"><ele>142.0</ele><time>2026-03-29T11:10:38.864Z</time></trkpt><trkpt lat="45.1134199" lon="8.2986955"><ele>142.66666666666669</ele><time>2026-03-29T11:10:39.864Z</time></trkpt><trkpt lat="45.1134306" lon="8.2989759"><ele>143.33333333333334</ele><time>2026-03-29T11:10:40.864Z</time></trkpt><trkpt lat="45.1134394" lon="8.2992592"><ele>144.0</ele><time>2026-03-29T11:10:41.861Z</time></trkpt><trkpt lat="45.1134521" lon="8.2995488"><ele>144.66666666666666</ele><time>2026-03-29T11:10:42.864Z</time></trkpt><trkpt lat="45.1134653" lon="8.2998477"><ele>145.33333333333331</ele><time>2026-03-29T11:10:43.863Z</time></trkpt><trkpt lat="45.113474" lon="8.3001546"><ele>146.0</ele><time>2026-03-29T11:10:44.862Z</time></trkpt><trkpt lat="45.1134805" lon="8.3004731"><ele>146.5</ele><time>2026-03-29T11:10:45.865Z</time></trkpt><trkpt lat="45.1134876" lon="8.3008019"><ele>147.0</ele><time>2026-03-29T11:10:46.866Z</time></trkpt><trkpt lat="45.1134958" lon="8.3011413"><ele>146.5</ele><time>2026-03-29T11:10:47.864Z</time></trkpt><trkpt lat="45.1135051" lon="8.3014841"><ele>146.0</ele><time>2026-03-29T11:10:48.863Z</time></trkpt><trkpt lat="45.1135141" lon="8.301828"><ele>146.0</ele><time>2026-03-29T11:10:49.863Z</time></trkpt><trkpt lat="45.1135238" lon="8.3021731"><ele>146.0</ele><time>2026-03-29T11:10:50.862Z</time></trkpt><trkpt lat="45.1135347" lon="8.3025212"><ele>146.0</ele><time>2026-03-29T11:10:51.867Z</time></trkpt><trkpt lat="45.1135447" lon="8.3028713"><ele>146.0</ele><time>2026-03-29T11:10:52.865Z</time></trkpt><trkpt lat="45.1135547" lon="8.3032272"><ele>146.0</ele><time>2026-03-29T11:10:53.867Z</time></trkpt><trkpt lat="45.1135644" lon="8.3035857"><ele>146.0</ele><time>2026-03-29T11:10:54.866Z</time></trkpt><trkpt lat="45.1135739" lon="8.3039432"><ele>146.5</ele><time>2026-03-29T11:10:55.867Z</time></trkpt><trkpt lat="45.113583" lon="8.3042969"><ele>147.0</ele><time>2026-03-29T11:10:56.864Z</time></trkpt><trkpt lat="45.1135917" lon="8.3046349"><ele>146.0</ele><time>2026-03-29T11:10:57.862Z</time></trkpt><trkpt lat="45.1136" lon="8.3049525"><ele>145.0</ele><time>2026-03-29T11:10:58.863Z</time></trkpt><trkpt lat="45.1136104" lon="8.305248"><ele>144.0</ele><time>2026-03-29T11:10:59.865Z</time></trkpt><trkpt lat="45.113625" lon="8.3055233"><ele>143.66666666666666</ele><time>2026-03-29T11:11:00.871Z</time></trkpt><trkpt lat="45.1136401" lon="8.3057859"><ele>143.33333333333331</ele><time>2026-03-29T11:11:01.864Z</time></trkpt><trkpt lat="45.1136516" lon="8.3060401"><ele>143.0</ele><time>2026-03-29T11:11:02.862Z</time></trkpt><trkpt lat="45.1136594" lon="8.3062879"><ele>142.66666666666666</ele><time>2026-03-29T11:11:03.875Z</time></trkpt><trkpt lat="45.1136664" lon="8.306534"><ele>142.33333333333334</ele><time>2026-03-29T11:11:04.863Z</time></trkpt><trkpt lat="45.1136738" lon="8.3067791"><ele>142.0</ele><time>2026-03-29T11:11:05.864Z</time></trkpt><trkpt lat="45.1136807" lon="8.3070224"><ele>142.33333333333334</ele><time>2026-03-29T11:11:06.861Z</time></trkpt><trkpt lat="45.113687" lon="8.3072624"><ele>142.66666666666666</ele><time>2026-03-29T11:11:07.867Z</time></trkpt><trkpt lat="45.1136926" lon="8.3074939"><ele>143.0</ele><time>2026-03-29T11:11:08.862Z</time></trkpt><trkpt lat="45.1136969" lon="8.3077137"><ele>143.0</ele><time>2026-03-29T11:11:09.861Z</time></trkpt><trkpt lat="45.1137019" lon="8.3079184"><ele>143.0</ele><time>2026-03-29T11:11:10.866Z</time></trkpt><trkpt lat="45.1137068" lon="8.3081074"><ele>143.0</ele><time>2026-03-29T11:11:11.867Z</time></trkpt><trkpt lat="45.1137144" lon="8.3082896"><ele>143.0</ele><time>2026-03-29T11:11:12.892Z</time></trkpt><trkpt lat="45.113721" lon="8.3084595"><ele>142.75</ele><time>2026-03-29T11:11:13.866Z</time></trkpt><trkpt lat="45.113721" lon="8.3086245"><ele>142.5</ele><time>2026-03-29T11:11:14.864Z</time></trkpt><trkpt lat="45.1137271" lon="8.3087953"><ele>142.25</ele><time>2026-03-29T11:11:15.877Z</time></trkpt><trkpt lat="45.1137327" lon="8.3089614"><ele>142.0</ele><time>2026-03-29T11:11:16.865Z</time></trkpt><trkpt lat="45.1137366" lon="8.3091293"><ele>141.5</ele><time>2026-03-29T11:11:17.862Z</time></trkpt><trkpt lat="45.1137371" lon="8.3093019"><ele>141.0</ele><time>2026-03-29T11:11:18.868Z</time></trkpt><trkpt lat="45.1137344" lon="8.3094831"><ele>140.5</ele><time>2026-03-29T11:11:19.864Z</time></trkpt><trkpt lat="45.1137396" lon="8.3096715"><ele>140.0</ele><time>2026-03-29T11:11:20.862Z</time></trkpt><trkpt lat="45.1137449" lon="8.3098527"><ele>140.0</ele><time>2026-03-29T11:11:21.863Z</time></trkpt><trkpt lat="45.1137497" lon="8.3100189"><ele>140.0</ele><time>2026-03-29T11:11:22.867Z</time></trkpt><trkpt lat="45.1137525" lon="8.3101792"><ele>140.0</ele><time>2026-03-29T11:11:23.864Z</time></trkpt><trkpt lat="45.1137575" lon="8.3103403"><ele>140.0</ele><time>2026-03-29T11:11:24.861Z</time></trkpt><trkpt lat="45.1137636" lon="8.3105125"><ele>140.25</ele><time>2026-03-29T11:11:25.864Z</time></trkpt><trkpt lat="45.1137736" lon="8.3107031"><ele>140.5</ele><time>2026-03-29T11:11:26.868Z</time></trkpt><trkpt lat="45.1137801" lon="8.3109054"><ele>140.75</ele><time>2026-03-29T11:11:27.869Z</time></trkpt><trkpt lat="45.1137879" lon="8.3111072"><ele>141.0</ele><time>2026-03-29T11:11:28.865Z</time></trkpt><trkpt lat="45.1137985" lon="8.3113024"><ele>141.25</ele><time>2026-03-29T11:11:29.861Z</time></trkpt><trkpt lat="45.1138099" lon="8.3114941"><ele>141.5</ele><time>2026-03-29T11:11:30.863Z</time></trkpt><trkpt lat="45.1138164" lon="8.3116864"><ele>141.75</ele><time>2026-03-29T11:11:31.862Z</time></trkpt><trkpt lat="45.1138195" lon="8.3118756"><ele>142.0</ele><time>2026-03-29T11:11:32.864Z</time></trkpt><trkpt lat="45.1138215" lon="8.3120535"><ele>142.0</ele><time>2026-03-29T11:11:33.866Z</time></trkpt><trkpt lat="45.1138234" lon="8.3122287"><ele>142.0</ele><time>2026-03-29T11:11:34.866Z</time></trkpt><trkpt lat="45.1138261" lon="8.3124051"><ele>142.0</ele><time>2026-03-29T11:11:35.866Z</time></trkpt><trkpt lat="45.1138285" lon="8.3125838"><ele>142.0</ele><time>2026-03-29T11:11:36.865Z</time></trkpt><trkpt lat="45.113832" lon="8.3127618"><ele>141.75</ele><time>2026-03-29T11:11:37.864Z</time></trkpt><trkpt lat="45.113835" lon="8.3129371"><ele>141.5</ele><time>2026-03-29T11:11:38.863Z</time></trkpt><trkpt lat="45.1138365" lon="8.3131116"><ele>141.25</ele><time>2026-03-29T11:11:39.869Z</time></trkpt><trkpt lat="45.1138396" lon="8.3132873"><ele>141.0</ele><time>2026-03-29T11:11:40.865Z</time></trkpt><trkpt lat="45.1138434" lon="8.313467"><ele>140.75</ele><time>2026-03-29T11:11:41.865Z</time></trkpt><trkpt lat="45.1138492" lon="8.3136501"><ele>140.5</ele><time>2026-03-29T11:11:42.863Z</time></trkpt><trkpt lat="45.113862" lon="8.3138238"><ele>140.25</ele><time>2026-03-29T11:11:43.862Z</time></trkpt><trkpt lat="45.113874" lon="8.3140043"><ele>140.0</ele><time>2026-03-29T11:11:44.863Z</time></trkpt><trkpt lat="45.1138816" lon="8.3142023"><ele>140.25</ele><time>2026-03-29T11:11:45.868Z</time></trkpt><trkpt lat="45.1138814" lon="8.3144112"><ele>140.5</ele><time>2026-03-29T11:11:46.867Z</time></trkpt><trkpt lat="45.1138826" lon="8.3146197"><ele>140.75</ele><time>2026-03-29T11:11:47.872Z</time></trkpt><trkpt lat="45.1138857" lon="8.3148249"><ele>141.0</ele><time>2026-03-29T11:11:48.895Z</time></trkpt><trkpt lat="45.1138916" lon="8.3150291"><ele>141.0</ele><time>2026-03-29T11:11:49.882Z</time></trkpt><trkpt lat="45.1138965" lon="8.3152239"><ele>141.0</ele><time>2026-03-29T11:11:50.87Z</time></trkpt><trkpt lat="45.1139089" lon="8.3154024"><ele>141.0</ele><time>2026-03-29T11:11:51.865Z</time></trkpt><trkpt lat="45.1139173" lon="8.3155784"><ele>141.0</ele><time>2026-03-29T11:11:52.867Z</time></trkpt><trkpt lat="45.1139228" lon="8.315761"><ele>141.0</ele><time>2026-03-29T11:11:53.896Z</time></trkpt><trkpt lat="45.1139344" lon="8.3159427"><ele>141.0</ele><time>2026-03-29T11:11:54.874Z</time></trkpt><trkpt lat="45.1139391" lon="8.3161262"><ele>141.0</ele><time>2026-03-29T11:11:55.872Z</time></trkpt><trkpt lat="45.1139368" lon="8.3163132"><ele>141.0</ele><time>2026-03-29T11:11:56.866Z</time></trkpt><trkpt lat="45.1139329" lon="8.3164975"><ele>140.75</ele><time>2026-03-29T11:11:57.874Z</time></trkpt><trkpt lat="45.1139296" lon="8.316684"><ele>140.5</ele><time>2026-03-29T11:11:58.871Z</time></trkpt><trkpt lat="45.1139307" lon="8.3168654"><ele>140.25</ele><time>2026-03-29T11:11:59.894Z</time></trkpt><trkpt lat="45.1139318" lon="8.3170493"><ele>140.0</ele><time>2026-03-29T11:12:00.876Z</time></trkpt><trkpt lat="45.1139387" lon="8.3172356"><ele>140.0</ele><time>2026-03-29T11:12:01.871Z</time></trkpt><trkpt lat="45.1139428" lon="8.3174264"><ele>140.0</ele><time>2026-03-29T11:12:02.875Z</time></trkpt><trkpt lat="45.1139514" lon="8.3176214"><ele>140.0</ele><time>2026-03-29T11:12:03.869Z</time></trkpt><trkpt lat="45.1139458" lon="8.3178227"><ele>140.0</ele><time>2026-03-29T11:12:04.879Z</time></trkpt><trkpt lat="45.113927" lon="8.3180271"><ele>139.33333333333331</ele><time>2026-03-29T11:12:05.876Z</time></trkpt><trkpt lat="45.1138925" lon="8.3182419"><ele>138.66666666666666</ele><time>2026-03-29T11:12:06.877Z</time></trkpt><trkpt lat="45.1138474" lon="8.3184639"><ele>138.0</ele><time>2026-03-29T11:12:07.872Z</time></trkpt><trkpt lat="45.1137936" lon="8.3186921"><ele>139.0</ele><time>2026-03-29T11:12:08.888Z</time></trkpt><trkpt lat="45.1137376" lon="8.3189219"><ele>140.0</ele><time>2026-03-29T11:12:09.882Z</time></trkpt><trkpt lat="45.1136787" lon="8.3191549"><ele>141.0</ele><time>2026-03-29T11:12:10.872Z</time></trkpt><trkpt lat="45.1136206" lon="8.3193931"><ele>141.0</ele><time>2026-03-29T11:12:11.878Z</time></trkpt><trkpt lat="45.1135645" lon="8.3196378"><ele>141.0</ele><time>2026-03-29T11:12:12.869Z</time></trkpt><trkpt lat="45.1135095" lon="8.3198889"><ele>141.0</ele><time>2026-03-29T11:12:13.886Z</time></trkpt><trkpt lat="45.113454" lon="8.3201473"><ele>141.0</ele><time>2026-03-29T11:12:14.873Z</time></trkpt><trkpt lat="45.1133954" lon="8.3204116"><ele>141.0</ele><time>2026-03-29T11:12:15.874Z</time></trkpt><trkpt lat="45.1133337" lon="8.320673"><ele>141.0</ele><time>2026-03-29T11:12:16.881Z</time></trkpt><trkpt lat="45.1132738" lon="8.320922"><ele>140.33333333333334</ele><time>2026-03-29T11:12:17.87Z</time></trkpt><trkpt lat="45.1132157" lon="8.3211601"><ele>139.66666666666669</ele><time>2026-03-29T11:12:18.87Z</time></trkpt><trkpt lat="45.1131571" lon="8.3213935"><ele>139.0</ele><time>2026-03-29T11:12:19.892Z</time></trkpt><trkpt lat="45.1130973" lon="8.3216368"><ele>139.0</ele><time>2026-03-29T11:12:20.878Z</time></trkpt><trkpt lat="45.113036" lon="8.3218892"><ele>139.0</ele><time>2026-03-29T11:12:21.866Z</time></trkpt><trkpt lat="45.1129711" lon="8.322153"><ele>139.0</ele><time>2026-03-29T11:12:22.902Z</time></trkpt><trkpt lat="45.1129022" lon="8.322428"><ele>139.0</ele><time>2026-03-29T11:12:23.876Z</time></trkpt><trkpt lat="45.1128336" lon="8.3227116"><ele>139.0</ele><time>2026-03-29T11:12:24.867Z</time></trkpt><trkpt lat="45.1127647" lon="8.323001"><ele>139.0</ele><time>2026-03-29T11:12:25.889Z</time></trkpt><trkpt lat="45.1126959" lon="8.3232952"><ele>139.0</ele><time>2026-03-29T11:12:26.868Z</time></trkpt><trkpt lat="45.1126234" lon="8.3235887"><ele>139.0</ele><time>2026-03-29T11:12:27.872Z</time></trkpt><trkpt lat="45.1125509" lon="8.3238848"><ele>139.0</ele><time>2026-03-29T11:12:28.876Z</time></trkpt><trkpt lat="45.112478" lon="8.3241858"><ele>136.5</ele><time>2026-03-29T11:12:29.874Z</time></trkpt><trkpt lat="45.1124025" lon="8.3244927"><ele>134.0</ele><time>2026-03-29T11:12:30.87Z</time></trkpt><trkpt lat="45.1123301" lon="8.3248057"><ele>134.0</ele><time>2026-03-29T11:12:31.869Z</time></trkpt><trkpt lat="45.1122574" lon="8.3251233"><ele>134.0</ele><time>2026-03-29T11:12:32.894Z</time></trkpt><trkpt lat="45.112184" lon="8.3254423"><ele>134.0</ele><time>2026-03-29T11:12:33.869Z</time></trkpt><trkpt lat="45.1121052" lon="8.3257583"><ele>134.0</ele><time>2026-03-29T11:12:34.869Z</time></trkpt><trkpt lat="45.1120176" lon="8.3260706"><ele>134.0</ele><time>2026-03-29T11:12:35.877Z</time></trkpt><trkpt lat="45.1119141" lon="8.3263795"><ele>134.0</ele><time>2026-03-29T11:12:36.871Z</time></trkpt><trkpt lat="45.1117981" lon="8.3266828"><ele>134.5</ele><time>2026-03-29T11:12:37.881Z</time></trkpt><trkpt lat="45.1116747" lon="8.3269828"><ele>135.0</ele><time>2026-03-29T11:12:38.895Z</time></trkpt><trkpt lat="45.1115461" lon="8.327277"><ele>135.0</ele><time>2026-03-29T11:12:39.872Z</time></trkpt><trkpt lat="45.1114182" lon="8.3275664"><ele>135.0</ele><time>2026-03-29T11:12:40.875Z</time></trkpt><trkpt lat="45.1112943" lon="8.3278505"><ele>135.0</ele><time>2026-03-29T11:12:41.865Z</time></trkpt><trkpt lat="45.1111738" lon="8.328133"><ele>135.0</ele><time>2026-03-29T11:12:42.872Z</time></trkpt><trkpt lat="45.111054" lon="8.3284147"><ele>135.0</ele><time>2026-03-29T11:12:43.872Z</time></trkpt><trkpt lat="45.1109327" lon="8.3286998"><ele>135.0</ele><time>2026-03-29T11:12:44.868Z</time></trkpt><trkpt lat="45.1108114" lon="8.3289863"><ele>134.0</ele><time>2026-03-29T11:12:45.869Z</time></trkpt><trkpt lat="45.1106887" lon="8.3292744"><ele>133.0</ele><time>2026-03-29T11:12:46.869Z</time></trkpt><trkpt lat="45.1105652" lon="8.3295647"><ele>133.0</ele><time>2026-03-29T11:12:47.868Z</time></trkpt><trkpt lat="45.110442" lon="8.3298561"><ele>133.0</ele><time>2026-03-29T11:12:48.877Z</time></trkpt><trkpt lat="45.11032" lon="8.330148"><ele>133.0</ele><time>2026-03-29T11:12:49.874Z</time></trkpt><trkpt lat="45.1101987" lon="8.3304396"><ele>133.0</ele><time>2026-03-29T11:12:50.866Z</time></trkpt><trkpt lat="45.1100777" lon="8.3307291"><ele>133.5</ele><time>2026-03-29T11:12:51.868Z</time></trkpt><trkpt lat="45.1099567" lon="8.3310194"><ele>134.0</ele><time>2026-03-29T11:12:52.9Z</time></trkpt><trkpt lat="45.1098345" lon="8.3313091"><ele>134.5</ele><time>2026-03-29T11:12:53.874Z</time></trkpt><trkpt lat="45.1097114" lon="8.3315981"><ele>135.0</ele><time>2026-03-29T11:12:54.868Z</time></trkpt><trkpt lat="45.1095892" lon="8.3318891"><ele>135.0</ele><time>2026-03-29T11:12:55.883Z</time></trkpt><trkpt lat="45.1094675" lon="8.3321821"><ele>135.0</ele><time>2026-03-29T11:12:56.87Z</time></trkpt><trkpt lat="45.1093447" lon="8.332477"><ele>136.0</ele><time>2026-03-29T11:12:57.87Z</time></trkpt><trkpt lat="45.1092229" lon="8.3327702"><ele>137.0</ele><time>2026-03-29T11:12:58.88Z</time></trkpt><trkpt lat="45.1091008" lon="8.3330607"><ele>137.5</ele><time>2026-03-29T11:12:59.868Z</time></trkpt><trkpt lat="45.10898" lon="8.3333501"><ele>138.0</ele><time>2026-03-29T11:13:00.872Z</time></trkpt><trkpt lat="45.10886" lon="8.3336364"><ele>138.5</ele><time>2026-03-29T11:13:01.872Z</time></trkpt><trkpt lat="45.1087403" lon="8.3339141"><ele>139.0</ele><time>2026-03-29T11:13:02.87Z</time></trkpt><trkpt lat="45.1086242" lon="8.3341816"><ele>139.0</ele><time>2026-03-29T11:13:03.869Z</time></trkpt><trkpt lat="45.108512" lon="8.3344397"><ele>139.0</ele><time>2026-03-29T11:13:04.892Z</time></trkpt><trkpt lat="45.1084052" lon="8.334687"><ele>139.0</ele><time>2026-03-29T11:13:05.873Z</time></trkpt><trkpt lat="45.1083048" lon="8.3349224"><ele>138.66666666666669</ele><time>2026-03-29T11:13:06.875Z</time></trkpt><trkpt lat="45.1082122" lon="8.3351431"><ele>138.33333333333334</ele><time>2026-03-29T11:13:07.877Z</time></trkpt><trkpt lat="45.1081284" lon="8.3353591"><ele>138.0</ele><time>2026-03-29T11:13:08.879Z</time></trkpt><trkpt lat="45.1080577" lon="8.3355827"><ele>138.0</ele><time>2026-03-29T11:13:09.892Z</time></trkpt><trkpt lat="45.1079751" lon="8.3357859"><ele>138.0</ele><time>2026-03-29T11:13:10.872Z</time></trkpt><trkpt lat="45.1079381" lon="8.3360613"><ele>138.0</ele><time>2026-03-29T11:13:11.871Z</time></trkpt><trkpt lat="45.1079159" lon="8.3363466"><ele>138.33333333333334</ele><time>2026-03-29T11:13:12.869Z</time></trkpt><trkpt lat="45.1079045" lon="8.3366528"><ele>138.66666666666669</ele><time>2026-03-29T11:13:13.871Z</time></trkpt><trkpt lat="45.1078946" lon="8.3369724"><ele>139.0</ele><time>2026-03-29T11:13:14.87Z</time></trkpt><trkpt lat="45.1078838" lon="8.3373085"><ele>139.0</ele><time>2026-03-29T11:13:15.871Z</time></trkpt><trkpt lat="45.107873" lon="8.3376618"><ele>139.0</ele><time>2026-03-29T11:13:16.874Z</time></trkpt><trkpt lat="45.1078641" lon="8.3380234"><ele>138.5</ele><time>2026-03-29T11:13:17.869Z</time></trkpt><trkpt lat="45.1078596" lon="8.3383881"><ele>138.0</ele><time>2026-03-29T11:13:18.876Z</time></trkpt><trkpt lat="45.1078563" lon="8.3387549"><ele>138.5</ele><time>2026-03-29T11:13:19.877Z</time></trkpt><trkpt lat="45.1078517" lon="8.3391273"><ele>139.0</ele><time>2026-03-29T11:13:20.894Z</time></trkpt><trkpt lat="45.1078447" lon="8.3395044"><ele>139.0</ele><time>2026-03-29T11:13:21.897Z</time></trkpt><trkpt lat="45.1078388" lon="8.3398562"><ele>139.0</ele><time>2026-03-29T11:13:22.869Z</time></trkpt><trkpt lat="45.107835" lon="8.3402215"><ele>139.0</ele><time>2026-03-29T11:13:23.881Z</time></trkpt><trkpt lat="45.1078288" lon="8.3405841"><ele>139.0</ele><time>2026-03-29T11:13:24.879Z</time></trkpt><trkpt lat="45.1078249" lon="8.3409555"><ele>139.0</ele><time>2026-03-29T11:13:25.876Z</time></trkpt><trkpt lat="45.107823" lon="8.3413247"><ele>139.0</ele><time>2026-03-29T11:13:26.87Z</time></trkpt><trkpt lat="45.1078177" lon="8.3416903"><ele>141.0</ele><time>2026-03-29T11:13:27.873Z</time></trkpt><trkpt lat="45.107812" lon="8.3420585"><ele>143.0</ele><time>2026-03-29T11:13:28.87Z</time></trkpt><trkpt lat="45.1078065" lon="8.3424212"><ele>143.0</ele><time>2026-03-29T11:13:29.874Z</time></trkpt><trkpt lat="45.1077998" lon="8.3427833"><ele>143.0</ele><time>2026-03-29T11:13:30.874Z</time></trkpt><trkpt lat="45.1077943" lon="8.3431419"><ele>142.5</ele><time>2026-03-29T11:13:31.869Z</time></trkpt><trkpt lat="45.1077892" lon="8.3434928"><ele>142.0</ele><time>2026-03-29T11:13:32.869Z</time></trkpt><trkpt lat="45.107782" lon="8.3438378"><ele>142.5</ele><time>2026-03-29T11:13:33.874Z</time></trkpt><trkpt lat="45.1077757" lon="8.3441843"><ele>143.0</ele><time>2026-03-29T11:13:34.873Z</time></trkpt><trkpt lat="45.1077688" lon="8.3445361"><ele>143.5</ele><time>2026-03-29T11:13:35.873Z</time></trkpt><trkpt lat="45.1077623" lon="8.3448774"><ele>144.0</ele><time>2026-03-29T11:13:36.874Z</time></trkpt><trkpt lat="45.107756" lon="8.3452172"><ele>144.5</ele><time>2026-03-29T11:13:37.881Z</time></trkpt><trkpt lat="45.1077486" lon="8.3455519"><ele>145.0</ele><time>2026-03-29T11:13:38.869Z</time></trkpt><trkpt lat="45.1077419" lon="8.3458848"><ele>145.0</ele><time>2026-03-29T11:13:39.87Z</time></trkpt><trkpt lat="45.1077359" lon="8.3462194"><ele>145.0</ele><time>2026-03-29T11:13:40.869Z</time></trkpt><trkpt lat="45.107731" lon="8.3465497"><ele>147.0</ele><time>2026-03-29T11:13:41.867Z</time></trkpt><trkpt lat="45.1077266" lon="8.3468865"><ele>149.0</ele><time>2026-03-29T11:13:42.871Z</time></trkpt><trkpt lat="45.107723" lon="8.3472175"><ele>149.5</ele><time>2026-03-29T11:13:43.872Z</time></trkpt><trkpt lat="45.1077217" lon="8.3475546"><ele>150.0</ele><time>2026-03-29T11:13:44.873Z</time></trkpt><trkpt lat="45.1077205" lon="8.3478934"><ele>150.0</ele><time>2026-03-29T11:13:45.872Z</time></trkpt><trkpt lat="45.1077167" lon="8.3482447"><ele>150.0</ele><time>2026-03-29T11:13:46.874Z</time></trkpt><trkpt lat="45.1077138" lon="8.3485967"><ele>150.5</ele><time>2026-03-29T11:13:47.872Z</time></trkpt><trkpt lat="45.1077109" lon="8.3489518"><ele>151.0</ele><time>2026-03-29T11:13:48.874Z</time></trkpt><trkpt lat="45.1077066" lon="8.3493028"><ele>151.0</ele><time>2026-03-29T11:13:49.883Z</time></trkpt><trkpt lat="45.107701" lon="8.3496634"><ele>151.0</ele><time>2026-03-29T11:13:50.871Z</time></trkpt><trkpt lat="45.1076958" lon="8.3500132"><ele>151.0</ele><time>2026-03-29T11:13:51.872Z</time></trkpt><trkpt lat="45.1076911" lon="8.3503591"><ele>151.0</ele><time>2026-03-29T11:13:52.877Z</time></trkpt><trkpt lat="45.107688" lon="8.3506974"><ele>151.0</ele><time>2026-03-29T11:13:53.897Z</time></trkpt><trkpt lat="45.1076839" lon="8.3510186"><ele>151.0</ele><time>2026-03-29T11:13:54.868Z</time></trkpt><trkpt lat="45.1076786" lon="8.3513287"><ele>151.0</ele><time>2026-03-29T11:13:55.871Z</time></trkpt><trkpt lat="45.1076731" lon="8.3516278"><ele>151.0</ele><time>2026-03-29T11:13:56.871Z</time></trkpt><trkpt lat="45.1076667" lon="8.3519284"><ele>151.0</ele><time>2026-03-29T11:13:57.871Z</time></trkpt><trkpt lat="45.1076604" lon="8.3522256"><ele>151.0</ele><time>2026-03-29T11:13:58.869Z</time></trkpt><trkpt lat="45.1076537" lon="8.3525178"><ele>151.66666666666669</ele><time>2026-03-29T11:13:59.872Z</time></trkpt><trkpt lat="45.1076465" lon="8.3528039"><ele>152.33333333333334</ele><time>2026-03-29T11:14:00.869Z</time></trkpt><trkpt lat="45.1076406" lon="8.3530845"><ele>153.0</ele><time>2026-03-29T11:14:01.877Z</time></trkpt><trkpt lat="45.107635" lon="8.3533672"><ele>153.0</ele><time>2026-03-29T11:14:02.887Z</time></trkpt><trkpt lat="45.1076288" lon="8.3536508"><ele>153.0</ele><time>2026-03-29T11:14:03.891Z</time></trkpt><trkpt lat="45.1076213" lon="8.3539381"><ele>153.0</ele><time>2026-03-29T11:14:04.904Z</time></trkpt><trkpt lat="45.1076143" lon="8.3542201"><ele>153.33333333333334</ele><time>2026-03-29T11:14:05.888Z</time></trkpt><trkpt lat="45.1076068" lon="8.3545123"><ele>153.66666666666669</ele><time>2026-03-29T11:14:06.867Z</time></trkpt><trkpt lat="45.1075983" lon="8.354811"><ele>154.0</ele><time>2026-03-29T11:14:07.891Z</time></trkpt><trkpt lat="45.1075905" lon="8.3550925"><ele>154.0</ele><time>2026-03-29T11:14:08.867Z</time></trkpt><trkpt lat="45.1075832" lon="8.3553794"><ele>154.0</ele><time>2026-03-29T11:14:09.87Z</time></trkpt><trkpt lat="45.1075753" lon="8.3556568"><ele>154.0</ele><time>2026-03-29T11:14:10.873Z</time></trkpt><trkpt lat="45.107568" lon="8.3559287"><ele>154.0</ele><time>2026-03-29T11:14:11.892Z</time></trkpt><trkpt lat="45.107561" lon="8.3561729"><ele>154.0</ele><time>2026-03-29T11:14:12.869Z</time></trkpt><trkpt lat="45.1075545" lon="8.3564154"><ele>154.0</ele><time>2026-03-29T11:14:13.888Z</time></trkpt><trkpt lat="45.1075481" lon="8.3566424"><ele>154.66666666666669</ele><time>2026-03-29T11:14:14.867Z</time></trkpt><trkpt lat="45.1075436" lon="8.3568578"><ele>155.33333333333334</ele><time>2026-03-29T11:14:15.883Z</time></trkpt><trkpt lat="45.1075397" lon="8.3570723"><ele>156.0</ele><time>2026-03-29T11:14:16.874Z</time></trkpt><trkpt lat="45.1075352" lon="8.3572883"><ele>156.0</ele><time>2026-03-29T11:14:17.892Z</time></trkpt><trkpt lat="45.1075295" lon="8.3575005"><ele>156.0</ele><time>2026-03-29T11:14:18.872Z</time></trkpt><trkpt lat="45.1075243" lon="8.3577116"><ele>156.0</ele><time>2026-03-29T11:14:19.878Z</time></trkpt><trkpt lat="45.1075185" lon="8.3579221"><ele>156.0</ele><time>2026-03-29T11:14:20.87Z</time></trkpt><trkpt lat="45.1075122" lon="8.3581385"><ele>156.0</ele><time>2026-03-29T11:14:21.87Z</time></trkpt><trkpt lat="45.1075069" lon="8.3583468"><ele>156.0</ele><time>2026-03-29T11:14:22.884Z</time></trkpt><trkpt lat="45.1075029" lon="8.3585582"><ele>156.0</ele><time>2026-03-29T11:14:23.874Z</time></trkpt><trkpt lat="45.1074992" lon="8.3587709"><ele>156.0</ele><time>2026-03-29T11:14:24.88Z</time></trkpt><trkpt lat="45.1074962" lon="8.3589815"><ele>156.0</ele><time>2026-03-29T11:14:25.869Z</time></trkpt><trkpt lat="45.1074939" lon="8.3591828"><ele>156.0</ele><time>2026-03-29T11:14:26.873Z</time></trkpt><trkpt lat="45.1074922" lon="8.3593667"><ele>156.0</ele><time>2026-03-29T11:14:27.877Z</time></trkpt><trkpt lat="45.1074893" lon="8.3595346"><ele>156.0</ele><time>2026-03-29T11:14:28.874Z</time></trkpt><trkpt lat="45.1074862" lon="8.3596924"><ele>156.0</ele><time>2026-03-29T11:14:29.871Z</time></trkpt><trkpt lat="45.1074816" lon="8.3598464"><ele>156.0</ele><time>2026-03-29T11:14:30.889Z</time></trkpt><trkpt lat="45.1074775" lon="8.3599935"><ele>156.0</ele><time>2026-03-29T11:14:31.891Z</time></trkpt><trkpt lat="45.1074745" lon="8.3601613"><ele>156.0</ele><time>2026-03-29T11:14:32.886Z</time></trkpt><trkpt lat="45.1074717" lon="8.3603338"><ele>156.0</ele><time>2026-03-29T11:14:33.874Z</time></trkpt><trkpt lat="45.107469" lon="8.3605063"><ele>156.0</ele><time>2026-03-29T11:14:34.872Z</time></trkpt><trkpt lat="45.1074667" lon="8.3606807"><ele>156.0</ele><time>2026-03-29T11:14:35.906Z</time></trkpt><trkpt lat="45.1074637" lon="8.3608509"><ele>156.0</ele><time>2026-03-29T11:14:36.867Z</time></trkpt><trkpt lat="45.1074611" lon="8.3610239"><ele>156.0</ele><time>2026-03-29T11:14:37.868Z</time></trkpt><trkpt lat="45.1074586" lon="8.361201"><ele>156.0</ele><time>2026-03-29T11:14:38.884Z</time></trkpt><trkpt lat="45.1074558" lon="8.3613758"><ele>156.0</ele><time>2026-03-29T11:14:39.905Z</time></trkpt><trkpt lat="45.1074526" lon="8.3615478"><ele>156.0</ele><time>2026-03-29T11:14:40.876Z</time></trkpt><trkpt lat="45.1074505" lon="8.3617256"><ele>156.0</ele><time>2026-03-29T11:14:41.889Z</time></trkpt><trkpt lat="45.1074482" lon="8.3619122"><ele>156.0</ele><time>2026-03-29T11:14:42.878Z</time></trkpt><trkpt lat="45.1074459" lon="8.3620969"><ele>156.0</ele><time>2026-03-29T11:14:43.894Z</time></trkpt><trkpt lat="45.107442" lon="8.3622867"><ele>156.0</ele><time>2026-03-29T11:14:44.877Z</time></trkpt><trkpt lat="45.1074359" lon="8.3624723"><ele>156.5</ele><time>2026-03-29T11:14:45.877Z</time></trkpt><trkpt lat="45.107429" lon="8.3626574"><ele>157.0</ele><time>2026-03-29T11:14:46.884Z</time></trkpt><trkpt lat="45.107424" lon="8.3628453"><ele>157.5</ele><time>2026-03-29T11:14:47.874Z</time></trkpt><trkpt lat="45.1074203" lon="8.3630332"><ele>158.0</ele><time>2026-03-29T11:14:48.889Z</time></trkpt><trkpt lat="45.1074172" lon="8.3632156"><ele>158.75</ele><time>2026-03-29T11:14:49.885Z</time></trkpt><trkpt lat="45.1074131" lon="8.3634003"><ele>159.5</ele><time>2026-03-29T11:14:50.871Z</time></trkpt><trkpt lat="45.1074105" lon="8.3635876"><ele>160.25</ele><time>2026-03-29T11:14:51.868Z</time></trkpt><trkpt lat="45.1074074" lon="8.3637675"><ele>161.0</ele><time>2026-03-29T11:14:52.866Z</time></trkpt><trkpt lat="45.1074035" lon="8.3639475"><ele>161.0</ele><time>2026-03-29T11:14:53.88Z</time></trkpt><trkpt lat="45.1073981" lon="8.3641229"><ele>161.0</ele><time>2026-03-29T11:14:54.865Z</time></trkpt><trkpt lat="45.1073929" lon="8.3642984"><ele>161.0</ele><time>2026-03-29T11:14:55.871Z</time></trkpt><trkpt lat="45.1073889" lon="8.3644792"><ele>161.0</ele><time>2026-03-29T11:14:56.877Z</time></trkpt><trkpt lat="45.1073843" lon="8.3646616"><ele>160.75</ele><time>2026-03-29T11:14:57.882Z</time></trkpt><trkpt lat="45.107378" lon="8.3648458"><ele>160.5</ele><time>2026-03-29T11:14:58.873Z</time></trkpt><trkpt lat="45.1073717" lon="8.3650295"><ele>160.25</ele><time>2026-03-29T11:14:59.882Z</time></trkpt><trkpt lat="45.1073652" lon="8.365214"><ele>160.0</ele><time>2026-03-29T11:15:00.868Z</time></trkpt><trkpt lat="45.1073591" lon="8.3653996"><ele>160.75</ele><time>2026-03-29T11:15:01.868Z</time></trkpt><trkpt lat="45.1073544" lon="8.3655809"><ele>161.5</ele><time>2026-03-29T11:15:02.867Z</time></trkpt><trkpt lat="45.1073493" lon="8.3657654"><ele>162.25</ele><time>2026-03-29T11:15:03.87Z</time></trkpt><trkpt lat="45.1073439" lon="8.3659507"><ele>163.0</ele><time>2026-03-29T11:15:04.87Z</time></trkpt><trkpt lat="45.10734" lon="8.3661296"><ele>163.0</ele><time>2026-03-29T11:15:05.868Z</time></trkpt><trkpt lat="45.1073368" lon="8.3663107"><ele>163.0</ele><time>2026-03-29T11:15:06.867Z</time></trkpt><trkpt lat="45.1073333" lon="8.3664812"><ele>163.0</ele><time>2026-03-29T11:15:07.868Z</time></trkpt><trkpt lat="45.1073298" lon="8.3666539"><ele>163.0</ele><time>2026-03-29T11:15:08.899Z</time></trkpt><trkpt lat="45.1073261" lon="8.3668291"><ele>164.75</ele><time>2026-03-29T11:15:09.867Z</time></trkpt><trkpt lat="45.1073235" lon="8.3670058"><ele>166.5</ele><time>2026-03-29T11:15:10.875Z</time></trkpt><trkpt lat="45.1073208" lon="8.3671877"><ele>168.25</ele><time>2026-03-29T11:15:11.884Z</time></trkpt><trkpt lat="45.107318" lon="8.3673717"><ele>170.0</ele><time>2026-03-29T11:15:12.887Z</time></trkpt><trkpt lat="45.1073152" lon="8.3675535"><ele>171.75</ele><time>2026-03-29T11:15:13.884Z</time></trkpt><trkpt lat="45.1073124" lon="8.367738"><ele>173.5</ele><time>2026-03-29T11:15:14.873Z</time></trkpt><trkpt lat="45.1073097" lon="8.3679181"><ele>175.25</ele><time>2026-03-29T11:15:15.875Z</time></trkpt><trkpt lat="45.1073062" lon="8.3680969"><ele>177.0</ele><time>2026-03-29T11:15:16.876Z</time></trkpt><trkpt lat="45.1073019" lon="8.3682744"><ele>177.75</ele><time>2026-03-29T11:15:17.873Z</time></trkpt><trkpt lat="45.1072984" lon="8.368446"><ele>178.5</ele><time>2026-03-29T11:15:18.882Z</time></trkpt><trkpt lat="45.1072948" lon="8.3686224"><ele>179.25</ele><time>2026-03-29T11:15:19.869Z</time></trkpt><trkpt lat="45.1072918" lon="8.3688028"><ele>180.0</ele><time>2026-03-29T11:15:20.875Z</time></trkpt><trkpt lat="45.1072885" lon="8.3689909"><ele>180.0</ele><time>2026-03-29T11:15:21.882Z</time></trkpt><trkpt lat="45.1072835" lon="8.3691715"><ele>180.0</ele><time>2026-03-29T11:15:22.882Z</time></trkpt><trkpt lat="45.1072794" lon="8.3693594"><ele>180.0</ele><time>2026-03-29T11:15:23.886Z</time></trkpt><trkpt lat="45.1072767" lon="8.3695352"><ele>180.0</ele><time>2026-03-29T11:15:24.871Z</time></trkpt><trkpt lat="45.1072728" lon="8.3697145"><ele>178.5</ele><time>2026-03-29T11:15:25.874Z</time></trkpt><trkpt lat="45.107268" lon="8.3698854"><ele>177.0</ele><time>2026-03-29T11:15:26.869Z</time></trkpt><trkpt lat="45.1072613" lon="8.3700548"><ele>175.5</ele><time>2026-03-29T11:15:27.867Z</time></trkpt><trkpt lat="45.1072558" lon="8.3702345"><ele>174.0</ele><time>2026-03-29T11:15:28.867Z</time></trkpt><trkpt lat="45.1072492" lon="8.3704081"><ele>173.25</ele><time>2026-03-29T11:15:29.867Z</time></trkpt><trkpt lat="45.1072422" lon="8.3705839"><ele>172.5</ele><time>2026-03-29T11:15:30.872Z</time></trkpt><trkpt lat="45.1072355" lon="8.3707694"><ele>171.75</ele><time>2026-03-29T11:15:31.876Z</time></trkpt><trkpt lat="45.1072311" lon="8.3709494"><ele>171.0</ele><time>2026-03-29T11:15:32.87Z</time></trkpt><trkpt lat="45.1072258" lon="8.3711266"><ele>171.0</ele><time>2026-03-29T11:15:33.868Z</time></trkpt><trkpt lat="45.107219" lon="8.3713047"><ele>171.0</ele><time>2026-03-29T11:15:34.871Z</time></trkpt><trkpt lat="45.1072135" lon="8.3714813"><ele>171.0</ele><time>2026-03-29T11:15:35.872Z</time></trkpt><trkpt lat="45.1072071" lon="8.3716594"><ele>171.0</ele><time>2026-03-29T11:15:36.873Z</time></trkpt><trkpt lat="45.1071999" lon="8.3718515"><ele>171.5</ele><time>2026-03-29T11:15:37.869Z</time></trkpt><trkpt lat="45.1071927" lon="8.3720395"><ele>172.0</ele><time>2026-03-29T11:15:38.868Z</time></trkpt><trkpt lat="45.1071861" lon="8.3722251"><ele>172.5</ele><time>2026-03-29T11:15:39.882Z</time></trkpt><trkpt lat="45.1071797" lon="8.3724098"><ele>173.0</ele><time>2026-03-29T11:15:40.89Z</time></trkpt><trkpt lat="45.1071733" lon="8.3725772"><ele>174.5</ele><time>2026-03-29T11:15:41.893Z</time></trkpt><trkpt lat="45.1071679" lon="8.3727559"><ele>176.0</ele><time>2026-03-29T11:15:42.879Z</time></trkpt><trkpt lat="45.1071627" lon="8.3729298"><ele>177.5</ele><time>2026-03-29T11:15:43.874Z</time></trkpt><trkpt lat="45.1071584" lon="8.3731033"><ele>179.0</ele><time>2026-03-29T11:15:44.904Z</time></trkpt><trkpt lat="45.1071531" lon="8.3732772"><ele>179.25</ele><time>2026-03-29T11:15:45.869Z</time></trkpt><trkpt lat="45.1071468" lon="8.3734511"><ele>179.5</ele><time>2026-03-29T11:15:46.878Z</time></trkpt><trkpt lat="45.1071403" lon="8.3736309"><ele>179.75</ele><time>2026-03-29T11:15:47.879Z</time></trkpt><trkpt lat="45.1071333" lon="8.3738277"><ele>180.0</ele><time>2026-03-29T11:15:48.874Z</time></trkpt><trkpt lat="45.1071273" lon="8.374016"><ele>180.0</ele><time>2026-03-29T11:15:49.868Z</time></trkpt><trkpt lat="45.1071219" lon="8.3742045"><ele>180.0</ele><time>2026-03-29T11:15:50.868Z</time></trkpt><trkpt lat="45.1071165" lon="8.3743972"><ele>180.0</ele><time>2026-03-29T11:15:51.87Z</time></trkpt><trkpt lat="45.1071099" lon="8.3745804"><ele>180.0</ele><time>2026-03-29T11:15:52.867Z</time></trkpt><trkpt lat="45.1071035" lon="8.374767"><ele>179.25</ele><time>2026-03-29T11:15:53.873Z</time></trkpt><trkpt lat="45.1070974" lon="8.3749497"><ele>178.5</ele><time>2026-03-29T11:15:54.899Z</time></trkpt><trkpt lat="45.1070923" lon="8.3751263"><ele>177.75</ele><time>2026-03-29T11:15:55.876Z</time></trkpt><trkpt lat="45.1070879" lon="8.3753204"><ele>177.0</ele><time>2026-03-29T11:15:56.876Z</time></trkpt><trkpt lat="45.1070848" lon="8.375512"><ele>176.75</ele><time>2026-03-29T11:15:57.877Z</time></trkpt><trkpt lat="45.1070821" lon="8.375702"><ele>176.5</ele><time>2026-03-29T11:15:58.881Z</time></trkpt><trkpt lat="45.1070786" lon="8.3758921"><ele>176.25</ele><time>2026-03-29T11:15:59.878Z</time></trkpt><trkpt lat="45.1070739" lon="8.3760839"><ele>176.0</ele><time>2026-03-29T11:16:00.878Z</time></trkpt><trkpt lat="45.1070702" lon="8.3762712"><ele>176.25</ele><time>2026-03-29T11:16:01.875Z</time></trkpt><trkpt lat="45.1070658" lon="8.3764739"><ele>176.5</ele><time>2026-03-29T11:16:02.873Z</time></trkpt><trkpt lat="45.107062" lon="8.376673"><ele>176.75</ele><time>2026-03-29T11:16:03.871Z</time></trkpt><trkpt lat="45.1070589" lon="8.3768676"><ele>177.0</ele><time>2026-03-29T11:16:04.877Z</time></trkpt><trkpt lat="45.1070563" lon="8.3770735"><ele>177.75</ele><time>2026-03-29T11:16:05.876Z</time></trkpt><trkpt lat="45.1070566" lon="8.3772678"><ele>178.5</ele><time>2026-03-29T11:16:06.878Z</time></trkpt><trkpt lat="45.1070681" lon="8.3774626"><ele>179.25</ele><time>2026-03-29T11:16:07.876Z</time></trkpt><trkpt lat="45.1070922" lon="8.3776579"><ele>180.0</ele><time>2026-03-29T11:16:08.871Z</time></trkpt><trkpt lat="45.107126" lon="8.3778566"><ele>181.8</ele><time>2026-03-29T11:16:09.878Z</time></trkpt><trkpt lat="45.107168" lon="8.3780366"><ele>183.6</ele><time>2026-03-29T11:16:10.887Z</time></trkpt><trkpt lat="45.1072097" lon="8.3781889"><ele>185.39999999999998</ele><time>2026-03-29T11:16:11.885Z</time></trkpt><trkpt lat="45.1072454" lon="8.3783187"><ele>187.2</ele><time>2026-03-29T11:16:12.895Z</time></trkpt><trkpt lat="45.1072676" lon="8.3784144"><ele>189.0</ele><time>2026-03-29T11:16:13.887Z</time></trkpt><trkpt lat="45.1072633" lon="8.3785066"><ele>189.0</ele><time>2026-03-29T11:16:15.89Z</time></trkpt><trkpt lat="45.1071672" lon="8.3784744"><ele>189.0</ele><time>2026-03-29T11:16:19.884Z</time></trkpt><trkpt lat="45.1070452" lon="8.3784186"><ele>189.0</ele><time>2026-03-29T11:16:21.888Z</time></trkpt><trkpt lat="45.1069676" lon="8.3783784"><ele>189.0</ele><time>2026-03-29T11:16:22.873Z</time></trkpt><trkpt lat="45.1068744" lon="8.3783305"><ele>189.0</ele><time>2026-03-29T11:16:23.872Z</time></trkpt><trkpt lat="45.1067656" lon="8.3782761"><ele>189.0</ele><time>2026-03-29T11:16:24.878Z</time></trkpt><trkpt lat="45.1066363" lon="8.3782234"><ele>189.0</ele><time>2026-03-29T11:16:25.879Z</time></trkpt><trkpt lat="45.1064851" lon="8.3781641"><ele>189.0</ele><time>2026-03-29T11:16:26.867Z</time></trkpt><trkpt lat="45.1064178" lon="8.3781736"><ele>189.0</ele><time>2026-03-29T11:16:27.869Z</time></trkpt><trkpt lat="45.1063237" lon="8.3782802"><ele>187.0</ele><time>2026-03-29T11:16:29.871Z</time></trkpt><trkpt lat="45.106208" lon="8.378415"><ele>185.0</ele><time>2026-03-29T11:16:30.89Z</time></trkpt><trkpt lat="45.1060701" lon="8.3785404"><ele>183.0</ele><time>2026-03-29T11:16:31.87Z</time></trkpt><trkpt lat="45.1059327" lon="8.3786718"><ele>183.0</ele><time>2026-03-29T11:16:32.884Z</time></trkpt><trkpt lat="45.1057908" lon="8.3788001"><ele>183.0</ele><time>2026-03-29T11:16:33.869Z</time></trkpt><trkpt lat="45.1056501" lon="8.3789185"><ele>183.0</ele><time>2026-03-29T11:16:34.871Z</time></trkpt><trkpt lat="45.1054892" lon="8.3790508"><ele>182.33333333333334</ele><time>2026-03-29T11:16:35.874Z</time></trkpt><trkpt lat="45.1053353" lon="8.3791713"><ele>181.66666666666669</ele><time>2026-03-29T11:16:36.87Z</time></trkpt><trkpt lat="45.1051789" lon="8.3792892"><ele>181.0</ele><time>2026-03-29T11:16:37.887Z</time></trkpt><trkpt lat="45.1050334" lon="8.3793852"><ele>182.0</ele><time>2026-03-29T11:16:38.864Z</time></trkpt><trkpt lat="45.1048904" lon="8.3794836"><ele>183.0</ele><time>2026-03-29T11:16:39.871Z</time></trkpt><trkpt lat="45.104765" lon="8.3795737"><ele>184.0</ele><time>2026-03-29T11:16:40.873Z</time></trkpt><trkpt lat="45.1046126" lon="8.3797"><ele>184.66666666666669</ele><time>2026-03-29T11:16:41.87Z</time></trkpt><trkpt lat="45.1044392" lon="8.3798754"><ele>185.33333333333334</ele><time>2026-03-29T11:16:42.865Z</time></trkpt><trkpt lat="45.104326" lon="8.3800167"><ele>186.0</ele><time>2026-03-29T11:16:43.866Z</time></trkpt><trkpt lat="45.1041893" lon="8.3801754"><ele>186.66666666666666</ele><time>2026-03-29T11:16:44.867Z</time></trkpt><trkpt lat="45.1040509" lon="8.3803427"><ele>187.33333333333331</ele><time>2026-03-29T11:16:45.869Z</time></trkpt><trkpt lat="45.1039114" lon="8.3805116"><ele>188.0</ele><time>2026-03-29T11:16:46.869Z</time></trkpt><trkpt lat="45.1037629" lon="8.3806881"><ele>188.0</ele><time>2026-03-29T11:16:47.869Z</time></trkpt><trkpt lat="45.1036128" lon="8.3808624"><ele>188.0</ele><time>2026-03-29T11:16:48.871Z</time></trkpt><trkpt lat="45.1034965" lon="8.3809901"><ele>188.0</ele><time>2026-03-29T11:16:49.866Z</time></trkpt><trkpt lat="45.1033583" lon="8.3811419"><ele>187.5</ele><time>2026-03-29T11:16:50.869Z</time></trkpt><trkpt lat="45.1032098" lon="8.3812728"><ele>187.0</ele><time>2026-03-29T11:16:51.883Z</time></trkpt><trkpt lat="45.103069" lon="8.3813519"><ele>186.5</ele><time>2026-03-29T11:16:52.871Z</time></trkpt><trkpt lat="45.1029578" lon="8.38138"><ele>186.0</ele><time>2026-03-29T11:16:53.872Z</time></trkpt><trkpt lat="45.1028148" lon="8.3814582"><ele>187.33333333333334</ele><time>2026-03-29T11:16:54.871Z</time></trkpt><trkpt lat="45.1026562" lon="8.3815602"><ele>188.66666666666669</ele><time>2026-03-29T11:16:55.867Z</time></trkpt><trkpt lat="45.1025119" lon="8.3816576"><ele>190.0</ele><time>2026-03-29T11:16:56.871Z</time></trkpt><trkpt lat="45.1023364" lon="8.3817982"><ele>190.0</ele><time>2026-03-29T11:16:57.871Z</time></trkpt><trkpt lat="45.1021681" lon="8.3819579"><ele>190.0</ele><time>2026-03-29T11:16:58.873Z</time></trkpt><trkpt lat="45.1020961" lon="8.382074"><ele>190.0</ele><time>2026-03-29T11:16:59.868Z</time></trkpt><trkpt lat="45.1020131" lon="8.3822074"><ele>190.0</ele><time>2026-03-29T11:17:00.88Z</time></trkpt><trkpt lat="45.1019328" lon="8.3823336"><ele>192.25</ele><time>2026-03-29T11:17:01.869Z</time></trkpt><trkpt lat="45.1018505" lon="8.3824591"><ele>194.5</ele><time>2026-03-29T11:17:02.872Z</time></trkpt><trkpt lat="45.101772" lon="8.3825787"><ele>196.75</ele><time>2026-03-29T11:17:03.869Z</time></trkpt><trkpt lat="45.1016989" lon="8.3826826"><ele>199.0</ele><time>2026-03-29T11:17:04.874Z</time></trkpt><trkpt lat="45.1016063" lon="8.3828092"><ele>199.0</ele><time>2026-03-29T11:17:05.883Z</time></trkpt><trkpt lat="45.1015124" lon="8.3829425"><ele>199.0</ele><time>2026-03-29T11:17:06.893Z</time></trkpt><trkpt lat="45.1014297" lon="8.3830681"><ele>199.0</ele><time>2026-03-29T11:17:07.868Z</time></trkpt><trkpt lat="45.101324" lon="8.3832215"><ele>199.0</ele><time>2026-03-29T11:17:08.87Z</time></trkpt><trkpt lat="45.1012254" lon="8.3833688"><ele>199.0</ele><time>2026-03-29T11:17:09.866Z</time></trkpt><trkpt lat="45.1010536" lon="8.3836211"><ele>199.0</ele><time>2026-03-29T11:17:10.886Z</time></trkpt><trkpt lat="45.1009154" lon="8.3838273"><ele>199.0</ele><time>2026-03-29T11:17:11.88Z</time></trkpt><trkpt lat="45.1007953" lon="8.384011"><ele>200.0</ele><time>2026-03-29T11:17:12.881Z</time></trkpt><trkpt lat="45.1006789" lon="8.3841867"><ele>201.0</ele><time>2026-03-29T11:17:13.872Z</time></trkpt><trkpt lat="45.1005671" lon="8.3843547"><ele>202.0</ele><time>2026-03-29T11:17:14.871Z</time></trkpt><trkpt lat="45.1004645" lon="8.3845072"><ele>202.0</ele><time>2026-03-29T11:17:15.87Z</time></trkpt><trkpt lat="45.10036" lon="8.3846588"><ele>202.0</ele><time>2026-03-29T11:17:16.882Z</time></trkpt><trkpt lat="45.1002645" lon="8.3847911"><ele>202.0</ele><time>2026-03-29T11:17:17.871Z</time></trkpt><trkpt lat="45.100178" lon="8.3849106"><ele>202.0</ele><time>2026-03-29T11:17:18.888Z</time></trkpt><trkpt lat="45.1000984" lon="8.3850154"><ele>203.16666666666666</ele><time>2026-03-29T11:17:19.869Z</time></trkpt><trkpt lat="45.1000321" lon="8.3851107"><ele>204.33333333333331</ele><time>2026-03-29T11:17:20.874Z</time></trkpt><trkpt lat="45.0999679" lon="8.3851976"><ele>205.5</ele><time>2026-03-29T11:17:21.861Z</time></trkpt><trkpt lat="45.0998982" lon="8.3852932"><ele>206.66666666666669</ele><time>2026-03-29T11:17:22.875Z</time></trkpt><trkpt lat="45.0998208" lon="8.3853728"><ele>207.83333333333334</ele><time>2026-03-29T11:17:23.877Z</time></trkpt><trkpt lat="45.0997516" lon="8.3854082"><ele>209.0</ele><time>2026-03-29T11:17:24.873Z</time></trkpt><trkpt lat="45.0996762" lon="8.3854569"><ele>209.16666666666669</ele><time>2026-03-29T11:17:25.88Z</time></trkpt><trkpt lat="45.0996082" lon="8.3854937"><ele>209.33333333333334</ele><time>2026-03-29T11:17:26.874Z</time></trkpt><trkpt lat="45.0995071" lon="8.3855063"><ele>209.5</ele><time>2026-03-29T11:17:28.878Z</time></trkpt><trkpt lat="45.09941" lon="8.3854806"><ele>209.66666666666669</ele><time>2026-03-29T11:17:30.876Z</time></trkpt><trkpt lat="45.0993324" lon="8.3854725"><ele>209.83333333333334</ele><time>2026-03-29T11:17:31.9Z</time></trkpt><trkpt lat="45.0992423" lon="8.3854631"><ele>210.0</ele><time>2026-03-29T11:17:32.868Z</time></trkpt><trkpt lat="45.0991412" lon="8.3854547"><ele>211.0</ele><time>2026-03-29T11:17:33.884Z</time></trkpt><trkpt lat="45.0990152" lon="8.3854513"><ele>212.0</ele><time>2026-03-29T11:17:34.876Z</time></trkpt><trkpt lat="45.0988831" lon="8.3854542"><ele>213.0</ele><time>2026-03-29T11:17:35.879Z</time></trkpt><trkpt lat="45.0987544" lon="8.3854528"><ele>214.0</ele><time>2026-03-29T11:17:36.87Z</time></trkpt><trkpt lat="45.0986268" lon="8.385446"><ele>214.0</ele><time>2026-03-29T11:17:37.872Z</time></trkpt><trkpt lat="45.0985039" lon="8.3854401"><ele>213.99999999999997</ele><time>2026-03-29T11:17:38.87Z</time></trkpt><trkpt lat="45.0983866" lon="8.3854352"><ele>213.99999999999997</ele><time>2026-03-29T11:17:39.917Z</time></trkpt><trkpt lat="45.0982866" lon="8.385432"><ele>214.0</ele><time>2026-03-29T11:17:40.882Z</time></trkpt><trkpt lat="45.0981931" lon="8.38543"><ele>214.0</ele><time>2026-03-29T11:17:41.875Z</time></trkpt><trkpt lat="45.0980974" lon="8.3854245"><ele>215.2</ele><time>2026-03-29T11:17:42.91Z</time></trkpt><trkpt lat="45.0980004" lon="8.3854204"><ele>216.39999999999998</ele><time>2026-03-29T11:17:43.87Z</time></trkpt><trkpt lat="45.0978902" lon="8.3854024"><ele>217.6</ele><time>2026-03-29T11:17:44.871Z</time></trkpt><trkpt lat="45.0978022" lon="8.3853682"><ele>218.8</ele><time>2026-03-29T11:17:45.868Z</time></trkpt><trkpt lat="45.0976982" lon="8.3853154"><ele>220.0</ele><time>2026-03-29T11:17:46.872Z</time></trkpt><trkpt lat="45.0976066" lon="8.3852498"><ele>220.0</ele><time>2026-03-29T11:17:47.88Z</time></trkpt><trkpt lat="45.0975222" lon="8.3851514"><ele>220.0</ele><time>2026-03-29T11:17:48.883Z</time></trkpt><trkpt lat="45.0974775" lon="8.3850689"><ele>220.0</ele><time>2026-03-29T11:17:49.869Z</time></trkpt><trkpt lat="45.0974108" lon="8.384928"><ele>220.0</ele><time>2026-03-29T11:17:50.876Z</time></trkpt><trkpt lat="45.0973413" lon="8.3847758"><ele>220.0</ele><time>2026-03-29T11:17:51.866Z</time></trkpt><trkpt lat="45.0972854" lon="8.3846094"><ele>223.5</ele><time>2026-03-29T11:17:52.868Z</time></trkpt><trkpt lat="45.0972285" lon="8.3844336"><ele>227.0</ele><time>2026-03-29T11:17:53.876Z</time></trkpt><trkpt lat="45.0971816" lon="8.384246"><ele>230.5</ele><time>2026-03-29T11:17:54.875Z</time></trkpt><trkpt lat="45.097151" lon="8.3840458"><ele>234.0</ele><time>2026-03-29T11:17:55.906Z</time></trkpt><trkpt lat="45.0971488" lon="8.3839169"><ele>234.0</ele><time>2026-03-29T11:17:56.904Z</time></trkpt><trkpt lat="45.0971657" lon="8.3838114"><ele>234.0</ele><time>2026-03-29T11:17:57.875Z</time></trkpt><trkpt lat="45.0972203" lon="8.3836244"><ele>234.0</ele><time>2026-03-29T11:17:58.87Z</time></trkpt><trkpt lat="45.0972799" lon="8.3834499"><ele>234.0</ele><time>2026-03-29T11:17:59.871Z</time></trkpt><trkpt lat="45.0973377" lon="8.3832741"><ele>234.0</ele><time>2026-03-29T11:18:00.882Z</time></trkpt><trkpt lat="45.0974043" lon="8.3830996"><ele>234.0</ele><time>2026-03-29T11:18:01.868Z</time></trkpt><trkpt lat="45.0974675" lon="8.3829396"><ele>234.0</ele><time>2026-03-29T11:18:02.871Z</time></trkpt><trkpt lat="45.097522" lon="8.3827238"><ele>234.0</ele><time>2026-03-29T11:18:03.87Z</time></trkpt><trkpt lat="45.0975911" lon="8.3824735"><ele>234.0</ele><time>2026-03-29T11:18:04.869Z</time></trkpt><trkpt lat="45.0976459" lon="8.3822947"><ele>234.0</ele><time>2026-03-29T11:18:05.868Z</time></trkpt><trkpt lat="45.0977073" lon="8.3821006"><ele>234.0</ele><time>2026-03-29T11:18:06.869Z</time></trkpt><trkpt lat="45.0977658" lon="8.3819054"><ele>234.0</ele><time>2026-03-29T11:18:07.886Z</time></trkpt><trkpt lat="45.0978198" lon="8.3817097"><ele>234.0</ele><time>2026-03-29T11:18:08.87Z</time></trkpt><trkpt lat="45.0978595" lon="8.3815246"><ele>233.99999999999997</ele><time>2026-03-29T11:18:09.872Z</time></trkpt><trkpt lat="45.0978818" lon="8.3813686"><ele>233.99999999999997</ele><time>2026-03-29T11:18:10.869Z</time></trkpt><trkpt lat="45.0978842" lon="8.3812466"><ele>234.0</ele><time>2026-03-29T11:18:11.883Z</time></trkpt><trkpt lat="45.0978709" lon="8.3811342"><ele>234.0</ele><time>2026-03-29T11:18:12.869Z</time></trkpt><trkpt lat="45.0978526" lon="8.3810325"><ele>234.5</ele><time>2026-03-29T11:18:13.877Z</time></trkpt><trkpt lat="45.0978152" lon="8.3808954"><ele>235.0</ele><time>2026-03-29T11:18:14.884Z</time></trkpt><trkpt lat="45.0977816" lon="8.3807357"><ele>235.5</ele><time>2026-03-29T11:18:15.865Z</time></trkpt><trkpt lat="45.0977544" lon="8.3805716"><ele>236.0</ele><time>2026-03-29T11:18:16.874Z</time></trkpt><trkpt lat="45.0977326" lon="8.380404"><ele>236.0</ele><time>2026-03-29T11:18:17.868Z</time></trkpt><trkpt lat="45.0977144" lon="8.3802673"><ele>236.00000000000003</ele><time>2026-03-29T11:18:18.867Z</time></trkpt><trkpt lat="45.0977042" lon="8.3801606"><ele>236.00000000000003</ele><time>2026-03-29T11:18:19.874Z</time></trkpt><trkpt lat="45.0976655" lon="8.3800038"><ele>236.0</ele><time>2026-03-29T11:18:21.866Z</time></trkpt><trkpt lat="45.0975812" lon="8.3800274"><ele>236.0</ele><time>2026-03-29T11:18:24.865Z</time></trkpt><trkpt lat="45.0974689" lon="8.3800977"><ele>236.0</ele><time>2026-03-29T11:18:26.866Z</time></trkpt><trkpt lat="45.0974354" lon="8.3803002"><ele>236.00000000000003</ele><time>2026-03-29T11:18:28.875Z</time></trkpt><trkpt lat="45.0973827" lon="8.3804352"><ele>236.00000000000003</ele><time>2026-03-29T11:18:29.868Z</time></trkpt><trkpt lat="45.0973337" lon="8.3805608"><ele>236.0</ele><time>2026-03-29T11:18:30.868Z</time></trkpt><trkpt lat="45.0972927" lon="8.3806653"><ele>236.0</ele><time>2026-03-29T11:18:31.864Z</time></trkpt><trkpt lat="45.0972408" lon="8.3807576"><ele>239.20000000000002</ele><time>2026-03-29T11:18:32.868Z</time></trkpt><trkpt lat="45.0971755" lon="8.380844"><ele>242.40000000000003</ele><time>2026-03-29T11:18:33.873Z</time></trkpt><trkpt lat="45.0971094" lon="8.3809162"><ele>245.6</ele><time>2026-03-29T11:18:34.867Z</time></trkpt><trkpt lat="45.0970412" lon="8.3809863"><ele>248.8</ele><time>2026-03-29T11:18:35.9Z</time></trkpt><trkpt lat="45.096958" lon="8.3810642"><ele>252.0</ele><time>2026-03-29T11:18:36.874Z</time></trkpt><trkpt lat="45.0968693" lon="8.3811487"><ele>252.0</ele><time>2026-03-29T11:18:37.871Z</time></trkpt><trkpt lat="45.096773" lon="8.381231"><ele>252.0</ele><time>2026-03-29T11:18:38.873Z</time></trkpt><trkpt lat="45.096671" lon="8.3813215"><ele>252.0</ele><time>2026-03-29T11:18:39.879Z</time></trkpt><trkpt lat="45.0965663" lon="8.3814101"><ele>252.0</ele><time>2026-03-29T11:18:40.867Z</time></trkpt><trkpt lat="45.0964487" lon="8.381516"><ele>255.5</ele><time>2026-03-29T11:18:41.877Z</time></trkpt><trkpt lat="45.0963336" lon="8.3816224"><ele>259.0</ele><time>2026-03-29T11:18:42.871Z</time></trkpt><trkpt lat="45.096226" lon="8.3817388"><ele>262.5</ele><time>2026-03-29T11:18:43.867Z</time></trkpt><trkpt lat="45.0961164" lon="8.3818533"><ele>266.0</ele><time>2026-03-29T11:18:44.874Z</time></trkpt><trkpt lat="45.0960323" lon="8.3819367"><ele>266.0</ele><time>2026-03-29T11:18:45.879Z</time></trkpt><trkpt lat="45.0959704" lon="8.3819888"><ele>266.0</ele><time>2026-03-29T11:18:46.875Z</time></trkpt><trkpt lat="45.0958964" lon="8.3820694"><ele>266.0</ele><time>2026-03-29T11:18:47.866Z</time></trkpt><trkpt lat="45.0957792" lon="8.3822125"><ele>266.0</ele><time>2026-03-29T11:18:48.872Z</time></trkpt><trkpt lat="45.0956949" lon="8.3823529"><ele>266.6666666666667</ele><time>2026-03-29T11:18:49.884Z</time></trkpt><trkpt lat="45.0955977" lon="8.3825045"><ele>267.3333333333333</ele><time>2026-03-29T11:18:50.882Z</time></trkpt><trkpt lat="45.0955062" lon="8.3826817"><ele>268.0</ele><time>2026-03-29T11:18:51.872Z</time></trkpt><trkpt lat="45.0954455" lon="8.3830049"><ele>266.4</ele><time>2026-03-29T11:18:53.901Z</time></trkpt><trkpt lat="45.0954286" lon="8.3831354"><ele>264.8</ele><time>2026-03-29T11:18:54.87Z</time></trkpt><trkpt lat="45.0954101" lon="8.3832603"><ele>263.2</ele><time>2026-03-29T11:18:55.876Z</time></trkpt><trkpt lat="45.0953791" lon="8.3833877"><ele>261.6</ele><time>2026-03-29T11:18:56.882Z</time></trkpt><trkpt lat="45.0953407" lon="8.3835012"><ele>260.0</ele><time>2026-03-29T11:18:57.87Z</time></trkpt><trkpt lat="45.0952943" lon="8.3836014"><ele>260.0</ele><time>2026-03-29T11:18:58.871Z</time></trkpt><trkpt lat="45.0952552" lon="8.3837329"><ele>260.0</ele><time>2026-03-29T11:19:00.887Z</time></trkpt><trkpt lat="45.0952288" lon="8.3838378"><ele>260.0</ele><time>2026-03-29T11:19:01.884Z</time></trkpt><trkpt lat="45.0952121" lon="8.3839396"><ele>260.0</ele><time>2026-03-29T11:19:02.878Z</time></trkpt><trkpt lat="45.0951761" lon="8.3840702"><ele>260.0</ele><time>2026-03-29T11:19:03.871Z</time></trkpt><trkpt lat="45.095132" lon="8.3841855"><ele>260.0</ele><time>2026-03-29T11:19:05.904Z</time></trkpt><trkpt lat="45.0950627" lon="8.3842444"><ele>259.4</ele><time>2026-03-29T11:19:07.868Z</time></trkpt><trkpt lat="45.0949851" lon="8.3842851"><ele>258.8</ele><time>2026-03-29T11:19:08.868Z</time></trkpt><trkpt lat="45.0948891" lon="8.3843119"><ele>258.2</ele><time>2026-03-29T11:19:09.874Z</time></trkpt><trkpt lat="45.0947827" lon="8.3843662"><ele>257.6</ele><time>2026-03-29T11:19:10.867Z</time></trkpt><trkpt lat="45.0946631" lon="8.3844274"><ele>257.0</ele><time>2026-03-29T11:19:11.87Z</time></trkpt><trkpt lat="45.0945464" lon="8.3844737"><ele>258.25</ele><time>2026-03-29T11:19:12.868Z</time></trkpt><trkpt lat="45.0944269" lon="8.3845209"><ele>259.5</ele><time>2026-03-29T11:19:13.893Z</time></trkpt><trkpt lat="45.094296" lon="8.3845883"><ele>260.75</ele><time>2026-03-29T11:19:14.873Z</time></trkpt><trkpt lat="45.0942059" lon="8.3846728"><ele>262.0</ele><time>2026-03-29T11:19:15.872Z</time></trkpt><trkpt lat="45.0940998" lon="8.3847585"><ele>263.75</ele><time>2026-03-29T11:19:16.871Z</time></trkpt><trkpt lat="45.0939947" lon="8.3848314"><ele>265.5</ele><time>2026-03-29T11:19:17.873Z</time></trkpt><trkpt lat="45.0938823" lon="8.3849008"><ele>267.25</ele><time>2026-03-29T11:19:18.87Z</time></trkpt><trkpt lat="45.0937797" lon="8.3849437"><ele>269.0</ele><time>2026-03-29T11:19:19.874Z</time></trkpt><trkpt lat="45.0936715" lon="8.3848565"><ele>269.0</ele><time>2026-03-29T11:19:22.865Z</time></trkpt><trkpt lat="45.0935814" lon="8.3847654"><ele>269.0</ele><time>2026-03-29T11:19:23.867Z</time></trkpt><trkpt lat="45.0934671" lon="8.3846796"><ele>269.0</ele><time>2026-03-29T11:19:24.872Z</time></trkpt><trkpt lat="45.0933325" lon="8.3846108"><ele>269.0</ele><time>2026-03-29T11:19:25.868Z</time></trkpt><trkpt lat="45.0932316" lon="8.3845625"><ele>263.25</ele><time>2026-03-29T11:19:26.877Z</time></trkpt><trkpt lat="45.0931217" lon="8.3845012"><ele>257.5</ele><time>2026-03-29T11:19:27.871Z</time></trkpt><trkpt lat="45.0930186" lon="8.3845036"><ele>251.75</ele><time>2026-03-29T11:19:29.873Z</time></trkpt><trkpt lat="45.0928746" lon="8.3845576"><ele>246.0</ele><time>2026-03-29T11:19:30.869Z</time></trkpt><trkpt lat="45.0927881" lon="8.3845966"><ele>246.0</ele><time>2026-03-29T11:19:31.875Z</time></trkpt><trkpt lat="45.0927016" lon="8.384599"><ele>246.00000000000003</ele><time>2026-03-29T11:19:32.875Z</time></trkpt><trkpt lat="45.0926401" lon="8.3846326"><ele>246.00000000000003</ele><time>2026-03-29T11:19:33.876Z</time></trkpt><trkpt lat="45.0926002" lon="8.384737"><ele>246.0</ele><time>2026-03-29T11:19:35.876Z</time></trkpt><trkpt lat="45.092557" lon="8.3849646"><ele>246.0</ele><time>2026-03-29T11:19:36.869Z</time></trkpt><trkpt lat="45.0924637" lon="8.3850577"><ele>245.20000000000002</ele><time>2026-03-29T11:19:37.868Z</time></trkpt><trkpt lat="45.0924177" lon="8.3851191"><ele>244.40000000000003</ele><time>2026-03-29T11:19:38.87Z</time></trkpt><trkpt lat="45.0923498" lon="8.3851584"><ele>243.6</ele><time>2026-03-29T11:19:40.87Z</time></trkpt><trkpt lat="45.0922474" lon="8.3851445"><ele>242.8</ele><time>2026-03-29T11:19:41.882Z</time></trkpt><trkpt lat="45.0920951" lon="8.3851834"><ele>242.0</ele><time>2026-03-29T11:19:42.906Z</time></trkpt><trkpt lat="45.092014" lon="8.3852238"><ele>242.0</ele><time>2026-03-29T11:19:43.882Z</time></trkpt><trkpt lat="45.0919859" lon="8.3853327"><ele>242.0</ele><time>2026-03-29T11:19:47.883Z</time></trkpt><trkpt lat="45.0919265" lon="8.3856917"><ele>242.0</ele><time>2026-03-29T11:19:48.867Z</time></trkpt><trkpt lat="45.0919044" lon="8.3857803"><ele>242.0</ele><time>2026-03-29T11:19:49.874Z</time></trkpt><trkpt lat="45.0918594" lon="8.3858999"><ele>245.25</ele><time>2026-03-29T11:19:50.902Z</time></trkpt><trkpt lat="45.0917985" lon="8.3860521"><ele>248.5</ele><time>2026-03-29T11:19:51.876Z</time></trkpt><trkpt lat="45.0917591" lon="8.3861843"><ele>251.75</ele><time>2026-03-29T11:19:52.879Z</time></trkpt><trkpt lat="45.0916795" lon="8.386411"><ele>255.0</ele><time>2026-03-29T11:19:53.867Z</time></trkpt><trkpt lat="45.0916067" lon="8.3866614"><ele>253.0</ele><time>2026-03-29T11:19:54.873Z</time></trkpt><trkpt lat="45.0915722" lon="8.3867401"><ele>251.0</ele><time>2026-03-29T11:19:55.89Z</time></trkpt><trkpt lat="45.0915008" lon="8.3867673"><ele>249.0</ele><time>2026-03-29T11:19:57.868Z</time></trkpt><trkpt lat="45.0913084" lon="8.3868429"><ele>247.0</ele><time>2026-03-29T11:19:58.868Z</time></trkpt><trkpt lat="45.0912181" lon="8.3868965"><ele>245.0</ele><time>2026-03-29T11:20:00.887Z</time></trkpt><trkpt lat="45.0911185" lon="8.3869795"><ele>245.0</ele><time>2026-03-29T11:20:01.904Z</time></trkpt><trkpt lat="45.0909782" lon="8.3870542"><ele>245.0</ele><time>2026-03-29T11:20:02.867Z</time></trkpt><trkpt lat="45.090795" lon="8.3870523"><ele>245.0</ele><time>2026-03-29T11:20:03.872Z</time></trkpt><trkpt lat="45.0906717" lon="8.3870299"><ele>247.0</ele><time>2026-03-29T11:20:04.87Z</time></trkpt><trkpt lat="45.0905464" lon="8.3870009"><ele>249.0</ele><time>2026-03-29T11:20:05.872Z</time></trkpt><trkpt lat="45.0904254" lon="8.3869506"><ele>251.0</ele><time>2026-03-29T11:20:06.871Z</time></trkpt><trkpt lat="45.0903046" lon="8.3868945"><ele>253.0</ele><time>2026-03-29T11:20:07.869Z</time></trkpt><trkpt lat="45.0901648" lon="8.3868512"><ele>253.0</ele><time>2026-03-29T11:20:08.891Z</time></trkpt><trkpt lat="45.090036" lon="8.3868228"><ele>253.0</ele><time>2026-03-29T11:20:09.878Z</time></trkpt><trkpt lat="45.0898966" lon="8.3868107"><ele>253.0</ele><time>2026-03-29T11:20:10.887Z</time></trkpt><trkpt lat="45.089818" lon="8.3868241"><ele>253.0</ele><time>2026-03-29T11:20:11.872Z</time></trkpt><trkpt lat="45.0897688" lon="8.3869287"><ele>253.0</ele><time>2026-03-29T11:20:13.871Z</time></trkpt><trkpt lat="45.0896933" lon="8.3870074"><ele>254.33333333333331</ele><time>2026-03-29T11:20:14.875Z</time></trkpt><trkpt lat="45.0896338" lon="8.3871086"><ele>255.66666666666669</ele><time>2026-03-29T11:20:15.877Z</time></trkpt><trkpt lat="45.0895083" lon="8.3873974"><ele>257.0</ele><time>2026-03-29T11:20:16.871Z</time></trkpt><trkpt lat="45.0894374" lon="8.3875948"><ele>257.0</ele><time>2026-03-29T11:20:17.868Z</time></trkpt><trkpt lat="45.0893784" lon="8.3877545"><ele>257.0</ele><time>2026-03-29T11:20:18.874Z</time></trkpt><trkpt lat="45.0893217" lon="8.3879176"><ele>257.0</ele><time>2026-03-29T11:20:19.881Z</time></trkpt><trkpt lat="45.0892591" lon="8.3880725"><ele>257.0</ele><time>2026-03-29T11:20:20.87Z</time></trkpt><trkpt lat="45.0892167" lon="8.3881997"><ele>257.1666666666667</ele><time>2026-03-29T11:20:21.873Z</time></trkpt><trkpt lat="45.0891809" lon="8.3883188"><ele>257.33333333333337</ele><time>2026-03-29T11:20:22.872Z</time></trkpt><trkpt lat="45.0891464" lon="8.3884223"><ele>257.5</ele><time>2026-03-29T11:20:23.888Z</time></trkpt><trkpt lat="45.08911" lon="8.3885175"><ele>257.6666666666667</ele><time>2026-03-29T11:20:24.869Z</time></trkpt><trkpt lat="45.0890695" lon="8.3886199"><ele>257.8333333333333</ele><time>2026-03-29T11:20:25.888Z</time></trkpt><trkpt lat="45.0890074" lon="8.3887222"><ele>258.0</ele><time>2026-03-29T11:20:26.871Z</time></trkpt><trkpt lat="45.0889579" lon="8.3887792"><ele>258.0</ele><time>2026-03-29T11:20:27.877Z</time></trkpt><trkpt lat="45.08886" lon="8.3888582"><ele>258.0</ele><time>2026-03-29T11:20:29.872Z</time></trkpt><trkpt lat="45.088783" lon="8.3888709"><ele>258.0</ele><time>2026-03-29T11:20:30.877Z</time></trkpt><trkpt lat="45.0887034" lon="8.3888948"><ele>258.0</ele><time>2026-03-29T11:20:31.873Z</time></trkpt><trkpt lat="45.0886203" lon="8.3888736"><ele>258.0</ele><time>2026-03-29T11:20:33.869Z</time></trkpt><trkpt lat="45.0885426" lon="8.3888097"><ele>258.0</ele><time>2026-03-29T11:20:36.865Z</time></trkpt><trkpt lat="45.0886173" lon="8.3887669"><ele>258.0</ele><time>2026-03-29T11:20:42.869Z</time></trkpt><trkpt lat="45.0885412" lon="8.3887884"><ele>258.0</ele><time>2026-03-29T11:20:47.871Z</time></trkpt><trkpt lat="45.0884263" lon="8.3887952"><ele>258.0</ele><time>2026-03-29T11:20:49.871Z</time></trkpt><trkpt lat="45.0883442" lon="8.3887857"><ele>258.0</ele><time>2026-03-29T11:20:50.878Z</time></trkpt><trkpt lat="45.0882452" lon="8.3887732"><ele>258.0</ele><time>2026-03-29T11:20:51.875Z</time></trkpt><trkpt lat="45.0881333" lon="8.3887575"><ele>260.6</ele><time>2026-03-29T11:20:52.871Z</time></trkpt><trkpt lat="45.0880068" lon="8.3887405"><ele>263.20000000000005</ele><time>2026-03-29T11:20:53.87Z</time></trkpt><trkpt lat="45.0878682" lon="8.3887238"><ele>265.8</ele><time>2026-03-29T11:20:54.871Z</time></trkpt><trkpt lat="45.0877978" lon="8.3887596"><ele>268.40000000000003</ele><time>2026-03-29T11:20:55.901Z</time></trkpt><trkpt lat="45.0877406" lon="8.3888052"><ele>271.0</ele><time>2026-03-29T11:20:56.87Z</time></trkpt><trkpt lat="45.0876763" lon="8.3888607"><ele>271.0</ele><time>2026-03-29T11:20:57.872Z</time></trkpt><trkpt lat="45.0876086" lon="8.3889367"><ele>271.0</ele><time>2026-03-29T11:20:58.868Z</time></trkpt><trkpt lat="45.0875028" lon="8.3891102"><ele>271.0</ele><time>2026-03-29T11:20:59.895Z</time></trkpt><trkpt lat="45.0873884" lon="8.3892875"><ele>271.0</ele><time>2026-03-29T11:21:00.894Z</time></trkpt><trkpt lat="45.0872853" lon="8.3894619"><ele>273.3333333333333</ele><time>2026-03-29T11:21:01.866Z</time></trkpt><trkpt lat="45.0871841" lon="8.3896085"><ele>275.6666666666667</ele><time>2026-03-29T11:21:02.864Z</time></trkpt><trkpt lat="45.0870628" lon="8.3897599"><ele>278.0</ele><time>2026-03-29T11:21:03.867Z</time></trkpt><trkpt lat="45.0869365" lon="8.389899"><ele>278.0</ele><time>2026-03-29T11:21:04.867Z</time></trkpt><trkpt lat="45.0868487" lon="8.3899793"><ele>278.0</ele><time>2026-03-29T11:21:05.868Z</time></trkpt><trkpt lat="45.0867582" lon="8.389998"><ele>278.0</ele><time>2026-03-29T11:21:06.873Z</time></trkpt><trkpt lat="45.0867405" lon="8.3901133"><ele>278.0</ele><time>2026-03-29T11:21:09.888Z</time></trkpt><trkpt lat="45.0866596" lon="8.39021"><ele>278.0</ele><time>2026-03-29T11:21:10.896Z</time></trkpt><trkpt lat="45.0865319" lon="8.390335"><ele>284.0</ele><time>2026-03-29T11:21:11.873Z</time></trkpt><trkpt lat="45.0864461" lon="8.3903801"><ele>290.0</ele><time>2026-03-29T11:21:12.873Z</time></trkpt><trkpt lat="45.086249" lon="8.3903871"><ele>296.0</ele><time>2026-03-29T11:21:13.868Z</time></trkpt><trkpt lat="45.0861522" lon="8.3903839"><ele>302.0</ele><time>2026-03-29T11:21:14.869Z</time></trkpt><trkpt lat="45.0860903" lon="8.390475"><ele>300.25</ele><time>2026-03-29T11:21:17.872Z</time></trkpt><trkpt lat="45.0860005" lon="8.3907114"><ele>298.5</ele><time>2026-03-29T11:21:18.865Z</time></trkpt><trkpt lat="45.0859106" lon="8.3908343"><ele>296.75</ele><time>2026-03-29T11:21:20.868Z</time></trkpt><trkpt lat="45.0858416" lon="8.3909032"><ele>295.0</ele><time>2026-03-29T11:21:21.874Z</time></trkpt><trkpt lat="45.0857342" lon="8.3910247"><ele>295.0</ele><time>2026-03-29T11:21:22.885Z</time></trkpt><trkpt lat="45.0856334" lon="8.3910992"><ele>295.0</ele><time>2026-03-29T11:21:23.878Z</time></trkpt><trkpt lat="45.0854467" lon="8.3910996"><ele>295.0</ele><time>2026-03-29T11:21:24.869Z</time></trkpt><trkpt lat="45.085343" lon="8.3911536"><ele>295.0</ele><time>2026-03-29T11:21:26.871Z</time></trkpt><trkpt lat="45.0852361" lon="8.3912092"><ele>295.0</ele><time>2026-03-29T11:21:28.871Z</time></trkpt><trkpt lat="45.0851545" lon="8.3912292"><ele>295.0</ele><time>2026-03-29T11:21:30.87Z</time></trkpt><trkpt lat="45.0850516" lon="8.3912958"><ele>295.0</ele><time>2026-03-29T11:21:42.876Z</time></trkpt><trkpt lat="45.085231" lon="8.3913038"><ele>295.0</ele><time>2026-03-29T11:21:49.874Z</time></trkpt><trkpt lat="45.0851848" lon="8.3912066"><ele>295.0</ele><time>2026-03-29T11:21:51.886Z</time></trkpt><trkpt lat="45.0851571" lon="8.3911023"><ele>295.0</ele><time>2026-03-29T11:21:53.875Z</time></trkpt><trkpt lat="45.0851462" lon="8.3909051"><ele>295.0</ele><time>2026-03-29T11:21:55.873Z</time></trkpt><trkpt lat="45.0851414" lon="8.3908085"><ele>295.0</ele><time>2026-03-29T11:21:56.866Z</time></trkpt><trkpt lat="45.0851333" lon="8.3906498"><ele>295.0</ele><time>2026-03-29T11:21:58.896Z</time></trkpt><trkpt lat="45.0850295" lon="8.3905345"><ele>294.5714285714286</ele><time>2026-03-29T11:22:01.879Z</time></trkpt><trkpt lat="45.0849766" lon="8.3904846"><ele>294.14285714285717</ele><time>2026-03-29T11:22:02.874Z</time></trkpt><trkpt lat="45.0849165" lon="8.3904455"><ele>293.7142857142857</ele><time>2026-03-29T11:22:04.868Z</time></trkpt><trkpt lat="45.0848625" lon="8.3905135"><ele>293.28571428571433</ele><time>2026-03-29T11:22:08.873Z</time></trkpt><trkpt lat="45.0849168" lon="8.3905878"><ele>292.8571428571429</ele><time>2026-03-29T11:22:14.875Z</time></trkpt><trkpt lat="45.0848385" lon="8.3905594"><ele>292.42857142857144</ele><time>2026-03-29T11:22:28.872Z</time></trkpt><trkpt lat="45.0848454" lon="8.3904453"><ele>292.0</ele><time>2026-03-29T11:27:06.866Z</time></trkpt><trkpt lat="45.0849108" lon="8.3904952"><ele>292.5</ele><time>2026-03-29T11:27:24.876Z</time></trkpt><trkpt lat="45.0849491" lon="8.3905837"><ele>293.0</ele><time>2026-03-29T11:27:26.865Z</time></trkpt><trkpt lat="45.0849689" lon="8.3906714"><ele>293.5</ele><time>2026-03-29T11:27:28.865Z</time></trkpt><trkpt lat="45.0849619" lon="8.3907826"><ele>294.0</ele><time>2026-03-29T11:27:31.875Z</time></trkpt><trkpt lat="45.0849414" lon="8.3908917"><ele>294.5</ele><time>2026-03-29T11:27:33.868Z</time></trkpt><trkpt lat="45.084899" lon="8.3910375"><ele>295.0</ele><time>2026-03-29T11:27:35.864Z</time></trkpt><trkpt lat="45.0848725" lon="8.3911282"><ele>292.16666666666663</ele><time>2026-03-29T11:27:36.868Z</time></trkpt><trkpt lat="45.0848401" lon="8.391225"><ele>289.3333333333333</ele><time>2026-03-29T11:27:37.865Z</time></trkpt><trkpt lat="45.0848075" lon="8.3913299"><ele>286.5</ele><time>2026-03-29T11:27:38.865Z</time></trkpt><trkpt lat="45.0847763" lon="8.3914239"><ele>283.6666666666667</ele><time>2026-03-29T11:27:39.863Z</time></trkpt><trkpt lat="45.0847452" lon="8.3915043"><ele>280.83333333333337</ele><time>2026-03-29T11:27:40.867Z</time></trkpt><trkpt lat="45.0846757" lon="8.3916393"><ele>278.0</ele><time>2026-03-29T11:27:42.865Z</time></trkpt><trkpt lat="45.0846313" lon="8.3917079"><ele>277.7142857142857</ele><time>2026-03-29T11:27:43.864Z</time></trkpt><trkpt lat="45.0845837" lon="8.3917804"><ele>277.42857142857144</ele><time>2026-03-29T11:27:44.869Z</time></trkpt><trkpt lat="45.0845356" lon="8.3918492"><ele>277.14285714285717</ele><time>2026-03-29T11:27:45.865Z</time></trkpt><trkpt lat="45.0844823" lon="8.3919147"><ele>276.8571428571429</ele><time>2026-03-29T11:27:46.867Z</time></trkpt><trkpt lat="45.0844234" lon="8.3919731"><ele>276.5714285714286</ele><time>2026-03-29T11:27:47.866Z</time></trkpt><trkpt lat="45.0843612" lon="8.3920453"><ele>276.2857142857143</ele><time>2026-03-29T11:27:48.864Z</time></trkpt><trkpt lat="45.0842963" lon="8.3921145"><ele>276.0</ele><time>2026-03-29T11:27:49.863Z</time></trkpt><trkpt lat="45.0842269" lon="8.3921858"><ele>276.0</ele><time>2026-03-29T11:27:50.867Z</time></trkpt><trkpt lat="45.0841502" lon="8.3922588"><ele>276.0</ele><time>2026-03-29T11:27:51.862Z</time></trkpt><trkpt lat="45.084067" lon="8.3923404"><ele>276.0</ele><time>2026-03-29T11:27:52.863Z</time></trkpt><trkpt lat="45.083982" lon="8.3924269"><ele>276.0</ele><time>2026-03-29T11:27:53.864Z</time></trkpt><trkpt lat="45.0838905" lon="8.3925238"><ele>276.0</ele><time>2026-03-29T11:27:54.863Z</time></trkpt><trkpt lat="45.0838022" lon="8.3926097"><ele>276.0</ele><time>2026-03-29T11:27:55.867Z</time></trkpt><trkpt lat="45.0837216" lon="8.392694"><ele>276.0</ele><time>2026-03-29T11:27:56.878Z</time></trkpt><trkpt lat="45.0836463" lon="8.3927651"><ele>276.0</ele><time>2026-03-29T11:27:57.868Z</time></trkpt><trkpt lat="45.0835731" lon="8.3928271"><ele>276.0</ele><time>2026-03-29T11:27:58.865Z</time></trkpt><trkpt lat="45.083502" lon="8.3928919"><ele>276.0</ele><time>2026-03-29T11:27:59.897Z</time></trkpt><trkpt lat="45.0834365" lon="8.3929649"><ele>276.0</ele><time>2026-03-29T11:28:00.88Z</time></trkpt><trkpt lat="45.0833717" lon="8.3930385"><ele>276.8333333333333</ele><time>2026-03-29T11:28:01.866Z</time></trkpt><trkpt lat="45.0833141" lon="8.3931133"><ele>277.6666666666667</ele><time>2026-03-29T11:28:02.875Z</time></trkpt><trkpt lat="45.083259" lon="8.3931765"><ele>278.5</ele><time>2026-03-29T11:28:03.868Z</time></trkpt><trkpt lat="45.083206" lon="8.3932335"><ele>279.33333333333337</ele><time>2026-03-29T11:28:04.87Z</time></trkpt><trkpt lat="45.083117" lon="8.3933462"><ele>280.1666666666667</ele><time>2026-03-29T11:28:06.896Z</time></trkpt><trkpt lat="45.0830619" lon="8.3933962"><ele>281.0</ele><time>2026-03-29T11:28:07.898Z</time></trkpt><trkpt lat="45.0830014" lon="8.3934505"><ele>281.0</ele><time>2026-03-29T11:28:08.867Z</time></trkpt><trkpt lat="45.0829388" lon="8.3935087"><ele>281.0</ele><time>2026-03-29T11:28:09.866Z</time></trkpt><trkpt lat="45.0828816" lon="8.3935665"><ele>281.0</ele><time>2026-03-29T11:28:10.869Z</time></trkpt><trkpt lat="45.0828222" lon="8.3936111"><ele>281.0</ele><time>2026-03-29T11:28:11.878Z</time></trkpt><trkpt lat="45.082762" lon="8.3936427"><ele>281.0</ele><time>2026-03-29T11:28:12.864Z</time></trkpt><trkpt lat="45.082642" lon="8.3936318"><ele>281.0</ele><time>2026-03-29T11:28:14.872Z</time></trkpt><trkpt lat="45.0825756" lon="8.3935948"><ele>281.0</ele><time>2026-03-29T11:28:15.871Z</time></trkpt><trkpt lat="45.0825006" lon="8.3935466"><ele>281.0</ele><time>2026-03-29T11:28:16.869Z</time></trkpt><trkpt lat="45.0824277" lon="8.3934999"><ele>281.0</ele><time>2026-03-29T11:28:17.873Z</time></trkpt><trkpt lat="45.0823566" lon="8.3934646"><ele>281.0</ele><time>2026-03-29T11:28:18.868Z</time></trkpt><trkpt lat="45.0822937" lon="8.39344"><ele>281.0</ele><time>2026-03-29T11:28:19.87Z</time></trkpt><trkpt lat="45.0821844" lon="8.3934632"><ele>281.0</ele><time>2026-03-29T11:28:21.872Z</time></trkpt><trkpt lat="45.0821417" lon="8.3935288"><ele>279.5</ele><time>2026-03-29T11:28:22.87Z</time></trkpt><trkpt lat="45.0821064" lon="8.3936098"><ele>278.0</ele><time>2026-03-29T11:28:23.866Z</time></trkpt><trkpt lat="45.0820738" lon="8.3937026"><ele>276.5</ele><time>2026-03-29T11:28:24.869Z</time></trkpt><trkpt lat="45.0820388" lon="8.3938251"><ele>275.0</ele><time>2026-03-29T11:28:25.873Z</time></trkpt><trkpt lat="45.0819982" lon="8.3939552"><ele>273.5</ele><time>2026-03-29T11:28:26.867Z</time></trkpt><trkpt lat="45.0819601" lon="8.3940976"><ele>272.0</ele><time>2026-03-29T11:28:27.869Z</time></trkpt><trkpt lat="45.0818966" lon="8.3942375"><ele>272.0</ele><time>2026-03-29T11:28:28.865Z</time></trkpt><trkpt lat="45.0818266" lon="8.3943566"><ele>272.0</ele><time>2026-03-29T11:28:29.867Z</time></trkpt><trkpt lat="45.0817661" lon="8.3944771"><ele>272.0</ele><time>2026-03-29T11:28:30.893Z</time></trkpt><trkpt lat="45.0817076" lon="8.3946067"><ele>272.0</ele><time>2026-03-29T11:28:31.871Z</time></trkpt><trkpt lat="45.0816593" lon="8.3947399"><ele>272.0</ele><time>2026-03-29T11:28:32.882Z</time></trkpt><trkpt lat="45.0816189" lon="8.3948647"><ele>265.8</ele><time>2026-03-29T11:28:33.871Z</time></trkpt><trkpt lat="45.0815843" lon="8.3949866"><ele>259.6</ele><time>2026-03-29T11:28:34.869Z</time></trkpt><trkpt lat="45.0815649" lon="8.3951092"><ele>253.40000000000003</ele><time>2026-03-29T11:28:35.871Z</time></trkpt><trkpt lat="45.0815565" lon="8.3952339"><ele>247.20000000000002</ele><time>2026-03-29T11:28:36.866Z</time></trkpt><trkpt lat="45.0815556" lon="8.3953667"><ele>241.0</ele><time>2026-03-29T11:28:37.891Z</time></trkpt><trkpt lat="45.0815631" lon="8.3954973"><ele>241.33333333333331</ele><time>2026-03-29T11:28:38.87Z</time></trkpt><trkpt lat="45.0815652" lon="8.3956282"><ele>241.66666666666666</ele><time>2026-03-29T11:28:39.872Z</time></trkpt><trkpt lat="45.0815735" lon="8.3957646"><ele>242.0</ele><time>2026-03-29T11:28:40.866Z</time></trkpt><trkpt lat="45.0815895" lon="8.3958935"><ele>242.33333333333331</ele><time>2026-03-29T11:28:41.873Z</time></trkpt><trkpt lat="45.0816144" lon="8.396007"><ele>242.66666666666666</ele><time>2026-03-29T11:28:42.903Z</time></trkpt><trkpt lat="45.0816421" lon="8.3961114"><ele>243.0</ele><time>2026-03-29T11:28:43.87Z</time></trkpt><trkpt lat="45.0816823" lon="8.3962164"><ele>247.16666666666666</ele><time>2026-03-29T11:28:44.881Z</time></trkpt><trkpt lat="45.0817281" lon="8.3963248"><ele>251.33333333333331</ele><time>2026-03-29T11:28:45.876Z</time></trkpt><trkpt lat="45.0817744" lon="8.3964297"><ele>255.5</ele><time>2026-03-29T11:28:46.873Z</time></trkpt><trkpt lat="45.0818197" lon="8.3965278"><ele>259.66666666666663</ele><time>2026-03-29T11:28:47.867Z</time></trkpt><trkpt lat="45.0818638" lon="8.3966215"><ele>263.8333333333333</ele><time>2026-03-29T11:28:48.882Z</time></trkpt><trkpt lat="45.0819047" lon="8.3967068"><ele>268.0</ele><time>2026-03-29T11:28:49.865Z</time></trkpt><trkpt lat="45.08196" lon="8.3968593"><ele>268.0</ele><time>2026-03-29T11:28:51.877Z</time></trkpt><trkpt lat="45.0819583" lon="8.3969574"><ele>268.0</ele><time>2026-03-29T11:28:52.875Z</time></trkpt><trkpt lat="45.0819304" lon="8.397063"><ele>268.0</ele><time>2026-03-29T11:28:53.875Z</time></trkpt><trkpt lat="45.0818827" lon="8.3971621"><ele>268.0</ele><time>2026-03-29T11:28:54.881Z</time></trkpt><trkpt lat="45.081822" lon="8.3972556"><ele>268.0</ele><time>2026-03-29T11:28:55.87Z</time></trkpt><trkpt lat="45.0817829" lon="8.3973455"><ele>268.0</ele><time>2026-03-29T11:28:56.872Z</time></trkpt><trkpt lat="45.081744" lon="8.3974412"><ele>268.66666666666663</ele><time>2026-03-29T11:28:57.868Z</time></trkpt><trkpt lat="45.0817084" lon="8.397541"><ele>269.3333333333333</ele><time>2026-03-29T11:28:58.883Z</time></trkpt><trkpt lat="45.081667" lon="8.3976491"><ele>270.0</ele><time>2026-03-29T11:28:59.872Z</time></trkpt><trkpt lat="45.0816246" lon="8.3977634"><ele>270.6666666666667</ele><time>2026-03-29T11:29:00.875Z</time></trkpt><trkpt lat="45.0815832" lon="8.3978778"><ele>271.33333333333337</ele><time>2026-03-29T11:29:01.867Z</time></trkpt><trkpt lat="45.0815475" lon="8.3979757"><ele>272.0</ele><time>2026-03-29T11:29:02.863Z</time></trkpt><trkpt lat="45.0815153" lon="8.3980979"><ele>272.0</ele><time>2026-03-29T11:29:04.87Z</time></trkpt><trkpt lat="45.0814374" lon="8.3980438"><ele>272.0</ele><time>2026-03-29T11:29:06.871Z</time></trkpt><trkpt lat="45.081318" lon="8.3979907"><ele>272.0</ele><time>2026-03-29T11:29:08.869Z</time></trkpt><trkpt lat="45.0812309" lon="8.3979803"><ele>272.0</ele><time>2026-03-29T11:29:09.89Z</time></trkpt><trkpt lat="45.0811297" lon="8.3979636"><ele>272.0</ele><time>2026-03-29T11:29:10.874Z</time></trkpt><trkpt lat="45.0810344" lon="8.3979564"><ele>272.0</ele><time>2026-03-29T11:29:11.877Z</time></trkpt><trkpt lat="45.0809493" lon="8.3979586"><ele>272.0</ele><time>2026-03-29T11:29:12.875Z</time></trkpt><trkpt lat="45.0808739" lon="8.39796"><ele>272.0</ele><time>2026-03-29T11:29:13.903Z</time></trkpt><trkpt lat="45.0808098" lon="8.3979673"><ele>272.0</ele><time>2026-03-29T11:29:14.867Z</time></trkpt><trkpt lat="45.080729" lon="8.3979872"><ele>272.0</ele><time>2026-03-29T11:29:16.868Z</time></trkpt><trkpt lat="45.0806796" lon="8.3981099"><ele>272.0</ele><time>2026-03-29T11:29:19.875Z</time></trkpt><trkpt lat="45.0806678" lon="8.3982459"><ele>272.83333333333337</ele><time>2026-03-29T11:29:21.873Z</time></trkpt><trkpt lat="45.0806648" lon="8.3983395"><ele>273.6666666666667</ele><time>2026-03-29T11:29:24.904Z</time></trkpt><trkpt lat="45.0807365" lon="8.3983562"><ele>274.5</ele><time>2026-03-29T11:29:28.874Z</time></trkpt><trkpt lat="45.0808306" lon="8.3983887"><ele>275.3333333333333</ele><time>2026-03-29T11:29:31.885Z</time></trkpt><trkpt lat="45.0809054" lon="8.3984117"><ele>276.16666666666663</ele><time>2026-03-29T11:29:33.873Z</time></trkpt><trkpt lat="45.0810023" lon="8.3984385"><ele>277.0</ele><time>2026-03-29T11:29:35.887Z</time></trkpt><trkpt lat="45.0810872" lon="8.3984895"><ele>288.0</ele><time>2026-03-29T11:29:37.879Z</time></trkpt><trkpt lat="45.0811316" lon="8.3985637"><ele>288.0</ele><time>2026-03-29T11:29:40.884Z</time></trkpt></trkseg><trkseg><trkpt lat="45.0810279" lon="8.3985712"><ele>288.0</ele><time>2026-03-29T12:12:19.865Z</time></trkpt><trkpt lat="45.0809515" lon="8.3985094"><ele>288.0</ele><time>2026-03-29T12:12:22.862Z</time></trkpt><trkpt lat="45.0808655" lon="8.3984812"><ele>288.0</ele><time>2026-03-29T12:12:25.861Z</time></trkpt><trkpt lat="45.0807852" lon="8.3984889"><ele>288.0</ele><time>2026-03-29T12:12:28.869Z</time></trkpt><trkpt lat="45.0807199" lon="8.3984437"><ele>288.0</ele><time>2026-03-29T12:12:32.866Z</time></trkpt><trkpt lat="45.0806845" lon="8.3983527"><ele>288.0</ele><time>2026-03-29T12:12:35.882Z</time></trkpt><trkpt lat="45.0806905" lon="8.3982356"><ele>288.0</ele><time>2026-03-29T12:12:39.871Z</time></trkpt><trkpt lat="45.0807138" lon="8.3981366"><ele>288.0</ele><time>2026-03-29T12:12:42.865Z</time></trkpt><trkpt lat="45.0807691" lon="8.3980421"><ele>288.0</ele><time>2026-03-29T12:12:45.864Z</time></trkpt><trkpt lat="45.0808588" lon="8.3979921"><ele>288.0</ele><time>2026-03-29T12:12:48.868Z</time></trkpt><trkpt lat="45.0810076" lon="8.3980257"><ele>288.0</ele><time>2026-03-29T12:12:51.872Z</time></trkpt><trkpt lat="45.0811127" lon="8.3980347"><ele>288.0</ele><time>2026-03-29T12:12:53.871Z</time></trkpt><trkpt lat="45.081235" lon="8.3980529"><ele>288.0</ele><time>2026-03-29T12:12:55.866Z</time></trkpt><trkpt lat="45.0813322" lon="8.3980683"><ele>288.0</ele><time>2026-03-29T12:12:57.868Z</time></trkpt><trkpt lat="45.0814126" lon="8.3980807"><ele>288.0</ele><time>2026-03-29T12:12:59.874Z</time></trkpt><trkpt lat="45.0814858" lon="8.3980704"><ele>288.0</ele><time>2026-03-29T12:13:01.871Z</time></trkpt><trkpt lat="45.0815487" lon="8.3980056"><ele>285.3333333333333</ele><time>2026-03-29T12:13:03.895Z</time></trkpt><trkpt lat="45.0816016" lon="8.3978656"><ele>282.6666666666667</ele><time>2026-03-29T12:13:05.874Z</time></trkpt><trkpt lat="45.0816316" lon="8.3977802"><ele>280.0</ele><time>2026-03-29T12:13:06.87Z</time></trkpt><trkpt lat="45.0816597" lon="8.3976921"><ele>277.33333333333337</ele><time>2026-03-29T12:13:07.865Z</time></trkpt><trkpt lat="45.0817199" lon="8.3975657"><ele>274.6666666666667</ele><time>2026-03-29T12:13:09.876Z</time></trkpt><trkpt lat="45.0817718" lon="8.3974845"><ele>272.0</ele><time>2026-03-29T12:13:11.876Z</time></trkpt><trkpt lat="45.0818229" lon="8.3973586"><ele>272.0</ele><time>2026-03-29T12:13:14.874Z</time></trkpt><trkpt lat="45.0818691" lon="8.3972198"><ele>272.0</ele><time>2026-03-29T12:13:16.867Z</time></trkpt><trkpt lat="45.0819004" lon="8.3971213"><ele>272.0</ele><time>2026-03-29T12:13:17.871Z</time></trkpt><trkpt lat="45.0819359" lon="8.397021"><ele>272.0</ele><time>2026-03-29T12:13:18.865Z</time></trkpt><trkpt lat="45.0819704" lon="8.396919"><ele>272.0</ele><time>2026-03-29T12:13:19.867Z</time></trkpt><trkpt lat="45.0819982" lon="8.3968173"><ele>272.0</ele><time>2026-03-29T12:13:20.862Z</time></trkpt><trkpt lat="45.0820241" lon="8.3967197"><ele>272.33333333333337</ele><time>2026-03-29T12:13:21.868Z</time></trkpt><trkpt lat="45.082023" lon="8.3966239"><ele>272.6666666666667</ele><time>2026-03-29T12:13:22.875Z</time></trkpt><trkpt lat="45.0820027" lon="8.3965343"><ele>273.0</ele><time>2026-03-29T12:13:23.868Z</time></trkpt><trkpt lat="45.0819571" lon="8.396436"><ele>273.3333333333333</ele><time>2026-03-29T12:13:24.878Z</time></trkpt><trkpt lat="45.0818975" lon="8.3963273"><ele>273.66666666666663</ele><time>2026-03-29T12:13:25.878Z</time></trkpt><trkpt lat="45.0818518" lon="8.3962099"><ele>274.0</ele><time>2026-03-29T12:13:26.9Z</time></trkpt><trkpt lat="45.081807" lon="8.3960982"><ele>274.0</ele><time>2026-03-29T12:13:27.898Z</time></trkpt><trkpt lat="45.0817666" lon="8.3959935"><ele>274.0</ele><time>2026-03-29T12:13:28.862Z</time></trkpt><trkpt lat="45.0817326" lon="8.3958893"><ele>274.0</ele><time>2026-03-29T12:13:29.887Z</time></trkpt><trkpt lat="45.0817133" lon="8.3957903"><ele>274.0</ele><time>2026-03-29T12:13:30.875Z</time></trkpt><trkpt lat="45.0817073" lon="8.3956885"><ele>274.0</ele><time>2026-03-29T12:13:31.868Z</time></trkpt><trkpt lat="45.0817141" lon="8.3955747"><ele>274.0</ele><time>2026-03-29T12:13:32.869Z</time></trkpt><trkpt lat="45.0817235" lon="8.3954474"><ele>274.4</ele><time>2026-03-29T12:13:33.864Z</time></trkpt><trkpt lat="45.0817323" lon="8.3953107"><ele>274.79999999999995</ele><time>2026-03-29T12:13:34.866Z</time></trkpt><trkpt lat="45.0817384" lon="8.3951684"><ele>275.20000000000005</ele><time>2026-03-29T12:13:35.873Z</time></trkpt><trkpt lat="45.0817465" lon="8.3950251"><ele>275.6</ele><time>2026-03-29T12:13:36.866Z</time></trkpt><trkpt lat="45.0817772" lon="8.3949003"><ele>276.0</ele><time>2026-03-29T12:13:37.88Z</time></trkpt><trkpt lat="45.0818022" lon="8.3947696"><ele>275.2</ele><time>2026-03-29T12:13:38.865Z</time></trkpt><trkpt lat="45.0818309" lon="8.3946354"><ele>274.40000000000003</ele><time>2026-03-29T12:13:39.863Z</time></trkpt><trkpt lat="45.0818666" lon="8.3944994"><ele>273.6</ele><time>2026-03-29T12:13:40.872Z</time></trkpt><trkpt lat="45.0819053" lon="8.3943629"><ele>272.8</ele><time>2026-03-29T12:13:41.872Z</time></trkpt><trkpt lat="45.0819482" lon="8.3942266"><ele>272.0</ele><time>2026-03-29T12:13:42.866Z</time></trkpt><trkpt lat="45.0819956" lon="8.3940979"><ele>272.0</ele><time>2026-03-29T12:13:43.859Z</time></trkpt><trkpt lat="45.0820468" lon="8.3939791"><ele>272.0</ele><time>2026-03-29T12:13:44.865Z</time></trkpt><trkpt lat="45.0820951" lon="8.3938661"><ele>272.0</ele><time>2026-03-29T12:13:45.869Z</time></trkpt><trkpt lat="45.0821389" lon="8.3937656"><ele>272.0</ele><time>2026-03-29T12:13:46.868Z</time></trkpt><trkpt lat="45.0821715" lon="8.3936728"><ele>272.0</ele><time>2026-03-29T12:13:47.871Z</time></trkpt><trkpt lat="45.0822008" lon="8.3935918"><ele>272.0</ele><time>2026-03-29T12:13:48.868Z</time></trkpt><trkpt lat="45.0822805" lon="8.3934731"><ele>271.33333333333337</ele><time>2026-03-29T12:13:50.871Z</time></trkpt><trkpt lat="45.0823503" lon="8.3934644"><ele>270.6666666666667</ele><time>2026-03-29T12:13:51.866Z</time></trkpt><trkpt lat="45.0824266" lon="8.3934901"><ele>270.0</ele><time>2026-03-29T12:13:52.866Z</time></trkpt><trkpt lat="45.0825086" lon="8.3935515"><ele>269.3333333333333</ele><time>2026-03-29T12:13:53.862Z</time></trkpt><trkpt lat="45.0826002" lon="8.3936249"><ele>268.66666666666663</ele><time>2026-03-29T12:13:54.871Z</time></trkpt><trkpt lat="45.0826861" lon="8.3936604"><ele>268.0</ele><time>2026-03-29T12:13:55.869Z</time></trkpt><trkpt lat="45.0827678" lon="8.3936683"><ele>270.16666666666663</ele><time>2026-03-29T12:13:56.903Z</time></trkpt><trkpt lat="45.0828434" lon="8.3936504"><ele>272.3333333333333</ele><time>2026-03-29T12:13:57.865Z</time></trkpt><trkpt lat="45.0829143" lon="8.3936106"><ele>274.5</ele><time>2026-03-29T12:13:58.876Z</time></trkpt><trkpt lat="45.0829812" lon="8.3935487"><ele>276.6666666666667</ele><time>2026-03-29T12:13:59.872Z</time></trkpt><trkpt lat="45.0830454" lon="8.3934773"><ele>278.83333333333337</ele><time>2026-03-29T12:14:00.867Z</time></trkpt><trkpt lat="45.0831098" lon="8.3933869"><ele>281.0</ele><time>2026-03-29T12:14:01.866Z</time></trkpt><trkpt lat="45.0831773" lon="8.3933032"><ele>281.0</ele><time>2026-03-29T12:14:02.869Z</time></trkpt><trkpt lat="45.0832514" lon="8.393228"><ele>281.0</ele><time>2026-03-29T12:14:03.867Z</time></trkpt><trkpt lat="45.0833212" lon="8.3931476"><ele>281.0</ele><time>2026-03-29T12:14:04.873Z</time></trkpt><trkpt lat="45.0833989" lon="8.3930904"><ele>281.0</ele><time>2026-03-29T12:14:05.869Z</time></trkpt><trkpt lat="45.0834713" lon="8.3930284"><ele>281.0</ele><time>2026-03-29T12:14:06.88Z</time></trkpt><trkpt lat="45.0835414" lon="8.3929607"><ele>281.0</ele><time>2026-03-29T12:14:07.872Z</time></trkpt><trkpt lat="45.0836114" lon="8.3928987"><ele>280.1666666666667</ele><time>2026-03-29T12:14:08.863Z</time></trkpt><trkpt lat="45.0836813" lon="8.3928327"><ele>279.33333333333337</ele><time>2026-03-29T12:14:09.878Z</time></trkpt><trkpt lat="45.0837509" lon="8.3927666"><ele>278.5</ele><time>2026-03-29T12:14:10.886Z</time></trkpt><trkpt lat="45.0838188" lon="8.3927033"><ele>277.6666666666667</ele><time>2026-03-29T12:14:11.877Z</time></trkpt><trkpt lat="45.0838895" lon="8.392632"><ele>276.8333333333333</ele><time>2026-03-29T12:14:12.873Z</time></trkpt><trkpt lat="45.083964" lon="8.3925588"><ele>276.0</ele><time>2026-03-29T12:14:13.879Z</time></trkpt><trkpt lat="45.0840458" lon="8.3924822"><ele>276.0</ele><time>2026-03-29T12:14:14.87Z</time></trkpt><trkpt lat="45.0841269" lon="8.3924083"><ele>276.0</ele><time>2026-03-29T12:14:15.87Z</time></trkpt><trkpt lat="45.084206" lon="8.3923291"><ele>276.0</ele><time>2026-03-29T12:14:16.872Z</time></trkpt><trkpt lat="45.0842831" lon="8.3922579"><ele>276.0</ele><time>2026-03-29T12:14:17.875Z</time></trkpt><trkpt lat="45.0843613" lon="8.3921794"><ele>276.0</ele><time>2026-03-29T12:14:18.871Z</time></trkpt><trkpt lat="45.0844431" lon="8.3920857"><ele>276.0</ele><time>2026-03-29T12:14:19.866Z</time></trkpt><trkpt lat="45.0845231" lon="8.3920001"><ele>276.0</ele><time>2026-03-29T12:14:20.869Z</time></trkpt><trkpt lat="45.0846014" lon="8.3919118"><ele>276.0</ele><time>2026-03-29T12:14:21.862Z</time></trkpt><trkpt lat="45.0846685" lon="8.3918257"><ele>276.0</ele><time>2026-03-29T12:14:22.867Z</time></trkpt><trkpt lat="45.0847397" lon="8.391744"><ele>276.0</ele><time>2026-03-29T12:14:23.868Z</time></trkpt><trkpt lat="45.0848063" lon="8.3916592"><ele>276.0</ele><time>2026-03-29T12:14:24.868Z</time></trkpt><trkpt lat="45.0848635" lon="8.3915751"><ele>276.0</ele><time>2026-03-29T12:14:25.869Z</time></trkpt><trkpt lat="45.0849314" lon="8.3915045"><ele>276.0</ele><time>2026-03-29T12:14:26.868Z</time></trkpt><trkpt lat="45.0850034" lon="8.3914505"><ele>276.0</ele><time>2026-03-29T12:14:27.864Z</time></trkpt><trkpt lat="45.0850771" lon="8.3914104"><ele>276.0</ele><time>2026-03-29T12:14:28.881Z</time></trkpt><trkpt lat="45.0851725" lon="8.3914091"><ele>276.0</ele><time>2026-03-29T12:14:29.862Z</time></trkpt><trkpt lat="45.0852634" lon="8.3913858"><ele>279.8</ele><time>2026-03-29T12:14:30.864Z</time></trkpt><trkpt lat="45.0853383" lon="8.3913184"><ele>283.6</ele><time>2026-03-29T12:14:31.868Z</time></trkpt><trkpt lat="45.0854118" lon="8.391231"><ele>287.4</ele><time>2026-03-29T12:14:32.864Z</time></trkpt><trkpt lat="45.0854853" lon="8.391115"><ele>291.2</ele><time>2026-03-29T12:14:33.877Z</time></trkpt><trkpt lat="45.0855636" lon="8.3909889"><ele>295.0</ele><time>2026-03-29T12:14:34.899Z</time></trkpt><trkpt lat="45.0856453" lon="8.3908677"><ele>295.0</ele><time>2026-03-29T12:14:35.892Z</time></trkpt><trkpt lat="45.0857266" lon="8.3907616"><ele>295.0</ele><time>2026-03-29T12:14:36.875Z</time></trkpt><trkpt lat="45.0858097" lon="8.3906738"><ele>295.0</ele><time>2026-03-29T12:14:37.876Z</time></trkpt><trkpt lat="45.0858945" lon="8.3906128"><ele>295.0</ele><time>2026-03-29T12:14:38.865Z</time></trkpt><trkpt lat="45.0859934" lon="8.3905832"><ele>295.0</ele><time>2026-03-29T12:14:39.864Z</time></trkpt><trkpt lat="45.086104" lon="8.3905741"><ele>296.4</ele><time>2026-03-29T12:14:40.881Z</time></trkpt><trkpt lat="45.0862099" lon="8.390579"><ele>297.8</ele><time>2026-03-29T12:14:41.865Z</time></trkpt><trkpt lat="45.0863109" lon="8.390566"><ele>299.2</ele><time>2026-03-29T12:14:42.871Z</time></trkpt><trkpt lat="45.0863969" lon="8.390529"><ele>300.6</ele><time>2026-03-29T12:14:43.868Z</time></trkpt><trkpt lat="45.0864738" lon="8.3904516"><ele>302.0</ele><time>2026-03-29T12:14:44.87Z</time></trkpt><trkpt lat="45.086547" lon="8.3903384"><ele>296.0</ele><time>2026-03-29T12:14:45.883Z</time></trkpt><trkpt lat="45.0866196" lon="8.3902148"><ele>290.0</ele><time>2026-03-29T12:14:46.887Z</time></trkpt><trkpt lat="45.0867107" lon="8.3901044"><ele>284.0</ele><time>2026-03-29T12:14:47.857Z</time></trkpt><trkpt lat="45.086814" lon="8.390013"><ele>278.0</ele><time>2026-03-29T12:14:48.86Z</time></trkpt><trkpt lat="45.0869229" lon="8.3899362"><ele>278.0</ele><time>2026-03-29T12:14:49.86Z</time></trkpt><trkpt lat="45.0870212" lon="8.3898617"><ele>278.0</ele><time>2026-03-29T12:14:50.883Z</time></trkpt><trkpt lat="45.0871048" lon="8.389769"><ele>278.0</ele><time>2026-03-29T12:14:51.864Z</time></trkpt><trkpt lat="45.0871772" lon="8.38966"><ele>278.0</ele><time>2026-03-29T12:14:52.861Z</time></trkpt><trkpt lat="45.0872439" lon="8.3895276"><ele>278.0</ele><time>2026-03-29T12:14:53.874Z</time></trkpt><trkpt lat="45.0873082" lon="8.3893924"><ele>276.6</ele><time>2026-03-29T12:14:54.864Z</time></trkpt><trkpt lat="45.0873717" lon="8.3892598"><ele>275.20000000000005</ele><time>2026-03-29T12:14:55.868Z</time></trkpt><trkpt lat="45.087435" lon="8.389138"><ele>273.8</ele><time>2026-03-29T12:14:56.873Z</time></trkpt><trkpt lat="45.087496" lon="8.3890319"><ele>272.40000000000003</ele><time>2026-03-29T12:14:57.87Z</time></trkpt><trkpt lat="45.0875603" lon="8.3889374"><ele>271.0</ele><time>2026-03-29T12:14:58.864Z</time></trkpt><trkpt lat="45.0876278" lon="8.3888593"><ele>272.8</ele><time>2026-03-29T12:14:59.865Z</time></trkpt><trkpt lat="45.0877123" lon="8.388808"><ele>274.6</ele><time>2026-03-29T12:15:00.862Z</time></trkpt><trkpt lat="45.0878126" lon="8.3887816"><ele>276.4</ele><time>2026-03-29T12:15:01.861Z</time></trkpt><trkpt lat="45.0879292" lon="8.3887744"><ele>278.2</ele><time>2026-03-29T12:15:02.868Z</time></trkpt><trkpt lat="45.0880548" lon="8.388795"><ele>280.0</ele><time>2026-03-29T12:15:03.865Z</time></trkpt><trkpt lat="45.0881789" lon="8.3888283"><ele>274.25</ele><time>2026-03-29T12:15:04.902Z</time></trkpt><trkpt lat="45.0882953" lon="8.3888707"><ele>268.5</ele><time>2026-03-29T12:15:05.864Z</time></trkpt><trkpt lat="45.0884123" lon="8.3889026"><ele>262.75</ele><time>2026-03-29T12:15:06.863Z</time></trkpt><trkpt lat="45.0885214" lon="8.3889309"><ele>257.0</ele><time>2026-03-29T12:15:07.87Z</time></trkpt><trkpt lat="45.0886204" lon="8.3889517"><ele>257.0</ele><time>2026-03-29T12:15:08.868Z</time></trkpt><trkpt lat="45.0887107" lon="8.3889652"><ele>257.0</ele><time>2026-03-29T12:15:09.889Z</time></trkpt><trkpt lat="45.0887963" lon="8.3889664"><ele>257.0</ele><time>2026-03-29T12:15:10.864Z</time></trkpt><trkpt lat="45.088878" lon="8.3889545"><ele>257.0</ele><time>2026-03-29T12:15:11.873Z</time></trkpt><trkpt lat="45.0889531" lon="8.3889214"><ele>257.0</ele><time>2026-03-29T12:15:12.869Z</time></trkpt><trkpt lat="45.0890168" lon="8.3888674"><ele>257.0</ele><time>2026-03-29T12:15:13.866Z</time></trkpt><trkpt lat="45.0890682" lon="8.3887956"><ele>257.83333333333337</ele><time>2026-03-29T12:15:14.904Z</time></trkpt><trkpt lat="45.0891114" lon="8.3887154"><ele>258.6666666666667</ele><time>2026-03-29T12:15:15.877Z</time></trkpt><trkpt lat="45.089148" lon="8.3886156"><ele>259.5</ele><time>2026-03-29T12:15:16.867Z</time></trkpt><trkpt lat="45.0891792" lon="8.388504"><ele>260.3333333333333</ele><time>2026-03-29T12:15:17.879Z</time></trkpt><trkpt lat="45.0892107" lon="8.3883806"><ele>261.16666666666663</ele><time>2026-03-29T12:15:18.872Z</time></trkpt><trkpt lat="45.0892475" lon="8.3882482"><ele>262.0</ele><time>2026-03-29T12:15:19.876Z</time></trkpt><trkpt lat="45.0892893" lon="8.3881078"><ele>261.0</ele><time>2026-03-29T12:15:20.87Z</time></trkpt><trkpt lat="45.0893336" lon="8.3879637"><ele>260.0</ele><time>2026-03-29T12:15:21.879Z</time></trkpt><trkpt lat="45.0893809" lon="8.3878202"><ele>259.0</ele><time>2026-03-29T12:15:22.868Z</time></trkpt><trkpt lat="45.0894268" lon="8.3876832"><ele>258.0</ele><time>2026-03-29T12:15:23.863Z</time></trkpt><trkpt lat="45.0894722" lon="8.3875541"><ele>257.0</ele><time>2026-03-29T12:15:24.886Z</time></trkpt><trkpt lat="45.0895154" lon="8.3874352"><ele>257.0</ele><time>2026-03-29T12:15:25.866Z</time></trkpt><trkpt lat="45.0895627" lon="8.387326"><ele>257.0</ele><time>2026-03-29T12:15:26.869Z</time></trkpt><trkpt lat="45.0896176" lon="8.3872311"><ele>257.0</ele><time>2026-03-29T12:15:27.864Z</time></trkpt><trkpt lat="45.0896862" lon="8.3871601"><ele>257.0</ele><time>2026-03-29T12:15:28.867Z</time></trkpt><trkpt lat="45.0897663" lon="8.3871097"><ele>257.0</ele><time>2026-03-29T12:15:29.864Z</time></trkpt><trkpt lat="45.0898613" lon="8.3870892"><ele>257.0</ele><time>2026-03-29T12:15:30.867Z</time></trkpt><trkpt lat="45.0899595" lon="8.3870898"><ele>256.0</ele><time>2026-03-29T12:15:31.869Z</time></trkpt><trkpt lat="45.0900616" lon="8.3871372"><ele>255.0</ele><time>2026-03-29T12:15:32.902Z</time></trkpt><trkpt lat="45.0901628" lon="8.387195"><ele>254.0</ele><time>2026-03-29T12:15:33.868Z</time></trkpt><trkpt lat="45.0902662" lon="8.3872726"><ele>253.0</ele><time>2026-03-29T12:15:34.864Z</time></trkpt><trkpt lat="45.0903795" lon="8.3873583"><ele>254.5</ele><time>2026-03-29T12:15:35.872Z</time></trkpt><trkpt lat="45.0904967" lon="8.3874385"><ele>256.0</ele><time>2026-03-29T12:15:36.861Z</time></trkpt><trkpt lat="45.0906161" lon="8.3875076"><ele>257.5</ele><time>2026-03-29T12:15:37.864Z</time></trkpt><trkpt lat="45.0907322" lon="8.3875647"><ele>259.0</ele><time>2026-03-29T12:15:38.9Z</time></trkpt><trkpt lat="45.0908429" lon="8.3875983"><ele>259.0</ele><time>2026-03-29T12:15:39.866Z</time></trkpt><trkpt lat="45.090945" lon="8.3876105"><ele>259.0</ele><time>2026-03-29T12:15:40.864Z</time></trkpt><trkpt lat="45.0910385" lon="8.387604"><ele>259.0</ele><time>2026-03-29T12:15:41.863Z</time></trkpt><trkpt lat="45.091133" lon="8.3875738"><ele>259.0</ele><time>2026-03-29T12:15:42.895Z</time></trkpt><trkpt lat="45.0912271" lon="8.3875186"><ele>259.0</ele><time>2026-03-29T12:15:43.87Z</time></trkpt><trkpt lat="45.0913254" lon="8.3874468"><ele>259.0</ele><time>2026-03-29T12:15:44.864Z</time></trkpt><trkpt lat="45.0914263" lon="8.3873666"><ele>259.0</ele><time>2026-03-29T12:15:45.863Z</time></trkpt><trkpt lat="45.0915219" lon="8.3872913"><ele>259.0</ele><time>2026-03-29T12:15:46.863Z</time></trkpt><trkpt lat="45.091606" lon="8.38721"><ele>259.0</ele><time>2026-03-29T12:15:47.873Z</time></trkpt><trkpt lat="45.0916697" lon="8.3871212"><ele>259.0</ele><time>2026-03-29T12:15:48.866Z</time></trkpt><trkpt lat="45.0917081" lon="8.3870161"><ele>258.8</ele><time>2026-03-29T12:15:49.862Z</time></trkpt><trkpt lat="45.0917226" lon="8.3868907"><ele>258.59999999999997</ele><time>2026-03-29T12:15:50.868Z</time></trkpt><trkpt lat="45.091721" lon="8.3867533"><ele>258.4</ele><time>2026-03-29T12:15:51.867Z</time></trkpt><trkpt lat="45.0917065" lon="8.3866002"><ele>258.2</ele><time>2026-03-29T12:15:52.898Z</time></trkpt><trkpt lat="45.0916931" lon="8.3864357"><ele>258.0</ele><time>2026-03-29T12:15:53.861Z</time></trkpt><trkpt lat="45.0916827" lon="8.3862594"><ele>257.4</ele><time>2026-03-29T12:15:54.864Z</time></trkpt><trkpt lat="45.0916766" lon="8.3860874"><ele>256.8</ele><time>2026-03-29T12:15:55.874Z</time></trkpt><trkpt lat="45.0916785" lon="8.3859256"><ele>256.2</ele><time>2026-03-29T12:15:56.866Z</time></trkpt><trkpt lat="45.0916852" lon="8.3857822"><ele>255.6</ele><time>2026-03-29T12:15:57.862Z</time></trkpt><trkpt lat="45.0917043" lon="8.3856528"><ele>255.0</ele><time>2026-03-29T12:15:58.867Z</time></trkpt><trkpt lat="45.091739" lon="8.3855348"><ele>252.4</ele><time>2026-03-29T12:15:59.871Z</time></trkpt><trkpt lat="45.0918002" lon="8.3854303"><ele>249.8</ele><time>2026-03-29T12:16:00.868Z</time></trkpt><trkpt lat="45.0918713" lon="8.3853647"><ele>247.2</ele><time>2026-03-29T12:16:01.863Z</time></trkpt><trkpt lat="45.0919764" lon="8.3853407"><ele>244.6</ele><time>2026-03-29T12:16:02.863Z</time></trkpt><trkpt lat="45.0921051" lon="8.3853721"><ele>242.0</ele><time>2026-03-29T12:16:03.882Z</time></trkpt><trkpt lat="45.0922176" lon="8.3853853"><ele>242.0</ele><time>2026-03-29T12:16:04.866Z</time></trkpt><trkpt lat="45.0923251" lon="8.3853686"><ele>242.0</ele><time>2026-03-29T12:16:05.864Z</time></trkpt><trkpt lat="45.0924042" lon="8.3853135"><ele>242.0</ele><time>2026-03-29T12:16:06.863Z</time></trkpt><trkpt lat="45.0924602" lon="8.3851952"><ele>242.0</ele><time>2026-03-29T12:16:07.864Z</time></trkpt><trkpt lat="45.092495" lon="8.3850427"><ele>242.0</ele><time>2026-03-29T12:16:08.866Z</time></trkpt><trkpt lat="45.0925392" lon="8.384891"><ele>242.8</ele><time>2026-03-29T12:16:09.91Z</time></trkpt><trkpt lat="45.092607" lon="8.3847679"><ele>243.6</ele><time>2026-03-29T12:16:10.875Z</time></trkpt><trkpt lat="45.0926733" lon="8.3846622"><ele>244.40000000000003</ele><time>2026-03-29T12:16:11.863Z</time></trkpt><trkpt lat="45.0927457" lon="8.3845948"><ele>245.20000000000002</ele><time>2026-03-29T12:16:12.874Z</time></trkpt><trkpt lat="45.0928397" lon="8.3845494"><ele>246.0</ele><time>2026-03-29T12:16:13.864Z</time></trkpt><trkpt lat="45.0929439" lon="8.3845436"><ele>246.0</ele><time>2026-03-29T12:16:14.871Z</time></trkpt><trkpt lat="45.0930415" lon="8.3845671"><ele>246.0</ele><time>2026-03-29T12:16:15.867Z</time></trkpt><trkpt lat="45.0931414" lon="8.3846091"><ele>246.0</ele><time>2026-03-29T12:16:16.865Z</time></trkpt><trkpt lat="45.0932373" lon="8.3847088"><ele>246.0</ele><time>2026-03-29T12:16:17.866Z</time></trkpt><trkpt lat="45.0933351" lon="8.3848394"><ele>251.75</ele><time>2026-03-29T12:16:18.867Z</time></trkpt><trkpt lat="45.0934305" lon="8.3849647"><ele>257.5</ele><time>2026-03-29T12:16:19.864Z</time></trkpt><trkpt lat="45.0935265" lon="8.3850791"><ele>263.25</ele><time>2026-03-29T12:16:20.874Z</time></trkpt><trkpt lat="45.0936283" lon="8.3851617"><ele>269.0</ele><time>2026-03-29T12:16:21.864Z</time></trkpt><trkpt lat="45.0937304" lon="8.3852198"><ele>269.0</ele><time>2026-03-29T12:16:22.864Z</time></trkpt><trkpt lat="45.0938317" lon="8.3852336"><ele>269.0</ele><time>2026-03-29T12:16:23.865Z</time></trkpt><trkpt lat="45.0939384" lon="8.3851888"><ele>269.0</ele><time>2026-03-29T12:16:24.864Z</time></trkpt><trkpt lat="45.0940397" lon="8.3851446"><ele>269.0</ele><time>2026-03-29T12:16:25.87Z</time></trkpt><trkpt lat="45.0941387" lon="8.3851013"><ele>269.0</ele><time>2026-03-29T12:16:26.865Z</time></trkpt><trkpt lat="45.0942431" lon="8.3850347"><ele>267.25</ele><time>2026-03-29T12:16:27.862Z</time></trkpt><trkpt lat="45.094351" lon="8.3849624"><ele>265.5</ele><time>2026-03-29T12:16:28.866Z</time></trkpt><trkpt lat="45.0944604" lon="8.3848963"><ele>263.75</ele><time>2026-03-29T12:16:29.863Z</time></trkpt><trkpt lat="45.094565" lon="8.3848418"><ele>262.0</ele><time>2026-03-29T12:16:30.863Z</time></trkpt><trkpt lat="45.0946711" lon="8.3847954"><ele>262.0</ele><time>2026-03-29T12:16:31.865Z</time></trkpt><trkpt lat="45.0947815" lon="8.384747"><ele>262.0</ele><time>2026-03-29T12:16:32.868Z</time></trkpt><trkpt lat="45.0948956" lon="8.3847051"><ele>262.0</ele><time>2026-03-29T12:16:33.865Z</time></trkpt><trkpt lat="45.0950123" lon="8.3846559"><ele>262.0</ele><time>2026-03-29T12:16:34.872Z</time></trkpt><trkpt lat="45.0951256" lon="8.3846114"><ele>261.0</ele><time>2026-03-29T12:16:35.865Z</time></trkpt><trkpt lat="45.0952148" lon="8.3845715"><ele>260.0</ele><time>2026-03-29T12:16:36.868Z</time></trkpt><trkpt lat="45.0953037" lon="8.3845336"><ele>259.0</ele><time>2026-03-29T12:16:37.872Z</time></trkpt><trkpt lat="45.0953755" lon="8.3844949"><ele>258.0</ele><time>2026-03-29T12:16:38.877Z</time></trkpt><trkpt lat="45.0954496" lon="8.3844114"><ele>257.0</ele><time>2026-03-29T12:16:40.873Z</time></trkpt><trkpt lat="45.095517" lon="8.3845017"><ele>257.0</ele><time>2026-03-29T12:16:46.874Z</time></trkpt><trkpt lat="45.0955749" lon="8.3845992"><ele>257.0</ele><time>2026-03-29T12:16:48.877Z</time></trkpt><trkpt lat="45.0956411" lon="8.3846792"><ele>257.0</ele><time>2026-03-29T12:16:50.866Z</time></trkpt><trkpt lat="45.0957229" lon="8.3847923"><ele>257.0</ele><time>2026-03-29T12:16:52.865Z</time></trkpt><trkpt lat="45.0957617" lon="8.3848679"><ele>257.0</ele><time>2026-03-29T12:16:53.885Z</time></trkpt><trkpt lat="45.0958301" lon="8.3849979"><ele>257.8</ele><time>2026-03-29T12:16:55.868Z</time></trkpt><trkpt lat="45.0958849" lon="8.3851207"><ele>258.6</ele><time>2026-03-29T12:16:57.893Z</time></trkpt><trkpt lat="45.0959355" lon="8.3852406"><ele>259.40000000000003</ele><time>2026-03-29T12:16:59.871Z</time></trkpt><trkpt lat="45.0959911" lon="8.3853736"><ele>260.2</ele><time>2026-03-29T12:17:01.871Z</time></trkpt><trkpt lat="45.0960387" lon="8.3855186"><ele>261.0</ele><time>2026-03-29T12:17:03.899Z</time></trkpt><trkpt lat="45.0960763" lon="8.3856714"><ele>261.2</ele><time>2026-03-29T12:17:05.867Z</time></trkpt><trkpt lat="45.0961067" lon="8.3858105"><ele>261.40000000000003</ele><time>2026-03-29T12:17:07.861Z</time></trkpt><trkpt lat="45.096124" lon="8.3859495"><ele>261.6</ele><time>2026-03-29T12:17:09.865Z</time></trkpt><trkpt lat="45.0961301" lon="8.3860771"><ele>261.8</ele><time>2026-03-29T12:17:11.864Z</time></trkpt><trkpt lat="45.0961379" lon="8.3862189"><ele>262.0</ele><time>2026-03-29T12:17:13.9Z</time></trkpt><trkpt lat="45.0961645" lon="8.3863596"><ele>260.5</ele><time>2026-03-29T12:17:15.868Z</time></trkpt><trkpt lat="45.0961877" lon="8.3864856"><ele>259.0</ele><time>2026-03-29T12:17:17.869Z</time></trkpt><trkpt lat="45.0962226" lon="8.3865968"><ele>257.5</ele><time>2026-03-29T12:17:19.871Z</time></trkpt><trkpt lat="45.0962761" lon="8.3867303"><ele>256.0</ele><time>2026-03-29T12:17:21.87Z</time></trkpt><trkpt lat="45.0963123" lon="8.3868042"><ele>254.49999999999997</ele><time>2026-03-29T12:17:22.875Z</time></trkpt><trkpt lat="45.096351" lon="8.3868783"><ele>253.0</ele><time>2026-03-29T12:17:23.869Z</time></trkpt><trkpt lat="45.0963876" lon="8.3869522"><ele>253.0</ele><time>2026-03-29T12:17:24.872Z</time></trkpt><trkpt lat="45.0964557" lon="8.3870839"><ele>253.0</ele><time>2026-03-29T12:17:26.872Z</time></trkpt><trkpt lat="45.096521" lon="8.3871985"><ele>253.0</ele><time>2026-03-29T12:17:28.871Z</time></trkpt><trkpt lat="45.0965823" lon="8.3872765"><ele>253.0</ele><time>2026-03-29T12:17:30.866Z</time></trkpt><trkpt lat="45.0966557" lon="8.387329"><ele>253.0</ele><time>2026-03-29T12:17:32.872Z</time></trkpt><trkpt lat="45.0967531" lon="8.3873764"><ele>250.71428571428575</ele><time>2026-03-29T12:17:34.871Z</time></trkpt><trkpt lat="45.0968193" lon="8.3873989"><ele>248.42857142857144</ele><time>2026-03-29T12:17:35.875Z</time></trkpt><trkpt lat="45.0968889" lon="8.3874263"><ele>246.14285714285714</ele><time>2026-03-29T12:17:36.869Z</time></trkpt><trkpt lat="45.0969564" lon="8.3874521"><ele>243.85714285714286</ele><time>2026-03-29T12:17:37.862Z</time></trkpt><trkpt lat="45.0970241" lon="8.3874748"><ele>241.57142857142856</ele><time>2026-03-29T12:17:38.862Z</time></trkpt><trkpt lat="45.0970927" lon="8.3875007"><ele>239.28571428571425</ele><time>2026-03-29T12:17:39.874Z</time></trkpt><trkpt lat="45.0971615" lon="8.387533"><ele>236.99999999999997</ele><time>2026-03-29T12:17:40.868Z</time></trkpt><trkpt lat="45.0972289" lon="8.3875695"><ele>236.99999999999997</ele><time>2026-03-29T12:17:41.886Z</time></trkpt><trkpt lat="45.0972981" lon="8.38761"><ele>237.0</ele><time>2026-03-29T12:17:42.868Z</time></trkpt><trkpt lat="45.0973652" lon="8.3876481"><ele>236.99999999999997</ele><time>2026-03-29T12:17:43.876Z</time></trkpt><trkpt lat="45.0974337" lon="8.3876821"><ele>236.99999999999997</ele><time>2026-03-29T12:17:44.866Z</time></trkpt><trkpt lat="45.0975042" lon="8.3877113"><ele>237.0</ele><time>2026-03-29T12:17:45.894Z</time></trkpt><trkpt lat="45.0975789" lon="8.3877333"><ele>236.99999999999997</ele><time>2026-03-29T12:17:46.873Z</time></trkpt><trkpt lat="45.0976542" lon="8.3877512"><ele>236.99999999999997</ele><time>2026-03-29T12:17:47.898Z</time></trkpt><trkpt lat="45.0977317" lon="8.3877687"><ele>237.33333333333334</ele><time>2026-03-29T12:17:48.894Z</time></trkpt><trkpt lat="45.0978119" lon="8.3877826"><ele>237.66666666666669</ele><time>2026-03-29T12:17:49.866Z</time></trkpt><trkpt lat="45.0978928" lon="8.3877994"><ele>238.0</ele><time>2026-03-29T12:17:50.866Z</time></trkpt><trkpt lat="45.0979748" lon="8.3878213"><ele>238.33333333333334</ele><time>2026-03-29T12:17:51.869Z</time></trkpt><trkpt lat="45.0980599" lon="8.3878395"><ele>238.66666666666669</ele><time>2026-03-29T12:17:52.87Z</time></trkpt><trkpt lat="45.0981574" lon="8.3878511"><ele>239.0</ele><time>2026-03-29T12:17:53.904Z</time></trkpt><trkpt lat="45.0982567" lon="8.3878596"><ele>239.0</ele><time>2026-03-29T12:17:54.872Z</time></trkpt><trkpt lat="45.098351" lon="8.3878707"><ele>238.99999999999997</ele><time>2026-03-29T12:17:55.87Z</time></trkpt><trkpt lat="45.0984454" lon="8.3878867"><ele>238.99999999999997</ele><time>2026-03-29T12:17:56.875Z</time></trkpt><trkpt lat="45.0985378" lon="8.387905"><ele>239.0</ele><time>2026-03-29T12:17:57.875Z</time></trkpt><trkpt lat="45.0986262" lon="8.3879291"><ele>239.0</ele><time>2026-03-29T12:17:58.874Z</time></trkpt><trkpt lat="45.0987109" lon="8.3879548"><ele>239.00000000000003</ele><time>2026-03-29T12:17:59.872Z</time></trkpt><trkpt lat="45.0987903" lon="8.3879852"><ele>239.0</ele><time>2026-03-29T12:18:00.867Z</time></trkpt><trkpt lat="45.0988659" lon="8.3880134"><ele>239.0</ele><time>2026-03-29T12:18:01.872Z</time></trkpt><trkpt lat="45.0989369" lon="8.3880362"><ele>239.0</ele><time>2026-03-29T12:18:02.864Z</time></trkpt><trkpt lat="45.0990038" lon="8.3880532"><ele>239.00000000000003</ele><time>2026-03-29T12:18:03.864Z</time></trkpt><trkpt lat="45.0991239" lon="8.3880726"><ele>239.0</ele><time>2026-03-29T12:18:05.893Z</time></trkpt><trkpt lat="45.0992179" lon="8.3880735"><ele>238.6</ele><time>2026-03-29T12:18:07.868Z</time></trkpt><trkpt lat="45.0993502" lon="8.3880714"><ele>238.2</ele><time>2026-03-29T12:18:10.868Z</time></trkpt><trkpt lat="45.0994431" lon="8.3880641"><ele>237.79999999999998</ele><time>2026-03-29T12:18:12.87Z</time></trkpt><trkpt lat="45.0995397" lon="8.38804"><ele>237.39999999999998</ele><time>2026-03-29T12:18:14.875Z</time></trkpt><trkpt lat="45.0996417" lon="8.3880013"><ele>237.0</ele><time>2026-03-29T12:18:16.872Z</time></trkpt><trkpt lat="45.0997005" lon="8.387965"><ele>236.99999999999997</ele><time>2026-03-29T12:18:17.864Z</time></trkpt><trkpt lat="45.0997649" lon="8.3879222"><ele>237.0</ele><time>2026-03-29T12:18:18.867Z</time></trkpt><trkpt lat="45.0998328" lon="8.3878805"><ele>236.99999999999997</ele><time>2026-03-29T12:18:19.874Z</time></trkpt><trkpt lat="45.0999084" lon="8.387841"><ele>236.99999999999997</ele><time>2026-03-29T12:18:20.87Z</time></trkpt><trkpt lat="45.0999827" lon="8.3878056"><ele>237.0</ele><time>2026-03-29T12:18:21.865Z</time></trkpt><trkpt lat="45.10005" lon="8.3877774"><ele>236.99999999999997</ele><time>2026-03-29T12:18:22.87Z</time></trkpt><trkpt lat="45.1001133" lon="8.3877535"><ele>236.99999999999997</ele><time>2026-03-29T12:18:23.857Z</time></trkpt><trkpt lat="45.1002223" lon="8.3877196"><ele>236.6</ele><time>2026-03-29T12:18:25.885Z</time></trkpt><trkpt lat="45.1003218" lon="8.387691"><ele>236.2</ele><time>2026-03-29T12:18:27.878Z</time></trkpt><trkpt lat="45.1004128" lon="8.3876723"><ele>235.8</ele><time>2026-03-29T12:18:29.885Z</time></trkpt><trkpt lat="45.1004818" lon="8.3876172"><ele>235.4</ele><time>2026-03-29T12:18:33.876Z</time></trkpt><trkpt lat="45.1005595" lon="8.3875589"><ele>235.0</ele><time>2026-03-29T12:18:55.885Z</time></trkpt><trkpt lat="45.1006653" lon="8.3875157"><ele>235.0</ele><time>2026-03-29T12:18:57.868Z</time></trkpt><trkpt lat="45.1007796" lon="8.3874649"><ele>235.0</ele><time>2026-03-29T12:18:59.895Z</time></trkpt><trkpt lat="45.1008937" lon="8.3873784"><ele>235.0</ele><time>2026-03-29T12:19:01.868Z</time></trkpt><trkpt lat="45.1009486" lon="8.3873171"><ele>235.0</ele><time>2026-03-29T12:19:02.865Z</time></trkpt><trkpt lat="45.1010472" lon="8.3871924"><ele>234.33333333333331</ele><time>2026-03-29T12:19:04.868Z</time></trkpt><trkpt lat="45.1011127" lon="8.3871221"><ele>233.66666666666666</ele><time>2026-03-29T12:19:05.879Z</time></trkpt><trkpt lat="45.1011833" lon="8.3870453"><ele>233.0</ele><time>2026-03-29T12:19:06.861Z</time></trkpt><trkpt lat="45.1012437" lon="8.386974"><ele>232.33333333333331</ele><time>2026-03-29T12:19:07.869Z</time></trkpt><trkpt lat="45.1013111" lon="8.3868996"><ele>231.66666666666666</ele><time>2026-03-29T12:19:08.868Z</time></trkpt><trkpt lat="45.1013668" lon="8.3868476"><ele>231.0</ele><time>2026-03-29T12:19:09.862Z</time></trkpt><trkpt lat="45.101442" lon="8.3867803"><ele>231.0</ele><time>2026-03-29T12:19:10.861Z</time></trkpt><trkpt lat="45.1015152" lon="8.386711"><ele>231.00000000000003</ele><time>2026-03-29T12:19:11.867Z</time></trkpt><trkpt lat="45.1015789" lon="8.3866536"><ele>231.00000000000003</ele><time>2026-03-29T12:19:12.867Z</time></trkpt><trkpt lat="45.1016559" lon="8.3865702"><ele>231.0</ele><time>2026-03-29T12:19:14.872Z</time></trkpt><trkpt lat="45.1017601" lon="8.3864211"><ele>231.0</ele><time>2026-03-29T12:19:16.865Z</time></trkpt><trkpt lat="45.1018032" lon="8.3863447"><ele>233.16666666666666</ele><time>2026-03-29T12:19:17.871Z</time></trkpt><trkpt lat="45.101851" lon="8.3862629"><ele>235.33333333333331</ele><time>2026-03-29T12:19:18.867Z</time></trkpt><trkpt lat="45.1019068" lon="8.3861744"><ele>237.5</ele><time>2026-03-29T12:19:19.877Z</time></trkpt><trkpt lat="45.1019559" lon="8.3860954"><ele>239.66666666666666</ele><time>2026-03-29T12:19:20.867Z</time></trkpt><trkpt lat="45.1020013" lon="8.3860286"><ele>241.83333333333331</ele><time>2026-03-29T12:19:21.868Z</time></trkpt><trkpt lat="45.1021001" lon="8.385909"><ele>244.0</ele><time>2026-03-29T12:19:23.862Z</time></trkpt><trkpt lat="45.1021593" lon="8.3858434"><ele>243.99999999999997</ele><time>2026-03-29T12:19:24.865Z</time></trkpt><trkpt lat="45.1022121" lon="8.3857806"><ele>244.0</ele><time>2026-03-29T12:19:25.867Z</time></trkpt><trkpt lat="45.1022634" lon="8.3857162"><ele>244.0</ele><time>2026-03-29T12:19:26.866Z</time></trkpt><trkpt lat="45.1023226" lon="8.3856602"><ele>244.0</ele><time>2026-03-29T12:19:27.864Z</time></trkpt><trkpt lat="45.1024197" lon="8.3855695"><ele>243.99999999999997</ele><time>2026-03-29T12:19:29.879Z</time></trkpt><trkpt lat="45.1025126" lon="8.3854874"><ele>244.0</ele><time>2026-03-29T12:19:31.864Z</time></trkpt><trkpt lat="45.1025974" lon="8.3854151"><ele>242.99999999999997</ele><time>2026-03-29T12:19:33.864Z</time></trkpt><trkpt lat="45.1026525" lon="8.3853715"><ele>242.0</ele><time>2026-03-29T12:19:34.863Z</time></trkpt><trkpt lat="45.1027404" lon="8.3853013"><ele>241.0</ele><time>2026-03-29T12:19:36.863Z</time></trkpt><trkpt lat="45.1028307" lon="8.3852214"><ele>240.0</ele><time>2026-03-29T12:19:38.893Z</time></trkpt><trkpt lat="45.1029233" lon="8.3851455"><ele>238.99999999999997</ele><time>2026-03-29T12:19:40.862Z</time></trkpt><trkpt lat="45.1029818" lon="8.3851054"><ele>238.0</ele><time>2026-03-29T12:19:42.868Z</time></trkpt><trkpt lat="45.1030916" lon="8.3850762"><ele>237.99999999999997</ele><time>2026-03-29T12:19:46.868Z</time></trkpt><trkpt lat="45.1030116" lon="8.3851126"><ele>238.0</ele><time>2026-03-29T12:20:02.865Z</time></trkpt><trkpt lat="45.102887" lon="8.3851986"><ele>238.0</ele><time>2026-03-29T12:20:04.862Z</time></trkpt><trkpt lat="45.1028278" lon="8.3852473"><ele>238.0</ele><time>2026-03-29T12:20:05.863Z</time></trkpt><trkpt lat="45.1027508" lon="8.3853011"><ele>237.99999999999997</ele><time>2026-03-29T12:20:06.87Z</time></trkpt><trkpt lat="45.1026856" lon="8.3853453"><ele>238.0</ele><time>2026-03-29T12:20:07.864Z</time></trkpt><trkpt lat="45.1026169" lon="8.3853891"><ele>238.0</ele><time>2026-03-29T12:20:08.869Z</time></trkpt><trkpt lat="45.1025034" lon="8.3854787"><ele>238.0</ele><time>2026-03-29T12:20:10.874Z</time></trkpt><trkpt lat="45.1024438" lon="8.3855344"><ele>238.0</ele><time>2026-03-29T12:20:11.893Z</time></trkpt><trkpt lat="45.1023431" lon="8.3856415"><ele>238.0</ele><time>2026-03-29T12:20:13.879Z</time></trkpt><trkpt lat="45.1022783" lon="8.3857016"><ele>238.0</ele><time>2026-03-29T12:20:14.863Z</time></trkpt><trkpt lat="45.102223" lon="8.3857588"><ele>239.2</ele><time>2026-03-29T12:20:15.866Z</time></trkpt><trkpt lat="45.1021131" lon="8.3858794"><ele>240.4</ele><time>2026-03-29T12:20:17.866Z</time></trkpt><trkpt lat="45.1020338" lon="8.3859846"><ele>241.59999999999997</ele><time>2026-03-29T12:20:19.879Z</time></trkpt><trkpt lat="45.1019669" lon="8.386103"><ele>242.79999999999998</ele><time>2026-03-29T12:20:21.876Z</time></trkpt><trkpt lat="45.1019166" lon="8.3861804"><ele>244.0</ele><time>2026-03-29T12:20:22.896Z</time></trkpt><trkpt lat="45.1018317" lon="8.3863218"><ele>243.33333333333331</ele><time>2026-03-29T12:20:24.862Z</time></trkpt><trkpt lat="45.1017869" lon="8.3863919"><ele>242.66666666666666</ele><time>2026-03-29T12:20:25.893Z</time></trkpt><trkpt lat="45.1017392" lon="8.3864695"><ele>242.0</ele><time>2026-03-29T12:20:26.866Z</time></trkpt><trkpt lat="45.1016586" lon="8.3865593"><ele>241.33333333333331</ele><time>2026-03-29T12:20:28.86Z</time></trkpt><trkpt lat="45.1016045" lon="8.3866081"><ele>240.66666666666666</ele><time>2026-03-29T12:20:29.862Z</time></trkpt><trkpt lat="45.1014878" lon="8.3867048"><ele>240.0</ele><time>2026-03-29T12:20:31.861Z</time></trkpt><trkpt lat="45.1014168" lon="8.3867684"><ele>239.16666666666666</ele><time>2026-03-29T12:20:32.864Z</time></trkpt><trkpt lat="45.1013592" lon="8.3868243"><ele>238.33333333333331</ele><time>2026-03-29T12:20:33.863Z</time></trkpt><trkpt lat="45.1012919" lon="8.3868929"><ele>237.5</ele><time>2026-03-29T12:20:34.865Z</time></trkpt><trkpt lat="45.1012314" lon="8.3869621"><ele>236.66666666666666</ele><time>2026-03-29T12:20:35.877Z</time></trkpt><trkpt lat="45.1011709" lon="8.3870348"><ele>235.83333333333331</ele><time>2026-03-29T12:20:36.864Z</time></trkpt><trkpt lat="45.1011036" lon="8.3871111"><ele>235.0</ele><time>2026-03-29T12:20:37.88Z</time></trkpt><trkpt lat="45.1010312" lon="8.3871859"><ele>234.99999999999997</ele><time>2026-03-29T12:20:38.867Z</time></trkpt><trkpt lat="45.100977" lon="8.3872422"><ele>235.0</ele><time>2026-03-29T12:20:39.898Z</time></trkpt><trkpt lat="45.1008967" lon="8.3873103"><ele>235.0</ele><time>2026-03-29T12:20:40.866Z</time></trkpt><trkpt lat="45.1008087" lon="8.3873718"><ele>235.0</ele><time>2026-03-29T12:20:41.862Z</time></trkpt><trkpt lat="45.1007377" lon="8.3874076"><ele>234.99999999999997</ele><time>2026-03-29T12:20:42.873Z</time></trkpt><trkpt lat="45.1006383" lon="8.3874426"><ele>235.0</ele><time>2026-03-29T12:20:44.87Z</time></trkpt><trkpt lat="45.1005176" lon="8.3874797"><ele>234.99999999999997</ele><time>2026-03-29T12:20:46.863Z</time></trkpt><trkpt lat="45.1004401" lon="8.3875053"><ele>235.0</ele><time>2026-03-29T12:20:48.876Z</time></trkpt><trkpt lat="45.1003953" lon="8.3873559"><ele>235.0</ele><time>2026-03-29T12:20:52.88Z</time></trkpt><trkpt lat="45.1003567" lon="8.3872831"><ele>235.0</ele><time>2026-03-29T12:20:53.87Z</time></trkpt><trkpt lat="45.1003262" lon="8.3871956"><ele>234.99999999999997</ele><time>2026-03-29T12:20:54.865Z</time></trkpt><trkpt lat="45.1002894" lon="8.3871042"><ele>235.0</ele><time>2026-03-29T12:20:55.885Z</time></trkpt><trkpt lat="45.1002467" lon="8.3870129"><ele>233.16666666666666</ele><time>2026-03-29T12:20:56.875Z</time></trkpt><trkpt lat="45.100197" lon="8.3869144"><ele>231.33333333333331</ele><time>2026-03-29T12:20:57.874Z</time></trkpt><trkpt lat="45.1001548" lon="8.3868187"><ele>229.5</ele><time>2026-03-29T12:20:58.873Z</time></trkpt><trkpt lat="45.1001217" lon="8.3867318"><ele>227.66666666666669</ele><time>2026-03-29T12:20:59.868Z</time></trkpt><trkpt lat="45.1000855" lon="8.3866498"><ele>225.83333333333334</ele><time>2026-03-29T12:21:00.863Z</time></trkpt><trkpt lat="45.1000472" lon="8.386569"><ele>224.0</ele><time>2026-03-29T12:21:01.87Z</time></trkpt><trkpt lat="45.0999902" lon="8.3864448"><ele>224.00000000000003</ele><time>2026-03-29T12:21:02.866Z</time></trkpt><trkpt lat="45.0999521" lon="8.3863496"><ele>224.0</ele><time>2026-03-29T12:21:03.863Z</time></trkpt><trkpt lat="45.0999087" lon="8.3862479"><ele>224.0</ele><time>2026-03-29T12:21:04.879Z</time></trkpt><trkpt lat="45.0998647" lon="8.3861489"><ele>224.0</ele><time>2026-03-29T12:21:05.9Z</time></trkpt><trkpt lat="45.0998226" lon="8.3860533"><ele>224.00000000000003</ele><time>2026-03-29T12:21:06.886Z</time></trkpt><trkpt lat="45.0997729" lon="8.3859509"><ele>224.0</ele><time>2026-03-29T12:21:07.868Z</time></trkpt><trkpt lat="45.0997033" lon="8.3858141"><ele>222.66666666666669</ele><time>2026-03-29T12:21:09.867Z</time></trkpt><trkpt lat="45.0996701" lon="8.3857256"><ele>221.33333333333334</ele><time>2026-03-29T12:21:10.871Z</time></trkpt><trkpt lat="45.0996402" lon="8.3855866"><ele>220.0</ele><time>2026-03-29T12:21:13.875Z</time></trkpt><trkpt lat="45.0995987" lon="8.3854847"><ele>218.66666666666669</ele><time>2026-03-29T12:21:15.868Z</time></trkpt><trkpt lat="45.0996832" lon="8.3854422"><ele>217.33333333333334</ele><time>2026-03-29T12:21:19.866Z</time></trkpt><trkpt lat="45.0997543" lon="8.3854089"><ele>216.0</ele><time>2026-03-29T12:21:21.87Z</time></trkpt><trkpt lat="45.0998291" lon="8.3853287"><ele>214.8</ele><time>2026-03-29T12:21:22.906Z</time></trkpt><trkpt lat="45.0999079" lon="8.3852332"><ele>213.60000000000002</ele><time>2026-03-29T12:21:23.902Z</time></trkpt><trkpt lat="45.0999769" lon="8.3851511"><ele>212.4</ele><time>2026-03-29T12:21:24.863Z</time></trkpt><trkpt lat="45.100057" lon="8.3850484"><ele>211.2</ele><time>2026-03-29T12:21:25.871Z</time></trkpt><trkpt lat="45.1001275" lon="8.3849507"><ele>210.0</ele><time>2026-03-29T12:21:26.901Z</time></trkpt><trkpt lat="45.1002092" lon="8.3848552"><ele>209.83333333333334</ele><time>2026-03-29T12:21:27.872Z</time></trkpt><trkpt lat="45.1002898" lon="8.3847631"><ele>209.66666666666669</ele><time>2026-03-29T12:21:28.869Z</time></trkpt><trkpt lat="45.1003438" lon="8.3847038"><ele>209.5</ele><time>2026-03-29T12:21:29.87Z</time></trkpt><trkpt lat="45.1003969" lon="8.3846317"><ele>209.33333333333334</ele><time>2026-03-29T12:21:30.866Z</time></trkpt><trkpt lat="45.1004699" lon="8.3845363"><ele>209.16666666666669</ele><time>2026-03-29T12:21:31.874Z</time></trkpt><trkpt lat="45.1005437" lon="8.3844341"><ele>209.0</ele><time>2026-03-29T12:21:32.869Z</time></trkpt><trkpt lat="45.1006132" lon="8.3843414"><ele>208.5</ele><time>2026-03-29T12:21:33.907Z</time></trkpt><trkpt lat="45.1006975" lon="8.384225"><ele>208.0</ele><time>2026-03-29T12:21:34.87Z</time></trkpt><trkpt lat="45.1008053" lon="8.3840804"><ele>207.5</ele><time>2026-03-29T12:21:35.871Z</time></trkpt><trkpt lat="45.1009031" lon="8.3839432"><ele>207.0</ele><time>2026-03-29T12:21:36.871Z</time></trkpt><trkpt lat="45.1010069" lon="8.3838044"><ele>204.33333333333331</ele><time>2026-03-29T12:21:37.873Z</time></trkpt><trkpt lat="45.101119" lon="8.3836583"><ele>201.66666666666666</ele><time>2026-03-29T12:21:38.889Z</time></trkpt><trkpt lat="45.1012305" lon="8.3835052"><ele>199.0</ele><time>2026-03-29T12:21:39.882Z</time></trkpt><trkpt lat="45.1013391" lon="8.38335"><ele>199.0</ele><time>2026-03-29T12:21:40.87Z</time></trkpt><trkpt lat="45.1014461" lon="8.3831925"><ele>199.0</ele><time>2026-03-29T12:21:41.893Z</time></trkpt><trkpt lat="45.1015532" lon="8.383036"><ele>199.0</ele><time>2026-03-29T12:21:42.883Z</time></trkpt><trkpt lat="45.1016536" lon="8.3828854"><ele>199.0</ele><time>2026-03-29T12:21:43.865Z</time></trkpt><trkpt lat="45.101763" lon="8.3827258"><ele>199.0</ele><time>2026-03-29T12:21:44.878Z</time></trkpt><trkpt lat="45.1018583" lon="8.3825689"><ele>199.0</ele><time>2026-03-29T12:21:45.87Z</time></trkpt><trkpt lat="45.1019597" lon="8.382414"><ele>199.0</ele><time>2026-03-29T12:21:46.868Z</time></trkpt><trkpt lat="45.102055" lon="8.3822734"><ele>199.0</ele><time>2026-03-29T12:21:47.864Z</time></trkpt><trkpt lat="45.1021426" lon="8.3821629"><ele>199.0</ele><time>2026-03-29T12:21:48.879Z</time></trkpt><trkpt lat="45.102234" lon="8.3820905"><ele>199.0</ele><time>2026-03-29T12:21:49.866Z</time></trkpt><trkpt lat="45.102347" lon="8.3820304"><ele>197.75</ele><time>2026-03-29T12:21:50.881Z</time></trkpt><trkpt lat="45.1024679" lon="8.3819771"><ele>196.5</ele><time>2026-03-29T12:21:51.87Z</time></trkpt><trkpt lat="45.1026151" lon="8.3818869"><ele>195.25</ele><time>2026-03-29T12:21:52.888Z</time></trkpt><trkpt lat="45.1027557" lon="8.381805"><ele>194.0</ele><time>2026-03-29T12:21:53.872Z</time></trkpt><trkpt lat="45.1028899" lon="8.3817085"><ele>194.0</ele><time>2026-03-29T12:21:54.889Z</time></trkpt><trkpt lat="45.1030331" lon="8.3815913"><ele>194.0</ele><time>2026-03-29T12:21:55.877Z</time></trkpt><trkpt lat="45.1031904" lon="8.3814492"><ele>194.0</ele><time>2026-03-29T12:21:56.886Z</time></trkpt><trkpt lat="45.103336" lon="8.3812913"><ele>192.0</ele><time>2026-03-29T12:21:57.896Z</time></trkpt><trkpt lat="45.1034546" lon="8.3811433"><ele>190.0</ele><time>2026-03-29T12:21:58.867Z</time></trkpt><trkpt lat="45.103574" lon="8.3809903"><ele>188.0</ele><time>2026-03-29T12:21:59.871Z</time></trkpt><trkpt lat="45.1036875" lon="8.3808315"><ele>188.0</ele><time>2026-03-29T12:22:00.871Z</time></trkpt><trkpt lat="45.1038151" lon="8.3806649"><ele>188.0</ele><time>2026-03-29T12:22:01.911Z</time></trkpt><trkpt lat="45.1039351" lon="8.3805193"><ele>188.0</ele><time>2026-03-29T12:22:02.866Z</time></trkpt><trkpt lat="45.1040575" lon="8.3803673"><ele>187.33333333333331</ele><time>2026-03-29T12:22:03.864Z</time></trkpt><trkpt lat="45.1041715" lon="8.3802266"><ele>186.66666666666666</ele><time>2026-03-29T12:22:04.868Z</time></trkpt><trkpt lat="45.1042932" lon="8.380083"><ele>186.0</ele><time>2026-03-29T12:22:05.871Z</time></trkpt><trkpt lat="45.1044144" lon="8.3799515"><ele>186.0</ele><time>2026-03-29T12:22:06.869Z</time></trkpt><trkpt lat="45.1045341" lon="8.3798458"><ele>186.0</ele><time>2026-03-29T12:22:07.865Z</time></trkpt><trkpt lat="45.1046785" lon="8.3797453"><ele>186.0</ele><time>2026-03-29T12:22:08.878Z</time></trkpt><trkpt lat="45.1048376" lon="8.3796451"><ele>184.75</ele><time>2026-03-29T12:22:09.871Z</time></trkpt><trkpt lat="45.1049853" lon="8.3795476"><ele>183.5</ele><time>2026-03-29T12:22:10.873Z</time></trkpt><trkpt lat="45.1051032" lon="8.3794706"><ele>182.25</ele><time>2026-03-29T12:22:11.866Z</time></trkpt><trkpt lat="45.1052412" lon="8.3793661"><ele>181.0</ele><time>2026-03-29T12:22:12.873Z</time></trkpt><trkpt lat="45.1053915" lon="8.3792417"><ele>181.0</ele><time>2026-03-29T12:22:13.873Z</time></trkpt><trkpt lat="45.1055406" lon="8.3790957"><ele>181.0</ele><time>2026-03-29T12:22:14.867Z</time></trkpt><trkpt lat="45.10566" lon="8.3789608"><ele>181.0</ele><time>2026-03-29T12:22:15.869Z</time></trkpt><trkpt lat="45.1057566" lon="8.3788423"><ele>181.5</ele><time>2026-03-29T12:22:16.871Z</time></trkpt><trkpt lat="45.1058555" lon="8.3787245"><ele>182.0</ele><time>2026-03-29T12:22:17.867Z</time></trkpt><trkpt lat="45.1059668" lon="8.3785965"><ele>182.5</ele><time>2026-03-29T12:22:18.867Z</time></trkpt><trkpt lat="45.106055" lon="8.3784857"><ele>183.0</ele><time>2026-03-29T12:22:19.873Z</time></trkpt><trkpt lat="45.1061753" lon="8.3783662"><ele>183.0</ele><time>2026-03-29T12:22:20.872Z</time></trkpt><trkpt lat="45.1063154" lon="8.3782623"><ele>183.0</ele><time>2026-03-29T12:22:21.865Z</time></trkpt><trkpt lat="45.1064034" lon="8.3782685"><ele>183.0</ele><time>2026-03-29T12:22:23.868Z</time></trkpt><trkpt lat="45.1064756" lon="8.3782705"><ele>183.0</ele><time>2026-03-29T12:22:24.867Z</time></trkpt><trkpt lat="45.1066113" lon="8.3783157"><ele>184.5</ele><time>2026-03-29T12:22:25.868Z</time></trkpt><trkpt lat="45.106718" lon="8.3783826"><ele>186.0</ele><time>2026-03-29T12:22:26.87Z</time></trkpt><trkpt lat="45.1068109" lon="8.3784483"><ele>187.5</ele><time>2026-03-29T12:22:27.867Z</time></trkpt><trkpt lat="45.1069028" lon="8.3784848"><ele>189.0</ele><time>2026-03-29T12:22:28.864Z</time></trkpt><trkpt lat="45.1070458" lon="8.3785351"><ele>189.0</ele><time>2026-03-29T12:22:30.868Z</time></trkpt><trkpt lat="45.1071752" lon="8.3785294"><ele>189.0</ele><time>2026-03-29T12:22:34.876Z</time></trkpt><trkpt lat="45.1072481" lon="8.3784964"><ele>189.0</ele><time>2026-03-29T12:22:35.896Z</time></trkpt><trkpt lat="45.1072209" lon="8.3783841"><ele>189.0</ele><time>2026-03-29T12:22:37.864Z</time></trkpt><trkpt lat="45.1071713" lon="8.3782244"><ele>189.0</ele><time>2026-03-29T12:22:39.872Z</time></trkpt><trkpt lat="45.1071399" lon="8.3780959"><ele>186.75</ele><time>2026-03-29T12:22:40.867Z</time></trkpt><trkpt lat="45.1071023" lon="8.3779483"><ele>184.5</ele><time>2026-03-29T12:22:41.876Z</time></trkpt><trkpt lat="45.1070682" lon="8.3777666"><ele>182.25</ele><time>2026-03-29T12:22:42.86Z</time></trkpt><trkpt lat="45.1070505" lon="8.3775309"><ele>180.0</ele><time>2026-03-29T12:22:43.886Z</time></trkpt><trkpt lat="45.1070344" lon="8.3773339"><ele>179.25</ele><time>2026-03-29T12:22:44.87Z</time></trkpt><trkpt lat="45.1070303" lon="8.377129"><ele>178.5</ele><time>2026-03-29T12:22:45.885Z</time></trkpt><trkpt lat="45.1070358" lon="8.3769375"><ele>177.75</ele><time>2026-03-29T12:22:46.875Z</time></trkpt><trkpt lat="45.1070461" lon="8.3767309"><ele>177.0</ele><time>2026-03-29T12:22:47.869Z</time></trkpt><trkpt lat="45.1070615" lon="8.3765536"><ele>177.0</ele><time>2026-03-29T12:22:48.872Z</time></trkpt><trkpt lat="45.1070712" lon="8.3763635"><ele>177.0</ele><time>2026-03-29T12:22:49.867Z</time></trkpt><trkpt lat="45.1070797" lon="8.3761742"><ele>177.0</ele><time>2026-03-29T12:22:50.879Z</time></trkpt><trkpt lat="45.1070858" lon="8.3759918"><ele>177.0</ele><time>2026-03-29T12:22:51.879Z</time></trkpt><trkpt lat="45.1070924" lon="8.3758153"><ele>177.0</ele><time>2026-03-29T12:22:52.915Z</time></trkpt><trkpt lat="45.1070982" lon="8.3756396"><ele>177.0</ele><time>2026-03-29T12:22:53.866Z</time></trkpt><trkpt lat="45.1071023" lon="8.3754662"><ele>177.0</ele><time>2026-03-29T12:22:54.867Z</time></trkpt><trkpt lat="45.1071066" lon="8.3752963"><ele>177.0</ele><time>2026-03-29T12:22:55.867Z</time></trkpt><trkpt lat="45.1071088" lon="8.3751197"><ele>177.0</ele><time>2026-03-29T12:22:56.864Z</time></trkpt><trkpt lat="45.1071118" lon="8.3749607"><ele>177.0</ele><time>2026-03-29T12:22:57.884Z</time></trkpt><trkpt lat="45.1071152" lon="8.3748027"><ele>177.0</ele><time>2026-03-29T12:22:58.873Z</time></trkpt><trkpt lat="45.1071173" lon="8.3746368"><ele>177.0</ele><time>2026-03-29T12:22:59.88Z</time></trkpt><trkpt lat="45.1071213" lon="8.3744958"><ele>177.0</ele><time>2026-03-29T12:23:00.871Z</time></trkpt><trkpt lat="45.1071255" lon="8.3743185"><ele>177.75</ele><time>2026-03-29T12:23:01.869Z</time></trkpt><trkpt lat="45.1071298" lon="8.3741515"><ele>178.5</ele><time>2026-03-29T12:23:02.867Z</time></trkpt><trkpt lat="45.107134" lon="8.3739754"><ele>179.25</ele><time>2026-03-29T12:23:03.871Z</time></trkpt><trkpt lat="45.1071381" lon="8.3738074"><ele>180.0</ele><time>2026-03-29T12:23:04.878Z</time></trkpt><trkpt lat="45.1071417" lon="8.3736331"><ele>179.75</ele><time>2026-03-29T12:23:05.872Z</time></trkpt><trkpt lat="45.1071454" lon="8.373459"><ele>179.5</ele><time>2026-03-29T12:23:06.868Z</time></trkpt><trkpt lat="45.1071496" lon="8.3732879"><ele>179.25</ele><time>2026-03-29T12:23:07.865Z</time></trkpt><trkpt lat="45.1071537" lon="8.3731141"><ele>179.0</ele><time>2026-03-29T12:23:08.865Z</time></trkpt><trkpt lat="45.1071577" lon="8.372931"><ele>179.0</ele><time>2026-03-29T12:23:09.865Z</time></trkpt><trkpt lat="45.1071628" lon="8.3727522"><ele>179.0</ele><time>2026-03-29T12:23:10.868Z</time></trkpt><trkpt lat="45.1071679" lon="8.3725685"><ele>179.0</ele><time>2026-03-29T12:23:11.872Z</time></trkpt><trkpt lat="45.107174" lon="8.3723853"><ele>179.0</ele><time>2026-03-29T12:23:12.865Z</time></trkpt><trkpt lat="45.1071792" lon="8.3722022"><ele>177.5</ele><time>2026-03-29T12:23:13.866Z</time></trkpt><trkpt lat="45.107187" lon="8.3720205"><ele>176.0</ele><time>2026-03-29T12:23:14.871Z</time></trkpt><trkpt lat="45.1071905" lon="8.3718439"><ele>174.5</ele><time>2026-03-29T12:23:15.877Z</time></trkpt><trkpt lat="45.1071953" lon="8.3716685"><ele>173.0</ele><time>2026-03-29T12:23:16.868Z</time></trkpt><trkpt lat="45.1072012" lon="8.3714979"><ele>172.5</ele><time>2026-03-29T12:23:17.872Z</time></trkpt><trkpt lat="45.1072077" lon="8.3713194"><ele>172.0</ele><time>2026-03-29T12:23:18.898Z</time></trkpt><trkpt lat="45.1072131" lon="8.3711422"><ele>171.5</ele><time>2026-03-29T12:23:19.877Z</time></trkpt><trkpt lat="45.1072159" lon="8.3709708"><ele>171.0</ele><time>2026-03-29T12:23:20.871Z</time></trkpt><trkpt lat="45.1072206" lon="8.3707927"><ele>171.0</ele><time>2026-03-29T12:23:21.882Z</time></trkpt><trkpt lat="45.107226" lon="8.3706205"><ele>171.0</ele><time>2026-03-29T12:23:22.877Z</time></trkpt><trkpt lat="45.1072307" lon="8.3704343"><ele>171.0</ele><time>2026-03-29T12:23:23.896Z</time></trkpt><trkpt lat="45.1072347" lon="8.3702614"><ele>171.0</ele><time>2026-03-29T12:23:24.871Z</time></trkpt><trkpt lat="45.1072396" lon="8.3700773"><ele>171.75</ele><time>2026-03-29T12:23:25.897Z</time></trkpt><trkpt lat="45.1072448" lon="8.369907"><ele>172.5</ele><time>2026-03-29T12:23:26.868Z</time></trkpt><trkpt lat="45.107249" lon="8.3697341"><ele>173.25</ele><time>2026-03-29T12:23:27.868Z</time></trkpt><trkpt lat="45.1072528" lon="8.3695637"><ele>174.0</ele><time>2026-03-29T12:23:28.868Z</time></trkpt><trkpt lat="45.1072555" lon="8.3693963"><ele>175.5</ele><time>2026-03-29T12:23:29.881Z</time></trkpt><trkpt lat="45.1072583" lon="8.3692331"><ele>177.0</ele><time>2026-03-29T12:23:30.889Z</time></trkpt><trkpt lat="45.1072627" lon="8.369064"><ele>178.5</ele><time>2026-03-29T12:23:31.86Z</time></trkpt><trkpt lat="45.1072674" lon="8.3688913"><ele>180.0</ele><time>2026-03-29T12:23:32.87Z</time></trkpt><trkpt lat="45.1072725" lon="8.3687203"><ele>180.0</ele><time>2026-03-29T12:23:33.866Z</time></trkpt><trkpt lat="45.1072773" lon="8.3685548"><ele>180.0</ele><time>2026-03-29T12:23:34.86Z</time></trkpt><trkpt lat="45.1072813" lon="8.3683845"><ele>180.0</ele><time>2026-03-29T12:23:35.876Z</time></trkpt><trkpt lat="45.107283" lon="8.3682244"><ele>180.0</ele><time>2026-03-29T12:23:36.865Z</time></trkpt><trkpt lat="45.1072886" lon="8.3680626"><ele>179.25</ele><time>2026-03-29T12:23:37.867Z</time></trkpt><trkpt lat="45.107294" lon="8.3678931"><ele>178.5</ele><time>2026-03-29T12:23:38.882Z</time></trkpt><trkpt lat="45.1072984" lon="8.3677295"><ele>177.75</ele><time>2026-03-29T12:23:39.87Z</time></trkpt><trkpt lat="45.1073033" lon="8.3675643"><ele>177.0</ele><time>2026-03-29T12:23:40.88Z</time></trkpt><trkpt lat="45.1073073" lon="8.3673967"><ele>177.0</ele><time>2026-03-29T12:23:41.87Z</time></trkpt><trkpt lat="45.1073116" lon="8.3672271"><ele>177.0</ele><time>2026-03-29T12:23:42.894Z</time></trkpt><trkpt lat="45.1073151" lon="8.3670564"><ele>177.0</ele><time>2026-03-29T12:23:43.895Z</time></trkpt><trkpt lat="45.1073182" lon="8.36689"><ele>177.0</ele><time>2026-03-29T12:23:44.869Z</time></trkpt><trkpt lat="45.1073201" lon="8.3667341"><ele>175.6</ele><time>2026-03-29T12:23:45.869Z</time></trkpt><trkpt lat="45.1073224" lon="8.3665812"><ele>174.2</ele><time>2026-03-29T12:23:46.889Z</time></trkpt><trkpt lat="45.1073245" lon="8.3664381"><ele>172.8</ele><time>2026-03-29T12:23:47.87Z</time></trkpt><trkpt lat="45.1073264" lon="8.3662907"><ele>171.4</ele><time>2026-03-29T12:23:48.871Z</time></trkpt><trkpt lat="45.1073297" lon="8.3661441"><ele>170.0</ele><time>2026-03-29T12:23:49.868Z</time></trkpt><trkpt lat="45.1073329" lon="8.3659856"><ele>168.25</ele><time>2026-03-29T12:23:50.868Z</time></trkpt><trkpt lat="45.1073349" lon="8.3658214"><ele>166.5</ele><time>2026-03-29T12:23:51.867Z</time></trkpt><trkpt lat="45.1073367" lon="8.3656592"><ele>164.75</ele><time>2026-03-29T12:23:52.866Z</time></trkpt><trkpt lat="45.10734" lon="8.3655"><ele>163.0</ele><time>2026-03-29T12:23:53.866Z</time></trkpt><trkpt lat="45.1073429" lon="8.3653309"><ele>162.5</ele><time>2026-03-29T12:23:54.878Z</time></trkpt><trkpt lat="45.1073466" lon="8.365164"><ele>162.0</ele><time>2026-03-29T12:23:55.88Z</time></trkpt><trkpt lat="45.1073513" lon="8.3649976"><ele>161.5</ele><time>2026-03-29T12:23:56.862Z</time></trkpt><trkpt lat="45.1073563" lon="8.3648263"><ele>161.0</ele><time>2026-03-29T12:23:57.866Z</time></trkpt><trkpt lat="45.1073602" lon="8.3646511"><ele>161.0</ele><time>2026-03-29T12:23:58.863Z</time></trkpt><trkpt lat="45.1073638" lon="8.3644784"><ele>161.0</ele><time>2026-03-29T12:23:59.869Z</time></trkpt><trkpt lat="45.1073677" lon="8.3643063"><ele>161.0</ele><time>2026-03-29T12:24:00.883Z</time></trkpt><trkpt lat="45.1073701" lon="8.3641379"><ele>161.0</ele><time>2026-03-29T12:24:01.875Z</time></trkpt><trkpt lat="45.1073715" lon="8.3639716"><ele>161.0</ele><time>2026-03-29T12:24:02.862Z</time></trkpt><trkpt lat="45.1073731" lon="8.3638039"><ele>161.0</ele><time>2026-03-29T12:24:03.879Z</time></trkpt><trkpt lat="45.1073749" lon="8.3636383"><ele>161.0</ele><time>2026-03-29T12:24:04.87Z</time></trkpt><trkpt lat="45.1073769" lon="8.3634707"><ele>161.0</ele><time>2026-03-29T12:24:05.887Z</time></trkpt><trkpt lat="45.1073786" lon="8.3633023"><ele>161.0</ele><time>2026-03-29T12:24:06.868Z</time></trkpt><trkpt lat="45.1073796" lon="8.3631349"><ele>161.0</ele><time>2026-03-29T12:24:07.864Z</time></trkpt><trkpt lat="45.1073801" lon="8.362964"><ele>161.0</ele><time>2026-03-29T12:24:08.863Z</time></trkpt><trkpt lat="45.1073812" lon="8.3627974"><ele>161.0</ele><time>2026-03-29T12:24:09.873Z</time></trkpt><trkpt lat="45.1073832" lon="8.3626322"><ele>160.8</ele><time>2026-03-29T12:24:10.873Z</time></trkpt><trkpt lat="45.1073838" lon="8.3624794"><ele>160.60000000000002</ele><time>2026-03-29T12:24:11.865Z</time></trkpt><trkpt lat="45.107384" lon="8.3623266"><ele>160.4</ele><time>2026-03-29T12:24:12.87Z</time></trkpt><trkpt lat="45.1073866" lon="8.3621726"><ele>160.2</ele><time>2026-03-29T12:24:13.87Z</time></trkpt><trkpt lat="45.1073902" lon="8.3620274"><ele>160.0</ele><time>2026-03-29T12:24:14.862Z</time></trkpt><trkpt lat="45.1073928" lon="8.3618737"><ele>159.75</ele><time>2026-03-29T12:24:15.87Z</time></trkpt><trkpt lat="45.1073948" lon="8.3617152"><ele>159.5</ele><time>2026-03-29T12:24:16.878Z</time></trkpt><trkpt lat="45.1073971" lon="8.3615528"><ele>159.25</ele><time>2026-03-29T12:24:17.871Z</time></trkpt><trkpt lat="45.1073992" lon="8.3613908"><ele>159.0</ele><time>2026-03-29T12:24:18.874Z</time></trkpt><trkpt lat="45.1074018" lon="8.3612203"><ele>158.75</ele><time>2026-03-29T12:24:19.869Z</time></trkpt><trkpt lat="45.1074042" lon="8.3610585"><ele>158.5</ele><time>2026-03-29T12:24:20.864Z</time></trkpt><trkpt lat="45.1074077" lon="8.3608924"><ele>158.25</ele><time>2026-03-29T12:24:21.865Z</time></trkpt><trkpt lat="45.1074111" lon="8.3607278"><ele>158.0</ele><time>2026-03-29T12:24:22.869Z</time></trkpt><trkpt lat="45.1074152" lon="8.3605593"><ele>157.5</ele><time>2026-03-29T12:24:23.884Z</time></trkpt><trkpt lat="45.10742" lon="8.3603919"><ele>157.0</ele><time>2026-03-29T12:24:24.869Z</time></trkpt><trkpt lat="45.1074243" lon="8.3602332"><ele>156.5</ele><time>2026-03-29T12:24:25.867Z</time></trkpt><trkpt lat="45.1074283" lon="8.3600705"><ele>156.0</ele><time>2026-03-29T12:24:26.889Z</time></trkpt><trkpt lat="45.1074332" lon="8.359899"><ele>156.0</ele><time>2026-03-29T12:24:27.863Z</time></trkpt><trkpt lat="45.1074379" lon="8.3597299"><ele>156.0</ele><time>2026-03-29T12:24:28.875Z</time></trkpt><trkpt lat="45.1074434" lon="8.359559"><ele>156.0</ele><time>2026-03-29T12:24:29.88Z</time></trkpt><trkpt lat="45.107448" lon="8.3593963"><ele>156.0</ele><time>2026-03-29T12:24:30.871Z</time></trkpt><trkpt lat="45.1074528" lon="8.359232"><ele>156.0</ele><time>2026-03-29T12:24:31.872Z</time></trkpt><trkpt lat="45.1074573" lon="8.3590667"><ele>156.0</ele><time>2026-03-29T12:24:32.868Z</time></trkpt><trkpt lat="45.1074624" lon="8.3588993"><ele>156.0</ele><time>2026-03-29T12:24:33.887Z</time></trkpt><trkpt lat="45.1074666" lon="8.3587259"><ele>156.0</ele><time>2026-03-29T12:24:34.892Z</time></trkpt><trkpt lat="45.107472" lon="8.3585447"><ele>156.0</ele><time>2026-03-29T12:24:35.877Z</time></trkpt><trkpt lat="45.1074772" lon="8.3583623"><ele>156.0</ele><time>2026-03-29T12:24:36.865Z</time></trkpt><trkpt lat="45.1074835" lon="8.3581764"><ele>156.0</ele><time>2026-03-29T12:24:37.869Z</time></trkpt><trkpt lat="45.1074895" lon="8.3579732"><ele>156.0</ele><time>2026-03-29T12:24:38.865Z</time></trkpt><trkpt lat="45.1074953" lon="8.3577612"><ele>156.0</ele><time>2026-03-29T12:24:39.863Z</time></trkpt><trkpt lat="45.1075001" lon="8.3575414"><ele>156.0</ele><time>2026-03-29T12:24:40.875Z</time></trkpt><trkpt lat="45.1075044" lon="8.3573176"><ele>156.0</ele><time>2026-03-29T12:24:41.871Z</time></trkpt><trkpt lat="45.1075115" lon="8.3570782"><ele>156.0</ele><time>2026-03-29T12:24:42.865Z</time></trkpt><trkpt lat="45.1075167" lon="8.3568574"><ele>156.0</ele><time>2026-03-29T12:24:43.872Z</time></trkpt><trkpt lat="45.1075234" lon="8.3566431"><ele>156.0</ele><time>2026-03-29T12:24:44.866Z</time></trkpt><trkpt lat="45.107529" lon="8.3564296"><ele>155.33333333333334</ele><time>2026-03-29T12:24:45.865Z</time></trkpt><trkpt lat="45.1075363" lon="8.3562144"><ele>154.66666666666669</ele><time>2026-03-29T12:24:46.861Z</time></trkpt><trkpt lat="45.1075424" lon="8.3559915"><ele>154.0</ele><time>2026-03-29T12:24:47.894Z</time></trkpt><trkpt lat="45.1075485" lon="8.3557752"><ele>154.0</ele><time>2026-03-29T12:24:48.866Z</time></trkpt><trkpt lat="45.1075549" lon="8.3555421"><ele>154.0</ele><time>2026-03-29T12:24:49.886Z</time></trkpt><trkpt lat="45.1075615" lon="8.3552992"><ele>154.0</ele><time>2026-03-29T12:24:50.863Z</time></trkpt><trkpt lat="45.1075691" lon="8.3550441"><ele>154.0</ele><time>2026-03-29T12:24:51.887Z</time></trkpt><trkpt lat="45.1075769" lon="8.3547665"><ele>154.0</ele><time>2026-03-29T12:24:52.864Z</time></trkpt><trkpt lat="45.1075848" lon="8.3544736"><ele>154.0</ele><time>2026-03-29T12:24:53.874Z</time></trkpt><trkpt lat="45.1075922" lon="8.3541709"><ele>153.5</ele><time>2026-03-29T12:24:54.862Z</time></trkpt><trkpt lat="45.1075996" lon="8.3538445"><ele>153.0</ele><time>2026-03-29T12:24:55.879Z</time></trkpt><trkpt lat="45.1076092" lon="8.3535206"><ele>153.0</ele><time>2026-03-29T12:24:56.862Z</time></trkpt><trkpt lat="45.107617" lon="8.3531979"><ele>153.0</ele><time>2026-03-29T12:24:57.866Z</time></trkpt><trkpt lat="45.1076237" lon="8.3528645"><ele>153.0</ele><time>2026-03-29T12:24:58.867Z</time></trkpt><trkpt lat="45.1076314" lon="8.3525281"><ele>153.0</ele><time>2026-03-29T12:24:59.862Z</time></trkpt><trkpt lat="45.1076404" lon="8.3521812"><ele>152.0</ele><time>2026-03-29T12:25:00.867Z</time></trkpt><trkpt lat="45.1076498" lon="8.3518329"><ele>151.0</ele><time>2026-03-29T12:25:01.871Z</time></trkpt><trkpt lat="45.10766" lon="8.3514828"><ele>151.5</ele><time>2026-03-29T12:25:02.874Z</time></trkpt><trkpt lat="45.10767" lon="8.3511361"><ele>152.0</ele><time>2026-03-29T12:25:03.869Z</time></trkpt><trkpt lat="45.1076786" lon="8.3507939"><ele>151.5</ele><time>2026-03-29T12:25:04.868Z</time></trkpt><trkpt lat="45.1076871" lon="8.3504578"><ele>151.0</ele><time>2026-03-29T12:25:05.867Z</time></trkpt><trkpt lat="45.1076948" lon="8.3501357"><ele>151.0</ele><time>2026-03-29T12:25:06.869Z</time></trkpt><trkpt lat="45.1077023" lon="8.3498209"><ele>151.0</ele><time>2026-03-29T12:25:07.879Z</time></trkpt><trkpt lat="45.1077087" lon="8.3495151"><ele>151.0</ele><time>2026-03-29T12:25:08.863Z</time></trkpt><trkpt lat="45.1077145" lon="8.3492112"><ele>151.0</ele><time>2026-03-29T12:25:09.862Z</time></trkpt><trkpt lat="45.1077173" lon="8.3489083"><ele>151.0</ele><time>2026-03-29T12:25:10.863Z</time></trkpt><trkpt lat="45.1077192" lon="8.3485905"><ele>151.0</ele><time>2026-03-29T12:25:11.865Z</time></trkpt><trkpt lat="45.1077242" lon="8.3482682"><ele>150.5</ele><time>2026-03-29T12:25:12.882Z</time></trkpt><trkpt lat="45.1077319" lon="8.3479447"><ele>150.0</ele><time>2026-03-29T12:25:13.87Z</time></trkpt><trkpt lat="45.1077383" lon="8.3476246"><ele>150.0</ele><time>2026-03-29T12:25:14.866Z</time></trkpt><trkpt lat="45.1077418" lon="8.3473099"><ele>150.0</ele><time>2026-03-29T12:25:15.891Z</time></trkpt><trkpt lat="45.1077443" lon="8.3470051"><ele>150.0</ele><time>2026-03-29T12:25:16.87Z</time></trkpt><trkpt lat="45.1077479" lon="8.3467041"><ele>149.66666666666666</ele><time>2026-03-29T12:25:17.865Z</time></trkpt><trkpt lat="45.1077533" lon="8.3464037"><ele>149.33333333333331</ele><time>2026-03-29T12:25:18.871Z</time></trkpt><trkpt lat="45.1077592" lon="8.3461047"><ele>149.0</ele><time>2026-03-29T12:25:19.871Z</time></trkpt><trkpt lat="45.1077645" lon="8.3458015"><ele>147.33333333333331</ele><time>2026-03-29T12:25:20.885Z</time></trkpt><trkpt lat="45.1077674" lon="8.345505"><ele>145.66666666666666</ele><time>2026-03-29T12:25:21.877Z</time></trkpt><trkpt lat="45.1077718" lon="8.3452156"><ele>144.0</ele><time>2026-03-29T12:25:22.867Z</time></trkpt><trkpt lat="45.1077765" lon="8.3449353"><ele>143.66666666666666</ele><time>2026-03-29T12:25:23.871Z</time></trkpt><trkpt lat="45.1077819" lon="8.3446496"><ele>143.33333333333331</ele><time>2026-03-29T12:25:24.87Z</time></trkpt><trkpt lat="45.1077873" lon="8.3443753"><ele>143.0</ele><time>2026-03-29T12:25:25.92Z</time></trkpt><trkpt lat="45.1077934" lon="8.3440889"><ele>142.66666666666666</ele><time>2026-03-29T12:25:26.872Z</time></trkpt><trkpt lat="45.107801" lon="8.343787"><ele>142.33333333333334</ele><time>2026-03-29T12:25:27.867Z</time></trkpt><trkpt lat="45.1078086" lon="8.3434841"><ele>142.0</ele><time>2026-03-29T12:25:28.885Z</time></trkpt><trkpt lat="45.1078155" lon="8.3431778"><ele>142.33333333333334</ele><time>2026-03-29T12:25:29.867Z</time></trkpt><trkpt lat="45.1078219" lon="8.3428666"><ele>142.66666666666666</ele><time>2026-03-29T12:25:30.898Z</time></trkpt><trkpt lat="45.1078285" lon="8.3425661"><ele>143.0</ele><time>2026-03-29T12:25:31.879Z</time></trkpt><trkpt lat="45.1078354" lon="8.3422576"><ele>143.0</ele><time>2026-03-29T12:25:32.875Z</time></trkpt><trkpt lat="45.1078421" lon="8.3419527"><ele>143.0</ele><time>2026-03-29T12:25:33.872Z</time></trkpt><trkpt lat="45.1078492" lon="8.3416486"><ele>143.0</ele><time>2026-03-29T12:25:34.866Z</time></trkpt><trkpt lat="45.1078564" lon="8.3413387"><ele>141.66666666666666</ele><time>2026-03-29T12:25:35.883Z</time></trkpt><trkpt lat="45.1078628" lon="8.3410278"><ele>140.33333333333334</ele><time>2026-03-29T12:25:36.869Z</time></trkpt><trkpt lat="45.1078686" lon="8.3407112"><ele>139.0</ele><time>2026-03-29T12:25:37.873Z</time></trkpt><trkpt lat="45.1078737" lon="8.3403897"><ele>139.0</ele><time>2026-03-29T12:25:38.873Z</time></trkpt><trkpt lat="45.1078797" lon="8.3400639"><ele>139.0</ele><time>2026-03-29T12:25:39.87Z</time></trkpt><trkpt lat="45.1078852" lon="8.339731"><ele>139.0</ele><time>2026-03-29T12:25:40.88Z</time></trkpt><trkpt lat="45.1078912" lon="8.3394002"><ele>139.0</ele><time>2026-03-29T12:25:41.866Z</time></trkpt><trkpt lat="45.107899" lon="8.3390587"><ele>138.5</ele><time>2026-03-29T12:25:42.899Z</time></trkpt><trkpt lat="45.1079055" lon="8.3387271"><ele>138.0</ele><time>2026-03-29T12:25:43.884Z</time></trkpt><trkpt lat="45.1079106" lon="8.3383898"><ele>138.5</ele><time>2026-03-29T12:25:44.872Z</time></trkpt><trkpt lat="45.1079158" lon="8.3380501"><ele>139.0</ele><time>2026-03-29T12:25:45.899Z</time></trkpt><trkpt lat="45.1079214" lon="8.3377285"><ele>139.0</ele><time>2026-03-29T12:25:46.864Z</time></trkpt><trkpt lat="45.1079273" lon="8.3373985"><ele>139.0</ele><time>2026-03-29T12:25:47.868Z</time></trkpt><trkpt lat="45.1079321" lon="8.3370716"><ele>139.5</ele><time>2026-03-29T12:25:48.872Z</time></trkpt><trkpt lat="45.1079361" lon="8.3367525"><ele>140.0</ele><time>2026-03-29T12:25:49.874Z</time></trkpt><trkpt lat="45.1079404" lon="8.336433"><ele>139.33333333333331</ele><time>2026-03-29T12:25:50.896Z</time></trkpt><trkpt lat="45.107945" lon="8.3361227"><ele>138.66666666666666</ele><time>2026-03-29T12:25:51.872Z</time></trkpt><trkpt lat="45.1079613" lon="8.335823"><ele>138.0</ele><time>2026-03-29T12:25:52.869Z</time></trkpt><trkpt lat="45.1079971" lon="8.3355872"><ele>138.0</ele><time>2026-03-29T12:25:53.868Z</time></trkpt><trkpt lat="45.1080589" lon="8.3353891"><ele>138.0</ele><time>2026-03-29T12:25:54.872Z</time></trkpt><trkpt lat="45.108142" lon="8.3351534"><ele>138.0</ele><time>2026-03-29T12:25:55.879Z</time></trkpt><trkpt lat="45.1082362" lon="8.3349058"><ele>138.33333333333334</ele><time>2026-03-29T12:25:56.879Z</time></trkpt><trkpt lat="45.1083351" lon="8.3346722"><ele>138.66666666666669</ele><time>2026-03-29T12:25:57.871Z</time></trkpt><trkpt lat="45.1084332" lon="8.334442"><ele>139.0</ele><time>2026-03-29T12:25:58.878Z</time></trkpt><trkpt lat="45.1085292" lon="8.3342147"><ele>139.0</ele><time>2026-03-29T12:25:59.87Z</time></trkpt><trkpt lat="45.1086294" lon="8.3339778"><ele>139.0</ele><time>2026-03-29T12:26:00.869Z</time></trkpt><trkpt lat="45.1087301" lon="8.3337459"><ele>139.0</ele><time>2026-03-29T12:26:01.862Z</time></trkpt><trkpt lat="45.1088254" lon="8.3335213"><ele>138.66666666666669</ele><time>2026-03-29T12:26:02.872Z</time></trkpt><trkpt lat="45.1089219" lon="8.3332968"><ele>138.33333333333334</ele><time>2026-03-29T12:26:03.857Z</time></trkpt><trkpt lat="45.1090195" lon="8.3330697"><ele>138.0</ele><time>2026-03-29T12:26:04.869Z</time></trkpt><trkpt lat="45.1091144" lon="8.3328491"><ele>137.66666666666666</ele><time>2026-03-29T12:26:05.862Z</time></trkpt><trkpt lat="45.1092077" lon="8.3326243"><ele>137.33333333333331</ele><time>2026-03-29T12:26:06.872Z</time></trkpt><trkpt lat="45.1093035" lon="8.3323945"><ele>137.0</ele><time>2026-03-29T12:26:07.869Z</time></trkpt><trkpt lat="45.1093973" lon="8.332187"><ele>136.33333333333331</ele><time>2026-03-29T12:26:08.882Z</time></trkpt><trkpt lat="45.1094831" lon="8.3319842"><ele>135.66666666666666</ele><time>2026-03-29T12:26:09.876Z</time></trkpt><trkpt lat="45.1095647" lon="8.331784"><ele>135.0</ele><time>2026-03-29T12:26:10.864Z</time></trkpt><trkpt lat="45.1096433" lon="8.3315901"><ele>135.0</ele><time>2026-03-29T12:26:11.863Z</time></trkpt><trkpt lat="45.1097053" lon="8.3314466"><ele>135.0</ele><time>2026-03-29T12:26:12.88Z</time></trkpt><trkpt lat="45.1097567" lon="8.3313335"><ele>135.0</ele><time>2026-03-29T12:26:13.874Z</time></trkpt><trkpt lat="45.1097983" lon="8.3312479"><ele>135.0</ele><time>2026-03-29T12:26:14.87Z</time></trkpt><trkpt lat="45.1098485" lon="8.3311556"><ele>135.0</ele><time>2026-03-29T12:26:16.869Z</time></trkpt><trkpt lat="45.1099461" lon="8.3312318"><ele>135.0</ele><time>2026-03-29T12:26:21.869Z</time></trkpt><trkpt lat="45.1099216" lon="8.3314002"><ele>135.0</ele><time>2026-03-29T12:26:23.866Z</time></trkpt><trkpt lat="45.1098789" lon="8.3315401"><ele>135.0</ele><time>2026-03-29T12:26:25.865Z</time></trkpt><trkpt lat="45.1098215" lon="8.3316564"><ele>135.0</ele><time>2026-03-29T12:26:28.867Z</time></trkpt><trkpt lat="45.1097846" lon="8.3317709"><ele>135.0</ele><time>2026-03-29T12:26:30.867Z</time></trkpt><trkpt lat="45.1097435" lon="8.3318636"><ele>135.0</ele><time>2026-03-29T12:26:32.871Z</time></trkpt><trkpt lat="45.1096802" lon="8.3320295"><ele>135.0</ele><time>2026-03-29T12:26:34.869Z</time></trkpt><trkpt lat="45.1096449" lon="8.332144"><ele>135.0</ele><time>2026-03-29T12:26:35.887Z</time></trkpt><trkpt lat="45.109611" lon="8.3322509"><ele>135.0</ele><time>2026-03-29T12:26:36.875Z</time></trkpt><trkpt lat="45.1095829" lon="8.3323404"><ele>135.0</ele><time>2026-03-29T12:26:37.87Z</time></trkpt><trkpt lat="45.1095389" lon="8.3324667"><ele>135.33333333333334</ele><time>2026-03-29T12:26:39.866Z</time></trkpt><trkpt lat="45.1095075" lon="8.332549"><ele>135.66666666666666</ele><time>2026-03-29T12:26:40.873Z</time></trkpt><trkpt lat="45.1094576" lon="8.3327114"><ele>136.0</ele><time>2026-03-29T12:26:42.871Z</time></trkpt><trkpt lat="45.1094311" lon="8.3328129"><ele>136.33333333333331</ele><time>2026-03-29T12:26:43.867Z</time></trkpt><trkpt lat="45.1094071" lon="8.332907"><ele>136.66666666666666</ele><time>2026-03-29T12:26:44.874Z</time></trkpt><trkpt lat="45.1093878" lon="8.3330131"><ele>137.0</ele><time>2026-03-29T12:26:45.868Z</time></trkpt><trkpt lat="45.1093532" lon="8.333111"><ele>137.0</ele><time>2026-03-29T12:26:46.87Z</time></trkpt><trkpt lat="45.1093256" lon="8.3331976"><ele>137.0</ele><time>2026-03-29T12:26:47.875Z</time></trkpt><trkpt lat="45.1092965" lon="8.3333101"><ele>137.0</ele><time>2026-03-29T12:26:48.869Z</time></trkpt><trkpt lat="45.1092728" lon="8.3334007"><ele>137.0</ele><time>2026-03-29T12:26:49.873Z</time></trkpt><trkpt lat="45.1092497" lon="8.3335061"><ele>137.0</ele><time>2026-03-29T12:26:50.869Z</time></trkpt><trkpt lat="45.1092091" lon="8.3336752"><ele>137.0</ele><time>2026-03-29T12:26:52.87Z</time></trkpt><trkpt lat="45.1091756" lon="8.3338299"><ele>137.4</ele><time>2026-03-29T12:26:54.87Z</time></trkpt><trkpt lat="45.1091403" lon="8.3339917"><ele>137.79999999999998</ele><time>2026-03-29T12:26:56.867Z</time></trkpt><trkpt lat="45.1090863" lon="8.3341624"><ele>138.2</ele><time>2026-03-29T12:26:58.869Z</time></trkpt><trkpt lat="45.1090544" lon="8.3342975"><ele>138.6</ele><time>2026-03-29T12:27:00.878Z</time></trkpt><trkpt lat="45.1090229" lon="8.3344009"><ele>139.0</ele><time>2026-03-29T12:27:01.868Z</time></trkpt><trkpt lat="45.1090062" lon="8.3344998"><ele>139.0</ele><time>2026-03-29T12:27:02.884Z</time></trkpt><trkpt lat="45.1089634" lon="8.3346155"><ele>139.0</ele><time>2026-03-29T12:27:03.862Z</time></trkpt><trkpt lat="45.1089396" lon="8.3347015"><ele>139.0</ele><time>2026-03-29T12:27:04.871Z</time></trkpt><trkpt lat="45.1088829" lon="8.3347847"><ele>139.0</ele><time>2026-03-29T12:27:05.872Z</time></trkpt><trkpt lat="45.108844" lon="8.3349013"><ele>139.0</ele><time>2026-03-29T12:27:07.874Z</time></trkpt><trkpt lat="45.1088294" lon="8.3350458"><ele>139.0</ele><time>2026-03-29T12:27:10.883Z</time></trkpt><trkpt lat="45.1087898" lon="8.3351158"><ele>139.0</ele><time>2026-03-29T12:27:13.869Z</time></trkpt><trkpt lat="45.1088139" lon="8.3353034"><ele>139.0</ele><time>2026-03-29T12:27:15.874Z</time></trkpt><trkpt lat="45.1088461" lon="8.3354046"><ele>139.0</ele><time>2026-03-29T12:27:16.883Z</time></trkpt><trkpt lat="45.1088985" lon="8.3355466"><ele>139.0</ele><time>2026-03-29T12:27:18.872Z</time></trkpt><trkpt lat="45.1089473" lon="8.3356136"><ele>139.0</ele><time>2026-03-29T12:27:19.863Z</time></trkpt><trkpt lat="45.108995" lon="8.3356757"><ele>138.4</ele><time>2026-03-29T12:27:20.887Z</time></trkpt><trkpt lat="45.1090988" lon="8.3357776"><ele>137.8</ele><time>2026-03-29T12:27:22.872Z</time></trkpt><trkpt lat="45.1091643" lon="8.3358264"><ele>137.2</ele><time>2026-03-29T12:27:23.869Z</time></trkpt><trkpt lat="45.1092272" lon="8.3358778"><ele>136.6</ele><time>2026-03-29T12:27:24.867Z</time></trkpt><trkpt lat="45.1093624" lon="8.3358992"><ele>136.0</ele><time>2026-03-29T12:27:25.86Z</time></trkpt><trkpt lat="45.1094752" lon="8.3358891"><ele>136.0</ele><time>2026-03-29T12:27:26.883Z</time></trkpt><trkpt lat="45.1095435" lon="8.3359405"><ele>136.0</ele><time>2026-03-29T12:27:28.905Z</time></trkpt><trkpt lat="45.1096188" lon="8.3358631"><ele>136.0</ele><time>2026-03-29T12:27:30.867Z</time></trkpt><trkpt lat="45.1096839" lon="8.3358125"><ele>136.0</ele><time>2026-03-29T12:27:31.879Z</time></trkpt><trkpt lat="45.1097536" lon="8.3357483"><ele>136.0</ele><time>2026-03-29T12:27:32.869Z</time></trkpt><trkpt lat="45.109832" lon="8.3356856"><ele>136.0</ele><time>2026-03-29T12:27:33.872Z</time></trkpt><trkpt lat="45.1099048" lon="8.3356332"><ele>136.0</ele><time>2026-03-29T12:27:34.876Z</time></trkpt><trkpt lat="45.1099838" lon="8.3355805"><ele>136.0</ele><time>2026-03-29T12:27:35.887Z</time></trkpt><trkpt lat="45.1100648" lon="8.3355242"><ele>136.0</ele><time>2026-03-29T12:27:36.882Z</time></trkpt><trkpt lat="45.1101437" lon="8.3354819"><ele>136.0</ele><time>2026-03-29T12:27:37.869Z</time></trkpt><trkpt lat="45.1102263" lon="8.3354298"><ele>136.0</ele><time>2026-03-29T12:27:38.876Z</time></trkpt><trkpt lat="45.1103089" lon="8.3354018"><ele>136.0</ele><time>2026-03-29T12:27:39.873Z</time></trkpt><trkpt lat="45.1103834" lon="8.3353649"><ele>136.0</ele><time>2026-03-29T12:27:40.877Z</time></trkpt><trkpt lat="45.1104474" lon="8.3353435"><ele>136.0</ele><time>2026-03-29T12:27:41.865Z</time></trkpt><trkpt lat="45.1105357" lon="8.3353072"><ele>136.0</ele><time>2026-03-29T12:27:42.881Z</time></trkpt><trkpt lat="45.1106183" lon="8.3352642"><ele>136.0</ele><time>2026-03-29T12:27:43.872Z</time></trkpt><trkpt lat="45.1106912" lon="8.3352149"><ele>136.0</ele><time>2026-03-29T12:27:44.866Z</time></trkpt><trkpt lat="45.1107803" lon="8.3351776"><ele>136.0</ele><time>2026-03-29T12:27:45.87Z</time></trkpt><trkpt lat="45.1108539" lon="8.3351326"><ele>136.0</ele><time>2026-03-29T12:27:46.871Z</time></trkpt><trkpt lat="45.1109277" lon="8.3350993"><ele>136.0</ele><time>2026-03-29T12:27:47.879Z</time></trkpt><trkpt lat="45.1110166" lon="8.335066"><ele>136.0</ele><time>2026-03-29T12:27:48.865Z</time></trkpt><trkpt lat="45.1110928" lon="8.3350389"><ele>136.0</ele><time>2026-03-29T12:27:49.871Z</time></trkpt><trkpt lat="45.1111676" lon="8.3350188"><ele>136.0</ele><time>2026-03-29T12:27:50.865Z</time></trkpt><trkpt lat="45.1112446" lon="8.3349965"><ele>136.0</ele><time>2026-03-29T12:27:51.872Z</time></trkpt><trkpt lat="45.1113315" lon="8.3349708"><ele>136.0</ele><time>2026-03-29T12:27:52.862Z</time></trkpt><trkpt lat="45.1114201" lon="8.3349464"><ele>136.0</ele><time>2026-03-29T12:27:53.868Z</time></trkpt><trkpt lat="45.1114924" lon="8.334923"><ele>136.0</ele><time>2026-03-29T12:27:54.87Z</time></trkpt><trkpt lat="45.1115857" lon="8.3349061"><ele>136.0</ele><time>2026-03-29T12:27:55.87Z</time></trkpt><trkpt lat="45.1116508" lon="8.3348867"><ele>136.0</ele><time>2026-03-29T12:27:56.865Z</time></trkpt><trkpt lat="45.1117346" lon="8.3348655"><ele>136.0</ele><time>2026-03-29T12:27:57.865Z</time></trkpt><trkpt lat="45.1118033" lon="8.3348506"><ele>135.66666666666669</ele><time>2026-03-29T12:27:58.871Z</time></trkpt><trkpt lat="45.1118812" lon="8.3348218"><ele>135.33333333333334</ele><time>2026-03-29T12:27:59.87Z</time></trkpt><trkpt lat="45.1119589" lon="8.3347937"><ele>135.0</ele><time>2026-03-29T12:28:00.885Z</time></trkpt><trkpt lat="45.1120377" lon="8.3347788"><ele>134.66666666666666</ele><time>2026-03-29T12:28:01.875Z</time></trkpt><trkpt lat="45.1121116" lon="8.3347523"><ele>134.33333333333331</ele><time>2026-03-29T12:28:02.865Z</time></trkpt><trkpt lat="45.1121915" lon="8.3347257"><ele>134.0</ele><time>2026-03-29T12:28:03.864Z</time></trkpt><trkpt lat="45.1122709" lon="8.3346964"><ele>134.0</ele><time>2026-03-29T12:28:04.866Z</time></trkpt><trkpt lat="45.1123524" lon="8.3346686"><ele>134.0</ele><time>2026-03-29T12:28:05.871Z</time></trkpt><trkpt lat="45.1124368" lon="8.3346451"><ele>134.0</ele><time>2026-03-29T12:28:06.871Z</time></trkpt><trkpt lat="45.1125112" lon="8.3346225"><ele>134.0</ele><time>2026-03-29T12:28:07.868Z</time></trkpt><trkpt lat="45.1125782" lon="8.3346096"><ele>134.0</ele><time>2026-03-29T12:28:08.866Z</time></trkpt><trkpt lat="45.1126636" lon="8.3346024"><ele>134.0</ele><time>2026-03-29T12:28:10.876Z</time></trkpt><trkpt lat="45.1127223" lon="8.3346403"><ele>134.0</ele><time>2026-03-29T12:28:15.873Z</time></trkpt><trkpt lat="45.1128192" lon="8.3346727"><ele>134.0</ele><time>2026-03-29T12:28:19.882Z</time></trkpt><trkpt lat="45.1129334" lon="8.3347054"><ele>134.0</ele><time>2026-03-29T12:28:21.874Z</time></trkpt><trkpt lat="45.1130433" lon="8.3347402"><ele>134.0</ele><time>2026-03-29T12:28:23.881Z</time></trkpt><trkpt lat="45.1131022" lon="8.3347814"><ele>134.0</ele><time>2026-03-29T12:28:25.895Z</time></trkpt><trkpt lat="45.1131702" lon="8.3347662"><ele>134.0</ele><time>2026-03-29T12:28:32.882Z</time></trkpt><trkpt lat="45.1131986" lon="8.3346704"><ele>134.0</ele><time>2026-03-29T12:28:35.875Z</time></trkpt><trkpt lat="45.1132201" lon="8.3345101"><ele>134.0</ele><time>2026-03-29T12:28:37.868Z</time></trkpt><trkpt lat="45.113242" lon="8.334415"><ele>134.0</ele><time>2026-03-29T12:28:38.88Z</time></trkpt><trkpt lat="45.113261" lon="8.3343145"><ele>134.0</ele><time>2026-03-29T12:28:39.855Z</time></trkpt><trkpt lat="45.1132967" lon="8.3341459"><ele>134.4</ele><time>2026-03-29T12:28:41.88Z</time></trkpt><trkpt lat="45.1133413" lon="8.3340404"><ele>134.8</ele><time>2026-03-29T12:28:43.904Z</time></trkpt><trkpt lat="45.1134157" lon="8.3340971"><ele>135.2</ele><time>2026-03-29T12:28:46.861Z</time></trkpt><trkpt lat="45.1135448" lon="8.3340899"><ele>135.6</ele><time>2026-03-29T12:28:48.868Z</time></trkpt><trkpt lat="45.1136365" lon="8.3340757"><ele>136.0</ele><time>2026-03-29T12:28:49.879Z</time></trkpt><trkpt lat="45.1137117" lon="8.3340783"><ele>136.0</ele><time>2026-03-29T12:28:50.877Z</time></trkpt><trkpt lat="45.1137768" lon="8.3340868"><ele>136.0</ele><time>2026-03-29T12:28:51.868Z</time></trkpt><trkpt lat="45.1138518" lon="8.3340975"><ele>136.0</ele><time>2026-03-29T12:28:52.876Z</time></trkpt><trkpt lat="45.1139328" lon="8.3341076"><ele>136.0</ele><time>2026-03-29T12:28:53.862Z</time></trkpt><trkpt lat="45.1140099" lon="8.334122"><ele>136.0</ele><time>2026-03-29T12:28:54.87Z</time></trkpt><trkpt lat="45.1140879" lon="8.334137"><ele>136.0</ele><time>2026-03-29T12:28:55.864Z</time></trkpt><trkpt lat="45.1141632" lon="8.3341515"><ele>135.5</ele><time>2026-03-29T12:28:56.87Z</time></trkpt><trkpt lat="45.1142454" lon="8.3341674"><ele>135.0</ele><time>2026-03-29T12:28:57.893Z</time></trkpt><trkpt lat="45.1143267" lon="8.334181"><ele>134.5</ele><time>2026-03-29T12:28:58.886Z</time></trkpt><trkpt lat="45.1144051" lon="8.3341984"><ele>134.0</ele><time>2026-03-29T12:28:59.872Z</time></trkpt><trkpt lat="45.1144788" lon="8.3342123"><ele>133.5</ele><time>2026-03-29T12:29:00.875Z</time></trkpt><trkpt lat="45.1145544" lon="8.334228"><ele>133.0</ele><time>2026-03-29T12:29:01.868Z</time></trkpt><trkpt lat="45.1146274" lon="8.3342418"><ele>133.0</ele><time>2026-03-29T12:29:02.895Z</time></trkpt><trkpt lat="45.1147001" lon="8.3342561"><ele>133.0</ele><time>2026-03-29T12:29:03.867Z</time></trkpt><trkpt lat="45.1147734" lon="8.3342678"><ele>133.0</ele><time>2026-03-29T12:29:04.868Z</time></trkpt><trkpt lat="45.1148459" lon="8.3342807"><ele>133.0</ele><time>2026-03-29T12:29:05.874Z</time></trkpt><trkpt lat="45.1149139" lon="8.3342899"><ele>133.0</ele><time>2026-03-29T12:29:06.871Z</time></trkpt><trkpt lat="45.1149883" lon="8.3343004"><ele>133.0</ele><time>2026-03-29T12:29:07.867Z</time></trkpt><trkpt lat="45.1150683" lon="8.3343125"><ele>133.0</ele><time>2026-03-29T12:29:08.869Z</time></trkpt><trkpt lat="45.1151467" lon="8.3343256"><ele>133.16666666666669</ele><time>2026-03-29T12:29:09.866Z</time></trkpt><trkpt lat="45.1152286" lon="8.3343391"><ele>133.33333333333334</ele><time>2026-03-29T12:29:10.864Z</time></trkpt><trkpt lat="45.1153116" lon="8.3343538"><ele>133.5</ele><time>2026-03-29T12:29:11.892Z</time></trkpt><trkpt lat="45.1153905" lon="8.3343679"><ele>133.66666666666666</ele><time>2026-03-29T12:29:12.875Z</time></trkpt><trkpt lat="45.1154667" lon="8.3343792"><ele>133.83333333333331</ele><time>2026-03-29T12:29:13.875Z</time></trkpt><trkpt lat="45.1155434" lon="8.3343905"><ele>134.0</ele><time>2026-03-29T12:29:14.871Z</time></trkpt><trkpt lat="45.1156148" lon="8.3343984"><ele>134.0</ele><time>2026-03-29T12:29:15.874Z</time></trkpt><trkpt lat="45.1157367" lon="8.3344131"><ele>134.0</ele><time>2026-03-29T12:29:17.868Z</time></trkpt><trkpt lat="45.1158057" lon="8.3344241"><ele>134.0</ele><time>2026-03-29T12:29:18.87Z</time></trkpt><trkpt lat="45.1158685" lon="8.334433"><ele>134.0</ele><time>2026-03-29T12:29:19.868Z</time></trkpt><trkpt lat="45.1159402" lon="8.3344457"><ele>134.0</ele><time>2026-03-29T12:29:20.89Z</time></trkpt><trkpt lat="45.1160103" lon="8.3344583"><ele>134.0</ele><time>2026-03-29T12:29:21.871Z</time></trkpt><trkpt lat="45.1160881" lon="8.334472"><ele>133.85714285714286</ele><time>2026-03-29T12:29:22.869Z</time></trkpt><trkpt lat="45.1161613" lon="8.334483"><ele>133.71428571428572</ele><time>2026-03-29T12:29:23.898Z</time></trkpt><trkpt lat="45.116237" lon="8.3344959"><ele>133.57142857142856</ele><time>2026-03-29T12:29:24.9Z</time></trkpt><trkpt lat="45.116308" lon="8.3345101"><ele>133.42857142857144</ele><time>2026-03-29T12:29:25.87Z</time></trkpt><trkpt lat="45.116374" lon="8.3345193"><ele>133.28571428571428</ele><time>2026-03-29T12:29:26.868Z</time></trkpt><trkpt lat="45.1164381" lon="8.334529"><ele>133.14285714285714</ele><time>2026-03-29T12:29:27.869Z</time></trkpt><trkpt lat="45.1165102" lon="8.3345688"><ele>133.0</ele><time>2026-03-29T12:29:29.873Z</time></trkpt><trkpt lat="45.1166072" lon="8.334674"><ele>133.0</ele><time>2026-03-29T12:29:31.872Z</time></trkpt><trkpt lat="45.1166636" lon="8.3347332"><ele>133.0</ele><time>2026-03-29T12:29:32.869Z</time></trkpt><trkpt lat="45.1167228" lon="8.3347935"><ele>133.0</ele><time>2026-03-29T12:29:33.867Z</time></trkpt><trkpt lat="45.1168404" lon="8.3348807"><ele>133.0</ele><time>2026-03-29T12:29:35.876Z</time></trkpt><trkpt lat="45.1169228" lon="8.3349115"><ele>133.0</ele><time>2026-03-29T12:29:37.88Z</time></trkpt><trkpt lat="45.1169976" lon="8.334918"><ele>133.0</ele><time>2026-03-29T12:29:38.879Z</time></trkpt><trkpt lat="45.1171096" lon="8.3349292"><ele>133.0</ele><time>2026-03-29T12:29:40.905Z</time></trkpt><trkpt lat="45.1171786" lon="8.3349383"><ele>133.0</ele><time>2026-03-29T12:29:41.871Z</time></trkpt><trkpt lat="45.1172521" lon="8.3349486"><ele>133.0</ele><time>2026-03-29T12:29:42.872Z</time></trkpt><trkpt lat="45.1173253" lon="8.3349672"><ele>133.0</ele><time>2026-03-29T12:29:43.874Z</time></trkpt><trkpt lat="45.1173923" lon="8.3349844"><ele>133.0</ele><time>2026-03-29T12:29:44.868Z</time></trkpt><trkpt lat="45.1174845" lon="8.3350383"><ele>133.0</ele><time>2026-03-29T12:29:46.869Z</time></trkpt><trkpt lat="45.1174967" lon="8.3351604"><ele>133.20000000000002</ele><time>2026-03-29T12:29:50.879Z</time></trkpt><trkpt lat="45.1174967" lon="8.3352659"><ele>133.4</ele><time>2026-03-29T12:29:52.863Z</time></trkpt><trkpt lat="45.1175263" lon="8.3354017"><ele>133.60000000000002</ele><time>2026-03-29T12:29:54.867Z</time></trkpt><trkpt lat="45.1175985" lon="8.3355345"><ele>133.8</ele><time>2026-03-29T12:29:56.868Z</time></trkpt><trkpt lat="45.1176679" lon="8.3355951"><ele>134.0</ele><time>2026-03-29T12:29:57.888Z</time></trkpt><trkpt lat="45.1178158" lon="8.3356516"><ele>134.0</ele><time>2026-03-29T12:29:59.872Z</time></trkpt><trkpt lat="45.117903" lon="8.3356703"><ele>134.0</ele><time>2026-03-29T12:30:00.885Z</time></trkpt><trkpt lat="45.1179791" lon="8.3356819"><ele>134.0</ele><time>2026-03-29T12:30:01.878Z</time></trkpt><trkpt lat="45.1180607" lon="8.3356884"><ele>134.0</ele><time>2026-03-29T12:30:02.867Z</time></trkpt><trkpt lat="45.1181476" lon="8.3357189"><ele>134.0</ele><time>2026-03-29T12:30:03.868Z</time></trkpt><trkpt lat="45.1182111" lon="8.3357491"><ele>134.0</ele><time>2026-03-29T12:30:04.868Z</time></trkpt><trkpt lat="45.1183162" lon="8.3358539"><ele>134.0</ele><time>2026-03-29T12:30:06.864Z</time></trkpt><trkpt lat="45.1184043" lon="8.3359721"><ele>134.0</ele><time>2026-03-29T12:30:08.868Z</time></trkpt><trkpt lat="45.1184921" lon="8.3360695"><ele>134.0</ele><time>2026-03-29T12:30:10.871Z</time></trkpt><trkpt lat="45.1186075" lon="8.3361599"><ele>134.0</ele><time>2026-03-29T12:30:12.871Z</time></trkpt><trkpt lat="45.1187165" lon="8.3362358"><ele>134.0</ele><time>2026-03-29T12:30:14.883Z</time></trkpt><trkpt lat="45.1187797" lon="8.3362685"><ele>134.0</ele><time>2026-03-29T12:30:15.86Z</time></trkpt><trkpt lat="45.1188917" lon="8.3362877"><ele>134.0</ele><time>2026-03-29T12:30:17.881Z</time></trkpt><trkpt lat="45.1190014" lon="8.3362732"><ele>134.0</ele><time>2026-03-29T12:30:19.874Z</time></trkpt><trkpt lat="45.1190856" lon="8.3362324"><ele>134.0</ele><time>2026-03-29T12:30:21.87Z</time></trkpt><trkpt lat="45.1191743" lon="8.3361629"><ele>134.0</ele><time>2026-03-29T12:30:23.864Z</time></trkpt><trkpt lat="45.1192282" lon="8.3360447"><ele>134.0</ele><time>2026-03-29T12:30:25.898Z</time></trkpt><trkpt lat="45.1192661" lon="8.3358882"><ele>134.0</ele><time>2026-03-29T12:30:27.886Z</time></trkpt><trkpt lat="45.1192984" lon="8.3357442"><ele>134.0</ele><time>2026-03-29T12:30:29.862Z</time></trkpt><trkpt lat="45.1193438" lon="8.3356263"><ele>134.0</ele><time>2026-03-29T12:30:31.876Z</time></trkpt><trkpt lat="45.1193896" lon="8.3355496"><ele>134.0</ele><time>2026-03-29T12:30:32.872Z</time></trkpt><trkpt lat="45.1194844" lon="8.3355189"><ele>134.0</ele><time>2026-03-29T12:30:34.867Z</time></trkpt><trkpt lat="45.1195779" lon="8.3355347"><ele>134.0</ele><time>2026-03-29T12:30:36.873Z</time></trkpt><trkpt lat="45.119738" lon="8.3355848"><ele>134.0</ele><time>2026-03-29T12:30:38.906Z</time></trkpt><trkpt lat="45.1198104" lon="8.3356708"><ele>133.5</ele><time>2026-03-29T12:30:39.863Z</time></trkpt><trkpt lat="45.1199043" lon="8.3357076"><ele>133.0</ele><time>2026-03-29T12:30:40.863Z</time></trkpt><trkpt lat="45.1199915" lon="8.3357377"><ele>132.5</ele><time>2026-03-29T12:30:41.862Z</time></trkpt><trkpt lat="45.1200695" lon="8.335767"><ele>132.0</ele><time>2026-03-29T12:30:42.854Z</time></trkpt><trkpt lat="45.1201366" lon="8.3357957"><ele>131.5</ele><time>2026-03-29T12:30:43.865Z</time></trkpt><trkpt lat="45.1201984" lon="8.335822"><ele>131.0</ele><time>2026-03-29T12:30:44.863Z</time></trkpt><trkpt lat="45.1202593" lon="8.3358485"><ele>131.0</ele><time>2026-03-29T12:30:45.86Z</time></trkpt><trkpt lat="45.1203712" lon="8.3358989"><ele>131.0</ele><time>2026-03-29T12:30:47.891Z</time></trkpt><trkpt lat="45.120463" lon="8.3359645"><ele>131.0</ele><time>2026-03-29T12:30:49.854Z</time></trkpt><trkpt lat="45.1205246" lon="8.3360869"><ele>131.0</ele><time>2026-03-29T12:30:51.862Z</time></trkpt><trkpt lat="45.1205424" lon="8.3361736"><ele>131.0</ele><time>2026-03-29T12:30:52.86Z</time></trkpt><trkpt lat="45.1205632" lon="8.3363395"><ele>130.8</ele><time>2026-03-29T12:30:54.871Z</time></trkpt><trkpt lat="45.1205857" lon="8.3364998"><ele>130.6</ele><time>2026-03-29T12:30:56.863Z</time></trkpt><trkpt lat="45.1206462" lon="8.33661"><ele>130.4</ele><time>2026-03-29T12:30:58.864Z</time></trkpt><trkpt lat="45.1207183" lon="8.3366623"><ele>130.2</ele><time>2026-03-29T12:31:00.86Z</time></trkpt><trkpt lat="45.1208353" lon="8.3366485"><ele>130.0</ele><time>2026-03-29T12:31:03.867Z</time></trkpt><trkpt lat="45.120924" lon="8.3365883"><ele>130.75</ele><time>2026-03-29T12:31:05.86Z</time></trkpt><trkpt lat="45.1210277" lon="8.3365238"><ele>131.5</ele><time>2026-03-29T12:31:07.868Z</time></trkpt><trkpt lat="45.1211401" lon="8.3364582"><ele>132.25</ele><time>2026-03-29T12:31:09.863Z</time></trkpt><trkpt lat="45.1212533" lon="8.3363978"><ele>133.0</ele><time>2026-03-29T12:31:11.859Z</time></trkpt><trkpt lat="45.1213673" lon="8.3364112"><ele>133.0</ele><time>2026-03-29T12:31:13.856Z</time></trkpt><trkpt lat="45.1214738" lon="8.3364887"><ele>133.0</ele><time>2026-03-29T12:31:15.866Z</time></trkpt><trkpt lat="45.1215471" lon="8.3366063"><ele>133.0</ele><time>2026-03-29T12:31:17.863Z</time></trkpt><trkpt lat="45.1215753" lon="8.3367395"><ele>133.0</ele><time>2026-03-29T12:31:19.86Z</time></trkpt><trkpt lat="45.1215964" lon="8.3368722"><ele>133.0</ele><time>2026-03-29T12:31:21.865Z</time></trkpt><trkpt lat="45.1216405" lon="8.3370304"><ele>133.16666666666669</ele><time>2026-03-29T12:31:23.864Z</time></trkpt><trkpt lat="45.1216638" lon="8.3371161"><ele>133.33333333333334</ele><time>2026-03-29T12:31:24.861Z</time></trkpt><trkpt lat="45.1216934" lon="8.3372053"><ele>133.5</ele><time>2026-03-29T12:31:25.865Z</time></trkpt><trkpt lat="45.1217253" lon="8.337295"><ele>133.66666666666666</ele><time>2026-03-29T12:31:26.862Z</time></trkpt><trkpt lat="45.121756" lon="8.3373739"><ele>133.83333333333331</ele><time>2026-03-29T12:31:27.864Z</time></trkpt><trkpt lat="45.1218356" lon="8.3375069"><ele>134.0</ele><time>2026-03-29T12:31:29.861Z</time></trkpt><trkpt lat="45.1218865" lon="8.3375675"><ele>133.6</ele><time>2026-03-29T12:31:30.86Z</time></trkpt><trkpt lat="45.1219409" lon="8.3376174"><ele>133.2</ele><time>2026-03-29T12:31:31.864Z</time></trkpt><trkpt lat="45.1220527" lon="8.3376807"><ele>132.79999999999998</ele><time>2026-03-29T12:31:33.857Z</time></trkpt><trkpt lat="45.1221798" lon="8.3376963"><ele>132.4</ele><time>2026-03-29T12:31:35.858Z</time></trkpt><trkpt lat="45.1222834" lon="8.3376802"><ele>132.0</ele><time>2026-03-29T12:31:37.864Z</time></trkpt><trkpt lat="45.1223625" lon="8.3376384"><ele>132.16666666666666</ele><time>2026-03-29T12:31:39.874Z</time></trkpt><trkpt lat="45.1224641" lon="8.3375577"><ele>132.33333333333334</ele><time>2026-03-29T12:31:41.863Z</time></trkpt><trkpt lat="45.1225225" lon="8.337513"><ele>132.5</ele><time>2026-03-29T12:31:42.86Z</time></trkpt><trkpt lat="45.1225802" lon="8.3374761"><ele>132.66666666666669</ele><time>2026-03-29T12:31:43.864Z</time></trkpt><trkpt lat="45.12267" lon="8.337461"><ele>132.83333333333334</ele><time>2026-03-29T12:31:45.865Z</time></trkpt><trkpt lat="45.1227571" lon="8.3375244"><ele>133.0</ele><time>2026-03-29T12:31:47.863Z</time></trkpt><trkpt lat="45.122845" lon="8.3376667"><ele>133.0</ele><time>2026-03-29T12:31:49.865Z</time></trkpt><trkpt lat="45.1228775" lon="8.3377598"><ele>133.0</ele><time>2026-03-29T12:31:50.86Z</time></trkpt><trkpt lat="45.1229092" lon="8.3378416"><ele>133.0</ele><time>2026-03-29T12:31:51.862Z</time></trkpt><trkpt lat="45.1229423" lon="8.337919"><ele>133.0</ele><time>2026-03-29T12:31:52.86Z</time></trkpt><trkpt lat="45.1230134" lon="8.3380526"><ele>133.0</ele><time>2026-03-29T12:31:54.857Z</time></trkpt><trkpt lat="45.1230723" lon="8.3381605"><ele>133.0</ele><time>2026-03-29T12:31:56.863Z</time></trkpt><trkpt lat="45.1231221" lon="8.3382637"><ele>133.0</ele><time>2026-03-29T12:31:58.866Z</time></trkpt><trkpt lat="45.1231726" lon="8.3383769"><ele>133.0</ele><time>2026-03-29T12:32:00.872Z</time></trkpt><trkpt lat="45.1232277" lon="8.3384754"><ele>133.0</ele><time>2026-03-29T12:32:02.86Z</time></trkpt><trkpt lat="45.1232756" lon="8.3385812"><ele>133.0</ele><time>2026-03-29T12:32:04.862Z</time></trkpt><trkpt lat="45.1233322" lon="8.3386875"><ele>133.0</ele><time>2026-03-29T12:32:06.862Z</time></trkpt><trkpt lat="45.1233874" lon="8.3387819"><ele>133.0</ele><time>2026-03-29T12:32:08.86Z</time></trkpt><trkpt lat="45.1234502" lon="8.3388753"><ele>133.0</ele><time>2026-03-29T12:32:10.874Z</time></trkpt><trkpt lat="45.12353" lon="8.3389849"><ele>133.0</ele><time>2026-03-29T12:32:12.862Z</time></trkpt><trkpt lat="45.1236376" lon="8.3390812"><ele>133.0</ele><time>2026-03-29T12:32:14.863Z</time></trkpt><trkpt lat="45.1236934" lon="8.3391321"><ele>133.0</ele><time>2026-03-29T12:32:15.863Z</time></trkpt><trkpt lat="45.1237467" lon="8.3391829"><ele>133.4</ele><time>2026-03-29T12:32:16.862Z</time></trkpt><trkpt lat="45.1238386" lon="8.3392971"><ele>133.8</ele><time>2026-03-29T12:32:18.863Z</time></trkpt><trkpt lat="45.1239106" lon="8.3394016"><ele>134.2</ele><time>2026-03-29T12:32:20.862Z</time></trkpt><trkpt lat="45.1239976" lon="8.3394545"><ele>134.6</ele><time>2026-03-29T12:32:22.869Z</time></trkpt><trkpt lat="45.1241215" lon="8.3394456"><ele>135.0</ele><time>2026-03-29T12:32:24.859Z</time></trkpt><trkpt lat="45.1242048" lon="8.339422"><ele>134.2</ele><time>2026-03-29T12:32:25.863Z</time></trkpt><trkpt lat="45.1242946" lon="8.3393982"><ele>133.4</ele><time>2026-03-29T12:32:26.862Z</time></trkpt><trkpt lat="45.1243874" lon="8.339374"><ele>132.6</ele><time>2026-03-29T12:32:27.864Z</time></trkpt><trkpt lat="45.1244788" lon="8.3393494"><ele>131.8</ele><time>2026-03-29T12:32:28.86Z</time></trkpt><trkpt lat="45.1245715" lon="8.3393216"><ele>131.0</ele><time>2026-03-29T12:32:29.862Z</time></trkpt><trkpt lat="45.1246594" lon="8.3393019"><ele>131.0</ele><time>2026-03-29T12:32:30.863Z</time></trkpt><trkpt lat="45.1247356" lon="8.3392961"><ele>131.0</ele><time>2026-03-29T12:32:31.858Z</time></trkpt><trkpt lat="45.1248041" lon="8.3392922"><ele>131.0</ele><time>2026-03-29T12:32:32.864Z</time></trkpt><trkpt lat="45.1249051" lon="8.3393098"><ele>131.0</ele><time>2026-03-29T12:32:34.864Z</time></trkpt><trkpt lat="45.1249724" lon="8.3393426"><ele>131.0</ele><time>2026-03-29T12:32:37.862Z</time></trkpt><trkpt lat="45.1249902" lon="8.3394326"><ele>131.0</ele><time>2026-03-29T12:32:40.895Z</time></trkpt><trkpt lat="45.125003" lon="8.339547"><ele>131.0</ele><time>2026-03-29T12:32:42.861Z</time></trkpt><trkpt lat="45.1250091" lon="8.3396899"><ele>131.0</ele><time>2026-03-29T12:32:44.863Z</time></trkpt><trkpt lat="45.1249926" lon="8.3398421"><ele>131.0</ele><time>2026-03-29T12:32:46.86Z</time></trkpt><trkpt lat="45.1249674" lon="8.3399945"><ele>131.0</ele><time>2026-03-29T12:32:48.862Z</time></trkpt><trkpt lat="45.1249471" lon="8.3401612"><ele>131.0</ele><time>2026-03-29T12:32:50.866Z</time></trkpt><trkpt lat="45.124933" lon="8.3403094"><ele>131.0</ele><time>2026-03-29T12:32:52.867Z</time></trkpt><trkpt lat="45.1249276" lon="8.3404342"><ele>131.0</ele><time>2026-03-29T12:32:54.866Z</time></trkpt><trkpt lat="45.1249237" lon="8.3405687"><ele>131.0</ele><time>2026-03-29T12:32:56.865Z</time></trkpt><trkpt lat="45.1249039" lon="8.3407485"><ele>131.0</ele><time>2026-03-29T12:32:58.868Z</time></trkpt><trkpt lat="45.1248933" lon="8.3408502"><ele>131.0</ele><time>2026-03-29T12:32:59.86Z</time></trkpt><trkpt lat="45.1248814" lon="8.3409576"><ele>131.0</ele><time>2026-03-29T12:33:00.871Z</time></trkpt><trkpt lat="45.1248697" lon="8.3410634"><ele>131.0</ele><time>2026-03-29T12:33:01.863Z</time></trkpt><trkpt lat="45.1248569" lon="8.3411628"><ele>131.0</ele><time>2026-03-29T12:33:02.86Z</time></trkpt><trkpt lat="45.12484" lon="8.3412563"><ele>131.0</ele><time>2026-03-29T12:33:03.858Z</time></trkpt><trkpt lat="45.1248185" lon="8.3413495"><ele>131.0</ele><time>2026-03-29T12:33:04.863Z</time></trkpt><trkpt lat="45.1247907" lon="8.3414481"><ele>131.0</ele><time>2026-03-29T12:33:05.877Z</time></trkpt><trkpt lat="45.124756" lon="8.3415451"><ele>131.0</ele><time>2026-03-29T12:33:06.866Z</time></trkpt><trkpt lat="45.1247233" lon="8.3416404"><ele>131.16666666666666</ele><time>2026-03-29T12:33:07.861Z</time></trkpt><trkpt lat="45.1246919" lon="8.3417432"><ele>131.33333333333331</ele><time>2026-03-29T12:33:08.863Z</time></trkpt><trkpt lat="45.124665" lon="8.3418481"><ele>131.5</ele><time>2026-03-29T12:33:09.858Z</time></trkpt><trkpt lat="45.1246451" lon="8.3419493"><ele>131.66666666666666</ele><time>2026-03-29T12:33:10.894Z</time></trkpt><trkpt lat="45.1246316" lon="8.3420523"><ele>131.83333333333334</ele><time>2026-03-29T12:33:11.86Z</time></trkpt><trkpt lat="45.1246235" lon="8.3421577"><ele>132.0</ele><time>2026-03-29T12:33:12.86Z</time></trkpt><trkpt lat="45.1246179" lon="8.3422654"><ele>132.16666666666666</ele><time>2026-03-29T12:33:13.861Z</time></trkpt><trkpt lat="45.1246108" lon="8.3423779"><ele>132.33333333333334</ele><time>2026-03-29T12:33:14.856Z</time></trkpt><trkpt lat="45.1246035" lon="8.342491"><ele>132.5</ele><time>2026-03-29T12:33:15.871Z</time></trkpt><trkpt lat="45.1245942" lon="8.3426022"><ele>132.66666666666669</ele><time>2026-03-29T12:33:16.896Z</time></trkpt><trkpt lat="45.1245823" lon="8.3427124"><ele>132.83333333333334</ele><time>2026-03-29T12:33:17.86Z</time></trkpt><trkpt lat="45.124566" lon="8.3428243"><ele>133.0</ele><time>2026-03-29T12:33:18.865Z</time></trkpt><trkpt lat="45.1245475" lon="8.3429393"><ele>133.33333333333334</ele><time>2026-03-29T12:33:19.86Z</time></trkpt><trkpt lat="45.1245247" lon="8.3430587"><ele>133.66666666666669</ele><time>2026-03-29T12:33:20.889Z</time></trkpt><trkpt lat="45.1245023" lon="8.3431825"><ele>134.0</ele><time>2026-03-29T12:33:21.892Z</time></trkpt><trkpt lat="45.1244811" lon="8.3433069"><ele>134.33333333333334</ele><time>2026-03-29T12:33:22.86Z</time></trkpt><trkpt lat="45.1244599" lon="8.3434281"><ele>134.66666666666666</ele><time>2026-03-29T12:33:23.865Z</time></trkpt><trkpt lat="45.1244408" lon="8.3435448"><ele>135.0</ele><time>2026-03-29T12:33:24.863Z</time></trkpt><trkpt lat="45.1244217" lon="8.3436614"><ele>135.0</ele><time>2026-03-29T12:33:25.863Z</time></trkpt><trkpt lat="45.1244042" lon="8.3437782"><ele>135.0</ele><time>2026-03-29T12:33:26.866Z</time></trkpt><trkpt lat="45.1243866" lon="8.3438923"><ele>135.0</ele><time>2026-03-29T12:33:27.862Z</time></trkpt><trkpt lat="45.1243646" lon="8.3439984"><ele>135.0</ele><time>2026-03-29T12:33:28.862Z</time></trkpt><trkpt lat="45.124346" lon="8.3440989"><ele>135.0</ele><time>2026-03-29T12:33:29.866Z</time></trkpt><trkpt lat="45.1243289" lon="8.3442066"><ele>135.0</ele><time>2026-03-29T12:33:30.865Z</time></trkpt><trkpt lat="45.1243259" lon="8.3443209"><ele>135.5</ele><time>2026-03-29T12:33:31.859Z</time></trkpt><trkpt lat="45.1243285" lon="8.3444363"><ele>136.0</ele><time>2026-03-29T12:33:32.862Z</time></trkpt><trkpt lat="45.1243411" lon="8.3445526"><ele>136.5</ele><time>2026-03-29T12:33:33.859Z</time></trkpt><trkpt lat="45.1243574" lon="8.3446689"><ele>137.0</ele><time>2026-03-29T12:33:34.859Z</time></trkpt><trkpt lat="45.1243777" lon="8.344774"><ele>137.5</ele><time>2026-03-29T12:33:35.869Z</time></trkpt><trkpt lat="45.1243992" lon="8.3448711"><ele>138.0</ele><time>2026-03-29T12:33:36.857Z</time></trkpt><trkpt lat="45.1244231" lon="8.344963"><ele>138.33333333333334</ele><time>2026-03-29T12:33:37.855Z</time></trkpt><trkpt lat="45.1244454" lon="8.3450567"><ele>138.66666666666666</ele><time>2026-03-29T12:33:38.862Z</time></trkpt><trkpt lat="45.1244595" lon="8.3451459"><ele>139.0</ele><time>2026-03-29T12:33:39.859Z</time></trkpt><trkpt lat="45.1244661" lon="8.3453209"><ele>139.33333333333331</ele><time>2026-03-29T12:33:41.858Z</time></trkpt><trkpt lat="45.1244558" lon="8.3454186"><ele>139.66666666666666</ele><time>2026-03-29T12:33:42.861Z</time></trkpt><trkpt lat="45.1244365" lon="8.3455303"><ele>140.0</ele><time>2026-03-29T12:33:43.869Z</time></trkpt><trkpt lat="45.1244047" lon="8.3456597"><ele>140.66666666666666</ele><time>2026-03-29T12:33:44.863Z</time></trkpt><trkpt lat="45.1243723" lon="8.3457863"><ele>141.33333333333331</ele><time>2026-03-29T12:33:45.859Z</time></trkpt><trkpt lat="45.1243454" lon="8.3458913"><ele>142.0</ele><time>2026-03-29T12:33:46.861Z</time></trkpt><trkpt lat="45.1243462" lon="8.3460093"><ele>142.66666666666666</ele><time>2026-03-29T12:33:48.865Z</time></trkpt><trkpt lat="45.1244272" lon="8.3460144"><ele>143.33333333333334</ele><time>2026-03-29T12:33:50.857Z</time></trkpt><trkpt lat="45.1244927" lon="8.3459924"><ele>144.0</ele><time>2026-03-29T12:33:51.866Z</time></trkpt><trkpt lat="45.1245851" lon="8.3459614"><ele>144.0</ele><time>2026-03-29T12:33:52.861Z</time></trkpt><trkpt lat="45.1246897" lon="8.345922"><ele>144.0</ele><time>2026-03-29T12:33:53.855Z</time></trkpt><trkpt lat="45.1248071" lon="8.3458913"><ele>144.0</ele><time>2026-03-29T12:33:54.859Z</time></trkpt><trkpt lat="45.1249267" lon="8.3458775"><ele>144.0</ele><time>2026-03-29T12:33:55.863Z</time></trkpt><trkpt lat="45.1250345" lon="8.3458608"><ele>144.16666666666666</ele><time>2026-03-29T12:33:56.865Z</time></trkpt><trkpt lat="45.1251294" lon="8.3458437"><ele>144.33333333333334</ele><time>2026-03-29T12:33:57.864Z</time></trkpt><trkpt lat="45.1252147" lon="8.3458252"><ele>144.5</ele><time>2026-03-29T12:33:58.858Z</time></trkpt><trkpt lat="45.1252998" lon="8.3458021"><ele>144.66666666666669</ele><time>2026-03-29T12:33:59.859Z</time></trkpt><trkpt lat="45.1253891" lon="8.3457774"><ele>144.83333333333334</ele><time>2026-03-29T12:34:00.859Z</time></trkpt><trkpt lat="45.1254661" lon="8.3457599"><ele>145.0</ele><time>2026-03-29T12:34:01.86Z</time></trkpt><trkpt lat="45.1255374" lon="8.3457345"><ele>145.0</ele><time>2026-03-29T12:34:02.858Z</time></trkpt><trkpt lat="45.1256362" lon="8.3457002"><ele>145.0</ele><time>2026-03-29T12:34:04.859Z</time></trkpt><trkpt lat="45.1257342" lon="8.3456343"><ele>145.0</ele><time>2026-03-29T12:34:07.857Z</time></trkpt><trkpt lat="45.1258189" lon="8.3455153"><ele>145.0</ele><time>2026-03-29T12:34:09.859Z</time></trkpt><trkpt lat="45.1259061" lon="8.3454616"><ele>145.0</ele><time>2026-03-29T12:34:10.86Z</time></trkpt><trkpt lat="45.1260111" lon="8.3454124"><ele>143.0</ele><time>2026-03-29T12:34:11.859Z</time></trkpt><trkpt lat="45.1261616" lon="8.3453565"><ele>141.0</ele><time>2026-03-29T12:34:12.856Z</time></trkpt><trkpt lat="45.1263601" lon="8.3452674"><ele>139.0</ele><time>2026-03-29T12:34:13.858Z</time></trkpt><trkpt lat="45.1265563" lon="8.3451833"><ele>138.33333333333334</ele><time>2026-03-29T12:34:14.861Z</time></trkpt><trkpt lat="45.1267477" lon="8.3451034"><ele>137.66666666666666</ele><time>2026-03-29T12:34:15.869Z</time></trkpt><trkpt lat="45.1269148" lon="8.3450362"><ele>137.0</ele><time>2026-03-29T12:34:16.869Z</time></trkpt><trkpt lat="45.1270673" lon="8.3449753"><ele>137.0</ele><time>2026-03-29T12:34:17.869Z</time></trkpt><trkpt lat="45.1272086" lon="8.3449165"><ele>137.0</ele><time>2026-03-29T12:34:18.86Z</time></trkpt><trkpt lat="45.1273443" lon="8.3448576"><ele>137.0</ele><time>2026-03-29T12:34:19.867Z</time></trkpt><trkpt lat="45.1274751" lon="8.344812"><ele>137.0</ele><time>2026-03-29T12:34:20.856Z</time></trkpt><trkpt lat="45.1275993" lon="8.3447774"><ele>136.4</ele><time>2026-03-29T12:34:21.856Z</time></trkpt><trkpt lat="45.1277138" lon="8.3447663"><ele>135.79999999999998</ele><time>2026-03-29T12:34:22.86Z</time></trkpt><trkpt lat="45.1278289" lon="8.3447539"><ele>135.2</ele><time>2026-03-29T12:34:23.863Z</time></trkpt><trkpt lat="45.1279429" lon="8.3447427"><ele>134.6</ele><time>2026-03-29T12:34:24.868Z</time></trkpt><trkpt lat="45.1280462" lon="8.3447256"><ele>134.0</ele><time>2026-03-29T12:34:25.859Z</time></trkpt><trkpt lat="45.1281408" lon="8.3447037"><ele>133.33333333333331</ele><time>2026-03-29T12:34:26.863Z</time></trkpt><trkpt lat="45.1282219" lon="8.344682"><ele>132.66666666666666</ele><time>2026-03-29T12:34:27.868Z</time></trkpt><trkpt lat="45.1282851" lon="8.3446587"><ele>132.0</ele><time>2026-03-29T12:34:28.878Z</time></trkpt><trkpt lat="45.1283976" lon="8.3446367"><ele>131.33333333333334</ele><time>2026-03-29T12:34:30.856Z</time></trkpt><trkpt lat="45.1284698" lon="8.3446308"><ele>130.66666666666669</ele><time>2026-03-29T12:34:31.86Z</time></trkpt><trkpt lat="45.1285482" lon="8.3446307"><ele>130.0</ele><time>2026-03-29T12:34:32.859Z</time></trkpt><trkpt lat="45.1286333" lon="8.3446175"><ele>130.0</ele><time>2026-03-29T12:34:33.859Z</time></trkpt><trkpt lat="45.128716" lon="8.3445911"><ele>130.0</ele><time>2026-03-29T12:34:34.858Z</time></trkpt><trkpt lat="45.1287971" lon="8.3445565"><ele>130.0</ele><time>2026-03-29T12:34:35.86Z</time></trkpt><trkpt lat="45.1288768" lon="8.3445145"><ele>130.0</ele><time>2026-03-29T12:34:36.86Z</time></trkpt><trkpt lat="45.1289486" lon="8.3444712"><ele>130.0</ele><time>2026-03-29T12:34:37.859Z</time></trkpt><trkpt lat="45.1290154" lon="8.3444279"><ele>130.0</ele><time>2026-03-29T12:34:38.858Z</time></trkpt><trkpt lat="45.1290751" lon="8.3443903"><ele>131.0</ele><time>2026-03-29T12:34:39.895Z</time></trkpt><trkpt lat="45.1291346" lon="8.3443561"><ele>132.0</ele><time>2026-03-29T12:34:40.862Z</time></trkpt><trkpt lat="45.1292443" lon="8.3443234"><ele>133.0</ele><time>2026-03-29T12:34:42.864Z</time></trkpt><trkpt lat="45.1293722" lon="8.3443269"><ele>134.0</ele><time>2026-03-29T12:34:44.862Z</time></trkpt><trkpt lat="45.1294436" lon="8.3443376"><ele>135.0</ele><time>2026-03-29T12:34:45.861Z</time></trkpt><trkpt lat="45.1295222" lon="8.3443537"><ele>135.0</ele><time>2026-03-29T12:34:46.862Z</time></trkpt><trkpt lat="45.1296093" lon="8.3443711"><ele>135.0</ele><time>2026-03-29T12:34:47.858Z</time></trkpt><trkpt lat="45.1297089" lon="8.3443764"><ele>135.0</ele><time>2026-03-29T12:34:48.861Z</time></trkpt><trkpt lat="45.1298072" lon="8.3443748"><ele>135.0</ele><time>2026-03-29T12:34:49.86Z</time></trkpt><trkpt lat="45.1299082" lon="8.34438"><ele>135.0</ele><time>2026-03-29T12:34:50.89Z</time></trkpt><trkpt lat="45.1300064" lon="8.3443852"><ele>134.66666666666666</ele><time>2026-03-29T12:34:51.863Z</time></trkpt><trkpt lat="45.1300883" lon="8.3444058"><ele>134.33333333333334</ele><time>2026-03-29T12:34:52.863Z</time></trkpt><trkpt lat="45.1301718" lon="8.3444227"><ele>134.0</ele><time>2026-03-29T12:34:53.862Z</time></trkpt><trkpt lat="45.1302559" lon="8.3444428"><ele>133.66666666666669</ele><time>2026-03-29T12:34:54.863Z</time></trkpt><trkpt lat="45.1303446" lon="8.3444553"><ele>133.33333333333334</ele><time>2026-03-29T12:34:55.866Z</time></trkpt><trkpt lat="45.1304333" lon="8.3444622"><ele>133.0</ele><time>2026-03-29T12:34:56.864Z</time></trkpt><trkpt lat="45.1305152" lon="8.3444717"><ele>133.0</ele><time>2026-03-29T12:34:57.86Z</time></trkpt><trkpt lat="45.1305893" lon="8.3444806"><ele>133.0</ele><time>2026-03-29T12:34:58.858Z</time></trkpt><trkpt lat="45.1306609" lon="8.3444799"><ele>133.0</ele><time>2026-03-29T12:34:59.861Z</time></trkpt><trkpt lat="45.1307284" lon="8.344484"><ele>133.0</ele><time>2026-03-29T12:35:00.859Z</time></trkpt><trkpt lat="45.1307958" lon="8.3444925"><ele>133.0</ele><time>2026-03-29T12:35:01.863Z</time></trkpt><trkpt lat="45.1308681" lon="8.3445039"><ele>133.0</ele><time>2026-03-29T12:35:02.859Z</time></trkpt><trkpt lat="45.1309472" lon="8.3445149"><ele>133.0</ele><time>2026-03-29T12:35:03.864Z</time></trkpt><trkpt lat="45.1310313" lon="8.3445265"><ele>132.83333333333334</ele><time>2026-03-29T12:35:04.894Z</time></trkpt><trkpt lat="45.1311179" lon="8.3445363"><ele>132.66666666666669</ele><time>2026-03-29T12:35:05.862Z</time></trkpt><trkpt lat="45.1312022" lon="8.3445469"><ele>132.5</ele><time>2026-03-29T12:35:06.864Z</time></trkpt><trkpt lat="45.1312841" lon="8.3445604"><ele>132.33333333333334</ele><time>2026-03-29T12:35:07.88Z</time></trkpt><trkpt lat="45.1313675" lon="8.344575"><ele>132.16666666666666</ele><time>2026-03-29T12:35:08.864Z</time></trkpt><trkpt lat="45.1314495" lon="8.3445954"><ele>132.0</ele><time>2026-03-29T12:35:09.858Z</time></trkpt><trkpt lat="45.1315267" lon="8.3446282"><ele>131.66666666666666</ele><time>2026-03-29T12:35:10.861Z</time></trkpt><trkpt lat="45.1315992" lon="8.3446769"><ele>131.33333333333334</ele><time>2026-03-29T12:35:11.859Z</time></trkpt><trkpt lat="45.1316666" lon="8.3447396"><ele>131.0</ele><time>2026-03-29T12:35:12.861Z</time></trkpt><trkpt lat="45.1317273" lon="8.3448212"><ele>130.66666666666669</ele><time>2026-03-29T12:35:13.861Z</time></trkpt><trkpt lat="45.1317826" lon="8.3449058"><ele>130.33333333333334</ele><time>2026-03-29T12:35:14.858Z</time></trkpt><trkpt lat="45.1318363" lon="8.344983"><ele>130.0</ele><time>2026-03-29T12:35:15.859Z</time></trkpt><trkpt lat="45.1318967" lon="8.3450464"><ele>130.0</ele><time>2026-03-29T12:35:16.895Z</time></trkpt><trkpt lat="45.1319649" lon="8.3450957"><ele>130.0</ele><time>2026-03-29T12:35:17.858Z</time></trkpt><trkpt lat="45.1320366" lon="8.3451326"><ele>130.0</ele><time>2026-03-29T12:35:18.86Z</time></trkpt><trkpt lat="45.1321131" lon="8.3451598"><ele>130.0</ele><time>2026-03-29T12:35:19.861Z</time></trkpt><trkpt lat="45.1321895" lon="8.3451817"><ele>130.0</ele><time>2026-03-29T12:35:20.86Z</time></trkpt><trkpt lat="45.1322646" lon="8.3452"><ele>130.0</ele><time>2026-03-29T12:35:21.864Z</time></trkpt><trkpt lat="45.1323409" lon="8.3452178"><ele>130.66666666666669</ele><time>2026-03-29T12:35:22.859Z</time></trkpt><trkpt lat="45.1324111" lon="8.3452418"><ele>131.33333333333334</ele><time>2026-03-29T12:35:23.862Z</time></trkpt><trkpt lat="45.1324735" lon="8.3452762"><ele>132.0</ele><time>2026-03-29T12:35:24.861Z</time></trkpt><trkpt lat="45.1325258" lon="8.3453267"><ele>132.66666666666666</ele><time>2026-03-29T12:35:25.867Z</time></trkpt><trkpt lat="45.1325696" lon="8.3454025"><ele>133.33333333333331</ele><time>2026-03-29T12:35:26.859Z</time></trkpt><trkpt lat="45.1326374" lon="8.345543"><ele>134.0</ele><time>2026-03-29T12:35:28.859Z</time></trkpt><trkpt lat="45.1327639" lon="8.3456114"><ele>133.83333333333331</ele><time>2026-03-29T12:35:30.865Z</time></trkpt><trkpt lat="45.1328484" lon="8.3456283"><ele>133.66666666666666</ele><time>2026-03-29T12:35:31.862Z</time></trkpt><trkpt lat="45.1329386" lon="8.3456425"><ele>133.5</ele><time>2026-03-29T12:35:32.867Z</time></trkpt><trkpt lat="45.1330244" lon="8.345657"><ele>133.33333333333334</ele><time>2026-03-29T12:35:33.859Z</time></trkpt><trkpt lat="45.1331064" lon="8.3456697"><ele>133.16666666666669</ele><time>2026-03-29T12:35:34.863Z</time></trkpt><trkpt lat="45.1331804" lon="8.3456822"><ele>133.0</ele><time>2026-03-29T12:35:35.861Z</time></trkpt><trkpt lat="45.1332446" lon="8.3456963"><ele>133.0</ele><time>2026-03-29T12:35:36.863Z</time></trkpt><trkpt lat="45.1333413" lon="8.345721"><ele>133.0</ele><time>2026-03-29T12:35:38.861Z</time></trkpt><trkpt lat="45.1334099" lon="8.3457249"><ele>133.0</ele><time>2026-03-29T12:35:40.866Z</time></trkpt><trkpt lat="45.1334617" lon="8.345644"><ele>133.0</ele><time>2026-03-29T12:35:44.862Z</time></trkpt><trkpt lat="45.1334834" lon="8.345523"><ele>133.0</ele><time>2026-03-29T12:35:47.862Z</time></trkpt><trkpt lat="45.1335314" lon="8.3454422"><ele>133.0</ele><time>2026-03-29T12:35:51.866Z</time></trkpt><trkpt lat="45.1336164" lon="8.3454712"><ele>133.0</ele><time>2026-03-29T12:35:54.862Z</time></trkpt><trkpt lat="45.133702" lon="8.34553"><ele>133.0</ele><time>2026-03-29T12:35:57.859Z</time></trkpt><trkpt lat="45.1337906" lon="8.3455648"><ele>133.0</ele><time>2026-03-29T12:35:59.86Z</time></trkpt><trkpt lat="45.1338874" lon="8.3455951"><ele>133.0</ele><time>2026-03-29T12:36:01.867Z</time></trkpt><trkpt lat="45.133998" lon="8.3456347"><ele>133.0</ele><time>2026-03-29T12:36:03.863Z</time></trkpt><trkpt lat="45.1340654" lon="8.3456579"><ele>131.83333333333334</ele><time>2026-03-29T12:36:04.89Z</time></trkpt><trkpt lat="45.1341331" lon="8.3456829"><ele>130.66666666666669</ele><time>2026-03-29T12:36:05.867Z</time></trkpt><trkpt lat="45.1341962" lon="8.3457076"><ele>129.5</ele><time>2026-03-29T12:36:06.861Z</time></trkpt><trkpt lat="45.1343041" lon="8.3457502"><ele>128.33333333333334</ele><time>2026-03-29T12:36:08.864Z</time></trkpt><trkpt lat="45.1343744" lon="8.3457857"><ele>127.16666666666667</ele><time>2026-03-29T12:36:10.864Z</time></trkpt><trkpt lat="45.1344742" lon="8.3458191"><ele>126.0</ele><time>2026-03-29T12:36:12.864Z</time></trkpt><trkpt lat="45.1345397" lon="8.3458411"><ele>126.0</ele><time>2026-03-29T12:36:13.862Z</time></trkpt><trkpt lat="45.1346148" lon="8.3458643"><ele>126.0</ele><time>2026-03-29T12:36:14.865Z</time></trkpt><trkpt lat="45.1346972" lon="8.345891"><ele>126.0</ele><time>2026-03-29T12:36:15.89Z</time></trkpt><trkpt lat="45.1347793" lon="8.3459216"><ele>126.0</ele><time>2026-03-29T12:36:16.859Z</time></trkpt><trkpt lat="45.1348541" lon="8.3459517"><ele>126.0</ele><time>2026-03-29T12:36:17.863Z</time></trkpt><trkpt lat="45.1349193" lon="8.3459729"><ele>126.0</ele><time>2026-03-29T12:36:18.865Z</time></trkpt><trkpt lat="45.1350151" lon="8.3460019"><ele>127.0</ele><time>2026-03-29T12:36:20.862Z</time></trkpt><trkpt lat="45.135076" lon="8.3460319"><ele>128.0</ele><time>2026-03-29T12:36:22.865Z</time></trkpt><trkpt lat="45.1350682" lon="8.3461545"><ele>129.0</ele><time>2026-03-29T12:36:27.867Z</time></trkpt><trkpt lat="45.135021" lon="8.3462907"><ele>130.0</ele><time>2026-03-29T12:36:29.863Z</time></trkpt><trkpt lat="45.1349899" lon="8.3463711"><ele>131.0</ele><time>2026-03-29T12:36:30.871Z</time></trkpt><trkpt lat="45.1349623" lon="8.3464538"><ele>132.0</ele><time>2026-03-29T12:36:31.867Z</time></trkpt><trkpt lat="45.1349152" lon="8.3466034"><ele>131.66666666666666</ele><time>2026-03-29T12:36:33.867Z</time></trkpt><trkpt lat="45.1348679" lon="8.3467529"><ele>131.33333333333334</ele><time>2026-03-29T12:36:35.865Z</time></trkpt><trkpt lat="45.1348424" lon="8.3468383"><ele>131.0</ele><time>2026-03-29T12:36:36.862Z</time></trkpt><trkpt lat="45.1348139" lon="8.3469326"><ele>130.66666666666669</ele><time>2026-03-29T12:36:37.862Z</time></trkpt><trkpt lat="45.1347828" lon="8.3470259"><ele>130.33333333333334</ele><time>2026-03-29T12:36:38.862Z</time></trkpt><trkpt lat="45.1347543" lon="8.3471121"><ele>130.0</ele><time>2026-03-29T12:36:39.865Z</time></trkpt><trkpt lat="45.1347098" lon="8.3472579"><ele>130.83333333333334</ele><time>2026-03-29T12:36:41.866Z</time></trkpt><trkpt lat="45.1346847" lon="8.3473579"><ele>131.66666666666669</ele><time>2026-03-29T12:36:43.868Z</time></trkpt><trkpt lat="45.1347103" lon="8.3474444"><ele>132.5</ele><time>2026-03-29T12:36:46.867Z</time></trkpt><trkpt lat="45.1347985" lon="8.3474864"><ele>133.33333333333334</ele><time>2026-03-29T12:36:48.861Z</time></trkpt><trkpt lat="45.1349254" lon="8.347526"><ele>134.16666666666666</ele><time>2026-03-29T12:36:50.864Z</time></trkpt><trkpt lat="45.134987" lon="8.3475455"><ele>135.0</ele><time>2026-03-29T12:36:51.862Z</time></trkpt><trkpt lat="45.1350828" lon="8.3475892"><ele>135.0</ele><time>2026-03-29T12:36:53.86Z</time></trkpt><trkpt lat="45.1351401" lon="8.347639"><ele>135.0</ele><time>2026-03-29T12:36:55.873Z</time></trkpt><trkpt lat="45.1351997" lon="8.3476893"><ele>135.0</ele><time>2026-03-29T12:37:08.861Z</time></trkpt><trkpt lat="45.135271" lon="8.3477066"><ele>135.0</ele><time>2026-03-29T12:37:15.861Z</time></trkpt><trkpt lat="45.1353415" lon="8.3477257"><ele>135.0</ele><time>2026-03-29T12:37:19.868Z</time></trkpt><trkpt lat="45.1354335" lon="8.3477023"><ele>135.0</ele><time>2026-03-29T12:37:22.861Z</time></trkpt><trkpt lat="45.1355161" lon="8.3476914"><ele>135.0</ele><time>2026-03-29T12:37:24.863Z</time></trkpt><trkpt lat="45.1356033" lon="8.3476968"><ele>135.0</ele><time>2026-03-29T12:37:26.873Z</time></trkpt><trkpt lat="45.135695" lon="8.3476883"><ele>135.0</ele><time>2026-03-29T12:37:28.861Z</time></trkpt><trkpt lat="45.1357971" lon="8.347655"><ele>135.0</ele><time>2026-03-29T12:37:30.861Z</time></trkpt><trkpt lat="45.1359016" lon="8.3476138"><ele>135.0</ele><time>2026-03-29T12:37:32.864Z</time></trkpt><trkpt lat="45.1360168" lon="8.3475841"><ele>134.5</ele><time>2026-03-29T12:37:34.863Z</time></trkpt><trkpt lat="45.136088" lon="8.3475706"><ele>134.0</ele><time>2026-03-29T12:37:35.87Z</time></trkpt><trkpt lat="45.136166" lon="8.3475591"><ele>133.5</ele><time>2026-03-29T12:37:36.866Z</time></trkpt><trkpt lat="45.1362477" lon="8.3475519"><ele>133.0</ele><time>2026-03-29T12:37:37.862Z</time></trkpt><trkpt lat="45.1363242" lon="8.3475398"><ele>132.5</ele><time>2026-03-29T12:37:38.861Z</time></trkpt><trkpt lat="45.1363951" lon="8.3475329"><ele>132.0</ele><time>2026-03-29T12:37:39.86Z</time></trkpt><trkpt lat="45.1364655" lon="8.3475312"><ele>132.0</ele><time>2026-03-29T12:37:40.867Z</time></trkpt><trkpt lat="45.1365312" lon="8.3475453"><ele>132.0</ele><time>2026-03-29T12:37:41.862Z</time></trkpt><trkpt lat="45.1365971" lon="8.3475745"><ele>132.0</ele><time>2026-03-29T12:37:42.861Z</time></trkpt><trkpt lat="45.1366595" lon="8.3476206"><ele>132.0</ele><time>2026-03-29T12:37:43.86Z</time></trkpt><trkpt lat="45.1367217" lon="8.3476738"><ele>132.0</ele><time>2026-03-29T12:37:44.875Z</time></trkpt><trkpt lat="45.1367799" lon="8.3477296"><ele>132.0</ele><time>2026-03-29T12:37:45.863Z</time></trkpt><trkpt lat="45.1368824" lon="8.3478209"><ele>131.83333333333334</ele><time>2026-03-29T12:37:47.865Z</time></trkpt><trkpt lat="45.1370054" lon="8.3478729"><ele>131.66666666666666</ele><time>2026-03-29T12:37:49.863Z</time></trkpt><trkpt lat="45.1370793" lon="8.3478902"><ele>131.5</ele><time>2026-03-29T12:37:50.864Z</time></trkpt><trkpt lat="45.1371606" lon="8.3479133"><ele>131.33333333333331</ele><time>2026-03-29T12:37:51.892Z</time></trkpt><trkpt lat="45.1372363" lon="8.3479359"><ele>131.16666666666666</ele><time>2026-03-29T12:37:52.859Z</time></trkpt><trkpt lat="45.1373086" lon="8.3479604"><ele>131.0</ele><time>2026-03-29T12:37:53.86Z</time></trkpt><trkpt lat="45.1373709" lon="8.3479833"><ele>130.66666666666666</ele><time>2026-03-29T12:37:54.861Z</time></trkpt><trkpt lat="45.1374676" lon="8.3480119"><ele>130.33333333333331</ele><time>2026-03-29T12:37:56.863Z</time></trkpt><trkpt lat="45.1375438" lon="8.3479965"><ele>130.0</ele><time>2026-03-29T12:37:58.867Z</time></trkpt><trkpt lat="45.1376114" lon="8.3479161"><ele>129.66666666666666</ele><time>2026-03-29T12:38:00.867Z</time></trkpt><trkpt lat="45.13764" lon="8.3478348"><ele>129.33333333333334</ele><time>2026-03-29T12:38:01.863Z</time></trkpt><trkpt lat="45.1376601" lon="8.3477403"><ele>129.0</ele><time>2026-03-29T12:38:02.861Z</time></trkpt><trkpt lat="45.1376746" lon="8.3476505"><ele>129.0</ele><time>2026-03-29T12:38:03.868Z</time></trkpt><trkpt lat="45.1377083" lon="8.3475011"><ele>129.0</ele><time>2026-03-29T12:38:05.864Z</time></trkpt><trkpt lat="45.1377612" lon="8.3474114"><ele>129.0</ele><time>2026-03-29T12:38:07.867Z</time></trkpt><trkpt lat="45.1378424" lon="8.3473935"><ele>129.0</ele><time>2026-03-29T12:38:09.858Z</time></trkpt><trkpt lat="45.13795" lon="8.347402"><ele>129.0</ele><time>2026-03-29T12:38:11.875Z</time></trkpt><trkpt lat="45.1380567" lon="8.3473827"><ele>129.0</ele><time>2026-03-29T12:38:13.898Z</time></trkpt><trkpt lat="45.1381362" lon="8.3473353"><ele>129.0</ele><time>2026-03-29T12:38:15.859Z</time></trkpt><trkpt lat="45.1382092" lon="8.3473028"><ele>129.0</ele><time>2026-03-29T12:38:17.864Z</time></trkpt><trkpt lat="45.1382864" lon="8.3473159"><ele>129.0</ele><time>2026-03-29T12:38:19.864Z</time></trkpt><trkpt lat="45.1383782" lon="8.3473455"><ele>129.0</ele><time>2026-03-29T12:38:21.861Z</time></trkpt><trkpt lat="45.138602" lon="8.3472811"><ele>128.83333333333334</ele><time>2026-03-29T12:38:26.866Z</time></trkpt><trkpt lat="45.1386682" lon="8.3471564"><ele>128.66666666666666</ele><time>2026-03-29T12:38:28.858Z</time></trkpt><trkpt lat="45.1387031" lon="8.3470792"><ele>128.5</ele><time>2026-03-29T12:38:29.856Z</time></trkpt><trkpt lat="45.1387387" lon="8.3469886"><ele>128.33333333333331</ele><time>2026-03-29T12:38:30.863Z</time></trkpt><trkpt lat="45.1387791" lon="8.3468914"><ele>128.16666666666666</ele><time>2026-03-29T12:38:31.861Z</time></trkpt><trkpt lat="45.1388194" lon="8.3467978"><ele>128.0</ele><time>2026-03-29T12:38:32.888Z</time></trkpt><trkpt lat="45.1388605" lon="8.3467055"><ele>127.99999999999999</ele><time>2026-03-29T12:38:33.862Z</time></trkpt><trkpt lat="45.1389003" lon="8.3466162"><ele>128.0</ele><time>2026-03-29T12:38:34.861Z</time></trkpt><trkpt lat="45.1389393" lon="8.3465279"><ele>128.0</ele><time>2026-03-29T12:38:35.893Z</time></trkpt><trkpt lat="45.1389736" lon="8.3464424"><ele>128.0</ele><time>2026-03-29T12:38:36.86Z</time></trkpt><trkpt lat="45.1390048" lon="8.3463642"><ele>127.99999999999999</ele><time>2026-03-29T12:38:37.869Z</time></trkpt><trkpt lat="45.1390503" lon="8.3462426"><ele>128.0</ele><time>2026-03-29T12:38:39.857Z</time></trkpt><trkpt lat="45.1391112" lon="8.3461752"><ele>127.49999999999999</ele><time>2026-03-29T12:38:41.864Z</time></trkpt><trkpt lat="45.1392139" lon="8.3461872"><ele>127.0</ele><time>2026-03-29T12:38:43.857Z</time></trkpt><trkpt lat="45.1392852" lon="8.3462198"><ele>126.5</ele><time>2026-03-29T12:38:44.866Z</time></trkpt><trkpt lat="45.1393583" lon="8.3462572"><ele>126.0</ele><time>2026-03-29T12:38:45.867Z</time></trkpt><trkpt lat="45.1394229" lon="8.3462868"><ele>125.49999999999999</ele><time>2026-03-29T12:38:46.894Z</time></trkpt><trkpt lat="45.1395064" lon="8.3463292"><ele>125.0</ele><time>2026-03-29T12:38:48.856Z</time></trkpt><trkpt lat="45.1395917" lon="8.3463021"><ele>124.99999999999999</ele><time>2026-03-29T12:38:58.861Z</time></trkpt><trkpt lat="45.1396442" lon="8.3461883"><ele>125.0</ele><time>2026-03-29T12:39:00.859Z</time></trkpt><trkpt lat="45.1396697" lon="8.3460886"><ele>125.0</ele><time>2026-03-29T12:39:01.856Z</time></trkpt><trkpt lat="45.1396966" lon="8.3459725"><ele>125.0</ele><time>2026-03-29T12:39:02.862Z</time></trkpt><trkpt lat="45.1397284" lon="8.3458575"><ele>124.99999999999999</ele><time>2026-03-29T12:39:03.854Z</time></trkpt><trkpt lat="45.1397714" lon="8.3457324"><ele>125.0</ele><time>2026-03-29T12:39:04.868Z</time></trkpt><trkpt lat="45.1398236" lon="8.3456019"><ele>125.2</ele><time>2026-03-29T12:39:05.868Z</time></trkpt><trkpt lat="45.1398747" lon="8.3454714"><ele>125.4</ele><time>2026-03-29T12:39:06.866Z</time></trkpt><trkpt lat="45.1399303" lon="8.3453537"><ele>125.6</ele><time>2026-03-29T12:39:07.859Z</time></trkpt><trkpt lat="45.1399894" lon="8.3452551"><ele>125.8</ele><time>2026-03-29T12:39:08.862Z</time></trkpt><trkpt lat="45.1400568" lon="8.3451831"><ele>126.0</ele><time>2026-03-29T12:39:09.86Z</time></trkpt><trkpt lat="45.140135" lon="8.3451503"><ele>126.25</ele><time>2026-03-29T12:39:10.863Z</time></trkpt><trkpt lat="45.1402294" lon="8.3451453"><ele>126.5</ele><time>2026-03-29T12:39:11.857Z</time></trkpt><trkpt lat="45.1403377" lon="8.345179"><ele>126.75</ele><time>2026-03-29T12:39:12.877Z</time></trkpt><trkpt lat="45.1404738" lon="8.3452531"><ele>127.0</ele><time>2026-03-29T12:39:13.861Z</time></trkpt><trkpt lat="45.1406316" lon="8.3453485"><ele>127.33333333333334</ele><time>2026-03-29T12:39:14.864Z</time></trkpt><trkpt lat="45.1407862" lon="8.345452"><ele>127.66666666666666</ele><time>2026-03-29T12:39:15.864Z</time></trkpt><trkpt lat="45.1409466" lon="8.3455339"><ele>128.0</ele><time>2026-03-29T12:39:16.862Z</time></trkpt><trkpt lat="45.1411047" lon="8.3455808"><ele>128.0</ele><time>2026-03-29T12:39:17.869Z</time></trkpt><trkpt lat="45.1412458" lon="8.3455926"><ele>128.0</ele><time>2026-03-29T12:39:18.869Z</time></trkpt><trkpt lat="45.1413733" lon="8.3455572"><ele>128.0</ele><time>2026-03-29T12:39:19.86Z</time></trkpt><trkpt lat="45.1414919" lon="8.3454854"><ele>128.0</ele><time>2026-03-29T12:39:20.86Z</time></trkpt><trkpt lat="45.1415958" lon="8.3453704"><ele>127.66666666666666</ele><time>2026-03-29T12:39:21.859Z</time></trkpt><trkpt lat="45.1416872" lon="8.3452163"><ele>127.33333333333334</ele><time>2026-03-29T12:39:22.892Z</time></trkpt><trkpt lat="45.1417621" lon="8.3450235"><ele>127.0</ele><time>2026-03-29T12:39:23.867Z</time></trkpt><trkpt lat="45.1418216" lon="8.3448067"><ele>127.66666666666667</ele><time>2026-03-29T12:39:24.868Z</time></trkpt><trkpt lat="45.1418758" lon="8.3445812"><ele>128.33333333333334</ele><time>2026-03-29T12:39:25.87Z</time></trkpt><trkpt lat="45.1419421" lon="8.3443641"><ele>129.0</ele><time>2026-03-29T12:39:26.866Z</time></trkpt><trkpt lat="45.142018" lon="8.3441699"><ele>129.0</ele><time>2026-03-29T12:39:27.859Z</time></trkpt><trkpt lat="45.1421081" lon="8.3439995"><ele>129.0</ele><time>2026-03-29T12:39:28.858Z</time></trkpt><trkpt lat="45.1422173" lon="8.3438493"><ele>129.0</ele><time>2026-03-29T12:39:29.857Z</time></trkpt><trkpt lat="45.1423504" lon="8.3437212"><ele>129.0</ele><time>2026-03-29T12:39:30.861Z</time></trkpt><trkpt lat="45.1425003" lon="8.3436271"><ele>129.0</ele><time>2026-03-29T12:39:31.862Z</time></trkpt><trkpt lat="45.1426617" lon="8.3435612"><ele>129.0</ele><time>2026-03-29T12:39:32.868Z</time></trkpt><trkpt lat="45.1428376" lon="8.3435125"><ele>129.0</ele><time>2026-03-29T12:39:33.869Z</time></trkpt><trkpt lat="45.1430265" lon="8.3434575"><ele>129.0</ele><time>2026-03-29T12:39:34.886Z</time></trkpt><trkpt lat="45.1432266" lon="8.3433805"><ele>129.0</ele><time>2026-03-29T12:39:35.862Z</time></trkpt><trkpt lat="45.1434352" lon="8.343289"><ele>129.0</ele><time>2026-03-29T12:39:36.87Z</time></trkpt><trkpt lat="45.1436483" lon="8.3431904"><ele>129.0</ele><time>2026-03-29T12:39:37.866Z</time></trkpt><trkpt lat="45.1438641" lon="8.3430856"><ele>128.5</ele><time>2026-03-29T12:39:38.863Z</time></trkpt><trkpt lat="45.1440784" lon="8.3429711"><ele>128.0</ele><time>2026-03-29T12:39:39.861Z</time></trkpt><trkpt lat="45.1442887" lon="8.3428483"><ele>128.0</ele><time>2026-03-29T12:39:40.862Z</time></trkpt><trkpt lat="45.1444968" lon="8.3427111"><ele>128.0</ele><time>2026-03-29T12:39:41.862Z</time></trkpt><trkpt lat="45.1447032" lon="8.3425597"><ele>127.5</ele><time>2026-03-29T12:39:42.862Z</time></trkpt><trkpt lat="45.1449114" lon="8.3423963"><ele>127.0</ele><time>2026-03-29T12:39:43.866Z</time></trkpt><trkpt lat="45.1451219" lon="8.3422186"><ele>127.5</ele><time>2026-03-29T12:39:44.863Z</time></trkpt><trkpt lat="45.1453345" lon="8.3420303"><ele>128.0</ele><time>2026-03-29T12:39:45.865Z</time></trkpt><trkpt lat="45.1455495" lon="8.3418371"><ele>128.5</ele><time>2026-03-29T12:39:46.861Z</time></trkpt><trkpt lat="45.1457708" lon="8.3416392"><ele>129.0</ele><time>2026-03-29T12:39:47.861Z</time></trkpt><trkpt lat="45.1459957" lon="8.3414364"><ele>126.5</ele><time>2026-03-29T12:39:48.863Z</time></trkpt><trkpt lat="45.1462241" lon="8.3412325"><ele>124.0</ele><time>2026-03-29T12:39:49.867Z</time></trkpt><trkpt lat="45.1464533" lon="8.3410278"><ele>120.0</ele><time>2026-03-29T12:39:50.859Z</time></trkpt><trkpt lat="45.1466807" lon="8.3408246"><ele>116.0</ele><time>2026-03-29T12:39:51.869Z</time></trkpt><trkpt lat="45.1469088" lon="8.3406222"><ele>116.0</ele><time>2026-03-29T12:39:52.864Z</time></trkpt><trkpt lat="45.1471356" lon="8.3404213"><ele>116.0</ele><time>2026-03-29T12:39:53.862Z</time></trkpt><trkpt lat="45.1473595" lon="8.3402233"><ele>115.5</ele><time>2026-03-29T12:39:54.864Z</time></trkpt><trkpt lat="45.1475771" lon="8.3400296"><ele>115.0</ele><time>2026-03-29T12:39:55.863Z</time></trkpt><trkpt lat="45.1477881" lon="8.3398437"><ele>116.0</ele><time>2026-03-29T12:39:56.864Z</time></trkpt><trkpt lat="45.1479908" lon="8.3396659"><ele>117.0</ele><time>2026-03-29T12:39:57.864Z</time></trkpt><trkpt lat="45.1481887" lon="8.3394901"><ele>118.5</ele><time>2026-03-29T12:39:58.869Z</time></trkpt><trkpt lat="45.1483857" lon="8.3393154"><ele>120.0</ele><time>2026-03-29T12:39:59.863Z</time></trkpt><trkpt lat="45.1485849" lon="8.3391382"><ele>120.0</ele><time>2026-03-29T12:40:00.865Z</time></trkpt><trkpt lat="45.1487867" lon="8.3389581"><ele>120.0</ele><time>2026-03-29T12:40:01.862Z</time></trkpt><trkpt lat="45.1489913" lon="8.3387751"><ele>121.0</ele><time>2026-03-29T12:40:02.862Z</time></trkpt><trkpt lat="45.1491973" lon="8.3385923"><ele>122.0</ele><time>2026-03-29T12:40:03.863Z</time></trkpt><trkpt lat="45.1494048" lon="8.3384104"><ele>122.0</ele><time>2026-03-29T12:40:04.864Z</time></trkpt><trkpt lat="45.1496143" lon="8.3382236"><ele>122.0</ele><time>2026-03-29T12:40:05.863Z</time></trkpt><trkpt lat="45.1498244" lon="8.3380341"><ele>122.0</ele><time>2026-03-29T12:40:06.86Z</time></trkpt><trkpt lat="45.1500335" lon="8.3378452"><ele>122.0</ele><time>2026-03-29T12:40:07.873Z</time></trkpt><trkpt lat="45.1502433" lon="8.3376556"><ele>122.0</ele><time>2026-03-29T12:40:08.866Z</time></trkpt><trkpt lat="45.1504545" lon="8.3374665"><ele>122.0</ele><time>2026-03-29T12:40:09.862Z</time></trkpt><trkpt lat="45.150669" lon="8.3372753"><ele>122.0</ele><time>2026-03-29T12:40:10.858Z</time></trkpt><trkpt lat="45.150886" lon="8.3370844"><ele>122.0</ele><time>2026-03-29T12:40:11.863Z</time></trkpt><trkpt lat="45.1511053" lon="8.3368923"><ele>122.0</ele><time>2026-03-29T12:40:12.858Z</time></trkpt><trkpt lat="45.1513242" lon="8.3366992"><ele>122.0</ele><time>2026-03-29T12:40:13.864Z</time></trkpt><trkpt lat="45.1515432" lon="8.3365049"><ele>122.0</ele><time>2026-03-29T12:40:14.872Z</time></trkpt><trkpt lat="45.1517612" lon="8.3363103"><ele>122.0</ele><time>2026-03-29T12:40:15.863Z</time></trkpt><trkpt lat="45.15198" lon="8.3361151"><ele>122.0</ele><time>2026-03-29T12:40:16.86Z</time></trkpt><trkpt lat="45.1522012" lon="8.3359208"><ele>122.0</ele><time>2026-03-29T12:40:17.867Z</time></trkpt><trkpt lat="45.1524181" lon="8.3357303"><ele>121.5</ele><time>2026-03-29T12:40:18.863Z</time></trkpt><trkpt lat="45.1526263" lon="8.3355461"><ele>121.0</ele><time>2026-03-29T12:40:19.859Z</time></trkpt><trkpt lat="45.1528226" lon="8.3353684"><ele>121.0</ele><time>2026-03-29T12:40:20.866Z</time></trkpt><trkpt lat="45.1530148" lon="8.3351943"><ele>121.0</ele><time>2026-03-29T12:40:21.867Z</time></trkpt><trkpt lat="45.1532116" lon="8.3350159"><ele>121.0</ele><time>2026-03-29T12:40:22.852Z</time></trkpt><trkpt lat="45.1534117" lon="8.3348307"><ele>121.0</ele><time>2026-03-29T12:40:23.86Z</time></trkpt><trkpt lat="45.1536189" lon="8.3346391"><ele>121.0</ele><time>2026-03-29T12:40:24.857Z</time></trkpt><trkpt lat="45.153831" lon="8.3344427"><ele>121.0</ele><time>2026-03-29T12:40:25.879Z</time></trkpt><trkpt lat="45.1540481" lon="8.3342471"><ele>121.5</ele><time>2026-03-29T12:40:26.861Z</time></trkpt><trkpt lat="45.154267" lon="8.3340534"><ele>122.0</ele><time>2026-03-29T12:40:27.863Z</time></trkpt><trkpt lat="45.1544855" lon="8.3338606"><ele>122.0</ele><time>2026-03-29T12:40:28.862Z</time></trkpt><trkpt lat="45.1547072" lon="8.333669"><ele>122.0</ele><time>2026-03-29T12:40:29.86Z</time></trkpt><trkpt lat="45.154932" lon="8.3334809"><ele>123.0</ele><time>2026-03-29T12:40:30.859Z</time></trkpt><trkpt lat="45.1551615" lon="8.3332978"><ele>124.0</ele><time>2026-03-29T12:40:31.862Z</time></trkpt><trkpt lat="45.1553942" lon="8.3331256"><ele>123.5</ele><time>2026-03-29T12:40:32.863Z</time></trkpt><trkpt lat="45.1556302" lon="8.332964"><ele>123.0</ele><time>2026-03-29T12:40:33.871Z</time></trkpt><trkpt lat="45.155869" lon="8.3328115"><ele>123.0</ele><time>2026-03-29T12:40:34.861Z</time></trkpt><trkpt lat="45.1561132" lon="8.3326696"><ele>123.0</ele><time>2026-03-29T12:40:35.857Z</time></trkpt><trkpt lat="45.1563572" lon="8.3325398"><ele>123.5</ele><time>2026-03-29T12:40:36.873Z</time></trkpt><trkpt lat="45.1565995" lon="8.332423"><ele>124.0</ele><time>2026-03-29T12:40:37.861Z</time></trkpt><trkpt lat="45.1568416" lon="8.3323192"><ele>124.0</ele><time>2026-03-29T12:40:38.86Z</time></trkpt><trkpt lat="45.1570857" lon="8.332226"><ele>124.0</ele><time>2026-03-29T12:40:39.889Z</time></trkpt><trkpt lat="45.1573299" lon="8.3321432"><ele>124.5</ele><time>2026-03-29T12:40:40.864Z</time></trkpt><trkpt lat="45.1575778" lon="8.3320699"><ele>125.0</ele><time>2026-03-29T12:40:41.861Z</time></trkpt><trkpt lat="45.1578298" lon="8.3320055"><ele>125.0</ele><time>2026-03-29T12:40:42.863Z</time></trkpt><trkpt lat="45.1580857" lon="8.3319497"><ele>125.0</ele><time>2026-03-29T12:40:43.864Z</time></trkpt><trkpt lat="45.1583463" lon="8.3319013"><ele>124.0</ele><time>2026-03-29T12:40:44.862Z</time></trkpt><trkpt lat="45.1586067" lon="8.3318626"><ele>123.0</ele><time>2026-03-29T12:40:45.865Z</time></trkpt><trkpt lat="45.1588669" lon="8.331835"><ele>123.5</ele><time>2026-03-29T12:40:46.863Z</time></trkpt><trkpt lat="45.1591237" lon="8.3318196"><ele>124.0</ele><time>2026-03-29T12:40:47.87Z</time></trkpt><trkpt lat="45.159381" lon="8.3318136"><ele>124.0</ele><time>2026-03-29T12:40:48.863Z</time></trkpt><trkpt lat="45.1596415" lon="8.3318191"><ele>124.0</ele><time>2026-03-29T12:40:49.873Z</time></trkpt><trkpt lat="45.1599047" lon="8.3318323"><ele>123.5</ele><time>2026-03-29T12:40:50.868Z</time></trkpt><trkpt lat="45.160168" lon="8.3318507"><ele>123.0</ele><time>2026-03-29T12:40:51.865Z</time></trkpt><trkpt lat="45.1604329" lon="8.3318696"><ele>123.0</ele><time>2026-03-29T12:40:52.867Z</time></trkpt><trkpt lat="45.160699" lon="8.3318901"><ele>123.0</ele><time>2026-03-29T12:40:53.865Z</time></trkpt><trkpt lat="45.160969" lon="8.3319096"><ele>123.0</ele><time>2026-03-29T12:40:54.862Z</time></trkpt><trkpt lat="45.1612425" lon="8.3319289"><ele>123.0</ele><time>2026-03-29T12:40:55.865Z</time></trkpt><trkpt lat="45.1615183" lon="8.3319441"><ele>123.5</ele><time>2026-03-29T12:40:56.867Z</time></trkpt><trkpt lat="45.1617906" lon="8.3319543"><ele>124.0</ele><time>2026-03-29T12:40:57.863Z</time></trkpt><trkpt lat="45.1620536" lon="8.331962"><ele>124.0</ele><time>2026-03-29T12:40:58.864Z</time></trkpt><trkpt lat="45.1623075" lon="8.3319664"><ele>124.0</ele><time>2026-03-29T12:40:59.855Z</time></trkpt><trkpt lat="45.1625516" lon="8.3319719"><ele>124.0</ele><time>2026-03-29T12:41:00.864Z</time></trkpt><trkpt lat="45.1627868" lon="8.3319793"><ele>124.0</ele><time>2026-03-29T12:41:01.86Z</time></trkpt><trkpt lat="45.1630173" lon="8.3319889"><ele>124.5</ele><time>2026-03-29T12:41:02.87Z</time></trkpt><trkpt lat="45.16325" lon="8.3319987"><ele>125.0</ele><time>2026-03-29T12:41:03.86Z</time></trkpt><trkpt lat="45.1634863" lon="8.3320058"><ele>125.0</ele><time>2026-03-29T12:41:04.861Z</time></trkpt><trkpt lat="45.163725" lon="8.3320111"><ele>125.0</ele><time>2026-03-29T12:41:05.863Z</time></trkpt><trkpt lat="45.1639653" lon="8.332017"><ele>124.5</ele><time>2026-03-29T12:41:06.868Z</time></trkpt><trkpt lat="45.1642049" lon="8.3320273"><ele>124.0</ele><time>2026-03-29T12:41:07.864Z</time></trkpt><trkpt lat="45.164444" lon="8.3320374"><ele>124.0</ele><time>2026-03-29T12:41:08.865Z</time></trkpt><trkpt lat="45.1646832" lon="8.3320455"><ele>124.0</ele><time>2026-03-29T12:41:09.863Z</time></trkpt><trkpt lat="45.164921" lon="8.3320563"><ele>124.5</ele><time>2026-03-29T12:41:10.87Z</time></trkpt><trkpt lat="45.1651536" lon="8.3320668"><ele>125.0</ele><time>2026-03-29T12:41:11.865Z</time></trkpt><trkpt lat="45.1653769" lon="8.3320769"><ele>125.0</ele><time>2026-03-29T12:41:12.862Z</time></trkpt><trkpt lat="45.16559" lon="8.3320847"><ele>125.0</ele><time>2026-03-29T12:41:13.863Z</time></trkpt><trkpt lat="45.165793" lon="8.332089"><ele>125.0</ele><time>2026-03-29T12:41:14.862Z</time></trkpt><trkpt lat="45.1659851" lon="8.3320958"><ele>124.66666666666666</ele><time>2026-03-29T12:41:15.873Z</time></trkpt><trkpt lat="45.1661672" lon="8.3321011"><ele>124.33333333333334</ele><time>2026-03-29T12:41:16.857Z</time></trkpt><trkpt lat="45.1663386" lon="8.3321062"><ele>124.0</ele><time>2026-03-29T12:41:17.86Z</time></trkpt><trkpt lat="45.1664992" lon="8.332111"><ele>124.33333333333334</ele><time>2026-03-29T12:41:18.878Z</time></trkpt><trkpt lat="45.1666636" lon="8.3321152"><ele>124.66666666666666</ele><time>2026-03-29T12:41:19.871Z</time></trkpt><trkpt lat="45.1668375" lon="8.3321238"><ele>125.0</ele><time>2026-03-29T12:41:20.866Z</time></trkpt><trkpt lat="45.1670212" lon="8.332135"><ele>125.0</ele><time>2026-03-29T12:41:21.867Z</time></trkpt><trkpt lat="45.1672099" lon="8.3321477"><ele>125.0</ele><time>2026-03-29T12:41:22.861Z</time></trkpt><trkpt lat="45.1673966" lon="8.3321602"><ele>125.0</ele><time>2026-03-29T12:41:23.859Z</time></trkpt><trkpt lat="45.1675879" lon="8.3321711"><ele>124.33333333333333</ele><time>2026-03-29T12:41:24.864Z</time></trkpt><trkpt lat="45.1677826" lon="8.3321802"><ele>123.66666666666666</ele><time>2026-03-29T12:41:25.862Z</time></trkpt><trkpt lat="45.1679754" lon="8.3321895"><ele>123.0</ele><time>2026-03-29T12:41:26.862Z</time></trkpt><trkpt lat="45.1681674" lon="8.332199"><ele>123.33333333333334</ele><time>2026-03-29T12:41:27.861Z</time></trkpt><trkpt lat="45.1683559" lon="8.3322048"><ele>123.66666666666667</ele><time>2026-03-29T12:41:28.871Z</time></trkpt><trkpt lat="45.168541" lon="8.3322111"><ele>124.0</ele><time>2026-03-29T12:41:29.862Z</time></trkpt><trkpt lat="45.1687237" lon="8.3322195"><ele>124.33333333333334</ele><time>2026-03-29T12:41:30.868Z</time></trkpt><trkpt lat="45.1689033" lon="8.332229"><ele>124.66666666666666</ele><time>2026-03-29T12:41:31.86Z</time></trkpt><trkpt lat="45.1690812" lon="8.3322389"><ele>125.0</ele><time>2026-03-29T12:41:32.86Z</time></trkpt><trkpt lat="45.1692592" lon="8.3322484"><ele>125.33333333333333</ele><time>2026-03-29T12:41:33.868Z</time></trkpt><trkpt lat="45.1694395" lon="8.3322596"><ele>125.66666666666666</ele><time>2026-03-29T12:41:34.863Z</time></trkpt><trkpt lat="45.169624" lon="8.3322682"><ele>126.0</ele><time>2026-03-29T12:41:35.86Z</time></trkpt><trkpt lat="45.1698121" lon="8.3322771"><ele>126.0</ele><time>2026-03-29T12:41:36.864Z</time></trkpt><trkpt lat="45.1700056" lon="8.332284"><ele>126.0</ele><time>2026-03-29T12:41:37.859Z</time></trkpt><trkpt lat="45.1702036" lon="8.3322884"><ele>126.0</ele><time>2026-03-29T12:41:38.865Z</time></trkpt><trkpt lat="45.1704108" lon="8.3322924"><ele>126.0</ele><time>2026-03-29T12:41:39.861Z</time></trkpt><trkpt lat="45.1706189" lon="8.3322988"><ele>126.0</ele><time>2026-03-29T12:41:40.864Z</time></trkpt><trkpt lat="45.1708265" lon="8.332306"><ele>126.0</ele><time>2026-03-29T12:41:41.865Z</time></trkpt><trkpt lat="45.17103" lon="8.3323157"><ele>125.33333333333334</ele><time>2026-03-29T12:41:42.862Z</time></trkpt><trkpt lat="45.1712303" lon="8.3323229"><ele>124.66666666666667</ele><time>2026-03-29T12:41:43.857Z</time></trkpt><trkpt lat="45.1714286" lon="8.3323303"><ele>124.0</ele><time>2026-03-29T12:41:44.863Z</time></trkpt><trkpt lat="45.1716264" lon="8.3323392"><ele>124.0</ele><time>2026-03-29T12:41:45.892Z</time></trkpt><trkpt lat="45.1718243" lon="8.3323515"><ele>124.0</ele><time>2026-03-29T12:41:46.859Z</time></trkpt><trkpt lat="45.1720222" lon="8.3323635"><ele>124.0</ele><time>2026-03-29T12:41:47.867Z</time></trkpt><trkpt lat="45.1722198" lon="8.3323725"><ele>124.0</ele><time>2026-03-29T12:41:48.86Z</time></trkpt><trkpt lat="45.1724186" lon="8.332381"><ele>124.0</ele><time>2026-03-29T12:41:49.859Z</time></trkpt><trkpt lat="45.1726169" lon="8.3323893"><ele>124.0</ele><time>2026-03-29T12:41:50.861Z</time></trkpt><trkpt lat="45.1728152" lon="8.3323998"><ele>124.0</ele><time>2026-03-29T12:41:51.859Z</time></trkpt><trkpt lat="45.1730133" lon="8.3324111"><ele>124.0</ele><time>2026-03-29T12:41:52.868Z</time></trkpt><trkpt lat="45.1732083" lon="8.3324252"><ele>124.0</ele><time>2026-03-29T12:41:53.865Z</time></trkpt><trkpt lat="45.1734016" lon="8.3324415"><ele>124.33333333333334</ele><time>2026-03-29T12:41:54.857Z</time></trkpt><trkpt lat="45.1735887" lon="8.3324613"><ele>124.66666666666666</ele><time>2026-03-29T12:41:55.861Z</time></trkpt><trkpt lat="45.1737679" lon="8.3324831"><ele>125.0</ele><time>2026-03-29T12:41:56.865Z</time></trkpt><trkpt lat="45.1739365" lon="8.3325037"><ele>124.75</ele><time>2026-03-29T12:41:57.861Z</time></trkpt><trkpt lat="45.1740926" lon="8.3325206"><ele>124.5</ele><time>2026-03-29T12:41:58.859Z</time></trkpt><trkpt lat="45.1742363" lon="8.3325364"><ele>124.25</ele><time>2026-03-29T12:41:59.865Z</time></trkpt><trkpt lat="45.1743718" lon="8.332553"><ele>124.0</ele><time>2026-03-29T12:42:00.864Z</time></trkpt><trkpt lat="45.1745052" lon="8.3325781"><ele>124.0</ele><time>2026-03-29T12:42:01.861Z</time></trkpt><trkpt lat="45.1746388" lon="8.3326184"><ele>124.0</ele><time>2026-03-29T12:42:02.854Z</time></trkpt><trkpt lat="45.1747662" lon="8.3326829"><ele>124.0</ele><time>2026-03-29T12:42:03.86Z</time></trkpt><trkpt lat="45.1748872" lon="8.3327734"><ele>124.0</ele><time>2026-03-29T12:42:04.866Z</time></trkpt><trkpt lat="45.1749977" lon="8.3328942"><ele>124.0</ele><time>2026-03-29T12:42:05.86Z</time></trkpt><trkpt lat="45.175097" lon="8.3330391"><ele>124.0</ele><time>2026-03-29T12:42:06.86Z</time></trkpt><trkpt lat="45.1751786" lon="8.3332024"><ele>124.0</ele><time>2026-03-29T12:42:07.862Z</time></trkpt><trkpt lat="45.1752438" lon="8.3333712"><ele>124.0</ele><time>2026-03-29T12:42:08.86Z</time></trkpt><trkpt lat="45.1752898" lon="8.3335349"><ele>124.0</ele><time>2026-03-29T12:42:09.856Z</time></trkpt><trkpt lat="45.1753158" lon="8.3336971"><ele>124.0</ele><time>2026-03-29T12:42:10.862Z</time></trkpt><trkpt lat="45.1753329" lon="8.3338478"><ele>124.0</ele><time>2026-03-29T12:42:11.89Z</time></trkpt><trkpt lat="45.1753408" lon="8.3339757"><ele>124.0</ele><time>2026-03-29T12:42:12.861Z</time></trkpt><trkpt lat="45.1753446" lon="8.3340817"><ele>124.0</ele><time>2026-03-29T12:42:13.86Z</time></trkpt><trkpt lat="45.1753317" lon="8.3341917"><ele>124.0</ele><time>2026-03-29T12:42:15.861Z</time></trkpt><trkpt lat="45.1752442" lon="8.3341694"><ele>124.0</ele><time>2026-03-29T12:42:18.864Z</time></trkpt><trkpt lat="45.1751788" lon="8.3340645"><ele>124.0</ele><time>2026-03-29T12:42:20.861Z</time></trkpt><trkpt lat="45.1751524" lon="8.3338848"><ele>124.0</ele><time>2026-03-29T12:42:22.854Z</time></trkpt><trkpt lat="45.1751481" lon="8.3337658"><ele>124.0</ele><time>2026-03-29T12:42:23.863Z</time></trkpt><trkpt lat="45.1751352" lon="8.3336266"><ele>124.0</ele><time>2026-03-29T12:42:24.866Z</time></trkpt><trkpt lat="45.175108" lon="8.333479"><ele>124.0</ele><time>2026-03-29T12:42:25.857Z</time></trkpt><trkpt lat="45.1750656" lon="8.3333374"><ele>124.0</ele><time>2026-03-29T12:42:26.867Z</time></trkpt><trkpt lat="45.1750097" lon="8.3332057"><ele>124.0</ele><time>2026-03-29T12:42:27.868Z</time></trkpt><trkpt lat="45.1749416" lon="8.3330831"><ele>124.0</ele><time>2026-03-29T12:42:28.858Z</time></trkpt><trkpt lat="45.1748624" lon="8.3329751"><ele>124.0</ele><time>2026-03-29T12:42:29.869Z</time></trkpt><trkpt lat="45.1747734" lon="8.3328796"><ele>124.0</ele><time>2026-03-29T12:42:30.859Z</time></trkpt><trkpt lat="45.1746776" lon="8.3328011"><ele>124.0</ele><time>2026-03-29T12:42:31.856Z</time></trkpt><trkpt lat="45.1745799" lon="8.3327441"><ele>124.0</ele><time>2026-03-29T12:42:32.858Z</time></trkpt><trkpt lat="45.1744779" lon="8.3327033"><ele>124.0</ele><time>2026-03-29T12:42:33.867Z</time></trkpt><trkpt lat="45.1743714" lon="8.3326778"><ele>124.0</ele><time>2026-03-29T12:42:34.871Z</time></trkpt><trkpt lat="45.1742621" lon="8.3326656"><ele>124.0</ele><time>2026-03-29T12:42:35.861Z</time></trkpt><trkpt lat="45.1741519" lon="8.3326593"><ele>124.0</ele><time>2026-03-29T12:42:36.859Z</time></trkpt><trkpt lat="45.1740414" lon="8.332664"><ele>124.0</ele><time>2026-03-29T12:42:37.86Z</time></trkpt><trkpt lat="45.1739263" lon="8.3326669"><ele>124.0</ele><time>2026-03-29T12:42:38.859Z</time></trkpt><trkpt lat="45.1738095" lon="8.3326666"><ele>124.25</ele><time>2026-03-29T12:42:39.862Z</time></trkpt><trkpt lat="45.1736907" lon="8.3326665"><ele>124.5</ele><time>2026-03-29T12:42:40.866Z</time></trkpt><trkpt lat="45.1735706" lon="8.3326651"><ele>124.75</ele><time>2026-03-29T12:42:41.861Z</time></trkpt><trkpt lat="45.1734506" lon="8.3326595"><ele>125.0</ele><time>2026-03-29T12:42:42.858Z</time></trkpt><trkpt lat="45.1733287" lon="8.3326483"><ele>125.0</ele><time>2026-03-29T12:42:43.859Z</time></trkpt><trkpt lat="45.1732032" lon="8.3326365"><ele>125.0</ele><time>2026-03-29T12:42:44.861Z</time></trkpt><trkpt lat="45.1730732" lon="8.3326289"><ele>125.0</ele><time>2026-03-29T12:42:45.862Z</time></trkpt><trkpt lat="45.1729407" lon="8.3326253"><ele>125.0</ele><time>2026-03-29T12:42:46.871Z</time></trkpt><trkpt lat="45.1728079" lon="8.3326232"><ele>124.75</ele><time>2026-03-29T12:42:47.859Z</time></trkpt><trkpt lat="45.1726757" lon="8.332619"><ele>124.5</ele><time>2026-03-29T12:42:48.862Z</time></trkpt><trkpt lat="45.1725435" lon="8.3326108"><ele>124.25</ele><time>2026-03-29T12:42:49.854Z</time></trkpt><trkpt lat="45.1724136" lon="8.3326036"><ele>124.0</ele><time>2026-03-29T12:42:50.903Z</time></trkpt><trkpt lat="45.1722852" lon="8.3325961"><ele>124.0</ele><time>2026-03-29T12:42:51.865Z</time></trkpt><trkpt lat="45.1721542" lon="8.3325894"><ele>124.0</ele><time>2026-03-29T12:42:52.859Z</time></trkpt><trkpt lat="45.1720197" lon="8.3325804"><ele>124.0</ele><time>2026-03-29T12:42:53.859Z</time></trkpt><trkpt lat="45.1718838" lon="8.3325711"><ele>124.0</ele><time>2026-03-29T12:42:54.856Z</time></trkpt><trkpt lat="45.1717474" lon="8.3325639"><ele>124.0</ele><time>2026-03-29T12:42:55.864Z</time></trkpt><trkpt lat="45.1716098" lon="8.3325577"><ele>124.0</ele><time>2026-03-29T12:42:56.858Z</time></trkpt><trkpt lat="45.1714687" lon="8.3325518"><ele>124.0</ele><time>2026-03-29T12:42:57.863Z</time></trkpt><trkpt lat="45.1713277" lon="8.3325424"><ele>124.0</ele><time>2026-03-29T12:42:58.859Z</time></trkpt><trkpt lat="45.1711913" lon="8.332536"><ele>124.0</ele><time>2026-03-29T12:42:59.858Z</time></trkpt><trkpt lat="45.1710609" lon="8.3325317"><ele>124.0</ele><time>2026-03-29T12:43:00.859Z</time></trkpt><trkpt lat="45.170934" lon="8.3325277"><ele>124.0</ele><time>2026-03-29T12:43:01.861Z</time></trkpt><trkpt lat="45.1708096" lon="8.3325189"><ele>124.0</ele><time>2026-03-29T12:43:02.86Z</time></trkpt><trkpt lat="45.1706874" lon="8.3325046"><ele>124.4</ele><time>2026-03-29T12:43:03.867Z</time></trkpt><trkpt lat="45.1705712" lon="8.3324869"><ele>124.80000000000001</ele><time>2026-03-29T12:43:04.867Z</time></trkpt><trkpt lat="45.1704627" lon="8.3324696"><ele>125.19999999999999</ele><time>2026-03-29T12:43:05.863Z</time></trkpt><trkpt lat="45.1703597" lon="8.3324549"><ele>125.6</ele><time>2026-03-29T12:43:06.861Z</time></trkpt><trkpt lat="45.1702583" lon="8.3324437"><ele>126.0</ele><time>2026-03-29T12:43:07.86Z</time></trkpt><trkpt lat="45.1701625" lon="8.3324448"><ele>126.0</ele><time>2026-03-29T12:43:08.857Z</time></trkpt><trkpt lat="45.1700683" lon="8.3324496"><ele>126.0</ele><time>2026-03-29T12:43:09.86Z</time></trkpt><trkpt lat="45.1699816" lon="8.3324618"><ele>126.0</ele><time>2026-03-29T12:43:10.867Z</time></trkpt><trkpt lat="45.1699079" lon="8.3324748"><ele>126.0</ele><time>2026-03-29T12:43:11.864Z</time></trkpt><trkpt lat="45.1698234" lon="8.3325004"><ele>126.0</ele><time>2026-03-29T12:43:13.863Z</time></trkpt><trkpt lat="45.1697959" lon="8.3326292"><ele>126.0</ele><time>2026-03-29T12:43:16.859Z</time></trkpt><trkpt lat="45.1698115" lon="8.3327941"><ele>126.0</ele><time>2026-03-29T12:43:18.859Z</time></trkpt><trkpt lat="45.1698242" lon="8.3328875"><ele>126.0</ele><time>2026-03-29T12:43:19.856Z</time></trkpt><trkpt lat="45.1698395" lon="8.3329764"><ele>126.0</ele><time>2026-03-29T12:43:20.859Z</time></trkpt><trkpt lat="45.1698574" lon="8.333067"><ele>126.0</ele><time>2026-03-29T12:43:21.857Z</time></trkpt><trkpt lat="45.1698792" lon="8.333164"><ele>126.0</ele><time>2026-03-29T12:43:22.863Z</time></trkpt><trkpt lat="45.1698986" lon="8.3332686"><ele>126.0</ele><time>2026-03-29T12:43:23.858Z</time></trkpt><trkpt lat="45.1699186" lon="8.3333807"><ele>126.0</ele><time>2026-03-29T12:43:24.859Z</time></trkpt><trkpt lat="45.1699352" lon="8.3335026"><ele>126.0</ele><time>2026-03-29T12:43:25.863Z</time></trkpt><trkpt lat="45.1699514" lon="8.3336257"><ele>126.0</ele><time>2026-03-29T12:43:26.861Z</time></trkpt><trkpt lat="45.1699685" lon="8.3337503"><ele>126.0</ele><time>2026-03-29T12:43:27.859Z</time></trkpt><trkpt lat="45.1699825" lon="8.3338815"><ele>126.0</ele><time>2026-03-29T12:43:28.865Z</time></trkpt><trkpt lat="45.1699976" lon="8.3340163"><ele>126.0</ele><time>2026-03-29T12:43:29.853Z</time></trkpt><trkpt lat="45.1700126" lon="8.3341493"><ele>125.8</ele><time>2026-03-29T12:43:30.866Z</time></trkpt><trkpt lat="45.1700326" lon="8.3342839"><ele>125.6</ele><time>2026-03-29T12:43:31.868Z</time></trkpt><trkpt lat="45.1700534" lon="8.3344215"><ele>125.4</ele><time>2026-03-29T12:43:32.856Z</time></trkpt><trkpt lat="45.1700754" lon="8.3345606"><ele>125.2</ele><time>2026-03-29T12:43:33.854Z</time></trkpt><trkpt lat="45.1700945" lon="8.3346995"><ele>125.0</ele><time>2026-03-29T12:43:34.857Z</time></trkpt><trkpt lat="45.1701145" lon="8.3348256"><ele>124.83333333333333</ele><time>2026-03-29T12:43:35.857Z</time></trkpt><trkpt lat="45.1701326" lon="8.3349406"><ele>124.66666666666666</ele><time>2026-03-29T12:43:36.857Z</time></trkpt><trkpt lat="45.170149" lon="8.3350364"><ele>124.5</ele><time>2026-03-29T12:43:37.863Z</time></trkpt><trkpt lat="45.1701768" lon="8.3351904"><ele>124.33333333333334</ele><time>2026-03-29T12:43:39.858Z</time></trkpt><trkpt lat="45.1702038" lon="8.3352772"><ele>124.16666666666667</ele><time>2026-03-29T12:43:41.86Z</time></trkpt><trkpt lat="45.1702753" lon="8.3351798"><ele>124.0</ele><time>2026-03-29T12:43:45.858Z</time></trkpt><trkpt lat="45.1702796" lon="8.3350819"><ele>124.0</ele><time>2026-03-29T12:43:46.857Z</time></trkpt><trkpt lat="45.1702727" lon="8.3349449"><ele>124.0</ele><time>2026-03-29T12:43:47.867Z</time></trkpt><trkpt lat="45.1702577" lon="8.334772"><ele>124.0</ele><time>2026-03-29T12:43:48.86Z</time></trkpt><trkpt lat="45.1702399" lon="8.3345807"><ele>124.0</ele><time>2026-03-29T12:43:49.865Z</time></trkpt><trkpt lat="45.1702229" lon="8.3343729"><ele>124.33333333333334</ele><time>2026-03-29T12:43:50.855Z</time></trkpt><trkpt lat="45.170208" lon="8.3341496"><ele>124.66666666666666</ele><time>2026-03-29T12:43:51.866Z</time></trkpt><trkpt lat="45.1701987" lon="8.3339256"><ele>125.0</ele><time>2026-03-29T12:43:52.887Z</time></trkpt><trkpt lat="45.1701934" lon="8.3337061"><ele>125.33333333333333</ele><time>2026-03-29T12:43:53.858Z</time></trkpt><trkpt lat="45.1701916" lon="8.3334878"><ele>125.66666666666666</ele><time>2026-03-29T12:43:54.851Z</time></trkpt><trkpt lat="45.1701889" lon="8.33326"><ele>126.0</ele><time>2026-03-29T12:43:55.858Z</time></trkpt><trkpt lat="45.1701873" lon="8.3330237"><ele>126.0</ele><time>2026-03-29T12:43:56.859Z</time></trkpt><trkpt lat="45.1701873" lon="8.3327819"><ele>126.0</ele><time>2026-03-29T12:43:57.854Z</time></trkpt><trkpt lat="45.1701893" lon="8.3325492"><ele>126.0</ele><time>2026-03-29T12:43:58.859Z</time></trkpt><trkpt lat="45.170195" lon="8.3323229"><ele>126.0</ele><time>2026-03-29T12:43:59.857Z</time></trkpt><trkpt lat="45.170204" lon="8.3320961"><ele>126.0</ele><time>2026-03-29T12:44:00.857Z</time></trkpt><trkpt lat="45.1702185" lon="8.3318677"><ele>126.0</ele><time>2026-03-29T12:44:01.859Z</time></trkpt><trkpt lat="45.1702284" lon="8.331638"><ele>126.0</ele><time>2026-03-29T12:44:02.863Z</time></trkpt><trkpt lat="45.170235" lon="8.3314"><ele>126.0</ele><time>2026-03-29T12:44:03.861Z</time></trkpt><trkpt lat="45.1702404" lon="8.3311511"><ele>126.0</ele><time>2026-03-29T12:44:04.858Z</time></trkpt><trkpt lat="45.1702416" lon="8.3308889"><ele>126.0</ele><time>2026-03-29T12:44:05.86Z</time></trkpt><trkpt lat="45.1702272" lon="8.3306126"><ele>126.0</ele><time>2026-03-29T12:44:06.86Z</time></trkpt><trkpt lat="45.1701929" lon="8.3303258"><ele>126.0</ele><time>2026-03-29T12:44:07.858Z</time></trkpt><trkpt lat="45.1701392" lon="8.3300345"><ele>126.0</ele><time>2026-03-29T12:44:08.857Z</time></trkpt><trkpt lat="45.1700707" lon="8.3297486"><ele>126.0</ele><time>2026-03-29T12:44:09.86Z</time></trkpt><trkpt lat="45.1699889" lon="8.3294802"><ele>126.0</ele><time>2026-03-29T12:44:10.861Z</time></trkpt><trkpt lat="45.1699016" lon="8.3292354"><ele>125.33333333333334</ele><time>2026-03-29T12:44:11.861Z</time></trkpt><trkpt lat="45.1698164" lon="8.3290141"><ele>124.66666666666667</ele><time>2026-03-29T12:44:12.858Z</time></trkpt><trkpt lat="45.1697386" lon="8.3288078"><ele>124.0</ele><time>2026-03-29T12:44:13.855Z</time></trkpt><trkpt lat="45.1696687" lon="8.3286077"><ele>124.0</ele><time>2026-03-29T12:44:14.851Z</time></trkpt><trkpt lat="45.1696135" lon="8.3284056"><ele>124.0</ele><time>2026-03-29T12:44:15.862Z</time></trkpt><trkpt lat="45.1695764" lon="8.3281895"><ele>124.0</ele><time>2026-03-29T12:44:16.861Z</time></trkpt><trkpt lat="45.1695608" lon="8.327962"><ele>124.33333333333334</ele><time>2026-03-29T12:44:17.858Z</time></trkpt><trkpt lat="45.1695681" lon="8.3277333"><ele>124.66666666666666</ele><time>2026-03-29T12:44:18.863Z</time></trkpt><trkpt lat="45.169597" lon="8.3275035"><ele>125.0</ele><time>2026-03-29T12:44:19.868Z</time></trkpt><trkpt lat="45.1696494" lon="8.3272692"><ele>124.66666666666666</ele><time>2026-03-29T12:44:20.858Z</time></trkpt><trkpt lat="45.1697186" lon="8.3270404"><ele>124.33333333333334</ele><time>2026-03-29T12:44:21.865Z</time></trkpt><trkpt lat="45.1698067" lon="8.3268147"><ele>124.0</ele><time>2026-03-29T12:44:22.861Z</time></trkpt><trkpt lat="45.1699059" lon="8.3265851"><ele>124.33333333333334</ele><time>2026-03-29T12:44:23.858Z</time></trkpt><trkpt lat="45.1700083" lon="8.3263571"><ele>124.66666666666666</ele><time>2026-03-29T12:44:24.865Z</time></trkpt><trkpt lat="45.1701115" lon="8.3261358"><ele>125.0</ele><time>2026-03-29T12:44:25.861Z</time></trkpt><trkpt lat="45.1702118" lon="8.3259274"><ele>125.0</ele><time>2026-03-29T12:44:26.865Z</time></trkpt><trkpt lat="45.1703038" lon="8.3257347"><ele>125.0</ele><time>2026-03-29T12:44:27.856Z</time></trkpt><trkpt lat="45.1703888" lon="8.3255588"><ele>125.0</ele><time>2026-03-29T12:44:28.864Z</time></trkpt><trkpt lat="45.1704627" lon="8.3253955"><ele>125.25</ele><time>2026-03-29T12:44:29.86Z</time></trkpt><trkpt lat="45.1705282" lon="8.3252406"><ele>125.5</ele><time>2026-03-29T12:44:30.897Z</time></trkpt><trkpt lat="45.170581" lon="8.3250873"><ele>125.75</ele><time>2026-03-29T12:44:31.861Z</time></trkpt><trkpt lat="45.1706206" lon="8.324923"><ele>126.0</ele><time>2026-03-29T12:44:32.867Z</time></trkpt><trkpt lat="45.1706384" lon="8.3247388"><ele>125.33333333333334</ele><time>2026-03-29T12:44:33.866Z</time></trkpt><trkpt lat="45.1706342" lon="8.3245299"><ele>124.66666666666667</ele><time>2026-03-29T12:44:34.863Z</time></trkpt><trkpt lat="45.1706197" lon="8.3242908"><ele>124.0</ele><time>2026-03-29T12:44:35.857Z</time></trkpt><trkpt lat="45.1706004" lon="8.3240285"><ele>124.66666666666667</ele><time>2026-03-29T12:44:36.857Z</time></trkpt><trkpt lat="45.1705895" lon="8.3237521"><ele>125.33333333333334</ele><time>2026-03-29T12:44:37.859Z</time></trkpt><trkpt lat="45.1705794" lon="8.3234555"><ele>126.0</ele><time>2026-03-29T12:44:38.864Z</time></trkpt><trkpt lat="45.1705706" lon="8.3231509"><ele>126.0</ele><time>2026-03-29T12:44:39.862Z</time></trkpt><trkpt lat="45.1705666" lon="8.3228449"><ele>126.0</ele><time>2026-03-29T12:44:40.858Z</time></trkpt><trkpt lat="45.1705588" lon="8.3225353"><ele>126.0</ele><time>2026-03-29T12:44:41.862Z</time></trkpt><trkpt lat="45.1705547" lon="8.3222316"><ele>126.0</ele><time>2026-03-29T12:44:42.859Z</time></trkpt><trkpt lat="45.1705507" lon="8.3219332"><ele>126.0</ele><time>2026-03-29T12:44:43.858Z</time></trkpt><trkpt lat="45.1705481" lon="8.3216378"><ele>126.0</ele><time>2026-03-29T12:44:44.862Z</time></trkpt><trkpt lat="45.1705456" lon="8.3213396"><ele>126.0</ele><time>2026-03-29T12:44:45.863Z</time></trkpt><trkpt lat="45.1705451" lon="8.3210358"><ele>126.0</ele><time>2026-03-29T12:44:46.86Z</time></trkpt><trkpt lat="45.1705438" lon="8.3207268"><ele>126.0</ele><time>2026-03-29T12:44:47.86Z</time></trkpt><trkpt lat="45.1705451" lon="8.3204137"><ele>126.0</ele><time>2026-03-29T12:44:48.856Z</time></trkpt><trkpt lat="45.1705458" lon="8.320099"><ele>126.0</ele><time>2026-03-29T12:44:49.863Z</time></trkpt><trkpt lat="45.1705456" lon="8.3197887"><ele>126.0</ele><time>2026-03-29T12:44:50.864Z</time></trkpt><trkpt lat="45.1705476" lon="8.3194819"><ele>126.0</ele><time>2026-03-29T12:44:51.862Z</time></trkpt><trkpt lat="45.1705458" lon="8.3191759"><ele>126.0</ele><time>2026-03-29T12:44:52.855Z</time></trkpt><trkpt lat="45.1705418" lon="8.3188734"><ele>126.0</ele><time>2026-03-29T12:44:53.858Z</time></trkpt><trkpt lat="45.1705364" lon="8.3185767"><ele>126.0</ele><time>2026-03-29T12:44:54.855Z</time></trkpt><trkpt lat="45.1705327" lon="8.3182843"><ele>126.0</ele><time>2026-03-29T12:44:55.857Z</time></trkpt><trkpt lat="45.1705297" lon="8.3179943"><ele>126.0</ele><time>2026-03-29T12:44:56.855Z</time></trkpt><trkpt lat="45.1705255" lon="8.317709"><ele>126.0</ele><time>2026-03-29T12:44:57.861Z</time></trkpt><trkpt lat="45.1705223" lon="8.3174295"><ele>126.0</ele><time>2026-03-29T12:44:58.864Z</time></trkpt><trkpt lat="45.1705217" lon="8.3171537"><ele>126.0</ele><time>2026-03-29T12:44:59.861Z</time></trkpt><trkpt lat="45.1705214" lon="8.316879"><ele>126.33333333333334</ele><time>2026-03-29T12:45:00.857Z</time></trkpt><trkpt lat="45.1705192" lon="8.3166063"><ele>126.66666666666667</ele><time>2026-03-29T12:45:01.855Z</time></trkpt><trkpt lat="45.1705175" lon="8.316335"><ele>127.0</ele><time>2026-03-29T12:45:02.86Z</time></trkpt><trkpt lat="45.1705146" lon="8.3160615"><ele>127.0</ele><time>2026-03-29T12:45:03.856Z</time></trkpt><trkpt lat="45.1705124" lon="8.3157858"><ele>127.0</ele><time>2026-03-29T12:45:04.863Z</time></trkpt><trkpt lat="45.1705115" lon="8.3155076"><ele>127.0</ele><time>2026-03-29T12:45:05.864Z</time></trkpt><trkpt lat="45.1705099" lon="8.3152281"><ele>126.66666666666667</ele><time>2026-03-29T12:45:06.863Z</time></trkpt><trkpt lat="45.1705082" lon="8.31495"><ele>126.33333333333334</ele><time>2026-03-29T12:45:07.861Z</time></trkpt><trkpt lat="45.1705057" lon="8.3146728"><ele>126.0</ele><time>2026-03-29T12:45:08.867Z</time></trkpt><trkpt lat="45.1705014" lon="8.3143966"><ele>126.0</ele><time>2026-03-29T12:45:09.864Z</time></trkpt><trkpt lat="45.1704966" lon="8.3141178"><ele>126.0</ele><time>2026-03-29T12:45:10.862Z</time></trkpt><trkpt lat="45.1704912" lon="8.3138351"><ele>126.0</ele><time>2026-03-29T12:45:11.875Z</time></trkpt><trkpt lat="45.170488" lon="8.3135486"><ele>126.0</ele><time>2026-03-29T12:45:12.862Z</time></trkpt><trkpt lat="45.1704859" lon="8.3132636"><ele>126.0</ele><time>2026-03-29T12:45:13.86Z</time></trkpt><trkpt lat="45.1704844" lon="8.3129855"><ele>126.0</ele><time>2026-03-29T12:45:14.857Z</time></trkpt><trkpt lat="45.1704852" lon="8.3127161"><ele>126.0</ele><time>2026-03-29T12:45:15.856Z</time></trkpt><trkpt lat="45.1704866" lon="8.3124576"><ele>126.0</ele><time>2026-03-29T12:45:16.862Z</time></trkpt><trkpt lat="45.1704861" lon="8.3122119"><ele>126.0</ele><time>2026-03-29T12:45:17.856Z</time></trkpt><trkpt lat="45.1704857" lon="8.3119777"><ele>125.5</ele><time>2026-03-29T12:45:18.864Z</time></trkpt><trkpt lat="45.1704843" lon="8.3117535"><ele>125.0</ele><time>2026-03-29T12:45:19.86Z</time></trkpt><trkpt lat="45.1704835" lon="8.3115427"><ele>124.5</ele><time>2026-03-29T12:45:20.865Z</time></trkpt><trkpt lat="45.1704812" lon="8.3113453"><ele>124.0</ele><time>2026-03-29T12:45:21.861Z</time></trkpt><trkpt lat="45.1704786" lon="8.3111604"><ele>124.0</ele><time>2026-03-29T12:45:22.889Z</time></trkpt><trkpt lat="45.1704751" lon="8.3109902"><ele>124.0</ele><time>2026-03-29T12:45:23.89Z</time></trkpt><trkpt lat="45.1704701" lon="8.3108369"><ele>124.0</ele><time>2026-03-29T12:45:24.861Z</time></trkpt><trkpt lat="45.1704671" lon="8.3107007"><ele>124.0</ele><time>2026-03-29T12:45:25.862Z</time></trkpt><trkpt lat="45.170461" lon="8.3105827"><ele>124.0</ele><time>2026-03-29T12:45:26.884Z</time></trkpt><trkpt lat="45.1704544" lon="8.3104835"><ele>124.4</ele><time>2026-03-29T12:45:27.857Z</time></trkpt><trkpt lat="45.170436" lon="8.3103567"><ele>124.80000000000001</ele><time>2026-03-29T12:45:29.863Z</time></trkpt><trkpt lat="45.1703564" lon="8.3102835"><ele>125.19999999999999</ele><time>2026-03-29T12:45:32.857Z</time></trkpt><trkpt lat="45.1702807" lon="8.3102788"><ele>125.6</ele><time>2026-03-29T12:45:34.859Z</time></trkpt><trkpt lat="45.1702006" lon="8.3102793"><ele>126.0</ele><time>2026-03-29T12:45:36.874Z</time></trkpt><trkpt lat="45.1700692" lon="8.310279"><ele>126.0</ele><time>2026-03-29T12:45:38.857Z</time></trkpt><trkpt lat="45.1699756" lon="8.3102741"><ele>126.0</ele><time>2026-03-29T12:45:39.857Z</time></trkpt><trkpt lat="45.1698688" lon="8.3102677"><ele>126.0</ele><time>2026-03-29T12:45:40.888Z</time></trkpt><trkpt lat="45.1697574" lon="8.3102587"><ele>126.0</ele><time>2026-03-29T12:45:41.867Z</time></trkpt><trkpt lat="45.1696443" lon="8.3102439"><ele>126.0</ele><time>2026-03-29T12:45:42.858Z</time></trkpt><trkpt lat="45.1695289" lon="8.3102282"><ele>126.0</ele><time>2026-03-29T12:45:43.876Z</time></trkpt><trkpt lat="45.1694166" lon="8.3102169"><ele>126.0</ele><time>2026-03-29T12:45:44.861Z</time></trkpt><trkpt lat="45.1693121" lon="8.3102094"><ele>126.0</ele><time>2026-03-29T12:45:45.857Z</time></trkpt><trkpt lat="45.1692133" lon="8.3102011"><ele>126.0</ele><time>2026-03-29T12:45:46.873Z</time></trkpt><trkpt lat="45.1691229" lon="8.3101959"><ele>126.0</ele><time>2026-03-29T12:45:47.865Z</time></trkpt><trkpt lat="45.1690436" lon="8.3101883"><ele>126.0</ele><time>2026-03-29T12:45:48.862Z</time></trkpt><trkpt lat="45.1689735" lon="8.3101822"><ele>126.0</ele><time>2026-03-29T12:45:49.896Z</time></trkpt><trkpt lat="45.1688732" lon="8.3101611"><ele>126.0</ele><time>2026-03-29T12:45:51.86Z</time></trkpt><trkpt lat="45.168824" lon="8.3100614"><ele>126.0</ele><time>2026-03-29T12:45:54.86Z</time></trkpt><trkpt lat="45.1688428" lon="8.3099395"><ele>126.0</ele><time>2026-03-29T12:45:56.866Z</time></trkpt><trkpt lat="45.1688906" lon="8.3097517"><ele>126.0</ele><time>2026-03-29T12:45:58.861Z</time></trkpt><trkpt lat="45.1689228" lon="8.3096178"><ele>126.0</ele><time>2026-03-29T12:45:59.862Z</time></trkpt><trkpt lat="45.168955" lon="8.3094752"><ele>126.0</ele><time>2026-03-29T12:46:00.86Z</time></trkpt><trkpt lat="45.1689854" lon="8.3093303"><ele>126.0</ele><time>2026-03-29T12:46:01.877Z</time></trkpt><trkpt lat="45.1690044" lon="8.3091853"><ele>126.0</ele><time>2026-03-29T12:46:02.863Z</time></trkpt><trkpt lat="45.1690232" lon="8.3090291"><ele>126.5</ele><time>2026-03-29T12:46:03.871Z</time></trkpt><trkpt lat="45.1690383" lon="8.3088604"><ele>127.0</ele><time>2026-03-29T12:46:04.867Z</time></trkpt><trkpt lat="45.1690551" lon="8.3086845"><ele>127.5</ele><time>2026-03-29T12:46:05.864Z</time></trkpt><trkpt lat="45.1690808" lon="8.3085065"><ele>128.0</ele><time>2026-03-29T12:46:06.866Z</time></trkpt><trkpt lat="45.1691124" lon="8.3083295"><ele>128.0</ele><time>2026-03-29T12:46:07.865Z</time></trkpt><trkpt lat="45.1691547" lon="8.3081571"><ele>128.0</ele><time>2026-03-29T12:46:08.864Z</time></trkpt><trkpt lat="45.1692028" lon="8.3079945"><ele>128.0</ele><time>2026-03-29T12:46:09.859Z</time></trkpt><trkpt lat="45.1692493" lon="8.3078485"><ele>128.0</ele><time>2026-03-29T12:46:10.867Z</time></trkpt><trkpt lat="45.1693015" lon="8.3077294"><ele>127.66666666666666</ele><time>2026-03-29T12:46:11.864Z</time></trkpt><trkpt lat="45.1693509" lon="8.3076248"><ele>127.33333333333333</ele><time>2026-03-29T12:46:12.9Z</time></trkpt><trkpt lat="45.1693989" lon="8.3075395"><ele>127.0</ele><time>2026-03-29T12:46:13.87Z</time></trkpt><trkpt lat="45.1694442" lon="8.3074653"><ele>126.66666666666666</ele><time>2026-03-29T12:46:14.86Z</time></trkpt><trkpt lat="45.1695257" lon="8.3073543"><ele>126.33333333333333</ele><time>2026-03-29T12:46:16.859Z</time></trkpt><trkpt lat="45.1695918" lon="8.3072867"><ele>126.0</ele><time>2026-03-29T12:46:18.861Z</time></trkpt><trkpt lat="45.169655" lon="8.3071927"><ele>126.0</ele><time>2026-03-29T12:46:21.859Z</time></trkpt><trkpt lat="45.1697034" lon="8.3071198"><ele>126.0</ele><time>2026-03-29T12:46:24.864Z</time></trkpt><trkpt lat="45.169802" lon="8.3071213"><ele>126.0</ele><time>2026-03-29T12:46:37.86Z</time></trkpt><trkpt lat="45.1699001" lon="8.3071498"><ele>126.0</ele><time>2026-03-29T12:46:39.856Z</time></trkpt><trkpt lat="45.1700185" lon="8.3071818"><ele>126.0</ele><time>2026-03-29T12:46:41.854Z</time></trkpt><trkpt lat="45.1701231" lon="8.3072034"><ele>126.5</ele><time>2026-03-29T12:46:43.853Z</time></trkpt><trkpt lat="45.1701901" lon="8.3072135"><ele>127.0</ele><time>2026-03-29T12:46:45.859Z</time></trkpt><trkpt lat="45.1702484" lon="8.3072516"><ele>127.5</ele><time>2026-03-29T12:47:20.889Z</time></trkpt><trkpt lat="45.1701568" lon="8.3071788"><ele>128.0</ele><time>2026-03-29T12:47:28.857Z</time></trkpt><trkpt lat="45.1700836" lon="8.3071785"><ele>128.5</ele><time>2026-03-29T12:47:29.858Z</time></trkpt><trkpt lat="45.170002" lon="8.3071739"><ele>129.0</ele><time>2026-03-29T12:47:30.864Z</time></trkpt><trkpt lat="45.1699195" lon="8.3071579"><ele>128.5</ele><time>2026-03-29T12:47:31.859Z</time></trkpt><trkpt lat="45.1698419" lon="8.3071409"><ele>128.0</ele><time>2026-03-29T12:47:32.869Z</time></trkpt><trkpt lat="45.1697739" lon="8.3071226"><ele>127.5</ele><time>2026-03-29T12:47:33.857Z</time></trkpt><trkpt lat="45.1696724" lon="8.3070931"><ele>127.0</ele><time>2026-03-29T12:47:35.868Z</time></trkpt><trkpt lat="45.1696074" lon="8.3071105"><ele>126.5</ele><time>2026-03-29T12:47:37.858Z</time></trkpt><trkpt lat="45.1695665" lon="8.3072377"><ele>126.0</ele><time>2026-03-29T12:47:39.863Z</time></trkpt><trkpt lat="45.1695275" lon="8.3073261"><ele>126.0</ele><time>2026-03-29T12:47:40.864Z</time></trkpt><trkpt lat="45.1694787" lon="8.307417"><ele>126.0</ele><time>2026-03-29T12:47:41.859Z</time></trkpt><trkpt lat="45.1694289" lon="8.3075087"><ele>126.0</ele><time>2026-03-29T12:47:42.875Z</time></trkpt><trkpt lat="45.1693819" lon="8.3075956"><ele>126.0</ele><time>2026-03-29T12:47:43.865Z</time></trkpt><trkpt lat="45.169343" lon="8.307679"><ele>126.0</ele><time>2026-03-29T12:47:44.869Z</time></trkpt><trkpt lat="45.169308" lon="8.3077576"><ele>126.0</ele><time>2026-03-29T12:47:45.858Z</time></trkpt><trkpt lat="45.1692749" lon="8.3078416"><ele>126.0</ele><time>2026-03-29T12:47:46.858Z</time></trkpt><trkpt lat="45.1692409" lon="8.3079338"><ele>126.0</ele><time>2026-03-29T12:47:47.859Z</time></trkpt><trkpt lat="45.1692061" lon="8.308031"><ele>126.0</ele><time>2026-03-29T12:47:48.862Z</time></trkpt><trkpt lat="45.169181" lon="8.3081362"><ele>126.0</ele><time>2026-03-29T12:47:49.863Z</time></trkpt><trkpt lat="45.1691565" lon="8.3082434"><ele>126.0</ele><time>2026-03-29T12:47:50.853Z</time></trkpt><trkpt lat="45.169136" lon="8.3083551"><ele>126.0</ele><time>2026-03-29T12:47:51.855Z</time></trkpt><trkpt lat="45.169113" lon="8.3084703"><ele>126.0</ele><time>2026-03-29T12:47:52.865Z</time></trkpt><trkpt lat="45.1690926" lon="8.3085912"><ele>126.0</ele><time>2026-03-29T12:47:53.861Z</time></trkpt><trkpt lat="45.1690723" lon="8.3087153"><ele>126.0</ele><time>2026-03-29T12:47:54.855Z</time></trkpt><trkpt lat="45.1690551" lon="8.3088441"><ele>126.0</ele><time>2026-03-29T12:47:55.862Z</time></trkpt><trkpt lat="45.1690404" lon="8.3089778"><ele>126.0</ele><time>2026-03-29T12:47:56.856Z</time></trkpt><trkpt lat="45.1690296" lon="8.3091149"><ele>126.0</ele><time>2026-03-29T12:47:57.861Z</time></trkpt><trkpt lat="45.1690161" lon="8.3092518"><ele>126.0</ele><time>2026-03-29T12:47:58.863Z</time></trkpt><trkpt lat="45.1689943" lon="8.3093885"><ele>126.0</ele><time>2026-03-29T12:47:59.862Z</time></trkpt><trkpt lat="45.168967" lon="8.3095207"><ele>126.0</ele><time>2026-03-29T12:48:00.878Z</time></trkpt><trkpt lat="45.1689367" lon="8.3096512"><ele>126.0</ele><time>2026-03-29T12:48:01.864Z</time></trkpt><trkpt lat="45.1689052" lon="8.3097818"><ele>126.0</ele><time>2026-03-29T12:48:02.871Z</time></trkpt><trkpt lat="45.1688757" lon="8.309903"><ele>126.0</ele><time>2026-03-29T12:48:03.893Z</time></trkpt><trkpt lat="45.1688492" lon="8.3100159"><ele>126.0</ele><time>2026-03-29T12:48:04.878Z</time></trkpt><trkpt lat="45.1688253" lon="8.3101283"><ele>126.0</ele><time>2026-03-29T12:48:05.888Z</time></trkpt><trkpt lat="45.1687988" lon="8.3102492"><ele>126.0</ele><time>2026-03-29T12:48:06.867Z</time></trkpt><trkpt lat="45.1687729" lon="8.3103799"><ele>126.0</ele><time>2026-03-29T12:48:07.863Z</time></trkpt><trkpt lat="45.1687493" lon="8.310517"><ele>126.16666666666667</ele><time>2026-03-29T12:48:08.87Z</time></trkpt><trkpt lat="45.1687303" lon="8.3106507"><ele>126.33333333333334</ele><time>2026-03-29T12:48:09.867Z</time></trkpt><trkpt lat="45.1687152" lon="8.3107723"><ele>126.5</ele><time>2026-03-29T12:48:10.887Z</time></trkpt><trkpt lat="45.168704" lon="8.3108753"><ele>126.66666666666667</ele><time>2026-03-29T12:48:11.895Z</time></trkpt><trkpt lat="45.168694" lon="8.3109648"><ele>126.83333333333334</ele><time>2026-03-29T12:48:12.873Z</time></trkpt><trkpt lat="45.1686669" lon="8.3111201"><ele>127.0</ele><time>2026-03-29T12:48:14.872Z</time></trkpt><trkpt lat="45.1686305" lon="8.3113028"><ele>126.8</ele><time>2026-03-29T12:48:16.871Z</time></trkpt><trkpt lat="45.1686076" lon="8.3114188"><ele>126.6</ele><time>2026-03-29T12:48:17.883Z</time></trkpt><trkpt lat="45.16858" lon="8.311555"><ele>126.39999999999999</ele><time>2026-03-29T12:48:18.867Z</time></trkpt><trkpt lat="45.168549" lon="8.3117012"><ele>126.19999999999999</ele><time>2026-03-29T12:48:19.872Z</time></trkpt><trkpt lat="45.1685176" lon="8.3118523"><ele>126.0</ele><time>2026-03-29T12:48:20.864Z</time></trkpt><trkpt lat="45.1684854" lon="8.312004"><ele>126.0</ele><time>2026-03-29T12:48:21.869Z</time></trkpt><trkpt lat="45.1684552" lon="8.3121582"><ele>126.0</ele><time>2026-03-29T12:48:22.869Z</time></trkpt><trkpt lat="45.1684245" lon="8.3123102"><ele>126.0</ele><time>2026-03-29T12:48:23.865Z</time></trkpt><trkpt lat="45.1683918" lon="8.3124653"><ele>126.0</ele><time>2026-03-29T12:48:24.865Z</time></trkpt><trkpt lat="45.168361" lon="8.3126166"><ele>126.0</ele><time>2026-03-29T12:48:25.873Z</time></trkpt><trkpt lat="45.1683363" lon="8.3127594"><ele>126.0</ele><time>2026-03-29T12:48:26.868Z</time></trkpt><trkpt lat="45.1683137" lon="8.3128925"><ele>126.0</ele><time>2026-03-29T12:48:27.868Z</time></trkpt><trkpt lat="45.1682921" lon="8.3130297"><ele>126.0</ele><time>2026-03-29T12:48:28.864Z</time></trkpt><trkpt lat="45.1682673" lon="8.3131744"><ele>126.0</ele><time>2026-03-29T12:48:29.88Z</time></trkpt><trkpt lat="45.1682415" lon="8.3133238"><ele>126.0</ele><time>2026-03-29T12:48:30.863Z</time></trkpt><trkpt lat="45.1682159" lon="8.3134788"><ele>126.0</ele><time>2026-03-29T12:48:31.868Z</time></trkpt><trkpt lat="45.1681882" lon="8.3136353"><ele>126.0</ele><time>2026-03-29T12:48:32.868Z</time></trkpt><trkpt lat="45.1681639" lon="8.3137814"><ele>126.0</ele><time>2026-03-29T12:48:33.868Z</time></trkpt><trkpt lat="45.168142" lon="8.3139135"><ele>126.0</ele><time>2026-03-29T12:48:34.864Z</time></trkpt><trkpt lat="45.1681223" lon="8.3140309"><ele>126.0</ele><time>2026-03-29T12:48:35.875Z</time></trkpt><trkpt lat="45.1681047" lon="8.3141334"><ele>126.19999999999999</ele><time>2026-03-29T12:48:36.872Z</time></trkpt><trkpt lat="45.1680762" lon="8.3142851"><ele>126.39999999999999</ele><time>2026-03-29T12:48:38.873Z</time></trkpt><trkpt lat="45.1680246" lon="8.3143692"><ele>126.6</ele><time>2026-03-29T12:48:41.863Z</time></trkpt><trkpt lat="45.1679535" lon="8.3142972"><ele>126.8</ele><time>2026-03-29T12:48:44.88Z</time></trkpt><trkpt lat="45.1679051" lon="8.3142318"><ele>127.0</ele><time>2026-03-29T12:48:47.873Z</time></trkpt><trkpt lat="45.1677934" lon="8.3142134"><ele>127.0</ele><time>2026-03-29T12:48:50.866Z</time></trkpt><trkpt lat="45.1677266" lon="8.3142002"><ele>126.99999999999999</ele><time>2026-03-29T12:48:51.869Z</time></trkpt><trkpt lat="45.1676439" lon="8.3141837"><ele>126.99999999999999</ele><time>2026-03-29T12:48:52.869Z</time></trkpt><trkpt lat="45.1675477" lon="8.3141608"><ele>127.0</ele><time>2026-03-29T12:48:53.871Z</time></trkpt><trkpt lat="45.1674386" lon="8.314131"><ele>127.0</ele><time>2026-03-29T12:48:54.865Z</time></trkpt><trkpt lat="45.1673149" lon="8.314099"><ele>127.0</ele><time>2026-03-29T12:48:55.869Z</time></trkpt><trkpt lat="45.1671784" lon="8.3140627"><ele>127.0</ele><time>2026-03-29T12:48:56.877Z</time></trkpt><trkpt lat="45.1670356" lon="8.3140262"><ele>127.0</ele><time>2026-03-29T12:48:57.88Z</time></trkpt><trkpt lat="45.1668945" lon="8.3139865"><ele>127.0</ele><time>2026-03-29T12:48:58.882Z</time></trkpt><trkpt lat="45.1667587" lon="8.3139497"><ele>127.0</ele><time>2026-03-29T12:48:59.879Z</time></trkpt><trkpt lat="45.1666323" lon="8.3139159"><ele>127.0</ele><time>2026-03-29T12:49:00.877Z</time></trkpt><trkpt lat="45.1665132" lon="8.3138843"><ele>127.0</ele><time>2026-03-29T12:49:01.873Z</time></trkpt><trkpt lat="45.1663968" lon="8.3138518"><ele>127.0</ele><time>2026-03-29T12:49:02.874Z</time></trkpt><trkpt lat="45.166282" lon="8.3138203"><ele>126.6</ele><time>2026-03-29T12:49:03.864Z</time></trkpt><trkpt lat="45.1661661" lon="8.3137876"><ele>126.19999999999999</ele><time>2026-03-29T12:49:04.897Z</time></trkpt><trkpt lat="45.1660544" lon="8.313755"><ele>125.8</ele><time>2026-03-29T12:49:05.899Z</time></trkpt><trkpt lat="45.1659478" lon="8.3137243"><ele>125.4</ele><time>2026-03-29T12:49:06.863Z</time></trkpt><trkpt lat="45.1658472" lon="8.313694"><ele>125.0</ele><time>2026-03-29T12:49:07.871Z</time></trkpt><trkpt lat="45.1657489" lon="8.3136626"><ele>125.4</ele><time>2026-03-29T12:49:08.875Z</time></trkpt><trkpt lat="45.1656523" lon="8.3136311"><ele>125.8</ele><time>2026-03-29T12:49:09.864Z</time></trkpt><trkpt lat="45.1655539" lon="8.3135981"><ele>126.19999999999999</ele><time>2026-03-29T12:49:10.866Z</time></trkpt><trkpt lat="45.1654574" lon="8.3135657"><ele>126.6</ele><time>2026-03-29T12:49:11.897Z</time></trkpt><trkpt lat="45.1653651" lon="8.3135365"><ele>127.0</ele><time>2026-03-29T12:49:12.881Z</time></trkpt><trkpt lat="45.1652776" lon="8.3135113"><ele>127.0</ele><time>2026-03-29T12:49:13.865Z</time></trkpt><trkpt lat="45.1651949" lon="8.3134901"><ele>126.99999999999999</ele><time>2026-03-29T12:49:14.868Z</time></trkpt><trkpt lat="45.1651187" lon="8.3134747"><ele>126.99999999999999</ele><time>2026-03-29T12:49:15.865Z</time></trkpt><trkpt lat="45.1650513" lon="8.3134706"><ele>127.0</ele><time>2026-03-29T12:49:16.867Z</time></trkpt><trkpt lat="45.1649386" lon="8.3135214"><ele>127.0</ele><time>2026-03-29T12:49:18.866Z</time></trkpt><trkpt lat="45.1648492" lon="8.3136393"><ele>127.00000000000001</ele><time>2026-03-29T12:49:20.864Z</time></trkpt><trkpt lat="45.1647905" lon="8.313699"><ele>127.0</ele><time>2026-03-29T12:49:21.866Z</time></trkpt><trkpt lat="45.1647132" lon="8.3137488"><ele>127.0</ele><time>2026-03-29T12:49:22.863Z</time></trkpt><trkpt lat="45.1646217" lon="8.3137869"><ele>127.0</ele><time>2026-03-29T12:49:23.859Z</time></trkpt><trkpt lat="45.1645273" lon="8.313819"><ele>127.00000000000001</ele><time>2026-03-29T12:49:24.871Z</time></trkpt><trkpt lat="45.1644358" lon="8.3138492"><ele>127.0</ele><time>2026-03-29T12:49:25.867Z</time></trkpt><trkpt lat="45.1643501" lon="8.3138804"><ele>127.0</ele><time>2026-03-29T12:49:26.865Z</time></trkpt><trkpt lat="45.1642727" lon="8.313909"><ele>127.0</ele><time>2026-03-29T12:49:27.889Z</time></trkpt><trkpt lat="45.1642078" lon="8.313937"><ele>127.0</ele><time>2026-03-29T12:49:28.866Z</time></trkpt><trkpt lat="45.1641298" lon="8.3139796"><ele>127.0</ele><time>2026-03-29T12:49:30.864Z</time></trkpt><trkpt lat="45.1640804" lon="8.3139174"><ele>127.0</ele><time>2026-03-29T12:49:34.865Z</time></trkpt><trkpt lat="45.1640753" lon="8.3138067"><ele>127.0</ele><time>2026-03-29T12:49:36.9Z</time></trkpt><trkpt lat="45.1640708" lon="8.3137048"><ele>127.0</ele><time>2026-03-29T12:49:37.868Z</time></trkpt><trkpt lat="45.1640581" lon="8.3135879"><ele>127.0</ele><time>2026-03-29T12:49:38.866Z</time></trkpt><trkpt lat="45.1640389" lon="8.3134631"><ele>126.99999999999999</ele><time>2026-03-29T12:49:39.862Z</time></trkpt><trkpt lat="45.1640104" lon="8.3133318"><ele>126.99999999999999</ele><time>2026-03-29T12:49:40.888Z</time></trkpt><trkpt lat="45.1639772" lon="8.3131926"><ele>127.0</ele><time>2026-03-29T12:49:41.86Z</time></trkpt><trkpt lat="45.1639382" lon="8.3130473"><ele>127.0</ele><time>2026-03-29T12:49:42.859Z</time></trkpt><trkpt lat="45.1638982" lon="8.312897"><ele>126.5</ele><time>2026-03-29T12:49:43.86Z</time></trkpt><trkpt lat="45.1638558" lon="8.3127373"><ele>126.0</ele><time>2026-03-29T12:49:44.893Z</time></trkpt><trkpt lat="45.1638107" lon="8.3125685"><ele>125.5</ele><time>2026-03-29T12:49:45.903Z</time></trkpt><trkpt lat="45.163763" lon="8.3123989"><ele>125.0</ele><time>2026-03-29T12:49:46.855Z</time></trkpt><trkpt lat="45.1637172" lon="8.3122386"><ele>125.0</ele><time>2026-03-29T12:49:47.86Z</time></trkpt><trkpt lat="45.1636734" lon="8.312082"><ele>125.0</ele><time>2026-03-29T12:49:48.855Z</time></trkpt><trkpt lat="45.1636322" lon="8.311928"><ele>125.0</ele><time>2026-03-29T12:49:49.861Z</time></trkpt><trkpt lat="45.1635913" lon="8.3117733"><ele>125.0</ele><time>2026-03-29T12:49:50.86Z</time></trkpt><trkpt lat="45.1635524" lon="8.3116166"><ele>125.0</ele><time>2026-03-29T12:49:51.861Z</time></trkpt><trkpt lat="45.1635113" lon="8.3114624"><ele>125.0</ele><time>2026-03-29T12:49:52.86Z</time></trkpt><trkpt lat="45.1634761" lon="8.3113116"><ele>125.0</ele><time>2026-03-29T12:49:53.863Z</time></trkpt><trkpt lat="45.1634378" lon="8.3111621"><ele>125.0</ele><time>2026-03-29T12:49:54.855Z</time></trkpt><trkpt lat="45.1634009" lon="8.3110157"><ele>125.0</ele><time>2026-03-29T12:49:55.859Z</time></trkpt><trkpt lat="45.1633617" lon="8.3108715"><ele>125.0</ele><time>2026-03-29T12:49:56.86Z</time></trkpt><trkpt lat="45.1633262" lon="8.3107298"><ele>125.0</ele><time>2026-03-29T12:49:57.869Z</time></trkpt><trkpt lat="45.1632921" lon="8.3105852"><ele>125.0</ele><time>2026-03-29T12:49:58.864Z</time></trkpt><trkpt lat="45.1632603" lon="8.3104374"><ele>125.0</ele><time>2026-03-29T12:49:59.86Z</time></trkpt><trkpt lat="45.1632256" lon="8.3102887"><ele>125.0</ele><time>2026-03-29T12:50:00.86Z</time></trkpt><trkpt lat="45.1631893" lon="8.3101357"><ele>125.0</ele><time>2026-03-29T12:50:01.855Z</time></trkpt><trkpt lat="45.1631544" lon="8.309988"><ele>125.0</ele><time>2026-03-29T12:50:02.864Z</time></trkpt><trkpt lat="45.1631187" lon="8.3098474"><ele>125.0</ele><time>2026-03-29T12:50:03.871Z</time></trkpt><trkpt lat="45.1630852" lon="8.3097174"><ele>125.0</ele><time>2026-03-29T12:50:04.855Z</time></trkpt><trkpt lat="45.1630558" lon="8.3095979"><ele>125.16666666666666</ele><time>2026-03-29T12:50:05.86Z</time></trkpt><trkpt lat="45.163029" lon="8.3094879"><ele>125.33333333333333</ele><time>2026-03-29T12:50:06.856Z</time></trkpt><trkpt lat="45.163005" lon="8.3093819"><ele>125.5</ele><time>2026-03-29T12:50:07.87Z</time></trkpt><trkpt lat="45.1629796" lon="8.309283"><ele>125.66666666666666</ele><time>2026-03-29T12:50:08.855Z</time></trkpt><trkpt lat="45.1629507" lon="8.3091963"><ele>125.83333333333333</ele><time>2026-03-29T12:50:09.864Z</time></trkpt><trkpt lat="45.1628854" lon="8.3090553"><ele>126.0</ele><time>2026-03-29T12:50:11.861Z</time></trkpt><trkpt lat="45.1628118" lon="8.3089256"><ele>125.8</ele><time>2026-03-29T12:50:13.862Z</time></trkpt><trkpt lat="45.162761" lon="8.3088041"><ele>125.6</ele><time>2026-03-29T12:50:15.862Z</time></trkpt><trkpt lat="45.1627764" lon="8.3086992"><ele>125.4</ele><time>2026-03-29T12:50:17.869Z</time></trkpt><trkpt lat="45.1628758" lon="8.3085834"><ele>125.2</ele><time>2026-03-29T12:50:19.858Z</time></trkpt><trkpt lat="45.1629567" lon="8.3085181"><ele>125.0</ele><time>2026-03-29T12:50:20.867Z</time></trkpt><trkpt lat="45.1630574" lon="8.3084495"><ele>125.0</ele><time>2026-03-29T12:50:21.853Z</time></trkpt><trkpt lat="45.1631714" lon="8.3083731"><ele>125.0</ele><time>2026-03-29T12:50:22.857Z</time></trkpt><trkpt lat="45.1632949" lon="8.3082845"><ele>125.0</ele><time>2026-03-29T12:50:23.859Z</time></trkpt><trkpt lat="45.1634199" lon="8.3081935"><ele>125.0</ele><time>2026-03-29T12:50:24.893Z</time></trkpt><trkpt lat="45.1635414" lon="8.308101"><ele>125.0</ele><time>2026-03-29T12:50:25.859Z</time></trkpt><trkpt lat="45.1636584" lon="8.3080064"><ele>125.0</ele><time>2026-03-29T12:50:26.854Z</time></trkpt><trkpt lat="45.163771" lon="8.3079126"><ele>125.0</ele><time>2026-03-29T12:50:27.857Z</time></trkpt><trkpt lat="45.1638815" lon="8.3078181"><ele>125.0</ele><time>2026-03-29T12:50:28.867Z</time></trkpt><trkpt lat="45.1639916" lon="8.3077226"><ele>124.75</ele><time>2026-03-29T12:50:29.864Z</time></trkpt><trkpt lat="45.1641022" lon="8.3076274"><ele>124.5</ele><time>2026-03-29T12:50:30.896Z</time></trkpt><trkpt lat="45.1642134" lon="8.3075303"><ele>124.25</ele><time>2026-03-29T12:50:31.867Z</time></trkpt><trkpt lat="45.1643235" lon="8.3074351"><ele>124.0</ele><time>2026-03-29T12:50:32.857Z</time></trkpt><trkpt lat="45.1644334" lon="8.3073412"><ele>124.0</ele><time>2026-03-29T12:50:33.861Z</time></trkpt><trkpt lat="45.1645405" lon="8.3072497"><ele>124.0</ele><time>2026-03-29T12:50:34.856Z</time></trkpt><trkpt lat="45.1646437" lon="8.3071594"><ele>124.0</ele><time>2026-03-29T12:50:35.858Z</time></trkpt><trkpt lat="45.164743" lon="8.3070735"><ele>124.0</ele><time>2026-03-29T12:50:36.863Z</time></trkpt><trkpt lat="45.1648408" lon="8.3069931"><ele>124.75</ele><time>2026-03-29T12:50:37.863Z</time></trkpt><trkpt lat="45.1649415" lon="8.3069135"><ele>125.5</ele><time>2026-03-29T12:50:38.863Z</time></trkpt><trkpt lat="45.1650453" lon="8.3068314"><ele>126.25</ele><time>2026-03-29T12:50:39.863Z</time></trkpt><trkpt lat="45.1651484" lon="8.3067442"><ele>127.0</ele><time>2026-03-29T12:50:40.857Z</time></trkpt><trkpt lat="45.1652546" lon="8.3066531"><ele>127.0</ele><time>2026-03-29T12:50:41.86Z</time></trkpt><trkpt lat="45.1653632" lon="8.3065603"><ele>127.0</ele><time>2026-03-29T12:50:42.865Z</time></trkpt><trkpt lat="45.1654724" lon="8.3064641"><ele>127.0</ele><time>2026-03-29T12:50:43.859Z</time></trkpt><trkpt lat="45.1655831" lon="8.3063673"><ele>127.0</ele><time>2026-03-29T12:50:44.86Z</time></trkpt><trkpt lat="45.1656942" lon="8.30627"><ele>127.0</ele><time>2026-03-29T12:50:45.859Z</time></trkpt><trkpt lat="45.1658036" lon="8.3061732"><ele>127.0</ele><time>2026-03-29T12:50:46.861Z</time></trkpt><trkpt lat="45.1659112" lon="8.306078"><ele>127.0</ele><time>2026-03-29T12:50:47.86Z</time></trkpt><trkpt lat="45.1660168" lon="8.3059869"><ele>127.0</ele><time>2026-03-29T12:50:48.867Z</time></trkpt><trkpt lat="45.1661198" lon="8.3058982"><ele>127.0</ele><time>2026-03-29T12:50:49.89Z</time></trkpt><trkpt lat="45.1662221" lon="8.3058101"><ele>127.0</ele><time>2026-03-29T12:50:50.859Z</time></trkpt><trkpt lat="45.1663267" lon="8.305724"><ele>127.0</ele><time>2026-03-29T12:50:51.896Z</time></trkpt><trkpt lat="45.166429" lon="8.3056441"><ele>127.0</ele><time>2026-03-29T12:50:52.861Z</time></trkpt><trkpt lat="45.1665268" lon="8.3055634"><ele>126.8</ele><time>2026-03-29T12:50:53.861Z</time></trkpt><trkpt lat="45.1666248" lon="8.3054812"><ele>126.6</ele><time>2026-03-29T12:50:54.863Z</time></trkpt><trkpt lat="45.1667231" lon="8.3054039"><ele>126.39999999999999</ele><time>2026-03-29T12:50:55.862Z</time></trkpt><trkpt lat="45.1668187" lon="8.3053328"><ele>126.19999999999999</ele><time>2026-03-29T12:50:56.858Z</time></trkpt><trkpt lat="45.1669141" lon="8.305268"><ele>126.0</ele><time>2026-03-29T12:50:57.866Z</time></trkpt><trkpt lat="45.1670078" lon="8.3052094"><ele>126.0</ele><time>2026-03-29T12:50:58.856Z</time></trkpt><trkpt lat="45.1670992" lon="8.3051561"><ele>126.0</ele><time>2026-03-29T12:50:59.86Z</time></trkpt><trkpt lat="45.1671897" lon="8.3051103"><ele>126.0</ele><time>2026-03-29T12:51:00.864Z</time></trkpt><trkpt lat="45.167283" lon="8.3050725"><ele>126.0</ele><time>2026-03-29T12:51:01.874Z</time></trkpt><trkpt lat="45.1673796" lon="8.3050355"><ele>126.0</ele><time>2026-03-29T12:51:02.859Z</time></trkpt><trkpt lat="45.167481" lon="8.3049965"><ele>126.5</ele><time>2026-03-29T12:51:03.86Z</time></trkpt><trkpt lat="45.1675906" lon="8.3049563"><ele>127.0</ele><time>2026-03-29T12:51:04.863Z</time></trkpt><trkpt lat="45.1677032" lon="8.3049153"><ele>127.5</ele><time>2026-03-29T12:51:05.866Z</time></trkpt><trkpt lat="45.1678176" lon="8.3048725"><ele>128.0</ele><time>2026-03-29T12:51:06.861Z</time></trkpt><trkpt lat="45.1679338" lon="8.3048269"><ele>128.0</ele><time>2026-03-29T12:51:07.875Z</time></trkpt><trkpt lat="45.1680508" lon="8.3047809"><ele>128.0</ele><time>2026-03-29T12:51:08.856Z</time></trkpt><trkpt lat="45.1681685" lon="8.3047367"><ele>128.0</ele><time>2026-03-29T12:51:09.86Z</time></trkpt><trkpt lat="45.1682874" lon="8.3046909"><ele>128.0</ele><time>2026-03-29T12:51:10.86Z</time></trkpt><trkpt lat="45.1684044" lon="8.3046457"><ele>127.5</ele><time>2026-03-29T12:51:11.86Z</time></trkpt><trkpt lat="45.1685196" lon="8.3046032"><ele>127.0</ele><time>2026-03-29T12:51:12.863Z</time></trkpt><trkpt lat="45.1686359" lon="8.3045608"><ele>126.5</ele><time>2026-03-29T12:51:13.865Z</time></trkpt><trkpt lat="45.1687519" lon="8.3045197"><ele>126.0</ele><time>2026-03-29T12:51:14.859Z</time></trkpt><trkpt lat="45.1688686" lon="8.3044774"><ele>126.0</ele><time>2026-03-29T12:51:15.859Z</time></trkpt><trkpt lat="45.1689866" lon="8.3044342"><ele>126.0</ele><time>2026-03-29T12:51:16.864Z</time></trkpt><trkpt lat="45.1691039" lon="8.304391"><ele>126.0</ele><time>2026-03-29T12:51:17.864Z</time></trkpt><trkpt lat="45.1692173" lon="8.3043476"><ele>126.0</ele><time>2026-03-29T12:51:18.859Z</time></trkpt><trkpt lat="45.1693292" lon="8.3043025"><ele>126.0</ele><time>2026-03-29T12:51:19.871Z</time></trkpt><trkpt lat="45.1694405" lon="8.304254"><ele>126.0</ele><time>2026-03-29T12:51:20.858Z</time></trkpt><trkpt lat="45.1695482" lon="8.3042047"><ele>126.0</ele><time>2026-03-29T12:51:21.861Z</time></trkpt><trkpt lat="45.1696527" lon="8.3041548"><ele>126.0</ele><time>2026-03-29T12:51:22.855Z</time></trkpt><trkpt lat="45.1697547" lon="8.3041006"><ele>126.0</ele><time>2026-03-29T12:51:23.86Z</time></trkpt><trkpt lat="45.169855" lon="8.3040417"><ele>126.0</ele><time>2026-03-29T12:51:24.864Z</time></trkpt><trkpt lat="45.1699575" lon="8.3039775"><ele>126.0</ele><time>2026-03-29T12:51:25.861Z</time></trkpt><trkpt lat="45.1700597" lon="8.3039152"><ele>126.0</ele><time>2026-03-29T12:51:26.89Z</time></trkpt><trkpt lat="45.1701606" lon="8.303849"><ele>126.0</ele><time>2026-03-29T12:51:27.864Z</time></trkpt><trkpt lat="45.1702613" lon="8.3037761"><ele>126.0</ele><time>2026-03-29T12:51:28.864Z</time></trkpt><trkpt lat="45.1703598" lon="8.3036983"><ele>126.0</ele><time>2026-03-29T12:51:29.856Z</time></trkpt><trkpt lat="45.1704562" lon="8.3036204"><ele>126.0</ele><time>2026-03-29T12:51:30.864Z</time></trkpt><trkpt lat="45.1705519" lon="8.3035405"><ele>126.0</ele><time>2026-03-29T12:51:31.862Z</time></trkpt><trkpt lat="45.1706473" lon="8.3034639"><ele>126.0</ele><time>2026-03-29T12:51:32.859Z</time></trkpt><trkpt lat="45.1707458" lon="8.3033887"><ele>126.0</ele><time>2026-03-29T12:51:33.857Z</time></trkpt><trkpt lat="45.1708479" lon="8.303315"><ele>125.75</ele><time>2026-03-29T12:51:34.86Z</time></trkpt><trkpt lat="45.170953" lon="8.3032464"><ele>125.5</ele><time>2026-03-29T12:51:35.86Z</time></trkpt><trkpt lat="45.1710607" lon="8.3031824"><ele>125.25</ele><time>2026-03-29T12:51:36.861Z</time></trkpt><trkpt lat="45.1711669" lon="8.3031272"><ele>125.0</ele><time>2026-03-29T12:51:37.863Z</time></trkpt><trkpt lat="45.1712726" lon="8.3030778"><ele>125.0</ele><time>2026-03-29T12:51:38.86Z</time></trkpt><trkpt lat="45.1713818" lon="8.3030331"><ele>125.0</ele><time>2026-03-29T12:51:39.864Z</time></trkpt><trkpt lat="45.1714931" lon="8.302997"><ele>125.0</ele><time>2026-03-29T12:51:40.861Z</time></trkpt><trkpt lat="45.171585" lon="8.3029834"><ele>125.0</ele><time>2026-03-29T12:51:41.87Z</time></trkpt><trkpt lat="45.1716761" lon="8.3029666"><ele>125.0</ele><time>2026-03-29T12:51:42.854Z</time></trkpt><trkpt lat="45.1717519" lon="8.302958"><ele>125.14285714285714</ele><time>2026-03-29T12:51:43.855Z</time></trkpt><trkpt lat="45.1718202" lon="8.3029507"><ele>125.28571428571429</ele><time>2026-03-29T12:51:44.89Z</time></trkpt><trkpt lat="45.1718852" lon="8.3029398"><ele>125.42857142857143</ele><time>2026-03-29T12:51:45.889Z</time></trkpt><trkpt lat="45.1719477" lon="8.3029225"><ele>125.57142857142857</ele><time>2026-03-29T12:51:46.855Z</time></trkpt><trkpt lat="45.1720133" lon="8.302902"><ele>125.71428571428572</ele><time>2026-03-29T12:51:47.874Z</time></trkpt><trkpt lat="45.1720777" lon="8.3028777"><ele>125.85714285714286</ele><time>2026-03-29T12:51:48.866Z</time></trkpt><trkpt lat="45.1721539" lon="8.3028413"><ele>126.0</ele><time>2026-03-29T12:51:50.86Z</time></trkpt><trkpt lat="45.172088" lon="8.3028524"><ele>126.0</ele><time>2026-03-29T12:51:56.862Z</time></trkpt><trkpt lat="45.1720416" lon="8.3029306"><ele>126.0</ele><time>2026-03-29T12:52:17.857Z</time></trkpt><trkpt lat="45.1721539" lon="8.3029537"><ele>126.0</ele><time>2026-03-29T12:52:21.858Z</time></trkpt><trkpt lat="45.1722242" lon="8.3029452"><ele>126.0</ele><time>2026-03-29T12:52:22.859Z</time></trkpt><trkpt lat="45.1722961" lon="8.3029335"><ele>126.0</ele><time>2026-03-29T12:52:23.859Z</time></trkpt><trkpt lat="45.172367" lon="8.3029183"><ele>126.0</ele><time>2026-03-29T12:52:24.865Z</time></trkpt><trkpt lat="45.1724349" lon="8.3028983"><ele>125.83333333333333</ele><time>2026-03-29T12:52:25.863Z</time></trkpt><trkpt lat="45.1725044" lon="8.3028702"><ele>125.66666666666666</ele><time>2026-03-29T12:52:26.866Z</time></trkpt><trkpt lat="45.172576" lon="8.3028346"><ele>125.5</ele><time>2026-03-29T12:52:27.862Z</time></trkpt><trkpt lat="45.1726544" lon="8.3027906"><ele>125.33333333333333</ele><time>2026-03-29T12:52:28.863Z</time></trkpt><trkpt lat="45.1727378" lon="8.3027392"><ele>125.16666666666666</ele><time>2026-03-29T12:52:29.857Z</time></trkpt><trkpt lat="45.1728276" lon="8.3026857"><ele>125.0</ele><time>2026-03-29T12:52:30.892Z</time></trkpt><trkpt lat="45.1729189" lon="8.3026331"><ele>125.0</ele><time>2026-03-29T12:52:31.857Z</time></trkpt><trkpt lat="45.1730139" lon="8.3025806"><ele>125.0</ele><time>2026-03-29T12:52:32.864Z</time></trkpt><trkpt lat="45.1731082" lon="8.3025281"><ele>125.0</ele><time>2026-03-29T12:52:33.859Z</time></trkpt><trkpt lat="45.1731999" lon="8.3024774"><ele>125.0</ele><time>2026-03-29T12:52:34.861Z</time></trkpt><trkpt lat="45.1732918" lon="8.3024247"><ele>125.0</ele><time>2026-03-29T12:52:35.868Z</time></trkpt><trkpt lat="45.173386" lon="8.3023713"><ele>125.0</ele><time>2026-03-29T12:52:36.891Z</time></trkpt><trkpt lat="45.1734801" lon="8.302318"><ele>125.0</ele><time>2026-03-29T12:52:37.855Z</time></trkpt><trkpt lat="45.1735773" lon="8.3022642"><ele>125.0</ele><time>2026-03-29T12:52:38.861Z</time></trkpt><trkpt lat="45.1736763" lon="8.3022107"><ele>125.0</ele><time>2026-03-29T12:52:39.863Z</time></trkpt><trkpt lat="45.1737758" lon="8.3021615"><ele>125.0</ele><time>2026-03-29T12:52:40.858Z</time></trkpt><trkpt lat="45.1738759" lon="8.3021086"><ele>125.0</ele><time>2026-03-29T12:52:41.86Z</time></trkpt><trkpt lat="45.1739754" lon="8.3020552"><ele>125.0</ele><time>2026-03-29T12:52:42.859Z</time></trkpt><trkpt lat="45.1740702" lon="8.3020035"><ele>125.0</ele><time>2026-03-29T12:52:43.862Z</time></trkpt><trkpt lat="45.1741598" lon="8.3019542"><ele>125.0</ele><time>2026-03-29T12:52:44.859Z</time></trkpt><trkpt lat="45.1742443" lon="8.3019085"><ele>125.0</ele><time>2026-03-29T12:52:45.864Z</time></trkpt><trkpt lat="45.1743223" lon="8.301865"><ele>125.33333333333333</ele><time>2026-03-29T12:52:46.859Z</time></trkpt><trkpt lat="45.1743994" lon="8.3018218"><ele>125.66666666666666</ele><time>2026-03-29T12:52:47.862Z</time></trkpt><trkpt lat="45.1744781" lon="8.3017727"><ele>126.0</ele><time>2026-03-29T12:52:48.865Z</time></trkpt><trkpt lat="45.1745551" lon="8.3017213"><ele>126.33333333333334</ele><time>2026-03-29T12:52:49.861Z</time></trkpt><trkpt lat="45.1746326" lon="8.3016663"><ele>126.66666666666667</ele><time>2026-03-29T12:52:50.856Z</time></trkpt><trkpt lat="45.1747061" lon="8.3016112"><ele>127.0</ele><time>2026-03-29T12:52:51.86Z</time></trkpt><trkpt lat="45.1747823" lon="8.3015507"><ele>126.8</ele><time>2026-03-29T12:52:52.863Z</time></trkpt><trkpt lat="45.1748611" lon="8.3014837"><ele>126.6</ele><time>2026-03-29T12:52:53.864Z</time></trkpt><trkpt lat="45.1749418" lon="8.3014157"><ele>126.39999999999999</ele><time>2026-03-29T12:52:54.863Z</time></trkpt><trkpt lat="45.1750253" lon="8.3013433"><ele>126.19999999999999</ele><time>2026-03-29T12:52:55.864Z</time></trkpt><trkpt lat="45.17511" lon="8.3012657"><ele>126.0</ele><time>2026-03-29T12:52:56.861Z</time></trkpt><trkpt lat="45.1751985" lon="8.3011864"><ele>126.4</ele><time>2026-03-29T12:52:57.866Z</time></trkpt><trkpt lat="45.1752886" lon="8.3011082"><ele>126.8</ele><time>2026-03-29T12:52:58.882Z</time></trkpt><trkpt lat="45.1753802" lon="8.301032"><ele>127.20000000000002</ele><time>2026-03-29T12:52:59.855Z</time></trkpt><trkpt lat="45.1754716" lon="8.3009571"><ele>127.60000000000001</ele><time>2026-03-29T12:53:00.86Z</time></trkpt><trkpt lat="45.1755632" lon="8.3008834"><ele>128.0</ele><time>2026-03-29T12:53:01.862Z</time></trkpt><trkpt lat="45.1756517" lon="8.3008058"><ele>128.16666666666666</ele><time>2026-03-29T12:53:02.86Z</time></trkpt><trkpt lat="45.1757338" lon="8.3007307"><ele>128.33333333333331</ele><time>2026-03-29T12:53:03.867Z</time></trkpt><trkpt lat="45.1758083" lon="8.3006652"><ele>128.5</ele><time>2026-03-29T12:53:04.868Z</time></trkpt><trkpt lat="45.1758793" lon="8.3006093"><ele>128.66666666666666</ele><time>2026-03-29T12:53:05.863Z</time></trkpt><trkpt lat="45.1759469" lon="8.3005561"><ele>128.83333333333334</ele><time>2026-03-29T12:53:06.861Z</time></trkpt><trkpt lat="45.1760113" lon="8.3005036"><ele>129.0</ele><time>2026-03-29T12:53:07.856Z</time></trkpt><trkpt lat="45.1760694" lon="8.3004569"><ele>129.0</ele><time>2026-03-29T12:53:08.855Z</time></trkpt><trkpt lat="45.1761806" lon="8.3003666"><ele>129.0</ele><time>2026-03-29T12:53:10.858Z</time></trkpt><trkpt lat="45.1762454" lon="8.3003025"><ele>129.0</ele><time>2026-03-29T12:53:11.858Z</time></trkpt><trkpt lat="45.1763197" lon="8.3002172"><ele>129.0</ele><time>2026-03-29T12:53:12.86Z</time></trkpt><trkpt lat="45.1764056" lon="8.3001139"><ele>129.0</ele><time>2026-03-29T12:53:13.867Z</time></trkpt><trkpt lat="45.176492" lon="8.2999975"><ele>128.75</ele><time>2026-03-29T12:53:14.859Z</time></trkpt><trkpt lat="45.176579" lon="8.2998775"><ele>128.5</ele><time>2026-03-29T12:53:15.86Z</time></trkpt><trkpt lat="45.1766624" lon="8.2997622"><ele>128.25</ele><time>2026-03-29T12:53:16.864Z</time></trkpt><trkpt lat="45.1767444" lon="8.2996489"><ele>128.0</ele><time>2026-03-29T12:53:17.866Z</time></trkpt><trkpt lat="45.176827" lon="8.2995411"><ele>128.0</ele><time>2026-03-29T12:53:18.858Z</time></trkpt><trkpt lat="45.176907" lon="8.2994351"><ele>128.0</ele><time>2026-03-29T12:53:19.868Z</time></trkpt><trkpt lat="45.1769848" lon="8.2993303"><ele>128.0</ele><time>2026-03-29T12:53:20.864Z</time></trkpt><trkpt lat="45.1770591" lon="8.2992216"><ele>128.0</ele><time>2026-03-29T12:53:21.865Z</time></trkpt><trkpt lat="45.1771257" lon="8.2991038"><ele>128.0</ele><time>2026-03-29T12:53:22.861Z</time></trkpt><trkpt lat="45.1771879" lon="8.2989799"><ele>127.80000000000001</ele><time>2026-03-29T12:53:23.863Z</time></trkpt><trkpt lat="45.1772441" lon="8.2988454"><ele>127.60000000000001</ele><time>2026-03-29T12:53:24.86Z</time></trkpt><trkpt lat="45.1772985" lon="8.298706"><ele>127.39999999999999</ele><time>2026-03-29T12:53:25.859Z</time></trkpt><trkpt lat="45.1773509" lon="8.2985651"><ele>127.19999999999999</ele><time>2026-03-29T12:53:26.865Z</time></trkpt><trkpt lat="45.1774019" lon="8.2984227"><ele>127.0</ele><time>2026-03-29T12:53:27.863Z</time></trkpt><trkpt lat="45.177453" lon="8.2982753"><ele>127.0</ele><time>2026-03-29T12:53:28.86Z</time></trkpt><trkpt lat="45.1774985" lon="8.2981309"><ele>126.99999999999999</ele><time>2026-03-29T12:53:29.863Z</time></trkpt><trkpt lat="45.1775416" lon="8.2979918"><ele>126.99999999999999</ele><time>2026-03-29T12:53:30.865Z</time></trkpt><trkpt lat="45.1775777" lon="8.2978572"><ele>127.0</ele><time>2026-03-29T12:53:31.862Z</time></trkpt><trkpt lat="45.177612" lon="8.2977239"><ele>127.0</ele><time>2026-03-29T12:53:32.859Z</time></trkpt><trkpt lat="45.177642" lon="8.2975954"><ele>127.19999999999999</ele><time>2026-03-29T12:53:33.86Z</time></trkpt><trkpt lat="45.1776685" lon="8.297474"><ele>127.39999999999999</ele><time>2026-03-29T12:53:34.865Z</time></trkpt><trkpt lat="45.1776974" lon="8.2973612"><ele>127.60000000000001</ele><time>2026-03-29T12:53:35.857Z</time></trkpt><trkpt lat="45.1777386" lon="8.2972503"><ele>127.80000000000001</ele><time>2026-03-29T12:53:36.859Z</time></trkpt><trkpt lat="45.1777921" lon="8.2971386"><ele>128.0</ele><time>2026-03-29T12:53:37.867Z</time></trkpt><trkpt lat="45.1778612" lon="8.2970288"><ele>128.0</ele><time>2026-03-29T12:53:38.859Z</time></trkpt><trkpt lat="45.1779327" lon="8.2969221"><ele>128.0</ele><time>2026-03-29T12:53:39.859Z</time></trkpt><trkpt lat="45.1780057" lon="8.2968179"><ele>128.0</ele><time>2026-03-29T12:53:40.894Z</time></trkpt><trkpt lat="45.178077" lon="8.2967098"><ele>128.0</ele><time>2026-03-29T12:53:41.859Z</time></trkpt><trkpt lat="45.1781425" lon="8.2966022"><ele>128.0</ele><time>2026-03-29T12:53:42.864Z</time></trkpt><trkpt lat="45.1781963" lon="8.2964891"><ele>128.0</ele><time>2026-03-29T12:53:43.86Z</time></trkpt><trkpt lat="45.1782466" lon="8.2963687"><ele>128.0</ele><time>2026-03-29T12:53:44.891Z</time></trkpt><trkpt lat="45.1782914" lon="8.2962432"><ele>128.0</ele><time>2026-03-29T12:53:45.889Z</time></trkpt><trkpt lat="45.1783319" lon="8.2961208"><ele>128.0</ele><time>2026-03-29T12:53:46.861Z</time></trkpt><trkpt lat="45.1783717" lon="8.2960077"><ele>128.0</ele><time>2026-03-29T12:53:47.874Z</time></trkpt><trkpt lat="45.178408" lon="8.2958984"><ele>127.99999999999999</ele><time>2026-03-29T12:53:48.857Z</time></trkpt><trkpt lat="45.1784444" lon="8.2957861"><ele>128.0</ele><time>2026-03-29T12:53:49.86Z</time></trkpt><trkpt lat="45.178478" lon="8.2956717"><ele>128.0</ele><time>2026-03-29T12:53:50.872Z</time></trkpt><trkpt lat="45.1785128" lon="8.2955561"><ele>128.0</ele><time>2026-03-29T12:53:51.86Z</time></trkpt><trkpt lat="45.1785495" lon="8.2954421"><ele>127.99999999999999</ele><time>2026-03-29T12:53:52.864Z</time></trkpt><trkpt lat="45.1785839" lon="8.2953364"><ele>128.0</ele><time>2026-03-29T12:53:53.858Z</time></trkpt><trkpt lat="45.1786167" lon="8.2952438"><ele>127.83333333333333</ele><time>2026-03-29T12:53:54.859Z</time></trkpt><trkpt lat="45.1786677" lon="8.2951267"><ele>127.66666666666666</ele><time>2026-03-29T12:53:56.863Z</time></trkpt><trkpt lat="45.1786908" lon="8.2950028"><ele>127.5</ele><time>2026-03-29T12:54:04.86Z</time></trkpt><trkpt lat="45.1786553" lon="8.2949109"><ele>127.33333333333334</ele><time>2026-03-29T12:54:06.862Z</time></trkpt><trkpt lat="45.178569" lon="8.2948453"><ele>127.16666666666667</ele><time>2026-03-29T12:54:08.87Z</time></trkpt><trkpt lat="45.178506" lon="8.2948176"><ele>127.0</ele><time>2026-03-29T12:54:09.856Z</time></trkpt><trkpt lat="45.1784443" lon="8.2947891"><ele>127.0</ele><time>2026-03-29T12:54:10.867Z</time></trkpt><trkpt lat="45.1783332" lon="8.2947282"><ele>126.99999999999999</ele><time>2026-03-29T12:54:12.856Z</time></trkpt><trkpt lat="45.1782464" lon="8.2946333"><ele>126.99999999999999</ele><time>2026-03-29T12:54:14.858Z</time></trkpt><trkpt lat="45.1782234" lon="8.2944827"><ele>127.0</ele><time>2026-03-29T12:54:16.861Z</time></trkpt><trkpt lat="45.1782426" lon="8.2943965"><ele>127.0</ele><time>2026-03-29T12:54:17.863Z</time></trkpt><trkpt lat="45.1782808" lon="8.2943071"><ele>127.0</ele><time>2026-03-29T12:54:18.853Z</time></trkpt><trkpt lat="45.1783308" lon="8.2942084"><ele>126.99999999999999</ele><time>2026-03-29T12:54:19.858Z</time></trkpt><trkpt lat="45.1783845" lon="8.2940965"><ele>126.99999999999999</ele><time>2026-03-29T12:54:20.856Z</time></trkpt><trkpt lat="45.1784359" lon="8.293976"><ele>127.0</ele><time>2026-03-29T12:54:21.861Z</time></trkpt><trkpt lat="45.1784848" lon="8.2938557"><ele>127.0</ele><time>2026-03-29T12:54:22.862Z</time></trkpt><trkpt lat="45.1785329" lon="8.2937385"><ele>126.8</ele><time>2026-03-29T12:54:23.868Z</time></trkpt><trkpt lat="45.1785814" lon="8.2936282"><ele>126.6</ele><time>2026-03-29T12:54:24.871Z</time></trkpt><trkpt lat="45.1786277" lon="8.2935165"><ele>126.39999999999999</ele><time>2026-03-29T12:54:25.874Z</time></trkpt><trkpt lat="45.178673" lon="8.293406"><ele>126.19999999999999</ele><time>2026-03-29T12:54:26.859Z</time></trkpt><trkpt lat="45.1787157" lon="8.2932919"><ele>126.0</ele><time>2026-03-29T12:54:27.858Z</time></trkpt><trkpt lat="45.1787608" lon="8.2931738"><ele>126.6</ele><time>2026-03-29T12:54:28.86Z</time></trkpt><trkpt lat="45.1788115" lon="8.2930534"><ele>127.19999999999999</ele><time>2026-03-29T12:54:29.863Z</time></trkpt><trkpt lat="45.1788621" lon="8.2929351"><ele>127.80000000000001</ele><time>2026-03-29T12:54:30.858Z</time></trkpt><trkpt lat="45.1789103" lon="8.2928165"><ele>128.4</ele><time>2026-03-29T12:54:31.863Z</time></trkpt><trkpt lat="45.1789566" lon="8.292697"><ele>129.0</ele><time>2026-03-29T12:54:32.863Z</time></trkpt><trkpt lat="45.1790049" lon="8.292578"><ele>128.8</ele><time>2026-03-29T12:54:33.855Z</time></trkpt><trkpt lat="45.1790541" lon="8.2924581"><ele>128.60000000000002</ele><time>2026-03-29T12:54:34.862Z</time></trkpt><trkpt lat="45.1791038" lon="8.2923374"><ele>128.4</ele><time>2026-03-29T12:54:35.858Z</time></trkpt><trkpt lat="45.1791541" lon="8.2922159"><ele>128.20000000000002</ele><time>2026-03-29T12:54:36.865Z</time></trkpt><trkpt lat="45.1792032" lon="8.2920929"><ele>128.0</ele><time>2026-03-29T12:54:37.869Z</time></trkpt><trkpt lat="45.1792517" lon="8.2919699"><ele>128.0</ele><time>2026-03-29T12:54:38.861Z</time></trkpt><trkpt lat="45.1793019" lon="8.291846"><ele>128.0</ele><time>2026-03-29T12:54:39.863Z</time></trkpt><trkpt lat="45.1793503" lon="8.2917224"><ele>128.0</ele><time>2026-03-29T12:54:40.859Z</time></trkpt><trkpt lat="45.1794008" lon="8.2915992"><ele>128.0</ele><time>2026-03-29T12:54:41.859Z</time></trkpt><trkpt lat="45.1794535" lon="8.2914753"><ele>128.0</ele><time>2026-03-29T12:54:42.865Z</time></trkpt><trkpt lat="45.1795077" lon="8.2913484"><ele>128.0</ele><time>2026-03-29T12:54:43.868Z</time></trkpt><trkpt lat="45.1795621" lon="8.2912199"><ele>128.0</ele><time>2026-03-29T12:54:44.864Z</time></trkpt><trkpt lat="45.1796158" lon="8.2910899"><ele>128.0</ele><time>2026-03-29T12:54:45.863Z</time></trkpt><trkpt lat="45.179665" lon="8.2909637"><ele>128.0</ele><time>2026-03-29T12:54:46.86Z</time></trkpt><trkpt lat="45.1797116" lon="8.2908443"><ele>128.0</ele><time>2026-03-29T12:54:47.856Z</time></trkpt><trkpt lat="45.1797542" lon="8.2907357"><ele>128.0</ele><time>2026-03-29T12:54:48.861Z</time></trkpt><trkpt lat="45.1797948" lon="8.2906319"><ele>128.0</ele><time>2026-03-29T12:54:49.861Z</time></trkpt><trkpt lat="45.1798363" lon="8.2905271"><ele>128.0</ele><time>2026-03-29T12:54:50.86Z</time></trkpt><trkpt lat="45.1798821" lon="8.2904176"><ele>128.0</ele><time>2026-03-29T12:54:51.864Z</time></trkpt><trkpt lat="45.1799303" lon="8.2903029"><ele>128.0</ele><time>2026-03-29T12:54:52.863Z</time></trkpt><trkpt lat="45.1799825" lon="8.2901837"><ele>128.0</ele><time>2026-03-29T12:54:53.862Z</time></trkpt><trkpt lat="45.1800357" lon="8.2900638"><ele>128.0</ele><time>2026-03-29T12:54:54.861Z</time></trkpt><trkpt lat="45.1800907" lon="8.2899399"><ele>128.0</ele><time>2026-03-29T12:54:55.872Z</time></trkpt><trkpt lat="45.1801457" lon="8.2898142"><ele>128.0</ele><time>2026-03-29T12:54:56.863Z</time></trkpt><trkpt lat="45.1802007" lon="8.289687"><ele>128.0</ele><time>2026-03-29T12:54:57.861Z</time></trkpt><trkpt lat="45.1802521" lon="8.2895579"><ele>128.20000000000002</ele><time>2026-03-29T12:54:58.859Z</time></trkpt><trkpt lat="45.1803057" lon="8.2894282"><ele>128.4</ele><time>2026-03-29T12:54:59.855Z</time></trkpt><trkpt lat="45.180358" lon="8.2892983"><ele>128.60000000000002</ele><time>2026-03-29T12:55:00.857Z</time></trkpt><trkpt lat="45.1804081" lon="8.28917"><ele>128.8</ele><time>2026-03-29T12:55:01.861Z</time></trkpt><trkpt lat="45.1804587" lon="8.2890455"><ele>129.0</ele><time>2026-03-29T12:55:02.872Z</time></trkpt><trkpt lat="45.180507" lon="8.2889298"><ele>128.83333333333334</ele><time>2026-03-29T12:55:03.89Z</time></trkpt><trkpt lat="45.1805473" lon="8.2888251"><ele>128.66666666666666</ele><time>2026-03-29T12:55:04.859Z</time></trkpt><trkpt lat="45.1805815" lon="8.2887297"><ele>128.5</ele><time>2026-03-29T12:55:05.862Z</time></trkpt><trkpt lat="45.1806216" lon="8.2886428"><ele>128.33333333333331</ele><time>2026-03-29T12:55:06.857Z</time></trkpt><trkpt lat="45.1806645" lon="8.2885653"><ele>128.16666666666666</ele><time>2026-03-29T12:55:07.86Z</time></trkpt><trkpt lat="45.1807167" lon="8.2884986"><ele>128.0</ele><time>2026-03-29T12:55:08.863Z</time></trkpt><trkpt lat="45.1807835" lon="8.2884337"><ele>128.0</ele><time>2026-03-29T12:55:09.859Z</time></trkpt><trkpt lat="45.1808666" lon="8.2883705"><ele>128.0</ele><time>2026-03-29T12:55:10.861Z</time></trkpt><trkpt lat="45.1809587" lon="8.2883029"><ele>128.0</ele><time>2026-03-29T12:55:11.856Z</time></trkpt><trkpt lat="45.1810544" lon="8.2882276"><ele>128.0</ele><time>2026-03-29T12:55:12.861Z</time></trkpt><trkpt lat="45.1811488" lon="8.2881539"><ele>128.0</ele><time>2026-03-29T12:55:13.858Z</time></trkpt><trkpt lat="45.1812384" lon="8.2880811"><ele>128.0</ele><time>2026-03-29T12:55:14.865Z</time></trkpt><trkpt lat="45.1813271" lon="8.28801"><ele>128.0</ele><time>2026-03-29T12:55:15.867Z</time></trkpt><trkpt lat="45.1814174" lon="8.2879406"><ele>128.0</ele><time>2026-03-29T12:55:16.863Z</time></trkpt><trkpt lat="45.1815058" lon="8.2878705"><ele>128.0</ele><time>2026-03-29T12:55:17.863Z</time></trkpt><trkpt lat="45.1815929" lon="8.2877984"><ele>128.0</ele><time>2026-03-29T12:55:18.859Z</time></trkpt><trkpt lat="45.1816754" lon="8.2877278"><ele>127.99999999999999</ele><time>2026-03-29T12:55:19.858Z</time></trkpt><trkpt lat="45.1817532" lon="8.2876563"><ele>128.0</ele><time>2026-03-29T12:55:20.866Z</time></trkpt><trkpt lat="45.1818282" lon="8.2875863"><ele>128.0</ele><time>2026-03-29T12:55:21.863Z</time></trkpt><trkpt lat="45.1818972" lon="8.287515"><ele>128.0</ele><time>2026-03-29T12:55:22.867Z</time></trkpt><trkpt lat="45.1819617" lon="8.2874364"><ele>127.99999999999999</ele><time>2026-03-29T12:55:23.861Z</time></trkpt><trkpt lat="45.1820189" lon="8.2873459"><ele>128.0</ele><time>2026-03-29T12:55:24.858Z</time></trkpt><trkpt lat="45.1820686" lon="8.2872444"><ele>128.0</ele><time>2026-03-29T12:55:25.862Z</time></trkpt><trkpt lat="45.182113" lon="8.2871302"><ele>128.0</ele><time>2026-03-29T12:55:26.863Z</time></trkpt><trkpt lat="45.1821523" lon="8.2870013"><ele>128.0</ele><time>2026-03-29T12:55:27.861Z</time></trkpt><trkpt lat="45.1821906" lon="8.2868637"><ele>128.0</ele><time>2026-03-29T12:55:28.855Z</time></trkpt><trkpt lat="45.1822292" lon="8.2867204"><ele>128.0</ele><time>2026-03-29T12:55:29.855Z</time></trkpt><trkpt lat="45.1822648" lon="8.286582"><ele>128.0</ele><time>2026-03-29T12:55:30.871Z</time></trkpt><trkpt lat="45.1823003" lon="8.2864491"><ele>128.0</ele><time>2026-03-29T12:55:31.864Z</time></trkpt><trkpt lat="45.1823336" lon="8.286319"><ele>128.0</ele><time>2026-03-29T12:55:32.858Z</time></trkpt><trkpt lat="45.1823647" lon="8.2861967"><ele>128.0</ele><time>2026-03-29T12:55:33.86Z</time></trkpt><trkpt lat="45.1823977" lon="8.2860802"><ele>128.0</ele><time>2026-03-29T12:55:34.86Z</time></trkpt><trkpt lat="45.1824306" lon="8.2859629"><ele>127.99999999999999</ele><time>2026-03-29T12:55:35.86Z</time></trkpt><trkpt lat="45.1824628" lon="8.2858463"><ele>128.0</ele><time>2026-03-29T12:55:36.858Z</time></trkpt><trkpt lat="45.1824919" lon="8.2857358"><ele>128.0</ele><time>2026-03-29T12:55:37.865Z</time></trkpt><trkpt lat="45.1825196" lon="8.2856302"><ele>128.0</ele><time>2026-03-29T12:55:38.862Z</time></trkpt><trkpt lat="45.1825461" lon="8.2855267"><ele>127.99999999999999</ele><time>2026-03-29T12:55:39.86Z</time></trkpt><trkpt lat="45.1825735" lon="8.2854217"><ele>128.0</ele><time>2026-03-29T12:55:40.864Z</time></trkpt><trkpt lat="45.1826059" lon="8.2853151"><ele>128.33333333333331</ele><time>2026-03-29T12:55:41.862Z</time></trkpt><trkpt lat="45.1826492" lon="8.2852135"><ele>128.66666666666666</ele><time>2026-03-29T12:55:42.862Z</time></trkpt><trkpt lat="45.1827016" lon="8.285121"><ele>129.0</ele><time>2026-03-29T12:55:43.863Z</time></trkpt><trkpt lat="45.1827535" lon="8.2850337"><ele>129.33333333333334</ele><time>2026-03-29T12:55:44.86Z</time></trkpt><trkpt lat="45.1827953" lon="8.2849454"><ele>129.66666666666669</ele><time>2026-03-29T12:55:45.864Z</time></trkpt><trkpt lat="45.1828246" lon="8.28485"><ele>130.0</ele><time>2026-03-29T12:55:46.861Z</time></trkpt><trkpt lat="45.1828377" lon="8.2847394"><ele>130.0</ele><time>2026-03-29T12:55:47.869Z</time></trkpt><trkpt lat="45.182856" lon="8.2846229"><ele>130.0</ele><time>2026-03-29T12:55:48.865Z</time></trkpt><trkpt lat="45.1828831" lon="8.2844974"><ele>130.0</ele><time>2026-03-29T12:55:49.854Z</time></trkpt><trkpt lat="45.1829168" lon="8.2843589"><ele>130.0</ele><time>2026-03-29T12:55:50.86Z</time></trkpt><trkpt lat="45.1829556" lon="8.2842189"><ele>130.0</ele><time>2026-03-29T12:55:51.858Z</time></trkpt><trkpt lat="45.1829953" lon="8.2840799"><ele>130.0</ele><time>2026-03-29T12:55:52.859Z</time></trkpt><trkpt lat="45.1830328" lon="8.2839433"><ele>130.0</ele><time>2026-03-29T12:55:53.889Z</time></trkpt><trkpt lat="45.1830667" lon="8.2838152"><ele>130.0</ele><time>2026-03-29T12:55:54.863Z</time></trkpt><trkpt lat="45.1831013" lon="8.2836895"><ele>130.0</ele><time>2026-03-29T12:55:55.857Z</time></trkpt><trkpt lat="45.1831398" lon="8.2835655"><ele>130.0</ele><time>2026-03-29T12:55:56.858Z</time></trkpt><trkpt lat="45.1831784" lon="8.2834422"><ele>130.0</ele><time>2026-03-29T12:55:57.855Z</time></trkpt><trkpt lat="45.1832138" lon="8.2833184"><ele>130.0</ele><time>2026-03-29T12:55:58.858Z</time></trkpt><trkpt lat="45.1832491" lon="8.2831918"><ele>130.0</ele><time>2026-03-29T12:55:59.874Z</time></trkpt><trkpt lat="45.1832853" lon="8.2830632"><ele>130.0</ele><time>2026-03-29T12:56:00.865Z</time></trkpt><trkpt lat="45.183324" lon="8.2829332"><ele>130.0</ele><time>2026-03-29T12:56:01.861Z</time></trkpt><trkpt lat="45.1833588" lon="8.2828062"><ele>130.0</ele><time>2026-03-29T12:56:02.856Z</time></trkpt><trkpt lat="45.1833936" lon="8.2826816"><ele>130.0</ele><time>2026-03-29T12:56:03.857Z</time></trkpt><trkpt lat="45.1834234" lon="8.2825702"><ele>130.0</ele><time>2026-03-29T12:56:04.871Z</time></trkpt><trkpt lat="45.1834488" lon="8.28247"><ele>130.0</ele><time>2026-03-29T12:56:05.867Z</time></trkpt><trkpt lat="45.183474" lon="8.2823778"><ele>130.0</ele><time>2026-03-29T12:56:06.864Z</time></trkpt><trkpt lat="45.1834969" lon="8.282289"><ele>130.0</ele><time>2026-03-29T12:56:07.861Z</time></trkpt><trkpt lat="45.1835191" lon="8.282203"><ele>130.0</ele><time>2026-03-29T12:56:08.861Z</time></trkpt><trkpt lat="45.1835675" lon="8.2820438"><ele>130.0</ele><time>2026-03-29T12:56:10.855Z</time></trkpt><trkpt lat="45.1836074" lon="8.2819064"><ele>130.0</ele><time>2026-03-29T12:56:12.885Z</time></trkpt><trkpt lat="45.1836423" lon="8.2818126"><ele>130.0</ele><time>2026-03-29T12:56:14.861Z</time></trkpt><trkpt lat="45.183702" lon="8.281725"><ele>130.0</ele><time>2026-03-29T12:56:16.87Z</time></trkpt><trkpt lat="45.1837692" lon="8.2815937"><ele>130.0</ele><time>2026-03-29T12:56:18.862Z</time></trkpt><trkpt lat="45.1837888" lon="8.2815042"><ele>130.0</ele><time>2026-03-29T12:56:19.858Z</time></trkpt><trkpt lat="45.1838055" lon="8.2814007"><ele>130.0</ele><time>2026-03-29T12:56:20.862Z</time></trkpt><trkpt lat="45.1838244" lon="8.28129"><ele>130.0</ele><time>2026-03-29T12:56:21.854Z</time></trkpt><trkpt lat="45.1838467" lon="8.2811758"><ele>130.0</ele><time>2026-03-29T12:56:22.855Z</time></trkpt><trkpt lat="45.183873" lon="8.2810642"><ele>130.0</ele><time>2026-03-29T12:56:23.867Z</time></trkpt><trkpt lat="45.1838964" lon="8.2809631"><ele>129.5</ele><time>2026-03-29T12:56:24.859Z</time></trkpt><trkpt lat="45.1839154" lon="8.2808683"><ele>129.0</ele><time>2026-03-29T12:56:25.864Z</time></trkpt><trkpt lat="45.183934" lon="8.2807814"><ele>128.5</ele><time>2026-03-29T12:56:26.863Z</time></trkpt><trkpt lat="45.1839851" lon="8.2806393"><ele>128.0</ele><time>2026-03-29T12:56:28.864Z</time></trkpt><trkpt lat="45.1840769" lon="8.2805353"><ele>127.50000000000001</ele><time>2026-03-29T12:56:30.855Z</time></trkpt><trkpt lat="45.1841441" lon="8.2805024"><ele>127.0</ele><time>2026-03-29T12:56:31.859Z</time></trkpt><trkpt lat="45.1842205" lon="8.2804843"><ele>128.2</ele><time>2026-03-29T12:56:32.855Z</time></trkpt><trkpt lat="45.1843115" lon="8.2804726"><ele>129.39999999999998</ele><time>2026-03-29T12:56:33.861Z</time></trkpt><trkpt lat="45.1844025" lon="8.2804648"><ele>130.60000000000002</ele><time>2026-03-29T12:56:34.855Z</time></trkpt><trkpt lat="45.1844922" lon="8.280453"><ele>131.8</ele><time>2026-03-29T12:56:35.863Z</time></trkpt><trkpt lat="45.1845816" lon="8.2804357"><ele>133.0</ele><time>2026-03-29T12:56:36.865Z</time></trkpt><trkpt lat="45.1846725" lon="8.2804165"><ele>133.0</ele><time>2026-03-29T12:56:37.862Z</time></trkpt><trkpt lat="45.1847615" lon="8.2804"><ele>133.0</ele><time>2026-03-29T12:56:38.86Z</time></trkpt><trkpt lat="45.184851" lon="8.2803811"><ele>133.0</ele><time>2026-03-29T12:56:39.861Z</time></trkpt><trkpt lat="45.1849398" lon="8.2803628"><ele>133.0</ele><time>2026-03-29T12:56:40.858Z</time></trkpt><trkpt lat="45.1850274" lon="8.2803431"><ele>133.0</ele><time>2026-03-29T12:56:41.862Z</time></trkpt><trkpt lat="45.1851149" lon="8.2803216"><ele>133.0</ele><time>2026-03-29T12:56:42.857Z</time></trkpt><trkpt lat="45.1851993" lon="8.280294"><ele>132.6</ele><time>2026-03-29T12:56:43.86Z</time></trkpt><trkpt lat="45.1852755" lon="8.2802616"><ele>132.20000000000002</ele><time>2026-03-29T12:56:44.856Z</time></trkpt><trkpt lat="45.1853447" lon="8.2802214"><ele>131.8</ele><time>2026-03-29T12:56:45.859Z</time></trkpt><trkpt lat="45.1854039" lon="8.2801749"><ele>131.4</ele><time>2026-03-29T12:56:46.87Z</time></trkpt><trkpt lat="45.1855039" lon="8.2800853"><ele>131.0</ele><time>2026-03-29T12:56:48.863Z</time></trkpt><trkpt lat="45.1856129" lon="8.2800252"><ele>131.0</ele><time>2026-03-29T12:56:50.859Z</time></trkpt><trkpt lat="45.1856775" lon="8.2800059"><ele>131.0</ele><time>2026-03-29T12:56:51.864Z</time></trkpt><trkpt lat="45.1857437" lon="8.2799936"><ele>131.0</ele><time>2026-03-29T12:56:52.898Z</time></trkpt><trkpt lat="45.1858206" lon="8.2799793"><ele>131.0</ele><time>2026-03-29T12:56:53.861Z</time></trkpt><trkpt lat="45.1858946" lon="8.279963"><ele>131.0</ele><time>2026-03-29T12:56:54.86Z</time></trkpt><trkpt lat="45.1859663" lon="8.2799434"><ele>131.0</ele><time>2026-03-29T12:56:55.866Z</time></trkpt><trkpt lat="45.1860399" lon="8.2799207"><ele>131.0</ele><time>2026-03-29T12:56:56.861Z</time></trkpt><trkpt lat="45.1861202" lon="8.2798939"><ele>130.66666666666666</ele><time>2026-03-29T12:56:57.858Z</time></trkpt><trkpt lat="45.1862017" lon="8.2798647"><ele>130.33333333333331</ele><time>2026-03-29T12:56:58.856Z</time></trkpt><trkpt lat="45.1862819" lon="8.2798353"><ele>130.0</ele><time>2026-03-29T12:56:59.862Z</time></trkpt><trkpt lat="45.1863643" lon="8.2798025"><ele>129.66666666666666</ele><time>2026-03-29T12:57:00.855Z</time></trkpt><trkpt lat="45.1864431" lon="8.2797672"><ele>129.33333333333334</ele><time>2026-03-29T12:57:01.859Z</time></trkpt><trkpt lat="45.1865194" lon="8.2797285"><ele>129.0</ele><time>2026-03-29T12:57:02.862Z</time></trkpt><trkpt lat="45.1865954" lon="8.2796824"><ele>129.0</ele><time>2026-03-29T12:57:03.862Z</time></trkpt><trkpt lat="45.1866751" lon="8.2796307"><ele>129.0</ele><time>2026-03-29T12:57:04.862Z</time></trkpt><trkpt lat="45.1867509" lon="8.2795778"><ele>129.0</ele><time>2026-03-29T12:57:05.864Z</time></trkpt><trkpt lat="45.1868228" lon="8.279524"><ele>129.0</ele><time>2026-03-29T12:57:06.858Z</time></trkpt><trkpt lat="45.1868969" lon="8.2794664"><ele>129.0</ele><time>2026-03-29T12:57:07.862Z</time></trkpt><trkpt lat="45.1869664" lon="8.2794095"><ele>129.0</ele><time>2026-03-29T12:57:08.862Z</time></trkpt><trkpt lat="45.1870305" lon="8.2793536"><ele>129.0</ele><time>2026-03-29T12:57:09.855Z</time></trkpt><trkpt lat="45.1870895" lon="8.279298"><ele>129.0</ele><time>2026-03-29T12:57:10.863Z</time></trkpt><trkpt lat="45.1871441" lon="8.2792486"><ele>129.0</ele><time>2026-03-29T12:57:11.859Z</time></trkpt><trkpt lat="45.1872325" lon="8.2791653"><ele>129.0</ele><time>2026-03-29T12:57:13.859Z</time></trkpt><trkpt lat="45.1872933" lon="8.279096"><ele>129.0</ele><time>2026-03-29T12:57:15.864Z</time></trkpt><trkpt lat="45.187297" lon="8.278974"><ele>129.0</ele><time>2026-03-29T12:57:19.858Z</time></trkpt><trkpt lat="45.187253" lon="8.2788757"><ele>129.2</ele><time>2026-03-29T12:57:21.865Z</time></trkpt><trkpt lat="45.1872275" lon="8.2787049"><ele>129.4</ele><time>2026-03-29T12:57:23.865Z</time></trkpt><trkpt lat="45.1872182" lon="8.2785852"><ele>129.6</ele><time>2026-03-29T12:57:24.862Z</time></trkpt><trkpt lat="45.1872091" lon="8.2784451"><ele>129.8</ele><time>2026-03-29T12:57:25.862Z</time></trkpt><trkpt lat="45.1872006" lon="8.2783017"><ele>130.0</ele><time>2026-03-29T12:57:26.861Z</time></trkpt><trkpt lat="45.1871949" lon="8.2781657"><ele>130.16666666666669</ele><time>2026-03-29T12:57:27.854Z</time></trkpt><trkpt lat="45.1871866" lon="8.2780398"><ele>130.33333333333334</ele><time>2026-03-29T12:57:28.857Z</time></trkpt><trkpt lat="45.1871805" lon="8.2779224"><ele>130.5</ele><time>2026-03-29T12:57:29.864Z</time></trkpt><trkpt lat="45.1871729" lon="8.2778089"><ele>130.66666666666666</ele><time>2026-03-29T12:57:30.862Z</time></trkpt><trkpt lat="45.1871668" lon="8.2776944"><ele>130.83333333333331</ele><time>2026-03-29T12:57:31.855Z</time></trkpt><trkpt lat="45.1871563" lon="8.2775845"><ele>131.0</ele><time>2026-03-29T12:57:32.855Z</time></trkpt><trkpt lat="45.1871458" lon="8.2774805"><ele>131.0</ele><time>2026-03-29T12:57:33.856Z</time></trkpt><trkpt lat="45.1871373" lon="8.2773841"><ele>131.0</ele><time>2026-03-29T12:57:34.865Z</time></trkpt><trkpt lat="45.187127" lon="8.277292"><ele>131.0</ele><time>2026-03-29T12:57:35.86Z</time></trkpt><trkpt lat="45.1871131" lon="8.2772036"><ele>131.0</ele><time>2026-03-29T12:57:36.859Z</time></trkpt><trkpt lat="45.1870882" lon="8.2770532"><ele>131.0</ele><time>2026-03-29T12:57:38.856Z</time></trkpt><trkpt lat="45.1870686" lon="8.2769457"><ele>131.0</ele><time>2026-03-29T12:57:41.86Z</time></trkpt><trkpt lat="45.1870455" lon="8.2768489"><ele>131.0</ele><time>2026-03-29T12:57:46.858Z</time></trkpt><trkpt lat="45.1871096" lon="8.2769214"><ele>131.0</ele><time>2026-03-29T12:58:01.862Z</time></trkpt><trkpt lat="45.1871865" lon="8.2769249"><ele>131.0</ele><time>2026-03-29T12:58:02.854Z</time></trkpt><trkpt lat="45.1872807" lon="8.276909"><ele>131.0</ele><time>2026-03-29T12:58:03.859Z</time></trkpt><trkpt lat="45.18738" lon="8.2768822"><ele>131.0</ele><time>2026-03-29T12:58:04.863Z</time></trkpt><trkpt lat="45.1874866" lon="8.2768542"><ele>130.8</ele><time>2026-03-29T12:58:05.856Z</time></trkpt><trkpt lat="45.1875951" lon="8.2768222"><ele>130.6</ele><time>2026-03-29T12:58:06.867Z</time></trkpt><trkpt lat="45.1876971" lon="8.2767944"><ele>130.4</ele><time>2026-03-29T12:58:07.869Z</time></trkpt><trkpt lat="45.1877939" lon="8.2767686"><ele>130.2</ele><time>2026-03-29T12:58:08.857Z</time></trkpt><trkpt lat="45.1878855" lon="8.2767468"><ele>130.0</ele><time>2026-03-29T12:58:09.857Z</time></trkpt><trkpt lat="45.1879727" lon="8.2767356"><ele>130.0</ele><time>2026-03-29T12:58:10.855Z</time></trkpt><trkpt lat="45.1880492" lon="8.2767373"><ele>130.0</ele><time>2026-03-29T12:58:11.863Z</time></trkpt><trkpt lat="45.1881111" lon="8.2767537"><ele>130.0</ele><time>2026-03-29T12:58:12.857Z</time></trkpt><trkpt lat="45.1882019" lon="8.2767966"><ele>130.0</ele><time>2026-03-29T12:58:14.863Z</time></trkpt><trkpt lat="45.1882832" lon="8.2767568"><ele>130.0</ele><time>2026-03-29T12:58:17.859Z</time></trkpt><trkpt lat="45.1883184" lon="8.2765816"><ele>129.75</ele><time>2026-03-29T12:58:19.855Z</time></trkpt><trkpt lat="45.188324" lon="8.2764336"><ele>129.5</ele><time>2026-03-29T12:58:20.859Z</time></trkpt><trkpt lat="45.1883355" lon="8.2762379"><ele>129.25</ele><time>2026-03-29T12:58:21.867Z</time></trkpt><trkpt lat="45.1883471" lon="8.2760322"><ele>129.0</ele><time>2026-03-29T12:58:22.861Z</time></trkpt><trkpt lat="45.188362" lon="8.2758166"><ele>129.0</ele><time>2026-03-29T12:58:23.865Z</time></trkpt><trkpt lat="45.1883785" lon="8.2755915"><ele>129.0</ele><time>2026-03-29T12:58:24.859Z</time></trkpt><trkpt lat="45.188393" lon="8.2753542"><ele>129.0</ele><time>2026-03-29T12:58:25.861Z</time></trkpt><trkpt lat="45.1884062" lon="8.275108"><ele>129.0</ele><time>2026-03-29T12:58:26.863Z</time></trkpt><trkpt lat="45.1884196" lon="8.2748457"><ele>129.0</ele><time>2026-03-29T12:58:27.858Z</time></trkpt><trkpt lat="45.1884413" lon="8.2745804"><ele>129.0</ele><time>2026-03-29T12:58:28.854Z</time></trkpt><trkpt lat="45.1884593" lon="8.2743157"><ele>129.0</ele><time>2026-03-29T12:58:29.856Z</time></trkpt><trkpt lat="45.1884787" lon="8.2740538"><ele>129.0</ele><time>2026-03-29T12:58:30.854Z</time></trkpt><trkpt lat="45.1884964" lon="8.273781"><ele>129.0</ele><time>2026-03-29T12:58:31.862Z</time></trkpt><trkpt lat="45.1885081" lon="8.2735016"><ele>129.66666666666666</ele><time>2026-03-29T12:58:32.858Z</time></trkpt><trkpt lat="45.1885225" lon="8.2732176"><ele>130.33333333333331</ele><time>2026-03-29T12:58:33.853Z</time></trkpt><trkpt lat="45.1885405" lon="8.2729282"><ele>131.0</ele><time>2026-03-29T12:58:34.857Z</time></trkpt><trkpt lat="45.1885643" lon="8.2726286"><ele>131.33333333333331</ele><time>2026-03-29T12:58:35.86Z</time></trkpt><trkpt lat="45.1885828" lon="8.2723298"><ele>131.66666666666666</ele><time>2026-03-29T12:58:36.86Z</time></trkpt><trkpt lat="45.1885973" lon="8.2720288"><ele>132.0</ele><time>2026-03-29T12:58:37.856Z</time></trkpt><trkpt lat="45.1886114" lon="8.2717275"><ele>130.66666666666666</ele><time>2026-03-29T12:58:38.86Z</time></trkpt><trkpt lat="45.1886273" lon="8.2714204"><ele>129.33333333333331</ele><time>2026-03-29T12:58:39.857Z</time></trkpt><trkpt lat="45.1886393" lon="8.2711096"><ele>128.0</ele><time>2026-03-29T12:58:40.856Z</time></trkpt><trkpt lat="45.1886506" lon="8.270793"><ele>128.5</ele><time>2026-03-29T12:58:41.858Z</time></trkpt><trkpt lat="45.1886595" lon="8.2704705"><ele>129.0</ele><time>2026-03-29T12:58:42.863Z</time></trkpt><trkpt lat="45.1886685" lon="8.2701414"><ele>129.0</ele><time>2026-03-29T12:58:43.856Z</time></trkpt><trkpt lat="45.1886791" lon="8.2698062"><ele>129.0</ele><time>2026-03-29T12:58:44.855Z</time></trkpt><trkpt lat="45.1886924" lon="8.2694628"><ele>129.5</ele><time>2026-03-29T12:58:45.862Z</time></trkpt><trkpt lat="45.1887078" lon="8.2691109"><ele>130.0</ele><time>2026-03-29T12:58:46.853Z</time></trkpt><trkpt lat="45.1887262" lon="8.2687535"><ele>130.0</ele><time>2026-03-29T12:58:47.856Z</time></trkpt><trkpt lat="45.1887423" lon="8.2683995"><ele>130.0</ele><time>2026-03-29T12:58:48.856Z</time></trkpt><trkpt lat="45.1887557" lon="8.2680515"><ele>130.0</ele><time>2026-03-29T12:58:49.853Z</time></trkpt><trkpt lat="45.1887711" lon="8.2677024"><ele>130.0</ele><time>2026-03-29T12:58:50.856Z</time></trkpt><trkpt lat="45.18879" lon="8.2673488"><ele>129.5</ele><time>2026-03-29T12:58:51.854Z</time></trkpt><trkpt lat="45.1888095" lon="8.2669887"><ele>129.0</ele><time>2026-03-29T12:58:52.855Z</time></trkpt><trkpt lat="45.1888323" lon="8.2666258"><ele>130.0</ele><time>2026-03-29T12:58:53.856Z</time></trkpt><trkpt lat="45.1888508" lon="8.2662594"><ele>131.0</ele><time>2026-03-29T12:58:54.885Z</time></trkpt><trkpt lat="45.1888669" lon="8.2658897"><ele>131.5</ele><time>2026-03-29T12:58:55.867Z</time></trkpt><trkpt lat="45.1888826" lon="8.2655144"><ele>132.0</ele><time>2026-03-29T12:58:56.857Z</time></trkpt><trkpt lat="45.1888978" lon="8.2651313"><ele>133.0</ele><time>2026-03-29T12:58:57.861Z</time></trkpt><trkpt lat="45.1889114" lon="8.2647483"><ele>134.0</ele><time>2026-03-29T12:58:58.857Z</time></trkpt><trkpt lat="45.1889265" lon="8.2643681"><ele>134.0</ele><time>2026-03-29T12:58:59.858Z</time></trkpt><trkpt lat="45.1889432" lon="8.2639913"><ele>134.0</ele><time>2026-03-29T12:59:00.856Z</time></trkpt><trkpt lat="45.1889606" lon="8.2636152"><ele>134.5</ele><time>2026-03-29T12:59:01.89Z</time></trkpt><trkpt lat="45.1889764" lon="8.263236"><ele>135.0</ele><time>2026-03-29T12:59:02.858Z</time></trkpt><trkpt lat="45.1889937" lon="8.2628528"><ele>132.5</ele><time>2026-03-29T12:59:03.854Z</time></trkpt><trkpt lat="45.1890135" lon="8.2624656"><ele>130.0</ele><time>2026-03-29T12:59:04.866Z</time></trkpt><trkpt lat="45.1890321" lon="8.2620751"><ele>130.0</ele><time>2026-03-29T12:59:05.861Z</time></trkpt><trkpt lat="45.18905" lon="8.2616852"><ele>130.0</ele><time>2026-03-29T12:59:06.855Z</time></trkpt><trkpt lat="45.18907" lon="8.2612967"><ele>130.5</ele><time>2026-03-29T12:59:07.855Z</time></trkpt><trkpt lat="45.1890904" lon="8.2609124"><ele>131.0</ele><time>2026-03-29T12:59:08.858Z</time></trkpt><trkpt lat="45.1891102" lon="8.2605357"><ele>130.0</ele><time>2026-03-29T12:59:09.872Z</time></trkpt><trkpt lat="45.1891306" lon="8.2601671"><ele>129.0</ele><time>2026-03-29T12:59:10.856Z</time></trkpt><trkpt lat="45.1891542" lon="8.2598037"><ele>129.0</ele><time>2026-03-29T12:59:11.857Z</time></trkpt><trkpt lat="45.1891793" lon="8.2594375"><ele>129.0</ele><time>2026-03-29T12:59:12.857Z</time></trkpt><trkpt lat="45.1892065" lon="8.259068"><ele>129.5</ele><time>2026-03-29T12:59:13.866Z</time></trkpt><trkpt lat="45.1892427" lon="8.2587037"><ele>130.0</ele><time>2026-03-29T12:59:14.857Z</time></trkpt><trkpt lat="45.1892787" lon="8.2583559"><ele>130.5</ele><time>2026-03-29T12:59:15.856Z</time></trkpt><trkpt lat="45.1893171" lon="8.2580291"><ele>131.0</ele><time>2026-03-29T12:59:16.857Z</time></trkpt><trkpt lat="45.1893588" lon="8.2577196"><ele>131.0</ele><time>2026-03-29T12:59:17.857Z</time></trkpt><trkpt lat="45.1894041" lon="8.2574172"><ele>131.0</ele><time>2026-03-29T12:59:18.855Z</time></trkpt><trkpt lat="45.1894541" lon="8.2571163"><ele>131.0</ele><time>2026-03-29T12:59:19.858Z</time></trkpt><trkpt lat="45.1895022" lon="8.2568208"><ele>131.33333333333331</ele><time>2026-03-29T12:59:20.864Z</time></trkpt><trkpt lat="45.189549" lon="8.256534"><ele>131.66666666666666</ele><time>2026-03-29T12:59:21.864Z</time></trkpt><trkpt lat="45.1895916" lon="8.256254"><ele>132.0</ele><time>2026-03-29T12:59:22.859Z</time></trkpt><trkpt lat="45.1896335" lon="8.2559753"><ele>132.0</ele><time>2026-03-29T12:59:23.859Z</time></trkpt><trkpt lat="45.189678" lon="8.2556917"><ele>132.0</ele><time>2026-03-29T12:59:24.857Z</time></trkpt><trkpt lat="45.1897267" lon="8.2553993"><ele>132.0</ele><time>2026-03-29T12:59:25.866Z</time></trkpt><trkpt lat="45.1897755" lon="8.2551027"><ele>132.33333333333334</ele><time>2026-03-29T12:59:26.858Z</time></trkpt><trkpt lat="45.1898227" lon="8.254802"><ele>132.66666666666669</ele><time>2026-03-29T12:59:27.863Z</time></trkpt><trkpt lat="45.1898664" lon="8.2544947"><ele>133.0</ele><time>2026-03-29T12:59:28.855Z</time></trkpt><trkpt lat="45.1899037" lon="8.2541816"><ele>133.5</ele><time>2026-03-29T12:59:29.86Z</time></trkpt><trkpt lat="45.1899316" lon="8.2538631"><ele>134.0</ele><time>2026-03-29T12:59:30.858Z</time></trkpt><trkpt lat="45.1899471" lon="8.2535392"><ele>134.0</ele><time>2026-03-29T12:59:31.859Z</time></trkpt><trkpt lat="45.1899484" lon="8.2532122"><ele>134.0</ele><time>2026-03-29T12:59:32.854Z</time></trkpt><trkpt lat="45.1899367" lon="8.2528767"><ele>134.0</ele><time>2026-03-29T12:59:33.857Z</time></trkpt><trkpt lat="45.1899189" lon="8.2525391"><ele>134.0</ele><time>2026-03-29T12:59:34.86Z</time></trkpt><trkpt lat="45.1898986" lon="8.2521976"><ele>134.5</ele><time>2026-03-29T12:59:35.862Z</time></trkpt><trkpt lat="45.1898761" lon="8.2518542"><ele>135.0</ele><time>2026-03-29T12:59:36.855Z</time></trkpt><trkpt lat="45.1898461" lon="8.2515106"><ele>134.0</ele><time>2026-03-29T12:59:37.859Z</time></trkpt><trkpt lat="45.1898035" lon="8.2511677"><ele>133.0</ele><time>2026-03-29T12:59:38.855Z</time></trkpt><trkpt lat="45.1897482" lon="8.2508251"><ele>133.0</ele><time>2026-03-29T12:59:39.855Z</time></trkpt><trkpt lat="45.1896811" lon="8.2504863"><ele>133.0</ele><time>2026-03-29T12:59:40.858Z</time></trkpt><trkpt lat="45.189605" lon="8.2501507"><ele>133.0</ele><time>2026-03-29T12:59:41.862Z</time></trkpt><trkpt lat="45.1895202" lon="8.2498164"><ele>133.0</ele><time>2026-03-29T12:59:42.854Z</time></trkpt><trkpt lat="45.1894293" lon="8.2494841"><ele>133.0</ele><time>2026-03-29T12:59:43.855Z</time></trkpt><trkpt lat="45.1893347" lon="8.2491596"><ele>133.0</ele><time>2026-03-29T12:59:44.864Z</time></trkpt><trkpt lat="45.1892305" lon="8.2488402"><ele>133.5</ele><time>2026-03-29T12:59:45.863Z</time></trkpt><trkpt lat="45.1891149" lon="8.2485217"><ele>134.0</ele><time>2026-03-29T12:59:46.86Z</time></trkpt><trkpt lat="45.1889867" lon="8.2482044"><ele>134.0</ele><time>2026-03-29T12:59:47.855Z</time></trkpt><trkpt lat="45.1888481" lon="8.2478882"><ele>134.0</ele><time>2026-03-29T12:59:48.858Z</time></trkpt><trkpt lat="45.1887003" lon="8.2475788"><ele>134.5</ele><time>2026-03-29T12:59:49.86Z</time></trkpt><trkpt lat="45.1885455" lon="8.2472697"><ele>135.0</ele><time>2026-03-29T12:59:50.857Z</time></trkpt><trkpt lat="45.1883803" lon="8.2469635"><ele>135.0</ele><time>2026-03-29T12:59:51.863Z</time></trkpt><trkpt lat="45.1882059" lon="8.246664"><ele>135.0</ele><time>2026-03-29T12:59:52.855Z</time></trkpt><trkpt lat="45.1880205" lon="8.2463736"><ele>135.0</ele><time>2026-03-29T12:59:53.858Z</time></trkpt><trkpt lat="45.1878215" lon="8.2460932"><ele>135.0</ele><time>2026-03-29T12:59:54.859Z</time></trkpt><trkpt lat="45.1876087" lon="8.2458189"><ele>134.0</ele><time>2026-03-29T12:59:55.862Z</time></trkpt><trkpt lat="45.1873886" lon="8.2455444"><ele>133.0</ele><time>2026-03-29T12:59:56.858Z</time></trkpt><trkpt lat="45.1871625" lon="8.2452685"><ele>133.0</ele><time>2026-03-29T12:59:57.858Z</time></trkpt><trkpt lat="45.1869363" lon="8.2449906"><ele>133.0</ele><time>2026-03-29T12:59:58.855Z</time></trkpt><trkpt lat="45.1867111" lon="8.2447089"><ele>132.5</ele><time>2026-03-29T12:59:59.852Z</time></trkpt><trkpt lat="45.186487" lon="8.2444207"><ele>132.0</ele><time>2026-03-29T13:00:00.857Z</time></trkpt><trkpt lat="45.1862653" lon="8.2441301"><ele>133.0</ele><time>2026-03-29T13:00:01.859Z</time></trkpt><trkpt lat="45.1860461" lon="8.2438421"><ele>134.0</ele><time>2026-03-29T13:00:02.858Z</time></trkpt><trkpt lat="45.185827" lon="8.2435553"><ele>133.5</ele><time>2026-03-29T13:00:03.863Z</time></trkpt><trkpt lat="45.185608" lon="8.2432708"><ele>133.0</ele><time>2026-03-29T13:00:04.855Z</time></trkpt><trkpt lat="45.1853891" lon="8.2429868"><ele>134.0</ele><time>2026-03-29T13:00:05.861Z</time></trkpt><trkpt lat="45.1851719" lon="8.2427036"><ele>135.0</ele><time>2026-03-29T13:00:06.855Z</time></trkpt><trkpt lat="45.1849575" lon="8.2424213"><ele>134.5</ele><time>2026-03-29T13:00:07.855Z</time></trkpt><trkpt lat="45.184744" lon="8.2421389"><ele>134.0</ele><time>2026-03-29T13:00:08.857Z</time></trkpt><trkpt lat="45.1845311" lon="8.241855"><ele>134.0</ele><time>2026-03-29T13:00:09.853Z</time></trkpt><trkpt lat="45.184319" lon="8.2415741"><ele>134.0</ele><time>2026-03-29T13:00:10.854Z</time></trkpt><trkpt lat="45.1841069" lon="8.241295"><ele>133.0</ele><time>2026-03-29T13:00:11.859Z</time></trkpt><trkpt lat="45.1838969" lon="8.2410162"><ele>132.0</ele><time>2026-03-29T13:00:12.852Z</time></trkpt><trkpt lat="45.1836856" lon="8.2407377"><ele>132.5</ele><time>2026-03-29T13:00:13.857Z</time></trkpt><trkpt lat="45.183473" lon="8.24046"><ele>133.0</ele><time>2026-03-29T13:00:14.858Z</time></trkpt><trkpt lat="45.1832615" lon="8.2401832"><ele>133.5</ele><time>2026-03-29T13:00:15.864Z</time></trkpt><trkpt lat="45.1830495" lon="8.2399068"><ele>134.0</ele><time>2026-03-29T13:00:16.859Z</time></trkpt><trkpt lat="45.1828394" lon="8.2396287"><ele>135.0</ele><time>2026-03-29T13:00:17.859Z</time></trkpt><trkpt lat="45.1826258" lon="8.239347"><ele>136.0</ele><time>2026-03-29T13:00:18.858Z</time></trkpt><trkpt lat="45.1824127" lon="8.2390652"><ele>135.5</ele><time>2026-03-29T13:00:19.855Z</time></trkpt><trkpt lat="45.1822021" lon="8.2387885"><ele>135.0</ele><time>2026-03-29T13:00:20.858Z</time></trkpt><trkpt lat="45.1819983" lon="8.2385191"><ele>135.0</ele><time>2026-03-29T13:00:21.854Z</time></trkpt><trkpt lat="45.1818042" lon="8.238259"><ele>135.0</ele><time>2026-03-29T13:00:22.857Z</time></trkpt><trkpt lat="45.1816208" lon="8.2380129"><ele>135.5</ele><time>2026-03-29T13:00:23.855Z</time></trkpt><trkpt lat="45.1814457" lon="8.2377789"><ele>136.0</ele><time>2026-03-29T13:00:24.858Z</time></trkpt><trkpt lat="45.181276" lon="8.2375522"><ele>136.0</ele><time>2026-03-29T13:00:25.858Z</time></trkpt><trkpt lat="45.1811114" lon="8.2373326"><ele>136.0</ele><time>2026-03-29T13:00:26.859Z</time></trkpt><trkpt lat="45.1809506" lon="8.2371192"><ele>136.0</ele><time>2026-03-29T13:00:27.859Z</time></trkpt><trkpt lat="45.1807908" lon="8.2369127"><ele>135.66666666666669</ele><time>2026-03-29T13:00:28.857Z</time></trkpt><trkpt lat="45.1806343" lon="8.2367083"><ele>135.33333333333334</ele><time>2026-03-29T13:00:29.889Z</time></trkpt><trkpt lat="45.1804795" lon="8.2364984"><ele>135.0</ele><time>2026-03-29T13:00:30.858Z</time></trkpt><trkpt lat="45.1803307" lon="8.2362778"><ele>135.0</ele><time>2026-03-29T13:00:31.859Z</time></trkpt><trkpt lat="45.1801891" lon="8.236044"><ele>135.0</ele><time>2026-03-29T13:00:32.856Z</time></trkpt><trkpt lat="45.1800577" lon="8.2357949"><ele>135.0</ele><time>2026-03-29T13:00:33.888Z</time></trkpt><trkpt lat="45.1799329" lon="8.2355365"><ele>134.66666666666666</ele><time>2026-03-29T13:00:34.862Z</time></trkpt><trkpt lat="45.1798147" lon="8.2352654"><ele>134.33333333333331</ele><time>2026-03-29T13:00:35.863Z</time></trkpt><trkpt lat="45.1797035" lon="8.2349883"><ele>134.0</ele><time>2026-03-29T13:00:36.858Z</time></trkpt><trkpt lat="45.1795987" lon="8.2347103"><ele>134.0</ele><time>2026-03-29T13:00:37.858Z</time></trkpt><trkpt lat="45.1795038" lon="8.2344424"><ele>134.0</ele><time>2026-03-29T13:00:38.853Z</time></trkpt><trkpt lat="45.179418" lon="8.2341785"><ele>134.0</ele><time>2026-03-29T13:00:39.86Z</time></trkpt><trkpt lat="45.1793404" lon="8.2339132"><ele>134.0</ele><time>2026-03-29T13:00:40.856Z</time></trkpt><trkpt lat="45.1792715" lon="8.2336415"><ele>134.0</ele><time>2026-03-29T13:00:41.86Z</time></trkpt><trkpt lat="45.1792094" lon="8.2333664"><ele>134.0</ele><time>2026-03-29T13:00:42.853Z</time></trkpt><trkpt lat="45.1791553" lon="8.2330807"><ele>134.0</ele><time>2026-03-29T13:00:43.857Z</time></trkpt><trkpt lat="45.1791058" lon="8.2327805"><ele>134.0</ele><time>2026-03-29T13:00:44.853Z</time></trkpt><trkpt lat="45.1790587" lon="8.2324666"><ele>134.0</ele><time>2026-03-29T13:00:45.857Z</time></trkpt><trkpt lat="45.1790155" lon="8.2321372"><ele>134.0</ele><time>2026-03-29T13:00:46.862Z</time></trkpt><trkpt lat="45.1789808" lon="8.2317923"><ele>134.0</ele><time>2026-03-29T13:00:47.853Z</time></trkpt><trkpt lat="45.1789625" lon="8.2314403"><ele>134.5</ele><time>2026-03-29T13:00:48.889Z</time></trkpt><trkpt lat="45.1789586" lon="8.2310831"><ele>135.0</ele><time>2026-03-29T13:00:49.856Z</time></trkpt><trkpt lat="45.1789667" lon="8.2307296"><ele>134.5</ele><time>2026-03-29T13:00:50.86Z</time></trkpt><trkpt lat="45.1789822" lon="8.2303808"><ele>134.0</ele><time>2026-03-29T13:00:51.858Z</time></trkpt><trkpt lat="45.1790122" lon="8.2300352"><ele>135.0</ele><time>2026-03-29T13:00:52.861Z</time></trkpt><trkpt lat="45.1790518" lon="8.2296869"><ele>136.0</ele><time>2026-03-29T13:00:53.859Z</time></trkpt><trkpt lat="45.1791011" lon="8.2293386"><ele>136.0</ele><time>2026-03-29T13:00:54.86Z</time></trkpt><trkpt lat="45.179161" lon="8.228986"><ele>136.0</ele><time>2026-03-29T13:00:55.863Z</time></trkpt><trkpt lat="45.1792286" lon="8.2286351"><ele>136.0</ele><time>2026-03-29T13:00:56.862Z</time></trkpt><trkpt lat="45.1793088" lon="8.2282932"><ele>136.0</ele><time>2026-03-29T13:00:57.86Z</time></trkpt><trkpt lat="45.179399" lon="8.2279609"><ele>135.5</ele><time>2026-03-29T13:00:58.867Z</time></trkpt><trkpt lat="45.1794978" lon="8.2276419"><ele>135.0</ele><time>2026-03-29T13:00:59.854Z</time></trkpt><trkpt lat="45.1796028" lon="8.2273351"><ele>134.5</ele><time>2026-03-29T13:01:00.861Z</time></trkpt><trkpt lat="45.1797142" lon="8.2270402"><ele>134.0</ele><time>2026-03-29T13:01:01.863Z</time></trkpt><trkpt lat="45.179837" lon="8.2267521"><ele>134.5</ele><time>2026-03-29T13:01:02.857Z</time></trkpt><trkpt lat="45.1799715" lon="8.226469"><ele>135.0</ele><time>2026-03-29T13:01:03.856Z</time></trkpt><trkpt lat="45.1801159" lon="8.2261949"><ele>135.0</ele><time>2026-03-29T13:01:04.858Z</time></trkpt><trkpt lat="45.1802672" lon="8.2259307"><ele>135.0</ele><time>2026-03-29T13:01:05.855Z</time></trkpt><trkpt lat="45.1804243" lon="8.2256758"><ele>135.5</ele><time>2026-03-29T13:01:06.854Z</time></trkpt><trkpt lat="45.1805845" lon="8.2254392"><ele>136.0</ele><time>2026-03-29T13:01:07.864Z</time></trkpt><trkpt lat="45.1807462" lon="8.2252175"><ele>136.33333333333334</ele><time>2026-03-29T13:01:08.855Z</time></trkpt><trkpt lat="45.1809082" lon="8.2250193"><ele>136.66666666666666</ele><time>2026-03-29T13:01:09.864Z</time></trkpt><trkpt lat="45.1810615" lon="8.2248415"><ele>137.0</ele><time>2026-03-29T13:01:10.861Z</time></trkpt><trkpt lat="45.1812052" lon="8.2246797"><ele>137.0</ele><time>2026-03-29T13:01:11.862Z</time></trkpt><trkpt lat="45.1813384" lon="8.2245238"><ele>137.0</ele><time>2026-03-29T13:01:12.86Z</time></trkpt><trkpt lat="45.1814584" lon="8.2243842"><ele>137.0</ele><time>2026-03-29T13:01:13.862Z</time></trkpt><trkpt lat="45.1815647" lon="8.2242588"><ele>137.0</ele><time>2026-03-29T13:01:14.859Z</time></trkpt><trkpt lat="45.1816626" lon="8.2241473"><ele>137.0</ele><time>2026-03-29T13:01:15.861Z</time></trkpt><trkpt lat="45.1817481" lon="8.2240449"><ele>137.0</ele><time>2026-03-29T13:01:16.861Z</time></trkpt><trkpt lat="45.1818147" lon="8.22395"><ele>137.0</ele><time>2026-03-29T13:01:17.862Z</time></trkpt><trkpt lat="45.1818644" lon="8.2238622"><ele>137.0</ele><time>2026-03-29T13:01:18.859Z</time></trkpt><trkpt lat="45.1818967" lon="8.2237833"><ele>137.0</ele><time>2026-03-29T13:01:19.86Z</time></trkpt><trkpt lat="45.1819335" lon="8.2236324"><ele>137.0</ele><time>2026-03-29T13:01:21.859Z</time></trkpt><trkpt lat="45.1819687" lon="8.2234906"><ele>137.0</ele><time>2026-03-29T13:01:23.86Z</time></trkpt><trkpt lat="45.1820537" lon="8.2233496"><ele>137.0</ele><time>2026-03-29T13:01:25.858Z</time></trkpt><trkpt lat="45.1821195" lon="8.2232747"><ele>137.0</ele><time>2026-03-29T13:01:26.862Z</time></trkpt><trkpt lat="45.182197" lon="8.2231911"><ele>137.0</ele><time>2026-03-29T13:01:27.859Z</time></trkpt><trkpt lat="45.1822791" lon="8.2230968"><ele>137.0</ele><time>2026-03-29T13:01:28.857Z</time></trkpt><trkpt lat="45.1823663" lon="8.2229955"><ele>137.0</ele><time>2026-03-29T13:01:29.86Z</time></trkpt><trkpt lat="45.1824548" lon="8.2228888"><ele>137.0</ele><time>2026-03-29T13:01:30.859Z</time></trkpt><trkpt lat="45.1825472" lon="8.2227824"><ele>137.25</ele><time>2026-03-29T13:01:31.865Z</time></trkpt><trkpt lat="45.1826363" lon="8.2226772"><ele>137.5</ele><time>2026-03-29T13:01:32.877Z</time></trkpt><trkpt lat="45.1827259" lon="8.2225748"><ele>137.75</ele><time>2026-03-29T13:01:33.867Z</time></trkpt><trkpt lat="45.1828121" lon="8.2224729"><ele>138.0</ele><time>2026-03-29T13:01:34.868Z</time></trkpt><trkpt lat="45.1828961" lon="8.2223734"><ele>138.0</ele><time>2026-03-29T13:01:35.86Z</time></trkpt><trkpt lat="45.1829801" lon="8.2222767"><ele>138.0</ele><time>2026-03-29T13:01:36.859Z</time></trkpt><trkpt lat="45.1830655" lon="8.2221781"><ele>138.0</ele><time>2026-03-29T13:01:37.887Z</time></trkpt><trkpt lat="45.1831509" lon="8.2220758"><ele>138.0</ele><time>2026-03-29T13:01:38.865Z</time></trkpt><trkpt lat="45.183235" lon="8.2219692"><ele>138.0</ele><time>2026-03-29T13:01:39.856Z</time></trkpt><trkpt lat="45.1833227" lon="8.2218612"><ele>138.0</ele><time>2026-03-29T13:01:40.859Z</time></trkpt><trkpt lat="45.1834137" lon="8.2217524"><ele>138.0</ele><time>2026-03-29T13:01:41.858Z</time></trkpt><trkpt lat="45.1835063" lon="8.2216452"><ele>138.0</ele><time>2026-03-29T13:01:42.859Z</time></trkpt><trkpt lat="45.1835964" lon="8.2215396"><ele>138.0</ele><time>2026-03-29T13:01:43.863Z</time></trkpt><trkpt lat="45.1836852" lon="8.2214363"><ele>138.0</ele><time>2026-03-29T13:01:44.861Z</time></trkpt><trkpt lat="45.1837738" lon="8.2213323"><ele>138.0</ele><time>2026-03-29T13:01:45.862Z</time></trkpt><trkpt lat="45.1838649" lon="8.2212271"><ele>138.0</ele><time>2026-03-29T13:01:46.858Z</time></trkpt><trkpt lat="45.1839554" lon="8.2211234"><ele>138.0</ele><time>2026-03-29T13:01:47.862Z</time></trkpt><trkpt lat="45.1840451" lon="8.2210207"><ele>138.0</ele><time>2026-03-29T13:01:48.865Z</time></trkpt><trkpt lat="45.184132" lon="8.2209224"><ele>138.0</ele><time>2026-03-29T13:01:49.859Z</time></trkpt><trkpt lat="45.1842137" lon="8.2208279"><ele>138.0</ele><time>2026-03-29T13:01:50.89Z</time></trkpt><trkpt lat="45.1842875" lon="8.2207391"><ele>138.0</ele><time>2026-03-29T13:01:51.882Z</time></trkpt><trkpt lat="45.1843553" lon="8.2206551"><ele>138.0</ele><time>2026-03-29T13:01:52.861Z</time></trkpt><trkpt lat="45.1844172" lon="8.2205723"><ele>138.0</ele><time>2026-03-29T13:01:53.855Z</time></trkpt><trkpt lat="45.1844681" lon="8.220488"><ele>138.0</ele><time>2026-03-29T13:01:54.864Z</time></trkpt><trkpt lat="45.1845133" lon="8.2204001"><ele>138.0</ele><time>2026-03-29T13:01:55.865Z</time></trkpt><trkpt lat="45.1845512" lon="8.2203068"><ele>138.0</ele><time>2026-03-29T13:01:56.88Z</time></trkpt><trkpt lat="45.1845802" lon="8.220206"><ele>138.0</ele><time>2026-03-29T13:01:57.861Z</time></trkpt><trkpt lat="45.1845964" lon="8.220097"><ele>138.0</ele><time>2026-03-29T13:01:58.862Z</time></trkpt><trkpt lat="45.1846001" lon="8.2199863"><ele>138.0</ele><time>2026-03-29T13:01:59.853Z</time></trkpt><trkpt lat="45.1845957" lon="8.2198741"><ele>138.0</ele><time>2026-03-29T13:02:00.868Z</time></trkpt><trkpt lat="45.1845814" lon="8.2197609"><ele>138.0</ele><time>2026-03-29T13:02:01.859Z</time></trkpt><trkpt lat="45.1845572" lon="8.2196424"><ele>138.0</ele><time>2026-03-29T13:02:02.86Z</time></trkpt><trkpt lat="45.1845315" lon="8.2195086"><ele>138.0</ele><time>2026-03-29T13:02:03.857Z</time></trkpt><trkpt lat="45.1845092" lon="8.2193617"><ele>138.0</ele><time>2026-03-29T13:02:04.862Z</time></trkpt><trkpt lat="45.1844912" lon="8.2192052"><ele>138.0</ele><time>2026-03-29T13:02:05.858Z</time></trkpt><trkpt lat="45.1844747" lon="8.2190427"><ele>138.0</ele><time>2026-03-29T13:02:06.866Z</time></trkpt><trkpt lat="45.1844635" lon="8.2188791"><ele>138.0</ele><time>2026-03-29T13:02:07.865Z</time></trkpt><trkpt lat="45.1844591" lon="8.2187148"><ele>137.75</ele><time>2026-03-29T13:02:08.859Z</time></trkpt><trkpt lat="45.1844588" lon="8.2185475"><ele>137.5</ele><time>2026-03-29T13:02:09.857Z</time></trkpt><trkpt lat="45.1844607" lon="8.2183775"><ele>137.25</ele><time>2026-03-29T13:02:10.87Z</time></trkpt><trkpt lat="45.1844641" lon="8.2182081"><ele>137.0</ele><time>2026-03-29T13:02:11.858Z</time></trkpt><trkpt lat="45.1844654" lon="8.2180429"><ele>137.0</ele><time>2026-03-29T13:02:12.865Z</time></trkpt><trkpt lat="45.1844617" lon="8.2178779"><ele>137.0</ele><time>2026-03-29T13:02:13.861Z</time></trkpt><trkpt lat="45.1844514" lon="8.2177142"><ele>137.0</ele><time>2026-03-29T13:02:14.86Z</time></trkpt><trkpt lat="45.1844361" lon="8.2175521"><ele>137.0</ele><time>2026-03-29T13:02:15.87Z</time></trkpt><trkpt lat="45.184416" lon="8.2173923"><ele>137.0</ele><time>2026-03-29T13:02:16.858Z</time></trkpt><trkpt lat="45.1843905" lon="8.2172351"><ele>137.0</ele><time>2026-03-29T13:02:17.861Z</time></trkpt><trkpt lat="45.1843676" lon="8.2170872"><ele>137.0</ele><time>2026-03-29T13:02:18.864Z</time></trkpt><trkpt lat="45.1843468" lon="8.2169535"><ele>137.0</ele><time>2026-03-29T13:02:19.861Z</time></trkpt><trkpt lat="45.184326" lon="8.2168275"><ele>137.0</ele><time>2026-03-29T13:02:20.859Z</time></trkpt><trkpt lat="45.1843065" lon="8.2167016"><ele>137.0</ele><time>2026-03-29T13:02:21.861Z</time></trkpt><trkpt lat="45.1842872" lon="8.2165733"><ele>137.0</ele><time>2026-03-29T13:02:22.86Z</time></trkpt><trkpt lat="45.1842694" lon="8.216444"><ele>137.0</ele><time>2026-03-29T13:02:23.863Z</time></trkpt><trkpt lat="45.1842542" lon="8.2163184"><ele>137.0</ele><time>2026-03-29T13:02:24.86Z</time></trkpt><trkpt lat="45.1842407" lon="8.2161974"><ele>137.0</ele><time>2026-03-29T13:02:25.863Z</time></trkpt><trkpt lat="45.1842331" lon="8.2160788"><ele>137.0</ele><time>2026-03-29T13:02:26.86Z</time></trkpt><trkpt lat="45.1842332" lon="8.2159569"><ele>137.0</ele><time>2026-03-29T13:02:27.86Z</time></trkpt><trkpt lat="45.1842404" lon="8.2158315"><ele>137.0</ele><time>2026-03-29T13:02:28.867Z</time></trkpt><trkpt lat="45.1842562" lon="8.2157037"><ele>137.0</ele><time>2026-03-29T13:02:29.86Z</time></trkpt><trkpt lat="45.1842796" lon="8.215572"><ele>137.0</ele><time>2026-03-29T13:02:30.862Z</time></trkpt><trkpt lat="45.1843087" lon="8.2154396"><ele>137.0</ele><time>2026-03-29T13:02:31.86Z</time></trkpt><trkpt lat="45.1843413" lon="8.2153035"><ele>137.0</ele><time>2026-03-29T13:02:32.862Z</time></trkpt><trkpt lat="45.1843792" lon="8.2151666"><ele>137.0</ele><time>2026-03-29T13:02:33.865Z</time></trkpt><trkpt lat="45.1844172" lon="8.2150274"><ele>137.0</ele><time>2026-03-29T13:02:34.857Z</time></trkpt><trkpt lat="45.1844541" lon="8.2148868"><ele>137.0</ele><time>2026-03-29T13:02:35.868Z</time></trkpt><trkpt lat="45.1844873" lon="8.2147419"><ele>137.0</ele><time>2026-03-29T13:02:36.858Z</time></trkpt><trkpt lat="45.1845155" lon="8.214596"><ele>137.0</ele><time>2026-03-29T13:02:37.86Z</time></trkpt><trkpt lat="45.184537" lon="8.2144479"><ele>137.0</ele><time>2026-03-29T13:02:38.859Z</time></trkpt><trkpt lat="45.1845524" lon="8.214298"><ele>137.0</ele><time>2026-03-29T13:02:39.859Z</time></trkpt><trkpt lat="45.1845653" lon="8.2141473"><ele>137.0</ele><time>2026-03-29T13:02:40.86Z</time></trkpt><trkpt lat="45.1845742" lon="8.2139963"><ele>137.0</ele><time>2026-03-29T13:02:41.873Z</time></trkpt><trkpt lat="45.1845865" lon="8.213848"><ele>137.0</ele><time>2026-03-29T13:02:42.866Z</time></trkpt><trkpt lat="45.1846071" lon="8.2137038"><ele>137.0</ele><time>2026-03-29T13:02:43.863Z</time></trkpt><trkpt lat="45.1846373" lon="8.2135642"><ele>137.0</ele><time>2026-03-29T13:02:44.859Z</time></trkpt><trkpt lat="45.1846761" lon="8.2134307"><ele>137.0</ele><time>2026-03-29T13:02:45.857Z</time></trkpt><trkpt lat="45.1847178" lon="8.2133013"><ele>137.0</ele><time>2026-03-29T13:02:46.859Z</time></trkpt><trkpt lat="45.1847611" lon="8.2131716"><ele>137.0</ele><time>2026-03-29T13:02:47.862Z</time></trkpt><trkpt lat="45.1848077" lon="8.2130492"><ele>137.0</ele><time>2026-03-29T13:02:48.856Z</time></trkpt><trkpt lat="45.184853" lon="8.2129396"><ele>137.0</ele><time>2026-03-29T13:02:49.864Z</time></trkpt><trkpt lat="45.1848927" lon="8.212842"><ele>137.0</ele><time>2026-03-29T13:02:50.884Z</time></trkpt><trkpt lat="45.1849258" lon="8.2127555"><ele>137.0</ele><time>2026-03-29T13:02:51.86Z</time></trkpt><trkpt lat="45.1849763" lon="8.2125955"><ele>137.4</ele><time>2026-03-29T13:02:53.869Z</time></trkpt><trkpt lat="45.1850177" lon="8.2124212"><ele>137.79999999999998</ele><time>2026-03-29T13:02:55.862Z</time></trkpt><trkpt lat="45.1850289" lon="8.212316"><ele>138.2</ele><time>2026-03-29T13:02:56.861Z</time></trkpt><trkpt lat="45.1850421" lon="8.2122016"><ele>138.6</ele><time>2026-03-29T13:02:57.887Z</time></trkpt><trkpt lat="45.1850681" lon="8.2120907"><ele>139.0</ele><time>2026-03-29T13:02:58.891Z</time></trkpt><trkpt lat="45.1851083" lon="8.2119846"><ele>139.0</ele><time>2026-03-29T13:02:59.861Z</time></trkpt><trkpt lat="45.185164" lon="8.2118728"><ele>139.0</ele><time>2026-03-29T13:03:00.868Z</time></trkpt><trkpt lat="45.1852169" lon="8.2117494"><ele>139.0</ele><time>2026-03-29T13:03:01.857Z</time></trkpt><trkpt lat="45.185266" lon="8.2116168"><ele>139.0</ele><time>2026-03-29T13:03:02.863Z</time></trkpt><trkpt lat="45.1853094" lon="8.2114828"><ele>139.0</ele><time>2026-03-29T13:03:03.876Z</time></trkpt><trkpt lat="45.1853488" lon="8.211352"><ele>139.0</ele><time>2026-03-29T13:03:04.86Z</time></trkpt><trkpt lat="45.1853859" lon="8.2112218"><ele>139.0</ele><time>2026-03-29T13:03:05.858Z</time></trkpt><trkpt lat="45.1854215" lon="8.2110921"><ele>139.0</ele><time>2026-03-29T13:03:06.857Z</time></trkpt><trkpt lat="45.1854547" lon="8.2109609"><ele>139.0</ele><time>2026-03-29T13:03:07.857Z</time></trkpt><trkpt lat="45.1854822" lon="8.2108295"><ele>139.0</ele><time>2026-03-29T13:03:08.859Z</time></trkpt><trkpt lat="45.1855012" lon="8.210694"><ele>139.16666666666669</ele><time>2026-03-29T13:03:09.857Z</time></trkpt><trkpt lat="45.1855084" lon="8.2105578"><ele>139.33333333333334</ele><time>2026-03-29T13:03:10.858Z</time></trkpt><trkpt lat="45.1855065" lon="8.210427"><ele>139.5</ele><time>2026-03-29T13:03:11.859Z</time></trkpt><trkpt lat="45.1855026" lon="8.2103059"><ele>139.66666666666666</ele><time>2026-03-29T13:03:12.867Z</time></trkpt><trkpt lat="45.1854997" lon="8.2101922"><ele>139.83333333333331</ele><time>2026-03-29T13:03:13.869Z</time></trkpt><trkpt lat="45.1855082" lon="8.2100856"><ele>140.0</ele><time>2026-03-29T13:03:14.862Z</time></trkpt><trkpt lat="45.1855325" lon="8.2099717"><ele>140.0</ele><time>2026-03-29T13:03:15.862Z</time></trkpt><trkpt lat="45.1855785" lon="8.2098566"><ele>140.0</ele><time>2026-03-29T13:03:16.86Z</time></trkpt><trkpt lat="45.1856388" lon="8.2097379"><ele>140.0</ele><time>2026-03-29T13:03:17.865Z</time></trkpt><trkpt lat="45.1857055" lon="8.2096068"><ele>140.0</ele><time>2026-03-29T13:03:18.863Z</time></trkpt><trkpt lat="45.1857706" lon="8.2094796"><ele>140.0</ele><time>2026-03-29T13:03:19.86Z</time></trkpt><trkpt lat="45.185835" lon="8.2093546"><ele>139.6</ele><time>2026-03-29T13:03:20.861Z</time></trkpt><trkpt lat="45.1859027" lon="8.2092336"><ele>139.2</ele><time>2026-03-29T13:03:21.867Z</time></trkpt><trkpt lat="45.1859747" lon="8.2091155"><ele>138.8</ele><time>2026-03-29T13:03:22.856Z</time></trkpt><trkpt lat="45.1860505" lon="8.2090016"><ele>138.4</ele><time>2026-03-29T13:03:23.858Z</time></trkpt><trkpt lat="45.1861285" lon="8.2088882"><ele>138.0</ele><time>2026-03-29T13:03:24.885Z</time></trkpt><trkpt lat="45.1862095" lon="8.2087745"><ele>138.0</ele><time>2026-03-29T13:03:25.858Z</time></trkpt><trkpt lat="45.1862904" lon="8.2086581"><ele>138.0</ele><time>2026-03-29T13:03:26.869Z</time></trkpt><trkpt lat="45.1863691" lon="8.2085407"><ele>138.0</ele><time>2026-03-29T13:03:27.867Z</time></trkpt><trkpt lat="45.1864474" lon="8.2084253"><ele>138.0</ele><time>2026-03-29T13:03:28.86Z</time></trkpt><trkpt lat="45.1865253" lon="8.2083143"><ele>138.4</ele><time>2026-03-29T13:03:29.856Z</time></trkpt><trkpt lat="45.1865952" lon="8.2082007"><ele>138.8</ele><time>2026-03-29T13:03:30.856Z</time></trkpt><trkpt lat="45.186659" lon="8.2080885"><ele>139.2</ele><time>2026-03-29T13:03:31.856Z</time></trkpt><trkpt lat="45.1867092" lon="8.2079785"><ele>139.6</ele><time>2026-03-29T13:03:32.864Z</time></trkpt><trkpt lat="45.1867502" lon="8.207863"><ele>140.0</ele><time>2026-03-29T13:03:33.87Z</time></trkpt><trkpt lat="45.1867866" lon="8.20774"><ele>140.0</ele><time>2026-03-29T13:03:34.863Z</time></trkpt><trkpt lat="45.1868239" lon="8.2076103"><ele>140.0</ele><time>2026-03-29T13:03:35.863Z</time></trkpt><trkpt lat="45.1868658" lon="8.2074871"><ele>140.0</ele><time>2026-03-29T13:03:36.86Z</time></trkpt><trkpt lat="45.1869182" lon="8.2073736"><ele>140.0</ele><time>2026-03-29T13:03:37.859Z</time></trkpt><trkpt lat="45.1869766" lon="8.207269"><ele>140.0</ele><time>2026-03-29T13:03:38.863Z</time></trkpt><trkpt lat="45.1870339" lon="8.2071745"><ele>140.0</ele><time>2026-03-29T13:03:39.856Z</time></trkpt><trkpt lat="45.1870844" lon="8.207074"><ele>140.0</ele><time>2026-03-29T13:03:40.853Z</time></trkpt><trkpt lat="45.1871244" lon="8.2069674"><ele>140.0</ele><time>2026-03-29T13:03:41.859Z</time></trkpt><trkpt lat="45.1871503" lon="8.2068486"><ele>140.0</ele><time>2026-03-29T13:03:42.859Z</time></trkpt><trkpt lat="45.187167" lon="8.206713"><ele>140.0</ele><time>2026-03-29T13:03:43.89Z</time></trkpt><trkpt lat="45.1871857" lon="8.2065679"><ele>139.8</ele><time>2026-03-29T13:03:44.858Z</time></trkpt><trkpt lat="45.1872024" lon="8.206433"><ele>139.6</ele><time>2026-03-29T13:03:45.862Z</time></trkpt><trkpt lat="45.1872212" lon="8.2063016"><ele>139.4</ele><time>2026-03-29T13:03:46.863Z</time></trkpt><trkpt lat="45.1872427" lon="8.2061724"><ele>139.2</ele><time>2026-03-29T13:03:47.861Z</time></trkpt><trkpt lat="45.1872688" lon="8.2060445"><ele>139.0</ele><time>2026-03-29T13:03:48.863Z</time></trkpt><trkpt lat="45.1872972" lon="8.2059215"><ele>139.0</ele><time>2026-03-29T13:03:49.87Z</time></trkpt><trkpt lat="45.187329" lon="8.2058041"><ele>139.0</ele><time>2026-03-29T13:03:50.863Z</time></trkpt><trkpt lat="45.1873665" lon="8.2056896"><ele>139.0</ele><time>2026-03-29T13:03:51.861Z</time></trkpt><trkpt lat="45.1874134" lon="8.205585"><ele>139.0</ele><time>2026-03-29T13:03:52.855Z</time></trkpt><trkpt lat="45.1874717" lon="8.205491"><ele>139.0</ele><time>2026-03-29T13:03:53.861Z</time></trkpt><trkpt lat="45.1875385" lon="8.2054121"><ele>139.0</ele><time>2026-03-29T13:03:54.862Z</time></trkpt><trkpt lat="45.1876094" lon="8.2053447"><ele>139.0</ele><time>2026-03-29T13:03:55.864Z</time></trkpt><trkpt lat="45.1876691" lon="8.205285"><ele>139.0</ele><time>2026-03-29T13:03:56.858Z</time></trkpt><trkpt lat="45.1877205" lon="8.2052133"><ele>139.0</ele><time>2026-03-29T13:03:57.858Z</time></trkpt><trkpt lat="45.1877621" lon="8.2051241"><ele>139.0</ele><time>2026-03-29T13:03:58.86Z</time></trkpt><trkpt lat="45.187795" lon="8.2050181"><ele>139.0</ele><time>2026-03-29T13:03:59.864Z</time></trkpt><trkpt lat="45.1878232" lon="8.2048953"><ele>139.0</ele><time>2026-03-29T13:04:00.865Z</time></trkpt><trkpt lat="45.1878481" lon="8.2047606"><ele>139.0</ele><time>2026-03-29T13:04:01.868Z</time></trkpt><trkpt lat="45.1878719" lon="8.2046191"><ele>139.0</ele><time>2026-03-29T13:04:02.862Z</time></trkpt><trkpt lat="45.1878955" lon="8.2044836"><ele>139.0</ele><time>2026-03-29T13:04:03.862Z</time></trkpt><trkpt lat="45.1879208" lon="8.2043462"><ele>139.0</ele><time>2026-03-29T13:04:04.862Z</time></trkpt><trkpt lat="45.1879483" lon="8.204208"><ele>139.0</ele><time>2026-03-29T13:04:05.864Z</time></trkpt><trkpt lat="45.1879789" lon="8.2040809"><ele>139.2</ele><time>2026-03-29T13:04:06.866Z</time></trkpt><trkpt lat="45.1880199" lon="8.2039559"><ele>139.4</ele><time>2026-03-29T13:04:07.868Z</time></trkpt><trkpt lat="45.1880729" lon="8.2038345"><ele>139.6</ele><time>2026-03-29T13:04:08.86Z</time></trkpt><trkpt lat="45.1881367" lon="8.2037184"><ele>139.8</ele><time>2026-03-29T13:04:09.86Z</time></trkpt><trkpt lat="45.1882029" lon="8.2036012"><ele>140.0</ele><time>2026-03-29T13:04:10.892Z</time></trkpt><trkpt lat="45.1882646" lon="8.2034858"><ele>140.0</ele><time>2026-03-29T13:04:11.862Z</time></trkpt><trkpt lat="45.188317" lon="8.2033694"><ele>140.0</ele><time>2026-03-29T13:04:12.865Z</time></trkpt><trkpt lat="45.1883555" lon="8.2032519"><ele>140.0</ele><time>2026-03-29T13:04:13.907Z</time></trkpt><trkpt lat="45.1883793" lon="8.2031349"><ele>140.0</ele><time>2026-03-29T13:04:14.863Z</time></trkpt><trkpt lat="45.1883929" lon="8.2030178"><ele>140.0</ele><time>2026-03-29T13:04:15.862Z</time></trkpt><trkpt lat="45.1884006" lon="8.2028962"><ele>140.0</ele><time>2026-03-29T13:04:16.865Z</time></trkpt><trkpt lat="45.1884018" lon="8.2027661"><ele>140.0</ele><time>2026-03-29T13:04:17.862Z</time></trkpt><trkpt lat="45.1883944" lon="8.2026252"><ele>140.0</ele><time>2026-03-29T13:04:18.863Z</time></trkpt><trkpt lat="45.1883829" lon="8.2024815"><ele>140.0</ele><time>2026-03-29T13:04:19.859Z</time></trkpt><trkpt lat="45.1883685" lon="8.2023385"><ele>140.0</ele><time>2026-03-29T13:04:20.859Z</time></trkpt><trkpt lat="45.1883542" lon="8.2021971"><ele>140.0</ele><time>2026-03-29T13:04:21.863Z</time></trkpt><trkpt lat="45.1883465" lon="8.2020639"><ele>140.0</ele><time>2026-03-29T13:04:22.859Z</time></trkpt><trkpt lat="45.1883453" lon="8.2019417"><ele>140.0</ele><time>2026-03-29T13:04:23.858Z</time></trkpt><trkpt lat="45.1883558" lon="8.2018298"><ele>140.0</ele><time>2026-03-29T13:04:24.857Z</time></trkpt><trkpt lat="45.1883783" lon="8.2017245"><ele>140.0</ele><time>2026-03-29T13:04:25.857Z</time></trkpt><trkpt lat="45.1884091" lon="8.201617"><ele>140.0</ele><time>2026-03-29T13:04:26.854Z</time></trkpt><trkpt lat="45.1884467" lon="8.2015027"><ele>140.0</ele><time>2026-03-29T13:04:27.859Z</time></trkpt><trkpt lat="45.1884846" lon="8.2013846"><ele>140.16666666666666</ele><time>2026-03-29T13:04:28.857Z</time></trkpt><trkpt lat="45.1885221" lon="8.2012658"><ele>140.33333333333331</ele><time>2026-03-29T13:04:29.86Z</time></trkpt><trkpt lat="45.1885561" lon="8.2011504"><ele>140.5</ele><time>2026-03-29T13:04:30.854Z</time></trkpt><trkpt lat="45.1885875" lon="8.2010361"><ele>140.66666666666666</ele><time>2026-03-29T13:04:31.865Z</time></trkpt><trkpt lat="45.1886183" lon="8.2009182"><ele>140.83333333333334</ele><time>2026-03-29T13:04:32.868Z</time></trkpt><trkpt lat="45.1886455" lon="8.2007936"><ele>141.0</ele><time>2026-03-29T13:04:33.861Z</time></trkpt><trkpt lat="45.1886691" lon="8.2006662"><ele>141.0</ele><time>2026-03-29T13:04:34.886Z</time></trkpt><trkpt lat="45.1886889" lon="8.2005369"><ele>141.0</ele><time>2026-03-29T13:04:35.863Z</time></trkpt><trkpt lat="45.1887055" lon="8.2004065"><ele>141.0</ele><time>2026-03-29T13:04:36.861Z</time></trkpt><trkpt lat="45.18872" lon="8.2002729"><ele>141.0</ele><time>2026-03-29T13:04:37.866Z</time></trkpt><trkpt lat="45.188732" lon="8.2001423"><ele>141.0</ele><time>2026-03-29T13:04:38.857Z</time></trkpt><trkpt lat="45.1887425" lon="8.2000205"><ele>141.0</ele><time>2026-03-29T13:04:39.857Z</time></trkpt><trkpt lat="45.1887503" lon="8.199914"><ele>141.0</ele><time>2026-03-29T13:04:40.859Z</time></trkpt><trkpt lat="45.1887552" lon="8.1998186"><ele>141.0</ele><time>2026-03-29T13:04:41.855Z</time></trkpt><trkpt lat="45.1887551" lon="8.1996534"><ele>141.0</ele><time>2026-03-29T13:04:43.857Z</time></trkpt><trkpt lat="45.1887486" lon="8.1995065"><ele>141.0</ele><time>2026-03-29T13:04:45.869Z</time></trkpt><trkpt lat="45.1887377" lon="8.1993726"><ele>141.0</ele><time>2026-03-29T13:04:47.861Z</time></trkpt><trkpt lat="45.1887351" lon="8.1992827"><ele>141.0</ele><time>2026-03-29T13:04:49.889Z</time></trkpt><trkpt lat="45.1888023" lon="8.1992153"><ele>141.0</ele><time>2026-03-29T13:04:53.858Z</time></trkpt><trkpt lat="45.1888704" lon="8.1992004"><ele>141.0</ele><time>2026-03-29T13:04:55.855Z</time></trkpt><trkpt lat="45.1889609" lon="8.1992132"><ele>141.0</ele><time>2026-03-29T13:04:57.86Z</time></trkpt><trkpt lat="45.1890243" lon="8.1992205"><ele>141.0</ele><time>2026-03-29T13:04:58.856Z</time></trkpt><trkpt lat="45.1891021" lon="8.1992249"><ele>141.0</ele><time>2026-03-29T13:04:59.859Z</time></trkpt><trkpt lat="45.1891812" lon="8.1992319"><ele>141.0</ele><time>2026-03-29T13:05:00.862Z</time></trkpt><trkpt lat="45.1892519" lon="8.1992357"><ele>141.0</ele><time>2026-03-29T13:05:01.891Z</time></trkpt><trkpt lat="45.1893672" lon="8.1992395"><ele>141.0</ele><time>2026-03-29T13:05:03.855Z</time></trkpt><trkpt lat="45.1894416" lon="8.1992155"><ele>141.0</ele><time>2026-03-29T13:05:06.859Z</time></trkpt><trkpt lat="45.1894739" lon="8.1991234"><ele>141.0</ele><time>2026-03-29T13:05:21.854Z</time></trkpt><trkpt lat="45.1894941" lon="8.1990265"><ele>141.0</ele><time>2026-03-29T13:05:22.855Z</time></trkpt><trkpt lat="45.1895119" lon="8.1988853"><ele>141.0</ele><time>2026-03-29T13:05:23.863Z</time></trkpt><trkpt lat="45.1895247" lon="8.1987169"><ele>141.0</ele><time>2026-03-29T13:05:24.862Z</time></trkpt><trkpt lat="45.189532" lon="8.1985304"><ele>141.0</ele><time>2026-03-29T13:05:25.865Z</time></trkpt><trkpt lat="45.1895389" lon="8.1983267"><ele>141.0</ele><time>2026-03-29T13:05:26.858Z</time></trkpt><trkpt lat="45.1895491" lon="8.1981143"><ele>140.66666666666666</ele><time>2026-03-29T13:05:27.86Z</time></trkpt><trkpt lat="45.1895578" lon="8.1978986"><ele>140.33333333333331</ele><time>2026-03-29T13:05:28.864Z</time></trkpt><trkpt lat="45.189565" lon="8.197672"><ele>140.0</ele><time>2026-03-29T13:05:29.859Z</time></trkpt><trkpt lat="45.1895711" lon="8.1974345"><ele>140.66666666666666</ele><time>2026-03-29T13:05:30.866Z</time></trkpt><trkpt lat="45.1895791" lon="8.1971853"><ele>141.33333333333334</ele><time>2026-03-29T13:05:31.858Z</time></trkpt><trkpt lat="45.1895899" lon="8.1969221"><ele>142.0</ele><time>2026-03-29T13:05:32.854Z</time></trkpt><trkpt lat="45.1896013" lon="8.1966454"><ele>141.33333333333334</ele><time>2026-03-29T13:05:33.859Z</time></trkpt><trkpt lat="45.189611" lon="8.1963629"><ele>140.66666666666666</ele><time>2026-03-29T13:05:34.858Z</time></trkpt><trkpt lat="45.189619" lon="8.1960716"><ele>140.0</ele><time>2026-03-29T13:05:35.853Z</time></trkpt><trkpt lat="45.189627" lon="8.1957735"><ele>140.33333333333331</ele><time>2026-03-29T13:05:36.854Z</time></trkpt><trkpt lat="45.189636" lon="8.1954773"><ele>140.66666666666666</ele><time>2026-03-29T13:05:37.857Z</time></trkpt><trkpt lat="45.1896441" lon="8.1951856"><ele>141.0</ele><time>2026-03-29T13:05:38.864Z</time></trkpt><trkpt lat="45.1896543" lon="8.1948945"><ele>141.0</ele><time>2026-03-29T13:05:39.859Z</time></trkpt><trkpt lat="45.1896655" lon="8.1945974"><ele>141.0</ele><time>2026-03-29T13:05:40.859Z</time></trkpt><trkpt lat="45.1896779" lon="8.1942909"><ele>141.0</ele><time>2026-03-29T13:05:41.868Z</time></trkpt><trkpt lat="45.1896901" lon="8.1939784"><ele>141.0</ele><time>2026-03-29T13:05:42.86Z</time></trkpt><trkpt lat="45.1896993" lon="8.1936582"><ele>141.0</ele><time>2026-03-29T13:05:43.855Z</time></trkpt><trkpt lat="45.1897088" lon="8.1933324"><ele>142.0</ele><time>2026-03-29T13:05:44.856Z</time></trkpt><trkpt lat="45.1897167" lon="8.1929996"><ele>143.0</ele><time>2026-03-29T13:05:45.857Z</time></trkpt><trkpt lat="45.1897251" lon="8.1926666"><ele>142.5</ele><time>2026-03-29T13:05:46.863Z</time></trkpt><trkpt lat="45.1897344" lon="8.192338"><ele>142.0</ele><time>2026-03-29T13:05:47.86Z</time></trkpt><trkpt lat="45.1897428" lon="8.1920075"><ele>142.0</ele><time>2026-03-29T13:05:48.856Z</time></trkpt><trkpt lat="45.1897549" lon="8.1916756"><ele>142.0</ele><time>2026-03-29T13:05:49.859Z</time></trkpt><trkpt lat="45.1897693" lon="8.1913412"><ele>141.5</ele><time>2026-03-29T13:05:50.864Z</time></trkpt><trkpt lat="45.1897813" lon="8.1910135"><ele>141.0</ele><time>2026-03-29T13:05:51.86Z</time></trkpt><trkpt lat="45.1897911" lon="8.1906987"><ele>141.0</ele><time>2026-03-29T13:05:52.857Z</time></trkpt><trkpt lat="45.1898004" lon="8.1903987"><ele>141.0</ele><time>2026-03-29T13:05:53.861Z</time></trkpt><trkpt lat="45.1898097" lon="8.1901062"><ele>141.0</ele><time>2026-03-29T13:05:54.87Z</time></trkpt><trkpt lat="45.1898221" lon="8.1898129"><ele>141.33333333333334</ele><time>2026-03-29T13:05:55.867Z</time></trkpt><trkpt lat="45.1898338" lon="8.189513"><ele>141.66666666666669</ele><time>2026-03-29T13:05:56.854Z</time></trkpt><trkpt lat="45.1898483" lon="8.1892059"><ele>142.0</ele><time>2026-03-29T13:05:57.861Z</time></trkpt><trkpt lat="45.1898623" lon="8.1888942"><ele>142.0</ele><time>2026-03-29T13:05:58.859Z</time></trkpt><trkpt lat="45.1898788" lon="8.1885815"><ele>142.0</ele><time>2026-03-29T13:05:59.868Z</time></trkpt><trkpt lat="45.1898962" lon="8.1882678"><ele>142.0</ele><time>2026-03-29T13:06:00.854Z</time></trkpt><trkpt lat="45.1899101" lon="8.187949"><ele>142.5</ele><time>2026-03-29T13:06:01.86Z</time></trkpt><trkpt lat="45.1899243" lon="8.1876221"><ele>143.0</ele><time>2026-03-29T13:06:02.86Z</time></trkpt><trkpt lat="45.1899372" lon="8.1872813"><ele>144.0</ele><time>2026-03-29T13:06:03.857Z</time></trkpt><trkpt lat="45.1899502" lon="8.1869308"><ele>145.0</ele><time>2026-03-29T13:06:04.86Z</time></trkpt><trkpt lat="45.1899631" lon="8.1865796"><ele>144.0</ele><time>2026-03-29T13:06:05.861Z</time></trkpt><trkpt lat="45.1899768" lon="8.1862285"><ele>143.0</ele><time>2026-03-29T13:06:06.868Z</time></trkpt><trkpt lat="45.1899914" lon="8.1858707"><ele>143.0</ele><time>2026-03-29T13:06:07.861Z</time></trkpt><trkpt lat="45.1900077" lon="8.1855067"><ele>143.0</ele><time>2026-03-29T13:06:08.871Z</time></trkpt><trkpt lat="45.1900191" lon="8.1851386"><ele>143.0</ele><time>2026-03-29T13:06:09.858Z</time></trkpt><trkpt lat="45.1900296" lon="8.1847665"><ele>143.0</ele><time>2026-03-29T13:06:10.87Z</time></trkpt><trkpt lat="45.190041" lon="8.1843902"><ele>143.0</ele><time>2026-03-29T13:06:11.863Z</time></trkpt><trkpt lat="45.1900593" lon="8.1840207"><ele>143.0</ele><time>2026-03-29T13:06:12.861Z</time></trkpt><trkpt lat="45.1900868" lon="8.1836683"><ele>142.5</ele><time>2026-03-29T13:06:13.859Z</time></trkpt><trkpt lat="45.1901336" lon="8.1833344"><ele>142.0</ele><time>2026-03-29T13:06:14.864Z</time></trkpt><trkpt lat="45.1901995" lon="8.1830143"><ele>141.5</ele><time>2026-03-29T13:06:15.857Z</time></trkpt><trkpt lat="45.19029" lon="8.1826994"><ele>141.0</ele><time>2026-03-29T13:06:16.865Z</time></trkpt><trkpt lat="45.190397" lon="8.1823899"><ele>141.0</ele><time>2026-03-29T13:06:17.863Z</time></trkpt><trkpt lat="45.190522" lon="8.1820886"><ele>141.0</ele><time>2026-03-29T13:06:18.865Z</time></trkpt><trkpt lat="45.1906563" lon="8.1817939"><ele>142.5</ele><time>2026-03-29T13:06:19.865Z</time></trkpt><trkpt lat="45.1907895" lon="8.1815043"><ele>144.0</ele><time>2026-03-29T13:06:20.862Z</time></trkpt><trkpt lat="45.1909174" lon="8.1812199"><ele>144.0</ele><time>2026-03-29T13:06:21.869Z</time></trkpt><trkpt lat="45.1910321" lon="8.1809455"><ele>144.0</ele><time>2026-03-29T13:06:22.868Z</time></trkpt><trkpt lat="45.1911339" lon="8.1806773"><ele>144.0</ele><time>2026-03-29T13:06:23.866Z</time></trkpt><trkpt lat="45.1912239" lon="8.1804079"><ele>144.0</ele><time>2026-03-29T13:06:24.879Z</time></trkpt><trkpt lat="45.1912963" lon="8.1801373"><ele>144.0</ele><time>2026-03-29T13:06:25.864Z</time></trkpt><trkpt lat="45.1913469" lon="8.1798654"><ele>144.0</ele><time>2026-03-29T13:06:26.892Z</time></trkpt><trkpt lat="45.191396" lon="8.1795935"><ele>144.0</ele><time>2026-03-29T13:06:27.863Z</time></trkpt><trkpt lat="45.191433" lon="8.1793385"><ele>144.0</ele><time>2026-03-29T13:06:28.865Z</time></trkpt><trkpt lat="45.1914605" lon="8.1791089"><ele>144.0</ele><time>2026-03-29T13:06:29.866Z</time></trkpt><trkpt lat="45.19148" lon="8.1789077"><ele>144.0</ele><time>2026-03-29T13:06:30.877Z</time></trkpt><trkpt lat="45.1914913" lon="8.1787354"><ele>144.0</ele><time>2026-03-29T13:06:31.874Z</time></trkpt><trkpt lat="45.1914984" lon="8.1785886"><ele>144.0</ele><time>2026-03-29T13:06:32.889Z</time></trkpt><trkpt lat="45.1914985" lon="8.1784682"><ele>144.0</ele><time>2026-03-29T13:06:33.871Z</time></trkpt><trkpt lat="45.1914954" lon="8.1783701"><ele>144.0</ele><time>2026-03-29T13:06:34.866Z</time></trkpt><trkpt lat="45.1915051" lon="8.1782367"><ele>144.0</ele><time>2026-03-29T13:06:36.886Z</time></trkpt><trkpt lat="45.1915495" lon="8.1781329"><ele>144.0</ele><time>2026-03-29T13:06:38.865Z</time></trkpt><trkpt lat="45.1916039" lon="8.1779878"><ele>144.0</ele><time>2026-03-29T13:06:40.874Z</time></trkpt><trkpt lat="45.1916117" lon="8.1778921"><ele>144.0</ele><time>2026-03-29T13:06:41.864Z</time></trkpt><trkpt lat="45.1915939" lon="8.1777852"><ele>144.0</ele><time>2026-03-29T13:06:42.866Z</time></trkpt><trkpt lat="45.1915505" lon="8.1776785"><ele>144.0</ele><time>2026-03-29T13:06:43.862Z</time></trkpt><trkpt lat="45.1914969" lon="8.1775695"><ele>144.0</ele><time>2026-03-29T13:06:44.863Z</time></trkpt><trkpt lat="45.1914506" lon="8.1774482"><ele>144.0</ele><time>2026-03-29T13:06:45.863Z</time></trkpt><trkpt lat="45.1914125" lon="8.1773071"><ele>144.0</ele><time>2026-03-29T13:06:46.875Z</time></trkpt><trkpt lat="45.1913805" lon="8.1771473"><ele>144.0</ele><time>2026-03-29T13:06:47.867Z</time></trkpt><trkpt lat="45.1913495" lon="8.1769708"><ele>144.0</ele><time>2026-03-29T13:06:48.863Z</time></trkpt><trkpt lat="45.1913169" lon="8.1767833"><ele>144.33333333333334</ele><time>2026-03-29T13:06:49.9Z</time></trkpt><trkpt lat="45.1912811" lon="8.1765874"><ele>144.66666666666669</ele><time>2026-03-29T13:06:50.866Z</time></trkpt><trkpt lat="45.1912378" lon="8.1763819"><ele>145.0</ele><time>2026-03-29T13:06:51.862Z</time></trkpt><trkpt lat="45.1911923" lon="8.1761625"><ele>144.66666666666669</ele><time>2026-03-29T13:06:52.882Z</time></trkpt><trkpt lat="45.1911447" lon="8.1759323"><ele>144.33333333333334</ele><time>2026-03-29T13:06:53.869Z</time></trkpt><trkpt lat="45.191095" lon="8.1756885"><ele>144.0</ele><time>2026-03-29T13:06:54.86Z</time></trkpt><trkpt lat="45.1910464" lon="8.1754326"><ele>144.0</ele><time>2026-03-29T13:06:55.877Z</time></trkpt><trkpt lat="45.1909962" lon="8.1751696"><ele>144.0</ele><time>2026-03-29T13:06:56.87Z</time></trkpt><trkpt lat="45.1909467" lon="8.1749008"><ele>144.0</ele><time>2026-03-29T13:06:57.863Z</time></trkpt><trkpt lat="45.190892" lon="8.1746255"><ele>143.66666666666666</ele><time>2026-03-29T13:06:58.872Z</time></trkpt><trkpt lat="45.1908363" lon="8.1743407"><ele>143.33333333333331</ele><time>2026-03-29T13:06:59.868Z</time></trkpt><trkpt lat="45.1907797" lon="8.1740522"><ele>143.0</ele><time>2026-03-29T13:07:00.862Z</time></trkpt><trkpt lat="45.1907241" lon="8.1737594"><ele>143.0</ele><time>2026-03-29T13:07:01.86Z</time></trkpt><trkpt lat="45.1906691" lon="8.1734637"><ele>143.0</ele><time>2026-03-29T13:07:02.865Z</time></trkpt><trkpt lat="45.1906141" lon="8.1731589"><ele>143.0</ele><time>2026-03-29T13:07:03.883Z</time></trkpt><trkpt lat="45.190558" lon="8.1728414"><ele>143.0</ele><time>2026-03-29T13:07:04.873Z</time></trkpt><trkpt lat="45.1904951" lon="8.1725175"><ele>143.0</ele><time>2026-03-29T13:07:05.859Z</time></trkpt><trkpt lat="45.1904314" lon="8.1721942"><ele>143.0</ele><time>2026-03-29T13:07:06.87Z</time></trkpt><trkpt lat="45.1903676" lon="8.1718732"><ele>143.0</ele><time>2026-03-29T13:07:07.866Z</time></trkpt><trkpt lat="45.1903037" lon="8.1715496"><ele>143.5</ele><time>2026-03-29T13:07:08.868Z</time></trkpt><trkpt lat="45.1902438" lon="8.1712214"><ele>144.0</ele><time>2026-03-29T13:07:09.882Z</time></trkpt><trkpt lat="45.1901856" lon="8.1708861"><ele>143.5</ele><time>2026-03-29T13:07:10.861Z</time></trkpt><trkpt lat="45.1901293" lon="8.1705418"><ele>143.0</ele><time>2026-03-29T13:07:11.864Z</time></trkpt><trkpt lat="45.1900797" lon="8.1701843"><ele>143.0</ele><time>2026-03-29T13:07:12.88Z</time></trkpt><trkpt lat="45.1900423" lon="8.1698124"><ele>143.0</ele><time>2026-03-29T13:07:13.863Z</time></trkpt><trkpt lat="45.1900243" lon="8.1694338"><ele>143.0</ele><time>2026-03-29T13:07:14.867Z</time></trkpt><trkpt lat="45.1900187" lon="8.1690529"><ele>143.0</ele><time>2026-03-29T13:07:15.864Z</time></trkpt><trkpt lat="45.1900218" lon="8.1686822"><ele>143.5</ele><time>2026-03-29T13:07:16.863Z</time></trkpt><trkpt lat="45.1900298" lon="8.1683296"><ele>144.0</ele><time>2026-03-29T13:07:17.868Z</time></trkpt><trkpt lat="45.1900386" lon="8.1679951"><ele>144.0</ele><time>2026-03-29T13:07:18.868Z</time></trkpt><trkpt lat="45.190044" lon="8.1676733"><ele>144.0</ele><time>2026-03-29T13:07:19.87Z</time></trkpt><trkpt lat="45.1900458" lon="8.1673605"><ele>144.0</ele><time>2026-03-29T13:07:20.87Z</time></trkpt><trkpt lat="45.1900488" lon="8.1670538"><ele>144.0</ele><time>2026-03-29T13:07:21.862Z</time></trkpt><trkpt lat="45.1900505" lon="8.1667472"><ele>144.0</ele><time>2026-03-29T13:07:22.879Z</time></trkpt><trkpt lat="45.1900497" lon="8.1664399"><ele>144.0</ele><time>2026-03-29T13:07:23.864Z</time></trkpt><trkpt lat="45.1900473" lon="8.166133"><ele>144.0</ele><time>2026-03-29T13:07:24.87Z</time></trkpt><trkpt lat="45.1900426" lon="8.1658249"><ele>144.0</ele><time>2026-03-29T13:07:25.867Z</time></trkpt><trkpt lat="45.1900375" lon="8.1655141"><ele>144.0</ele><time>2026-03-29T13:07:26.869Z</time></trkpt><trkpt lat="45.1900316" lon="8.1651958"><ele>144.0</ele><time>2026-03-29T13:07:27.865Z</time></trkpt><trkpt lat="45.1900255" lon="8.1648674"><ele>144.0</ele><time>2026-03-29T13:07:28.862Z</time></trkpt><trkpt lat="45.1900603" lon="8.1645303"><ele>144.5</ele><time>2026-03-29T13:07:29.882Z</time></trkpt><trkpt lat="45.1900564" lon="8.1642014"><ele>145.0</ele><time>2026-03-29T13:07:30.864Z</time></trkpt><trkpt lat="45.1900534" lon="8.1638668"><ele>145.0</ele><time>2026-03-29T13:07:31.865Z</time></trkpt><trkpt lat="45.1900492" lon="8.1635295"><ele>145.0</ele><time>2026-03-29T13:07:32.872Z</time></trkpt><trkpt lat="45.1900461" lon="8.1631892"><ele>144.0</ele><time>2026-03-29T13:07:33.866Z</time></trkpt><trkpt lat="45.1900426" lon="8.1628426"><ele>143.0</ele><time>2026-03-29T13:07:34.869Z</time></trkpt><trkpt lat="45.1900399" lon="8.1624917"><ele>143.5</ele><time>2026-03-29T13:07:35.913Z</time></trkpt><trkpt lat="45.1900347" lon="8.1621524"><ele>144.0</ele><time>2026-03-29T13:07:36.868Z</time></trkpt><trkpt lat="45.1900279" lon="8.161804"><ele>144.5</ele><time>2026-03-29T13:07:37.877Z</time></trkpt><trkpt lat="45.1900206" lon="8.1614555"><ele>145.0</ele><time>2026-03-29T13:07:38.867Z</time></trkpt><trkpt lat="45.190015" lon="8.1611124"><ele>145.0</ele><time>2026-03-29T13:07:39.863Z</time></trkpt><trkpt lat="45.1900087" lon="8.1607777"><ele>145.0</ele><time>2026-03-29T13:07:40.866Z</time></trkpt><trkpt lat="45.1900047" lon="8.1604582"><ele>145.0</ele><time>2026-03-29T13:07:41.866Z</time></trkpt><trkpt lat="45.1900018" lon="8.1601398"><ele>145.0</ele><time>2026-03-29T13:07:42.874Z</time></trkpt><trkpt lat="45.1899971" lon="8.1598344"><ele>145.0</ele><time>2026-03-29T13:07:43.862Z</time></trkpt><trkpt lat="45.1899929" lon="8.1595313"><ele>144.66666666666669</ele><time>2026-03-29T13:07:44.87Z</time></trkpt><trkpt lat="45.1899894" lon="8.1592321"><ele>144.33333333333334</ele><time>2026-03-29T13:07:45.876Z</time></trkpt><trkpt lat="45.1899859" lon="8.1589331"><ele>144.0</ele><time>2026-03-29T13:07:46.861Z</time></trkpt><trkpt lat="45.1899796" lon="8.1586317"><ele>144.0</ele><time>2026-03-29T13:07:47.872Z</time></trkpt><trkpt lat="45.1899746" lon="8.1583288"><ele>144.0</ele><time>2026-03-29T13:07:48.871Z</time></trkpt><trkpt lat="45.1899715" lon="8.1580197"><ele>144.0</ele><time>2026-03-29T13:07:49.862Z</time></trkpt><trkpt lat="45.189968" lon="8.1577086"><ele>144.66666666666666</ele><time>2026-03-29T13:07:50.868Z</time></trkpt><trkpt lat="45.1899632" lon="8.1574009"><ele>145.33333333333331</ele><time>2026-03-29T13:07:51.866Z</time></trkpt><trkpt lat="45.1899584" lon="8.1570919"><ele>146.0</ele><time>2026-03-29T13:07:52.866Z</time></trkpt><trkpt lat="45.1899559" lon="8.1567839"><ele>146.0</ele><time>2026-03-29T13:07:53.866Z</time></trkpt><trkpt lat="45.1899498" lon="8.1564731"><ele>146.0</ele><time>2026-03-29T13:07:54.868Z</time></trkpt><trkpt lat="45.1899447" lon="8.1561567"><ele>146.0</ele><time>2026-03-29T13:07:55.868Z</time></trkpt><trkpt lat="45.1899401" lon="8.1558334"><ele>145.5</ele><time>2026-03-29T13:07:56.866Z</time></trkpt><trkpt lat="45.1899375" lon="8.1555011"><ele>145.0</ele><time>2026-03-29T13:07:57.877Z</time></trkpt><trkpt lat="45.189933" lon="8.1551619"><ele>145.0</ele><time>2026-03-29T13:07:58.878Z</time></trkpt><trkpt lat="45.1899307" lon="8.1548236"><ele>145.0</ele><time>2026-03-29T13:07:59.879Z</time></trkpt><trkpt lat="45.1899263" lon="8.1544816"><ele>145.0</ele><time>2026-03-29T13:08:00.891Z</time></trkpt><trkpt lat="45.189919" lon="8.1541368"><ele>145.0</ele><time>2026-03-29T13:08:01.867Z</time></trkpt><trkpt lat="45.1899146" lon="8.1537974"><ele>146.0</ele><time>2026-03-29T13:08:02.877Z</time></trkpt><trkpt lat="45.1899075" lon="8.1534631"><ele>147.0</ele><time>2026-03-29T13:08:03.876Z</time></trkpt><trkpt lat="45.1899061" lon="8.1531335"><ele>147.0</ele><time>2026-03-29T13:08:04.877Z</time></trkpt><trkpt lat="45.1899063" lon="8.1528108"><ele>147.0</ele><time>2026-03-29T13:08:05.876Z</time></trkpt><trkpt lat="45.1899073" lon="8.1524927"><ele>146.66666666666666</ele><time>2026-03-29T13:08:06.884Z</time></trkpt><trkpt lat="45.1899062" lon="8.152181"><ele>146.33333333333331</ele><time>2026-03-29T13:08:07.864Z</time></trkpt><trkpt lat="45.1899045" lon="8.1518788"><ele>146.0</ele><time>2026-03-29T13:08:08.866Z</time></trkpt><trkpt lat="45.1899031" lon="8.1515813"><ele>146.0</ele><time>2026-03-29T13:08:09.865Z</time></trkpt><trkpt lat="45.1899021" lon="8.1512906"><ele>146.0</ele><time>2026-03-29T13:08:10.866Z</time></trkpt><trkpt lat="45.1899007" lon="8.1510101"><ele>146.0</ele><time>2026-03-29T13:08:11.866Z</time></trkpt><trkpt lat="45.1898983" lon="8.1507367"><ele>146.0</ele><time>2026-03-29T13:08:12.877Z</time></trkpt><trkpt lat="45.1898957" lon="8.1504722"><ele>146.0</ele><time>2026-03-29T13:08:13.867Z</time></trkpt><trkpt lat="45.1898936" lon="8.1502096"><ele>146.0</ele><time>2026-03-29T13:08:14.869Z</time></trkpt><trkpt lat="45.1898922" lon="8.1499661"><ele>146.66666666666666</ele><time>2026-03-29T13:08:15.862Z</time></trkpt><trkpt lat="45.1898883" lon="8.1497191"><ele>147.33333333333334</ele><time>2026-03-29T13:08:16.873Z</time></trkpt><trkpt lat="45.1898836" lon="8.1494789"><ele>148.0</ele><time>2026-03-29T13:08:17.874Z</time></trkpt><trkpt lat="45.1898796" lon="8.1492612"><ele>148.0</ele><time>2026-03-29T13:08:18.881Z</time></trkpt><trkpt lat="45.1898761" lon="8.1490564"><ele>148.0</ele><time>2026-03-29T13:08:19.863Z</time></trkpt><trkpt lat="45.1898725" lon="8.1488653"><ele>148.0</ele><time>2026-03-29T13:08:20.883Z</time></trkpt><trkpt lat="45.1898698" lon="8.1486679"><ele>148.0</ele><time>2026-03-29T13:08:21.873Z</time></trkpt><trkpt lat="45.1898686" lon="8.1484703"><ele>148.0</ele><time>2026-03-29T13:08:22.87Z</time></trkpt><trkpt lat="45.189868" lon="8.1482823"><ele>148.0</ele><time>2026-03-29T13:08:23.893Z</time></trkpt><trkpt lat="45.1898673" lon="8.1481166"><ele>148.0</ele><time>2026-03-29T13:08:24.863Z</time></trkpt><trkpt lat="45.1898666" lon="8.1479513"><ele>148.0</ele><time>2026-03-29T13:08:25.867Z</time></trkpt><trkpt lat="45.1898642" lon="8.1477936"><ele>148.0</ele><time>2026-03-29T13:08:26.862Z</time></trkpt><trkpt lat="45.1898612" lon="8.1476273"><ele>148.0</ele><time>2026-03-29T13:08:27.865Z</time></trkpt><trkpt lat="45.1898587" lon="8.1474476"><ele>148.0</ele><time>2026-03-29T13:08:28.866Z</time></trkpt><trkpt lat="45.1898567" lon="8.1472543"><ele>148.0</ele><time>2026-03-29T13:08:29.865Z</time></trkpt><trkpt lat="45.1898542" lon="8.1470506"><ele>148.0</ele><time>2026-03-29T13:08:30.863Z</time></trkpt><trkpt lat="45.1898521" lon="8.1468313"><ele>148.0</ele><time>2026-03-29T13:08:31.867Z</time></trkpt><trkpt lat="45.1898501" lon="8.146608"><ele>148.0</ele><time>2026-03-29T13:08:32.863Z</time></trkpt><trkpt lat="45.1898489" lon="8.1463725"><ele>148.0</ele><time>2026-03-29T13:08:33.862Z</time></trkpt><trkpt lat="45.1898468" lon="8.1461345"><ele>148.0</ele><time>2026-03-29T13:08:34.862Z</time></trkpt><trkpt lat="45.1898441" lon="8.1458859"><ele>148.0</ele><time>2026-03-29T13:08:35.866Z</time></trkpt><trkpt lat="45.1898403" lon="8.1456314"><ele>148.0</ele><time>2026-03-29T13:08:36.86Z</time></trkpt><trkpt lat="45.1898359" lon="8.1453634"><ele>148.0</ele><time>2026-03-29T13:08:37.872Z</time></trkpt><trkpt lat="45.1898324" lon="8.1450911"><ele>148.0</ele><time>2026-03-29T13:08:38.879Z</time></trkpt><trkpt lat="45.1898288" lon="8.1448215"><ele>147.66666666666669</ele><time>2026-03-29T13:08:39.865Z</time></trkpt><trkpt lat="45.1898256" lon="8.1445472"><ele>147.33333333333334</ele><time>2026-03-29T13:08:40.865Z</time></trkpt><trkpt lat="45.189825" lon="8.1442728"><ele>147.0</ele><time>2026-03-29T13:08:41.859Z</time></trkpt><trkpt lat="45.1898247" lon="8.1439951"><ele>146.66666666666666</ele><time>2026-03-29T13:08:42.866Z</time></trkpt><trkpt lat="45.1898223" lon="8.1437143"><ele>146.33333333333331</ele><time>2026-03-29T13:08:43.873Z</time></trkpt><trkpt lat="45.189819" lon="8.143429"><ele>146.0</ele><time>2026-03-29T13:08:44.867Z</time></trkpt><trkpt lat="45.1898162" lon="8.1431407"><ele>146.0</ele><time>2026-03-29T13:08:45.866Z</time></trkpt><trkpt lat="45.189814" lon="8.1428538"><ele>146.0</ele><time>2026-03-29T13:08:46.874Z</time></trkpt><trkpt lat="45.1898122" lon="8.142565"><ele>146.0</ele><time>2026-03-29T13:08:47.866Z</time></trkpt><trkpt lat="45.1898109" lon="8.1422749"><ele>146.0</ele><time>2026-03-29T13:08:48.862Z</time></trkpt><trkpt lat="45.1898105" lon="8.141982"><ele>146.0</ele><time>2026-03-29T13:08:49.868Z</time></trkpt><trkpt lat="45.1898079" lon="8.1416884"><ele>146.0</ele><time>2026-03-29T13:08:50.866Z</time></trkpt><trkpt lat="45.1898045" lon="8.1413952"><ele>145.66666666666666</ele><time>2026-03-29T13:08:51.864Z</time></trkpt><trkpt lat="45.1897991" lon="8.1410994"><ele>145.33333333333334</ele><time>2026-03-29T13:08:52.867Z</time></trkpt><trkpt lat="45.1897938" lon="8.1408118"><ele>145.0</ele><time>2026-03-29T13:08:53.862Z</time></trkpt><trkpt lat="45.1897899" lon="8.1405246"><ele>145.0</ele><time>2026-03-29T13:08:54.861Z</time></trkpt><trkpt lat="45.189787" lon="8.1402396"><ele>145.0</ele><time>2026-03-29T13:08:55.861Z</time></trkpt><trkpt lat="45.1897831" lon="8.1399538"><ele>145.0</ele><time>2026-03-29T13:08:56.889Z</time></trkpt><trkpt lat="45.1897795" lon="8.139674"><ele>146.0</ele><time>2026-03-29T13:08:57.867Z</time></trkpt><trkpt lat="45.1897754" lon="8.1393921"><ele>147.0</ele><time>2026-03-29T13:08:58.872Z</time></trkpt><trkpt lat="45.1897708" lon="8.1391056"><ele>148.0</ele><time>2026-03-29T13:08:59.874Z</time></trkpt><trkpt lat="45.1897669" lon="8.1388224"><ele>148.0</ele><time>2026-03-29T13:09:00.869Z</time></trkpt><trkpt lat="45.1897619" lon="8.1385368"><ele>148.0</ele><time>2026-03-29T13:09:01.869Z</time></trkpt><trkpt lat="45.1897559" lon="8.1382632"><ele>148.0</ele><time>2026-03-29T13:09:02.865Z</time></trkpt><trkpt lat="45.189752" lon="8.137991"><ele>147.66666666666669</ele><time>2026-03-29T13:09:03.864Z</time></trkpt><trkpt lat="45.1897491" lon="8.1377128"><ele>147.33333333333334</ele><time>2026-03-29T13:09:04.869Z</time></trkpt><trkpt lat="45.1897446" lon="8.1374418"><ele>147.0</ele><time>2026-03-29T13:09:05.864Z</time></trkpt><trkpt lat="45.1897401" lon="8.1371681"><ele>147.0</ele><time>2026-03-29T13:09:06.866Z</time></trkpt><trkpt lat="45.1897369" lon="8.1368916"><ele>147.0</ele><time>2026-03-29T13:09:07.863Z</time></trkpt><trkpt lat="45.1897338" lon="8.1366131"><ele>147.0</ele><time>2026-03-29T13:09:08.861Z</time></trkpt><trkpt lat="45.1897296" lon="8.1363306"><ele>147.0</ele><time>2026-03-29T13:09:09.868Z</time></trkpt><trkpt lat="45.1897246" lon="8.1360463"><ele>147.0</ele><time>2026-03-29T13:09:10.859Z</time></trkpt><trkpt lat="45.1897195" lon="8.1357578"><ele>147.0</ele><time>2026-03-29T13:09:11.87Z</time></trkpt><trkpt lat="45.1897147" lon="8.135463"><ele>147.0</ele><time>2026-03-29T13:09:12.862Z</time></trkpt><trkpt lat="45.1897112" lon="8.1351584"><ele>147.0</ele><time>2026-03-29T13:09:13.874Z</time></trkpt><trkpt lat="45.1897066" lon="8.1348539"><ele>147.0</ele><time>2026-03-29T13:09:14.86Z</time></trkpt><trkpt lat="45.1897015" lon="8.1345466"><ele>147.0</ele><time>2026-03-29T13:09:15.862Z</time></trkpt><trkpt lat="45.1896969" lon="8.1342387"><ele>147.0</ele><time>2026-03-29T13:09:16.863Z</time></trkpt><trkpt lat="45.1896947" lon="8.1339321"><ele>147.0</ele><time>2026-03-29T13:09:17.873Z</time></trkpt><trkpt lat="45.1896929" lon="8.1336312"><ele>147.0</ele><time>2026-03-29T13:09:18.864Z</time></trkpt><trkpt lat="45.1896899" lon="8.133331"><ele>147.0</ele><time>2026-03-29T13:09:19.869Z</time></trkpt><trkpt lat="45.1896866" lon="8.1330286"><ele>147.0</ele><time>2026-03-29T13:09:20.862Z</time></trkpt><trkpt lat="45.1896828" lon="8.1327307"><ele>147.0</ele><time>2026-03-29T13:09:21.875Z</time></trkpt><trkpt lat="45.1896789" lon="8.132441"><ele>147.0</ele><time>2026-03-29T13:09:22.864Z</time></trkpt><trkpt lat="45.1896757" lon="8.1321596"><ele>147.0</ele><time>2026-03-29T13:09:23.874Z</time></trkpt><trkpt lat="45.189675" lon="8.1318921"><ele>147.0</ele><time>2026-03-29T13:09:24.864Z</time></trkpt><trkpt lat="45.1896736" lon="8.13163"><ele>147.0</ele><time>2026-03-29T13:09:25.871Z</time></trkpt><trkpt lat="45.1896707" lon="8.1313715"><ele>147.0</ele><time>2026-03-29T13:09:26.867Z</time></trkpt><trkpt lat="45.1896696" lon="8.1311134"><ele>147.0</ele><time>2026-03-29T13:09:27.872Z</time></trkpt><trkpt lat="45.1896691" lon="8.1308521"><ele>147.0</ele><time>2026-03-29T13:09:28.863Z</time></trkpt><trkpt lat="45.1896676" lon="8.1305844"><ele>147.0</ele><time>2026-03-29T13:09:29.87Z</time></trkpt><trkpt lat="45.1896651" lon="8.1303139"><ele>147.0</ele><time>2026-03-29T13:09:30.861Z</time></trkpt><trkpt lat="45.1896614" lon="8.1300338"><ele>147.0</ele><time>2026-03-29T13:09:31.866Z</time></trkpt><trkpt lat="45.1896576" lon="8.1297576"><ele>147.0</ele><time>2026-03-29T13:09:32.86Z</time></trkpt><trkpt lat="45.1896533" lon="8.1294796"><ele>147.66666666666666</ele><time>2026-03-29T13:09:33.865Z</time></trkpt><trkpt lat="45.1896494" lon="8.1292019"><ele>148.33333333333331</ele><time>2026-03-29T13:09:34.866Z</time></trkpt><trkpt lat="45.1896453" lon="8.1289223"><ele>149.0</ele><time>2026-03-29T13:09:35.873Z</time></trkpt><trkpt lat="45.1896404" lon="8.1286455"><ele>149.0</ele><time>2026-03-29T13:09:36.864Z</time></trkpt><trkpt lat="45.1896347" lon="8.1283657"><ele>149.0</ele><time>2026-03-29T13:09:37.866Z</time></trkpt><trkpt lat="45.1896296" lon="8.1280843"><ele>149.0</ele><time>2026-03-29T13:09:38.865Z</time></trkpt><trkpt lat="45.189625" lon="8.1278014"><ele>149.0</ele><time>2026-03-29T13:09:39.864Z</time></trkpt><trkpt lat="45.1896207" lon="8.12752"><ele>149.0</ele><time>2026-03-29T13:09:40.868Z</time></trkpt><trkpt lat="45.1896173" lon="8.1272461"><ele>149.0</ele><time>2026-03-29T13:09:41.857Z</time></trkpt><trkpt lat="45.189614" lon="8.1269686"><ele>149.0</ele><time>2026-03-29T13:09:42.861Z</time></trkpt><trkpt lat="45.1896102" lon="8.1266905"><ele>149.0</ele><time>2026-03-29T13:09:43.859Z</time></trkpt><trkpt lat="45.1896063" lon="8.1264111"><ele>149.0</ele><time>2026-03-29T13:09:44.895Z</time></trkpt><trkpt lat="45.1896039" lon="8.1261362"><ele>149.0</ele><time>2026-03-29T13:09:45.862Z</time></trkpt><trkpt lat="45.1896012" lon="8.1258532"><ele>149.0</ele><time>2026-03-29T13:09:46.863Z</time></trkpt><trkpt lat="45.1895978" lon="8.125571"><ele>149.0</ele><time>2026-03-29T13:09:47.866Z</time></trkpt><trkpt lat="45.189594" lon="8.1252947"><ele>149.0</ele><time>2026-03-29T13:09:48.862Z</time></trkpt><trkpt lat="45.1895901" lon="8.1250209"><ele>149.0</ele><time>2026-03-29T13:09:49.858Z</time></trkpt><trkpt lat="45.1895873" lon="8.1247605"><ele>149.0</ele><time>2026-03-29T13:09:50.861Z</time></trkpt><trkpt lat="45.1895844" lon="8.1245084"><ele>148.66666666666666</ele><time>2026-03-29T13:09:51.866Z</time></trkpt><trkpt lat="45.1895809" lon="8.1242737"><ele>148.33333333333334</ele><time>2026-03-29T13:09:52.871Z</time></trkpt><trkpt lat="45.1895784" lon="8.1240502"><ele>148.0</ele><time>2026-03-29T13:09:53.86Z</time></trkpt><trkpt lat="45.1895764" lon="8.1238356"><ele>148.0</ele><time>2026-03-29T13:09:54.86Z</time></trkpt><trkpt lat="45.1895733" lon="8.1236254"><ele>148.0</ele><time>2026-03-29T13:09:55.862Z</time></trkpt><trkpt lat="45.1895694" lon="8.1234184"><ele>148.0</ele><time>2026-03-29T13:09:56.874Z</time></trkpt><trkpt lat="45.1895668" lon="8.1232127"><ele>148.0</ele><time>2026-03-29T13:09:57.861Z</time></trkpt><trkpt lat="45.1895644" lon="8.1230047"><ele>148.0</ele><time>2026-03-29T13:09:58.874Z</time></trkpt><trkpt lat="45.1895617" lon="8.1227991"><ele>148.0</ele><time>2026-03-29T13:09:59.862Z</time></trkpt><trkpt lat="45.1895591" lon="8.1225909"><ele>148.0</ele><time>2026-03-29T13:10:00.859Z</time></trkpt><trkpt lat="45.1895566" lon="8.1223841"><ele>148.0</ele><time>2026-03-29T13:10:01.865Z</time></trkpt><trkpt lat="45.1895544" lon="8.1221798"><ele>148.0</ele><time>2026-03-29T13:10:02.865Z</time></trkpt><trkpt lat="45.1895527" lon="8.1219804"><ele>148.0</ele><time>2026-03-29T13:10:03.859Z</time></trkpt><trkpt lat="45.189551" lon="8.12179"><ele>148.0</ele><time>2026-03-29T13:10:04.898Z</time></trkpt><trkpt lat="45.1895491" lon="8.1216147"><ele>148.0</ele><time>2026-03-29T13:10:05.867Z</time></trkpt><trkpt lat="45.1895458" lon="8.1214415"><ele>148.0</ele><time>2026-03-29T13:10:06.862Z</time></trkpt><trkpt lat="45.1895424" lon="8.1212625"><ele>148.0</ele><time>2026-03-29T13:10:07.862Z</time></trkpt><trkpt lat="45.1895376" lon="8.1210811"><ele>148.0</ele><time>2026-03-29T13:10:08.865Z</time></trkpt><trkpt lat="45.1895322" lon="8.1208975"><ele>148.0</ele><time>2026-03-29T13:10:09.863Z</time></trkpt><trkpt lat="45.189523" lon="8.1207101"><ele>148.0</ele><time>2026-03-29T13:10:10.865Z</time></trkpt><trkpt lat="45.1895084" lon="8.1205214"><ele>148.0</ele><time>2026-03-29T13:10:11.862Z</time></trkpt><trkpt lat="45.1894888" lon="8.1203375"><ele>148.0</ele><time>2026-03-29T13:10:12.873Z</time></trkpt><trkpt lat="45.1894672" lon="8.1201607"><ele>148.0</ele><time>2026-03-29T13:10:13.868Z</time></trkpt><trkpt lat="45.1894491" lon="8.1199971"><ele>148.4</ele><time>2026-03-29T13:10:14.867Z</time></trkpt><trkpt lat="45.189437" lon="8.1198491"><ele>148.8</ele><time>2026-03-29T13:10:15.861Z</time></trkpt><trkpt lat="45.1894354" lon="8.1197079"><ele>149.2</ele><time>2026-03-29T13:10:16.871Z</time></trkpt><trkpt lat="45.1894534" lon="8.1196054"><ele>149.6</ele><time>2026-03-29T13:10:17.866Z</time></trkpt><trkpt lat="45.1894781" lon="8.119449"><ele>150.0</ele><time>2026-03-29T13:10:18.863Z</time></trkpt><trkpt lat="45.1894851" lon="8.1192824"><ele>150.0</ele><time>2026-03-29T13:10:19.861Z</time></trkpt><trkpt lat="45.1895016" lon="8.1190829"><ele>150.0</ele><time>2026-03-29T13:10:20.865Z</time></trkpt><trkpt lat="45.1895411" lon="8.1188965"><ele>150.0</ele><time>2026-03-29T13:10:21.869Z</time></trkpt><trkpt lat="45.1895799" lon="8.1186835"><ele>150.0</ele><time>2026-03-29T13:10:22.86Z</time></trkpt><trkpt lat="45.189617" lon="8.1184503"><ele>150.25</ele><time>2026-03-29T13:10:23.866Z</time></trkpt><trkpt lat="45.1896467" lon="8.1182564"><ele>150.5</ele><time>2026-03-29T13:10:24.865Z</time></trkpt><trkpt lat="45.1896738" lon="8.1180617"><ele>150.75</ele><time>2026-03-29T13:10:25.864Z</time></trkpt><trkpt lat="45.189699" lon="8.1178764"><ele>151.0</ele><time>2026-03-29T13:10:26.87Z</time></trkpt><trkpt lat="45.1897244" lon="8.1177046"><ele>151.0</ele><time>2026-03-29T13:10:27.865Z</time></trkpt><trkpt lat="45.1897533" lon="8.117531"><ele>151.0</ele><time>2026-03-29T13:10:28.863Z</time></trkpt><trkpt lat="45.189785" lon="8.1173301"><ele>151.0</ele><time>2026-03-29T13:10:29.866Z</time></trkpt><trkpt lat="45.189817" lon="8.1171038"><ele>151.0</ele><time>2026-03-29T13:10:30.895Z</time></trkpt><trkpt lat="45.1898508" lon="8.1168653"><ele>150.66666666666669</ele><time>2026-03-29T13:10:31.862Z</time></trkpt><trkpt lat="45.1898893" lon="8.1165949"><ele>150.33333333333334</ele><time>2026-03-29T13:10:32.872Z</time></trkpt><trkpt lat="45.1899249" lon="8.116351"><ele>150.0</ele><time>2026-03-29T13:10:33.863Z</time></trkpt><trkpt lat="45.1899608" lon="8.1161091"><ele>149.66666666666666</ele><time>2026-03-29T13:10:34.865Z</time></trkpt><trkpt lat="45.1899953" lon="8.1158734"><ele>149.33333333333331</ele><time>2026-03-29T13:10:35.863Z</time></trkpt><trkpt lat="45.1900303" lon="8.1156398"><ele>149.0</ele><time>2026-03-29T13:10:36.874Z</time></trkpt><trkpt lat="45.1900633" lon="8.1154169"><ele>149.0</ele><time>2026-03-29T13:10:37.899Z</time></trkpt><trkpt lat="45.1900948" lon="8.1152064"><ele>149.0</ele><time>2026-03-29T13:10:38.866Z</time></trkpt><trkpt lat="45.1901266" lon="8.1149943"><ele>149.0</ele><time>2026-03-29T13:10:39.869Z</time></trkpt><trkpt lat="45.1901572" lon="8.1147862"><ele>149.0</ele><time>2026-03-29T13:10:40.86Z</time></trkpt><trkpt lat="45.1901879" lon="8.1145757"><ele>149.0</ele><time>2026-03-29T13:10:41.862Z</time></trkpt><trkpt lat="45.1902188" lon="8.1143692"><ele>149.0</ele><time>2026-03-29T13:10:42.866Z</time></trkpt><trkpt lat="45.1902494" lon="8.1141599"><ele>149.33333333333331</ele><time>2026-03-29T13:10:43.871Z</time></trkpt><trkpt lat="45.190282" lon="8.1139474"><ele>149.66666666666666</ele><time>2026-03-29T13:10:44.86Z</time></trkpt><trkpt lat="45.1903172" lon="8.1137265"><ele>150.0</ele><time>2026-03-29T13:10:45.873Z</time></trkpt><trkpt lat="45.1903524" lon="8.1135062"><ele>150.0</ele><time>2026-03-29T13:10:46.874Z</time></trkpt><trkpt lat="45.1903875" lon="8.1132821"><ele>150.0</ele><time>2026-03-29T13:10:47.866Z</time></trkpt><trkpt lat="45.1904221" lon="8.1130551"><ele>150.0</ele><time>2026-03-29T13:10:48.866Z</time></trkpt><trkpt lat="45.1904571" lon="8.1128268"><ele>150.0</ele><time>2026-03-29T13:10:49.866Z</time></trkpt><trkpt lat="45.1904919" lon="8.1125997"><ele>150.0</ele><time>2026-03-29T13:10:50.859Z</time></trkpt><trkpt lat="45.1905274" lon="8.1123721"><ele>150.0</ele><time>2026-03-29T13:10:51.863Z</time></trkpt><trkpt lat="45.1905619" lon="8.1121452"><ele>150.0</ele><time>2026-03-29T13:10:52.86Z</time></trkpt><trkpt lat="45.1905965" lon="8.111917"><ele>150.0</ele><time>2026-03-29T13:10:53.868Z</time></trkpt><trkpt lat="45.1906314" lon="8.1116905"><ele>150.0</ele><time>2026-03-29T13:10:54.869Z</time></trkpt><trkpt lat="45.1906668" lon="8.1114613"><ele>150.66666666666666</ele><time>2026-03-29T13:10:55.869Z</time></trkpt><trkpt lat="45.1907021" lon="8.111229"><ele>151.33333333333331</ele><time>2026-03-29T13:10:56.863Z</time></trkpt><trkpt lat="45.1907397" lon="8.110988"><ele>152.0</ele><time>2026-03-29T13:10:57.869Z</time></trkpt><trkpt lat="45.1907754" lon="8.110754"><ele>151.66666666666666</ele><time>2026-03-29T13:10:58.865Z</time></trkpt><trkpt lat="45.1908098" lon="8.1105216"><ele>151.33333333333334</ele><time>2026-03-29T13:10:59.872Z</time></trkpt><trkpt lat="45.1908416" lon="8.1102994"><ele>151.0</ele><time>2026-03-29T13:11:00.864Z</time></trkpt><trkpt lat="45.1908724" lon="8.1100894"><ele>151.75</ele><time>2026-03-29T13:11:01.868Z</time></trkpt><trkpt lat="45.1909027" lon="8.1098876"><ele>152.5</ele><time>2026-03-29T13:11:02.867Z</time></trkpt><trkpt lat="45.1909316" lon="8.1096978"><ele>153.25</ele><time>2026-03-29T13:11:03.869Z</time></trkpt><trkpt lat="45.1909587" lon="8.1095202"><ele>154.0</ele><time>2026-03-29T13:11:04.862Z</time></trkpt><trkpt lat="45.1909833" lon="8.1093519"><ele>154.0</ele><time>2026-03-29T13:11:05.892Z</time></trkpt><trkpt lat="45.1910083" lon="8.1091924"><ele>154.0</ele><time>2026-03-29T13:11:06.859Z</time></trkpt><trkpt lat="45.1910309" lon="8.1090414"><ele>154.0</ele><time>2026-03-29T13:11:07.862Z</time></trkpt><trkpt lat="45.1910479" lon="8.1089076"><ele>154.0</ele><time>2026-03-29T13:11:08.863Z</time></trkpt><trkpt lat="45.1910599" lon="8.1087985"><ele>154.0</ele><time>2026-03-29T13:11:09.86Z</time></trkpt><trkpt lat="45.1910741" lon="8.1086452"><ele>154.0</ele><time>2026-03-29T13:11:11.904Z</time></trkpt><trkpt lat="45.1910998" lon="8.1085367"><ele>154.0</ele><time>2026-03-29T13:11:13.869Z</time></trkpt><trkpt lat="45.1910944" lon="8.1084317"><ele>154.0</ele><time>2026-03-29T13:11:15.862Z</time></trkpt><trkpt lat="45.1910013" lon="8.1083416"><ele>154.0</ele><time>2026-03-29T13:11:18.87Z</time></trkpt><trkpt lat="45.1909086" lon="8.1082943"><ele>154.0</ele><time>2026-03-29T13:11:19.863Z</time></trkpt><trkpt lat="45.1907979" lon="8.1082497"><ele>154.0</ele><time>2026-03-29T13:11:20.862Z</time></trkpt><trkpt lat="45.1907042" lon="8.1082164"><ele>154.0</ele><time>2026-03-29T13:11:21.863Z</time></trkpt><trkpt lat="45.1906127" lon="8.1081899"><ele>154.0</ele><time>2026-03-29T13:11:22.87Z</time></trkpt><trkpt lat="45.190538" lon="8.1081798"><ele>154.0</ele><time>2026-03-29T13:11:23.861Z</time></trkpt><trkpt lat="45.1904699" lon="8.1081878"><ele>154.0</ele><time>2026-03-29T13:11:24.866Z</time></trkpt><trkpt lat="45.1903936" lon="8.1081883"><ele>154.0</ele><time>2026-03-29T13:11:25.863Z</time></trkpt><trkpt lat="45.1903284" lon="8.1081729"><ele>153.2</ele><time>2026-03-29T13:11:26.868Z</time></trkpt><trkpt lat="45.19028" lon="8.1083322"><ele>152.4</ele><time>2026-03-29T13:11:30.863Z</time></trkpt><trkpt lat="45.1902424" lon="8.1084379"><ele>151.6</ele><time>2026-03-29T13:11:31.865Z</time></trkpt><trkpt lat="45.1902082" lon="8.1085481"><ele>150.8</ele><time>2026-03-29T13:11:32.871Z</time></trkpt><trkpt lat="45.1901817" lon="8.1086546"><ele>150.0</ele><time>2026-03-29T13:11:33.871Z</time></trkpt><trkpt lat="45.1901555" lon="8.1087624"><ele>150.0</ele><time>2026-03-29T13:11:34.864Z</time></trkpt><trkpt lat="45.1901283" lon="8.1088678"><ele>150.0</ele><time>2026-03-29T13:11:35.86Z</time></trkpt><trkpt lat="45.1900958" lon="8.1090308"><ele>150.0</ele><time>2026-03-29T13:11:37.864Z</time></trkpt><trkpt lat="45.190043" lon="8.1091082"><ele>150.0</ele><time>2026-03-29T13:11:39.862Z</time></trkpt><trkpt lat="45.1899685" lon="8.1091054"><ele>150.0</ele><time>2026-03-29T13:11:41.868Z</time></trkpt><trkpt lat="45.1898916" lon="8.1090523"><ele>150.0</ele><time>2026-03-29T13:11:42.864Z</time></trkpt><trkpt lat="45.1898262" lon="8.1090139"><ele>150.0</ele><time>2026-03-29T13:11:43.875Z</time></trkpt><trkpt lat="45.1897627" lon="8.1089822"><ele>150.0</ele><time>2026-03-29T13:11:44.879Z</time></trkpt><trkpt lat="45.1896463" lon="8.1089374"><ele>150.0</ele><time>2026-03-29T13:11:46.868Z</time></trkpt><trkpt lat="45.1895327" lon="8.1089014"><ele>150.0</ele><time>2026-03-29T13:11:48.868Z</time></trkpt><trkpt lat="45.1894757" lon="8.1089656"><ele>150.0</ele><time>2026-03-29T13:11:51.871Z</time></trkpt><trkpt lat="45.1894818" lon="8.1091102"><ele>150.0</ele><time>2026-03-29T13:11:54.866Z</time></trkpt><trkpt lat="45.1895518" lon="8.1091928"><ele>150.0</ele><time>2026-03-29T13:11:56.865Z</time></trkpt><trkpt lat="45.1896313" lon="8.1092332"><ele>150.0</ele><time>2026-03-29T13:11:58.866Z</time></trkpt><trkpt lat="45.189739" lon="8.1092762"><ele>150.0</ele><time>2026-03-29T13:12:00.865Z</time></trkpt><trkpt lat="45.1898128" lon="8.1093054"><ele>150.0</ele><time>2026-03-29T13:12:02.865Z</time></trkpt><trkpt lat="45.1898874" lon="8.1093619"><ele>150.0</ele><time>2026-03-29T13:12:05.861Z</time></trkpt><trkpt lat="45.1898586" lon="8.1092798"><ele>150.0</ele><time>2026-03-29T13:12:11.867Z</time></trkpt><trkpt lat="45.18978" lon="8.1092889"><ele>150.0</ele><time>2026-03-29T13:12:14.867Z</time></trkpt><trkpt lat="45.1897224" lon="8.1092138"><ele>150.0</ele><time>2026-03-29T13:12:17.863Z</time></trkpt><trkpt lat="45.1896465" lon="8.1092336"><ele>150.0</ele><time>2026-03-29T13:14:28.86Z</time></trkpt><trkpt lat="45.1897086" lon="8.1092792"><ele>150.0</ele><time>2026-03-29T13:15:21.863Z</time></trkpt><trkpt lat="45.1897235" lon="8.1093741"><ele>150.0</ele><time>2026-03-29T13:15:26.862Z</time></trkpt></trkseg><trkseg><trkpt lat="45.1897575" lon="8.1093891"><ele>150.0</ele><time>2026-03-29T13:39:11.198Z</time></trkpt><trkpt lat="45.1897133" lon="8.1093144"><ele>150.0</ele><time>2026-03-29T13:39:17.186Z</time></trkpt><trkpt lat="45.1896715" lon="8.1092467"><ele>150.0</ele><time>2026-03-29T13:39:38.189Z</time></trkpt><trkpt lat="45.1899022" lon="8.1093874"><ele>150.0</ele><time>2026-03-29T13:41:57.199Z</time></trkpt><trkpt lat="45.1899878" lon="8.1093526"><ele>150.0</ele><time>2026-03-29T13:41:59.204Z</time></trkpt><trkpt lat="45.1900446" lon="8.1092147"><ele>150.0</ele><time>2026-03-29T13:42:01.184Z</time></trkpt><trkpt lat="45.1900651" lon="8.109114"><ele>150.0</ele><time>2026-03-29T13:42:02.189Z</time></trkpt><trkpt lat="45.1900839" lon="8.1090098"><ele>150.0</ele><time>2026-03-29T13:42:03.194Z</time></trkpt><trkpt lat="45.1900961" lon="8.1088909"><ele>150.0</ele><time>2026-03-29T13:42:04.203Z</time></trkpt><trkpt lat="45.1901125" lon="8.1087658"><ele>150.0</ele><time>2026-03-29T13:42:05.192Z</time></trkpt><trkpt lat="45.1901285" lon="8.1086414"><ele>150.0</ele><time>2026-03-29T13:42:06.192Z</time></trkpt><trkpt lat="45.1901421" lon="8.1085369"><ele>150.0</ele><time>2026-03-29T13:42:07.198Z</time></trkpt><trkpt lat="45.1901649" lon="8.1084474"><ele>150.0</ele><time>2026-03-29T13:42:08.199Z</time></trkpt><trkpt lat="45.1902385" lon="8.1083208"><ele>150.0</ele><time>2026-03-29T13:42:10.194Z</time></trkpt><trkpt lat="45.1903369" lon="8.1082473"><ele>150.0</ele><time>2026-03-29T13:42:12.195Z</time></trkpt><trkpt lat="45.1903792" lon="8.1081619"><ele>150.0</ele><time>2026-03-29T13:42:14.196Z</time></trkpt><trkpt lat="45.190318" lon="8.108046"><ele>150.16666666666666</ele><time>2026-03-29T13:42:16.195Z</time></trkpt><trkpt lat="45.1902674" lon="8.107988"><ele>150.33333333333334</ele><time>2026-03-29T13:42:17.191Z</time></trkpt><trkpt lat="45.1902343" lon="8.1078393"><ele>150.5</ele><time>2026-03-29T13:42:19.188Z</time></trkpt><trkpt lat="45.1902527" lon="8.1077322"><ele>150.66666666666669</ele><time>2026-03-29T13:42:20.202Z</time></trkpt><trkpt lat="45.1902796" lon="8.1076064"><ele>150.83333333333334</ele><time>2026-03-29T13:42:21.193Z</time></trkpt><trkpt lat="45.1903077" lon="8.1074769"><ele>151.0</ele><time>2026-03-29T13:42:22.236Z</time></trkpt><trkpt lat="45.1903275" lon="8.1073647"><ele>151.0</ele><time>2026-03-29T13:42:23.195Z</time></trkpt><trkpt lat="45.1903335" lon="8.107253"><ele>151.0</ele><time>2026-03-29T13:42:24.198Z</time></trkpt><trkpt lat="45.1903225" lon="8.1071619"><ele>151.0</ele><time>2026-03-29T13:42:25.199Z</time></trkpt><trkpt lat="45.1902172" lon="8.1070615"><ele>151.0</ele><time>2026-03-29T13:42:27.193Z</time></trkpt><trkpt lat="45.1901367" lon="8.107047"><ele>151.0</ele><time>2026-03-29T13:42:28.189Z</time></trkpt><trkpt lat="45.1900452" lon="8.1070451"><ele>151.0</ele><time>2026-03-29T13:42:29.191Z</time></trkpt><trkpt lat="45.1899435" lon="8.1070464"><ele>151.16666666666669</ele><time>2026-03-29T13:42:30.194Z</time></trkpt><trkpt lat="45.1898353" lon="8.1070398"><ele>151.33333333333334</ele><time>2026-03-29T13:42:31.224Z</time></trkpt><trkpt lat="45.1897329" lon="8.1070298"><ele>151.5</ele><time>2026-03-29T13:42:32.199Z</time></trkpt><trkpt lat="45.1896413" lon="8.10701"><ele>151.66666666666666</ele><time>2026-03-29T13:42:33.196Z</time></trkpt><trkpt lat="45.1895654" lon="8.1069989"><ele>151.83333333333331</ele><time>2026-03-29T13:42:34.191Z</time></trkpt><trkpt lat="45.1895021" lon="8.1069917"><ele>152.0</ele><time>2026-03-29T13:42:35.205Z</time></trkpt><trkpt lat="45.1894074" lon="8.1069665"><ele>152.0</ele><time>2026-03-29T13:42:37.192Z</time></trkpt><trkpt lat="45.1893671" lon="8.1068893"><ele>152.0</ele><time>2026-03-29T13:42:39.198Z</time></trkpt><trkpt lat="45.1893972" lon="8.1067547"><ele>152.0</ele><time>2026-03-29T13:42:41.186Z</time></trkpt><trkpt lat="45.1894431" lon="8.1066636"><ele>152.0</ele><time>2026-03-29T13:42:42.226Z</time></trkpt><trkpt lat="45.1894971" lon="8.1065571"><ele>152.0</ele><time>2026-03-29T13:42:43.199Z</time></trkpt><trkpt lat="45.1895562" lon="8.1064301"><ele>152.0</ele><time>2026-03-29T13:42:44.188Z</time></trkpt><trkpt lat="45.1896174" lon="8.1062934"><ele>152.5</ele><time>2026-03-29T13:42:45.199Z</time></trkpt><trkpt lat="45.1896704" lon="8.106161"><ele>153.0</ele><time>2026-03-29T13:42:46.188Z</time></trkpt><trkpt lat="45.1897137" lon="8.1060384"><ele>153.5</ele><time>2026-03-29T13:42:47.199Z</time></trkpt><trkpt lat="45.1897506" lon="8.1059232"><ele>154.0</ele><time>2026-03-29T13:42:48.191Z</time></trkpt><trkpt lat="45.1897852" lon="8.1058196"><ele>154.5</ele><time>2026-03-29T13:42:49.19Z</time></trkpt><trkpt lat="45.1898145" lon="8.1057316"><ele>155.0</ele><time>2026-03-29T13:42:50.192Z</time></trkpt><trkpt lat="45.1898656" lon="8.1055962"><ele>155.0</ele><time>2026-03-29T13:42:52.227Z</time></trkpt><trkpt lat="45.1899031" lon="8.1054886"><ele>155.0</ele><time>2026-03-29T13:42:55.207Z</time></trkpt><trkpt lat="45.1898248" lon="8.1054059"><ele>155.0</ele><time>2026-03-29T13:42:59.198Z</time></trkpt><trkpt lat="45.1897621" lon="8.1053816"><ele>155.0</ele><time>2026-03-29T13:43:00.191Z</time></trkpt><trkpt lat="45.1896936" lon="8.1053589"><ele>155.0</ele><time>2026-03-29T13:43:01.193Z</time></trkpt><trkpt lat="45.1896314" lon="8.1053408"><ele>155.0</ele><time>2026-03-29T13:43:02.194Z</time></trkpt><trkpt lat="45.1895698" lon="8.1053205"><ele>155.0</ele><time>2026-03-29T13:43:03.192Z</time></trkpt><trkpt lat="45.1894752" lon="8.1052723"><ele>155.0</ele><time>2026-03-29T13:43:05.192Z</time></trkpt><trkpt lat="45.1894063" lon="8.1051712"><ele>155.0</ele><time>2026-03-29T13:43:07.234Z</time></trkpt><trkpt lat="45.1893742" lon="8.1050909"><ele>155.0</ele><time>2026-03-29T13:43:08.192Z</time></trkpt><trkpt lat="45.1893564" lon="8.1050027"><ele>155.0</ele><time>2026-03-29T13:43:09.206Z</time></trkpt><trkpt lat="45.1893502" lon="8.1049001"><ele>155.0</ele><time>2026-03-29T13:43:10.198Z</time></trkpt><trkpt lat="45.1893662" lon="8.104748"><ele>155.0</ele><time>2026-03-29T13:43:11.194Z</time></trkpt><trkpt lat="45.1894029" lon="8.104584"><ele>154.8</ele><time>2026-03-29T13:43:12.197Z</time></trkpt><trkpt lat="45.1894621" lon="8.1044424"><ele>154.6</ele><time>2026-03-29T13:43:13.194Z</time></trkpt><trkpt lat="45.1895302" lon="8.1043292"><ele>154.4</ele><time>2026-03-29T13:43:14.207Z</time></trkpt><trkpt lat="45.1895913" lon="8.1042171"><ele>154.2</ele><time>2026-03-29T13:43:15.199Z</time></trkpt><trkpt lat="45.1896576" lon="8.1040962"><ele>154.0</ele><time>2026-03-29T13:43:16.209Z</time></trkpt><trkpt lat="45.189715" lon="8.1039646"><ele>154.0</ele><time>2026-03-29T13:43:17.197Z</time></trkpt><trkpt lat="45.1897764" lon="8.1038188"><ele>154.0</ele><time>2026-03-29T13:43:18.194Z</time></trkpt><trkpt lat="45.1898349" lon="8.1036789"><ele>154.0</ele><time>2026-03-29T13:43:19.195Z</time></trkpt><trkpt lat="45.1898887" lon="8.103547"><ele>154.0</ele><time>2026-03-29T13:43:20.19Z</time></trkpt><trkpt lat="45.1899355" lon="8.1034122"><ele>154.0</ele><time>2026-03-29T13:43:21.193Z</time></trkpt><trkpt lat="45.1899858" lon="8.1032782"><ele>154.6</ele><time>2026-03-29T13:43:22.195Z</time></trkpt><trkpt lat="45.190043" lon="8.1031474"><ele>155.2</ele><time>2026-03-29T13:43:23.193Z</time></trkpt><trkpt lat="45.1901045" lon="8.1030232"><ele>155.79999999999998</ele><time>2026-03-29T13:43:24.192Z</time></trkpt><trkpt lat="45.1901636" lon="8.1029071"><ele>156.4</ele><time>2026-03-29T13:43:25.195Z</time></trkpt><trkpt lat="45.1902194" lon="8.1028012"><ele>157.0</ele><time>2026-03-29T13:43:26.188Z</time></trkpt><trkpt lat="45.1902578" lon="8.1027066"><ele>157.0</ele><time>2026-03-29T13:43:27.193Z</time></trkpt><trkpt lat="45.1902967" lon="8.1026162"><ele>157.0</ele><time>2026-03-29T13:43:28.193Z</time></trkpt><trkpt lat="45.1903499" lon="8.1025136"><ele>157.0</ele><time>2026-03-29T13:43:30.199Z</time></trkpt><trkpt lat="45.1903888" lon="8.102428"><ele>157.0</ele><time>2026-03-29T13:43:34.188Z</time></trkpt><trkpt lat="45.1904325" lon="8.1023241"><ele>157.0</ele><time>2026-03-29T13:43:37.199Z</time></trkpt><trkpt lat="45.1904379" lon="8.1022067"><ele>157.0</ele><time>2026-03-29T13:43:39.2Z</time></trkpt><trkpt lat="45.1903808" lon="8.1021382"><ele>157.66666666666669</ele><time>2026-03-29T13:43:41.212Z</time></trkpt><trkpt lat="45.1902505" lon="8.1021587"><ele>158.33333333333334</ele><time>2026-03-29T13:43:43.198Z</time></trkpt><trkpt lat="45.1901724" lon="8.1021745"><ele>159.0</ele><time>2026-03-29T13:43:44.189Z</time></trkpt><trkpt lat="45.1900946" lon="8.1021857"><ele>159.66666666666666</ele><time>2026-03-29T13:43:45.19Z</time></trkpt><trkpt lat="45.1900171" lon="8.1021926"><ele>160.33333333333331</ele><time>2026-03-29T13:43:46.192Z</time></trkpt><trkpt lat="45.1899357" lon="8.1021926"><ele>161.0</ele><time>2026-03-29T13:43:47.224Z</time></trkpt><trkpt lat="45.1898494" lon="8.1021835"><ele>160.0</ele><time>2026-03-29T13:43:48.188Z</time></trkpt><trkpt lat="45.189759" lon="8.1021501"><ele>159.0</ele><time>2026-03-29T13:43:49.191Z</time></trkpt><trkpt lat="45.1896644" lon="8.1021185"><ele>158.0</ele><time>2026-03-29T13:43:50.197Z</time></trkpt><trkpt lat="45.1895689" lon="8.1020861"><ele>157.0</ele><time>2026-03-29T13:43:51.195Z</time></trkpt><trkpt lat="45.1894743" lon="8.1020525"><ele>156.0</ele><time>2026-03-29T13:43:52.193Z</time></trkpt><trkpt lat="45.1893799" lon="8.1020174"><ele>156.0</ele><time>2026-03-29T13:43:53.194Z</time></trkpt><trkpt lat="45.1892911" lon="8.1019847"><ele>156.0</ele><time>2026-03-29T13:43:54.199Z</time></trkpt><trkpt lat="45.1892165" lon="8.1019576"><ele>156.0</ele><time>2026-03-29T13:43:55.2Z</time></trkpt><trkpt lat="45.1891406" lon="8.1019288"><ele>156.0</ele><time>2026-03-29T13:43:56.191Z</time></trkpt><trkpt lat="45.1890714" lon="8.1019091"><ele>156.0</ele><time>2026-03-29T13:43:57.198Z</time></trkpt><trkpt lat="45.1889986" lon="8.1018878"><ele>156.0</ele><time>2026-03-29T13:43:58.195Z</time></trkpt><trkpt lat="45.1889211" lon="8.1018618"><ele>155.6</ele><time>2026-03-29T13:43:59.197Z</time></trkpt><trkpt lat="45.1888387" lon="8.1018409"><ele>155.2</ele><time>2026-03-29T13:44:00.205Z</time></trkpt><trkpt lat="45.1887469" lon="8.1018222"><ele>154.8</ele><time>2026-03-29T13:44:01.195Z</time></trkpt><trkpt lat="45.1886448" lon="8.1017998"><ele>154.4</ele><time>2026-03-29T13:44:02.201Z</time></trkpt><trkpt lat="45.1885311" lon="8.1017699"><ele>154.0</ele><time>2026-03-29T13:44:03.197Z</time></trkpt><trkpt lat="45.1884095" lon="8.101741"><ele>154.0</ele><time>2026-03-29T13:44:04.197Z</time></trkpt><trkpt lat="45.1882812" lon="8.1017193"><ele>154.0</ele><time>2026-03-29T13:44:05.191Z</time></trkpt><trkpt lat="45.188147" lon="8.1016947"><ele>154.0</ele><time>2026-03-29T13:44:06.19Z</time></trkpt><trkpt lat="45.1880212" lon="8.1016699"><ele>154.0</ele><time>2026-03-29T13:44:07.193Z</time></trkpt><trkpt lat="45.1879047" lon="8.1016459"><ele>153.8</ele><time>2026-03-29T13:44:08.208Z</time></trkpt><trkpt lat="45.1877994" lon="8.1016243"><ele>153.60000000000002</ele><time>2026-03-29T13:44:09.193Z</time></trkpt><trkpt lat="45.1877096" lon="8.1016048"><ele>153.4</ele><time>2026-03-29T13:44:10.195Z</time></trkpt><trkpt lat="45.1876304" lon="8.1015825"><ele>153.20000000000002</ele><time>2026-03-29T13:44:11.225Z</time></trkpt><trkpt lat="45.1875507" lon="8.1015664"><ele>153.0</ele><time>2026-03-29T13:44:12.193Z</time></trkpt><trkpt lat="45.18746" lon="8.1015429"><ele>153.0</ele><time>2026-03-29T13:44:13.192Z</time></trkpt><trkpt lat="45.1873581" lon="8.1014966"><ele>153.0</ele><time>2026-03-29T13:44:14.216Z</time></trkpt><trkpt lat="45.1872442" lon="8.1014599"><ele>153.0</ele><time>2026-03-29T13:44:15.211Z</time></trkpt><trkpt lat="45.1871265" lon="8.1014371"><ele>153.0</ele><time>2026-03-29T13:44:16.197Z</time></trkpt><trkpt lat="45.1870031" lon="8.10141"><ele>152.75</ele><time>2026-03-29T13:44:17.19Z</time></trkpt><trkpt lat="45.1868777" lon="8.1013921"><ele>152.5</ele><time>2026-03-29T13:44:18.203Z</time></trkpt><trkpt lat="45.1867548" lon="8.1013732"><ele>152.25</ele><time>2026-03-29T13:44:19.187Z</time></trkpt><trkpt lat="45.1866403" lon="8.1013551"><ele>152.0</ele><time>2026-03-29T13:44:20.199Z</time></trkpt><trkpt lat="45.1865299" lon="8.1013334"><ele>151.79999999999998</ele><time>2026-03-29T13:44:21.192Z</time></trkpt><trkpt lat="45.1864292" lon="8.1013134"><ele>151.6</ele><time>2026-03-29T13:44:22.189Z</time></trkpt><trkpt lat="45.1862795" lon="8.1012499"><ele>151.39999999999998</ele><time>2026-03-29T13:44:24.191Z</time></trkpt><trkpt lat="45.186193" lon="8.1012252"><ele>151.2</ele><time>2026-03-29T13:44:25.192Z</time></trkpt><trkpt lat="45.186106" lon="8.1012044"><ele>151.0</ele><time>2026-03-29T13:44:26.191Z</time></trkpt><trkpt lat="45.1860115" lon="8.1011798"><ele>151.0</ele><time>2026-03-29T13:44:27.194Z</time></trkpt><trkpt lat="45.1859225" lon="8.1011456"><ele>151.0</ele><time>2026-03-29T13:44:28.195Z</time></trkpt><trkpt lat="45.1858333" lon="8.1010972"><ele>151.0</ele><time>2026-03-29T13:44:29.191Z</time></trkpt><trkpt lat="45.1857422" lon="8.1010334"><ele>151.0</ele><time>2026-03-29T13:44:30.206Z</time></trkpt><trkpt lat="45.1856661" lon="8.1009629"><ele>151.0</ele><time>2026-03-29T13:44:31.191Z</time></trkpt><trkpt lat="45.1856021" lon="8.100892"><ele>151.0</ele><time>2026-03-29T13:44:32.188Z</time></trkpt><trkpt lat="45.1855373" lon="8.100824"><ele>151.0</ele><time>2026-03-29T13:44:33.196Z</time></trkpt><trkpt lat="45.1854465" lon="8.1008471"><ele>151.0</ele><time>2026-03-29T13:44:36.205Z</time></trkpt><trkpt lat="45.1853588" lon="8.1009164"><ele>151.0</ele><time>2026-03-29T13:44:37.203Z</time></trkpt><trkpt lat="45.1852701" lon="8.1009458"><ele>151.0</ele><time>2026-03-29T13:44:39.197Z</time></trkpt><trkpt lat="45.1850526" lon="8.1009058"><ele>151.0</ele><time>2026-03-29T13:44:41.192Z</time></trkpt><trkpt lat="45.1849138" lon="8.1008697"><ele>151.0</ele><time>2026-03-29T13:44:42.221Z</time></trkpt><trkpt lat="45.1847966" lon="8.1008351"><ele>151.0</ele><time>2026-03-29T13:44:43.203Z</time></trkpt><trkpt lat="45.1846784" lon="8.1008078"><ele>151.0</ele><time>2026-03-29T13:44:44.198Z</time></trkpt><trkpt lat="45.1845608" lon="8.1007832"><ele>151.0</ele><time>2026-03-29T13:44:45.192Z</time></trkpt><trkpt lat="45.1844309" lon="8.1007521"><ele>151.0</ele><time>2026-03-29T13:44:46.197Z</time></trkpt><trkpt lat="45.1842688" lon="8.1007089"><ele>151.0</ele><time>2026-03-29T13:44:47.196Z</time></trkpt><trkpt lat="45.1840987" lon="8.1006675"><ele>152.66666666666669</ele><time>2026-03-29T13:44:48.216Z</time></trkpt><trkpt lat="45.1839184" lon="8.1006287"><ele>154.33333333333334</ele><time>2026-03-29T13:44:49.225Z</time></trkpt><trkpt lat="45.1837522" lon="8.1005836"><ele>156.0</ele><time>2026-03-29T13:44:50.198Z</time></trkpt><trkpt lat="45.1835721" lon="8.1005375"><ele>156.0</ele><time>2026-03-29T13:44:51.211Z</time></trkpt><trkpt lat="45.1833957" lon="8.1004957"><ele>156.0</ele><time>2026-03-29T13:44:52.199Z</time></trkpt><trkpt lat="45.1832201" lon="8.1004537"><ele>156.0</ele><time>2026-03-29T13:44:53.199Z</time></trkpt><trkpt lat="45.1830393" lon="8.1004227"><ele>156.33333333333334</ele><time>2026-03-29T13:44:54.199Z</time></trkpt><trkpt lat="45.1828736" lon="8.1003875"><ele>156.66666666666669</ele><time>2026-03-29T13:44:55.198Z</time></trkpt><trkpt lat="45.1827016" lon="8.1003587"><ele>157.0</ele><time>2026-03-29T13:44:56.199Z</time></trkpt><trkpt lat="45.1825356" lon="8.1003224"><ele>157.0</ele><time>2026-03-29T13:44:57.195Z</time></trkpt><trkpt lat="45.1823644" lon="8.1002891"><ele>157.0</ele><time>2026-03-29T13:44:58.192Z</time></trkpt><trkpt lat="45.1821889" lon="8.1002576"><ele>157.0</ele><time>2026-03-29T13:44:59.2Z</time></trkpt><trkpt lat="45.1820147" lon="8.100223"><ele>156.0</ele><time>2026-03-29T13:45:00.192Z</time></trkpt><trkpt lat="45.1818382" lon="8.1001876"><ele>155.0</ele><time>2026-03-29T13:45:01.198Z</time></trkpt><trkpt lat="45.1816664" lon="8.1001517"><ele>154.0</ele><time>2026-03-29T13:45:02.193Z</time></trkpt><trkpt lat="45.1814992" lon="8.1001129"><ele>153.33333333333334</ele><time>2026-03-29T13:45:03.202Z</time></trkpt><trkpt lat="45.1813307" lon="8.1000752"><ele>152.66666666666666</ele><time>2026-03-29T13:45:04.194Z</time></trkpt><trkpt lat="45.1811652" lon="8.1000394"><ele>152.0</ele><time>2026-03-29T13:45:05.199Z</time></trkpt><trkpt lat="45.1809995" lon="8.1000029"><ele>152.0</ele><time>2026-03-29T13:45:06.201Z</time></trkpt><trkpt lat="45.1808392" lon="8.0999653"><ele>152.0</ele><time>2026-03-29T13:45:07.189Z</time></trkpt><trkpt lat="45.1806883" lon="8.0999307"><ele>152.0</ele><time>2026-03-29T13:45:08.2Z</time></trkpt><trkpt lat="45.1805505" lon="8.0998995"><ele>151.5</ele><time>2026-03-29T13:45:09.198Z</time></trkpt><trkpt lat="45.1804294" lon="8.0998713"><ele>151.0</ele><time>2026-03-29T13:45:10.197Z</time></trkpt><trkpt lat="45.1803114" lon="8.0998452"><ele>150.5</ele><time>2026-03-29T13:45:11.197Z</time></trkpt><trkpt lat="45.1801991" lon="8.0998201"><ele>150.0</ele><time>2026-03-29T13:45:12.231Z</time></trkpt><trkpt lat="45.180099" lon="8.0997986"><ele>150.0</ele><time>2026-03-29T13:45:13.191Z</time></trkpt><trkpt lat="45.1800031" lon="8.0997777"><ele>150.0</ele><time>2026-03-29T13:45:14.229Z</time></trkpt><trkpt lat="45.1799176" lon="8.0997608"><ele>150.0</ele><time>2026-03-29T13:45:15.192Z</time></trkpt><trkpt lat="45.1798352" lon="8.0997453"><ele>150.0</ele><time>2026-03-29T13:45:16.209Z</time></trkpt><trkpt lat="45.1797624" lon="8.0997332"><ele>150.0</ele><time>2026-03-29T13:45:17.194Z</time></trkpt><trkpt lat="45.179679" lon="8.0997192"><ele>150.0</ele><time>2026-03-29T13:45:18.193Z</time></trkpt><trkpt lat="45.1796029" lon="8.0997061"><ele>149.5</ele><time>2026-03-29T13:45:19.193Z</time></trkpt><trkpt lat="45.1795326" lon="8.0996932"><ele>149.0</ele><time>2026-03-29T13:45:20.2Z</time></trkpt><trkpt lat="45.1794655" lon="8.09968"><ele>148.5</ele><time>2026-03-29T13:45:21.194Z</time></trkpt><trkpt lat="45.1794023" lon="8.09967"><ele>148.0</ele><time>2026-03-29T13:45:22.201Z</time></trkpt><trkpt lat="45.1792799" lon="8.0996614"><ele>147.5</ele><time>2026-03-29T13:45:24.198Z</time></trkpt><trkpt lat="45.1792164" lon="8.0996526"><ele>147.0</ele><time>2026-03-29T13:45:25.224Z</time></trkpt><trkpt lat="45.1791501" lon="8.0996354"><ele>147.0</ele><time>2026-03-29T13:45:26.194Z</time></trkpt><trkpt lat="45.1790747" lon="8.0996182"><ele>147.0</ele><time>2026-03-29T13:45:27.195Z</time></trkpt><trkpt lat="45.1790007" lon="8.0996023"><ele>147.0</ele><time>2026-03-29T13:45:28.195Z</time></trkpt><trkpt lat="45.1788949" lon="8.099578"><ele>147.0</ele><time>2026-03-29T13:45:30.192Z</time></trkpt><trkpt lat="45.1788221" lon="8.0995584"><ele>147.0</ele><time>2026-03-29T13:45:32.207Z</time></trkpt><trkpt lat="45.178754" lon="8.0995368"><ele>147.0</ele><time>2026-03-29T13:45:44.191Z</time></trkpt><trkpt lat="45.1786768" lon="8.099521"><ele>147.2</ele><time>2026-03-29T13:45:46.191Z</time></trkpt><trkpt lat="45.1786021" lon="8.0994991"><ele>147.39999999999998</ele><time>2026-03-29T13:45:47.197Z</time></trkpt><trkpt lat="45.1785027" lon="8.0994722"><ele>147.60000000000002</ele><time>2026-03-29T13:45:48.195Z</time></trkpt><trkpt lat="45.1783854" lon="8.099441"><ele>147.8</ele><time>2026-03-29T13:45:49.193Z</time></trkpt><trkpt lat="45.1782527" lon="8.0994081"><ele>148.0</ele><time>2026-03-29T13:45:50.2Z</time></trkpt><trkpt lat="45.1781225" lon="8.0993787"><ele>148.0</ele><time>2026-03-29T13:45:51.195Z</time></trkpt><trkpt lat="45.1779899" lon="8.0993488"><ele>148.0</ele><time>2026-03-29T13:45:52.199Z</time></trkpt><trkpt lat="45.1778651" lon="8.0993205"><ele>148.0</ele><time>2026-03-29T13:45:53.19Z</time></trkpt><trkpt lat="45.1777338" lon="8.09929"><ele>148.0</ele><time>2026-03-29T13:45:54.193Z</time></trkpt><trkpt lat="45.1776074" lon="8.0992581"><ele>148.0</ele><time>2026-03-29T13:45:55.202Z</time></trkpt><trkpt lat="45.1774749" lon="8.0992287"><ele>148.0</ele><time>2026-03-29T13:45:56.199Z</time></trkpt><trkpt lat="45.1773407" lon="8.0991977"><ele>148.0</ele><time>2026-03-29T13:45:57.195Z</time></trkpt><trkpt lat="45.1772056" lon="8.0991646"><ele>148.0</ele><time>2026-03-29T13:45:58.213Z</time></trkpt><trkpt lat="45.1770654" lon="8.0991302"><ele>148.0</ele><time>2026-03-29T13:45:59.196Z</time></trkpt><trkpt lat="45.1769215" lon="8.0990975"><ele>148.0</ele><time>2026-03-29T13:46:00.2Z</time></trkpt><trkpt lat="45.1767731" lon="8.0990607"><ele>148.0</ele><time>2026-03-29T13:46:01.193Z</time></trkpt><trkpt lat="45.1766257" lon="8.0990291"><ele>148.0</ele><time>2026-03-29T13:46:02.197Z</time></trkpt><trkpt lat="45.1764792" lon="8.0989932"><ele>149.0</ele><time>2026-03-29T13:46:03.193Z</time></trkpt><trkpt lat="45.1763244" lon="8.0989586"><ele>150.0</ele><time>2026-03-29T13:46:04.199Z</time></trkpt><trkpt lat="45.1761694" lon="8.0989252"><ele>151.0</ele><time>2026-03-29T13:46:05.193Z</time></trkpt><trkpt lat="45.1760163" lon="8.0988898"><ele>151.0</ele><time>2026-03-29T13:46:06.196Z</time></trkpt><trkpt lat="45.1758636" lon="8.0988558"><ele>151.0</ele><time>2026-03-29T13:46:07.191Z</time></trkpt><trkpt lat="45.1757172" lon="8.0988245"><ele>151.0</ele><time>2026-03-29T13:46:08.203Z</time></trkpt><trkpt lat="45.1755789" lon="8.0987934"><ele>151.0</ele><time>2026-03-29T13:46:09.197Z</time></trkpt><trkpt lat="45.1754454" lon="8.0987636"><ele>152.66666666666669</ele><time>2026-03-29T13:46:10.215Z</time></trkpt><trkpt lat="45.1753084" lon="8.0987363"><ele>154.33333333333334</ele><time>2026-03-29T13:46:11.201Z</time></trkpt><trkpt lat="45.1751559" lon="8.0987053"><ele>156.0</ele><time>2026-03-29T13:46:12.187Z</time></trkpt><trkpt lat="45.1749945" lon="8.0986689"><ele>158.66666666666666</ele><time>2026-03-29T13:46:13.223Z</time></trkpt><trkpt lat="45.1748336" lon="8.0986239"><ele>161.33333333333331</ele><time>2026-03-29T13:46:14.212Z</time></trkpt><trkpt lat="45.1746704" lon="8.0985608"><ele>164.0</ele><time>2026-03-29T13:46:15.204Z</time></trkpt><trkpt lat="45.1745086" lon="8.0984768"><ele>164.0</ele><time>2026-03-29T13:46:16.188Z</time></trkpt><trkpt lat="45.174372" lon="8.0983714"><ele>164.0</ele><time>2026-03-29T13:46:17.192Z</time></trkpt><trkpt lat="45.1742288" lon="8.0982388"><ele>164.0</ele><time>2026-03-29T13:46:18.193Z</time></trkpt><trkpt lat="45.174097" lon="8.0980872"><ele>164.33333333333331</ele><time>2026-03-29T13:46:19.196Z</time></trkpt><trkpt lat="45.1739804" lon="8.0979179"><ele>164.66666666666666</ele><time>2026-03-29T13:46:20.191Z</time></trkpt><trkpt lat="45.1738692" lon="8.0977278"><ele>165.0</ele><time>2026-03-29T13:46:21.195Z</time></trkpt><trkpt lat="45.1737554" lon="8.0975123"><ele>165.0</ele><time>2026-03-29T13:46:22.2Z</time></trkpt><trkpt lat="45.1736436" lon="8.097278"><ele>165.0</ele><time>2026-03-29T13:46:23.192Z</time></trkpt><trkpt lat="45.1735356" lon="8.0970327"><ele>165.0</ele><time>2026-03-29T13:46:24.194Z</time></trkpt><trkpt lat="45.1734377" lon="8.0968021"><ele>165.0</ele><time>2026-03-29T13:46:25.197Z</time></trkpt><trkpt lat="45.173348" lon="8.0966087"><ele>165.0</ele><time>2026-03-29T13:46:26.203Z</time></trkpt><trkpt lat="45.173249" lon="8.0964271"><ele>165.0</ele><time>2026-03-29T13:46:27.191Z</time></trkpt><trkpt lat="45.1731431" lon="8.0962536"><ele>163.0</ele><time>2026-03-29T13:46:28.198Z</time></trkpt><trkpt lat="45.1730414" lon="8.0960951"><ele>161.0</ele><time>2026-03-29T13:46:29.199Z</time></trkpt><trkpt lat="45.1729469" lon="8.095941"><ele>159.0</ele><time>2026-03-29T13:46:30.191Z</time></trkpt><trkpt lat="45.1728519" lon="8.0957894"><ele>157.0</ele><time>2026-03-29T13:46:31.202Z</time></trkpt><trkpt lat="45.172753" lon="8.0956355"><ele>155.66666666666669</ele><time>2026-03-29T13:46:32.209Z</time></trkpt><trkpt lat="45.172641" lon="8.0954687"><ele>154.33333333333334</ele><time>2026-03-29T13:46:33.24Z</time></trkpt><trkpt lat="45.1725291" lon="8.0952981"><ele>153.0</ele><time>2026-03-29T13:46:34.192Z</time></trkpt><trkpt lat="45.1724075" lon="8.095114"><ele>153.0</ele><time>2026-03-29T13:46:35.193Z</time></trkpt><trkpt lat="45.172285" lon="8.0949301"><ele>153.0</ele><time>2026-03-29T13:46:36.211Z</time></trkpt><trkpt lat="45.1721513" lon="8.0947289"><ele>153.0</ele><time>2026-03-29T13:46:37.192Z</time></trkpt><trkpt lat="45.1720133" lon="8.094515"><ele>153.0</ele><time>2026-03-29T13:46:38.243Z</time></trkpt><trkpt lat="45.1718785" lon="8.0943087"><ele>153.0</ele><time>2026-03-29T13:46:39.189Z</time></trkpt><trkpt lat="45.1717419" lon="8.0941021"><ele>153.0</ele><time>2026-03-29T13:46:40.192Z</time></trkpt><trkpt lat="45.1716046" lon="8.0938912"><ele>154.0</ele><time>2026-03-29T13:46:41.189Z</time></trkpt><trkpt lat="45.1714659" lon="8.0936802"><ele>155.0</ele><time>2026-03-29T13:46:42.189Z</time></trkpt><trkpt lat="45.1713301" lon="8.0934766"><ele>156.0</ele><time>2026-03-29T13:46:43.216Z</time></trkpt><trkpt lat="45.1711948" lon="8.0932703"><ele>155.0</ele><time>2026-03-29T13:46:44.191Z</time></trkpt><trkpt lat="45.1710575" lon="8.0930615"><ele>154.0</ele><time>2026-03-29T13:46:45.202Z</time></trkpt><trkpt lat="45.1709228" lon="8.0928533"><ele>153.0</ele><time>2026-03-29T13:46:46.195Z</time></trkpt><trkpt lat="45.1707848" lon="8.0926486"><ele>153.33333333333334</ele><time>2026-03-29T13:46:47.192Z</time></trkpt><trkpt lat="45.1706461" lon="8.0924435"><ele>153.66666666666669</ele><time>2026-03-29T13:46:48.193Z</time></trkpt><trkpt lat="45.1705099" lon="8.0922413"><ele>154.0</ele><time>2026-03-29T13:46:49.192Z</time></trkpt><trkpt lat="45.1703709" lon="8.0920383"><ele>154.0</ele><time>2026-03-29T13:46:50.233Z</time></trkpt><trkpt lat="45.1702392" lon="8.0918425"><ele>154.0</ele><time>2026-03-29T13:46:51.196Z</time></trkpt><trkpt lat="45.1701035" lon="8.0916452"><ele>154.0</ele><time>2026-03-29T13:46:52.19Z</time></trkpt><trkpt lat="45.1699707" lon="8.0914525"><ele>153.33333333333334</ele><time>2026-03-29T13:46:53.19Z</time></trkpt><trkpt lat="45.1698422" lon="8.0912648"><ele>152.66666666666666</ele><time>2026-03-29T13:46:54.194Z</time></trkpt><trkpt lat="45.1697205" lon="8.0910838"><ele>152.0</ele><time>2026-03-29T13:46:55.204Z</time></trkpt><trkpt lat="45.1696052" lon="8.0909102"><ele>152.0</ele><time>2026-03-29T13:46:56.189Z</time></trkpt><trkpt lat="45.16949" lon="8.0907361"><ele>152.0</ele><time>2026-03-29T13:46:57.214Z</time></trkpt><trkpt lat="45.1693777" lon="8.0905684"><ele>152.0</ele><time>2026-03-29T13:46:58.194Z</time></trkpt><trkpt lat="45.1692662" lon="8.0904026"><ele>152.0</ele><time>2026-03-29T13:46:59.197Z</time></trkpt><trkpt lat="45.1691527" lon="8.0902329"><ele>152.0</ele><time>2026-03-29T13:47:00.194Z</time></trkpt><trkpt lat="45.1690382" lon="8.0900615"><ele>152.0</ele><time>2026-03-29T13:47:01.196Z</time></trkpt><trkpt lat="45.1689236" lon="8.0898897"><ele>152.66666666666666</ele><time>2026-03-29T13:47:02.197Z</time></trkpt><trkpt lat="45.1688046" lon="8.089711"><ele>153.33333333333334</ele><time>2026-03-29T13:47:03.195Z</time></trkpt><trkpt lat="45.168684" lon="8.0895316"><ele>154.0</ele><time>2026-03-29T13:47:04.196Z</time></trkpt><trkpt lat="45.1685587" lon="8.0893478"><ele>154.0</ele><time>2026-03-29T13:47:05.195Z</time></trkpt><trkpt lat="45.1684353" lon="8.0891642"><ele>154.0</ele><time>2026-03-29T13:47:06.206Z</time></trkpt><trkpt lat="45.168311" lon="8.0889746"><ele>154.0</ele><time>2026-03-29T13:47:07.219Z</time></trkpt><trkpt lat="45.1681891" lon="8.0887833"><ele>154.33333333333334</ele><time>2026-03-29T13:47:08.193Z</time></trkpt><trkpt lat="45.1680699" lon="8.0885889"><ele>154.66666666666666</ele><time>2026-03-29T13:47:09.205Z</time></trkpt><trkpt lat="45.1679572" lon="8.0883973"><ele>155.0</ele><time>2026-03-29T13:47:10.194Z</time></trkpt><trkpt lat="45.1678494" lon="8.0882102"><ele>155.0</ele><time>2026-03-29T13:47:11.191Z</time></trkpt><trkpt lat="45.1677477" lon="8.0880235"><ele>155.0</ele><time>2026-03-29T13:47:12.211Z</time></trkpt><trkpt lat="45.1676553" lon="8.0878448"><ele>155.0</ele><time>2026-03-29T13:47:13.2Z</time></trkpt><trkpt lat="45.1675667" lon="8.0876699"><ele>155.0</ele><time>2026-03-29T13:47:14.193Z</time></trkpt><trkpt lat="45.1674801" lon="8.0874901"><ele>155.0</ele><time>2026-03-29T13:47:15.199Z</time></trkpt><trkpt lat="45.1673952" lon="8.0873086"><ele>155.0</ele><time>2026-03-29T13:47:16.21Z</time></trkpt><trkpt lat="45.1673114" lon="8.0871264"><ele>155.5</ele><time>2026-03-29T13:47:17.188Z</time></trkpt><trkpt lat="45.1672306" lon="8.0869454"><ele>156.0</ele><time>2026-03-29T13:47:18.191Z</time></trkpt><trkpt lat="45.1671515" lon="8.0867647"><ele>156.5</ele><time>2026-03-29T13:47:19.199Z</time></trkpt><trkpt lat="45.1670771" lon="8.0865904"><ele>157.0</ele><time>2026-03-29T13:47:20.206Z</time></trkpt><trkpt lat="45.1670142" lon="8.0864384"><ele>157.0</ele><time>2026-03-29T13:47:21.187Z</time></trkpt><trkpt lat="45.1669539" lon="8.0862865"><ele>157.0</ele><time>2026-03-29T13:47:22.194Z</time></trkpt><trkpt lat="45.1669056" lon="8.0861534"><ele>157.0</ele><time>2026-03-29T13:47:23.195Z</time></trkpt><trkpt lat="45.1668607" lon="8.0860282"><ele>157.0</ele><time>2026-03-29T13:47:24.194Z</time></trkpt><trkpt lat="45.1668172" lon="8.0859069"><ele>157.0</ele><time>2026-03-29T13:47:25.21Z</time></trkpt><trkpt lat="45.1667807" lon="8.085809"><ele>157.8</ele><time>2026-03-29T13:47:26.189Z</time></trkpt><trkpt lat="45.1667453" lon="8.0857083"><ele>158.6</ele><time>2026-03-29T13:47:27.221Z</time></trkpt><trkpt lat="45.1667041" lon="8.0855697"><ele>159.4</ele><time>2026-03-29T13:47:28.197Z</time></trkpt><trkpt lat="45.1667307" lon="8.0854731"><ele>160.20000000000002</ele><time>2026-03-29T13:47:30.196Z</time></trkpt><trkpt lat="45.1668187" lon="8.0853721"><ele>161.0</ele><time>2026-03-29T13:47:32.222Z</time></trkpt><trkpt lat="45.1669211" lon="8.0852644"><ele>161.0</ele><time>2026-03-29T13:47:34.203Z</time></trkpt><trkpt lat="45.1669698" lon="8.0851972"><ele>161.0</ele><time>2026-03-29T13:47:35.191Z</time></trkpt><trkpt lat="45.1670727" lon="8.0850793"><ele>161.0</ele><time>2026-03-29T13:47:37.198Z</time></trkpt><trkpt lat="45.1671266" lon="8.0850327"><ele>161.0</ele><time>2026-03-29T13:47:38.19Z</time></trkpt><trkpt lat="45.1671905" lon="8.0849846"><ele>161.0</ele><time>2026-03-29T13:47:39.19Z</time></trkpt><trkpt lat="45.1672976" lon="8.0849761"><ele>161.0</ele><time>2026-03-29T13:47:41.194Z</time></trkpt><trkpt lat="45.1673884" lon="8.0849927"><ele>159.25</ele><time>2026-03-29T13:47:42.207Z</time></trkpt><trkpt lat="45.1674823" lon="8.0850202"><ele>157.5</ele><time>2026-03-29T13:47:43.224Z</time></trkpt><trkpt lat="45.1676058" lon="8.0849207"><ele>155.75</ele><time>2026-03-29T13:47:44.192Z</time></trkpt><trkpt lat="45.1677184" lon="8.0849386"><ele>154.0</ele><time>2026-03-29T13:47:45.188Z</time></trkpt><trkpt lat="45.1678216" lon="8.0849567"><ele>154.0</ele><time>2026-03-29T13:47:46.187Z</time></trkpt><trkpt lat="45.1679133" lon="8.084972"><ele>154.0</ele><time>2026-03-29T13:47:47.185Z</time></trkpt><trkpt lat="45.1679963" lon="8.0849803"><ele>154.0</ele><time>2026-03-29T13:47:48.215Z</time></trkpt><trkpt lat="45.1680787" lon="8.0849904"><ele>154.0</ele><time>2026-03-29T13:47:49.19Z</time></trkpt><trkpt lat="45.1681618" lon="8.0849982"><ele>154.0</ele><time>2026-03-29T13:47:50.187Z</time></trkpt><trkpt lat="45.1682431" lon="8.0850071"><ele>154.0</ele><time>2026-03-29T13:47:51.191Z</time></trkpt><trkpt lat="45.168319" lon="8.0850212"><ele>154.0</ele><time>2026-03-29T13:47:52.182Z</time></trkpt><trkpt lat="45.1683833" lon="8.0850345"><ele>154.0</ele><time>2026-03-29T13:47:53.19Z</time></trkpt><trkpt lat="45.1684792" lon="8.0850536"><ele>154.0</ele><time>2026-03-29T13:47:55.19Z</time></trkpt><trkpt lat="45.1685438" lon="8.0850655"><ele>154.0</ele><time>2026-03-29T13:47:57.196Z</time></trkpt><trkpt lat="45.1686082" lon="8.0850592"><ele>154.0</ele><time>2026-03-29T13:48:00.204Z</time></trkpt><trkpt lat="45.1686622" lon="8.0850034"><ele>154.0</ele><time>2026-03-29T13:48:02.19Z</time></trkpt><trkpt lat="45.1687146" lon="8.0848933"><ele>154.0</ele><time>2026-03-29T13:48:04.186Z</time></trkpt><trkpt lat="45.1687558" lon="8.0847358"><ele>154.0</ele><time>2026-03-29T13:48:06.185Z</time></trkpt><trkpt lat="45.1687736" lon="8.0846494"><ele>154.0</ele><time>2026-03-29T13:48:07.183Z</time></trkpt><trkpt lat="45.1687997" lon="8.0844819"><ele>154.0</ele><time>2026-03-29T13:48:09.19Z</time></trkpt><trkpt lat="45.1688177" lon="8.08433"><ele>154.0</ele><time>2026-03-29T13:48:11.193Z</time></trkpt><trkpt lat="45.168833" lon="8.0841707"><ele>153.4</ele><time>2026-03-29T13:48:13.187Z</time></trkpt><trkpt lat="45.168851" lon="8.0840133"><ele>152.8</ele><time>2026-03-29T13:48:15.189Z</time></trkpt><trkpt lat="45.1688711" lon="8.0838756"><ele>152.2</ele><time>2026-03-29T13:48:17.187Z</time></trkpt><trkpt lat="45.1688926" lon="8.0837051"><ele>151.6</ele><time>2026-03-29T13:48:19.184Z</time></trkpt><trkpt lat="45.1689042" lon="8.0836022"><ele>151.0</ele><time>2026-03-29T13:48:20.188Z</time></trkpt><trkpt lat="45.1689173" lon="8.0834912"><ele>151.0</ele><time>2026-03-29T13:48:21.205Z</time></trkpt><trkpt lat="45.1689288" lon="8.0833735"><ele>151.0</ele><time>2026-03-29T13:48:22.186Z</time></trkpt><trkpt lat="45.1689397" lon="8.0832527"><ele>151.0</ele><time>2026-03-29T13:48:23.186Z</time></trkpt><trkpt lat="45.1689539" lon="8.0831281"><ele>151.0</ele><time>2026-03-29T13:48:24.185Z</time></trkpt><trkpt lat="45.1689678" lon="8.0830061"><ele>151.0</ele><time>2026-03-29T13:48:25.183Z</time></trkpt><trkpt lat="45.1689806" lon="8.0828891"><ele>151.0</ele><time>2026-03-29T13:48:26.223Z</time></trkpt><trkpt lat="45.1689926" lon="8.0827769"><ele>151.16666666666669</ele><time>2026-03-29T13:48:27.189Z</time></trkpt><trkpt lat="45.1690051" lon="8.0826621"><ele>151.33333333333334</ele><time>2026-03-29T13:48:28.187Z</time></trkpt><trkpt lat="45.1690162" lon="8.0825433"><ele>151.5</ele><time>2026-03-29T13:48:29.189Z</time></trkpt><trkpt lat="45.1690288" lon="8.0824205"><ele>151.66666666666666</ele><time>2026-03-29T13:48:30.187Z</time></trkpt><trkpt lat="45.1690432" lon="8.0823034"><ele>151.83333333333331</ele><time>2026-03-29T13:48:31.191Z</time></trkpt><trkpt lat="45.1690574" lon="8.0821918"><ele>152.0</ele><time>2026-03-29T13:48:32.191Z</time></trkpt><trkpt lat="45.1690709" lon="8.0820833"><ele>152.14285714285714</ele><time>2026-03-29T13:48:33.189Z</time></trkpt><trkpt lat="45.1690836" lon="8.0819744"><ele>152.2857142857143</ele><time>2026-03-29T13:48:34.192Z</time></trkpt><trkpt lat="45.1690974" lon="8.0818682"><ele>152.42857142857144</ele><time>2026-03-29T13:48:35.199Z</time></trkpt><trkpt lat="45.1691109" lon="8.0817688"><ele>152.57142857142856</ele><time>2026-03-29T13:48:36.2Z</time></trkpt><trkpt lat="45.1691219" lon="8.0816764"><ele>152.71428571428572</ele><time>2026-03-29T13:48:37.189Z</time></trkpt><trkpt lat="45.1691317" lon="8.0815799"><ele>152.85714285714286</ele><time>2026-03-29T13:48:38.19Z</time></trkpt><trkpt lat="45.1691415" lon="8.0814763"><ele>153.0</ele><time>2026-03-29T13:48:39.188Z</time></trkpt><trkpt lat="45.169152" lon="8.0813675"><ele>153.0</ele><time>2026-03-29T13:48:40.193Z</time></trkpt><trkpt lat="45.1691624" lon="8.0812497"><ele>153.0</ele><time>2026-03-29T13:48:41.186Z</time></trkpt><trkpt lat="45.1691738" lon="8.0811229"><ele>153.0</ele><time>2026-03-29T13:48:42.183Z</time></trkpt><trkpt lat="45.1691864" lon="8.0809928"><ele>153.0</ele><time>2026-03-29T13:48:43.184Z</time></trkpt><trkpt lat="45.169202" lon="8.0808612"><ele>153.0</ele><time>2026-03-29T13:48:44.191Z</time></trkpt><trkpt lat="45.1692176" lon="8.0807326"><ele>154.0</ele><time>2026-03-29T13:48:45.182Z</time></trkpt><trkpt lat="45.1692313" lon="8.0806069"><ele>155.0</ele><time>2026-03-29T13:48:46.198Z</time></trkpt><trkpt lat="45.1692454" lon="8.0804814"><ele>156.0</ele><time>2026-03-29T13:48:47.186Z</time></trkpt><trkpt lat="45.1692588" lon="8.0803552"><ele>157.0</ele><time>2026-03-29T13:48:48.198Z</time></trkpt><trkpt lat="45.1692727" lon="8.0802291"><ele>158.0</ele><time>2026-03-29T13:48:49.19Z</time></trkpt><trkpt lat="45.1692868" lon="8.0801003"><ele>158.0</ele><time>2026-03-29T13:48:50.19Z</time></trkpt><trkpt lat="45.1693012" lon="8.07997"><ele>158.0</ele><time>2026-03-29T13:48:51.193Z</time></trkpt><trkpt lat="45.169316" lon="8.0798424"><ele>158.0</ele><time>2026-03-29T13:48:52.193Z</time></trkpt><trkpt lat="45.1693296" lon="8.0797207"><ele>158.0</ele><time>2026-03-29T13:48:53.19Z</time></trkpt><trkpt lat="45.1693428" lon="8.0796052"><ele>158.0</ele><time>2026-03-29T13:48:54.191Z</time></trkpt><trkpt lat="45.1693548" lon="8.0795003"><ele>158.0</ele><time>2026-03-29T13:48:55.188Z</time></trkpt><trkpt lat="45.1693629" lon="8.0794062"><ele>158.0</ele><time>2026-03-29T13:48:56.189Z</time></trkpt><trkpt lat="45.16937" lon="8.0792403"><ele>158.0</ele><time>2026-03-29T13:48:58.183Z</time></trkpt><trkpt lat="45.1693773" lon="8.0790889"><ele>158.0</ele><time>2026-03-29T13:49:00.188Z</time></trkpt><trkpt lat="45.1693908" lon="8.078951"><ele>158.0</ele><time>2026-03-29T13:49:02.186Z</time></trkpt><trkpt lat="45.1694161" lon="8.0788543"><ele>158.0</ele><time>2026-03-29T13:49:04.192Z</time></trkpt><trkpt lat="45.1694877" lon="8.0788065"><ele>157.20000000000002</ele><time>2026-03-29T13:49:07.187Z</time></trkpt><trkpt lat="45.1695791" lon="8.0788456"><ele>156.4</ele><time>2026-03-29T13:49:09.187Z</time></trkpt><trkpt lat="45.1696564" lon="8.0788948"><ele>155.60000000000002</ele><time>2026-03-29T13:49:10.186Z</time></trkpt><trkpt lat="45.1697607" lon="8.078956"><ele>154.8</ele><time>2026-03-29T13:49:11.187Z</time></trkpt><trkpt lat="45.1698742" lon="8.079022"><ele>154.0</ele><time>2026-03-29T13:49:12.191Z</time></trkpt><trkpt lat="45.1699917" lon="8.0790872"><ele>153.5</ele><time>2026-03-29T13:49:13.186Z</time></trkpt><trkpt lat="45.1701082" lon="8.0791532"><ele>153.0</ele><time>2026-03-29T13:49:14.191Z</time></trkpt><trkpt lat="45.170223" lon="8.0792187"><ele>152.5</ele><time>2026-03-29T13:49:15.195Z</time></trkpt><trkpt lat="45.1703306" lon="8.0792725"><ele>152.0</ele><time>2026-03-29T13:49:16.19Z</time></trkpt><trkpt lat="45.1704266" lon="8.0793205"><ele>152.0</ele><time>2026-03-29T13:49:17.19Z</time></trkpt><trkpt lat="45.1705152" lon="8.0793633"><ele>152.0</ele><time>2026-03-29T13:49:18.189Z</time></trkpt><trkpt lat="45.1705929" lon="8.0794034"><ele>152.0</ele><time>2026-03-29T13:49:19.187Z</time></trkpt><trkpt lat="45.1706672" lon="8.0794384"><ele>152.0</ele><time>2026-03-29T13:49:20.219Z</time></trkpt><trkpt lat="45.170735" lon="8.0794728"><ele>152.0</ele><time>2026-03-29T13:49:21.186Z</time></trkpt><trkpt lat="45.170802" lon="8.0795075"><ele>152.0</ele><time>2026-03-29T13:49:22.22Z</time></trkpt><trkpt lat="45.1708639" lon="8.0795424"><ele>152.33333333333331</ele><time>2026-03-29T13:49:23.19Z</time></trkpt><trkpt lat="45.1709667" lon="8.0796071"><ele>152.66666666666666</ele><time>2026-03-29T13:49:25.189Z</time></trkpt><trkpt lat="45.1710309" lon="8.0796209"><ele>153.0</ele><time>2026-03-29T13:49:29.191Z</time></trkpt><trkpt lat="45.1711084" lon="8.0796254"><ele>153.33333333333334</ele><time>2026-03-29T13:49:32.219Z</time></trkpt><trkpt lat="45.1711822" lon="8.0796174"><ele>153.66666666666669</ele><time>2026-03-29T13:49:34.185Z</time></trkpt><trkpt lat="45.1712538" lon="8.0795746"><ele>154.0</ele><time>2026-03-29T13:49:36.491Z</time></trkpt><trkpt lat="45.1713161" lon="8.0794726"><ele>154.0</ele><time>2026-03-29T13:49:38.19Z</time></trkpt><trkpt lat="45.1713716" lon="8.079352"><ele>154.0</ele><time>2026-03-29T13:49:40.185Z</time></trkpt><trkpt lat="45.1714347" lon="8.0792444"><ele>154.0</ele><time>2026-03-29T13:49:42.188Z</time></trkpt><trkpt lat="45.17151" lon="8.0791625"><ele>154.0</ele><time>2026-03-29T13:49:44.203Z</time></trkpt><trkpt lat="45.1716039" lon="8.079099"><ele>154.0</ele><time>2026-03-29T13:49:46.187Z</time></trkpt><trkpt lat="45.1716802" lon="8.0789915"><ele>154.4</ele><time>2026-03-29T13:49:48.191Z</time></trkpt><trkpt lat="45.1717389" lon="8.0788105"><ele>154.8</ele><time>2026-03-29T13:49:50.21Z</time></trkpt><trkpt lat="45.1717709" lon="8.0787002"><ele>155.2</ele><time>2026-03-29T13:49:51.185Z</time></trkpt><trkpt lat="45.171808" lon="8.0785994"><ele>155.6</ele><time>2026-03-29T13:49:52.227Z</time></trkpt><trkpt lat="45.1718603" lon="8.0785158"><ele>156.0</ele><time>2026-03-29T13:49:53.189Z</time></trkpt><trkpt lat="45.1719173" lon="8.0784552"><ele>156.0</ele><time>2026-03-29T13:49:54.188Z</time></trkpt><trkpt lat="45.1719891" lon="8.0784068"><ele>156.0</ele><time>2026-03-29T13:49:55.193Z</time></trkpt><trkpt lat="45.1720586" lon="8.0783684"><ele>156.0</ele><time>2026-03-29T13:49:56.188Z</time></trkpt><trkpt lat="45.172116" lon="8.0783294"><ele>156.0</ele><time>2026-03-29T13:49:57.184Z</time></trkpt><trkpt lat="45.1721729" lon="8.0782702"><ele>156.0</ele><time>2026-03-29T13:49:59.186Z</time></trkpt><trkpt lat="45.1722178" lon="8.0781781"><ele>156.0</ele><time>2026-03-29T13:50:02.196Z</time></trkpt><trkpt lat="45.172268" lon="8.0780612"><ele>155.8</ele><time>2026-03-29T13:50:04.185Z</time></trkpt><trkpt lat="45.1723276" lon="8.0778901"><ele>155.6</ele><time>2026-03-29T13:50:06.187Z</time></trkpt><trkpt lat="45.1723553" lon="8.0777852"><ele>155.4</ele><time>2026-03-29T13:50:07.187Z</time></trkpt><trkpt lat="45.1723761" lon="8.0776823"><ele>155.2</ele><time>2026-03-29T13:50:08.189Z</time></trkpt><trkpt lat="45.1723992" lon="8.077567"><ele>155.0</ele><time>2026-03-29T13:50:09.187Z</time></trkpt><trkpt lat="45.1724268" lon="8.0774335"><ele>154.25</ele><time>2026-03-29T13:50:10.194Z</time></trkpt><trkpt lat="45.172456" lon="8.0772879"><ele>153.5</ele><time>2026-03-29T13:50:11.194Z</time></trkpt><trkpt lat="45.1724867" lon="8.0771348"><ele>152.75</ele><time>2026-03-29T13:50:12.191Z</time></trkpt><trkpt lat="45.1725196" lon="8.0769675"><ele>152.0</ele><time>2026-03-29T13:50:13.187Z</time></trkpt><trkpt lat="45.1725556" lon="8.0767923"><ele>152.0</ele><time>2026-03-29T13:50:14.192Z</time></trkpt><trkpt lat="45.1725877" lon="8.0766107"><ele>152.0</ele><time>2026-03-29T13:50:15.193Z</time></trkpt><trkpt lat="45.1726168" lon="8.076427"><ele>152.0</ele><time>2026-03-29T13:50:16.196Z</time></trkpt><trkpt lat="45.1726488" lon="8.0762464"><ele>152.0</ele><time>2026-03-29T13:50:17.223Z</time></trkpt><trkpt lat="45.1726826" lon="8.0760701"><ele>152.25</ele><time>2026-03-29T13:50:18.195Z</time></trkpt><trkpt lat="45.1727203" lon="8.0758999"><ele>152.5</ele><time>2026-03-29T13:50:19.185Z</time></trkpt><trkpt lat="45.1727635" lon="8.0757395"><ele>152.75</ele><time>2026-03-29T13:50:20.191Z</time></trkpt><trkpt lat="45.1728118" lon="8.0755912"><ele>153.0</ele><time>2026-03-29T13:50:21.192Z</time></trkpt><trkpt lat="45.1728612" lon="8.0754558"><ele>153.0</ele><time>2026-03-29T13:50:22.19Z</time></trkpt><trkpt lat="45.1729043" lon="8.0753341"><ele>153.0</ele><time>2026-03-29T13:50:23.188Z</time></trkpt><trkpt lat="45.1729366" lon="8.0752146"><ele>153.0</ele><time>2026-03-29T13:50:24.185Z</time></trkpt><trkpt lat="45.1729582" lon="8.0750932"><ele>153.0</ele><time>2026-03-29T13:50:25.181Z</time></trkpt><trkpt lat="45.172968" lon="8.0749666"><ele>153.0</ele><time>2026-03-29T13:50:26.189Z</time></trkpt><trkpt lat="45.1729735" lon="8.0748404"><ele>153.16666666666666</ele><time>2026-03-29T13:50:27.187Z</time></trkpt><trkpt lat="45.1729858" lon="8.0747232"><ele>153.33333333333334</ele><time>2026-03-29T13:50:28.185Z</time></trkpt><trkpt lat="45.1730086" lon="8.0746196"><ele>153.5</ele><time>2026-03-29T13:50:29.193Z</time></trkpt><trkpt lat="45.1730405" lon="8.0745328"><ele>153.66666666666669</ele><time>2026-03-29T13:50:30.188Z</time></trkpt><trkpt lat="45.1731385" lon="8.074423"><ele>153.83333333333334</ele><time>2026-03-29T13:50:32.187Z</time></trkpt><trkpt lat="45.1732056" lon="8.0743821"><ele>154.0</ele><time>2026-03-29T13:50:33.188Z</time></trkpt><trkpt lat="45.1732829" lon="8.0743418"><ele>154.0</ele><time>2026-03-29T13:50:34.193Z</time></trkpt><trkpt lat="45.1733628" lon="8.0743049"><ele>154.0</ele><time>2026-03-29T13:50:35.185Z</time></trkpt><trkpt lat="45.173439" lon="8.07427"><ele>154.0</ele><time>2026-03-29T13:50:36.189Z</time></trkpt><trkpt lat="45.1735088" lon="8.0742361"><ele>154.0</ele><time>2026-03-29T13:50:37.185Z</time></trkpt><trkpt lat="45.1735736" lon="8.0742043"><ele>154.0</ele><time>2026-03-29T13:50:38.186Z</time></trkpt><trkpt lat="45.1736365" lon="8.0741693"><ele>154.0</ele><time>2026-03-29T13:50:39.197Z</time></trkpt><trkpt lat="45.1736992" lon="8.0741321"><ele>154.0</ele><time>2026-03-29T13:50:40.184Z</time></trkpt><trkpt lat="45.1737649" lon="8.0740927"><ele>154.33333333333334</ele><time>2026-03-29T13:50:41.184Z</time></trkpt><trkpt lat="45.1738355" lon="8.0740533"><ele>154.66666666666669</ele><time>2026-03-29T13:50:42.184Z</time></trkpt><trkpt lat="45.1739106" lon="8.074014"><ele>155.0</ele><time>2026-03-29T13:50:43.193Z</time></trkpt><trkpt lat="45.1739861" lon="8.0739858"><ele>155.33333333333334</ele><time>2026-03-29T13:50:44.187Z</time></trkpt><trkpt lat="45.1740573" lon="8.0739732"><ele>155.66666666666666</ele><time>2026-03-29T13:50:45.181Z</time></trkpt><trkpt lat="45.1741208" lon="8.0739783"><ele>156.0</ele><time>2026-03-29T13:50:46.21Z</time></trkpt><trkpt lat="45.1742147" lon="8.0740336"><ele>155.66666666666666</ele><time>2026-03-29T13:50:48.198Z</time></trkpt><trkpt lat="45.174292" lon="8.0741158"><ele>155.33333333333334</ele><time>2026-03-29T13:50:50.188Z</time></trkpt><trkpt lat="45.1743351" lon="8.0742095"><ele>155.0</ele><time>2026-03-29T13:50:52.196Z</time></trkpt><trkpt lat="45.1743477" lon="8.074317"><ele>154.66666666666669</ele><time>2026-03-29T13:50:54.19Z</time></trkpt><trkpt lat="45.1743406" lon="8.0744124"><ele>154.33333333333334</ele><time>2026-03-29T13:50:55.204Z</time></trkpt><trkpt lat="45.1743313" lon="8.0745155"><ele>154.0</ele><time>2026-03-29T13:50:56.191Z</time></trkpt><trkpt lat="45.1743147" lon="8.0746308"><ele>154.0</ele><time>2026-03-29T13:50:57.188Z</time></trkpt><trkpt lat="45.1742956" lon="8.0747493"><ele>154.0</ele><time>2026-03-29T13:50:58.186Z</time></trkpt><trkpt lat="45.1742821" lon="8.0748673"><ele>154.0</ele><time>2026-03-29T13:50:59.184Z</time></trkpt><trkpt lat="45.174271" lon="8.0749669"><ele>154.0</ele><time>2026-03-29T13:51:00.189Z</time></trkpt><trkpt lat="45.174264" lon="8.0750559"><ele>154.0</ele><time>2026-03-29T13:51:01.193Z</time></trkpt><trkpt lat="45.17423" lon="8.0752274"><ele>154.0</ele><time>2026-03-29T13:51:03.189Z</time></trkpt><trkpt lat="45.1742028" lon="8.0753176"><ele>153.71428571428572</ele><time>2026-03-29T13:51:04.197Z</time></trkpt><trkpt lat="45.174176" lon="8.0754184"><ele>153.42857142857144</ele><time>2026-03-29T13:51:05.188Z</time></trkpt><trkpt lat="45.174153" lon="8.0755212"><ele>153.14285714285714</ele><time>2026-03-29T13:51:06.188Z</time></trkpt><trkpt lat="45.1741324" lon="8.0756253"><ele>152.85714285714286</ele><time>2026-03-29T13:51:07.186Z</time></trkpt><trkpt lat="45.1741137" lon="8.0757292"><ele>152.57142857142858</ele><time>2026-03-29T13:51:08.194Z</time></trkpt><trkpt lat="45.1740991" lon="8.0758254"><ele>152.28571428571428</ele><time>2026-03-29T13:51:09.187Z</time></trkpt><trkpt lat="45.1740861" lon="8.0759188"><ele>152.0</ele><time>2026-03-29T13:51:10.187Z</time></trkpt><trkpt lat="45.1740726" lon="8.0760113"><ele>152.0</ele><time>2026-03-29T13:51:11.195Z</time></trkpt><trkpt lat="45.1740571" lon="8.076106"><ele>152.0</ele><time>2026-03-29T13:51:12.189Z</time></trkpt><trkpt lat="45.1740353" lon="8.0762031"><ele>152.0</ele><time>2026-03-29T13:51:13.186Z</time></trkpt><trkpt lat="45.1740113" lon="8.0763039"><ele>152.0</ele><time>2026-03-29T13:51:14.186Z</time></trkpt><trkpt lat="45.1739888" lon="8.0764099"><ele>152.0</ele><time>2026-03-29T13:51:15.185Z</time></trkpt><trkpt lat="45.1739645" lon="8.0765174"><ele>152.0</ele><time>2026-03-29T13:51:16.194Z</time></trkpt><trkpt lat="45.1739379" lon="8.076621"><ele>151.85714285714286</ele><time>2026-03-29T13:51:17.189Z</time></trkpt><trkpt lat="45.1739095" lon="8.0767221"><ele>151.71428571428572</ele><time>2026-03-29T13:51:18.182Z</time></trkpt><trkpt lat="45.1738807" lon="8.0768252"><ele>151.57142857142858</ele><time>2026-03-29T13:51:19.184Z</time></trkpt><trkpt lat="45.173853" lon="8.0769291"><ele>151.42857142857144</ele><time>2026-03-29T13:51:20.185Z</time></trkpt><trkpt lat="45.1738293" lon="8.0770276"><ele>151.28571428571428</ele><time>2026-03-29T13:51:21.187Z</time></trkpt><trkpt lat="45.1738064" lon="8.0771207"><ele>151.14285714285717</ele><time>2026-03-29T13:51:22.186Z</time></trkpt><trkpt lat="45.1737865" lon="8.0772095"><ele>151.0</ele><time>2026-03-29T13:51:23.19Z</time></trkpt><trkpt lat="45.1737705" lon="8.0772974"><ele>151.16666666666669</ele><time>2026-03-29T13:51:24.222Z</time></trkpt><trkpt lat="45.1737502" lon="8.0774578"><ele>151.33333333333334</ele><time>2026-03-29T13:51:26.184Z</time></trkpt><trkpt lat="45.1737438" lon="8.0776168"><ele>151.5</ele><time>2026-03-29T13:51:28.184Z</time></trkpt><trkpt lat="45.1737491" lon="8.0777063"><ele>151.66666666666666</ele><time>2026-03-29T13:51:29.185Z</time></trkpt><trkpt lat="45.1737646" lon="8.0778024"><ele>151.83333333333331</ele><time>2026-03-29T13:51:30.187Z</time></trkpt><trkpt lat="45.1737931" lon="8.0779033"><ele>152.0</ele><time>2026-03-29T13:51:31.181Z</time></trkpt><trkpt lat="45.1738269" lon="8.0780184"><ele>152.0</ele><time>2026-03-29T13:51:32.186Z</time></trkpt><trkpt lat="45.173865" lon="8.0781328"><ele>152.0</ele><time>2026-03-29T13:51:33.188Z</time></trkpt><trkpt lat="45.1739" lon="8.0782423"><ele>152.0</ele><time>2026-03-29T13:51:34.186Z</time></trkpt><trkpt lat="45.1739351" lon="8.0783473"><ele>152.0</ele><time>2026-03-29T13:51:35.188Z</time></trkpt><trkpt lat="45.1739605" lon="8.0784357"><ele>152.0</ele><time>2026-03-29T13:51:36.185Z</time></trkpt><trkpt lat="45.1740043" lon="8.0785802"><ele>152.0</ele><time>2026-03-29T13:51:38.186Z</time></trkpt><trkpt lat="45.1740451" lon="8.0786926"><ele>152.16666666666666</ele><time>2026-03-29T13:51:40.196Z</time></trkpt><trkpt lat="45.1740839" lon="8.0787661"><ele>152.33333333333331</ele><time>2026-03-29T13:51:42.184Z</time></trkpt><trkpt lat="45.1741567" lon="8.0788244"><ele>152.5</ele><time>2026-03-29T13:53:23.197Z</time></trkpt><trkpt lat="45.1742543" lon="8.0788879"><ele>152.66666666666666</ele><time>2026-03-29T13:53:25.188Z</time></trkpt><trkpt lat="45.1743207" lon="8.0789265"><ele>152.83333333333334</ele><time>2026-03-29T13:53:26.192Z</time></trkpt><trkpt lat="45.1743959" lon="8.0789611"><ele>153.0</ele><time>2026-03-29T13:53:27.19Z</time></trkpt><trkpt lat="45.1744791" lon="8.0789961"><ele>153.0</ele><time>2026-03-29T13:53:28.186Z</time></trkpt><trkpt lat="45.1745648" lon="8.0790382"><ele>153.0</ele><time>2026-03-29T13:53:29.187Z</time></trkpt><trkpt lat="45.1746501" lon="8.0790889"><ele>153.0</ele><time>2026-03-29T13:53:30.216Z</time></trkpt><trkpt lat="45.1747353" lon="8.0791428"><ele>153.0</ele><time>2026-03-29T13:53:31.192Z</time></trkpt><trkpt lat="45.1748166" lon="8.0791954"><ele>153.0</ele><time>2026-03-29T13:53:32.183Z</time></trkpt><trkpt lat="45.1749012" lon="8.0792566"><ele>152.8</ele><time>2026-03-29T13:53:33.18Z</time></trkpt><trkpt lat="45.1749912" lon="8.0793188"><ele>152.60000000000002</ele><time>2026-03-29T13:53:34.219Z</time></trkpt><trkpt lat="45.1750865" lon="8.0793869"><ele>152.39999999999998</ele><time>2026-03-29T13:53:35.217Z</time></trkpt><trkpt lat="45.1751879" lon="8.0794555"><ele>152.2</ele><time>2026-03-29T13:53:36.19Z</time></trkpt><trkpt lat="45.1752909" lon="8.0795203"><ele>152.0</ele><time>2026-03-29T13:53:37.194Z</time></trkpt><trkpt lat="45.1753899" lon="8.0795812"><ele>152.0</ele><time>2026-03-29T13:53:38.195Z</time></trkpt><trkpt lat="45.1754853" lon="8.0796435"><ele>152.0</ele><time>2026-03-29T13:53:39.211Z</time></trkpt><trkpt lat="45.1755752" lon="8.0797051"><ele>152.0</ele><time>2026-03-29T13:53:40.193Z</time></trkpt><trkpt lat="45.1756606" lon="8.0797651"><ele>152.0</ele><time>2026-03-29T13:53:41.186Z</time></trkpt><trkpt lat="45.1757426" lon="8.0798313"><ele>152.0</ele><time>2026-03-29T13:53:42.183Z</time></trkpt><trkpt lat="45.1758223" lon="8.0798923"><ele>151.83333333333331</ele><time>2026-03-29T13:53:43.199Z</time></trkpt><trkpt lat="45.1759039" lon="8.0799494"><ele>151.66666666666666</ele><time>2026-03-29T13:53:44.196Z</time></trkpt><trkpt lat="45.1759877" lon="8.0800046"><ele>151.5</ele><time>2026-03-29T13:53:45.181Z</time></trkpt><trkpt lat="45.1760683" lon="8.0800589"><ele>151.33333333333334</ele><time>2026-03-29T13:53:46.19Z</time></trkpt><trkpt lat="45.176143" lon="8.0801099"><ele>151.16666666666669</ele><time>2026-03-29T13:53:47.184Z</time></trkpt><trkpt lat="45.1762121" lon="8.0801581"><ele>151.0</ele><time>2026-03-29T13:53:48.189Z</time></trkpt><trkpt lat="45.1762785" lon="8.0802045"><ele>151.0</ele><time>2026-03-29T13:53:49.187Z</time></trkpt><trkpt lat="45.1763411" lon="8.0802482"><ele>151.0</ele><time>2026-03-29T13:53:50.188Z</time></trkpt><trkpt lat="45.176398" lon="8.0802882"><ele>151.0</ele><time>2026-03-29T13:53:51.188Z</time></trkpt><trkpt lat="45.1764993" lon="8.0803462"><ele>151.0</ele><time>2026-03-29T13:53:53.186Z</time></trkpt><trkpt lat="45.1766032" lon="8.0804031"><ele>151.0</ele><time>2026-03-29T13:53:55.19Z</time></trkpt><trkpt lat="45.1767099" lon="8.0804791"><ele>151.2</ele><time>2026-03-29T13:53:57.216Z</time></trkpt><trkpt lat="45.1768035" lon="8.0805636"><ele>151.39999999999998</ele><time>2026-03-29T13:53:59.185Z</time></trkpt><trkpt lat="45.1768912" lon="8.0806705"><ele>151.6</ele><time>2026-03-29T13:54:01.193Z</time></trkpt><trkpt lat="45.176979" lon="8.0807744"><ele>151.79999999999998</ele><time>2026-03-29T13:54:03.19Z</time></trkpt><trkpt lat="45.1770461" lon="8.0808191"><ele>152.0</ele><time>2026-03-29T13:54:04.191Z</time></trkpt><trkpt lat="45.1771269" lon="8.0808664"><ele>152.33333333333331</ele><time>2026-03-29T13:54:05.184Z</time></trkpt><trkpt lat="45.177218" lon="8.0809133"><ele>152.66666666666666</ele><time>2026-03-29T13:54:06.196Z</time></trkpt><trkpt lat="45.177302" lon="8.0809585"><ele>153.0</ele><time>2026-03-29T13:54:07.198Z</time></trkpt><trkpt lat="45.1773865" lon="8.0810018"><ele>153.33333333333334</ele><time>2026-03-29T13:54:08.192Z</time></trkpt><trkpt lat="45.1774731" lon="8.0810466"><ele>153.66666666666669</ele><time>2026-03-29T13:54:09.189Z</time></trkpt><trkpt lat="45.1775374" lon="8.0810938"><ele>154.0</ele><time>2026-03-29T13:54:10.197Z</time></trkpt><trkpt lat="45.177599" lon="8.0811426"><ele>154.0</ele><time>2026-03-29T13:54:11.188Z</time></trkpt><trkpt lat="45.1776589" lon="8.0811831"><ele>154.0</ele><time>2026-03-29T13:54:12.186Z</time></trkpt><trkpt lat="45.1777152" lon="8.0812233"><ele>154.0</ele><time>2026-03-29T13:54:13.187Z</time></trkpt><trkpt lat="45.1778101" lon="8.0813267"><ele>154.0</ele><time>2026-03-29T13:54:15.19Z</time></trkpt><trkpt lat="45.177884" lon="8.0814671"><ele>154.0</ele><time>2026-03-29T13:54:17.184Z</time></trkpt><trkpt lat="45.1779166" lon="8.0816288"><ele>154.0</ele><time>2026-03-29T13:54:19.19Z</time></trkpt><trkpt lat="45.1778912" lon="8.0818063"><ele>154.0</ele><time>2026-03-29T13:54:21.189Z</time></trkpt><trkpt lat="45.1778628" lon="8.0819073"><ele>154.0</ele><time>2026-03-29T13:54:22.181Z</time></trkpt><trkpt lat="45.1778291" lon="8.0820325"><ele>154.0</ele><time>2026-03-29T13:54:23.191Z</time></trkpt><trkpt lat="45.1777979" lon="8.0821694"><ele>154.0</ele><time>2026-03-29T13:54:24.186Z</time></trkpt><trkpt lat="45.1777699" lon="8.0823046"><ele>153.6</ele><time>2026-03-29T13:54:25.195Z</time></trkpt><trkpt lat="45.1777442" lon="8.0824372"><ele>153.2</ele><time>2026-03-29T13:54:26.19Z</time></trkpt><trkpt lat="45.1777176" lon="8.0825752"><ele>152.79999999999998</ele><time>2026-03-29T13:54:27.194Z</time></trkpt><trkpt lat="45.1776916" lon="8.0827187"><ele>152.4</ele><time>2026-03-29T13:54:28.197Z</time></trkpt><trkpt lat="45.1776661" lon="8.0828668"><ele>152.0</ele><time>2026-03-29T13:54:29.19Z</time></trkpt><trkpt lat="45.1776409" lon="8.0830131"><ele>152.0</ele><time>2026-03-29T13:54:30.184Z</time></trkpt><trkpt lat="45.177617" lon="8.0831521"><ele>152.0</ele><time>2026-03-29T13:54:31.187Z</time></trkpt><trkpt lat="45.1775949" lon="8.083286"><ele>152.0</ele><time>2026-03-29T13:54:32.18Z</time></trkpt><trkpt lat="45.1775743" lon="8.0834125"><ele>152.0</ele><time>2026-03-29T13:54:33.184Z</time></trkpt><trkpt lat="45.1775542" lon="8.0835304"><ele>152.0</ele><time>2026-03-29T13:54:34.188Z</time></trkpt><trkpt lat="45.1775338" lon="8.0836472"><ele>152.14285714285714</ele><time>2026-03-29T13:54:35.19Z</time></trkpt><trkpt lat="45.1775136" lon="8.0837582"><ele>152.2857142857143</ele><time>2026-03-29T13:54:36.194Z</time></trkpt><trkpt lat="45.1774956" lon="8.0838621"><ele>152.42857142857144</ele><time>2026-03-29T13:54:37.199Z</time></trkpt><trkpt lat="45.1774806" lon="8.0839615"><ele>152.57142857142856</ele><time>2026-03-29T13:54:38.188Z</time></trkpt><trkpt lat="45.1774661" lon="8.0840604"><ele>152.71428571428572</ele><time>2026-03-29T13:54:39.189Z</time></trkpt><trkpt lat="45.1774498" lon="8.0841591"><ele>152.85714285714286</ele><time>2026-03-29T13:54:40.198Z</time></trkpt><trkpt lat="45.1774326" lon="8.0842589"><ele>153.0</ele><time>2026-03-29T13:54:41.189Z</time></trkpt><trkpt lat="45.1774162" lon="8.0843571"><ele>153.0</ele><time>2026-03-29T13:54:42.192Z</time></trkpt><trkpt lat="45.1774003" lon="8.084446"><ele>153.0</ele><time>2026-03-29T13:54:43.186Z</time></trkpt><trkpt lat="45.1773713" lon="8.0845823"><ele>153.0</ele><time>2026-03-29T13:54:45.189Z</time></trkpt><trkpt lat="45.1773511" lon="8.0846776"><ele>153.0</ele><time>2026-03-29T13:54:47.181Z</time></trkpt><trkpt lat="45.1773947" lon="8.0847482"><ele>153.0</ele><time>2026-03-29T13:54:51.185Z</time></trkpt><trkpt lat="45.177465" lon="8.0846904"><ele>153.0</ele><time>2026-03-29T13:54:53.189Z</time></trkpt><trkpt lat="45.1775596" lon="8.0845784"><ele>153.0</ele><time>2026-03-29T13:54:55.185Z</time></trkpt><trkpt lat="45.1776123" lon="8.0845194"><ele>153.0</ele><time>2026-03-29T13:54:56.197Z</time></trkpt><trkpt lat="45.1776634" lon="8.0844644"><ele>153.0</ele><time>2026-03-29T13:54:57.185Z</time></trkpt><trkpt lat="45.1777464" lon="8.0843862"><ele>153.0</ele><time>2026-03-29T13:54:59.181Z</time></trkpt><trkpt lat="45.1778206" lon="8.0843974"><ele>153.0</ele><time>2026-03-29T13:55:02.205Z</time></trkpt><trkpt lat="45.1778656" lon="8.0844753"><ele>153.0</ele><time>2026-03-29T13:55:04.184Z</time></trkpt><trkpt lat="45.1779208" lon="8.0845655"><ele>153.0</ele><time>2026-03-29T13:55:06.188Z</time></trkpt><trkpt lat="45.1779978" lon="8.0846648"><ele>153.0</ele><time>2026-03-29T13:55:08.199Z</time></trkpt><trkpt lat="45.1780804" lon="8.0847609"><ele>153.0</ele><time>2026-03-29T13:55:10.194Z</time></trkpt><trkpt lat="45.1781422" lon="8.0848315"><ele>153.0</ele><time>2026-03-29T13:55:12.218Z</time></trkpt><trkpt lat="45.1782063" lon="8.0849"><ele>153.0</ele><time>2026-03-29T13:55:15.188Z</time></trkpt><trkpt lat="45.1782907" lon="8.0849628"><ele>152.71428571428572</ele><time>2026-03-29T13:55:19.188Z</time></trkpt><trkpt lat="45.178349" lon="8.0850148"><ele>152.42857142857144</ele><time>2026-03-29T13:55:21.19Z</time></trkpt><trkpt lat="45.1784275" lon="8.085032"><ele>152.14285714285717</ele><time>2026-03-29T13:55:24.194Z</time></trkpt><trkpt lat="45.1784923" lon="8.0849883"><ele>151.85714285714286</ele><time>2026-03-29T13:55:27.192Z</time></trkpt><trkpt lat="45.1785122" lon="8.0849021"><ele>151.57142857142858</ele><time>2026-03-29T13:55:33.186Z</time></trkpt><trkpt lat="45.1785278" lon="8.0848013"><ele>151.2857142857143</ele><time>2026-03-29T13:55:35.195Z</time></trkpt><trkpt lat="45.1785419" lon="8.0846886"><ele>151.0</ele><time>2026-03-29T13:55:37.195Z</time></trkpt><trkpt lat="45.1785554" lon="8.0845654"><ele>151.0</ele><time>2026-03-29T13:55:39.184Z</time></trkpt><trkpt lat="45.1785659" lon="8.0844431"><ele>151.0</ele><time>2026-03-29T13:55:41.192Z</time></trkpt><trkpt lat="45.1785581" lon="8.0843416"><ele>151.0</ele><time>2026-03-29T13:55:44.187Z</time></trkpt><trkpt lat="45.1785391" lon="8.084222"><ele>151.0</ele><time>2026-03-29T13:55:48.197Z</time></trkpt><trkpt lat="45.1785413" lon="8.0841172"><ele>151.0</ele><time>2026-03-29T13:55:51.198Z</time></trkpt><trkpt lat="45.1785529" lon="8.0840246"><ele>151.0</ele><time>2026-03-29T13:55:54.193Z</time></trkpt><trkpt lat="45.1785628" lon="8.0839317"><ele>151.0</ele><time>2026-03-29T13:55:56.19Z</time></trkpt><trkpt lat="45.1785476" lon="8.084039"><ele>151.0</ele><time>2026-03-29T13:56:12.185Z</time></trkpt><trkpt lat="45.1785537" lon="8.0841638"><ele>151.0</ele><time>2026-03-29T13:56:14.187Z</time></trkpt><trkpt lat="45.1785473" lon="8.0842993"><ele>151.0</ele><time>2026-03-29T13:56:16.191Z</time></trkpt><trkpt lat="45.1785423" lon="8.0843944"><ele>151.0</ele><time>2026-03-29T13:56:18.194Z</time></trkpt><trkpt lat="45.1785429" lon="8.0844875"><ele>151.0</ele><time>2026-03-29T13:56:20.184Z</time></trkpt><trkpt lat="45.178537" lon="8.0846187"><ele>151.0</ele><time>2026-03-29T13:56:22.186Z</time></trkpt><trkpt lat="45.178522" lon="8.0847547"><ele>151.0</ele><time>2026-03-29T13:56:24.185Z</time></trkpt><trkpt lat="45.1785084" lon="8.0848686"><ele>151.0</ele><time>2026-03-29T13:56:26.198Z</time></trkpt><trkpt lat="45.1784698" lon="8.0849627"><ele>151.0</ele><time>2026-03-29T13:56:29.195Z</time></trkpt><trkpt lat="45.1784022" lon="8.0850029"><ele>151.0</ele><time>2026-03-29T13:56:32.187Z</time></trkpt><trkpt lat="45.1783048" lon="8.0849651"><ele>151.0</ele><time>2026-03-29T13:56:35.184Z</time></trkpt><trkpt lat="45.1782157" lon="8.0848701"><ele>151.33333333333334</ele><time>2026-03-29T13:56:37.187Z</time></trkpt><trkpt lat="45.1781648" lon="8.0848074"><ele>151.66666666666669</ele><time>2026-03-29T13:56:38.218Z</time></trkpt><trkpt lat="45.1781153" lon="8.0847503"><ele>152.0</ele><time>2026-03-29T13:56:39.185Z</time></trkpt><trkpt lat="45.1780365" lon="8.0846571"><ele>152.33333333333334</ele><time>2026-03-29T13:56:41.186Z</time></trkpt><trkpt lat="45.1779589" lon="8.0845818"><ele>152.66666666666666</ele><time>2026-03-29T13:56:43.192Z</time></trkpt><trkpt lat="45.1778871" lon="8.0845091"><ele>153.0</ele><time>2026-03-29T13:56:45.188Z</time></trkpt><trkpt lat="45.1778335" lon="8.0844503"><ele>153.0</ele><time>2026-03-29T13:56:47.19Z</time></trkpt><trkpt lat="45.1777672" lon="8.0844004"><ele>153.0</ele><time>2026-03-29T13:56:50.191Z</time></trkpt><trkpt lat="45.1777054" lon="8.0844345"><ele>153.0</ele><time>2026-03-29T13:56:52.193Z</time></trkpt><trkpt lat="45.1776319" lon="8.084535"><ele>153.0</ele><time>2026-03-29T13:56:54.184Z</time></trkpt><trkpt lat="45.1775507" lon="8.0846308"><ele>153.0</ele><time>2026-03-29T13:56:56.184Z</time></trkpt><trkpt lat="45.1774894" lon="8.0846952"><ele>153.0</ele><time>2026-03-29T13:56:58.188Z</time></trkpt><trkpt lat="45.1774165" lon="8.0847061"><ele>153.0</ele><time>2026-03-29T13:57:01.217Z</time></trkpt><trkpt lat="45.1773702" lon="8.0846097"><ele>153.0</ele><time>2026-03-29T13:57:04.193Z</time></trkpt><trkpt lat="45.1773884" lon="8.0844528"><ele>153.0</ele><time>2026-03-29T13:57:06.189Z</time></trkpt><trkpt lat="45.1774156" lon="8.084324"><ele>153.0</ele><time>2026-03-29T13:57:07.185Z</time></trkpt><trkpt lat="45.177449" lon="8.084171"><ele>153.0</ele><time>2026-03-29T13:57:08.192Z</time></trkpt><trkpt lat="45.1774789" lon="8.084001"><ele>153.25</ele><time>2026-03-29T13:57:09.19Z</time></trkpt><trkpt lat="45.1775065" lon="8.0838278"><ele>153.5</ele><time>2026-03-29T13:57:10.182Z</time></trkpt><trkpt lat="45.1775317" lon="8.083663"><ele>153.75</ele><time>2026-03-29T13:57:11.198Z</time></trkpt><trkpt lat="45.1775566" lon="8.083506"><ele>154.0</ele><time>2026-03-29T13:57:12.189Z</time></trkpt><trkpt lat="45.17758" lon="8.0833559"><ele>153.6</ele><time>2026-03-29T13:57:13.193Z</time></trkpt><trkpt lat="45.1776024" lon="8.0832089"><ele>153.2</ele><time>2026-03-29T13:57:14.182Z</time></trkpt><trkpt lat="45.177626" lon="8.0830599"><ele>152.79999999999998</ele><time>2026-03-29T13:57:15.183Z</time></trkpt><trkpt lat="45.1776491" lon="8.082907"><ele>152.4</ele><time>2026-03-29T13:57:16.182Z</time></trkpt><trkpt lat="45.1776731" lon="8.0827499"><ele>152.0</ele><time>2026-03-29T13:57:17.188Z</time></trkpt><trkpt lat="45.1777018" lon="8.0825883"><ele>152.4</ele><time>2026-03-29T13:57:18.195Z</time></trkpt><trkpt lat="45.1777333" lon="8.0824293"><ele>152.79999999999998</ele><time>2026-03-29T13:57:19.191Z</time></trkpt><trkpt lat="45.1777619" lon="8.0822765"><ele>153.2</ele><time>2026-03-29T13:57:20.182Z</time></trkpt><trkpt lat="45.1777858" lon="8.0821338"><ele>153.6</ele><time>2026-03-29T13:57:21.188Z</time></trkpt><trkpt lat="45.1778097" lon="8.0820018"><ele>154.0</ele><time>2026-03-29T13:57:22.187Z</time></trkpt><trkpt lat="45.1778299" lon="8.0818871"><ele>154.0</ele><time>2026-03-29T13:57:23.188Z</time></trkpt><trkpt lat="45.1778448" lon="8.0817888"><ele>154.0</ele><time>2026-03-29T13:57:24.189Z</time></trkpt><trkpt lat="45.1778631" lon="8.0816294"><ele>154.0</ele><time>2026-03-29T13:57:26.19Z</time></trkpt><trkpt lat="45.1778757" lon="8.0815039"><ele>154.0</ele><time>2026-03-29T13:57:28.182Z</time></trkpt><trkpt lat="45.1778935" lon="8.0813901"><ele>154.0</ele><time>2026-03-29T13:57:30.186Z</time></trkpt><trkpt lat="45.177928" lon="8.0812602"><ele>154.0</ele><time>2026-03-29T13:57:32.186Z</time></trkpt><trkpt lat="45.1779579" lon="8.081119"><ele>154.0</ele><time>2026-03-29T13:57:34.183Z</time></trkpt><trkpt lat="45.1779818" lon="8.0809596"><ele>154.0</ele><time>2026-03-29T13:57:36.194Z</time></trkpt><trkpt lat="45.1780073" lon="8.0807903"><ele>154.0</ele><time>2026-03-29T13:57:38.183Z</time></trkpt><trkpt lat="45.1780331" lon="8.0806432"><ele>154.0</ele><time>2026-03-29T13:57:40.189Z</time></trkpt><trkpt lat="45.178055" lon="8.0805137"><ele>153.83333333333334</ele><time>2026-03-29T13:57:42.184Z</time></trkpt><trkpt lat="45.178071" lon="8.0804272"><ele>153.66666666666669</ele><time>2026-03-29T13:57:44.183Z</time></trkpt><trkpt lat="45.1781391" lon="8.0804291"><ele>153.5</ele><time>2026-03-29T13:57:52.192Z</time></trkpt><trkpt lat="45.1782245" lon="8.0804372"><ele>153.33333333333334</ele><time>2026-03-29T13:57:54.184Z</time></trkpt><trkpt lat="45.1783335" lon="8.0804864"><ele>153.16666666666666</ele><time>2026-03-29T13:57:56.184Z</time></trkpt><trkpt lat="45.1784407" lon="8.0805472"><ele>153.0</ele><time>2026-03-29T13:57:58.183Z</time></trkpt><trkpt lat="45.1785216" lon="8.0805785"><ele>153.0</ele><time>2026-03-29T13:58:00.183Z</time></trkpt><trkpt lat="45.1786064" lon="8.0805614"><ele>153.0</ele><time>2026-03-29T13:58:02.182Z</time></trkpt><trkpt lat="45.1787159" lon="8.0804872"><ele>153.0</ele><time>2026-03-29T13:58:04.184Z</time></trkpt><trkpt lat="45.1787745" lon="8.080438"><ele>153.0</ele><time>2026-03-29T13:58:05.184Z</time></trkpt><trkpt lat="45.1788338" lon="8.0803813"><ele>153.0</ele><time>2026-03-29T13:58:06.184Z</time></trkpt><trkpt lat="45.1788884" lon="8.0803271"><ele>153.0</ele><time>2026-03-29T13:58:07.192Z</time></trkpt><trkpt lat="45.1789811" lon="8.0802308"><ele>153.0</ele><time>2026-03-29T13:58:09.193Z</time></trkpt><trkpt lat="45.1790612" lon="8.0801251"><ele>153.0</ele><time>2026-03-29T13:58:11.185Z</time></trkpt><trkpt lat="45.1791326" lon="8.0800053"><ele>153.0</ele><time>2026-03-29T13:58:13.189Z</time></trkpt><trkpt lat="45.1791859" lon="8.0798759"><ele>153.0</ele><time>2026-03-29T13:58:15.181Z</time></trkpt><trkpt lat="45.1792462" lon="8.0797249"><ele>153.0</ele><time>2026-03-29T13:58:17.19Z</time></trkpt><trkpt lat="45.1792834" lon="8.0796456"><ele>153.33333333333334</ele><time>2026-03-29T13:58:18.193Z</time></trkpt><trkpt lat="45.1793179" lon="8.0795701"><ele>153.66666666666666</ele><time>2026-03-29T13:58:19.19Z</time></trkpt><trkpt lat="45.1793843" lon="8.079422"><ele>154.0</ele><time>2026-03-29T13:58:21.184Z</time></trkpt><trkpt lat="45.1794195" lon="8.0793423"><ele>154.33333333333331</ele><time>2026-03-29T13:58:22.195Z</time></trkpt><trkpt lat="45.1794574" lon="8.0792592"><ele>154.66666666666666</ele><time>2026-03-29T13:58:23.187Z</time></trkpt><trkpt lat="45.1794962" lon="8.0791739"><ele>155.0</ele><time>2026-03-29T13:58:24.188Z</time></trkpt><trkpt lat="45.179536" lon="8.0790873"><ele>154.8</ele><time>2026-03-29T13:58:25.193Z</time></trkpt><trkpt lat="45.179576" lon="8.0790031"><ele>154.6</ele><time>2026-03-29T13:58:26.189Z</time></trkpt><trkpt lat="45.1796142" lon="8.0789297"><ele>154.4</ele><time>2026-03-29T13:58:27.19Z</time></trkpt><trkpt lat="45.1796919" lon="8.0787936"><ele>154.2</ele><time>2026-03-29T13:58:29.184Z</time></trkpt><trkpt lat="45.1797743" lon="8.0786571"><ele>154.0</ele><time>2026-03-29T13:58:31.2Z</time></trkpt><trkpt lat="45.1798533" lon="8.0785233"><ele>154.0</ele><time>2026-03-29T13:58:33.189Z</time></trkpt><trkpt lat="45.1798947" lon="8.0784541"><ele>154.0</ele><time>2026-03-29T13:58:34.183Z</time></trkpt><trkpt lat="45.1799351" lon="8.078382"><ele>154.0</ele><time>2026-03-29T13:58:35.188Z</time></trkpt><trkpt lat="45.179974" lon="8.078308"><ele>154.0</ele><time>2026-03-29T13:58:36.191Z</time></trkpt><trkpt lat="45.1800445" lon="8.078157"><ele>154.0</ele><time>2026-03-29T13:58:38.19Z</time></trkpt><trkpt lat="45.1800773" lon="8.0780804"><ele>154.0</ele><time>2026-03-29T13:58:39.19Z</time></trkpt><trkpt lat="45.1801256" lon="8.0779559"><ele>154.0</ele><time>2026-03-29T13:58:41.182Z</time></trkpt><trkpt lat="45.1801774" lon="8.0778489"><ele>154.0</ele><time>2026-03-29T13:59:55.193Z</time></trkpt><trkpt lat="45.1802655" lon="8.077827"><ele>154.0</ele><time>2026-03-29T13:59:58.193Z</time></trkpt><trkpt lat="45.180328" lon="8.0778001"><ele>154.0</ele><time>2026-03-29T14:00:02.181Z</time></trkpt><trkpt lat="45.1804041" lon="8.0777545"><ele>154.0</ele><time>2026-03-29T14:00:05.19Z</time></trkpt><trkpt lat="45.1804504" lon="8.0776123"><ele>154.0</ele><time>2026-03-29T14:00:07.184Z</time></trkpt><trkpt lat="45.1804741" lon="8.0775121"><ele>153.83333333333334</ele><time>2026-03-29T14:00:08.184Z</time></trkpt><trkpt lat="45.1804997" lon="8.077405"><ele>153.66666666666669</ele><time>2026-03-29T14:00:09.188Z</time></trkpt><trkpt lat="45.1805258" lon="8.0773015"><ele>153.5</ele><time>2026-03-29T14:00:10.189Z</time></trkpt><trkpt lat="45.1805514" lon="8.077203"><ele>153.33333333333334</ele><time>2026-03-29T14:00:11.183Z</time></trkpt><trkpt lat="45.1805814" lon="8.0771088"><ele>153.16666666666666</ele><time>2026-03-29T14:00:12.183Z</time></trkpt><trkpt lat="45.1806113" lon="8.077015"><ele>153.0</ele><time>2026-03-29T14:00:13.214Z</time></trkpt><trkpt lat="45.1806432" lon="8.0769159"><ele>153.0</ele><time>2026-03-29T14:00:14.182Z</time></trkpt><trkpt lat="45.1806737" lon="8.0768169"><ele>153.0</ele><time>2026-03-29T14:00:15.183Z</time></trkpt><trkpt lat="45.1807027" lon="8.0767186"><ele>153.0</ele><time>2026-03-29T14:00:16.181Z</time></trkpt><trkpt lat="45.1807328" lon="8.0766172"><ele>153.0</ele><time>2026-03-29T14:00:17.188Z</time></trkpt><trkpt lat="45.1807644" lon="8.0765169"><ele>153.0</ele><time>2026-03-29T14:00:18.182Z</time></trkpt><trkpt lat="45.1807978" lon="8.076412"><ele>153.0</ele><time>2026-03-29T14:00:19.186Z</time></trkpt><trkpt lat="45.18083" lon="8.0763064"><ele>153.20000000000002</ele><time>2026-03-29T14:00:20.182Z</time></trkpt><trkpt lat="45.1808593" lon="8.0762082"><ele>153.4</ele><time>2026-03-29T14:00:21.183Z</time></trkpt><trkpt lat="45.1808845" lon="8.0761219"><ele>153.60000000000002</ele><time>2026-03-29T14:00:22.187Z</time></trkpt><trkpt lat="45.1809243" lon="8.0759724"><ele>153.8</ele><time>2026-03-29T14:00:24.182Z</time></trkpt><trkpt lat="45.1809628" lon="8.0758269"><ele>154.0</ele><time>2026-03-29T14:00:26.185Z</time></trkpt><trkpt lat="45.1810042" lon="8.0756636"><ele>154.16666666666669</ele><time>2026-03-29T14:00:28.201Z</time></trkpt><trkpt lat="45.1810441" lon="8.0755119"><ele>154.33333333333334</ele><time>2026-03-29T14:00:30.181Z</time></trkpt><trkpt lat="45.181054" lon="8.0753556"><ele>154.5</ele><time>2026-03-29T14:00:32.182Z</time></trkpt><trkpt lat="45.1810489" lon="8.0752635"><ele>154.66666666666666</ele><time>2026-03-29T14:00:33.183Z</time></trkpt><trkpt lat="45.1810417" lon="8.0751603"><ele>154.83333333333331</ele><time>2026-03-29T14:00:34.182Z</time></trkpt><trkpt lat="45.1810302" lon="8.0750428"><ele>155.0</ele><time>2026-03-29T14:00:35.191Z</time></trkpt><trkpt lat="45.1810227" lon="8.0749273"><ele>154.66666666666666</ele><time>2026-03-29T14:00:36.182Z</time></trkpt><trkpt lat="45.1810097" lon="8.0748052"><ele>154.33333333333331</ele><time>2026-03-29T14:00:37.19Z</time></trkpt><trkpt lat="45.1809968" lon="8.0746865"><ele>154.0</ele><time>2026-03-29T14:00:38.19Z</time></trkpt><trkpt lat="45.1809866" lon="8.0745731"><ele>153.66666666666666</ele><time>2026-03-29T14:00:39.189Z</time></trkpt><trkpt lat="45.1809839" lon="8.0744574"><ele>153.33333333333334</ele><time>2026-03-29T14:00:40.182Z</time></trkpt><trkpt lat="45.1809791" lon="8.0743373"><ele>153.0</ele><time>2026-03-29T14:00:41.185Z</time></trkpt><trkpt lat="45.180976" lon="8.0742159"><ele>152.66666666666666</ele><time>2026-03-29T14:00:42.182Z</time></trkpt><trkpt lat="45.1809752" lon="8.0741005"><ele>152.33333333333334</ele><time>2026-03-29T14:00:43.182Z</time></trkpt><trkpt lat="45.1809749" lon="8.0739904"><ele>152.0</ele><time>2026-03-29T14:00:44.184Z</time></trkpt><trkpt lat="45.1809792" lon="8.0738777"><ele>151.66666666666669</ele><time>2026-03-29T14:00:45.178Z</time></trkpt><trkpt lat="45.1809844" lon="8.0737621"><ele>151.33333333333334</ele><time>2026-03-29T14:00:46.183Z</time></trkpt><trkpt lat="45.1809909" lon="8.0736448"><ele>151.0</ele><time>2026-03-29T14:00:47.178Z</time></trkpt><trkpt lat="45.180999" lon="8.073528"><ele>151.0</ele><time>2026-03-29T14:00:48.182Z</time></trkpt><trkpt lat="45.1810054" lon="8.0734123"><ele>151.0</ele><time>2026-03-29T14:00:49.185Z</time></trkpt><trkpt lat="45.181013" lon="8.0732979"><ele>151.0</ele><time>2026-03-29T14:00:50.185Z</time></trkpt><trkpt lat="45.1810184" lon="8.0731915"><ele>151.0</ele><time>2026-03-29T14:00:51.183Z</time></trkpt><trkpt lat="45.1810219" lon="8.0730927"><ele>151.0</ele><time>2026-03-29T14:00:52.182Z</time></trkpt><trkpt lat="45.1810227" lon="8.0730016"><ele>151.0</ele><time>2026-03-29T14:00:53.183Z</time></trkpt><trkpt lat="45.1810247" lon="8.0728364"><ele>151.33333333333334</ele><time>2026-03-29T14:00:55.182Z</time></trkpt><trkpt lat="45.1810297" lon="8.0726657"><ele>151.66666666666669</ele><time>2026-03-29T14:00:57.18Z</time></trkpt><trkpt lat="45.1810314" lon="8.0725745"><ele>152.0</ele><time>2026-03-29T14:00:58.19Z</time></trkpt><trkpt lat="45.1810328" lon="8.0724802"><ele>152.33333333333334</ele><time>2026-03-29T14:00:59.185Z</time></trkpt><trkpt lat="45.1810338" lon="8.0723798"><ele>152.66666666666666</ele><time>2026-03-29T14:01:00.185Z</time></trkpt><trkpt lat="45.1810345" lon="8.0722749"><ele>153.0</ele><time>2026-03-29T14:01:01.179Z</time></trkpt><trkpt lat="45.1810371" lon="8.0721641"><ele>153.0</ele><time>2026-03-29T14:01:02.18Z</time></trkpt><trkpt lat="45.1810402" lon="8.0720473"><ele>153.0</ele><time>2026-03-29T14:01:03.181Z</time></trkpt><trkpt lat="45.1810444" lon="8.0719287"><ele>153.0</ele><time>2026-03-29T14:01:04.183Z</time></trkpt><trkpt lat="45.1810469" lon="8.0718157"><ele>153.0</ele><time>2026-03-29T14:01:05.186Z</time></trkpt><trkpt lat="45.1810475" lon="8.0717047"><ele>153.0</ele><time>2026-03-29T14:01:06.18Z</time></trkpt><trkpt lat="45.1810456" lon="8.0715948"><ele>153.0</ele><time>2026-03-29T14:01:07.186Z</time></trkpt><trkpt lat="45.1810448" lon="8.0714863"><ele>152.83333333333334</ele><time>2026-03-29T14:01:08.187Z</time></trkpt><trkpt lat="45.1810403" lon="8.071381"><ele>152.66666666666666</ele><time>2026-03-29T14:01:09.182Z</time></trkpt><trkpt lat="45.1810309" lon="8.0712835"><ele>152.5</ele><time>2026-03-29T14:01:10.18Z</time></trkpt><trkpt lat="45.1810009" lon="8.0711247"><ele>152.33333333333331</ele><time>2026-03-29T14:01:12.182Z</time></trkpt><trkpt lat="45.1809578" lon="8.0709668"><ele>152.16666666666666</ele><time>2026-03-29T14:01:14.181Z</time></trkpt><trkpt lat="45.1809333" lon="8.0708758"><ele>152.0</ele><time>2026-03-29T14:01:15.181Z</time></trkpt><trkpt lat="45.1809101" lon="8.0707733"><ele>152.0</ele><time>2026-03-29T14:01:16.179Z</time></trkpt><trkpt lat="45.1808837" lon="8.070668"><ele>152.0</ele><time>2026-03-29T14:01:17.183Z</time></trkpt><trkpt lat="45.1808554" lon="8.070561"><ele>152.0</ele><time>2026-03-29T14:01:18.181Z</time></trkpt><trkpt lat="45.1808281" lon="8.0704622"><ele>152.0</ele><time>2026-03-29T14:01:19.189Z</time></trkpt><trkpt lat="45.1808014" lon="8.0703656"><ele>152.0</ele><time>2026-03-29T14:01:20.183Z</time></trkpt><trkpt lat="45.1807727" lon="8.0702746"><ele>152.0</ele><time>2026-03-29T14:01:21.183Z</time></trkpt><trkpt lat="45.1807368" lon="8.0701919"><ele>152.0</ele><time>2026-03-29T14:01:22.184Z</time></trkpt><trkpt lat="45.1806959" lon="8.070116"><ele>152.4</ele><time>2026-03-29T14:01:23.194Z</time></trkpt><trkpt lat="45.1806556" lon="8.0700472"><ele>152.79999999999998</ele><time>2026-03-29T14:01:24.193Z</time></trkpt><trkpt lat="45.1805825" lon="8.0699378"><ele>153.2</ele><time>2026-03-29T14:01:26.184Z</time></trkpt><trkpt lat="45.1805313" lon="8.0698182"><ele>153.6</ele><time>2026-03-29T14:01:28.185Z</time></trkpt><trkpt lat="45.1805125" lon="8.0696743"><ele>154.0</ele><time>2026-03-29T14:01:30.186Z</time></trkpt><trkpt lat="45.1804945" lon="8.0695551"><ele>154.33333333333334</ele><time>2026-03-29T14:01:32.188Z</time></trkpt><trkpt lat="45.1804776" lon="8.0694506"><ele>154.66666666666669</ele><time>2026-03-29T14:01:36.183Z</time></trkpt><trkpt lat="45.1804581" lon="8.0693505"><ele>155.0</ele><time>2026-03-29T14:01:39.188Z</time></trkpt><trkpt lat="45.1804373" lon="8.0692633"><ele>155.33333333333334</ele><time>2026-03-29T14:01:53.198Z</time></trkpt><trkpt lat="45.180408" lon="8.0691672"><ele>155.66666666666666</ele><time>2026-03-29T14:01:55.179Z</time></trkpt><trkpt lat="45.1803624" lon="8.0690196"><ele>156.0</ele><time>2026-03-29T14:01:57.2Z</time></trkpt><trkpt lat="45.1803193" lon="8.0689044"><ele>156.16666666666666</ele><time>2026-03-29T14:01:59.185Z</time></trkpt><trkpt lat="45.1802895" lon="8.0688221"><ele>156.33333333333334</ele><time>2026-03-29T14:02:02.203Z</time></trkpt><trkpt lat="45.1802719" lon="8.0687228"><ele>156.5</ele><time>2026-03-29T14:02:13.186Z</time></trkpt><trkpt lat="45.1802954" lon="8.0686307"><ele>156.66666666666669</ele><time>2026-03-29T14:02:19.183Z</time></trkpt><trkpt lat="45.1803332" lon="8.0684912"><ele>156.83333333333334</ele><time>2026-03-29T14:02:21.211Z</time></trkpt><trkpt lat="45.1803668" lon="8.0683374"><ele>157.0</ele><time>2026-03-29T14:02:23.183Z</time></trkpt><trkpt lat="45.1804045" lon="8.0681954"><ele>156.4</ele><time>2026-03-29T14:02:25.182Z</time></trkpt><trkpt lat="45.1804498" lon="8.0680637"><ele>155.79999999999998</ele><time>2026-03-29T14:02:27.181Z</time></trkpt><trkpt lat="45.1805175" lon="8.0679536"><ele>155.2</ele><time>2026-03-29T14:02:29.184Z</time></trkpt><trkpt lat="45.1805931" lon="8.0678538"><ele>154.6</ele><time>2026-03-29T14:02:31.185Z</time></trkpt><trkpt lat="45.1806431" lon="8.0677736"><ele>154.0</ele><time>2026-03-29T14:02:33.188Z</time></trkpt><trkpt lat="45.1805656" lon="8.0678326"><ele>154.0</ele><time>2026-03-29T14:05:35.182Z</time></trkpt><trkpt lat="45.1804973" lon="8.0679231"><ele>154.0</ele><time>2026-03-29T14:05:37.182Z</time></trkpt><trkpt lat="45.1804255" lon="8.0680315"><ele>154.0</ele><time>2026-03-29T14:05:39.205Z</time></trkpt><trkpt lat="45.180363" lon="8.0681542"><ele>154.0</ele><time>2026-03-29T14:05:41.189Z</time></trkpt><trkpt lat="45.1803153" lon="8.0683018"><ele>154.0</ele><time>2026-03-29T14:05:43.189Z</time></trkpt><trkpt lat="45.1802822" lon="8.0684674"><ele>154.5</ele><time>2026-03-29T14:05:45.189Z</time></trkpt><trkpt lat="45.1802533" lon="8.0686172"><ele>155.0</ele><time>2026-03-29T14:05:47.185Z</time></trkpt><trkpt lat="45.1802303" lon="8.0687244"><ele>155.5</ele><time>2026-03-29T14:05:50.195Z</time></trkpt><trkpt lat="45.1802644" lon="8.0688062"><ele>156.0</ele><time>2026-03-29T14:05:53.182Z</time></trkpt><trkpt lat="45.1803221" lon="8.0689305"><ele>156.5</ele><time>2026-03-29T14:05:55.212Z</time></trkpt><trkpt lat="45.180355" lon="8.0690118"><ele>157.0</ele><time>2026-03-29T14:05:56.179Z</time></trkpt><trkpt lat="45.1803886" lon="8.069093"><ele>156.79999999999998</ele><time>2026-03-29T14:05:57.215Z</time></trkpt><trkpt lat="45.1804216" lon="8.0691728"><ele>156.6</ele><time>2026-03-29T14:05:58.194Z</time></trkpt><trkpt lat="45.1804777" lon="8.0693202"><ele>156.39999999999998</ele><time>2026-03-29T14:06:00.18Z</time></trkpt><trkpt lat="45.1805115" lon="8.0694719"><ele>156.2</ele><time>2026-03-29T14:06:02.183Z</time></trkpt><trkpt lat="45.1805426" lon="8.0696082"><ele>156.0</ele><time>2026-03-29T14:06:04.189Z</time></trkpt><trkpt lat="45.1805731" lon="8.0697481"><ele>156.0</ele><time>2026-03-29T14:06:06.188Z</time></trkpt><trkpt lat="45.1806078" lon="8.0698898"><ele>156.0</ele><time>2026-03-29T14:06:08.189Z</time></trkpt><trkpt lat="45.1806565" lon="8.0700309"><ele>156.0</ele><time>2026-03-29T14:06:10.188Z</time></trkpt><trkpt lat="45.1807279" lon="8.0701491"><ele>156.0</ele><time>2026-03-29T14:06:12.18Z</time></trkpt><trkpt lat="45.1807931" lon="8.0702759"><ele>156.0</ele><time>2026-03-29T14:06:14.217Z</time></trkpt><trkpt lat="45.1808447" lon="8.0704228"><ele>155.33333333333334</ele><time>2026-03-29T14:06:16.179Z</time></trkpt><trkpt lat="45.1808818" lon="8.0705659"><ele>154.66666666666666</ele><time>2026-03-29T14:06:18.181Z</time></trkpt><trkpt lat="45.1809014" lon="8.0706938"><ele>154.0</ele><time>2026-03-29T14:06:20.186Z</time></trkpt><trkpt lat="45.1809193" lon="8.0707989"><ele>153.33333333333331</ele><time>2026-03-29T14:06:22.178Z</time></trkpt><trkpt lat="45.1809327" lon="8.0708897"><ele>152.66666666666666</ele><time>2026-03-29T14:06:24.183Z</time></trkpt><trkpt lat="45.1809518" lon="8.0709825"><ele>152.0</ele><time>2026-03-29T14:06:26.186Z</time></trkpt><trkpt lat="45.1809843" lon="8.0711153"><ele>151.83333333333331</ele><time>2026-03-29T14:06:28.182Z</time></trkpt><trkpt lat="45.1810286" lon="8.0712807"><ele>151.66666666666666</ele><time>2026-03-29T14:06:30.187Z</time></trkpt><trkpt lat="45.1810472" lon="8.0713695"><ele>151.5</ele><time>2026-03-29T14:06:31.182Z</time></trkpt><trkpt lat="45.1810586" lon="8.0714694"><ele>151.33333333333334</ele><time>2026-03-29T14:06:32.185Z</time></trkpt><trkpt lat="45.181062" lon="8.0715858"><ele>151.16666666666669</ele><time>2026-03-29T14:06:33.183Z</time></trkpt><trkpt lat="45.1810605" lon="8.071708"><ele>151.0</ele><time>2026-03-29T14:06:34.181Z</time></trkpt><trkpt lat="45.1810558" lon="8.071836"><ele>151.33333333333334</ele><time>2026-03-29T14:06:35.182Z</time></trkpt><trkpt lat="45.1810509" lon="8.0719604"><ele>151.66666666666669</ele><time>2026-03-29T14:06:36.188Z</time></trkpt><trkpt lat="45.1810457" lon="8.0720837"><ele>152.0</ele><time>2026-03-29T14:06:37.221Z</time></trkpt><trkpt lat="45.1810395" lon="8.0722035"><ele>152.33333333333334</ele><time>2026-03-29T14:06:38.181Z</time></trkpt><trkpt lat="45.1810362" lon="8.0723226"><ele>152.66666666666666</ele><time>2026-03-29T14:06:39.183Z</time></trkpt><trkpt lat="45.1810331" lon="8.0724426"><ele>153.0</ele><time>2026-03-29T14:06:40.184Z</time></trkpt><trkpt lat="45.1810347" lon="8.0725663"><ele>153.20000000000002</ele><time>2026-03-29T14:06:41.183Z</time></trkpt><trkpt lat="45.1810366" lon="8.0726927"><ele>153.4</ele><time>2026-03-29T14:06:42.184Z</time></trkpt><trkpt lat="45.1810374" lon="8.0728226"><ele>153.60000000000002</ele><time>2026-03-29T14:06:43.179Z</time></trkpt><trkpt lat="45.1810343" lon="8.0729557"><ele>153.8</ele><time>2026-03-29T14:06:44.182Z</time></trkpt><trkpt lat="45.1810309" lon="8.0730905"><ele>154.0</ele><time>2026-03-29T14:06:45.182Z</time></trkpt><trkpt lat="45.1810264" lon="8.0732224"><ele>153.5</ele><time>2026-03-29T14:06:46.187Z</time></trkpt><trkpt lat="45.1810228" lon="8.0733512"><ele>153.0</ele><time>2026-03-29T14:06:47.193Z</time></trkpt><trkpt lat="45.1810183" lon="8.073477"><ele>152.5</ele><time>2026-03-29T14:06:48.193Z</time></trkpt><trkpt lat="45.1810103" lon="8.0735999"><ele>152.0</ele><time>2026-03-29T14:06:49.186Z</time></trkpt><trkpt lat="45.1810024" lon="8.0737182"><ele>151.5</ele><time>2026-03-29T14:06:50.194Z</time></trkpt><trkpt lat="45.1809962" lon="8.0738243"><ele>151.0</ele><time>2026-03-29T14:06:51.185Z</time></trkpt><trkpt lat="45.1809874" lon="8.0739187"><ele>151.00000000000003</ele><time>2026-03-29T14:06:52.191Z</time></trkpt><trkpt lat="45.180979" lon="8.0740125"><ele>151.0</ele><time>2026-03-29T14:06:53.185Z</time></trkpt><trkpt lat="45.1809756" lon="8.0741136"><ele>151.0</ele><time>2026-03-29T14:06:54.191Z</time></trkpt><trkpt lat="45.1809747" lon="8.0742194"><ele>151.0</ele><time>2026-03-29T14:06:55.188Z</time></trkpt><trkpt lat="45.1809755" lon="8.0743289"><ele>151.0</ele><time>2026-03-29T14:06:56.19Z</time></trkpt><trkpt lat="45.1809779" lon="8.0744383"><ele>151.00000000000003</ele><time>2026-03-29T14:06:57.195Z</time></trkpt><trkpt lat="45.1809816" lon="8.0745428"><ele>151.0</ele><time>2026-03-29T14:06:58.191Z</time></trkpt><trkpt lat="45.1809863" lon="8.0746426"><ele>151.33333333333334</ele><time>2026-03-29T14:06:59.193Z</time></trkpt><trkpt lat="45.1809932" lon="8.0747433"><ele>151.66666666666669</ele><time>2026-03-29T14:07:00.188Z</time></trkpt><trkpt lat="45.1810017" lon="8.0748453"><ele>152.0</ele><time>2026-03-29T14:07:01.197Z</time></trkpt><trkpt lat="45.1810139" lon="8.0749527"><ele>152.33333333333334</ele><time>2026-03-29T14:07:02.196Z</time></trkpt><trkpt lat="45.1810257" lon="8.0750636"><ele>152.66666666666666</ele><time>2026-03-29T14:07:03.185Z</time></trkpt><trkpt lat="45.1810356" lon="8.0751779"><ele>153.0</ele><time>2026-03-29T14:07:04.193Z</time></trkpt><trkpt lat="45.1810427" lon="8.0752885"><ele>153.14285714285714</ele><time>2026-03-29T14:07:05.189Z</time></trkpt><trkpt lat="45.1810471" lon="8.0753916"><ele>153.28571428571428</ele><time>2026-03-29T14:07:06.186Z</time></trkpt><trkpt lat="45.1810472" lon="8.0754887"><ele>153.42857142857144</ele><time>2026-03-29T14:07:07.191Z</time></trkpt><trkpt lat="45.1810442" lon="8.0755888"><ele>153.57142857142856</ele><time>2026-03-29T14:07:08.187Z</time></trkpt><trkpt lat="45.1810328" lon="8.0756888"><ele>153.71428571428572</ele><time>2026-03-29T14:07:09.192Z</time></trkpt><trkpt lat="45.1810127" lon="8.0757884"><ele>153.85714285714286</ele><time>2026-03-29T14:07:10.185Z</time></trkpt><trkpt lat="45.180987" lon="8.0758854"><ele>154.0</ele><time>2026-03-29T14:07:11.198Z</time></trkpt><trkpt lat="45.1809571" lon="8.0759833"><ele>154.0</ele><time>2026-03-29T14:07:12.187Z</time></trkpt><trkpt lat="45.1809285" lon="8.0760854"><ele>154.0</ele><time>2026-03-29T14:07:13.191Z</time></trkpt><trkpt lat="45.180898" lon="8.0761896"><ele>154.0</ele><time>2026-03-29T14:07:14.195Z</time></trkpt><trkpt lat="45.1808659" lon="8.0762956"><ele>154.0</ele><time>2026-03-29T14:07:15.201Z</time></trkpt><trkpt lat="45.1808332" lon="8.0764024"><ele>154.0</ele><time>2026-03-29T14:07:16.192Z</time></trkpt><trkpt lat="45.1808012" lon="8.0765102"><ele>154.0</ele><time>2026-03-29T14:07:17.193Z</time></trkpt><trkpt lat="45.1807681" lon="8.0766264"><ele>154.0</ele><time>2026-03-29T14:07:18.187Z</time></trkpt><trkpt lat="45.1807325" lon="8.0767428"><ele>154.0</ele><time>2026-03-29T14:07:19.19Z</time></trkpt><trkpt lat="45.180696" lon="8.07686"><ele>154.0</ele><time>2026-03-29T14:07:20.19Z</time></trkpt><trkpt lat="45.180661" lon="8.0769743"><ele>154.0</ele><time>2026-03-29T14:07:21.188Z</time></trkpt><trkpt lat="45.1806258" lon="8.0770799"><ele>154.0</ele><time>2026-03-29T14:07:22.186Z</time></trkpt><trkpt lat="45.1805908" lon="8.0771807"><ele>154.0</ele><time>2026-03-29T14:07:23.188Z</time></trkpt><trkpt lat="45.1805594" lon="8.0772692"><ele>154.0</ele><time>2026-03-29T14:07:24.214Z</time></trkpt><trkpt lat="45.1805058" lon="8.0774119"><ele>154.0</ele><time>2026-03-29T14:07:26.188Z</time></trkpt><trkpt lat="45.1804547" lon="8.077563"><ele>154.0</ele><time>2026-03-29T14:07:28.202Z</time></trkpt><trkpt lat="45.1804098" lon="8.0776966"><ele>154.0</ele><time>2026-03-29T14:07:30.196Z</time></trkpt><trkpt lat="45.1803715" lon="8.0777742"><ele>154.0</ele><time>2026-03-29T14:07:32.19Z</time></trkpt><trkpt lat="45.1803024" lon="8.0777946"><ele>154.0</ele><time>2026-03-29T14:07:35.191Z</time></trkpt><trkpt lat="45.1802346" lon="8.0777791"><ele>154.0</ele><time>2026-03-29T14:07:37.203Z</time></trkpt><trkpt lat="45.1801668" lon="8.0778007"><ele>154.0</ele><time>2026-03-29T14:07:39.188Z</time></trkpt><trkpt lat="45.1801139" lon="8.0779372"><ele>154.0</ele><time>2026-03-29T14:07:41.198Z</time></trkpt><trkpt lat="45.1800867" lon="8.0780332"><ele>154.0</ele><time>2026-03-29T14:07:42.197Z</time></trkpt><trkpt lat="45.1800549" lon="8.0781353"><ele>154.0</ele><time>2026-03-29T14:07:43.188Z</time></trkpt><trkpt lat="45.1800174" lon="8.0782181"><ele>154.0</ele><time>2026-03-29T14:07:44.184Z</time></trkpt><trkpt lat="45.1799722" lon="8.0783157"><ele>154.0</ele><time>2026-03-29T14:07:45.188Z</time></trkpt><trkpt lat="45.1799235" lon="8.0784082"><ele>154.0</ele><time>2026-03-29T14:07:46.191Z</time></trkpt><trkpt lat="45.1798716" lon="8.0784959"><ele>154.0</ele><time>2026-03-29T14:07:47.188Z</time></trkpt><trkpt lat="45.1798157" lon="8.078584"><ele>154.0</ele><time>2026-03-29T14:07:48.191Z</time></trkpt><trkpt lat="45.1797634" lon="8.0786748"><ele>154.0</ele><time>2026-03-29T14:07:49.189Z</time></trkpt><trkpt lat="45.1797111" lon="8.0787644"><ele>154.14285714285714</ele><time>2026-03-29T14:07:50.19Z</time></trkpt><trkpt lat="45.1796585" lon="8.078847"><ele>154.28571428571428</ele><time>2026-03-29T14:07:51.188Z</time></trkpt><trkpt lat="45.1796096" lon="8.0789231"><ele>154.42857142857144</ele><time>2026-03-29T14:07:52.188Z</time></trkpt><trkpt lat="45.1795661" lon="8.078997"><ele>154.57142857142856</ele><time>2026-03-29T14:07:53.198Z</time></trkpt><trkpt lat="45.1795277" lon="8.0790731"><ele>154.71428571428572</ele><time>2026-03-29T14:07:54.193Z</time></trkpt><trkpt lat="45.1794873" lon="8.0791497"><ele>154.85714285714286</ele><time>2026-03-29T14:07:55.213Z</time></trkpt><trkpt lat="45.179449" lon="8.0792287"><ele>155.0</ele><time>2026-03-29T14:07:56.191Z</time></trkpt><trkpt lat="45.1794095" lon="8.0793109"><ele>155.0</ele><time>2026-03-29T14:07:57.188Z</time></trkpt><trkpt lat="45.1793694" lon="8.079394"><ele>155.0</ele><time>2026-03-29T14:07:58.202Z</time></trkpt><trkpt lat="45.1793311" lon="8.0794743"><ele>155.0</ele><time>2026-03-29T14:07:59.212Z</time></trkpt><trkpt lat="45.179291" lon="8.0795547"><ele>155.0</ele><time>2026-03-29T14:08:00.227Z</time></trkpt><trkpt lat="45.1792528" lon="8.0796328"><ele>155.0</ele><time>2026-03-29T14:08:01.182Z</time></trkpt><trkpt lat="45.1792169" lon="8.0797103"><ele>155.0</ele><time>2026-03-29T14:08:02.184Z</time></trkpt><trkpt lat="45.1791497" lon="8.0798592"><ele>154.66666666666666</ele><time>2026-03-29T14:08:04.19Z</time></trkpt><trkpt lat="45.1790809" lon="8.0799941"><ele>154.33333333333331</ele><time>2026-03-29T14:08:06.19Z</time></trkpt><trkpt lat="45.1790359" lon="8.0800629"><ele>154.0</ele><time>2026-03-29T14:08:07.196Z</time></trkpt><trkpt lat="45.1789906" lon="8.0801327"><ele>153.66666666666666</ele><time>2026-03-29T14:08:08.208Z</time></trkpt><trkpt lat="45.1789476" lon="8.080198"><ele>153.33333333333334</ele><time>2026-03-29T14:08:09.191Z</time></trkpt><trkpt lat="45.1788505" lon="8.0803141"><ele>153.0</ele><time>2026-03-29T14:08:11.189Z</time></trkpt><trkpt lat="45.1787901" lon="8.0803702"><ele>153.0</ele><time>2026-03-29T14:08:12.186Z</time></trkpt><trkpt lat="45.1787309" lon="8.0804228"><ele>153.0</ele><time>2026-03-29T14:08:13.204Z</time></trkpt><trkpt lat="45.1786752" lon="8.0804649"><ele>153.0</ele><time>2026-03-29T14:08:14.21Z</time></trkpt><trkpt lat="45.1785784" lon="8.0805248"><ele>153.0</ele><time>2026-03-29T14:08:16.179Z</time></trkpt><trkpt lat="45.1784964" lon="8.0805627"><ele>153.0</ele><time>2026-03-29T14:08:18.188Z</time></trkpt><trkpt lat="45.1784289" lon="8.0805681"><ele>153.0</ele><time>2026-03-29T14:08:20.183Z</time></trkpt><trkpt lat="45.178351" lon="8.0805332"><ele>153.0</ele><time>2026-03-29T14:08:22.187Z</time></trkpt><trkpt lat="45.1782489" lon="8.0804598"><ele>153.0</ele><time>2026-03-29T14:08:24.181Z</time></trkpt><trkpt lat="45.1781636" lon="8.0803999"><ele>153.0</ele><time>2026-03-29T14:08:26.182Z</time></trkpt><trkpt lat="45.1780809" lon="8.080405"><ele>153.0</ele><time>2026-03-29T14:08:29.183Z</time></trkpt><trkpt lat="45.1780341" lon="8.080477"><ele>153.0</ele><time>2026-03-29T14:08:32.18Z</time></trkpt><trkpt lat="45.178013" lon="8.0806182"><ele>153.20000000000002</ele><time>2026-03-29T14:08:35.178Z</time></trkpt><trkpt lat="45.177995" lon="8.0807846"><ele>153.4</ele><time>2026-03-29T14:08:37.18Z</time></trkpt><trkpt lat="45.17797" lon="8.0809403"><ele>153.60000000000002</ele><time>2026-03-29T14:08:39.182Z</time></trkpt><trkpt lat="45.1779411" lon="8.0810903"><ele>153.8</ele><time>2026-03-29T14:08:41.178Z</time></trkpt><trkpt lat="45.177918" lon="8.0812061"><ele>154.0</ele><time>2026-03-29T14:08:43.213Z</time></trkpt><trkpt lat="45.1778828" lon="8.0813153"><ele>154.0</ele><time>2026-03-29T14:08:46.185Z</time></trkpt><trkpt lat="45.1778235" lon="8.0813677"><ele>154.0</ele><time>2026-03-29T14:08:49.183Z</time></trkpt><trkpt lat="45.1777495" lon="8.0813352"><ele>154.0</ele><time>2026-03-29T14:08:51.195Z</time></trkpt><trkpt lat="45.1776891" lon="8.0812903"><ele>154.0</ele><time>2026-03-29T14:08:52.188Z</time></trkpt><trkpt lat="45.1776213" lon="8.0812307"><ele>154.0</ele><time>2026-03-29T14:08:53.199Z</time></trkpt><trkpt lat="45.1775496" lon="8.0811631"><ele>154.0</ele><time>2026-03-29T14:08:54.186Z</time></trkpt><trkpt lat="45.1774789" lon="8.0811013"><ele>154.0</ele><time>2026-03-29T14:08:55.187Z</time></trkpt><trkpt lat="45.1774135" lon="8.0810465"><ele>154.0</ele><time>2026-03-29T14:08:56.186Z</time></trkpt><trkpt lat="45.177357" lon="8.0810017"><ele>154.0</ele><time>2026-03-29T14:08:57.191Z</time></trkpt><trkpt lat="45.1772435" lon="8.0809286"><ele>154.0</ele><time>2026-03-29T14:08:59.186Z</time></trkpt><trkpt lat="45.1771467" lon="8.0808721"><ele>154.0</ele><time>2026-03-29T14:09:01.183Z</time></trkpt><trkpt lat="45.1770532" lon="8.0808176"><ele>153.6</ele><time>2026-03-29T14:09:03.182Z</time></trkpt><trkpt lat="45.176957" lon="8.0807476"><ele>153.2</ele><time>2026-03-29T14:09:05.185Z</time></trkpt><trkpt lat="45.1768809" lon="8.0806368"><ele>152.79999999999998</ele><time>2026-03-29T14:09:07.184Z</time></trkpt><trkpt lat="45.1768148" lon="8.0805174"><ele>152.4</ele><time>2026-03-29T14:09:09.182Z</time></trkpt><trkpt lat="45.176713" lon="8.0804256"><ele>152.0</ele><time>2026-03-29T14:09:11.191Z</time></trkpt><trkpt lat="45.1766122" lon="8.0803478"><ele>152.0</ele><time>2026-03-29T14:09:13.182Z</time></trkpt><trkpt lat="45.1765495" lon="8.0802734"><ele>152.0</ele><time>2026-03-29T14:09:15.205Z</time></trkpt><trkpt lat="45.1764801" lon="8.0802724"><ele>152.0</ele><time>2026-03-29T14:09:56.181Z</time></trkpt><trkpt lat="45.1763801" lon="8.0802486"><ele>152.0</ele><time>2026-03-29T14:09:58.19Z</time></trkpt><trkpt lat="45.1762956" lon="8.0802113"><ele>152.0</ele><time>2026-03-29T14:09:59.215Z</time></trkpt><trkpt lat="45.176197" lon="8.0801608"><ele>152.0</ele><time>2026-03-29T14:10:00.21Z</time></trkpt><trkpt lat="45.1760812" lon="8.0800943"><ele>152.0</ele><time>2026-03-29T14:10:01.181Z</time></trkpt><trkpt lat="45.1759465" lon="8.0800101"><ele>152.0</ele><time>2026-03-29T14:10:02.184Z</time></trkpt><trkpt lat="45.1758123" lon="8.0799219"><ele>152.0</ele><time>2026-03-29T14:10:03.194Z</time></trkpt><trkpt lat="45.1756926" lon="8.0798403"><ele>152.0</ele><time>2026-03-29T14:10:04.2Z</time></trkpt><trkpt lat="45.175592" lon="8.0797665"><ele>152.0</ele><time>2026-03-29T14:10:05.183Z</time></trkpt><trkpt lat="45.1754959" lon="8.0797003"><ele>152.0</ele><time>2026-03-29T14:10:06.193Z</time></trkpt><trkpt lat="45.1753994" lon="8.0796366"><ele>152.0</ele><time>2026-03-29T14:10:07.189Z</time></trkpt><trkpt lat="45.1753033" lon="8.0795671"><ele>152.0</ele><time>2026-03-29T14:10:08.196Z</time></trkpt><trkpt lat="45.1752099" lon="8.0795022"><ele>152.0</ele><time>2026-03-29T14:10:09.191Z</time></trkpt><trkpt lat="45.1751161" lon="8.079436"><ele>152.0</ele><time>2026-03-29T14:10:10.188Z</time></trkpt><trkpt lat="45.1750234" lon="8.0793709"><ele>152.0</ele><time>2026-03-29T14:10:11.194Z</time></trkpt><trkpt lat="45.1749363" lon="8.0793113"><ele>152.0</ele><time>2026-03-29T14:10:12.191Z</time></trkpt><trkpt lat="45.174865" lon="8.0792615"><ele>152.0</ele><time>2026-03-29T14:10:13.184Z</time></trkpt><trkpt lat="45.1748085" lon="8.0792192"><ele>152.0</ele><time>2026-03-29T14:10:14.194Z</time></trkpt><trkpt lat="45.174694" lon="8.0791268"><ele>152.16666666666666</ele><time>2026-03-29T14:10:16.186Z</time></trkpt><trkpt lat="45.174626" lon="8.079076"><ele>152.33333333333331</ele><time>2026-03-29T14:10:17.194Z</time></trkpt><trkpt lat="45.1745511" lon="8.079024"><ele>152.5</ele><time>2026-03-29T14:10:18.195Z</time></trkpt><trkpt lat="45.1744709" lon="8.0789737"><ele>152.66666666666666</ele><time>2026-03-29T14:10:19.189Z</time></trkpt><trkpt lat="45.1743902" lon="8.0789252"><ele>152.83333333333334</ele><time>2026-03-29T14:10:20.19Z</time></trkpt><trkpt lat="45.1743021" lon="8.0788808"><ele>153.0</ele><time>2026-03-29T14:10:21.193Z</time></trkpt><trkpt lat="45.1742221" lon="8.07884"><ele>153.0</ele><time>2026-03-29T14:10:22.184Z</time></trkpt><trkpt lat="45.1741504" lon="8.0787936"><ele>153.0</ele><time>2026-03-29T14:10:23.182Z</time></trkpt><trkpt lat="45.1740905" lon="8.0787419"><ele>153.0</ele><time>2026-03-29T14:10:24.186Z</time></trkpt><trkpt lat="45.1740444" lon="8.078668"><ele>153.0</ele><time>2026-03-29T14:10:25.186Z</time></trkpt><trkpt lat="45.1740073" lon="8.0785592"><ele>153.0</ele><time>2026-03-29T14:10:26.198Z</time></trkpt><trkpt lat="45.1739785" lon="8.0784394"><ele>153.0</ele><time>2026-03-29T14:10:27.198Z</time></trkpt><trkpt lat="45.1739475" lon="8.0783217"><ele>152.8</ele><time>2026-03-29T14:10:28.2Z</time></trkpt><trkpt lat="45.173909" lon="8.0782007"><ele>152.60000000000002</ele><time>2026-03-29T14:10:29.184Z</time></trkpt><trkpt lat="45.1738706" lon="8.0780745"><ele>152.39999999999998</ele><time>2026-03-29T14:10:30.186Z</time></trkpt><trkpt lat="45.1738271" lon="8.0779485"><ele>152.2</ele><time>2026-03-29T14:10:31.188Z</time></trkpt><trkpt lat="45.1737894" lon="8.0778278"><ele>152.0</ele><time>2026-03-29T14:10:32.185Z</time></trkpt><trkpt lat="45.1737543" lon="8.0777131"><ele>152.0</ele><time>2026-03-29T14:10:33.183Z</time></trkpt><trkpt lat="45.173725" lon="8.0775959"><ele>152.0</ele><time>2026-03-29T14:10:34.184Z</time></trkpt><trkpt lat="45.1737128" lon="8.0774698"><ele>152.0</ele><time>2026-03-29T14:10:35.188Z</time></trkpt><trkpt lat="45.1737185" lon="8.077344"><ele>152.0</ele><time>2026-03-29T14:10:36.194Z</time></trkpt><trkpt lat="45.1737566" lon="8.0771988"><ele>152.0</ele><time>2026-03-29T14:10:37.191Z</time></trkpt><trkpt lat="45.1738005" lon="8.077056"><ele>151.79999999999998</ele><time>2026-03-29T14:10:38.19Z</time></trkpt><trkpt lat="45.1738469" lon="8.0769131"><ele>151.6</ele><time>2026-03-29T14:10:39.191Z</time></trkpt><trkpt lat="45.1738891" lon="8.0767732"><ele>151.39999999999998</ele><time>2026-03-29T14:10:40.186Z</time></trkpt><trkpt lat="45.1739285" lon="8.0766505"><ele>151.2</ele><time>2026-03-29T14:10:41.201Z</time></trkpt><trkpt lat="45.1739608" lon="8.0765369"><ele>151.0</ele><time>2026-03-29T14:10:42.194Z</time></trkpt><trkpt lat="45.1739837" lon="8.0764265"><ele>151.0</ele><time>2026-03-29T14:10:43.197Z</time></trkpt><trkpt lat="45.1740044" lon="8.0763127"><ele>151.0</ele><time>2026-03-29T14:10:44.186Z</time></trkpt><trkpt lat="45.1740266" lon="8.0761901"><ele>151.0</ele><time>2026-03-29T14:10:45.192Z</time></trkpt><trkpt lat="45.1740529" lon="8.0760576"><ele>151.0</ele><time>2026-03-29T14:10:46.217Z</time></trkpt><trkpt lat="45.1740753" lon="8.075921"><ele>151.0</ele><time>2026-03-29T14:10:47.189Z</time></trkpt><trkpt lat="45.1740973" lon="8.0757824"><ele>151.16666666666669</ele><time>2026-03-29T14:10:48.192Z</time></trkpt><trkpt lat="45.1741209" lon="8.0756533"><ele>151.33333333333334</ele><time>2026-03-29T14:10:49.186Z</time></trkpt><trkpt lat="45.1741426" lon="8.0755347"><ele>151.5</ele><time>2026-03-29T14:10:50.193Z</time></trkpt><trkpt lat="45.1741624" lon="8.0754261"><ele>151.66666666666666</ele><time>2026-03-29T14:10:51.188Z</time></trkpt><trkpt lat="45.1741844" lon="8.0753174"><ele>151.83333333333331</ele><time>2026-03-29T14:10:52.191Z</time></trkpt><trkpt lat="45.1742084" lon="8.0752082"><ele>152.0</ele><time>2026-03-29T14:10:53.186Z</time></trkpt><trkpt lat="45.1742381" lon="8.0750982"><ele>152.0</ele><time>2026-03-29T14:10:54.188Z</time></trkpt><trkpt lat="45.1742651" lon="8.0749891"><ele>152.0</ele><time>2026-03-29T14:10:55.198Z</time></trkpt><trkpt lat="45.1742775" lon="8.0748842"><ele>152.0</ele><time>2026-03-29T14:10:56.19Z</time></trkpt><trkpt lat="45.1742818" lon="8.0747811"><ele>152.0</ele><time>2026-03-29T14:10:57.206Z</time></trkpt><trkpt lat="45.1742856" lon="8.0746765"><ele>152.0</ele><time>2026-03-29T14:10:58.187Z</time></trkpt><trkpt lat="45.1742882" lon="8.0745711"><ele>152.0</ele><time>2026-03-29T14:10:59.186Z</time></trkpt><trkpt lat="45.1742878" lon="8.0744644"><ele>152.33333333333331</ele><time>2026-03-29T14:11:00.182Z</time></trkpt><trkpt lat="45.1742881" lon="8.0743693"><ele>152.66666666666666</ele><time>2026-03-29T14:11:01.193Z</time></trkpt><trkpt lat="45.1742849" lon="8.0742179"><ele>153.0</ele><time>2026-03-29T14:11:03.197Z</time></trkpt><trkpt lat="45.1742595" lon="8.0741069"><ele>153.33333333333334</ele><time>2026-03-29T14:11:05.197Z</time></trkpt><trkpt lat="45.1742094" lon="8.0740375"><ele>153.66666666666669</ele><time>2026-03-29T14:11:07.195Z</time></trkpt><trkpt lat="45.174123" lon="8.0739875"><ele>154.0</ele><time>2026-03-29T14:11:09.19Z</time></trkpt><trkpt lat="45.1740141" lon="8.0739546"><ele>154.33333333333334</ele><time>2026-03-29T14:11:11.188Z</time></trkpt><trkpt lat="45.1739441" lon="8.073949"><ele>154.66666666666669</ele><time>2026-03-29T14:11:12.185Z</time></trkpt><trkpt lat="45.1738686" lon="8.073952"><ele>155.0</ele><time>2026-03-29T14:11:13.189Z</time></trkpt><trkpt lat="45.1737915" lon="8.0739699"><ele>155.33333333333334</ele><time>2026-03-29T14:11:14.208Z</time></trkpt><trkpt lat="45.1737168" lon="8.0740037"><ele>155.66666666666666</ele><time>2026-03-29T14:11:15.19Z</time></trkpt><trkpt lat="45.1736464" lon="8.0740502"><ele>156.0</ele><time>2026-03-29T14:11:16.185Z</time></trkpt><trkpt lat="45.1735776" lon="8.0741041"><ele>155.83333333333334</ele><time>2026-03-29T14:11:17.188Z</time></trkpt><trkpt lat="45.1735189" lon="8.0741561"><ele>155.66666666666666</ele><time>2026-03-29T14:11:18.187Z</time></trkpt><trkpt lat="45.1734609" lon="8.0742001"><ele>155.5</ele><time>2026-03-29T14:11:19.192Z</time></trkpt><trkpt lat="45.1733508" lon="8.0742627"><ele>155.33333333333331</ele><time>2026-03-29T14:11:21.187Z</time></trkpt><trkpt lat="45.1732913" lon="8.0742924"><ele>155.16666666666666</ele><time>2026-03-29T14:11:22.187Z</time></trkpt><trkpt lat="45.1732238" lon="8.0743259"><ele>155.0</ele><time>2026-03-29T14:11:23.188Z</time></trkpt><trkpt lat="45.1731508" lon="8.0743599"><ele>155.0</ele><time>2026-03-29T14:11:24.214Z</time></trkpt><trkpt lat="45.1730706" lon="8.0744107"><ele>155.0</ele><time>2026-03-29T14:11:25.194Z</time></trkpt><trkpt lat="45.1729942" lon="8.0744707"><ele>155.0</ele><time>2026-03-29T14:11:26.19Z</time></trkpt><trkpt lat="45.1729353" lon="8.0745403"><ele>155.0</ele><time>2026-03-29T14:11:27.22Z</time></trkpt><trkpt lat="45.1728952" lon="8.0746217"><ele>155.0</ele><time>2026-03-29T14:11:28.187Z</time></trkpt><trkpt lat="45.1728697" lon="8.0747164"><ele>155.0</ele><time>2026-03-29T14:11:29.201Z</time></trkpt><trkpt lat="45.1728543" lon="8.0748346"><ele>154.6</ele><time>2026-03-29T14:11:30.185Z</time></trkpt><trkpt lat="45.1728466" lon="8.0749725"><ele>154.2</ele><time>2026-03-29T14:11:31.205Z</time></trkpt><trkpt lat="45.1728403" lon="8.0751209"><ele>153.8</ele><time>2026-03-29T14:11:32.217Z</time></trkpt><trkpt lat="45.172827" lon="8.0752663"><ele>153.4</ele><time>2026-03-29T14:11:33.195Z</time></trkpt><trkpt lat="45.1728035" lon="8.0754044"><ele>153.0</ele><time>2026-03-29T14:11:34.186Z</time></trkpt><trkpt lat="45.1727723" lon="8.0755362"><ele>153.0</ele><time>2026-03-29T14:11:35.182Z</time></trkpt><trkpt lat="45.1727342" lon="8.0756635"><ele>153.0</ele><time>2026-03-29T14:11:36.184Z</time></trkpt><trkpt lat="45.1726879" lon="8.0757901"><ele>153.0</ele><time>2026-03-29T14:11:37.187Z</time></trkpt><trkpt lat="45.1726434" lon="8.0759128"><ele>153.0</ele><time>2026-03-29T14:11:38.187Z</time></trkpt><trkpt lat="45.1726026" lon="8.0760375"><ele>153.0</ele><time>2026-03-29T14:11:39.21Z</time></trkpt><trkpt lat="45.1725697" lon="8.0761658"><ele>153.0</ele><time>2026-03-29T14:11:40.193Z</time></trkpt><trkpt lat="45.1725433" lon="8.0762978"><ele>153.0</ele><time>2026-03-29T14:11:41.183Z</time></trkpt><trkpt lat="45.1725206" lon="8.0764321"><ele>153.0</ele><time>2026-03-29T14:11:42.193Z</time></trkpt><trkpt lat="45.1725012" lon="8.0765673"><ele>153.0</ele><time>2026-03-29T14:11:43.203Z</time></trkpt><trkpt lat="45.1724819" lon="8.0767007"><ele>153.0</ele><time>2026-03-29T14:11:44.187Z</time></trkpt><trkpt lat="45.172464" lon="8.0768362"><ele>152.8</ele><time>2026-03-29T14:11:45.193Z</time></trkpt><trkpt lat="45.1724444" lon="8.0769686"><ele>152.60000000000002</ele><time>2026-03-29T14:11:46.186Z</time></trkpt><trkpt lat="45.1724224" lon="8.0771045"><ele>152.39999999999998</ele><time>2026-03-29T14:11:47.204Z</time></trkpt><trkpt lat="45.1723976" lon="8.0772437"><ele>152.2</ele><time>2026-03-29T14:11:48.185Z</time></trkpt><trkpt lat="45.1723713" lon="8.0773782"><ele>152.0</ele><time>2026-03-29T14:11:49.194Z</time></trkpt><trkpt lat="45.1723472" lon="8.0775057"><ele>152.5</ele><time>2026-03-29T14:11:50.188Z</time></trkpt><trkpt lat="45.1723238" lon="8.0776289"><ele>153.0</ele><time>2026-03-29T14:11:51.187Z</time></trkpt><trkpt lat="45.1723045" lon="8.0777407"><ele>153.5</ele><time>2026-03-29T14:11:52.193Z</time></trkpt><trkpt lat="45.1722872" lon="8.0778463"><ele>154.0</ele><time>2026-03-29T14:11:53.187Z</time></trkpt><trkpt lat="45.1722661" lon="8.0779556"><ele>154.5</ele><time>2026-03-29T14:11:54.185Z</time></trkpt><trkpt lat="45.1722388" lon="8.0780596"><ele>155.0</ele><time>2026-03-29T14:11:55.197Z</time></trkpt><trkpt lat="45.172206" lon="8.0781563"><ele>155.0</ele><time>2026-03-29T14:11:56.195Z</time></trkpt><trkpt lat="45.1721661" lon="8.0782439"><ele>155.0</ele><time>2026-03-29T14:11:57.202Z</time></trkpt><trkpt lat="45.1721162" lon="8.0783185"><ele>155.0</ele><time>2026-03-29T14:11:58.231Z</time></trkpt><trkpt lat="45.1720626" lon="8.0783806"><ele>155.0</ele><time>2026-03-29T14:11:59.191Z</time></trkpt><trkpt lat="45.1720001" lon="8.0784277"><ele>155.0</ele><time>2026-03-29T14:12:00.187Z</time></trkpt><trkpt lat="45.1719385" lon="8.0784594"><ele>155.0</ele><time>2026-03-29T14:12:01.197Z</time></trkpt><trkpt lat="45.171831" lon="8.0785476"><ele>155.16666666666666</ele><time>2026-03-29T14:12:03.182Z</time></trkpt><trkpt lat="45.1717898" lon="8.0786205"><ele>155.33333333333331</ele><time>2026-03-29T14:12:04.184Z</time></trkpt><trkpt lat="45.1717597" lon="8.0787108"><ele>155.5</ele><time>2026-03-29T14:12:05.198Z</time></trkpt><trkpt lat="45.1717408" lon="8.0788076"><ele>155.66666666666666</ele><time>2026-03-29T14:12:06.197Z</time></trkpt><trkpt lat="45.1717216" lon="8.0789082"><ele>155.83333333333334</ele><time>2026-03-29T14:12:07.192Z</time></trkpt><trkpt lat="45.1716916" lon="8.0789959"><ele>156.0</ele><time>2026-03-29T14:12:08.188Z</time></trkpt><trkpt lat="45.1716151" lon="8.0791242"><ele>155.71428571428572</ele><time>2026-03-29T14:12:10.193Z</time></trkpt><trkpt lat="45.1715488" lon="8.07917"><ele>155.42857142857142</ele><time>2026-03-29T14:12:11.189Z</time></trkpt><trkpt lat="45.171477" lon="8.0792189"><ele>155.14285714285714</ele><time>2026-03-29T14:12:12.201Z</time></trkpt><trkpt lat="45.1714181" lon="8.0792779"><ele>154.85714285714286</ele><time>2026-03-29T14:12:13.189Z</time></trkpt><trkpt lat="45.1713605" lon="8.0793403"><ele>154.57142857142856</ele><time>2026-03-29T14:12:14.187Z</time></trkpt><trkpt lat="45.1713099" lon="8.0794124"><ele>154.28571428571428</ele><time>2026-03-29T14:12:15.187Z</time></trkpt><trkpt lat="45.1712627" lon="8.0794864"><ele>154.0</ele><time>2026-03-29T14:12:16.195Z</time></trkpt><trkpt lat="45.1712107" lon="8.0795543"><ele>154.0</ele><time>2026-03-29T14:12:17.221Z</time></trkpt><trkpt lat="45.1711552" lon="8.0796036"><ele>154.0</ele><time>2026-03-29T14:12:18.189Z</time></trkpt><trkpt lat="45.1710373" lon="8.0796166"><ele>154.0</ele><time>2026-03-29T14:12:20.191Z</time></trkpt><trkpt lat="45.1709445" lon="8.0795803"><ele>154.0</ele><time>2026-03-29T14:12:22.189Z</time></trkpt><trkpt lat="45.1708733" lon="8.0795567"><ele>154.0</ele><time>2026-03-29T14:12:23.19Z</time></trkpt><trkpt lat="45.1707908" lon="8.0795271"><ele>154.0</ele><time>2026-03-29T14:12:24.192Z</time></trkpt><trkpt lat="45.1706964" lon="8.0794868"><ele>153.6</ele><time>2026-03-29T14:12:25.199Z</time></trkpt><trkpt lat="45.1705987" lon="8.079437"><ele>153.2</ele><time>2026-03-29T14:12:26.192Z</time></trkpt><trkpt lat="45.170497" lon="8.0793851"><ele>152.79999999999998</ele><time>2026-03-29T14:12:27.19Z</time></trkpt><trkpt lat="45.1704032" lon="8.0793339"><ele>152.4</ele><time>2026-03-29T14:12:28.188Z</time></trkpt><trkpt lat="45.170308" lon="8.079284"><ele>152.0</ele><time>2026-03-29T14:12:29.183Z</time></trkpt><trkpt lat="45.1702105" lon="8.0792318"><ele>152.0</ele><time>2026-03-29T14:12:30.186Z</time></trkpt><trkpt lat="45.1701179" lon="8.0791813"><ele>152.0</ele><time>2026-03-29T14:12:31.196Z</time></trkpt><trkpt lat="45.1700243" lon="8.0791322"><ele>152.0</ele><time>2026-03-29T14:12:32.224Z</time></trkpt><trkpt lat="45.1699217" lon="8.0790822"><ele>152.0</ele><time>2026-03-29T14:12:33.199Z</time></trkpt><trkpt lat="45.1698262" lon="8.0790312"><ele>152.0</ele><time>2026-03-29T14:12:34.195Z</time></trkpt><trkpt lat="45.1697388" lon="8.0789822"><ele>152.33333333333331</ele><time>2026-03-29T14:12:35.185Z</time></trkpt><trkpt lat="45.1696582" lon="8.0789366"><ele>152.66666666666666</ele><time>2026-03-29T14:12:36.185Z</time></trkpt><trkpt lat="45.1695825" lon="8.0788955"><ele>153.0</ele><time>2026-03-29T14:12:37.188Z</time></trkpt><trkpt lat="45.1695169" lon="8.0788558"><ele>153.33333333333334</ele><time>2026-03-29T14:12:38.191Z</time></trkpt><trkpt lat="45.1694223" lon="8.0788165"><ele>153.66666666666669</ele><time>2026-03-29T14:12:40.193Z</time></trkpt><trkpt lat="45.1693635" lon="8.0788569"><ele>154.0</ele><time>2026-03-29T14:12:42.219Z</time></trkpt><trkpt lat="45.1693334" lon="8.0789567"><ele>155.0</ele><time>2026-03-29T14:12:44.189Z</time></trkpt><trkpt lat="45.1693165" lon="8.0791548"><ele>156.0</ele><time>2026-03-29T14:12:46.184Z</time></trkpt><trkpt lat="45.1693154" lon="8.0792906"><ele>157.0</ele><time>2026-03-29T14:12:47.191Z</time></trkpt><trkpt lat="45.1693131" lon="8.079442"><ele>158.0</ele><time>2026-03-29T14:12:48.194Z</time></trkpt><trkpt lat="45.1693047" lon="8.0795955"><ele>158.0</ele><time>2026-03-29T14:12:49.188Z</time></trkpt><trkpt lat="45.1692946" lon="8.0797479"><ele>158.0</ele><time>2026-03-29T14:12:50.184Z</time></trkpt><trkpt lat="45.169278" lon="8.0798992"><ele>158.0</ele><time>2026-03-29T14:12:51.191Z</time></trkpt><trkpt lat="45.1692602" lon="8.0800533"><ele>158.0</ele><time>2026-03-29T14:12:52.193Z</time></trkpt><trkpt lat="45.1692405" lon="8.0802158"><ele>158.0</ele><time>2026-03-29T14:12:53.201Z</time></trkpt><trkpt lat="45.1692193" lon="8.0803851"><ele>158.0</ele><time>2026-03-29T14:12:54.191Z</time></trkpt><trkpt lat="45.1691995" lon="8.0805528"><ele>158.0</ele><time>2026-03-29T14:12:55.192Z</time></trkpt><trkpt lat="45.1691821" lon="8.0807089"><ele>158.0</ele><time>2026-03-29T14:12:56.209Z</time></trkpt><trkpt lat="45.1691671" lon="8.0808503"><ele>158.0</ele><time>2026-03-29T14:12:57.188Z</time></trkpt><trkpt lat="45.1691532" lon="8.0809816"><ele>158.0</ele><time>2026-03-29T14:12:58.219Z</time></trkpt><trkpt lat="45.1691398" lon="8.0811036"><ele>157.16666666666666</ele><time>2026-03-29T14:12:59.192Z</time></trkpt><trkpt lat="45.1691265" lon="8.0812167"><ele>156.33333333333331</ele><time>2026-03-29T14:13:00.194Z</time></trkpt><trkpt lat="45.1691118" lon="8.0813121"><ele>155.5</ele><time>2026-03-29T14:13:01.196Z</time></trkpt><trkpt lat="45.169087" lon="8.0814507"><ele>154.66666666666666</ele><time>2026-03-29T14:13:03.194Z</time></trkpt><trkpt lat="45.1690186" lon="8.0814886"><ele>153.83333333333334</ele><time>2026-03-29T14:13:08.185Z</time></trkpt><trkpt lat="45.1689749" lon="8.0814084"><ele>153.0</ele><time>2026-03-29T14:13:10.23Z</time></trkpt><trkpt lat="45.1689171" lon="8.0812704"><ele>152.6</ele><time>2026-03-29T14:13:12.193Z</time></trkpt><trkpt lat="45.168842" lon="8.0811986"><ele>152.20000000000002</ele><time>2026-03-29T14:13:13.192Z</time></trkpt><trkpt lat="45.1687577" lon="8.0811015"><ele>151.8</ele><time>2026-03-29T14:13:14.228Z</time></trkpt><trkpt lat="45.1686666" lon="8.0810023"><ele>151.4</ele><time>2026-03-29T14:13:15.184Z</time></trkpt><trkpt lat="45.168572" lon="8.0808928"><ele>151.0</ele><time>2026-03-29T14:13:16.192Z</time></trkpt><trkpt lat="45.1684843" lon="8.0807902"><ele>151.4</ele><time>2026-03-29T14:13:17.196Z</time></trkpt><trkpt lat="45.1683969" lon="8.0807006"><ele>151.8</ele><time>2026-03-29T14:13:18.195Z</time></trkpt><trkpt lat="45.168299" lon="8.0806037"><ele>152.20000000000002</ele><time>2026-03-29T14:13:19.2Z</time></trkpt><trkpt lat="45.168217" lon="8.0805153"><ele>152.6</ele><time>2026-03-29T14:13:20.199Z</time></trkpt><trkpt lat="45.168133" lon="8.080417"><ele>153.0</ele><time>2026-03-29T14:13:21.196Z</time></trkpt><trkpt lat="45.1680539" lon="8.0803354"><ele>153.16666666666666</ele><time>2026-03-29T14:13:22.213Z</time></trkpt><trkpt lat="45.167984" lon="8.0802537"><ele>153.33333333333334</ele><time>2026-03-29T14:13:23.186Z</time></trkpt><trkpt lat="45.1679101" lon="8.0801624"><ele>153.5</ele><time>2026-03-29T14:13:24.221Z</time></trkpt><trkpt lat="45.1678509" lon="8.0800794"><ele>153.66666666666669</ele><time>2026-03-29T14:13:25.184Z</time></trkpt><trkpt lat="45.1678019" lon="8.0800082"><ele>153.83333333333334</ele><time>2026-03-29T14:13:26.192Z</time></trkpt><trkpt lat="45.1677466" lon="8.0799051"><ele>154.0</ele><time>2026-03-29T14:13:27.22Z</time></trkpt><trkpt lat="45.1677083" lon="8.0797508"><ele>154.83333333333334</ele><time>2026-03-29T14:13:29.188Z</time></trkpt><trkpt lat="45.167673" lon="8.0796489"><ele>155.66666666666669</ele><time>2026-03-29T14:13:30.182Z</time></trkpt><trkpt lat="45.167653" lon="8.0795476"><ele>156.5</ele><time>2026-03-29T14:13:31.186Z</time></trkpt><trkpt lat="45.1676409" lon="8.0794425"><ele>157.33333333333334</ele><time>2026-03-29T14:13:32.182Z</time></trkpt><trkpt lat="45.1676242" lon="8.0793235"><ele>158.16666666666666</ele><time>2026-03-29T14:13:33.202Z</time></trkpt><trkpt lat="45.1676109" lon="8.079216"><ele>159.0</ele><time>2026-03-29T14:13:34.218Z</time></trkpt><trkpt lat="45.1675972" lon="8.0791159"><ele>158.2</ele><time>2026-03-29T14:13:35.191Z</time></trkpt><trkpt lat="45.1675874" lon="8.0789416"><ele>157.4</ele><time>2026-03-29T14:13:37.197Z</time></trkpt><trkpt lat="45.167582" lon="8.0787544"><ele>156.6</ele><time>2026-03-29T14:13:39.193Z</time></trkpt><trkpt lat="45.16758" lon="8.0786598"><ele>155.8</ele><time>2026-03-29T14:13:40.198Z</time></trkpt><trkpt lat="45.1675779" lon="8.0785655"><ele>155.0</ele><time>2026-03-29T14:13:41.185Z</time></trkpt><trkpt lat="45.1675781" lon="8.078455"><ele>155.0</ele><time>2026-03-29T14:13:42.195Z</time></trkpt><trkpt lat="45.1675751" lon="8.0783251"><ele>155.0</ele><time>2026-03-29T14:13:43.183Z</time></trkpt><trkpt lat="45.1675729" lon="8.0781911"><ele>155.0</ele><time>2026-03-29T14:13:44.192Z</time></trkpt><trkpt lat="45.1675718" lon="8.0780669"><ele>155.0</ele><time>2026-03-29T14:13:45.186Z</time></trkpt><trkpt lat="45.167573" lon="8.0779559"><ele>155.0</ele><time>2026-03-29T14:13:46.192Z</time></trkpt><trkpt lat="45.1675727" lon="8.077856"><ele>155.0</ele><time>2026-03-29T14:13:47.203Z</time></trkpt><trkpt lat="45.167578" lon="8.0776843"><ele>155.33333333333331</ele><time>2026-03-29T14:13:49.186Z</time></trkpt><trkpt lat="45.1675815" lon="8.0775743"><ele>155.66666666666666</ele><time>2026-03-29T14:13:50.184Z</time></trkpt><trkpt lat="45.1675795" lon="8.0774538"><ele>156.0</ele><time>2026-03-29T14:13:51.197Z</time></trkpt><trkpt lat="45.1675792" lon="8.0773569"><ele>156.33333333333334</ele><time>2026-03-29T14:13:52.224Z</time></trkpt><trkpt lat="45.1675759" lon="8.0772479"><ele>156.66666666666669</ele><time>2026-03-29T14:13:53.189Z</time></trkpt><trkpt lat="45.1675642" lon="8.0771511"><ele>157.0</ele><time>2026-03-29T14:13:54.191Z</time></trkpt><trkpt lat="45.1675205" lon="8.0769918"><ele>157.0</ele><time>2026-03-29T14:13:56.184Z</time></trkpt><trkpt lat="45.1674376" lon="8.0768881"><ele>157.0</ele><time>2026-03-29T14:13:58.2Z</time></trkpt><trkpt lat="45.1673612" lon="8.0768824"><ele>157.0</ele><time>2026-03-29T14:14:00.204Z</time></trkpt><trkpt lat="45.1672591" lon="8.07691"><ele>157.0</ele><time>2026-03-29T14:14:02.184Z</time></trkpt><trkpt lat="45.1671849" lon="8.076904"><ele>157.0</ele><time>2026-03-29T14:14:03.19Z</time></trkpt><trkpt lat="45.167114" lon="8.076905"><ele>157.0</ele><time>2026-03-29T14:14:04.19Z</time></trkpt><trkpt lat="45.1670424" lon="8.0769028"><ele>157.0</ele><time>2026-03-29T14:14:05.186Z</time></trkpt><trkpt lat="45.1669259" lon="8.0768856"><ele>157.0</ele><time>2026-03-29T14:14:07.186Z</time></trkpt><trkpt lat="45.1668531" lon="8.0768711"><ele>157.0</ele><time>2026-03-29T14:14:08.192Z</time></trkpt><trkpt lat="45.1667828" lon="8.0768585"><ele>157.0</ele><time>2026-03-29T14:14:09.208Z</time></trkpt><trkpt lat="45.1666533" lon="8.0768426"><ele>157.0</ele><time>2026-03-29T14:14:11.194Z</time></trkpt><trkpt lat="45.1665804" lon="8.0768377"><ele>156.5</ele><time>2026-03-29T14:14:12.192Z</time></trkpt><trkpt lat="45.1665046" lon="8.0768363"><ele>156.0</ele><time>2026-03-29T14:14:13.189Z</time></trkpt><trkpt lat="45.1664171" lon="8.0768274"><ele>155.5</ele><time>2026-03-29T14:14:14.184Z</time></trkpt><trkpt lat="45.1663196" lon="8.0768237"><ele>155.0</ele><time>2026-03-29T14:14:15.196Z</time></trkpt><trkpt lat="45.1662369" lon="8.0768264"><ele>154.5</ele><time>2026-03-29T14:14:16.195Z</time></trkpt><trkpt lat="45.1661453" lon="8.0768237"><ele>154.0</ele><time>2026-03-29T14:14:17.19Z</time></trkpt><trkpt lat="45.166056" lon="8.0768119"><ele>154.0</ele><time>2026-03-29T14:14:18.188Z</time></trkpt><trkpt lat="45.1659669" lon="8.0768069"><ele>154.0</ele><time>2026-03-29T14:14:19.187Z</time></trkpt><trkpt lat="45.1658777" lon="8.0767922"><ele>154.0</ele><time>2026-03-29T14:14:20.189Z</time></trkpt><trkpt lat="45.1657772" lon="8.0767778"><ele>154.0</ele><time>2026-03-29T14:14:21.183Z</time></trkpt><trkpt lat="45.1656813" lon="8.0767654"><ele>154.0</ele><time>2026-03-29T14:14:22.193Z</time></trkpt><trkpt lat="45.1655729" lon="8.0767448"><ele>153.83333333333334</ele><time>2026-03-29T14:14:23.187Z</time></trkpt><trkpt lat="45.1654973" lon="8.0767304"><ele>153.66666666666669</ele><time>2026-03-29T14:14:24.186Z</time></trkpt><trkpt lat="45.1653917" lon="8.0767095"><ele>153.5</ele><time>2026-03-29T14:14:25.188Z</time></trkpt><trkpt lat="45.1653235" lon="8.0766839"><ele>153.33333333333334</ele><time>2026-03-29T14:14:26.199Z</time></trkpt><trkpt lat="45.1652339" lon="8.0766668"><ele>153.16666666666666</ele><time>2026-03-29T14:14:27.185Z</time></trkpt><trkpt lat="45.1651552" lon="8.0766451"><ele>153.0</ele><time>2026-03-29T14:14:28.182Z</time></trkpt><trkpt lat="45.1650721" lon="8.0766225"><ele>152.8</ele><time>2026-03-29T14:14:29.184Z</time></trkpt><trkpt lat="45.1649805" lon="8.0765891"><ele>152.60000000000002</ele><time>2026-03-29T14:14:30.185Z</time></trkpt><trkpt lat="45.1649147" lon="8.0765377"><ele>152.39999999999998</ele><time>2026-03-29T14:14:31.202Z</time></trkpt><trkpt lat="45.1647934" lon="8.0764348"><ele>152.2</ele><time>2026-03-29T14:14:33.184Z</time></trkpt><trkpt lat="45.1647474" lon="8.0763706"><ele>152.0</ele><time>2026-03-29T14:14:34.189Z</time></trkpt><trkpt lat="45.1646561" lon="8.0762541"><ele>154.0</ele><time>2026-03-29T14:14:36.19Z</time></trkpt><trkpt lat="45.1645712" lon="8.0762229"><ele>156.0</ele><time>2026-03-29T14:14:38.194Z</time></trkpt><trkpt lat="45.1644543" lon="8.0761777"><ele>158.0</ele><time>2026-03-29T14:14:40.212Z</time></trkpt><trkpt lat="45.1643797" lon="8.0761288"><ele>160.0</ele><time>2026-03-29T14:14:42.189Z</time></trkpt><trkpt lat="45.1642872" lon="8.0761014"><ele>162.0</ele><time>2026-03-29T14:14:50.195Z</time></trkpt><trkpt lat="45.1642004" lon="8.0760747"><ele>162.0</ele><time>2026-03-29T14:14:55.196Z</time></trkpt><trkpt lat="45.1641288" lon="8.0759992"><ele>162.0</ele><time>2026-03-29T14:14:57.187Z</time></trkpt><trkpt lat="45.1640492" lon="8.0759391"><ele>162.0</ele><time>2026-03-29T14:14:59.186Z</time></trkpt><trkpt lat="45.1639581" lon="8.0758789"><ele>162.0</ele><time>2026-03-29T14:15:01.194Z</time></trkpt><trkpt lat="45.163864" lon="8.0758123"><ele>162.0</ele><time>2026-03-29T14:15:03.191Z</time></trkpt><trkpt lat="45.1637763" lon="8.0757494"><ele>161.75</ele><time>2026-03-29T14:15:05.182Z</time></trkpt><trkpt lat="45.1636949" lon="8.0756869"><ele>161.5</ele><time>2026-03-29T14:15:07.187Z</time></trkpt><trkpt lat="45.163623" lon="8.0756318"><ele>161.25</ele><time>2026-03-29T14:15:09.187Z</time></trkpt><trkpt lat="45.1634715" lon="8.0755191"><ele>161.0</ele><time>2026-03-29T14:15:11.183Z</time></trkpt><trkpt lat="45.1633504" lon="8.0755008"><ele>161.0</ele><time>2026-03-29T14:15:14.188Z</time></trkpt><trkpt lat="45.1632665" lon="8.0754831"><ele>161.0</ele><time>2026-03-29T14:15:15.19Z</time></trkpt><trkpt lat="45.1631947" lon="8.0754841"><ele>161.0</ele><time>2026-03-29T14:15:16.196Z</time></trkpt><trkpt lat="45.1631218" lon="8.0754891"><ele>161.0</ele><time>2026-03-29T14:15:17.192Z</time></trkpt><trkpt lat="45.1630573" lon="8.075501"><ele>161.0</ele><time>2026-03-29T14:15:18.188Z</time></trkpt><trkpt lat="45.162988" lon="8.0755099"><ele>161.0</ele><time>2026-03-29T14:15:19.197Z</time></trkpt><trkpt lat="45.1628693" lon="8.0755279"><ele>161.0</ele><time>2026-03-29T14:15:21.187Z</time></trkpt><trkpt lat="45.1628025" lon="8.0755346"><ele>161.0</ele><time>2026-03-29T14:15:22.191Z</time></trkpt><trkpt lat="45.162733" lon="8.0755373"><ele>161.0</ele><time>2026-03-29T14:15:23.189Z</time></trkpt><trkpt lat="45.1626033" lon="8.0755502"><ele>161.0</ele><time>2026-03-29T14:15:25.194Z</time></trkpt><trkpt lat="45.1625214" lon="8.0755572"><ele>161.0</ele><time>2026-03-29T14:15:26.196Z</time></trkpt><trkpt lat="45.1624475" lon="8.0755635"><ele>161.0</ele><time>2026-03-29T14:15:27.184Z</time></trkpt><trkpt lat="45.1623849" lon="8.0755748"><ele>161.16666666666666</ele><time>2026-03-29T14:15:28.188Z</time></trkpt><trkpt lat="45.1623095" lon="8.0755758"><ele>161.33333333333331</ele><time>2026-03-29T14:15:29.196Z</time></trkpt><trkpt lat="45.1622348" lon="8.075573"><ele>161.5</ele><time>2026-03-29T14:15:30.191Z</time></trkpt><trkpt lat="45.1621611" lon="8.0755826"><ele>161.66666666666666</ele><time>2026-03-29T14:15:31.19Z</time></trkpt><trkpt lat="45.1620903" lon="8.0756009"><ele>161.83333333333334</ele><time>2026-03-29T14:15:32.184Z</time></trkpt><trkpt lat="45.1619779" lon="8.0756032"><ele>162.0</ele><time>2026-03-29T14:15:34.194Z</time></trkpt><trkpt lat="45.1618993" lon="8.0755389"><ele>162.0</ele><time>2026-03-29T14:15:37.196Z</time></trkpt><trkpt lat="45.1618382" lon="8.0753806"><ele>162.0</ele><time>2026-03-29T14:15:39.199Z</time></trkpt><trkpt lat="45.1618046" lon="8.0752824"><ele>162.0</ele><time>2026-03-29T14:15:40.186Z</time></trkpt><trkpt lat="45.1617612" lon="8.0751845"><ele>162.0</ele><time>2026-03-29T14:15:41.223Z</time></trkpt><trkpt lat="45.1616971" lon="8.0750797"><ele>162.0</ele><time>2026-03-29T14:15:42.182Z</time></trkpt><trkpt lat="45.1616251" lon="8.0749818"><ele>162.83333333333334</ele><time>2026-03-29T14:15:43.186Z</time></trkpt><trkpt lat="45.1615709" lon="8.0749332"><ele>163.66666666666666</ele><time>2026-03-29T14:15:44.185Z</time></trkpt><trkpt lat="45.1615056" lon="8.0748807"><ele>164.5</ele><time>2026-03-29T14:15:45.189Z</time></trkpt><trkpt lat="45.1613832" lon="8.074847"><ele>165.33333333333331</ele><time>2026-03-29T14:15:47.191Z</time></trkpt><trkpt lat="45.1613047" lon="8.0748344"><ele>166.16666666666666</ele><time>2026-03-29T14:15:48.188Z</time></trkpt><trkpt lat="45.1612295" lon="8.0748332"><ele>167.0</ele><time>2026-03-29T14:15:49.19Z</time></trkpt><trkpt lat="45.1611514" lon="8.074831"><ele>167.0</ele><time>2026-03-29T14:15:50.187Z</time></trkpt><trkpt lat="45.1610678" lon="8.0748245"><ele>167.0</ele><time>2026-03-29T14:15:51.197Z</time></trkpt><trkpt lat="45.1609926" lon="8.074821"><ele>167.0</ele><time>2026-03-29T14:15:52.19Z</time></trkpt><trkpt lat="45.1609238" lon="8.0748181"><ele>167.0</ele><time>2026-03-29T14:15:53.19Z</time></trkpt><trkpt lat="45.1608488" lon="8.0748119"><ele>167.0</ele><time>2026-03-29T14:15:54.189Z</time></trkpt><trkpt lat="45.1607769" lon="8.0748022"><ele>167.0</ele><time>2026-03-29T14:15:55.192Z</time></trkpt><trkpt lat="45.160703" lon="8.074796"><ele>167.0</ele><time>2026-03-29T14:15:56.187Z</time></trkpt><trkpt lat="45.1606372" lon="8.0747837"><ele>166.5</ele><time>2026-03-29T14:15:57.191Z</time></trkpt><trkpt lat="45.160563" lon="8.0747635"><ele>166.0</ele><time>2026-03-29T14:15:58.194Z</time></trkpt><trkpt lat="45.1604899" lon="8.0747435"><ele>165.5</ele><time>2026-03-29T14:15:59.191Z</time></trkpt><trkpt lat="45.1604144" lon="8.074714"><ele>165.0</ele><time>2026-03-29T14:16:00.196Z</time></trkpt><trkpt lat="45.1603389" lon="8.0746801"><ele>164.5</ele><time>2026-03-29T14:16:01.19Z</time></trkpt><trkpt lat="45.1602567" lon="8.0746362"><ele>164.0</ele><time>2026-03-29T14:16:02.189Z</time></trkpt><trkpt lat="45.1601777" lon="8.0745923"><ele>164.0</ele><time>2026-03-29T14:16:03.188Z</time></trkpt><trkpt lat="45.1600929" lon="8.0745436"><ele>164.0</ele><time>2026-03-29T14:16:04.201Z</time></trkpt><trkpt lat="45.1600035" lon="8.0744935"><ele>164.0</ele><time>2026-03-29T14:16:05.192Z</time></trkpt><trkpt lat="45.1599161" lon="8.0744498"><ele>164.0</ele><time>2026-03-29T14:16:06.187Z</time></trkpt><trkpt lat="45.1598198" lon="8.0744021"><ele>164.0</ele><time>2026-03-29T14:16:07.19Z</time></trkpt><trkpt lat="45.159734" lon="8.0743635"><ele>165.0</ele><time>2026-03-29T14:16:08.202Z</time></trkpt><trkpt lat="45.1596468" lon="8.0743219"><ele>166.0</ele><time>2026-03-29T14:16:09.191Z</time></trkpt><trkpt lat="45.1595557" lon="8.0742854"><ele>167.0</ele><time>2026-03-29T14:16:10.197Z</time></trkpt><trkpt lat="45.1594591" lon="8.0742467"><ele>168.0</ele><time>2026-03-29T14:16:11.185Z</time></trkpt><trkpt lat="45.1593653" lon="8.0742141"><ele>169.0</ele><time>2026-03-29T14:16:12.199Z</time></trkpt><trkpt lat="45.1592749" lon="8.0741854"><ele>169.0</ele><time>2026-03-29T14:16:13.196Z</time></trkpt><trkpt lat="45.1591888" lon="8.0741581"><ele>169.0</ele><time>2026-03-29T14:16:14.189Z</time></trkpt><trkpt lat="45.1591013" lon="8.0741391"><ele>169.0</ele><time>2026-03-29T14:16:15.202Z</time></trkpt><trkpt lat="45.1590258" lon="8.0741283"><ele>169.0</ele><time>2026-03-29T14:16:16.19Z</time></trkpt><trkpt lat="45.1589419" lon="8.0741234"><ele>169.0</ele><time>2026-03-29T14:16:17.187Z</time></trkpt><trkpt lat="45.1588564" lon="8.0741215"><ele>169.0</ele><time>2026-03-29T14:16:18.208Z</time></trkpt><trkpt lat="45.1587824" lon="8.074123"><ele>169.2</ele><time>2026-03-29T14:16:19.191Z</time></trkpt><trkpt lat="45.1587191" lon="8.0741249"><ele>169.39999999999998</ele><time>2026-03-29T14:16:20.19Z</time></trkpt><trkpt lat="45.1586098" lon="8.0741472"><ele>169.6</ele><time>2026-03-29T14:16:22.209Z</time></trkpt><trkpt lat="45.1585071" lon="8.074187"><ele>169.8</ele><time>2026-03-29T14:16:24.186Z</time></trkpt><trkpt lat="45.1584047" lon="8.0742317"><ele>170.0</ele><time>2026-03-29T14:16:26.189Z</time></trkpt><trkpt lat="45.1583299" lon="8.0742373"><ele>170.0</ele><time>2026-03-29T14:16:28.203Z</time></trkpt><trkpt lat="45.1582732" lon="8.074197"><ele>170.0</ele><time>2026-03-29T14:16:30.202Z</time></trkpt><trkpt lat="45.1581918" lon="8.074164"><ele>170.0</ele><time>2026-03-29T14:16:33.182Z</time></trkpt><trkpt lat="45.1580044" lon="8.0739797"><ele>170.0</ele><time>2026-03-29T14:16:46.181Z</time></trkpt><trkpt lat="45.1579562" lon="8.073918"><ele>170.0</ele><time>2026-03-29T14:16:47.189Z</time></trkpt><trkpt lat="45.157897" lon="8.0738366"><ele>170.2</ele><time>2026-03-29T14:16:48.182Z</time></trkpt><trkpt lat="45.1578277" lon="8.0737429"><ele>170.4</ele><time>2026-03-29T14:16:49.18Z</time></trkpt><trkpt lat="45.1577691" lon="8.0736358"><ele>170.60000000000002</ele><time>2026-03-29T14:16:50.192Z</time></trkpt><trkpt lat="45.1577096" lon="8.0735151"><ele>170.8</ele><time>2026-03-29T14:16:51.183Z</time></trkpt><trkpt lat="45.1576601" lon="8.0733678"><ele>171.0</ele><time>2026-03-29T14:16:52.21Z</time></trkpt><trkpt lat="45.1576191" lon="8.0731961"><ele>171.25</ele><time>2026-03-29T14:16:53.231Z</time></trkpt><trkpt lat="45.1575778" lon="8.0730079"><ele>171.5</ele><time>2026-03-29T14:16:54.182Z</time></trkpt><trkpt lat="45.157531" lon="8.0728181"><ele>171.75</ele><time>2026-03-29T14:16:55.184Z</time></trkpt><trkpt lat="45.1574842" lon="8.0726386"><ele>172.0</ele><time>2026-03-29T14:16:56.191Z</time></trkpt><trkpt lat="45.157439" lon="8.0724725"><ele>172.25</ele><time>2026-03-29T14:16:57.179Z</time></trkpt><trkpt lat="45.1573939" lon="8.0723149"><ele>172.5</ele><time>2026-03-29T14:16:58.182Z</time></trkpt><trkpt lat="45.1573472" lon="8.0721549"><ele>172.75</ele><time>2026-03-29T14:16:59.179Z</time></trkpt><trkpt lat="45.1572961" lon="8.0719881"><ele>173.0</ele><time>2026-03-29T14:17:00.179Z</time></trkpt><trkpt lat="45.1572421" lon="8.0718091"><ele>173.0</ele><time>2026-03-29T14:17:01.191Z</time></trkpt><trkpt lat="45.1571862" lon="8.0716156"><ele>173.0</ele><time>2026-03-29T14:17:02.186Z</time></trkpt><trkpt lat="45.1571284" lon="8.0714171"><ele>173.0</ele><time>2026-03-29T14:17:03.177Z</time></trkpt><trkpt lat="45.1570759" lon="8.0712242"><ele>173.0</ele><time>2026-03-29T14:17:04.181Z</time></trkpt><trkpt lat="45.1570254" lon="8.0710484"><ele>172.75</ele><time>2026-03-29T14:17:05.181Z</time></trkpt><trkpt lat="45.1569745" lon="8.0708871"><ele>172.5</ele><time>2026-03-29T14:17:06.179Z</time></trkpt><trkpt lat="45.1569284" lon="8.0707265"><ele>172.25</ele><time>2026-03-29T14:17:07.192Z</time></trkpt><trkpt lat="45.1568838" lon="8.0705593"><ele>172.0</ele><time>2026-03-29T14:17:08.183Z</time></trkpt><trkpt lat="45.1568325" lon="8.0703815"><ele>172.0</ele><time>2026-03-29T14:17:09.181Z</time></trkpt><trkpt lat="45.1567744" lon="8.0701902"><ele>172.0</ele><time>2026-03-29T14:17:10.194Z</time></trkpt><trkpt lat="45.1567105" lon="8.069986"><ele>172.0</ele><time>2026-03-29T14:17:11.182Z</time></trkpt><trkpt lat="45.1566469" lon="8.0697707"><ele>172.33333333333334</ele><time>2026-03-29T14:17:12.19Z</time></trkpt><trkpt lat="45.1565865" lon="8.0695551"><ele>172.66666666666666</ele><time>2026-03-29T14:17:13.18Z</time></trkpt><trkpt lat="45.1565263" lon="8.0693388"><ele>173.0</ele><time>2026-03-29T14:17:14.181Z</time></trkpt><trkpt lat="45.1564626" lon="8.0691212"><ele>173.33333333333331</ele><time>2026-03-29T14:17:15.192Z</time></trkpt><trkpt lat="45.1563993" lon="8.0688994"><ele>173.66666666666666</ele><time>2026-03-29T14:17:16.181Z</time></trkpt><trkpt lat="45.1563401" lon="8.0686854"><ele>174.0</ele><time>2026-03-29T14:17:17.182Z</time></trkpt><trkpt lat="45.156289" lon="8.0684862"><ele>174.0</ele><time>2026-03-29T14:17:18.195Z</time></trkpt><trkpt lat="45.1562402" lon="8.0682997"><ele>174.0</ele><time>2026-03-29T14:17:19.214Z</time></trkpt><trkpt lat="45.1561915" lon="8.068113"><ele>174.0</ele><time>2026-03-29T14:17:20.18Z</time></trkpt><trkpt lat="45.1561401" lon="8.06792"><ele>174.0</ele><time>2026-03-29T14:17:21.183Z</time></trkpt><trkpt lat="45.1560909" lon="8.0677328"><ele>173.5</ele><time>2026-03-29T14:17:22.18Z</time></trkpt><trkpt lat="45.156044" lon="8.0675574"><ele>173.0</ele><time>2026-03-29T14:17:23.182Z</time></trkpt><trkpt lat="45.1560011" lon="8.0673914"><ele>172.5</ele><time>2026-03-29T14:17:24.186Z</time></trkpt><trkpt lat="45.1559537" lon="8.0672242"><ele>172.0</ele><time>2026-03-29T14:17:25.186Z</time></trkpt><trkpt lat="45.1559043" lon="8.0670497"><ele>171.5</ele><time>2026-03-29T14:17:26.188Z</time></trkpt><trkpt lat="45.1558546" lon="8.0668759"><ele>171.0</ele><time>2026-03-29T14:17:27.18Z</time></trkpt><trkpt lat="45.1558085" lon="8.0667125"><ele>170.5</ele><time>2026-03-29T14:17:28.212Z</time></trkpt><trkpt lat="45.1557659" lon="8.0665647"><ele>170.0</ele><time>2026-03-29T14:17:29.183Z</time></trkpt><trkpt lat="45.1557276" lon="8.0664321"><ele>170.83333333333331</ele><time>2026-03-29T14:17:30.183Z</time></trkpt><trkpt lat="45.1556941" lon="8.0663169"><ele>171.66666666666666</ele><time>2026-03-29T14:17:31.18Z</time></trkpt><trkpt lat="45.1556633" lon="8.0662206"><ele>172.5</ele><time>2026-03-29T14:17:32.19Z</time></trkpt><trkpt lat="45.1556367" lon="8.0661304"><ele>173.33333333333334</ele><time>2026-03-29T14:17:33.187Z</time></trkpt><trkpt lat="45.1556143" lon="8.0660224"><ele>174.16666666666669</ele><time>2026-03-29T14:17:34.207Z</time></trkpt><trkpt lat="45.1555951" lon="8.0658868"><ele>175.0</ele><time>2026-03-29T14:17:35.178Z</time></trkpt><trkpt lat="45.1555834" lon="8.0657213"><ele>175.0</ele><time>2026-03-29T14:17:36.195Z</time></trkpt><trkpt lat="45.1555867" lon="8.0655317"><ele>175.0</ele><time>2026-03-29T14:17:37.18Z</time></trkpt><trkpt lat="45.1556082" lon="8.0653225"><ele>175.0</ele><time>2026-03-29T14:17:38.191Z</time></trkpt><trkpt lat="45.1556414" lon="8.0650984"><ele>175.0</ele><time>2026-03-29T14:17:39.185Z</time></trkpt><trkpt lat="45.1556813" lon="8.0648592"><ele>173.33333333333334</ele><time>2026-03-29T14:17:40.18Z</time></trkpt><trkpt lat="45.1557224" lon="8.0646049"><ele>171.66666666666666</ele><time>2026-03-29T14:17:41.178Z</time></trkpt><trkpt lat="45.1557636" lon="8.0643472"><ele>170.0</ele><time>2026-03-29T14:17:42.185Z</time></trkpt><trkpt lat="45.1558046" lon="8.06409"><ele>170.0</ele><time>2026-03-29T14:17:43.181Z</time></trkpt><trkpt lat="45.1558459" lon="8.0638299"><ele>170.0</ele><time>2026-03-29T14:17:44.184Z</time></trkpt><trkpt lat="45.1558854" lon="8.063562"><ele>170.0</ele><time>2026-03-29T14:17:45.187Z</time></trkpt><trkpt lat="45.1559254" lon="8.0632947"><ele>170.33333333333331</ele><time>2026-03-29T14:17:46.195Z</time></trkpt><trkpt lat="45.155962" lon="8.0630404"><ele>170.66666666666666</ele><time>2026-03-29T14:17:47.18Z</time></trkpt><trkpt lat="45.1560015" lon="8.0627943"><ele>171.0</ele><time>2026-03-29T14:17:48.178Z</time></trkpt><trkpt lat="45.1560377" lon="8.0625557"><ele>170.33333333333334</ele><time>2026-03-29T14:17:49.198Z</time></trkpt><trkpt lat="45.1560746" lon="8.0623229"><ele>169.66666666666669</ele><time>2026-03-29T14:17:50.186Z</time></trkpt><trkpt lat="45.1560973" lon="8.0621009"><ele>169.0</ele><time>2026-03-29T14:17:51.191Z</time></trkpt><trkpt lat="45.1561152" lon="8.0618882"><ele>169.0</ele><time>2026-03-29T14:17:52.182Z</time></trkpt><trkpt lat="45.1561263" lon="8.0616871"><ele>169.0</ele><time>2026-03-29T14:17:53.178Z</time></trkpt><trkpt lat="45.156135" lon="8.0614917"><ele>169.0</ele><time>2026-03-29T14:17:54.18Z</time></trkpt><trkpt lat="45.1561458" lon="8.0612979"><ele>169.0</ele><time>2026-03-29T14:17:55.186Z</time></trkpt><trkpt lat="45.1561456" lon="8.0611067"><ele>169.25</ele><time>2026-03-29T14:17:56.181Z</time></trkpt><trkpt lat="45.156148" lon="8.0609096"><ele>169.5</ele><time>2026-03-29T14:17:57.225Z</time></trkpt><trkpt lat="45.1561565" lon="8.0607114"><ele>169.75</ele><time>2026-03-29T14:17:58.189Z</time></trkpt><trkpt lat="45.1561656" lon="8.0605253"><ele>170.0</ele><time>2026-03-29T14:17:59.183Z</time></trkpt><trkpt lat="45.1561787" lon="8.0603754"><ele>170.16666666666666</ele><time>2026-03-29T14:18:00.178Z</time></trkpt><trkpt lat="45.1561839" lon="8.0602762"><ele>170.33333333333331</ele><time>2026-03-29T14:18:01.181Z</time></trkpt><trkpt lat="45.1561977" lon="8.0601645"><ele>170.5</ele><time>2026-03-29T14:18:37.186Z</time></trkpt><trkpt lat="45.1561979" lon="8.0600737"><ele>170.66666666666666</ele><time>2026-03-29T14:18:38.186Z</time></trkpt><trkpt lat="45.1561933" lon="8.0599386"><ele>170.83333333333334</ele><time>2026-03-29T14:18:39.189Z</time></trkpt><trkpt lat="45.1561859" lon="8.0597753"><ele>171.0</ele><time>2026-03-29T14:18:40.204Z</time></trkpt><trkpt lat="45.1561724" lon="8.0595942"><ele>171.0</ele><time>2026-03-29T14:18:41.185Z</time></trkpt><trkpt lat="45.1561386" lon="8.0593902"><ele>171.0</ele><time>2026-03-29T14:18:42.184Z</time></trkpt><trkpt lat="45.1560889" lon="8.0591851"><ele>171.0</ele><time>2026-03-29T14:18:43.185Z</time></trkpt><trkpt lat="45.1559604" lon="8.0587972"><ele>170.66666666666666</ele><time>2026-03-29T14:18:45.183Z</time></trkpt><trkpt lat="45.155872" lon="8.0586128"><ele>170.33333333333331</ele><time>2026-03-29T14:18:46.193Z</time></trkpt><trkpt lat="45.1557711" lon="8.0584305"><ele>170.0</ele><time>2026-03-29T14:18:47.196Z</time></trkpt><trkpt lat="45.1556496" lon="8.0582559"><ele>170.66666666666666</ele><time>2026-03-29T14:18:48.202Z</time></trkpt><trkpt lat="45.1555127" lon="8.058085"><ele>171.33333333333334</ele><time>2026-03-29T14:18:49.23Z</time></trkpt><trkpt lat="45.1553754" lon="8.0579182"><ele>172.0</ele><time>2026-03-29T14:18:50.197Z</time></trkpt><trkpt lat="45.1552432" lon="8.057763"><ele>172.0</ele><time>2026-03-29T14:18:51.186Z</time></trkpt><trkpt lat="45.1551201" lon="8.0576126"><ele>172.0</ele><time>2026-03-29T14:18:52.187Z</time></trkpt><trkpt lat="45.1549998" lon="8.0574747"><ele>172.0</ele><time>2026-03-29T14:18:53.201Z</time></trkpt><trkpt lat="45.1548769" lon="8.057343"><ele>172.0</ele><time>2026-03-29T14:18:54.22Z</time></trkpt><trkpt lat="45.1547593" lon="8.0572202"><ele>172.0</ele><time>2026-03-29T14:18:55.196Z</time></trkpt><trkpt lat="45.1546544" lon="8.0570955"><ele>172.0</ele><time>2026-03-29T14:18:56.198Z</time></trkpt><trkpt lat="45.1545523" lon="8.0569825"><ele>172.0</ele><time>2026-03-29T14:18:57.223Z</time></trkpt><trkpt lat="45.1544489" lon="8.056873"><ele>172.0</ele><time>2026-03-29T14:18:58.194Z</time></trkpt><trkpt lat="45.1543612" lon="8.0567696"><ele>172.0</ele><time>2026-03-29T14:18:59.185Z</time></trkpt><trkpt lat="45.1542705" lon="8.0566617"><ele>172.0</ele><time>2026-03-29T14:19:00.189Z</time></trkpt><trkpt lat="45.1541738" lon="8.0565468"><ele>172.0</ele><time>2026-03-29T14:19:01.183Z</time></trkpt><trkpt lat="45.1540856" lon="8.056433"><ele>172.39999999999998</ele><time>2026-03-29T14:19:02.187Z</time></trkpt><trkpt lat="45.1540003" lon="8.0563312"><ele>172.79999999999998</ele><time>2026-03-29T14:19:03.191Z</time></trkpt><trkpt lat="45.1539244" lon="8.0562476"><ele>173.2</ele><time>2026-03-29T14:19:04.201Z</time></trkpt><trkpt lat="45.1538462" lon="8.0561803"><ele>173.6</ele><time>2026-03-29T14:19:05.198Z</time></trkpt><trkpt lat="45.1537766" lon="8.0561059"><ele>174.0</ele><time>2026-03-29T14:19:06.19Z</time></trkpt><trkpt lat="45.15371" lon="8.056007"><ele>174.0</ele><time>2026-03-29T14:19:07.199Z</time></trkpt><trkpt lat="45.1536394" lon="8.0558872"><ele>174.0</ele><time>2026-03-29T14:19:08.187Z</time></trkpt><trkpt lat="45.1535849" lon="8.0557444"><ele>174.0</ele><time>2026-03-29T14:19:09.181Z</time></trkpt><trkpt lat="45.1534722" lon="8.0553853"><ele>174.0</ele><time>2026-03-29T14:19:11.182Z</time></trkpt><trkpt lat="45.1533656" lon="8.0549818"><ele>174.0</ele><time>2026-03-29T14:19:13.187Z</time></trkpt><trkpt lat="45.1533057" lon="8.054775"><ele>173.66666666666666</ele><time>2026-03-29T14:19:14.193Z</time></trkpt><trkpt lat="45.1532408" lon="8.0545683"><ele>173.33333333333331</ele><time>2026-03-29T14:19:15.188Z</time></trkpt><trkpt lat="45.1531753" lon="8.0543622"><ele>173.0</ele><time>2026-03-29T14:19:16.197Z</time></trkpt><trkpt lat="45.1531046" lon="8.0541583"><ele>173.33333333333331</ele><time>2026-03-29T14:19:17.195Z</time></trkpt><trkpt lat="45.1530402" lon="8.0539539"><ele>173.66666666666666</ele><time>2026-03-29T14:19:18.216Z</time></trkpt><trkpt lat="45.152975" lon="8.0537508"><ele>174.0</ele><time>2026-03-29T14:19:19.207Z</time></trkpt><trkpt lat="45.1529094" lon="8.0535548"><ele>174.0</ele><time>2026-03-29T14:19:20.192Z</time></trkpt><trkpt lat="45.1528419" lon="8.0533661"><ele>174.0</ele><time>2026-03-29T14:19:21.191Z</time></trkpt><trkpt lat="45.152768" lon="8.0531829"><ele>174.0</ele><time>2026-03-29T14:19:22.19Z</time></trkpt><trkpt lat="45.1527007" lon="8.0529935"><ele>174.0</ele><time>2026-03-29T14:19:23.198Z</time></trkpt><trkpt lat="45.152632" lon="8.0528039"><ele>174.25</ele><time>2026-03-29T14:19:24.191Z</time></trkpt><trkpt lat="45.1525683" lon="8.0526158"><ele>174.5</ele><time>2026-03-29T14:19:25.19Z</time></trkpt><trkpt lat="45.1525058" lon="8.052434"><ele>174.75</ele><time>2026-03-29T14:19:26.23Z</time></trkpt><trkpt lat="45.1524459" lon="8.0522657"><ele>175.0</ele><time>2026-03-29T14:19:27.209Z</time></trkpt><trkpt lat="45.1523969" lon="8.0521153"><ele>175.16666666666669</ele><time>2026-03-29T14:19:28.183Z</time></trkpt><trkpt lat="45.1523666" lon="8.0519815"><ele>175.33333333333334</ele><time>2026-03-29T14:19:29.201Z</time></trkpt><trkpt lat="45.1523518" lon="8.0518723"><ele>175.5</ele><time>2026-03-29T14:19:30.191Z</time></trkpt><trkpt lat="45.1523514" lon="8.0517823"><ele>175.66666666666666</ele><time>2026-03-29T14:19:31.188Z</time></trkpt><trkpt lat="45.1524142" lon="8.0516223"><ele>175.83333333333331</ele><time>2026-03-29T14:19:33.195Z</time></trkpt><trkpt lat="45.1524663" lon="8.0515425"><ele>176.0</ele><time>2026-03-29T14:19:34.19Z</time></trkpt><trkpt lat="45.1525667" lon="8.0514171"><ele>176.0</ele><time>2026-03-29T14:19:36.191Z</time></trkpt><trkpt lat="45.152651" lon="8.0513744"><ele>176.0</ele><time>2026-03-29T14:19:37.19Z</time></trkpt><trkpt lat="45.1527365" lon="8.0513364"><ele>176.0</ele><time>2026-03-29T14:19:38.188Z</time></trkpt><trkpt lat="45.1528193" lon="8.0512987"><ele>176.0</ele><time>2026-03-29T14:19:39.189Z</time></trkpt><trkpt lat="45.1528916" lon="8.0512673"><ele>176.0</ele><time>2026-03-29T14:19:40.192Z</time></trkpt><trkpt lat="45.1529579" lon="8.0512438"><ele>176.0</ele><time>2026-03-29T14:19:41.205Z</time></trkpt><trkpt lat="45.1530629" lon="8.0512009"><ele>176.0</ele><time>2026-03-29T14:19:43.19Z</time></trkpt><trkpt lat="45.1531265" lon="8.051157"><ele>176.0</ele><time>2026-03-29T14:19:45.191Z</time></trkpt><trkpt lat="45.1531775" lon="8.0510764"><ele>176.0</ele><time>2026-03-29T14:19:52.192Z</time></trkpt><trkpt lat="45.1532527" lon="8.0510029"><ele>176.0</ele><time>2026-03-29T14:19:54.191Z</time></trkpt><trkpt lat="45.1533152" lon="8.0509558"><ele>176.0</ele><time>2026-03-29T14:19:55.191Z</time></trkpt><trkpt lat="45.1533927" lon="8.050899"><ele>176.0</ele><time>2026-03-29T14:19:56.192Z</time></trkpt><trkpt lat="45.1534701" lon="8.0508458"><ele>175.75</ele><time>2026-03-29T14:19:57.187Z</time></trkpt><trkpt lat="45.1535429" lon="8.0507981"><ele>175.5</ele><time>2026-03-29T14:19:58.187Z</time></trkpt><trkpt lat="45.1536219" lon="8.0507421"><ele>175.25</ele><time>2026-03-29T14:19:59.191Z</time></trkpt><trkpt lat="45.1538108" lon="8.0506446"><ele>175.0</ele><time>2026-03-29T14:20:01.207Z</time></trkpt><trkpt lat="45.1538933" lon="8.0505884"><ele>174.25</ele><time>2026-03-29T14:20:02.22Z</time></trkpt><trkpt lat="45.1540743" lon="8.0504866"><ele>173.5</ele><time>2026-03-29T14:20:04.222Z</time></trkpt><trkpt lat="45.1541576" lon="8.0504268"><ele>172.75</ele><time>2026-03-29T14:20:05.199Z</time></trkpt><trkpt lat="45.1542486" lon="8.0503576"><ele>172.0</ele><time>2026-03-29T14:20:06.202Z</time></trkpt><trkpt lat="45.154341" lon="8.0502783"><ele>172.0</ele><time>2026-03-29T14:20:07.191Z</time></trkpt><trkpt lat="45.1544278" lon="8.0501973"><ele>172.0</ele><time>2026-03-29T14:20:08.207Z</time></trkpt><trkpt lat="45.1545165" lon="8.0501288"><ele>172.0</ele><time>2026-03-29T14:20:09.19Z</time></trkpt><trkpt lat="45.1545932" lon="8.0500587"><ele>172.0</ele><time>2026-03-29T14:20:10.192Z</time></trkpt><trkpt lat="45.1546661" lon="8.0499862"><ele>172.0</ele><time>2026-03-29T14:20:11.187Z</time></trkpt><trkpt lat="45.1547425" lon="8.0499069"><ele>172.0</ele><time>2026-03-29T14:20:12.19Z</time></trkpt><trkpt lat="45.1548283" lon="8.0498223"><ele>172.0</ele><time>2026-03-29T14:20:13.187Z</time></trkpt><trkpt lat="45.1549227" lon="8.049736"><ele>172.0</ele><time>2026-03-29T14:20:14.2Z</time></trkpt><trkpt lat="45.1550098" lon="8.0496475"><ele>172.0</ele><time>2026-03-29T14:20:15.192Z</time></trkpt><trkpt lat="45.1550922" lon="8.0495591"><ele>172.0</ele><time>2026-03-29T14:20:16.183Z</time></trkpt><trkpt lat="45.1551679" lon="8.0494703"><ele>171.6</ele><time>2026-03-29T14:20:17.2Z</time></trkpt><trkpt lat="45.1552378" lon="8.0493815"><ele>171.2</ele><time>2026-03-29T14:20:18.191Z</time></trkpt><trkpt lat="45.1553063" lon="8.0492847"><ele>170.8</ele><time>2026-03-29T14:20:19.185Z</time></trkpt><trkpt lat="45.1553869" lon="8.0491842"><ele>170.4</ele><time>2026-03-29T14:20:20.196Z</time></trkpt><trkpt lat="45.1554662" lon="8.0490754"><ele>170.0</ele><time>2026-03-29T14:20:21.191Z</time></trkpt><trkpt lat="45.1555405" lon="8.0489616"><ele>169.8</ele><time>2026-03-29T14:20:22.191Z</time></trkpt><trkpt lat="45.1556075" lon="8.0488433"><ele>169.6</ele><time>2026-03-29T14:20:23.19Z</time></trkpt><trkpt lat="45.1556714" lon="8.0487258"><ele>169.39999999999998</ele><time>2026-03-29T14:20:24.188Z</time></trkpt><trkpt lat="45.1557303" lon="8.0486081"><ele>169.2</ele><time>2026-03-29T14:20:25.192Z</time></trkpt><trkpt lat="45.1557864" lon="8.048494"><ele>169.0</ele><time>2026-03-29T14:20:26.228Z</time></trkpt><trkpt lat="45.1558374" lon="8.0483804"><ele>168.79999999999998</ele><time>2026-03-29T14:20:27.19Z</time></trkpt><trkpt lat="45.155888" lon="8.0482574"><ele>168.6</ele><time>2026-03-29T14:20:28.19Z</time></trkpt><trkpt lat="45.1559374" lon="8.0481265"><ele>168.4</ele><time>2026-03-29T14:20:29.196Z</time></trkpt><trkpt lat="45.1559866" lon="8.0479879"><ele>168.2</ele><time>2026-03-29T14:20:30.204Z</time></trkpt><trkpt lat="45.1560336" lon="8.0478458"><ele>168.0</ele><time>2026-03-29T14:20:31.188Z</time></trkpt><trkpt lat="45.1560759" lon="8.0477104"><ele>168.0</ele><time>2026-03-29T14:20:32.183Z</time></trkpt><trkpt lat="45.1561117" lon="8.0475842"><ele>168.0</ele><time>2026-03-29T14:20:33.19Z</time></trkpt><trkpt lat="45.1561426" lon="8.0474562"><ele>168.0</ele><time>2026-03-29T14:20:34.192Z</time></trkpt><trkpt lat="45.1561722" lon="8.0473269"><ele>168.0</ele><time>2026-03-29T14:20:35.196Z</time></trkpt><trkpt lat="45.1562024" lon="8.0471885"><ele>168.0</ele><time>2026-03-29T14:20:36.192Z</time></trkpt><trkpt lat="45.1562315" lon="8.0470447"><ele>168.0</ele><time>2026-03-29T14:20:37.189Z</time></trkpt><trkpt lat="45.1562554" lon="8.046906"><ele>168.0</ele><time>2026-03-29T14:20:38.188Z</time></trkpt><trkpt lat="45.1562788" lon="8.0467764"><ele>168.0</ele><time>2026-03-29T14:20:39.191Z</time></trkpt><trkpt lat="45.156299" lon="8.0466592"><ele>168.0</ele><time>2026-03-29T14:20:40.194Z</time></trkpt><trkpt lat="45.1563198" lon="8.0465369"><ele>168.0</ele><time>2026-03-29T14:20:41.184Z</time></trkpt><trkpt lat="45.1563395" lon="8.0463992"><ele>167.75</ele><time>2026-03-29T14:20:42.188Z</time></trkpt><trkpt lat="45.1563593" lon="8.046246"><ele>167.5</ele><time>2026-03-29T14:20:43.186Z</time></trkpt><trkpt lat="45.1563818" lon="8.0460812"><ele>167.25</ele><time>2026-03-29T14:20:44.22Z</time></trkpt><trkpt lat="45.1564097" lon="8.0459105"><ele>167.0</ele><time>2026-03-29T14:20:45.197Z</time></trkpt><trkpt lat="45.1564367" lon="8.0457347"><ele>167.5</ele><time>2026-03-29T14:20:46.186Z</time></trkpt><trkpt lat="45.1564623" lon="8.0455581"><ele>168.0</ele><time>2026-03-29T14:20:47.191Z</time></trkpt><trkpt lat="45.1564843" lon="8.0453945"><ele>168.5</ele><time>2026-03-29T14:20:48.183Z</time></trkpt><trkpt lat="45.1565032" lon="8.0452395"><ele>169.0</ele><time>2026-03-29T14:20:49.205Z</time></trkpt><trkpt lat="45.1565193" lon="8.0450901"><ele>168.6</ele><time>2026-03-29T14:20:50.192Z</time></trkpt><trkpt lat="45.1565421" lon="8.0449504"><ele>168.2</ele><time>2026-03-29T14:20:51.192Z</time></trkpt><trkpt lat="45.1565633" lon="8.0448134"><ele>167.79999999999998</ele><time>2026-03-29T14:20:52.206Z</time></trkpt><trkpt lat="45.1565829" lon="8.0446778"><ele>167.39999999999998</ele><time>2026-03-29T14:20:53.193Z</time></trkpt><trkpt lat="45.1565978" lon="8.0445368"><ele>167.0</ele><time>2026-03-29T14:20:54.201Z</time></trkpt><trkpt lat="45.1566367" lon="8.044275"><ele>167.0</ele><time>2026-03-29T14:20:56.219Z</time></trkpt><trkpt lat="45.1566618" lon="8.0441059"><ele>167.0</ele><time>2026-03-29T14:20:57.187Z</time></trkpt><trkpt lat="45.1566855" lon="8.0439439"><ele>167.0</ele><time>2026-03-29T14:20:58.187Z</time></trkpt><trkpt lat="45.1567293" lon="8.0436361"><ele>167.0</ele><time>2026-03-29T14:21:00.208Z</time></trkpt><trkpt lat="45.1567528" lon="8.0434898"><ele>167.0</ele><time>2026-03-29T14:21:01.238Z</time></trkpt><trkpt lat="45.1567967" lon="8.0432101"><ele>167.0</ele><time>2026-03-29T14:21:03.189Z</time></trkpt><trkpt lat="45.1568184" lon="8.0430676"><ele>167.0</ele><time>2026-03-29T14:21:04.181Z</time></trkpt><trkpt lat="45.1568392" lon="8.0429233"><ele>167.2</ele><time>2026-03-29T14:21:05.199Z</time></trkpt><trkpt lat="45.1568609" lon="8.0427779"><ele>167.39999999999998</ele><time>2026-03-29T14:21:06.193Z</time></trkpt><trkpt lat="45.1568846" lon="8.0426343"><ele>167.60000000000002</ele><time>2026-03-29T14:21:07.192Z</time></trkpt><trkpt lat="45.1569082" lon="8.0424856"><ele>167.8</ele><time>2026-03-29T14:21:08.184Z</time></trkpt><trkpt lat="45.1569311" lon="8.042333"><ele>168.0</ele><time>2026-03-29T14:21:09.196Z</time></trkpt><trkpt lat="45.1569534" lon="8.0421743"><ele>168.25</ele><time>2026-03-29T14:21:10.207Z</time></trkpt><trkpt lat="45.1569764" lon="8.0420101"><ele>168.5</ele><time>2026-03-29T14:21:11.184Z</time></trkpt><trkpt lat="45.1570011" lon="8.0418424"><ele>168.75</ele><time>2026-03-29T14:21:12.191Z</time></trkpt><trkpt lat="45.1570267" lon="8.0416739"><ele>169.0</ele><time>2026-03-29T14:21:13.194Z</time></trkpt><trkpt lat="45.1570522" lon="8.0415057"><ele>169.0</ele><time>2026-03-29T14:21:14.207Z</time></trkpt><trkpt lat="45.1570771" lon="8.0413393"><ele>169.0</ele><time>2026-03-29T14:21:15.186Z</time></trkpt><trkpt lat="45.1571024" lon="8.0411702"><ele>169.0</ele><time>2026-03-29T14:21:16.189Z</time></trkpt><trkpt lat="45.1571293" lon="8.040999"><ele>169.0</ele><time>2026-03-29T14:21:17.185Z</time></trkpt><trkpt lat="45.1571552" lon="8.0408275"><ele>168.75</ele><time>2026-03-29T14:21:18.19Z</time></trkpt><trkpt lat="45.1571817" lon="8.0406507"><ele>168.5</ele><time>2026-03-29T14:21:19.187Z</time></trkpt><trkpt lat="45.1572099" lon="8.0404656"><ele>168.25</ele><time>2026-03-29T14:21:20.224Z</time></trkpt><trkpt lat="45.1572371" lon="8.0402806"><ele>168.0</ele><time>2026-03-29T14:21:21.19Z</time></trkpt><trkpt lat="45.1572652" lon="8.0400942"><ele>168.0</ele><time>2026-03-29T14:21:22.187Z</time></trkpt><trkpt lat="45.1572939" lon="8.0399066"><ele>168.0</ele><time>2026-03-29T14:21:23.187Z</time></trkpt><trkpt lat="45.1573234" lon="8.0397153"><ele>168.0</ele><time>2026-03-29T14:21:24.184Z</time></trkpt><trkpt lat="45.1573527" lon="8.0395211"><ele>168.0</ele><time>2026-03-29T14:21:25.203Z</time></trkpt><trkpt lat="45.157382" lon="8.0393223"><ele>167.33333333333334</ele><time>2026-03-29T14:21:26.193Z</time></trkpt><trkpt lat="45.1574097" lon="8.0391024"><ele>166.66666666666669</ele><time>2026-03-29T14:21:27.195Z</time></trkpt><trkpt lat="45.1574347" lon="8.038861"><ele>166.0</ele><time>2026-03-29T14:21:28.189Z</time></trkpt><trkpt lat="45.1574697" lon="8.0385927"><ele>166.5</ele><time>2026-03-29T14:21:29.184Z</time></trkpt><trkpt lat="45.1575174" lon="8.0382892"><ele>167.0</ele><time>2026-03-29T14:21:30.207Z</time></trkpt><trkpt lat="45.1575714" lon="8.0379708"><ele>167.0</ele><time>2026-03-29T14:21:31.187Z</time></trkpt><trkpt lat="45.1576189" lon="8.0376603"><ele>167.0</ele><time>2026-03-29T14:21:32.181Z</time></trkpt><trkpt lat="45.1577815" lon="8.0365402"><ele>168.5</ele><time>2026-03-29T14:21:36.189Z</time></trkpt><trkpt lat="45.157814" lon="8.0363068"><ele>170.0</ele><time>2026-03-29T14:21:37.185Z</time></trkpt><trkpt lat="45.157877" lon="8.0358656"><ele>171.5</ele><time>2026-03-29T14:21:39.186Z</time></trkpt><trkpt lat="45.1579373" lon="8.0354321"><ele>173.0</ele><time>2026-03-29T14:21:41.191Z</time></trkpt><trkpt lat="45.1579681" lon="8.0352049"><ele>173.0</ele><time>2026-03-29T14:21:42.193Z</time></trkpt><trkpt lat="45.1580034" lon="8.034962"><ele>173.0</ele><time>2026-03-29T14:21:43.192Z</time></trkpt><trkpt lat="45.1580445" lon="8.0346881"><ele>173.0</ele><time>2026-03-29T14:21:44.202Z</time></trkpt><trkpt lat="45.1580875" lon="8.0343983"><ele>174.0</ele><time>2026-03-29T14:21:45.203Z</time></trkpt><trkpt lat="45.1581331" lon="8.0340899"><ele>175.0</ele><time>2026-03-29T14:21:46.19Z</time></trkpt><trkpt lat="45.1581802" lon="8.033769"><ele>171.5</ele><time>2026-03-29T14:21:47.194Z</time></trkpt><trkpt lat="45.1582278" lon="8.0334559"><ele>168.0</ele><time>2026-03-29T14:21:48.185Z</time></trkpt><trkpt lat="45.1582746" lon="8.0331439"><ele>168.0</ele><time>2026-03-29T14:21:49.201Z</time></trkpt><trkpt lat="45.1583196" lon="8.0328454"><ele>168.0</ele><time>2026-03-29T14:21:50.195Z</time></trkpt><trkpt lat="45.1583636" lon="8.0325432"><ele>168.0</ele><time>2026-03-29T14:21:51.186Z</time></trkpt><trkpt lat="45.158406" lon="8.0322528"><ele>168.66666666666666</ele><time>2026-03-29T14:21:52.19Z</time></trkpt><trkpt lat="45.1584474" lon="8.0319681"><ele>169.33333333333331</ele><time>2026-03-29T14:21:53.19Z</time></trkpt><trkpt lat="45.1584897" lon="8.0316926"><ele>170.0</ele><time>2026-03-29T14:21:54.198Z</time></trkpt><trkpt lat="45.1585332" lon="8.0314194"><ele>170.0</ele><time>2026-03-29T14:21:55.192Z</time></trkpt><trkpt lat="45.1585752" lon="8.0311533"><ele>170.0</ele><time>2026-03-29T14:21:56.187Z</time></trkpt><trkpt lat="45.1586172" lon="8.0308847"><ele>170.0</ele><time>2026-03-29T14:21:57.195Z</time></trkpt><trkpt lat="45.1586604" lon="8.0306128"><ele>169.66666666666666</ele><time>2026-03-29T14:21:58.201Z</time></trkpt><trkpt lat="45.1587047" lon="8.0303341"><ele>169.33333333333334</ele><time>2026-03-29T14:21:59.2Z</time></trkpt><trkpt lat="45.1587501" lon="8.0300486"><ele>169.0</ele><time>2026-03-29T14:22:00.191Z</time></trkpt><trkpt lat="45.1587945" lon="8.0297605"><ele>168.0</ele><time>2026-03-29T14:22:01.194Z</time></trkpt><trkpt lat="45.1588399" lon="8.0294695"><ele>167.0</ele><time>2026-03-29T14:22:02.194Z</time></trkpt><trkpt lat="45.1589303" lon="8.0288941"><ele>167.0</ele><time>2026-03-29T14:22:04.221Z</time></trkpt><trkpt lat="45.1589756" lon="8.0286149"><ele>167.0</ele><time>2026-03-29T14:22:05.193Z</time></trkpt><trkpt lat="45.1590219" lon="8.0283265"><ele>167.0</ele><time>2026-03-29T14:22:06.2Z</time></trkpt><trkpt lat="45.1590688" lon="8.0280333"><ele>166.66666666666666</ele><time>2026-03-29T14:22:07.198Z</time></trkpt><trkpt lat="45.1591176" lon="8.0277397"><ele>166.33333333333334</ele><time>2026-03-29T14:22:08.193Z</time></trkpt><trkpt lat="45.1591686" lon="8.0274377"><ele>166.0</ele><time>2026-03-29T14:22:09.186Z</time></trkpt><trkpt lat="45.159219" lon="8.0271319"><ele>166.0</ele><time>2026-03-29T14:22:10.19Z</time></trkpt><trkpt lat="45.1592675" lon="8.0268219"><ele>166.0</ele><time>2026-03-29T14:22:11.196Z</time></trkpt><trkpt lat="45.1593141" lon="8.0265136"><ele>166.0</ele><time>2026-03-29T14:22:12.203Z</time></trkpt><trkpt lat="45.1593616" lon="8.0262043"><ele>166.66666666666669</ele><time>2026-03-29T14:22:13.195Z</time></trkpt><trkpt lat="45.1594086" lon="8.0259026"><ele>167.33333333333334</ele><time>2026-03-29T14:22:14.199Z</time></trkpt><trkpt lat="45.1594582" lon="8.0255909"><ele>168.0</ele><time>2026-03-29T14:22:15.215Z</time></trkpt><trkpt lat="45.1595036" lon="8.025293"><ele>168.33333333333334</ele><time>2026-03-29T14:22:16.198Z</time></trkpt><trkpt lat="45.159549" lon="8.0249917"><ele>168.66666666666669</ele><time>2026-03-29T14:22:17.19Z</time></trkpt><trkpt lat="45.1595954" lon="8.0246858"><ele>169.0</ele><time>2026-03-29T14:22:18.206Z</time></trkpt><trkpt lat="45.1596418" lon="8.0243733"><ele>169.0</ele><time>2026-03-29T14:22:19.197Z</time></trkpt><trkpt lat="45.1596869" lon="8.0240665"><ele>169.0</ele><time>2026-03-29T14:22:20.181Z</time></trkpt><trkpt lat="45.1597328" lon="8.0237537"><ele>169.0</ele><time>2026-03-29T14:22:21.185Z</time></trkpt><trkpt lat="45.1597795" lon="8.0234375"><ele>169.33333333333334</ele><time>2026-03-29T14:22:22.21Z</time></trkpt><trkpt lat="45.1598261" lon="8.0231249"><ele>169.66666666666666</ele><time>2026-03-29T14:22:23.196Z</time></trkpt><trkpt lat="45.1598721" lon="8.0228175"><ele>170.0</ele><time>2026-03-29T14:22:24.186Z</time></trkpt><trkpt lat="45.159918" lon="8.0225138"><ele>170.0</ele><time>2026-03-29T14:22:25.192Z</time></trkpt><trkpt lat="45.1599618" lon="8.0222214"><ele>170.0</ele><time>2026-03-29T14:22:26.188Z</time></trkpt><trkpt lat="45.1600052" lon="8.0219337"><ele>170.0</ele><time>2026-03-29T14:22:27.201Z</time></trkpt><trkpt lat="45.1600472" lon="8.0216506"><ele>170.0</ele><time>2026-03-29T14:22:28.187Z</time></trkpt><trkpt lat="45.1600899" lon="8.0213636"><ele>170.0</ele><time>2026-03-29T14:22:29.192Z</time></trkpt><trkpt lat="45.1601322" lon="8.0210787"><ele>170.0</ele><time>2026-03-29T14:22:30.184Z</time></trkpt><trkpt lat="45.1601755" lon="8.0207941"><ele>170.33333333333331</ele><time>2026-03-29T14:22:31.18Z</time></trkpt><trkpt lat="45.1602195" lon="8.020505"><ele>170.66666666666666</ele><time>2026-03-29T14:22:32.193Z</time></trkpt><trkpt lat="45.1602642" lon="8.0202145"><ele>171.0</ele><time>2026-03-29T14:22:33.188Z</time></trkpt><trkpt lat="45.1603109" lon="8.0199143"><ele>171.0</ele><time>2026-03-29T14:22:34.191Z</time></trkpt><trkpt lat="45.1604029" lon="8.0192952"><ele>171.0</ele><time>2026-03-29T14:22:36.189Z</time></trkpt><trkpt lat="45.1604997" lon="8.0186537"><ele>169.5</ele><time>2026-03-29T14:22:38.201Z</time></trkpt><trkpt lat="45.1605472" lon="8.0183372"><ele>168.0</ele><time>2026-03-29T14:22:39.188Z</time></trkpt><trkpt lat="45.1605929" lon="8.0180214"><ele>167.5</ele><time>2026-03-29T14:22:40.194Z</time></trkpt><trkpt lat="45.1606389" lon="8.017708"><ele>167.0</ele><time>2026-03-29T14:22:41.188Z</time></trkpt><trkpt lat="45.1606856" lon="8.0173881"><ele>165.5</ele><time>2026-03-29T14:22:42.188Z</time></trkpt><trkpt lat="45.1607332" lon="8.0170773"><ele>164.0</ele><time>2026-03-29T14:22:43.191Z</time></trkpt><trkpt lat="45.1607798" lon="8.0167618"><ele>164.0</ele><time>2026-03-29T14:22:44.206Z</time></trkpt><trkpt lat="45.1608265" lon="8.0164537"><ele>164.0</ele><time>2026-03-29T14:22:45.184Z</time></trkpt><trkpt lat="45.1608701" lon="8.0161534"><ele>164.0</ele><time>2026-03-29T14:22:46.194Z</time></trkpt><trkpt lat="45.1609136" lon="8.0158653"><ele>163.66666666666666</ele><time>2026-03-29T14:22:47.195Z</time></trkpt><trkpt lat="45.1609578" lon="8.0155802"><ele>163.33333333333334</ele><time>2026-03-29T14:22:48.221Z</time></trkpt><trkpt lat="45.1609984" lon="8.0153208"><ele>163.0</ele><time>2026-03-29T14:22:49.194Z</time></trkpt><trkpt lat="45.1610388" lon="8.0150618"><ele>163.33333333333334</ele><time>2026-03-29T14:22:50.193Z</time></trkpt><trkpt lat="45.1610757" lon="8.0148152"><ele>163.66666666666666</ele><time>2026-03-29T14:22:51.186Z</time></trkpt><trkpt lat="45.1611142" lon="8.0145667"><ele>164.0</ele><time>2026-03-29T14:22:52.197Z</time></trkpt><trkpt lat="45.1611525" lon="8.0143192"><ele>165.0</ele><time>2026-03-29T14:22:53.186Z</time></trkpt><trkpt lat="45.1611912" lon="8.0140684"><ele>166.0</ele><time>2026-03-29T14:22:54.185Z</time></trkpt><trkpt lat="45.1612287" lon="8.0138217"><ele>167.0</ele><time>2026-03-29T14:22:55.218Z</time></trkpt><trkpt lat="45.1612648" lon="8.0135782"><ele>166.33333333333331</ele><time>2026-03-29T14:22:56.187Z</time></trkpt><trkpt lat="45.1613042" lon="8.0133155"><ele>165.66666666666666</ele><time>2026-03-29T14:22:57.214Z</time></trkpt><trkpt lat="45.1613459" lon="8.0130411"><ele>165.0</ele><time>2026-03-29T14:22:58.2Z</time></trkpt><trkpt lat="45.1613894" lon="8.0127533"><ele>165.33333333333334</ele><time>2026-03-29T14:22:59.192Z</time></trkpt><trkpt lat="45.161434" lon="8.0124519"><ele>165.66666666666669</ele><time>2026-03-29T14:23:00.184Z</time></trkpt><trkpt lat="45.1614761" lon="8.0121411"><ele>166.0</ele><time>2026-03-29T14:23:01.188Z</time></trkpt><trkpt lat="45.1615126" lon="8.0118487"><ele>165.33333333333334</ele><time>2026-03-29T14:23:02.188Z</time></trkpt><trkpt lat="45.1615544" lon="8.0115656"><ele>164.66666666666666</ele><time>2026-03-29T14:23:03.183Z</time></trkpt><trkpt lat="45.1615993" lon="8.0112642"><ele>164.0</ele><time>2026-03-29T14:23:04.191Z</time></trkpt><trkpt lat="45.1616415" lon="8.0109811"><ele>164.33333333333331</ele><time>2026-03-29T14:23:05.183Z</time></trkpt><trkpt lat="45.1616828" lon="8.0107099"><ele>164.66666666666666</ele><time>2026-03-29T14:23:06.191Z</time></trkpt><trkpt lat="45.1617232" lon="8.0104426"><ele>165.0</ele><time>2026-03-29T14:23:07.223Z</time></trkpt><trkpt lat="45.161794" lon="8.0099647"><ele>163.66666666666666</ele><time>2026-03-29T14:23:09.201Z</time></trkpt><trkpt lat="45.1618286" lon="8.0097359"><ele>162.33333333333331</ele><time>2026-03-29T14:23:10.194Z</time></trkpt><trkpt lat="45.161862" lon="8.0095135"><ele>161.0</ele><time>2026-03-29T14:23:11.192Z</time></trkpt><trkpt lat="45.1618944" lon="8.0092981"><ele>161.0</ele><time>2026-03-29T14:23:12.191Z</time></trkpt><trkpt lat="45.1619256" lon="8.0090841"><ele>161.0</ele><time>2026-03-29T14:23:13.184Z</time></trkpt><trkpt lat="45.1619548" lon="8.0088704"><ele>161.0</ele><time>2026-03-29T14:23:14.185Z</time></trkpt><trkpt lat="45.1619849" lon="8.0086569"><ele>161.0</ele><time>2026-03-29T14:23:15.188Z</time></trkpt><trkpt lat="45.1620143" lon="8.0084565"><ele>161.0</ele><time>2026-03-29T14:23:16.213Z</time></trkpt><trkpt lat="45.1620421" lon="8.0082606"><ele>161.0</ele><time>2026-03-29T14:23:17.188Z</time></trkpt><trkpt lat="45.1620686" lon="8.0080739"><ele>161.0</ele><time>2026-03-29T14:23:18.19Z</time></trkpt><trkpt lat="45.1620953" lon="8.0078887"><ele>160.75</ele><time>2026-03-29T14:23:19.19Z</time></trkpt><trkpt lat="45.1621219" lon="8.0076993"><ele>160.5</ele><time>2026-03-29T14:23:20.185Z</time></trkpt><trkpt lat="45.1621467" lon="8.0075148"><ele>160.25</ele><time>2026-03-29T14:23:21.193Z</time></trkpt><trkpt lat="45.1621723" lon="8.0073307"><ele>160.0</ele><time>2026-03-29T14:23:22.236Z</time></trkpt><trkpt lat="45.1621963" lon="8.0071545"><ele>160.5</ele><time>2026-03-29T14:23:23.189Z</time></trkpt><trkpt lat="45.1622208" lon="8.0069772"><ele>161.0</ele><time>2026-03-29T14:23:24.187Z</time></trkpt><trkpt lat="45.1622461" lon="8.0067993"><ele>161.5</ele><time>2026-03-29T14:23:25.195Z</time></trkpt><trkpt lat="45.1622718" lon="8.0066267"><ele>162.0</ele><time>2026-03-29T14:23:26.202Z</time></trkpt><trkpt lat="45.1623003" lon="8.0064389"><ele>162.75</ele><time>2026-03-29T14:23:27.196Z</time></trkpt><trkpt lat="45.1623289" lon="8.0062582"><ele>163.5</ele><time>2026-03-29T14:23:28.197Z</time></trkpt><trkpt lat="45.1623537" lon="8.006096"><ele>164.25</ele><time>2026-03-29T14:23:29.182Z</time></trkpt><trkpt lat="45.1623804" lon="8.0059351"><ele>165.0</ele><time>2026-03-29T14:23:30.189Z</time></trkpt><trkpt lat="45.1624068" lon="8.0057593"><ele>167.0</ele><time>2026-03-29T14:23:31.196Z</time></trkpt><trkpt lat="45.1625642" lon="8.0047678"><ele>167.0</ele><time>2026-03-29T14:23:36.208Z</time></trkpt><trkpt lat="45.1625946" lon="8.0045693"><ele>167.0</ele><time>2026-03-29T14:23:37.219Z</time></trkpt><trkpt lat="45.1626233" lon="8.0043764"><ele>167.0</ele><time>2026-03-29T14:23:38.192Z</time></trkpt><trkpt lat="45.1626554" lon="8.0041651"><ele>167.0</ele><time>2026-03-29T14:23:39.192Z</time></trkpt><trkpt lat="45.1626845" lon="8.0039711"><ele>167.0</ele><time>2026-03-29T14:23:40.19Z</time></trkpt><trkpt lat="45.1627125" lon="8.0037839"><ele>167.0</ele><time>2026-03-29T14:23:41.188Z</time></trkpt><trkpt lat="45.1627396" lon="8.0036021"><ele>167.0</ele><time>2026-03-29T14:23:42.185Z</time></trkpt><trkpt lat="45.162766" lon="8.0034219"><ele>167.0</ele><time>2026-03-29T14:23:43.22Z</time></trkpt><trkpt lat="45.1627913" lon="8.003245"><ele>166.5</ele><time>2026-03-29T14:23:44.192Z</time></trkpt><trkpt lat="45.1628189" lon="8.0030647"><ele>166.0</ele><time>2026-03-29T14:23:45.193Z</time></trkpt><trkpt lat="45.1628459" lon="8.0028853"><ele>165.5</ele><time>2026-03-29T14:23:46.197Z</time></trkpt><trkpt lat="45.1628736" lon="8.0027105"><ele>165.0</ele><time>2026-03-29T14:23:47.236Z</time></trkpt><trkpt lat="45.1628987" lon="8.0025583"><ele>165.4</ele><time>2026-03-29T14:23:48.191Z</time></trkpt><trkpt lat="45.1629222" lon="8.0024098"><ele>165.8</ele><time>2026-03-29T14:23:49.191Z</time></trkpt><trkpt lat="45.1629458" lon="8.0022587"><ele>166.2</ele><time>2026-03-29T14:23:50.23Z</time></trkpt><trkpt lat="45.162978" lon="8.0021553"><ele>166.6</ele><time>2026-03-29T14:23:51.195Z</time></trkpt><trkpt lat="45.1630681" lon="8.0019935"><ele>167.0</ele><time>2026-03-29T14:23:53.192Z</time></trkpt><trkpt lat="45.1630725" lon="8.0018479"><ele>168.0</ele><time>2026-03-29T14:23:55.187Z</time></trkpt><trkpt lat="45.1630657" lon="8.0016621"><ele>169.0</ele><time>2026-03-29T14:23:56.191Z</time></trkpt><trkpt lat="45.1630716" lon="8.0014633"><ele>170.0</ele><time>2026-03-29T14:23:57.198Z</time></trkpt><trkpt lat="45.1630842" lon="8.0012852"><ele>171.0</ele><time>2026-03-29T14:23:58.192Z</time></trkpt><trkpt lat="45.1631047" lon="8.0011091"><ele>171.0</ele><time>2026-03-29T14:23:59.191Z</time></trkpt><trkpt lat="45.1631311" lon="8.0009397"><ele>171.0</ele><time>2026-03-29T14:24:00.186Z</time></trkpt><trkpt lat="45.1631561" lon="8.0007882"><ele>171.0</ele><time>2026-03-29T14:24:01.199Z</time></trkpt><trkpt lat="45.1631803" lon="8.0006348"><ele>171.0</ele><time>2026-03-29T14:24:02.204Z</time></trkpt><trkpt lat="45.1632057" lon="8.0004764"><ele>169.5</ele><time>2026-03-29T14:24:03.191Z</time></trkpt><trkpt lat="45.1632305" lon="8.0003246"><ele>168.0</ele><time>2026-03-29T14:24:04.193Z</time></trkpt><trkpt lat="45.163251" lon="8.0001761"><ele>166.5</ele><time>2026-03-29T14:24:05.198Z</time></trkpt><trkpt lat="45.1632771" lon="8.0000018"><ele>165.0</ele><time>2026-03-29T14:24:06.189Z</time></trkpt><trkpt lat="45.1633015" lon="7.9998476"><ele>165.0</ele><time>2026-03-29T14:24:07.194Z</time></trkpt><trkpt lat="45.1633253" lon="7.99969"><ele>165.0</ele><time>2026-03-29T14:24:08.196Z</time></trkpt><trkpt lat="45.1633503" lon="7.9995284"><ele>165.0</ele><time>2026-03-29T14:24:09.187Z</time></trkpt><trkpt lat="45.1633766" lon="7.9993562"><ele>165.0</ele><time>2026-03-29T14:24:10.185Z</time></trkpt><trkpt lat="45.163402" lon="7.9991822"><ele>165.0</ele><time>2026-03-29T14:24:11.194Z</time></trkpt><trkpt lat="45.1634299" lon="7.9990026"><ele>165.0</ele><time>2026-03-29T14:24:12.198Z</time></trkpt><trkpt lat="45.1634571" lon="7.9988215"><ele>165.0</ele><time>2026-03-29T14:24:13.186Z</time></trkpt><trkpt lat="45.1634857" lon="7.9986353"><ele>165.0</ele><time>2026-03-29T14:24:14.186Z</time></trkpt><trkpt lat="45.1635149" lon="7.9984423"><ele>165.25</ele><time>2026-03-29T14:24:15.201Z</time></trkpt><trkpt lat="45.1635441" lon="7.9982474"><ele>165.5</ele><time>2026-03-29T14:24:16.197Z</time></trkpt><trkpt lat="45.1635737" lon="7.9980461"><ele>165.75</ele><time>2026-03-29T14:24:17.19Z</time></trkpt><trkpt lat="45.1636032" lon="7.9978462"><ele>166.0</ele><time>2026-03-29T14:24:18.194Z</time></trkpt><trkpt lat="45.1636318" lon="7.99765"><ele>166.5</ele><time>2026-03-29T14:24:19.198Z</time></trkpt><trkpt lat="45.1636607" lon="7.9974566"><ele>167.0</ele><time>2026-03-29T14:24:20.197Z</time></trkpt><trkpt lat="45.1636879" lon="7.9972706"><ele>167.5</ele><time>2026-03-29T14:24:21.188Z</time></trkpt><trkpt lat="45.1637156" lon="7.9970887"><ele>168.0</ele><time>2026-03-29T14:24:22.195Z</time></trkpt><trkpt lat="45.1637435" lon="7.996905"><ele>168.0</ele><time>2026-03-29T14:24:23.186Z</time></trkpt><trkpt lat="45.1637715" lon="7.9967214"><ele>168.0</ele><time>2026-03-29T14:24:24.184Z</time></trkpt><trkpt lat="45.1638001" lon="7.9965308"><ele>168.0</ele><time>2026-03-29T14:24:25.185Z</time></trkpt><trkpt lat="45.1638276" lon="7.9963373"><ele>168.0</ele><time>2026-03-29T14:24:26.184Z</time></trkpt><trkpt lat="45.1638542" lon="7.9961423"><ele>168.0</ele><time>2026-03-29T14:24:27.192Z</time></trkpt><trkpt lat="45.1638789" lon="7.9959482"><ele>168.0</ele><time>2026-03-29T14:24:28.196Z</time></trkpt><trkpt lat="45.1639041" lon="7.9957522"><ele>168.0</ele><time>2026-03-29T14:24:29.189Z</time></trkpt><trkpt lat="45.1639318" lon="7.9955642"><ele>168.0</ele><time>2026-03-29T14:24:30.19Z</time></trkpt><trkpt lat="45.1639595" lon="7.9953739"><ele>168.0</ele><time>2026-03-29T14:24:31.195Z</time></trkpt><trkpt lat="45.1639861" lon="7.9951852"><ele>168.0</ele><time>2026-03-29T14:24:32.184Z</time></trkpt><trkpt lat="45.1640129" lon="7.9949946"><ele>168.0</ele><time>2026-03-29T14:24:33.188Z</time></trkpt><trkpt lat="45.1640396" lon="7.9947996"><ele>168.0</ele><time>2026-03-29T14:24:34.192Z</time></trkpt><trkpt lat="45.1640683" lon="7.9946016"><ele>167.75</ele><time>2026-03-29T14:24:35.224Z</time></trkpt><trkpt lat="45.1640964" lon="7.9944052"><ele>167.5</ele><time>2026-03-29T14:24:36.207Z</time></trkpt><trkpt lat="45.1641262" lon="7.9941995"><ele>167.25</ele><time>2026-03-29T14:24:37.193Z</time></trkpt><trkpt lat="45.164158" lon="7.9939884"><ele>167.0</ele><time>2026-03-29T14:24:38.197Z</time></trkpt><trkpt lat="45.1641859" lon="7.9937821"><ele>167.0</ele><time>2026-03-29T14:24:39.187Z</time></trkpt><trkpt lat="45.1642132" lon="7.9935712"><ele>167.0</ele><time>2026-03-29T14:24:40.19Z</time></trkpt><trkpt lat="45.1642443" lon="7.9933609"><ele>167.0</ele><time>2026-03-29T14:24:41.192Z</time></trkpt><trkpt lat="45.1642744" lon="7.9931437"><ele>167.0</ele><time>2026-03-29T14:24:42.188Z</time></trkpt><trkpt lat="45.1643048" lon="7.9929307"><ele>167.0</ele><time>2026-03-29T14:24:43.184Z</time></trkpt><trkpt lat="45.1643351" lon="7.9927218"><ele>167.0</ele><time>2026-03-29T14:24:44.198Z</time></trkpt><trkpt lat="45.164363" lon="7.9925205"><ele>167.0</ele><time>2026-03-29T14:24:45.187Z</time></trkpt><trkpt lat="45.1643903" lon="7.9923252"><ele>167.5</ele><time>2026-03-29T14:24:46.183Z</time></trkpt><trkpt lat="45.1644176" lon="7.992138"><ele>168.0</ele><time>2026-03-29T14:24:47.196Z</time></trkpt><trkpt lat="45.1644423" lon="7.9919518"><ele>168.5</ele><time>2026-03-29T14:24:48.193Z</time></trkpt><trkpt lat="45.1644668" lon="7.9917619"><ele>169.0</ele><time>2026-03-29T14:24:49.191Z</time></trkpt><trkpt lat="45.1644938" lon="7.9915615"><ele>169.33333333333334</ele><time>2026-03-29T14:24:50.218Z</time></trkpt><trkpt lat="45.1645165" lon="7.9913352"><ele>169.66666666666666</ele><time>2026-03-29T14:24:51.188Z</time></trkpt><trkpt lat="45.1645475" lon="7.9910768"><ele>170.0</ele><time>2026-03-29T14:24:52.191Z</time></trkpt><trkpt lat="45.1645909" lon="7.9907938"><ele>169.0</ele><time>2026-03-29T14:24:53.187Z</time></trkpt><trkpt lat="45.1646413" lon="7.9904962"><ele>168.0</ele><time>2026-03-29T14:24:54.224Z</time></trkpt><trkpt lat="45.1646785" lon="7.9902629"><ele>167.0</ele><time>2026-03-29T14:24:55.19Z</time></trkpt><trkpt lat="45.1647144" lon="7.9900247"><ele>167.5</ele><time>2026-03-29T14:24:56.191Z</time></trkpt><trkpt lat="45.1647489" lon="7.9898051"><ele>168.0</ele><time>2026-03-29T14:24:57.186Z</time></trkpt><trkpt lat="45.1647807" lon="7.9896043"><ele>168.5</ele><time>2026-03-29T14:24:58.193Z</time></trkpt><trkpt lat="45.1648095" lon="7.9894172"><ele>169.0</ele><time>2026-03-29T14:24:59.209Z</time></trkpt><trkpt lat="45.1648396" lon="7.9892291"><ele>168.5</ele><time>2026-03-29T14:25:00.191Z</time></trkpt><trkpt lat="45.1648692" lon="7.9890481"><ele>168.0</ele><time>2026-03-29T14:25:01.187Z</time></trkpt><trkpt lat="45.1648978" lon="7.9888713"><ele>167.5</ele><time>2026-03-29T14:25:02.183Z</time></trkpt><trkpt lat="45.1649222" lon="7.9887105"><ele>167.0</ele><time>2026-03-29T14:25:03.187Z</time></trkpt><trkpt lat="45.1649472" lon="7.9885537"><ele>167.0</ele><time>2026-03-29T14:25:04.19Z</time></trkpt><trkpt lat="45.16497" lon="7.9884118"><ele>167.0</ele><time>2026-03-29T14:25:05.185Z</time></trkpt><trkpt lat="45.1649907" lon="7.9882903"><ele>167.0</ele><time>2026-03-29T14:25:06.188Z</time></trkpt><trkpt lat="45.1650099" lon="7.9881791"><ele>167.0</ele><time>2026-03-29T14:25:07.179Z</time></trkpt><trkpt lat="45.1650277" lon="7.9880774"><ele>167.0</ele><time>2026-03-29T14:25:08.203Z</time></trkpt><trkpt lat="45.1650473" lon="7.9879742"><ele>167.0</ele><time>2026-03-29T14:25:09.183Z</time></trkpt><trkpt lat="45.165074" lon="7.9878669"><ele>166.8</ele><time>2026-03-29T14:25:10.187Z</time></trkpt><trkpt lat="45.165139" lon="7.9877608"><ele>166.6</ele><time>2026-03-29T14:25:12.194Z</time></trkpt><trkpt lat="45.1651539" lon="7.9876173"><ele>166.4</ele><time>2026-03-29T14:25:14.183Z</time></trkpt><trkpt lat="45.1651563" lon="7.987447"><ele>166.20000000000002</ele><time>2026-03-29T14:25:15.185Z</time></trkpt><trkpt lat="45.1651641" lon="7.9872675"><ele>166.0</ele><time>2026-03-29T14:25:16.188Z</time></trkpt><trkpt lat="45.1651801" lon="7.9870809"><ele>166.0</ele><time>2026-03-29T14:25:17.184Z</time></trkpt><trkpt lat="45.1652015" lon="7.9868812"><ele>166.0</ele><time>2026-03-29T14:25:18.215Z</time></trkpt><trkpt lat="45.1652271" lon="7.9866762"><ele>166.0</ele><time>2026-03-29T14:25:19.187Z</time></trkpt><trkpt lat="45.1652558" lon="7.9864498"><ele>166.0</ele><time>2026-03-29T14:25:20.189Z</time></trkpt><trkpt lat="45.165283" lon="7.9862113"><ele>166.0</ele><time>2026-03-29T14:25:21.225Z</time></trkpt><trkpt lat="45.165319" lon="7.9859299"><ele>166.0</ele><time>2026-03-29T14:25:22.193Z</time></trkpt><trkpt lat="45.165356" lon="7.9856567"><ele>166.0</ele><time>2026-03-29T14:25:23.207Z</time></trkpt><trkpt lat="45.1653885" lon="7.9853653"><ele>166.0</ele><time>2026-03-29T14:25:24.195Z</time></trkpt><trkpt lat="45.1655041" lon="7.9850686"><ele>166.0</ele><time>2026-03-29T14:25:25.181Z</time></trkpt><trkpt lat="45.1655504" lon="7.9847315"><ele>166.5</ele><time>2026-03-29T14:25:26.19Z</time></trkpt><trkpt lat="45.1656042" lon="7.9843916"><ele>167.0</ele><time>2026-03-29T14:25:27.188Z</time></trkpt><trkpt lat="45.1656584" lon="7.9840728"><ele>166.66666666666666</ele><time>2026-03-29T14:25:28.218Z</time></trkpt><trkpt lat="45.1657085" lon="7.9837829"><ele>166.33333333333334</ele><time>2026-03-29T14:25:29.215Z</time></trkpt><trkpt lat="45.1657507" lon="7.9835151"><ele>166.0</ele><time>2026-03-29T14:25:30.205Z</time></trkpt><trkpt lat="45.165789" lon="7.9832567"><ele>165.33333333333334</ele><time>2026-03-29T14:25:31.179Z</time></trkpt><trkpt lat="45.1658226" lon="7.9830045"><ele>164.66666666666666</ele><time>2026-03-29T14:25:32.186Z</time></trkpt><trkpt lat="45.1658566" lon="7.9827578"><ele>164.0</ele><time>2026-03-29T14:25:33.183Z</time></trkpt><trkpt lat="45.1658912" lon="7.9825187"><ele>165.0</ele><time>2026-03-29T14:25:34.185Z</time></trkpt><trkpt lat="45.1659253" lon="7.9822858"><ele>166.0</ele><time>2026-03-29T14:25:35.184Z</time></trkpt><trkpt lat="45.1659607" lon="7.9820553"><ele>167.0</ele><time>2026-03-29T14:25:36.187Z</time></trkpt><trkpt lat="45.1659938" lon="7.9818234"><ele>169.33333333333331</ele><time>2026-03-29T14:25:37.186Z</time></trkpt><trkpt lat="45.1660288" lon="7.9815868"><ele>171.66666666666666</ele><time>2026-03-29T14:25:38.188Z</time></trkpt><trkpt lat="45.1660632" lon="7.9813477"><ele>174.0</ele><time>2026-03-29T14:25:39.191Z</time></trkpt><trkpt lat="45.1660982" lon="7.9810971"><ele>175.66666666666666</ele><time>2026-03-29T14:25:40.178Z</time></trkpt><trkpt lat="45.166133" lon="7.9808397"><ele>177.33333333333331</ele><time>2026-03-29T14:25:41.195Z</time></trkpt><trkpt lat="45.1661685" lon="7.9805807"><ele>179.0</ele><time>2026-03-29T14:25:42.182Z</time></trkpt><trkpt lat="45.1662049" lon="7.9803218"><ele>179.0</ele><time>2026-03-29T14:25:43.182Z</time></trkpt><trkpt lat="45.16624" lon="7.9800628"><ele>179.0</ele><time>2026-03-29T14:25:44.2Z</time></trkpt><trkpt lat="45.1662757" lon="7.9798056"><ele>179.0</ele><time>2026-03-29T14:25:45.185Z</time></trkpt><trkpt lat="45.1663114" lon="7.9795502"><ele>179.33333333333331</ele><time>2026-03-29T14:25:46.195Z</time></trkpt><trkpt lat="45.1663485" lon="7.9792964"><ele>179.66666666666666</ele><time>2026-03-29T14:25:47.193Z</time></trkpt><trkpt lat="45.1663847" lon="7.9790459"><ele>180.0</ele><time>2026-03-29T14:25:48.182Z</time></trkpt><trkpt lat="45.1664207" lon="7.9787964"><ele>181.0</ele><time>2026-03-29T14:25:49.187Z</time></trkpt><trkpt lat="45.1664564" lon="7.9785489"><ele>182.0</ele><time>2026-03-29T14:25:50.185Z</time></trkpt><trkpt lat="45.1664929" lon="7.9783053"><ele>183.0</ele><time>2026-03-29T14:25:51.185Z</time></trkpt><trkpt lat="45.1665294" lon="7.9780631"><ele>180.0</ele><time>2026-03-29T14:25:52.187Z</time></trkpt><trkpt lat="45.1665684" lon="7.9778158"><ele>177.0</ele><time>2026-03-29T14:25:53.182Z</time></trkpt><trkpt lat="45.1666079" lon="7.9775666"><ele>174.0</ele><time>2026-03-29T14:25:54.181Z</time></trkpt><trkpt lat="45.1666466" lon="7.9773212"><ele>174.0</ele><time>2026-03-29T14:25:55.178Z</time></trkpt><trkpt lat="45.1666853" lon="7.9770817"><ele>174.0</ele><time>2026-03-29T14:25:56.185Z</time></trkpt><trkpt lat="45.1667222" lon="7.9768553"><ele>174.0</ele><time>2026-03-29T14:25:57.187Z</time></trkpt><trkpt lat="45.1667531" lon="7.9766413"><ele>175.25</ele><time>2026-03-29T14:25:58.213Z</time></trkpt><trkpt lat="45.1667818" lon="7.9764404"><ele>176.5</ele><time>2026-03-29T14:25:59.177Z</time></trkpt><trkpt lat="45.1668127" lon="7.9762453"><ele>177.75</ele><time>2026-03-29T14:26:00.177Z</time></trkpt><trkpt lat="45.1668439" lon="7.9760443"><ele>179.0</ele><time>2026-03-29T14:26:01.182Z</time></trkpt><trkpt lat="45.1668754" lon="7.975839"><ele>180.25</ele><time>2026-03-29T14:26:02.182Z</time></trkpt><trkpt lat="45.1669092" lon="7.975634"><ele>181.5</ele><time>2026-03-29T14:26:03.188Z</time></trkpt><trkpt lat="45.1669401" lon="7.9754323"><ele>182.75</ele><time>2026-03-29T14:26:04.192Z</time></trkpt><trkpt lat="45.1669687" lon="7.9752331"><ele>184.0</ele><time>2026-03-29T14:26:05.18Z</time></trkpt><trkpt lat="45.1670021" lon="7.9750401"><ele>187.0</ele><time>2026-03-29T14:26:06.18Z</time></trkpt><trkpt lat="45.1670358" lon="7.9748467"><ele>190.0</ele><time>2026-03-29T14:26:07.19Z</time></trkpt><trkpt lat="45.1670678" lon="7.9746529"><ele>193.0</ele><time>2026-03-29T14:26:08.2Z</time></trkpt><trkpt lat="45.1671022" lon="7.9744559"><ele>196.0</ele><time>2026-03-29T14:26:09.19Z</time></trkpt><trkpt lat="45.1671354" lon="7.9742549"><ele>200.0</ele><time>2026-03-29T14:26:10.183Z</time></trkpt><trkpt lat="45.1671691" lon="7.9740441"><ele>204.0</ele><time>2026-03-29T14:26:11.18Z</time></trkpt><trkpt lat="45.1672012" lon="7.9738282"><ele>208.0</ele><time>2026-03-29T14:26:12.19Z</time></trkpt><trkpt lat="45.1672346" lon="7.9736057"><ele>208.0</ele><time>2026-03-29T14:26:13.186Z</time></trkpt><trkpt lat="45.1672785" lon="7.9733744"><ele>208.0</ele><time>2026-03-29T14:26:14.213Z</time></trkpt><trkpt lat="45.1673219" lon="7.9731304"><ele>208.0</ele><time>2026-03-29T14:26:15.177Z</time></trkpt><trkpt lat="45.1673585" lon="7.9728749"><ele>195.66666666666666</ele><time>2026-03-29T14:26:16.181Z</time></trkpt><trkpt lat="45.1673817" lon="7.9726103"><ele>183.33333333333331</ele><time>2026-03-29T14:26:17.184Z</time></trkpt><trkpt lat="45.1673953" lon="7.9723466"><ele>171.0</ele><time>2026-03-29T14:26:18.182Z</time></trkpt><trkpt lat="45.1674047" lon="7.9720904"><ele>170.66666666666666</ele><time>2026-03-29T14:26:19.193Z</time></trkpt><trkpt lat="45.167408" lon="7.9718333"><ele>170.33333333333331</ele><time>2026-03-29T14:26:20.196Z</time></trkpt><trkpt lat="45.1674057" lon="7.9715776"><ele>170.0</ele><time>2026-03-29T14:26:21.186Z</time></trkpt><trkpt lat="45.1673998" lon="7.971325"><ele>170.0</ele><time>2026-03-29T14:26:22.181Z</time></trkpt><trkpt lat="45.1673905" lon="7.9710777"><ele>170.0</ele><time>2026-03-29T14:26:23.192Z</time></trkpt><trkpt lat="45.1673747" lon="7.9708334"><ele>170.0</ele><time>2026-03-29T14:26:24.185Z</time></trkpt><trkpt lat="45.1673571" lon="7.970591"><ele>169.66666666666666</ele><time>2026-03-29T14:26:25.199Z</time></trkpt><trkpt lat="45.1673332" lon="7.97035"><ele>169.33333333333334</ele><time>2026-03-29T14:26:26.185Z</time></trkpt><trkpt lat="45.167309" lon="7.970111"><ele>169.0</ele><time>2026-03-29T14:26:27.194Z</time></trkpt><trkpt lat="45.1672864" lon="7.9698702"><ele>168.66666666666669</ele><time>2026-03-29T14:26:28.186Z</time></trkpt><trkpt lat="45.1672695" lon="7.969625"><ele>168.33333333333334</ele><time>2026-03-29T14:26:29.193Z</time></trkpt><trkpt lat="45.1672616" lon="7.9693747"><ele>168.0</ele><time>2026-03-29T14:26:30.182Z</time></trkpt><trkpt lat="45.1672584" lon="7.969124"><ele>168.0</ele><time>2026-03-29T14:26:31.183Z</time></trkpt><trkpt lat="45.1672619" lon="7.9688674"><ele>168.0</ele><time>2026-03-29T14:26:32.185Z</time></trkpt><trkpt lat="45.167272" lon="7.9686077"><ele>168.0</ele><time>2026-03-29T14:26:33.191Z</time></trkpt><trkpt lat="45.1672865" lon="7.9683438"><ele>168.0</ele><time>2026-03-29T14:26:34.191Z</time></trkpt><trkpt lat="45.1673045" lon="7.9680812"><ele>168.0</ele><time>2026-03-29T14:26:35.196Z</time></trkpt><trkpt lat="45.1673279" lon="7.9678233"><ele>168.0</ele><time>2026-03-29T14:26:36.191Z</time></trkpt><trkpt lat="45.1673537" lon="7.9675706"><ele>168.33333333333334</ele><time>2026-03-29T14:26:37.201Z</time></trkpt><trkpt lat="45.1673813" lon="7.9673193"><ele>168.66666666666669</ele><time>2026-03-29T14:26:38.19Z</time></trkpt><trkpt lat="45.1674139" lon="7.9670661"><ele>169.0</ele><time>2026-03-29T14:26:39.189Z</time></trkpt><trkpt lat="45.167451" lon="7.9668032"><ele>168.33333333333334</ele><time>2026-03-29T14:26:40.219Z</time></trkpt><trkpt lat="45.1674897" lon="7.9665206"><ele>167.66666666666666</ele><time>2026-03-29T14:26:41.195Z</time></trkpt><trkpt lat="45.1675267" lon="7.9662162"><ele>167.0</ele><time>2026-03-29T14:26:42.197Z</time></trkpt><trkpt lat="45.1675686" lon="7.9658946"><ele>166.5</ele><time>2026-03-29T14:26:43.197Z</time></trkpt><trkpt lat="45.1676091" lon="7.9655608"><ele>166.0</ele><time>2026-03-29T14:26:44.195Z</time></trkpt><trkpt lat="45.1676493" lon="7.9652258"><ele>167.5</ele><time>2026-03-29T14:26:45.188Z</time></trkpt><trkpt lat="45.1676854" lon="7.9648838"><ele>169.0</ele><time>2026-03-29T14:26:46.2Z</time></trkpt><trkpt lat="45.1677227" lon="7.9645249"><ele>168.5</ele><time>2026-03-29T14:26:47.201Z</time></trkpt><trkpt lat="45.1677634" lon="7.9641494"><ele>168.0</ele><time>2026-03-29T14:26:48.178Z</time></trkpt><trkpt lat="45.1678113" lon="7.9637697"><ele>168.0</ele><time>2026-03-29T14:26:49.187Z</time></trkpt><trkpt lat="45.1678619" lon="7.9634089"><ele>168.0</ele><time>2026-03-29T14:26:50.187Z</time></trkpt><trkpt lat="45.1679107" lon="7.9630703"><ele>167.66666666666666</ele><time>2026-03-29T14:26:51.178Z</time></trkpt><trkpt lat="45.1679551" lon="7.9627543"><ele>167.33333333333331</ele><time>2026-03-29T14:26:52.19Z</time></trkpt><trkpt lat="45.1679945" lon="7.9624585"><ele>167.0</ele><time>2026-03-29T14:26:53.217Z</time></trkpt><trkpt lat="45.1680292" lon="7.962181"><ele>167.0</ele><time>2026-03-29T14:26:54.183Z</time></trkpt><trkpt lat="45.1680599" lon="7.9619237"><ele>167.0</ele><time>2026-03-29T14:26:55.18Z</time></trkpt><trkpt lat="45.1680858" lon="7.9616829"><ele>167.0</ele><time>2026-03-29T14:26:56.184Z</time></trkpt><trkpt lat="45.1681121" lon="7.9614632"><ele>167.25</ele><time>2026-03-29T14:26:57.184Z</time></trkpt><trkpt lat="45.1681377" lon="7.9612608"><ele>167.5</ele><time>2026-03-29T14:26:58.191Z</time></trkpt><trkpt lat="45.1681604" lon="7.9610663"><ele>167.75</ele><time>2026-03-29T14:26:59.181Z</time></trkpt><trkpt lat="45.1681852" lon="7.9608751"><ele>168.0</ele><time>2026-03-29T14:27:00.177Z</time></trkpt><trkpt lat="45.1682108" lon="7.9606834"><ele>168.0</ele><time>2026-03-29T14:27:01.182Z</time></trkpt><trkpt lat="45.1682349" lon="7.9604964"><ele>168.0</ele><time>2026-03-29T14:27:02.183Z</time></trkpt><trkpt lat="45.1682576" lon="7.960315"><ele>168.0</ele><time>2026-03-29T14:27:03.185Z</time></trkpt><trkpt lat="45.1682801" lon="7.9601356"><ele>168.0</ele><time>2026-03-29T14:27:04.184Z</time></trkpt><trkpt lat="45.1683057" lon="7.9599504"><ele>168.25</ele><time>2026-03-29T14:27:05.191Z</time></trkpt><trkpt lat="45.168331" lon="7.9597637"><ele>168.5</ele><time>2026-03-29T14:27:06.187Z</time></trkpt><trkpt lat="45.1683545" lon="7.9595801"><ele>168.75</ele><time>2026-03-29T14:27:07.187Z</time></trkpt><trkpt lat="45.1683786" lon="7.9594019"><ele>169.0</ele><time>2026-03-29T14:27:08.186Z</time></trkpt><trkpt lat="45.1684024" lon="7.9592293"><ele>169.0</ele><time>2026-03-29T14:27:09.194Z</time></trkpt><trkpt lat="45.1684285" lon="7.9590593"><ele>169.0</ele><time>2026-03-29T14:27:10.18Z</time></trkpt><trkpt lat="45.1684522" lon="7.9588884"><ele>169.0</ele><time>2026-03-29T14:27:11.186Z</time></trkpt><trkpt lat="45.1684741" lon="7.9587226"><ele>169.0</ele><time>2026-03-29T14:27:12.216Z</time></trkpt><trkpt lat="45.1684943" lon="7.9585638"><ele>169.0</ele><time>2026-03-29T14:27:13.188Z</time></trkpt><trkpt lat="45.1685105" lon="7.9584173"><ele>169.0</ele><time>2026-03-29T14:27:14.19Z</time></trkpt><trkpt lat="45.1685244" lon="7.9582857"><ele>169.0</ele><time>2026-03-29T14:27:15.183Z</time></trkpt><trkpt lat="45.1685376" lon="7.9581699"><ele>169.0</ele><time>2026-03-29T14:27:16.178Z</time></trkpt><trkpt lat="45.1685485" lon="7.9580649"><ele>169.0</ele><time>2026-03-29T14:27:17.183Z</time></trkpt><trkpt lat="45.1685565" lon="7.9579723"><ele>169.0</ele><time>2026-03-29T14:27:18.179Z</time></trkpt><trkpt lat="45.1685668" lon="7.9578383"><ele>169.16666666666669</ele><time>2026-03-29T14:27:20.178Z</time></trkpt><trkpt lat="45.1685662" lon="7.9577193"><ele>169.33333333333334</ele><time>2026-03-29T14:27:25.18Z</time></trkpt><trkpt lat="45.1685952" lon="7.9575903"><ele>169.5</ele><time>2026-03-29T14:27:27.181Z</time></trkpt><trkpt lat="45.1686324" lon="7.9574341"><ele>169.66666666666666</ele><time>2026-03-29T14:27:29.183Z</time></trkpt><trkpt lat="45.1686378" lon="7.95734"><ele>169.83333333333331</ele><time>2026-03-29T14:27:30.188Z</time></trkpt><trkpt lat="45.1686379" lon="7.9572342"><ele>170.0</ele><time>2026-03-29T14:27:31.184Z</time></trkpt><trkpt lat="45.1686449" lon="7.9571187"><ele>170.0</ele><time>2026-03-29T14:27:32.181Z</time></trkpt><trkpt lat="45.1686598" lon="7.956992"><ele>170.0</ele><time>2026-03-29T14:27:33.181Z</time></trkpt><trkpt lat="45.1686825" lon="7.9568472"><ele>170.0</ele><time>2026-03-29T14:27:34.204Z</time></trkpt><trkpt lat="45.1687091" lon="7.9566819"><ele>170.0</ele><time>2026-03-29T14:27:35.184Z</time></trkpt><trkpt lat="45.1687361" lon="7.9565063"><ele>170.0</ele><time>2026-03-29T14:27:36.206Z</time></trkpt><trkpt lat="45.1687609" lon="7.9563258"><ele>170.25</ele><time>2026-03-29T14:27:37.188Z</time></trkpt><trkpt lat="45.1687842" lon="7.9561463"><ele>170.5</ele><time>2026-03-29T14:27:38.213Z</time></trkpt><trkpt lat="45.1688086" lon="7.9559618"><ele>170.75</ele><time>2026-03-29T14:27:39.183Z</time></trkpt><trkpt lat="45.168834" lon="7.9557636"><ele>171.0</ele><time>2026-03-29T14:27:40.186Z</time></trkpt><trkpt lat="45.1688613" lon="7.9555495"><ele>171.0</ele><time>2026-03-29T14:27:41.182Z</time></trkpt><trkpt lat="45.1688877" lon="7.9553287"><ele>171.0</ele><time>2026-03-29T14:27:42.206Z</time></trkpt><trkpt lat="45.1689131" lon="7.955108"><ele>171.0</ele><time>2026-03-29T14:27:43.186Z</time></trkpt><trkpt lat="45.1689359" lon="7.9548846"><ele>171.0</ele><time>2026-03-29T14:27:44.186Z</time></trkpt><trkpt lat="45.1689569" lon="7.9546603"><ele>171.0</ele><time>2026-03-29T14:27:45.18Z</time></trkpt><trkpt lat="45.1689777" lon="7.9544387"><ele>171.0</ele><time>2026-03-29T14:27:46.191Z</time></trkpt><trkpt lat="45.1690046" lon="7.954229"><ele>171.5</ele><time>2026-03-29T14:27:47.185Z</time></trkpt><trkpt lat="45.1690315" lon="7.954028"><ele>172.0</ele><time>2026-03-29T14:27:48.183Z</time></trkpt><trkpt lat="45.1690596" lon="7.9538318"><ele>172.5</ele><time>2026-03-29T14:27:49.201Z</time></trkpt><trkpt lat="45.1690875" lon="7.9536359"><ele>173.0</ele><time>2026-03-29T14:27:50.178Z</time></trkpt><trkpt lat="45.169115" lon="7.9534388"><ele>173.33333333333331</ele><time>2026-03-29T14:27:51.186Z</time></trkpt><trkpt lat="45.1691421" lon="7.9532329"><ele>173.66666666666666</ele><time>2026-03-29T14:27:52.191Z</time></trkpt><trkpt lat="45.1691682" lon="7.9530197"><ele>174.0</ele><time>2026-03-29T14:27:53.194Z</time></trkpt><trkpt lat="45.1691966" lon="7.9527959"><ele>174.0</ele><time>2026-03-29T14:27:54.18Z</time></trkpt><trkpt lat="45.1692274" lon="7.9525619"><ele>174.0</ele><time>2026-03-29T14:27:55.185Z</time></trkpt><trkpt lat="45.169258" lon="7.952317"><ele>174.0</ele><time>2026-03-29T14:27:56.181Z</time></trkpt><trkpt lat="45.1692892" lon="7.9520672"><ele>173.66666666666666</ele><time>2026-03-29T14:27:57.19Z</time></trkpt><trkpt lat="45.1693183" lon="7.9518168"><ele>173.33333333333331</ele><time>2026-03-29T14:27:58.177Z</time></trkpt><trkpt lat="45.1693468" lon="7.9515636"><ele>173.0</ele><time>2026-03-29T14:27:59.182Z</time></trkpt><trkpt lat="45.1693762" lon="7.9513119"><ele>173.0</ele><time>2026-03-29T14:28:00.178Z</time></trkpt><trkpt lat="45.1694071" lon="7.9510679"><ele>173.0</ele><time>2026-03-29T14:28:01.182Z</time></trkpt><trkpt lat="45.1694385" lon="7.9508391"><ele>173.0</ele><time>2026-03-29T14:28:02.179Z</time></trkpt><trkpt lat="45.1694696" lon="7.9506288"><ele>173.0</ele><time>2026-03-29T14:28:03.192Z</time></trkpt><trkpt lat="45.1694981" lon="7.9504304"><ele>173.0</ele><time>2026-03-29T14:28:04.208Z</time></trkpt><trkpt lat="45.1695223" lon="7.9502305"><ele>173.0</ele><time>2026-03-29T14:28:05.182Z</time></trkpt><trkpt lat="45.1695457" lon="7.9500245"><ele>173.0</ele><time>2026-03-29T14:28:06.176Z</time></trkpt><trkpt lat="45.1695685" lon="7.9498105"><ele>172.66666666666666</ele><time>2026-03-29T14:28:07.182Z</time></trkpt><trkpt lat="45.1695905" lon="7.9495931"><ele>172.33333333333334</ele><time>2026-03-29T14:28:08.192Z</time></trkpt><trkpt lat="45.1696103" lon="7.9493833"><ele>172.0</ele><time>2026-03-29T14:28:09.183Z</time></trkpt><trkpt lat="45.1696307" lon="7.949176"><ele>171.66666666666669</ele><time>2026-03-29T14:28:10.185Z</time></trkpt><trkpt lat="45.1696521" lon="7.948961"><ele>171.33333333333334</ele><time>2026-03-29T14:28:11.176Z</time></trkpt><trkpt lat="45.169678" lon="7.9487401"><ele>171.0</ele><time>2026-03-29T14:28:12.208Z</time></trkpt><trkpt lat="45.1697055" lon="7.9485176"><ele>171.0</ele><time>2026-03-29T14:28:13.178Z</time></trkpt><trkpt lat="45.1697338" lon="7.9482926"><ele>171.0</ele><time>2026-03-29T14:28:14.185Z</time></trkpt><trkpt lat="45.1697629" lon="7.9480739"><ele>171.0</ele><time>2026-03-29T14:28:15.177Z</time></trkpt><trkpt lat="45.1697918" lon="7.9478646"><ele>171.0</ele><time>2026-03-29T14:28:16.19Z</time></trkpt><trkpt lat="45.1698202" lon="7.9476623"><ele>171.0</ele><time>2026-03-29T14:28:17.177Z</time></trkpt><trkpt lat="45.169848" lon="7.9474631"><ele>171.0</ele><time>2026-03-29T14:28:18.179Z</time></trkpt><trkpt lat="45.1698745" lon="7.9472627"><ele>171.0</ele><time>2026-03-29T14:28:19.213Z</time></trkpt><trkpt lat="45.1698989" lon="7.9470625"><ele>171.25</ele><time>2026-03-29T14:28:20.18Z</time></trkpt><trkpt lat="45.1699245" lon="7.9468602"><ele>171.5</ele><time>2026-03-29T14:28:21.187Z</time></trkpt><trkpt lat="45.1699526" lon="7.9466561"><ele>171.75</ele><time>2026-03-29T14:28:22.191Z</time></trkpt><trkpt lat="45.1699801" lon="7.9464514"><ele>172.0</ele><time>2026-03-29T14:28:23.182Z</time></trkpt><trkpt lat="45.1700065" lon="7.9462443"><ele>172.0</ele><time>2026-03-29T14:28:24.18Z</time></trkpt><trkpt lat="45.1700315" lon="7.9460318"><ele>172.0</ele><time>2026-03-29T14:28:25.179Z</time></trkpt><trkpt lat="45.1700572" lon="7.9458112"><ele>172.0</ele><time>2026-03-29T14:28:26.182Z</time></trkpt><trkpt lat="45.1700834" lon="7.945591"><ele>172.33333333333334</ele><time>2026-03-29T14:28:27.206Z</time></trkpt><trkpt lat="45.1701098" lon="7.9453761"><ele>172.66666666666666</ele><time>2026-03-29T14:28:28.184Z</time></trkpt><trkpt lat="45.1701366" lon="7.9451622"><ele>173.0</ele><time>2026-03-29T14:28:29.181Z</time></trkpt><trkpt lat="45.1701632" lon="7.9449491"><ele>173.0</ele><time>2026-03-29T14:28:30.175Z</time></trkpt><trkpt lat="45.1701886" lon="7.9447419"><ele>173.0</ele><time>2026-03-29T14:28:31.18Z</time></trkpt><trkpt lat="45.1702125" lon="7.9445425"><ele>173.0</ele><time>2026-03-29T14:28:32.203Z</time></trkpt><trkpt lat="45.1702353" lon="7.9443458"><ele>173.0</ele><time>2026-03-29T14:28:33.181Z</time></trkpt><trkpt lat="45.170259" lon="7.9441486"><ele>173.0</ele><time>2026-03-29T14:28:34.182Z</time></trkpt><trkpt lat="45.170282" lon="7.9439552"><ele>173.0</ele><time>2026-03-29T14:28:35.179Z</time></trkpt><trkpt lat="45.1703021" lon="7.9437716"><ele>173.0</ele><time>2026-03-29T14:28:36.185Z</time></trkpt><trkpt lat="45.1703211" lon="7.9435995"><ele>173.0</ele><time>2026-03-29T14:28:37.182Z</time></trkpt><trkpt lat="45.1703391" lon="7.9434354"><ele>172.60000000000002</ele><time>2026-03-29T14:28:38.185Z</time></trkpt><trkpt lat="45.170357" lon="7.9432772"><ele>172.20000000000002</ele><time>2026-03-29T14:28:39.178Z</time></trkpt><trkpt lat="45.1703759" lon="7.9431248"><ele>171.8</ele><time>2026-03-29T14:28:40.177Z</time></trkpt><trkpt lat="45.1703972" lon="7.9429851"><ele>171.4</ele><time>2026-03-29T14:28:41.185Z</time></trkpt><trkpt lat="45.1704185" lon="7.9428658"><ele>171.0</ele><time>2026-03-29T14:28:42.209Z</time></trkpt><trkpt lat="45.1704427" lon="7.942769"><ele>171.0</ele><time>2026-03-29T14:28:43.18Z</time></trkpt><trkpt lat="45.1704737" lon="7.9426865"><ele>171.0</ele><time>2026-03-29T14:28:44.182Z</time></trkpt><trkpt lat="45.1705148" lon="7.9426121"><ele>171.0</ele><time>2026-03-29T14:28:45.189Z</time></trkpt><trkpt lat="45.1705673" lon="7.9425384"><ele>171.0</ele><time>2026-03-29T14:28:46.179Z</time></trkpt><trkpt lat="45.1706299" lon="7.9424568"><ele>171.0</ele><time>2026-03-29T14:28:47.187Z</time></trkpt><trkpt lat="45.1706925" lon="7.9423474"><ele>171.0</ele><time>2026-03-29T14:28:48.185Z</time></trkpt><trkpt lat="45.1707403" lon="7.9422209"><ele>171.0</ele><time>2026-03-29T14:28:49.186Z</time></trkpt><trkpt lat="45.1707563" lon="7.9420759"><ele>171.0</ele><time>2026-03-29T14:28:50.18Z</time></trkpt><trkpt lat="45.1707331" lon="7.9419224"><ele>171.0</ele><time>2026-03-29T14:28:51.18Z</time></trkpt><trkpt lat="45.1706897" lon="7.9417657"><ele>171.0</ele><time>2026-03-29T14:28:52.183Z</time></trkpt><trkpt lat="45.1706454" lon="7.9415926"><ele>170.66666666666666</ele><time>2026-03-29T14:28:53.183Z</time></trkpt><trkpt lat="45.170629" lon="7.941402"><ele>170.33333333333331</ele><time>2026-03-29T14:28:54.176Z</time></trkpt><trkpt lat="45.1706365" lon="7.9411815"><ele>170.0</ele><time>2026-03-29T14:28:55.209Z</time></trkpt><trkpt lat="45.1706663" lon="7.9409268"><ele>170.33333333333331</ele><time>2026-03-29T14:28:56.181Z</time></trkpt><trkpt lat="45.1707063" lon="7.940647"><ele>170.66666666666666</ele><time>2026-03-29T14:28:57.2Z</time></trkpt><trkpt lat="45.1707463" lon="7.9403675"><ele>171.0</ele><time>2026-03-29T14:28:58.181Z</time></trkpt><trkpt lat="45.1707832" lon="7.9401044"><ele>172.0</ele><time>2026-03-29T14:28:59.179Z</time></trkpt><trkpt lat="45.1708129" lon="7.9398624"><ele>173.0</ele><time>2026-03-29T14:29:00.208Z</time></trkpt><trkpt lat="45.1708382" lon="7.9396303"><ele>174.0</ele><time>2026-03-29T14:29:01.21Z</time></trkpt><trkpt lat="45.170864" lon="7.9393969"><ele>173.33333333333334</ele><time>2026-03-29T14:29:02.185Z</time></trkpt><trkpt lat="45.1708913" lon="7.9391543"><ele>172.66666666666669</ele><time>2026-03-29T14:29:03.211Z</time></trkpt><trkpt lat="45.1709194" lon="7.9389071"><ele>172.0</ele><time>2026-03-29T14:29:04.188Z</time></trkpt><trkpt lat="45.1709487" lon="7.9386679"><ele>172.0</ele><time>2026-03-29T14:29:05.18Z</time></trkpt><trkpt lat="45.1709785" lon="7.9384316"><ele>172.0</ele><time>2026-03-29T14:29:06.209Z</time></trkpt><trkpt lat="45.1710066" lon="7.9381854"><ele>172.0</ele><time>2026-03-29T14:29:07.182Z</time></trkpt><trkpt lat="45.1710338" lon="7.9379259"><ele>172.0</ele><time>2026-03-29T14:29:08.177Z</time></trkpt><trkpt lat="45.1710667" lon="7.9376558"><ele>172.0</ele><time>2026-03-29T14:29:09.18Z</time></trkpt><trkpt lat="45.1711016" lon="7.9373658"><ele>172.0</ele><time>2026-03-29T14:29:10.176Z</time></trkpt><trkpt lat="45.1711374" lon="7.9370495"><ele>172.5</ele><time>2026-03-29T14:29:11.178Z</time></trkpt><trkpt lat="45.171176" lon="7.9366965"><ele>173.0</ele><time>2026-03-29T14:29:12.187Z</time></trkpt><trkpt lat="45.1712215" lon="7.9363092"><ele>173.0</ele><time>2026-03-29T14:29:13.181Z</time></trkpt><trkpt lat="45.1712735" lon="7.9359016"><ele>173.0</ele><time>2026-03-29T14:29:14.187Z</time></trkpt><trkpt lat="45.1713269" lon="7.9354908"><ele>172.5</ele><time>2026-03-29T14:29:15.185Z</time></trkpt><trkpt lat="45.1713798" lon="7.9350974"><ele>172.0</ele><time>2026-03-29T14:29:16.179Z</time></trkpt><trkpt lat="45.1714365" lon="7.9347207"><ele>171.5</ele><time>2026-03-29T14:29:17.184Z</time></trkpt><trkpt lat="45.1714885" lon="7.9343593"><ele>171.0</ele><time>2026-03-29T14:29:18.191Z</time></trkpt><trkpt lat="45.171534" lon="7.9340093"><ele>172.0</ele><time>2026-03-29T14:29:19.176Z</time></trkpt><trkpt lat="45.1715788" lon="7.9336726"><ele>173.0</ele><time>2026-03-29T14:29:20.179Z</time></trkpt><trkpt lat="45.1716221" lon="7.9333407"><ele>173.5</ele><time>2026-03-29T14:29:21.177Z</time></trkpt><trkpt lat="45.1716626" lon="7.9330132"><ele>174.0</ele><time>2026-03-29T14:29:22.181Z</time></trkpt><trkpt lat="45.1717049" lon="7.9326754"><ele>174.5</ele><time>2026-03-29T14:29:23.182Z</time></trkpt><trkpt lat="45.1717473" lon="7.932347"><ele>175.0</ele><time>2026-03-29T14:29:24.183Z</time></trkpt><trkpt lat="45.1717904" lon="7.9320231"><ele>174.66666666666669</ele><time>2026-03-29T14:29:25.178Z</time></trkpt><trkpt lat="45.1718279" lon="7.9317074"><ele>174.33333333333334</ele><time>2026-03-29T14:29:26.179Z</time></trkpt><trkpt lat="45.171864" lon="7.9314009"><ele>174.0</ele><time>2026-03-29T14:29:27.211Z</time></trkpt><trkpt lat="45.1719" lon="7.931104"><ele>173.66666666666666</ele><time>2026-03-29T14:29:28.177Z</time></trkpt><trkpt lat="45.1719344" lon="7.9308169"><ele>173.33333333333331</ele><time>2026-03-29T14:29:29.178Z</time></trkpt><trkpt lat="45.1719665" lon="7.9305394"><ele>173.0</ele><time>2026-03-29T14:29:30.181Z</time></trkpt><trkpt lat="45.1719957" lon="7.9302707"><ele>173.0</ele><time>2026-03-29T14:29:31.182Z</time></trkpt><trkpt lat="45.1720225" lon="7.930009"><ele>173.0</ele><time>2026-03-29T14:29:32.178Z</time></trkpt><trkpt lat="45.1720516" lon="7.9297439"><ele>173.0</ele><time>2026-03-29T14:29:33.18Z</time></trkpt><trkpt lat="45.1720834" lon="7.9294727"><ele>173.66666666666666</ele><time>2026-03-29T14:29:34.188Z</time></trkpt><trkpt lat="45.1721174" lon="7.9292009"><ele>174.33333333333334</ele><time>2026-03-29T14:29:35.179Z</time></trkpt><trkpt lat="45.1721516" lon="7.9289304"><ele>175.0</ele><time>2026-03-29T14:29:36.183Z</time></trkpt><trkpt lat="45.1721863" lon="7.928668"><ele>175.0</ele><time>2026-03-29T14:29:37.179Z</time></trkpt><trkpt lat="45.1722178" lon="7.9284152"><ele>175.0</ele><time>2026-03-29T14:29:38.176Z</time></trkpt><trkpt lat="45.1722487" lon="7.9281685"><ele>175.0</ele><time>2026-03-29T14:29:39.176Z</time></trkpt><trkpt lat="45.1722793" lon="7.9279196"><ele>175.0</ele><time>2026-03-29T14:29:40.178Z</time></trkpt><trkpt lat="45.1723183" lon="7.9276689"><ele>175.0</ele><time>2026-03-29T14:29:41.178Z</time></trkpt><trkpt lat="45.1723674" lon="7.9274225"><ele>175.0</ele><time>2026-03-29T14:29:42.182Z</time></trkpt><trkpt lat="45.1724312" lon="7.9271834"><ele>175.0</ele><time>2026-03-29T14:29:43.177Z</time></trkpt><trkpt lat="45.1725079" lon="7.926955"><ele>175.0</ele><time>2026-03-29T14:29:44.176Z</time></trkpt><trkpt lat="45.1725953" lon="7.9267353"><ele>175.0</ele><time>2026-03-29T14:29:45.185Z</time></trkpt><trkpt lat="45.1726891" lon="7.9265191"><ele>174.66666666666669</ele><time>2026-03-29T14:29:46.181Z</time></trkpt><trkpt lat="45.172786" lon="7.9262971"><ele>174.33333333333334</ele><time>2026-03-29T14:29:47.182Z</time></trkpt><trkpt lat="45.1728846" lon="7.9260732"><ele>174.0</ele><time>2026-03-29T14:29:48.18Z</time></trkpt><trkpt lat="45.172981" lon="7.9258391"><ele>173.5</ele><time>2026-03-29T14:29:49.181Z</time></trkpt><trkpt lat="45.1730915" lon="7.9255665"><ele>173.0</ele><time>2026-03-29T14:29:50.178Z</time></trkpt><trkpt lat="45.1732119" lon="7.9252675"><ele>174.0</ele><time>2026-03-29T14:29:51.183Z</time></trkpt><trkpt lat="45.1733467" lon="7.9249333"><ele>175.0</ele><time>2026-03-29T14:29:52.209Z</time></trkpt><trkpt lat="45.1735125" lon="7.9245569"><ele>174.0</ele><time>2026-03-29T14:29:53.189Z</time></trkpt><trkpt lat="45.1736809" lon="7.9241665"><ele>173.0</ele><time>2026-03-29T14:29:54.178Z</time></trkpt><trkpt lat="45.1738642" lon="7.9237496"><ele>175.0</ele><time>2026-03-29T14:29:55.178Z</time></trkpt><trkpt lat="45.1740478" lon="7.9233171"><ele>177.0</ele><time>2026-03-29T14:29:56.209Z</time></trkpt><trkpt lat="45.1742316" lon="7.9228763"><ele>175.5</ele><time>2026-03-29T14:29:57.177Z</time></trkpt><trkpt lat="45.1744091" lon="7.9224405"><ele>174.0</ele><time>2026-03-29T14:29:58.181Z</time></trkpt><trkpt lat="45.1745792" lon="7.9220278"><ele>174.5</ele><time>2026-03-29T14:29:59.182Z</time></trkpt><trkpt lat="45.1747358" lon="7.9216485"><ele>175.0</ele><time>2026-03-29T14:30:00.185Z</time></trkpt><trkpt lat="45.1748783" lon="7.9213064"><ele>175.0</ele><time>2026-03-29T14:30:01.178Z</time></trkpt><trkpt lat="45.1750069" lon="7.9209951"><ele>175.0</ele><time>2026-03-29T14:30:02.177Z</time></trkpt><trkpt lat="45.1751252" lon="7.9207057"><ele>175.66666666666669</ele><time>2026-03-29T14:30:03.177Z</time></trkpt><trkpt lat="45.1752394" lon="7.9204309"><ele>176.33333333333334</ele><time>2026-03-29T14:30:04.178Z</time></trkpt><trkpt lat="45.1753499" lon="7.9201691"><ele>177.0</ele><time>2026-03-29T14:30:05.177Z</time></trkpt><trkpt lat="45.1754581" lon="7.9199127"><ele>180.0</ele><time>2026-03-29T14:30:06.18Z</time></trkpt><trkpt lat="45.1755628" lon="7.9196542"><ele>183.0</ele><time>2026-03-29T14:30:07.183Z</time></trkpt><trkpt lat="45.1756628" lon="7.9193927"><ele>186.0</ele><time>2026-03-29T14:30:08.18Z</time></trkpt><trkpt lat="45.1757518" lon="7.9191138"><ele>186.5</ele><time>2026-03-29T14:30:09.173Z</time></trkpt><trkpt lat="45.1758282" lon="7.9188105"><ele>187.0</ele><time>2026-03-29T14:30:10.182Z</time></trkpt><trkpt lat="45.1758931" lon="7.9184881"><ele>189.5</ele><time>2026-03-29T14:30:11.177Z</time></trkpt><trkpt lat="45.1759531" lon="7.9181564"><ele>192.0</ele><time>2026-03-29T14:30:12.183Z</time></trkpt><trkpt lat="45.1760168" lon="7.9178196"><ele>196.5</ele><time>2026-03-29T14:30:13.185Z</time></trkpt><trkpt lat="45.1760823" lon="7.9174921"><ele>201.0</ele><time>2026-03-29T14:30:14.175Z</time></trkpt><trkpt lat="45.1761455" lon="7.917183"><ele>201.0</ele><time>2026-03-29T14:30:15.185Z</time></trkpt><trkpt lat="45.1761994" lon="7.9168862"><ele>201.0</ele><time>2026-03-29T14:30:16.179Z</time></trkpt><trkpt lat="45.1762524" lon="7.9165965"><ele>201.0</ele><time>2026-03-29T14:30:17.193Z</time></trkpt><trkpt lat="45.1763055" lon="7.9163033"><ele>204.66666666666669</ele><time>2026-03-29T14:30:18.181Z</time></trkpt><trkpt lat="45.1763583" lon="7.9160132"><ele>208.33333333333334</ele><time>2026-03-29T14:30:19.188Z</time></trkpt><trkpt lat="45.1764063" lon="7.9157244"><ele>212.0</ele><time>2026-03-29T14:30:20.211Z</time></trkpt><trkpt lat="45.1764422" lon="7.9154309"><ele>216.33333333333334</ele><time>2026-03-29T14:30:21.179Z</time></trkpt><trkpt lat="45.1764665" lon="7.9151399"><ele>220.66666666666669</ele><time>2026-03-29T14:30:22.18Z</time></trkpt><trkpt lat="45.1764725" lon="7.9148588"><ele>225.0</ele><time>2026-03-29T14:30:23.208Z</time></trkpt><trkpt lat="45.1764674" lon="7.914593"><ele>225.66666666666669</ele><time>2026-03-29T14:30:24.183Z</time></trkpt><trkpt lat="45.1764513" lon="7.9143384"><ele>226.33333333333334</ele><time>2026-03-29T14:30:25.199Z</time></trkpt><trkpt lat="45.1764329" lon="7.9140918"><ele>227.0</ele><time>2026-03-29T14:30:26.177Z</time></trkpt><trkpt lat="45.1764192" lon="7.9138538"><ele>227.0</ele><time>2026-03-29T14:30:27.214Z</time></trkpt><trkpt lat="45.1764096" lon="7.9136282"><ele>227.0</ele><time>2026-03-29T14:30:28.182Z</time></trkpt><trkpt lat="45.1764043" lon="7.913413"><ele>227.0</ele><time>2026-03-29T14:30:29.184Z</time></trkpt><trkpt lat="45.1763958" lon="7.9132036"><ele>225.75</ele><time>2026-03-29T14:30:30.189Z</time></trkpt><trkpt lat="45.1763864" lon="7.912997"><ele>224.5</ele><time>2026-03-29T14:30:31.183Z</time></trkpt><trkpt lat="45.1763812" lon="7.9127867"><ele>223.25</ele><time>2026-03-29T14:30:32.185Z</time></trkpt><trkpt lat="45.1763706" lon="7.9125763"><ele>222.0</ele><time>2026-03-29T14:30:33.178Z</time></trkpt><trkpt lat="45.1763616" lon="7.9123672"><ele>218.0</ele><time>2026-03-29T14:30:34.181Z</time></trkpt><trkpt lat="45.1763599" lon="7.9121653"><ele>214.0</ele><time>2026-03-29T14:30:35.178Z</time></trkpt><trkpt lat="45.1763721" lon="7.911968"><ele>210.0</ele><time>2026-03-29T14:30:36.182Z</time></trkpt><trkpt lat="45.1763998" lon="7.911774"><ele>206.0</ele><time>2026-03-29T14:30:37.177Z</time></trkpt><trkpt lat="45.1764328" lon="7.9115836"><ele>203.5</ele><time>2026-03-29T14:30:38.178Z</time></trkpt><trkpt lat="45.1764796" lon="7.9113837"><ele>201.0</ele><time>2026-03-29T14:30:39.183Z</time></trkpt><trkpt lat="45.1765273" lon="7.9111826"><ele>198.5</ele><time>2026-03-29T14:30:40.18Z</time></trkpt><trkpt lat="45.1765794" lon="7.9109867"><ele>196.0</ele><time>2026-03-29T14:30:41.183Z</time></trkpt><trkpt lat="45.1766406" lon="7.9108039"><ele>195.25</ele><time>2026-03-29T14:30:42.184Z</time></trkpt><trkpt lat="45.1767064" lon="7.9106244"><ele>194.5</ele><time>2026-03-29T14:30:43.208Z</time></trkpt><trkpt lat="45.176769" lon="7.9104425"><ele>193.75</ele><time>2026-03-29T14:30:44.179Z</time></trkpt><trkpt lat="45.1768386" lon="7.9102493"><ele>193.0</ele><time>2026-03-29T14:30:45.181Z</time></trkpt><trkpt lat="45.1769105" lon="7.9100512"><ele>193.0</ele><time>2026-03-29T14:30:46.188Z</time></trkpt><trkpt lat="45.1769783" lon="7.9098418"><ele>193.0</ele><time>2026-03-29T14:30:47.179Z</time></trkpt><trkpt lat="45.1770476" lon="7.9096277"><ele>193.0</ele><time>2026-03-29T14:30:48.181Z</time></trkpt><trkpt lat="45.1771161" lon="7.909403"><ele>200.66666666666666</ele><time>2026-03-29T14:30:49.185Z</time></trkpt><trkpt lat="45.1771899" lon="7.9091705"><ele>208.33333333333331</ele><time>2026-03-29T14:30:50.184Z</time></trkpt><trkpt lat="45.1772637" lon="7.9089421"><ele>216.0</ele><time>2026-03-29T14:30:51.181Z</time></trkpt><trkpt lat="45.1773349" lon="7.9087275"><ele>207.66666666666666</ele><time>2026-03-29T14:30:52.179Z</time></trkpt><trkpt lat="45.177397" lon="7.9085242"><ele>199.33333333333331</ele><time>2026-03-29T14:30:53.18Z</time></trkpt><trkpt lat="45.1774503" lon="7.9083246"><ele>191.0</ele><time>2026-03-29T14:30:54.178Z</time></trkpt><trkpt lat="45.1774982" lon="7.9081152"><ele>191.0</ele><time>2026-03-29T14:30:55.184Z</time></trkpt><trkpt lat="45.1775311" lon="7.9078894"><ele>191.0</ele><time>2026-03-29T14:30:56.185Z</time></trkpt><trkpt lat="45.1775499" lon="7.9076405"><ele>191.0</ele><time>2026-03-29T14:30:57.177Z</time></trkpt><trkpt lat="45.17755" lon="7.9073619"><ele>196.0</ele><time>2026-03-29T14:30:58.178Z</time></trkpt><trkpt lat="45.1775412" lon="7.9070531"><ele>201.0</ele><time>2026-03-29T14:30:59.183Z</time></trkpt><trkpt lat="45.1775332" lon="7.9067103"><ele>201.5</ele><time>2026-03-29T14:31:00.181Z</time></trkpt><trkpt lat="45.1775367" lon="7.9063354"><ele>202.0</ele><time>2026-03-29T14:31:01.179Z</time></trkpt><trkpt lat="45.1775489" lon="7.90593"><ele>203.0</ele><time>2026-03-29T14:31:02.18Z</time></trkpt><trkpt lat="45.1775654" lon="7.9054961"><ele>204.0</ele><time>2026-03-29T14:31:03.179Z</time></trkpt><trkpt lat="45.1775815" lon="7.9050347"><ele>204.0</ele><time>2026-03-29T14:31:04.208Z</time></trkpt><trkpt lat="45.177598" lon="7.9045586"><ele>204.0</ele><time>2026-03-29T14:31:05.182Z</time></trkpt><trkpt lat="45.1776127" lon="7.904084"><ele>204.0</ele><time>2026-03-29T14:31:06.18Z</time></trkpt><trkpt lat="45.1776292" lon="7.9036326"><ele>204.0</ele><time>2026-03-29T14:31:07.188Z</time></trkpt><trkpt lat="45.1776448" lon="7.9032019"><ele>205.5</ele><time>2026-03-29T14:31:08.187Z</time></trkpt><trkpt lat="45.1776534" lon="7.9027841"><ele>207.0</ele><time>2026-03-29T14:31:09.194Z</time></trkpt><trkpt lat="45.1776563" lon="7.9023661"><ele>204.0</ele><time>2026-03-29T14:31:10.179Z</time></trkpt><trkpt lat="45.1776613" lon="7.9019313"><ele>201.0</ele><time>2026-03-29T14:31:11.175Z</time></trkpt><trkpt lat="45.177667" lon="7.901474"><ele>200.5</ele><time>2026-03-29T14:31:12.183Z</time></trkpt><trkpt lat="45.1776764" lon="7.9010069"><ele>200.0</ele><time>2026-03-29T14:31:13.179Z</time></trkpt><trkpt lat="45.177684" lon="7.9005537"><ele>201.5</ele><time>2026-03-29T14:31:14.181Z</time></trkpt><trkpt lat="45.1776968" lon="7.900122"><ele>203.0</ele><time>2026-03-29T14:31:15.184Z</time></trkpt><trkpt lat="45.1777094" lon="7.8997083"><ele>203.5</ele><time>2026-03-29T14:31:16.182Z</time></trkpt><trkpt lat="45.1777189" lon="7.8992951"><ele>204.0</ele><time>2026-03-29T14:31:17.178Z</time></trkpt><trkpt lat="45.1777277" lon="7.8988728"><ele>204.0</ele><time>2026-03-29T14:31:18.178Z</time></trkpt><trkpt lat="45.177736" lon="7.8984467"><ele>204.0</ele><time>2026-03-29T14:31:19.183Z</time></trkpt><trkpt lat="45.1777416" lon="7.898035"><ele>203.5</ele><time>2026-03-29T14:31:20.177Z</time></trkpt><trkpt lat="45.1777461" lon="7.897647"><ele>203.0</ele><time>2026-03-29T14:31:21.184Z</time></trkpt><trkpt lat="45.1777535" lon="7.8972773"><ele>203.0</ele><time>2026-03-29T14:31:22.178Z</time></trkpt><trkpt lat="45.1777574" lon="7.8969255"><ele>203.0</ele><time>2026-03-29T14:31:23.202Z</time></trkpt><trkpt lat="45.17776" lon="7.8965877"><ele>207.0</ele><time>2026-03-29T14:31:24.187Z</time></trkpt><trkpt lat="45.1777639" lon="7.8962567"><ele>211.0</ele><time>2026-03-29T14:31:25.176Z</time></trkpt><trkpt lat="45.1777633" lon="7.8959392"><ele>208.0</ele><time>2026-03-29T14:31:26.187Z</time></trkpt><trkpt lat="45.1777563" lon="7.8956327"><ele>205.0</ele><time>2026-03-29T14:31:27.187Z</time></trkpt><trkpt lat="45.1777305" lon="7.8953324"><ele>202.0</ele><time>2026-03-29T14:31:28.188Z</time></trkpt><trkpt lat="45.1776816" lon="7.8950325"><ele>197.0</ele><time>2026-03-29T14:31:29.175Z</time></trkpt><trkpt lat="45.1776155" lon="7.8947259"><ele>192.0</ele><time>2026-03-29T14:31:30.177Z</time></trkpt><trkpt lat="45.1775462" lon="7.8944153"><ele>192.66666666666669</ele><time>2026-03-29T14:31:31.182Z</time></trkpt><trkpt lat="45.1774855" lon="7.8941061"><ele>193.33333333333334</ele><time>2026-03-29T14:31:32.183Z</time></trkpt><trkpt lat="45.1774389" lon="7.8938065"><ele>194.0</ele><time>2026-03-29T14:31:33.185Z</time></trkpt><trkpt lat="45.1774072" lon="7.8935234"><ele>193.33333333333334</ele><time>2026-03-29T14:31:34.192Z</time></trkpt><trkpt lat="45.1773887" lon="7.8932538"><ele>192.66666666666669</ele><time>2026-03-29T14:31:35.178Z</time></trkpt><trkpt lat="45.1773827" lon="7.8929983"><ele>192.0</ele><time>2026-03-29T14:31:36.177Z</time></trkpt><trkpt lat="45.1773875" lon="7.8927589"><ele>191.25</ele><time>2026-03-29T14:31:37.185Z</time></trkpt><trkpt lat="45.1773922" lon="7.8925381"><ele>190.5</ele><time>2026-03-29T14:31:38.181Z</time></trkpt><trkpt lat="45.177399" lon="7.8923347"><ele>189.75</ele><time>2026-03-29T14:31:39.185Z</time></trkpt><trkpt lat="45.1774027" lon="7.892143"><ele>189.0</ele><time>2026-03-29T14:31:40.179Z</time></trkpt><trkpt lat="45.1773995" lon="7.8919602"><ele>189.0</ele><time>2026-03-29T14:31:41.196Z</time></trkpt><trkpt lat="45.177396" lon="7.8917878"><ele>189.0</ele><time>2026-03-29T14:31:42.181Z</time></trkpt><trkpt lat="45.177395" lon="7.8916289"><ele>189.0</ele><time>2026-03-29T14:31:43.18Z</time></trkpt><trkpt lat="45.1773954" lon="7.891479"><ele>189.0</ele><time>2026-03-29T14:31:44.181Z</time></trkpt><trkpt lat="45.1773954" lon="7.8913366"><ele>189.0</ele><time>2026-03-29T14:31:45.188Z</time></trkpt><trkpt lat="45.1773947" lon="7.8912059"><ele>189.0</ele><time>2026-03-29T14:31:46.179Z</time></trkpt><trkpt lat="45.177396" lon="7.8910866"><ele>189.0</ele><time>2026-03-29T14:31:47.186Z</time></trkpt><trkpt lat="45.1774042" lon="7.8909745"><ele>189.0</ele><time>2026-03-29T14:31:48.18Z</time></trkpt><trkpt lat="45.1774219" lon="7.8908676"><ele>189.0</ele><time>2026-03-29T14:31:49.177Z</time></trkpt><trkpt lat="45.1774365" lon="7.890761"><ele>189.0</ele><time>2026-03-29T14:31:50.181Z</time></trkpt><trkpt lat="45.1774344" lon="7.8906465"><ele>189.0</ele><time>2026-03-29T14:31:51.177Z</time></trkpt><trkpt lat="45.1774137" lon="7.8905223"><ele>188.75</ele><time>2026-03-29T14:31:52.185Z</time></trkpt><trkpt lat="45.1773766" lon="7.8903648"><ele>188.5</ele><time>2026-03-29T14:31:53.179Z</time></trkpt><trkpt lat="45.1773418" lon="7.8901635"><ele>188.25</ele><time>2026-03-29T14:31:54.179Z</time></trkpt><trkpt lat="45.1773166" lon="7.8899174"><ele>188.0</ele><time>2026-03-29T14:31:55.178Z</time></trkpt><trkpt lat="45.1773047" lon="7.8896427"><ele>192.0</ele><time>2026-03-29T14:31:56.19Z</time></trkpt><trkpt lat="45.1772922" lon="7.8893406"><ele>196.0</ele><time>2026-03-29T14:31:57.18Z</time></trkpt><trkpt lat="45.1772712" lon="7.8890185"><ele>200.0</ele><time>2026-03-29T14:31:58.181Z</time></trkpt><trkpt lat="45.1772511" lon="7.8886892"><ele>204.0</ele><time>2026-03-29T14:31:59.181Z</time></trkpt><trkpt lat="45.1772379" lon="7.8883576"><ele>208.0</ele><time>2026-03-29T14:32:00.182Z</time></trkpt><trkpt lat="45.1772232" lon="7.8880288"><ele>208.0</ele><time>2026-03-29T14:32:01.179Z</time></trkpt><trkpt lat="45.177199" lon="7.8877077"><ele>208.0</ele><time>2026-03-29T14:32:02.176Z</time></trkpt><trkpt lat="45.1771845" lon="7.8873844"><ele>208.0</ele><time>2026-03-29T14:32:03.184Z</time></trkpt><trkpt lat="45.1771737" lon="7.8870709"><ele>208.0</ele><time>2026-03-29T14:32:04.178Z</time></trkpt><trkpt lat="45.1771638" lon="7.8867775"><ele>208.0</ele><time>2026-03-29T14:32:05.18Z</time></trkpt><trkpt lat="45.1771533" lon="7.8865135"><ele>207.66666666666666</ele><time>2026-03-29T14:32:06.179Z</time></trkpt><trkpt lat="45.1771316" lon="7.8862749"><ele>207.33333333333331</ele><time>2026-03-29T14:32:07.182Z</time></trkpt><trkpt lat="45.1770955" lon="7.8860545"><ele>207.0</ele><time>2026-03-29T14:32:08.18Z</time></trkpt><trkpt lat="45.1770472" lon="7.8858369"><ele>205.0</ele><time>2026-03-29T14:32:09.191Z</time></trkpt><trkpt lat="45.1769877" lon="7.885609"><ele>203.0</ele><time>2026-03-29T14:32:10.179Z</time></trkpt><trkpt lat="45.1769232" lon="7.8853725"><ele>201.0</ele><time>2026-03-29T14:32:11.177Z</time></trkpt><trkpt lat="45.1768577" lon="7.8851341"><ele>199.66666666666669</ele><time>2026-03-29T14:32:12.183Z</time></trkpt><trkpt lat="45.1767966" lon="7.8848977"><ele>198.33333333333334</ele><time>2026-03-29T14:32:13.181Z</time></trkpt><trkpt lat="45.1767391" lon="7.8846603"><ele>197.0</ele><time>2026-03-29T14:32:14.181Z</time></trkpt><trkpt lat="45.1766849" lon="7.8844255"><ele>194.33333333333334</ele><time>2026-03-29T14:32:15.178Z</time></trkpt><trkpt lat="45.1766298" lon="7.884193"><ele>191.66666666666669</ele><time>2026-03-29T14:32:16.18Z</time></trkpt><trkpt lat="45.1765758" lon="7.8839643"><ele>189.0</ele><time>2026-03-29T14:32:17.187Z</time></trkpt><trkpt lat="45.1765277" lon="7.883743"><ele>196.33333333333331</ele><time>2026-03-29T14:32:18.181Z</time></trkpt><trkpt lat="45.1764741" lon="7.8835244"><ele>203.66666666666666</ele><time>2026-03-29T14:32:19.179Z</time></trkpt><trkpt lat="45.1764181" lon="7.883303"><ele>211.0</ele><time>2026-03-29T14:32:20.193Z</time></trkpt><trkpt lat="45.1763639" lon="7.883072"><ele>211.0</ele><time>2026-03-29T14:32:21.176Z</time></trkpt><trkpt lat="45.1763138" lon="7.882835"><ele>211.0</ele><time>2026-03-29T14:32:22.183Z</time></trkpt><trkpt lat="45.1762606" lon="7.8825875"><ele>211.0</ele><time>2026-03-29T14:32:23.18Z</time></trkpt><trkpt lat="45.1762047" lon="7.8823305"><ele>206.0</ele><time>2026-03-29T14:32:24.175Z</time></trkpt><trkpt lat="45.176148" lon="7.8820583"><ele>201.0</ele><time>2026-03-29T14:32:25.197Z</time></trkpt><trkpt lat="45.1760943" lon="7.8817719"><ele>196.0</ele><time>2026-03-29T14:32:26.178Z</time></trkpt><trkpt lat="45.1760489" lon="7.8814684"><ele>192.5</ele><time>2026-03-29T14:32:27.217Z</time></trkpt><trkpt lat="45.1760291" lon="7.8811456"><ele>189.0</ele><time>2026-03-29T14:32:28.185Z</time></trkpt><trkpt lat="45.1760177" lon="7.8808277"><ele>189.0</ele><time>2026-03-29T14:32:29.176Z</time></trkpt><trkpt lat="45.176006" lon="7.8805317"><ele>189.0</ele><time>2026-03-29T14:32:30.177Z</time></trkpt><trkpt lat="45.1759829" lon="7.8802566"><ele>189.0</ele><time>2026-03-29T14:32:31.179Z</time></trkpt><trkpt lat="45.1759375" lon="7.8800169"><ele>188.66666666666666</ele><time>2026-03-29T14:32:32.189Z</time></trkpt><trkpt lat="45.1758649" lon="7.8798093"><ele>188.33333333333331</ele><time>2026-03-29T14:32:33.176Z</time></trkpt><trkpt lat="45.1757581" lon="7.8796237"><ele>188.0</ele><time>2026-03-29T14:32:34.183Z</time></trkpt><trkpt lat="45.1756215" lon="7.8794619"><ele>188.66666666666666</ele><time>2026-03-29T14:32:35.18Z</time></trkpt><trkpt lat="45.1754595" lon="7.8793201"><ele>189.33333333333334</ele><time>2026-03-29T14:32:36.178Z</time></trkpt><trkpt lat="45.1752824" lon="7.8791953"><ele>190.0</ele><time>2026-03-29T14:32:37.183Z</time></trkpt><trkpt lat="45.1750953" lon="7.879073"><ele>191.0</ele><time>2026-03-29T14:32:38.175Z</time></trkpt><trkpt lat="45.1749154" lon="7.8789458"><ele>192.0</ele><time>2026-03-29T14:32:39.181Z</time></trkpt><trkpt lat="45.1747364" lon="7.8788147"><ele>193.0</ele><time>2026-03-29T14:32:40.181Z</time></trkpt><trkpt lat="45.1745533" lon="7.8786803"><ele>193.0</ele><time>2026-03-29T14:32:41.175Z</time></trkpt><trkpt lat="45.1743572" lon="7.8785476"><ele>193.0</ele><time>2026-03-29T14:32:42.178Z</time></trkpt><trkpt lat="45.1741504" lon="7.8784162"><ele>193.0</ele><time>2026-03-29T14:32:43.182Z</time></trkpt><trkpt lat="45.1739382" lon="7.8782876"><ele>199.0</ele><time>2026-03-29T14:32:44.18Z</time></trkpt><trkpt lat="45.1737243" lon="7.8781709"><ele>205.0</ele><time>2026-03-29T14:32:45.181Z</time></trkpt><trkpt lat="45.1735025" lon="7.8780633"><ele>205.0</ele><time>2026-03-29T14:32:46.186Z</time></trkpt><trkpt lat="45.1732774" lon="7.8779424"><ele>205.0</ele><time>2026-03-29T14:32:47.188Z</time></trkpt><trkpt lat="45.1730539" lon="7.8777986"><ele>206.0</ele><time>2026-03-29T14:32:48.18Z</time></trkpt><trkpt lat="45.1728335" lon="7.8776181"><ele>207.0</ele><time>2026-03-29T14:32:49.18Z</time></trkpt><trkpt lat="45.1726279" lon="7.8774163"><ele>207.0</ele><time>2026-03-29T14:32:50.179Z</time></trkpt><trkpt lat="45.1724397" lon="7.8771976"><ele>207.0</ele><time>2026-03-29T14:32:51.183Z</time></trkpt><trkpt lat="45.1722633" lon="7.8769612"><ele>209.0</ele><time>2026-03-29T14:32:52.215Z</time></trkpt><trkpt lat="45.1720914" lon="7.8766987"><ele>211.0</ele><time>2026-03-29T14:32:53.176Z</time></trkpt><trkpt lat="45.1719251" lon="7.876409"><ele>211.0</ele><time>2026-03-29T14:32:54.175Z</time></trkpt><trkpt lat="45.1717807" lon="7.8761004"><ele>211.0</ele><time>2026-03-29T14:32:55.182Z</time></trkpt><trkpt lat="45.171649" lon="7.8757789"><ele>214.0</ele><time>2026-03-29T14:32:56.177Z</time></trkpt><trkpt lat="45.1715184" lon="7.8754487"><ele>217.0</ele><time>2026-03-29T14:32:57.181Z</time></trkpt><trkpt lat="45.1713885" lon="7.8751174"><ele>213.0</ele><time>2026-03-29T14:32:58.209Z</time></trkpt><trkpt lat="45.1712558" lon="7.8748027"><ele>209.0</ele><time>2026-03-29T14:32:59.186Z</time></trkpt><trkpt lat="45.1711314" lon="7.8745049"><ele>206.0</ele><time>2026-03-29T14:33:00.18Z</time></trkpt><trkpt lat="45.1710133" lon="7.8742315"><ele>203.0</ele><time>2026-03-29T14:33:01.177Z</time></trkpt><trkpt lat="45.1709135" lon="7.8739699"><ele>200.0</ele><time>2026-03-29T14:33:02.177Z</time></trkpt><trkpt lat="45.1708136" lon="7.8737163"><ele>200.0</ele><time>2026-03-29T14:33:03.175Z</time></trkpt><trkpt lat="45.1707083" lon="7.8734652"><ele>200.0</ele><time>2026-03-29T14:33:04.179Z</time></trkpt><trkpt lat="45.1705984" lon="7.873214"><ele>200.0</ele><time>2026-03-29T14:33:05.177Z</time></trkpt><trkpt lat="45.1704867" lon="7.8729588"><ele>200.0</ele><time>2026-03-29T14:33:06.182Z</time></trkpt><trkpt lat="45.170375" lon="7.8726974"><ele>200.0</ele><time>2026-03-29T14:33:07.182Z</time></trkpt><trkpt lat="45.170261" lon="7.8724345"><ele>200.0</ele><time>2026-03-29T14:33:08.181Z</time></trkpt><trkpt lat="45.1701525" lon="7.8721807"><ele>200.0</ele><time>2026-03-29T14:33:09.177Z</time></trkpt><trkpt lat="45.1700455" lon="7.8719412"><ele>200.0</ele><time>2026-03-29T14:33:10.179Z</time></trkpt><trkpt lat="45.1699468" lon="7.8717083"><ele>200.0</ele><time>2026-03-29T14:33:11.184Z</time></trkpt><trkpt lat="45.1698652" lon="7.8714652"><ele>207.66666666666669</ele><time>2026-03-29T14:33:12.179Z</time></trkpt><trkpt lat="45.1698042" lon="7.8712091"><ele>215.33333333333331</ele><time>2026-03-29T14:33:13.182Z</time></trkpt><trkpt lat="45.1697887" lon="7.8709343"><ele>223.0</ele><time>2026-03-29T14:33:14.178Z</time></trkpt><trkpt lat="45.169798" lon="7.8706467"><ele>223.0</ele><time>2026-03-29T14:33:15.176Z</time></trkpt><trkpt lat="45.1698024" lon="7.870361"><ele>223.0</ele><time>2026-03-29T14:33:16.182Z</time></trkpt><trkpt lat="45.1697961" lon="7.8700719"><ele>223.0</ele><time>2026-03-29T14:33:17.179Z</time></trkpt><trkpt lat="45.1697823" lon="7.8697792"><ele>222.0</ele><time>2026-03-29T14:33:18.184Z</time></trkpt><trkpt lat="45.1697644" lon="7.8694804"><ele>221.0</ele><time>2026-03-29T14:33:19.212Z</time></trkpt><trkpt lat="45.1697441" lon="7.8691781"><ele>220.0</ele><time>2026-03-29T14:33:20.181Z</time></trkpt><trkpt lat="45.1697273" lon="7.8688687"><ele>218.66666666666666</ele><time>2026-03-29T14:33:21.184Z</time></trkpt><trkpt lat="45.169717" lon="7.8685542"><ele>217.33333333333331</ele><time>2026-03-29T14:33:22.18Z</time></trkpt><trkpt lat="45.1697054" lon="7.8682365"><ele>216.0</ele><time>2026-03-29T14:33:23.179Z</time></trkpt><trkpt lat="45.1696924" lon="7.8679146"><ele>215.0</ele><time>2026-03-29T14:33:24.184Z</time></trkpt><trkpt lat="45.16968" lon="7.8675901"><ele>214.0</ele><time>2026-03-29T14:33:25.179Z</time></trkpt><trkpt lat="45.1696681" lon="7.8672637"><ele>214.0</ele><time>2026-03-29T14:33:26.183Z</time></trkpt><trkpt lat="45.1696543" lon="7.8669343"><ele>214.0</ele><time>2026-03-29T14:33:27.186Z</time></trkpt><trkpt lat="45.1696384" lon="7.8665967"><ele>216.0</ele><time>2026-03-29T14:33:28.185Z</time></trkpt><trkpt lat="45.1696216" lon="7.8662487"><ele>218.0</ele><time>2026-03-29T14:33:29.177Z</time></trkpt><trkpt lat="45.1696068" lon="7.8658908"><ele>218.0</ele><time>2026-03-29T14:33:30.179Z</time></trkpt><trkpt lat="45.1695953" lon="7.8655238"><ele>218.0</ele><time>2026-03-29T14:33:31.183Z</time></trkpt><trkpt lat="45.1695829" lon="7.8651604"><ele>217.0</ele><time>2026-03-29T14:33:32.187Z</time></trkpt><trkpt lat="45.169565" lon="7.8648125"><ele>216.0</ele><time>2026-03-29T14:33:33.184Z</time></trkpt><trkpt lat="45.169547" lon="7.8644782"><ele>216.5</ele><time>2026-03-29T14:33:34.196Z</time></trkpt><trkpt lat="45.1695254" lon="7.8641528"><ele>217.0</ele><time>2026-03-29T14:33:35.177Z</time></trkpt><trkpt lat="45.1695028" lon="7.8638373"><ele>217.0</ele><time>2026-03-29T14:33:36.178Z</time></trkpt><trkpt lat="45.1694783" lon="7.8635361"><ele>217.0</ele><time>2026-03-29T14:33:37.181Z</time></trkpt><trkpt lat="45.1694582" lon="7.8632437"><ele>217.0</ele><time>2026-03-29T14:33:38.21Z</time></trkpt><trkpt lat="45.169438" lon="7.8629631"><ele>217.0</ele><time>2026-03-29T14:33:39.18Z</time></trkpt><trkpt lat="45.1694198" lon="7.8626982"><ele>217.0</ele><time>2026-03-29T14:33:40.184Z</time></trkpt><trkpt lat="45.1694052" lon="7.8624491"><ele>217.0</ele><time>2026-03-29T14:33:41.19Z</time></trkpt><trkpt lat="45.1693887" lon="7.8622128"><ele>217.0</ele><time>2026-03-29T14:33:42.186Z</time></trkpt><trkpt lat="45.1693695" lon="7.8619827"><ele>217.0</ele><time>2026-03-29T14:33:43.181Z</time></trkpt><trkpt lat="45.1693483" lon="7.8617569"><ele>217.0</ele><time>2026-03-29T14:33:44.214Z</time></trkpt><trkpt lat="45.1693118" lon="7.8615415"><ele>216.0</ele><time>2026-03-29T14:33:45.18Z</time></trkpt><trkpt lat="45.1692569" lon="7.8613416"><ele>215.0</ele><time>2026-03-29T14:33:46.183Z</time></trkpt><trkpt lat="45.1691909" lon="7.8611515"><ele>214.0</ele><time>2026-03-29T14:33:47.18Z</time></trkpt><trkpt lat="45.1691226" lon="7.8609639"><ele>213.0</ele><time>2026-03-29T14:33:48.178Z</time></trkpt><trkpt lat="45.1690612" lon="7.8607714"><ele>213.5</ele><time>2026-03-29T14:33:49.181Z</time></trkpt><trkpt lat="45.1690002" lon="7.8605796"><ele>214.0</ele><time>2026-03-29T14:33:50.215Z</time></trkpt><trkpt lat="45.1689468" lon="7.860395"><ele>214.5</ele><time>2026-03-29T14:33:51.179Z</time></trkpt><trkpt lat="45.1688999" lon="7.8602163"><ele>215.0</ele><time>2026-03-29T14:33:52.179Z</time></trkpt><trkpt lat="45.1688561" lon="7.8600535"><ele>213.25</ele><time>2026-03-29T14:33:53.181Z</time></trkpt><trkpt lat="45.1688075" lon="7.8598993"><ele>211.5</ele><time>2026-03-29T14:33:54.187Z</time></trkpt><trkpt lat="45.1687562" lon="7.859743"><ele>209.75</ele><time>2026-03-29T14:33:55.179Z</time></trkpt><trkpt lat="45.1687095" lon="7.8595768"><ele>208.0</ele><time>2026-03-29T14:33:56.186Z</time></trkpt><trkpt lat="45.1686647" lon="7.8594046"><ele>207.25</ele><time>2026-03-29T14:33:57.199Z</time></trkpt><trkpt lat="45.1686208" lon="7.8592338"><ele>206.5</ele><time>2026-03-29T14:33:58.181Z</time></trkpt><trkpt lat="45.16859" lon="7.8590595"><ele>205.75</ele><time>2026-03-29T14:33:59.176Z</time></trkpt><trkpt lat="45.1685589" lon="7.8588844"><ele>205.0</ele><time>2026-03-29T14:34:00.183Z</time></trkpt><trkpt lat="45.1685278" lon="7.8586994"><ele>205.0</ele><time>2026-03-29T14:34:01.19Z</time></trkpt><trkpt lat="45.1685021" lon="7.8585062"><ele>205.0</ele><time>2026-03-29T14:34:02.184Z</time></trkpt><trkpt lat="45.1684715" lon="7.8583064"><ele>205.0</ele><time>2026-03-29T14:34:03.179Z</time></trkpt><trkpt lat="45.1684365" lon="7.8581007"><ele>205.0</ele><time>2026-03-29T14:34:04.179Z</time></trkpt><trkpt lat="45.1683989" lon="7.8578989"><ele>204.0</ele><time>2026-03-29T14:34:05.183Z</time></trkpt><trkpt lat="45.1683547" lon="7.8577006"><ele>203.0</ele><time>2026-03-29T14:34:06.183Z</time></trkpt><trkpt lat="45.1683037" lon="7.8575173"><ele>202.0</ele><time>2026-03-29T14:34:07.187Z</time></trkpt><trkpt lat="45.1682449" lon="7.8573614"><ele>201.0</ele><time>2026-03-29T14:34:08.19Z</time></trkpt><trkpt lat="45.1681658" lon="7.8572412"><ele>200.0</ele><time>2026-03-29T14:34:09.177Z</time></trkpt><trkpt lat="45.1680701" lon="7.8571642"><ele>199.0</ele><time>2026-03-29T14:34:10.183Z</time></trkpt><trkpt lat="45.1679581" lon="7.8571303"><ele>198.0</ele><time>2026-03-29T14:34:11.186Z</time></trkpt><trkpt lat="45.1678314" lon="7.8571383"><ele>197.0</ele><time>2026-03-29T14:34:12.181Z</time></trkpt><trkpt lat="45.1676983" lon="7.8571841"><ele>197.0</ele><time>2026-03-29T14:34:13.191Z</time></trkpt><trkpt lat="45.1675561" lon="7.8572508"><ele>197.0</ele><time>2026-03-29T14:34:14.215Z</time></trkpt><trkpt lat="45.1674101" lon="7.8573224"><ele>197.0</ele><time>2026-03-29T14:34:15.178Z</time></trkpt><trkpt lat="45.167258" lon="7.8573942"><ele>195.0</ele><time>2026-03-29T14:34:16.191Z</time></trkpt><trkpt lat="45.1671013" lon="7.8574584"><ele>193.0</ele><time>2026-03-29T14:34:17.176Z</time></trkpt><trkpt lat="45.1669531" lon="7.8575183"><ele>191.0</ele><time>2026-03-29T14:34:18.188Z</time></trkpt><trkpt lat="45.166811" lon="7.8575753"><ele>192.75</ele><time>2026-03-29T14:34:19.194Z</time></trkpt><trkpt lat="45.1666794" lon="7.8576282"><ele>194.5</ele><time>2026-03-29T14:34:20.183Z</time></trkpt><trkpt lat="45.166554" lon="7.8576807"><ele>196.25</ele><time>2026-03-29T14:34:21.182Z</time></trkpt><trkpt lat="45.1664308" lon="7.8577281"><ele>198.0</ele><time>2026-03-29T14:34:22.184Z</time></trkpt><trkpt lat="45.1663071" lon="7.8577752"><ele>198.0</ele><time>2026-03-29T14:34:23.187Z</time></trkpt><trkpt lat="45.1661811" lon="7.8578171"><ele>198.0</ele><time>2026-03-29T14:34:24.184Z</time></trkpt><trkpt lat="45.1660501" lon="7.8578499"><ele>198.0</ele><time>2026-03-29T14:34:25.188Z</time></trkpt><trkpt lat="45.1659193" lon="7.8578674"><ele>198.0</ele><time>2026-03-29T14:34:26.188Z</time></trkpt><trkpt lat="45.1657939" lon="7.8578669"><ele>196.5</ele><time>2026-03-29T14:34:27.193Z</time></trkpt><trkpt lat="45.1656635" lon="7.8578393"><ele>195.0</ele><time>2026-03-29T14:34:28.182Z</time></trkpt><trkpt lat="45.1655354" lon="7.8577828"><ele>193.5</ele><time>2026-03-29T14:34:29.185Z</time></trkpt><trkpt lat="45.1653941" lon="7.8576827"><ele>192.0</ele><time>2026-03-29T14:34:30.181Z</time></trkpt><trkpt lat="45.1652561" lon="7.8575685"><ele>192.0</ele><time>2026-03-29T14:34:31.203Z</time></trkpt><trkpt lat="45.1651248" lon="7.8574506"><ele>192.0</ele><time>2026-03-29T14:34:32.195Z</time></trkpt><trkpt lat="45.1650019" lon="7.8573433"><ele>192.0</ele><time>2026-03-29T14:34:33.213Z</time></trkpt><trkpt lat="45.1648917" lon="7.8572488"><ele>192.0</ele><time>2026-03-29T14:34:34.181Z</time></trkpt><trkpt lat="45.1647869" lon="7.8571602"><ele>195.0</ele><time>2026-03-29T14:34:35.181Z</time></trkpt><trkpt lat="45.1646838" lon="7.8570742"><ele>198.0</ele><time>2026-03-29T14:34:36.22Z</time></trkpt><trkpt lat="45.1645818" lon="7.8569874"><ele>201.0</ele><time>2026-03-29T14:34:37.196Z</time></trkpt><trkpt lat="45.1644756" lon="7.8568986"><ele>204.0</ele><time>2026-03-29T14:34:38.203Z</time></trkpt><trkpt lat="45.1643614" lon="7.8568053"><ele>205.33333333333331</ele><time>2026-03-29T14:34:39.188Z</time></trkpt><trkpt lat="45.1642378" lon="7.8567065"><ele>206.66666666666666</ele><time>2026-03-29T14:34:40.182Z</time></trkpt><trkpt lat="45.1641012" lon="7.8565971"><ele>208.0</ele><time>2026-03-29T14:34:41.181Z</time></trkpt><trkpt lat="45.1639497" lon="7.856478"><ele>208.0</ele><time>2026-03-29T14:34:42.181Z</time></trkpt><trkpt lat="45.16379" lon="7.8563528"><ele>208.0</ele><time>2026-03-29T14:34:43.178Z</time></trkpt><trkpt lat="45.1636189" lon="7.8562179"><ele>208.0</ele><time>2026-03-29T14:34:44.185Z</time></trkpt><trkpt lat="45.1634364" lon="7.8560822"><ele>207.66666666666666</ele><time>2026-03-29T14:34:45.198Z</time></trkpt><trkpt lat="45.1632579" lon="7.8559433"><ele>207.33333333333331</ele><time>2026-03-29T14:34:46.182Z</time></trkpt><trkpt lat="45.1630832" lon="7.8558063"><ele>207.0</ele><time>2026-03-29T14:34:47.183Z</time></trkpt><trkpt lat="45.1629076" lon="7.8556758"><ele>207.0</ele><time>2026-03-29T14:34:48.211Z</time></trkpt><trkpt lat="45.1627401" lon="7.855548"><ele>207.0</ele><time>2026-03-29T14:34:49.184Z</time></trkpt><trkpt lat="45.1625875" lon="7.8554292"><ele>207.0</ele><time>2026-03-29T14:34:50.179Z</time></trkpt><trkpt lat="45.1624423" lon="7.8553229"><ele>207.0</ele><time>2026-03-29T14:34:51.18Z</time></trkpt><trkpt lat="45.1623037" lon="7.8552149"><ele>207.0</ele><time>2026-03-29T14:34:52.183Z</time></trkpt><trkpt lat="45.1621628" lon="7.8551108"><ele>207.0</ele><time>2026-03-29T14:34:53.189Z</time></trkpt><trkpt lat="45.162021" lon="7.8550045"><ele>202.33333333333331</ele><time>2026-03-29T14:34:54.184Z</time></trkpt><trkpt lat="45.1618772" lon="7.8548933"><ele>197.66666666666666</ele><time>2026-03-29T14:34:55.189Z</time></trkpt><trkpt lat="45.1617236" lon="7.8547802"><ele>193.0</ele><time>2026-03-29T14:34:56.205Z</time></trkpt><trkpt lat="45.1615687" lon="7.8546689"><ele>198.33333333333331</ele><time>2026-03-29T14:34:57.178Z</time></trkpt><trkpt lat="45.1614192" lon="7.8545587"><ele>203.66666666666669</ele><time>2026-03-29T14:34:58.185Z</time></trkpt><trkpt lat="45.1612683" lon="7.8544543"><ele>209.0</ele><time>2026-03-29T14:34:59.184Z</time></trkpt><trkpt lat="45.1611212" lon="7.8543534"><ele>209.0</ele><time>2026-03-29T14:35:00.184Z</time></trkpt><trkpt lat="45.1609758" lon="7.8542478"><ele>209.0</ele><time>2026-03-29T14:35:01.184Z</time></trkpt><trkpt lat="45.1608316" lon="7.8541384"><ele>209.0</ele><time>2026-03-29T14:35:02.187Z</time></trkpt><trkpt lat="45.1606837" lon="7.8540286"><ele>209.0</ele><time>2026-03-29T14:35:03.18Z</time></trkpt><trkpt lat="45.1605343" lon="7.8539227"><ele>209.0</ele><time>2026-03-29T14:35:04.185Z</time></trkpt><trkpt lat="45.1603847" lon="7.8538208"><ele>209.0</ele><time>2026-03-29T14:35:05.176Z</time></trkpt><trkpt lat="45.1602454" lon="7.853723"><ele>209.0</ele><time>2026-03-29T14:35:06.185Z</time></trkpt><trkpt lat="45.1601069" lon="7.8536293"><ele>209.0</ele><time>2026-03-29T14:35:07.185Z</time></trkpt><trkpt lat="45.1599627" lon="7.853544"><ele>209.0</ele><time>2026-03-29T14:35:08.184Z</time></trkpt><trkpt lat="45.1598265" lon="7.8534549"><ele>206.25</ele><time>2026-03-29T14:35:09.181Z</time></trkpt><trkpt lat="45.159701" lon="7.8533713"><ele>203.5</ele><time>2026-03-29T14:35:10.189Z</time></trkpt><trkpt lat="45.1595869" lon="7.8532895"><ele>200.75</ele><time>2026-03-29T14:35:11.179Z</time></trkpt><trkpt lat="45.1594653" lon="7.8532116"><ele>198.0</ele><time>2026-03-29T14:35:12.179Z</time></trkpt><trkpt lat="45.1593487" lon="7.85313"><ele>198.0</ele><time>2026-03-29T14:35:13.2Z</time></trkpt><trkpt lat="45.1592381" lon="7.8530518"><ele>198.0</ele><time>2026-03-29T14:35:14.214Z</time></trkpt><trkpt lat="45.1591262" lon="7.8529714"><ele>198.0</ele><time>2026-03-29T14:35:15.191Z</time></trkpt><trkpt lat="45.1590049" lon="7.8528848"><ele>198.0</ele><time>2026-03-29T14:35:16.192Z</time></trkpt><trkpt lat="45.1588658" lon="7.8527984"><ele>196.33333333333331</ele><time>2026-03-29T14:35:17.195Z</time></trkpt><trkpt lat="45.1586966" lon="7.8527164"><ele>194.66666666666666</ele><time>2026-03-29T14:35:18.179Z</time></trkpt><trkpt lat="45.1584956" lon="7.8526513"><ele>193.0</ele><time>2026-03-29T14:35:19.18Z</time></trkpt><trkpt lat="45.1582648" lon="7.8526071"><ele>192.5</ele><time>2026-03-29T14:35:20.184Z</time></trkpt><trkpt lat="45.1580205" lon="7.8525741"><ele>192.0</ele><time>2026-03-29T14:35:21.185Z</time></trkpt><trkpt lat="45.1577535" lon="7.8525401"><ele>192.0</ele><time>2026-03-29T14:35:22.177Z</time></trkpt><trkpt lat="45.1574727" lon="7.8525071"><ele>192.0</ele><time>2026-03-29T14:35:23.182Z</time></trkpt><trkpt lat="45.1571769" lon="7.8524732"><ele>191.5</ele><time>2026-03-29T14:35:24.179Z</time></trkpt><trkpt lat="45.156891" lon="7.8524351"><ele>191.0</ele><time>2026-03-29T14:35:25.206Z</time></trkpt><trkpt lat="45.1566184" lon="7.8523983"><ele>192.0</ele><time>2026-03-29T14:35:26.179Z</time></trkpt><trkpt lat="45.156356" lon="7.8523584"><ele>193.0</ele><time>2026-03-29T14:35:27.184Z</time></trkpt><trkpt lat="45.1560958" lon="7.8523178"><ele>193.0</ele><time>2026-03-29T14:35:28.192Z</time></trkpt><trkpt lat="45.155844" lon="7.8522786"><ele>193.0</ele><time>2026-03-29T14:35:29.19Z</time></trkpt><trkpt lat="45.1555923" lon="7.8522424"><ele>193.5</ele><time>2026-03-29T14:35:30.18Z</time></trkpt><trkpt lat="45.155355" lon="7.8522069"><ele>194.0</ele><time>2026-03-29T14:35:31.182Z</time></trkpt><trkpt lat="45.1551218" lon="7.8521688"><ele>194.0</ele><time>2026-03-29T14:35:32.185Z</time></trkpt><trkpt lat="45.1548881" lon="7.8521322"><ele>194.0</ele><time>2026-03-29T14:35:33.185Z</time></trkpt><trkpt lat="45.1546538" lon="7.8520979"><ele>195.5</ele><time>2026-03-29T14:35:34.199Z</time></trkpt><trkpt lat="45.1544263" lon="7.852064"><ele>197.0</ele><time>2026-03-29T14:35:35.187Z</time></trkpt><trkpt lat="45.1542016" lon="7.8520324"><ele>197.5</ele><time>2026-03-29T14:35:36.194Z</time></trkpt><trkpt lat="45.1539745" lon="7.8519963"><ele>198.0</ele><time>2026-03-29T14:35:37.189Z</time></trkpt><trkpt lat="45.1537463" lon="7.8519588"><ele>198.0</ele><time>2026-03-29T14:35:38.186Z</time></trkpt><trkpt lat="45.1535282" lon="7.8519191"><ele>198.0</ele><time>2026-03-29T14:35:39.188Z</time></trkpt><trkpt lat="45.1533211" lon="7.8518682"><ele>198.0</ele><time>2026-03-29T14:35:40.193Z</time></trkpt><trkpt lat="45.1531177" lon="7.8518085"><ele>196.0</ele><time>2026-03-29T14:35:41.183Z</time></trkpt><trkpt lat="45.1529276" lon="7.851726"><ele>194.0</ele><time>2026-03-29T14:35:42.184Z</time></trkpt><trkpt lat="45.152741" lon="7.8516171"><ele>192.0</ele><time>2026-03-29T14:35:43.218Z</time></trkpt><trkpt lat="45.152558" lon="7.8514841"><ele>192.0</ele><time>2026-03-29T14:35:44.177Z</time></trkpt><trkpt lat="45.1523734" lon="7.8513181"><ele>192.0</ele><time>2026-03-29T14:35:45.189Z</time></trkpt><trkpt lat="45.1521842" lon="7.8511139"><ele>190.0</ele><time>2026-03-29T14:35:46.192Z</time></trkpt><trkpt lat="45.1519942" lon="7.8508926"><ele>188.0</ele><time>2026-03-29T14:35:47.187Z</time></trkpt><trkpt lat="45.1518087" lon="7.8506732"><ele>188.0</ele><time>2026-03-29T14:35:48.181Z</time></trkpt><trkpt lat="45.1516394" lon="7.8504608"><ele>188.0</ele><time>2026-03-29T14:35:49.179Z</time></trkpt><trkpt lat="45.1514814" lon="7.8502596"><ele>188.0</ele><time>2026-03-29T14:35:50.177Z</time></trkpt><trkpt lat="45.1513349" lon="7.8500782"><ele>188.0</ele><time>2026-03-29T14:35:51.213Z</time></trkpt><trkpt lat="45.1512029" lon="7.8499164"><ele>188.0</ele><time>2026-03-29T14:35:52.183Z</time></trkpt><trkpt lat="45.1510772" lon="7.8497694"><ele>188.0</ele><time>2026-03-29T14:35:53.179Z</time></trkpt><trkpt lat="45.1509534" lon="7.8496333"><ele>188.0</ele><time>2026-03-29T14:35:54.187Z</time></trkpt><trkpt lat="45.1508435" lon="7.849509"><ele>188.0</ele><time>2026-03-29T14:35:55.181Z</time></trkpt><trkpt lat="45.1507391" lon="7.8493933"><ele>188.0</ele><time>2026-03-29T14:35:56.184Z</time></trkpt><trkpt lat="45.1506425" lon="7.8492797"><ele>188.0</ele><time>2026-03-29T14:35:57.196Z</time></trkpt><trkpt lat="45.1505523" lon="7.8491655"><ele>188.75</ele><time>2026-03-29T14:35:58.185Z</time></trkpt><trkpt lat="45.1504536" lon="7.8490472"><ele>189.5</ele><time>2026-03-29T14:35:59.193Z</time></trkpt><trkpt lat="45.1503506" lon="7.8489284"><ele>190.25</ele><time>2026-03-29T14:36:00.195Z</time></trkpt><trkpt lat="45.150256" lon="7.848813"><ele>191.0</ele><time>2026-03-29T14:36:01.186Z</time></trkpt><trkpt lat="45.1501661" lon="7.8487017"><ele>191.0</ele><time>2026-03-29T14:36:02.193Z</time></trkpt><trkpt lat="45.1500741" lon="7.8485917"><ele>191.0</ele><time>2026-03-29T14:36:03.181Z</time></trkpt><trkpt lat="45.1499846" lon="7.8484848"><ele>191.0</ele><time>2026-03-29T14:36:04.183Z</time></trkpt><trkpt lat="45.1498944" lon="7.848376"><ele>191.0</ele><time>2026-03-29T14:36:05.181Z</time></trkpt><trkpt lat="45.1498085" lon="7.8482656"><ele>191.0</ele><time>2026-03-29T14:36:06.187Z</time></trkpt><trkpt lat="45.1497304" lon="7.8481635"><ele>191.0</ele><time>2026-03-29T14:36:07.192Z</time></trkpt><trkpt lat="45.1496558" lon="7.8480674"><ele>191.0</ele><time>2026-03-29T14:36:08.187Z</time></trkpt><trkpt lat="45.1495838" lon="7.8479797"><ele>191.0</ele><time>2026-03-29T14:36:09.184Z</time></trkpt><trkpt lat="45.149513" lon="7.8478963"><ele>191.0</ele><time>2026-03-29T14:36:10.183Z</time></trkpt><trkpt lat="45.1494477" lon="7.8478207"><ele>191.0</ele><time>2026-03-29T14:36:11.178Z</time></trkpt><trkpt lat="45.1493855" lon="7.8477493"><ele>191.0</ele><time>2026-03-29T14:36:12.182Z</time></trkpt><trkpt lat="45.1493213" lon="7.8476668"><ele>191.0</ele><time>2026-03-29T14:36:13.181Z</time></trkpt><trkpt lat="45.1492588" lon="7.8475879"><ele>191.0</ele><time>2026-03-29T14:36:14.19Z</time></trkpt><trkpt lat="45.1492052" lon="7.8475196"><ele>191.0</ele><time>2026-03-29T14:36:15.185Z</time></trkpt><trkpt lat="45.1491209" lon="7.847405"><ele>191.0</ele><time>2026-03-29T14:36:17.188Z</time></trkpt><trkpt lat="45.1490624" lon="7.8473092"><ele>191.20000000000002</ele><time>2026-03-29T14:36:19.183Z</time></trkpt><trkpt lat="45.1490177" lon="7.8472367"><ele>191.4</ele><time>2026-03-29T14:36:21.178Z</time></trkpt><trkpt lat="45.1489527" lon="7.8471501"><ele>191.6</ele><time>2026-03-29T14:36:23.22Z</time></trkpt><trkpt lat="45.1488527" lon="7.8470296"><ele>191.8</ele><time>2026-03-29T14:36:25.181Z</time></trkpt><trkpt lat="45.1487906" lon="7.8469532"><ele>192.0</ele><time>2026-03-29T14:36:26.192Z</time></trkpt><trkpt lat="45.148713" lon="7.8468633"><ele>192.0</ele><time>2026-03-29T14:36:27.185Z</time></trkpt><trkpt lat="45.148614" lon="7.846761"><ele>192.0</ele><time>2026-03-29T14:36:28.182Z</time></trkpt><trkpt lat="45.1485197" lon="7.8466606"><ele>192.0</ele><time>2026-03-29T14:36:29.181Z</time></trkpt><trkpt lat="45.1484232" lon="7.8465588"><ele>192.0</ele><time>2026-03-29T14:36:30.183Z</time></trkpt><trkpt lat="45.1483319" lon="7.846459"><ele>192.0</ele><time>2026-03-29T14:36:31.188Z</time></trkpt><trkpt lat="45.148231" lon="7.8463507"><ele>192.0</ele><time>2026-03-29T14:36:32.183Z</time></trkpt><trkpt lat="45.1481272" lon="7.8462341"><ele>192.0</ele><time>2026-03-29T14:36:33.222Z</time></trkpt><trkpt lat="45.148029" lon="7.84611"><ele>192.0</ele><time>2026-03-29T14:36:34.176Z</time></trkpt><trkpt lat="45.1479223" lon="7.8459814"><ele>191.66666666666666</ele><time>2026-03-29T14:36:35.177Z</time></trkpt><trkpt lat="45.1478095" lon="7.8458475"><ele>191.33333333333331</ele><time>2026-03-29T14:36:36.18Z</time></trkpt><trkpt lat="45.1476921" lon="7.8457133"><ele>191.0</ele><time>2026-03-29T14:36:37.182Z</time></trkpt><trkpt lat="45.1475587" lon="7.8455713"><ele>191.0</ele><time>2026-03-29T14:36:38.187Z</time></trkpt><trkpt lat="45.1474296" lon="7.8454359"><ele>191.0</ele><time>2026-03-29T14:36:39.186Z</time></trkpt><trkpt lat="45.1473087" lon="7.845303"><ele>191.0</ele><time>2026-03-29T14:36:40.192Z</time></trkpt><trkpt lat="45.1471921" lon="7.8451925"><ele>190.25</ele><time>2026-03-29T14:36:41.19Z</time></trkpt><trkpt lat="45.1470817" lon="7.8450834"><ele>189.5</ele><time>2026-03-29T14:36:42.187Z</time></trkpt><trkpt lat="45.1469877" lon="7.8449797"><ele>188.75</ele><time>2026-03-29T14:36:43.216Z</time></trkpt><trkpt lat="45.1468976" lon="7.8448696"><ele>188.0</ele><time>2026-03-29T14:36:44.19Z</time></trkpt><trkpt lat="45.1468006" lon="7.844753"><ele>188.0</ele><time>2026-03-29T14:36:45.186Z</time></trkpt><trkpt lat="45.1467004" lon="7.8446336"><ele>188.0</ele><time>2026-03-29T14:36:46.22Z</time></trkpt><trkpt lat="45.1465938" lon="7.8445036"><ele>188.0</ele><time>2026-03-29T14:36:47.191Z</time></trkpt><trkpt lat="45.1464881" lon="7.8443718"><ele>188.0</ele><time>2026-03-29T14:36:48.195Z</time></trkpt><trkpt lat="45.1463805" lon="7.8442405"><ele>188.5</ele><time>2026-03-29T14:36:49.219Z</time></trkpt><trkpt lat="45.1462797" lon="7.8441136"><ele>189.0</ele><time>2026-03-29T14:36:50.18Z</time></trkpt><trkpt lat="45.1461736" lon="7.8439904"><ele>189.5</ele><time>2026-03-29T14:36:51.179Z</time></trkpt><trkpt lat="45.1460743" lon="7.8438692"><ele>190.0</ele><time>2026-03-29T14:36:52.204Z</time></trkpt><trkpt lat="45.1459768" lon="7.8437565"><ele>190.0</ele><time>2026-03-29T14:36:53.181Z</time></trkpt><trkpt lat="45.1458803" lon="7.84365"><ele>190.0</ele><time>2026-03-29T14:36:54.189Z</time></trkpt><trkpt lat="45.1457852" lon="7.8435391"><ele>190.0</ele><time>2026-03-29T14:36:55.186Z</time></trkpt><trkpt lat="45.1456828" lon="7.8434169"><ele>190.0</ele><time>2026-03-29T14:36:56.191Z</time></trkpt><trkpt lat="45.1455693" lon="7.8432843"><ele>190.0</ele><time>2026-03-29T14:36:57.187Z</time></trkpt><trkpt lat="45.1454393" lon="7.8431413"><ele>190.0</ele><time>2026-03-29T14:36:58.19Z</time></trkpt><trkpt lat="45.1452982" lon="7.8429845"><ele>190.0</ele><time>2026-03-29T14:36:59.185Z</time></trkpt><trkpt lat="45.1451505" lon="7.8428187"><ele>190.0</ele><time>2026-03-29T14:37:00.181Z</time></trkpt><trkpt lat="45.1449979" lon="7.842653"><ele>190.0</ele><time>2026-03-29T14:37:01.185Z</time></trkpt><trkpt lat="45.1448518" lon="7.8424904"><ele>190.0</ele><time>2026-03-29T14:37:02.179Z</time></trkpt><trkpt lat="45.1447077" lon="7.8423309"><ele>189.33333333333334</ele><time>2026-03-29T14:37:03.186Z</time></trkpt><trkpt lat="45.1445723" lon="7.842179"><ele>188.66666666666666</ele><time>2026-03-29T14:37:04.187Z</time></trkpt><trkpt lat="45.1444486" lon="7.8420368"><ele>188.0</ele><time>2026-03-29T14:37:05.183Z</time></trkpt><trkpt lat="45.1443372" lon="7.8419009"><ele>188.0</ele><time>2026-03-29T14:37:06.182Z</time></trkpt><trkpt lat="45.1442301" lon="7.8417695"><ele>188.0</ele><time>2026-03-29T14:37:07.19Z</time></trkpt><trkpt lat="45.1441257" lon="7.841639"><ele>188.0</ele><time>2026-03-29T14:37:08.181Z</time></trkpt><trkpt lat="45.1440174" lon="7.8415071"><ele>188.0</ele><time>2026-03-29T14:37:09.181Z</time></trkpt><trkpt lat="45.143907" lon="7.8413704"><ele>188.0</ele><time>2026-03-29T14:37:10.179Z</time></trkpt><trkpt lat="45.1437968" lon="7.8412336"><ele>188.0</ele><time>2026-03-29T14:37:11.185Z</time></trkpt><trkpt lat="45.1436833" lon="7.841099"><ele>188.0</ele><time>2026-03-29T14:37:12.181Z</time></trkpt><trkpt lat="45.1435749" lon="7.8409705"><ele>188.0</ele><time>2026-03-29T14:37:13.184Z</time></trkpt><trkpt lat="45.1434719" lon="7.8408549"><ele>188.5</ele><time>2026-03-29T14:37:14.178Z</time></trkpt><trkpt lat="45.1433764" lon="7.8407416"><ele>189.0</ele><time>2026-03-29T14:37:15.181Z</time></trkpt><trkpt lat="45.1432824" lon="7.8406292"><ele>189.5</ele><time>2026-03-29T14:37:16.186Z</time></trkpt><trkpt lat="45.1431952" lon="7.8405189"><ele>190.0</ele><time>2026-03-29T14:37:17.214Z</time></trkpt><trkpt lat="45.1431131" lon="7.8404071"><ele>190.16666666666669</ele><time>2026-03-29T14:37:18.185Z</time></trkpt><trkpt lat="45.1430563" lon="7.8402936"><ele>190.33333333333334</ele><time>2026-03-29T14:37:19.193Z</time></trkpt><trkpt lat="45.1430153" lon="7.8401842"><ele>190.5</ele><time>2026-03-29T14:37:20.181Z</time></trkpt><trkpt lat="45.1429913" lon="7.8400781"><ele>190.66666666666666</ele><time>2026-03-29T14:37:21.188Z</time></trkpt><trkpt lat="45.1429828" lon="7.8399724"><ele>190.83333333333331</ele><time>2026-03-29T14:37:22.187Z</time></trkpt><trkpt lat="45.1429928" lon="7.8398653"><ele>191.0</ele><time>2026-03-29T14:37:23.184Z</time></trkpt><trkpt lat="45.1430194" lon="7.8397518"><ele>191.0</ele><time>2026-03-29T14:37:24.18Z</time></trkpt><trkpt lat="45.1430642" lon="7.8396292"><ele>191.0</ele><time>2026-03-29T14:37:25.187Z</time></trkpt><trkpt lat="45.1431232" lon="7.8395017"><ele>191.0</ele><time>2026-03-29T14:37:26.184Z</time></trkpt><trkpt lat="45.1431943" lon="7.8393787"><ele>191.0</ele><time>2026-03-29T14:37:27.183Z</time></trkpt><trkpt lat="45.1432801" lon="7.8392735"><ele>191.0</ele><time>2026-03-29T14:37:28.188Z</time></trkpt><trkpt lat="45.1433865" lon="7.8391871"><ele>190.66666666666666</ele><time>2026-03-29T14:37:29.185Z</time></trkpt><trkpt lat="45.1435159" lon="7.8391218"><ele>190.33333333333334</ele><time>2026-03-29T14:37:30.219Z</time></trkpt><trkpt lat="45.143665" lon="7.839072"><ele>190.0</ele><time>2026-03-29T14:37:31.181Z</time></trkpt><trkpt lat="45.1438368" lon="7.839017"><ele>190.0</ele><time>2026-03-29T14:37:32.185Z</time></trkpt><trkpt lat="45.1440362" lon="7.8389443"><ele>190.0</ele><time>2026-03-29T14:37:33.181Z</time></trkpt><trkpt lat="45.1442695" lon="7.8388549"><ele>190.0</ele><time>2026-03-29T14:37:34.184Z</time></trkpt><trkpt lat="45.1445368" lon="7.838754"><ele>190.5</ele><time>2026-03-29T14:37:35.185Z</time></trkpt><trkpt lat="45.1448329" lon="7.8386317"><ele>191.0</ele><time>2026-03-29T14:37:36.178Z</time></trkpt><trkpt lat="45.1451493" lon="7.8385001"><ele>190.5</ele><time>2026-03-29T14:37:37.181Z</time></trkpt><trkpt lat="45.145457" lon="7.8383749"><ele>190.0</ele><time>2026-03-29T14:37:38.18Z</time></trkpt><trkpt lat="45.1457448" lon="7.8382568"><ele>190.0</ele><time>2026-03-29T14:37:39.182Z</time></trkpt><trkpt lat="45.1460223" lon="7.8381441"><ele>190.0</ele><time>2026-03-29T14:37:40.21Z</time></trkpt><trkpt lat="45.1463043" lon="7.8380503"><ele>190.0</ele><time>2026-03-29T14:37:41.181Z</time></trkpt><trkpt lat="45.146586" lon="7.8379841"><ele>190.0</ele><time>2026-03-29T14:37:42.191Z</time></trkpt><trkpt lat="45.1468702" lon="7.83795"><ele>190.0</ele><time>2026-03-29T14:37:43.179Z</time></trkpt><trkpt lat="45.1471567" lon="7.8379483"><ele>190.0</ele><time>2026-03-29T14:37:44.183Z</time></trkpt><trkpt lat="45.1474463" lon="7.8379743"><ele>190.5</ele><time>2026-03-29T14:37:45.184Z</time></trkpt><trkpt lat="45.1477373" lon="7.8380224"><ele>191.0</ele><time>2026-03-29T14:37:46.186Z</time></trkpt><trkpt lat="45.1480252" lon="7.8380741"><ele>189.5</ele><time>2026-03-29T14:37:47.183Z</time></trkpt><trkpt lat="45.1482932" lon="7.8381252"><ele>188.0</ele><time>2026-03-29T14:37:48.178Z</time></trkpt><trkpt lat="45.1485441" lon="7.838168"><ele>188.0</ele><time>2026-03-29T14:37:49.177Z</time></trkpt><trkpt lat="45.1487812" lon="7.8382"><ele>188.0</ele><time>2026-03-29T14:37:50.187Z</time></trkpt><trkpt lat="45.1490077" lon="7.8382258"><ele>187.66666666666666</ele><time>2026-03-29T14:37:51.183Z</time></trkpt><trkpt lat="45.1492275" lon="7.8382383"><ele>187.33333333333334</ele><time>2026-03-29T14:37:52.207Z</time></trkpt><trkpt lat="45.1494433" lon="7.838229"><ele>187.0</ele><time>2026-03-29T14:37:53.186Z</time></trkpt><trkpt lat="45.149661" lon="7.8382009"><ele>187.0</ele><time>2026-03-29T14:37:54.183Z</time></trkpt><trkpt lat="45.1498743" lon="7.838158"><ele>187.0</ele><time>2026-03-29T14:37:55.178Z</time></trkpt><trkpt lat="45.1500772" lon="7.8381064"><ele>187.0</ele><time>2026-03-29T14:37:56.182Z</time></trkpt><trkpt lat="45.1502582" lon="7.8380436"><ele>187.0</ele><time>2026-03-29T14:37:57.181Z</time></trkpt><trkpt lat="45.1504217" lon="7.8379749"><ele>187.0</ele><time>2026-03-29T14:37:58.191Z</time></trkpt><trkpt lat="45.150572" lon="7.8379031"><ele>187.0</ele><time>2026-03-29T14:37:59.185Z</time></trkpt><trkpt lat="45.1507182" lon="7.8378252"><ele>187.0</ele><time>2026-03-29T14:38:00.179Z</time></trkpt><trkpt lat="45.1508701" lon="7.8377385"><ele>187.0</ele><time>2026-03-29T14:38:01.179Z</time></trkpt><trkpt lat="45.1510451" lon="7.8376282"><ele>187.0</ele><time>2026-03-29T14:38:02.181Z</time></trkpt><trkpt lat="45.1512379" lon="7.8375019"><ele>187.0</ele><time>2026-03-29T14:38:03.179Z</time></trkpt><trkpt lat="45.1514493" lon="7.8373583"><ele>187.0</ele><time>2026-03-29T14:38:04.177Z</time></trkpt><trkpt lat="45.1516794" lon="7.8371972"><ele>187.5</ele><time>2026-03-29T14:38:05.192Z</time></trkpt><trkpt lat="45.1519151" lon="7.8370189"><ele>188.0</ele><time>2026-03-29T14:38:06.184Z</time></trkpt><trkpt lat="45.1521461" lon="7.8368196"><ele>188.5</ele><time>2026-03-29T14:38:07.187Z</time></trkpt><trkpt lat="45.1523683" lon="7.8365931"><ele>189.0</ele><time>2026-03-29T14:38:08.185Z</time></trkpt><trkpt lat="45.1525833" lon="7.8363372"><ele>188.5</ele><time>2026-03-29T14:38:09.18Z</time></trkpt><trkpt lat="45.1527886" lon="7.8360648"><ele>188.0</ele><time>2026-03-29T14:38:10.185Z</time></trkpt><trkpt lat="45.1529845" lon="7.8357728"><ele>188.0</ele><time>2026-03-29T14:38:11.18Z</time></trkpt><trkpt lat="45.1531726" lon="7.8354665"><ele>188.0</ele><time>2026-03-29T14:38:12.183Z</time></trkpt><trkpt lat="45.1533603" lon="7.8351511"><ele>186.5</ele><time>2026-03-29T14:38:13.184Z</time></trkpt><trkpt lat="45.1535498" lon="7.8348272"><ele>185.0</ele><time>2026-03-29T14:38:14.178Z</time></trkpt><trkpt lat="45.1537431" lon="7.8345028"><ele>186.5</ele><time>2026-03-29T14:38:15.179Z</time></trkpt><trkpt lat="45.1539377" lon="7.8341813"><ele>188.0</ele><time>2026-03-29T14:38:16.182Z</time></trkpt><trkpt lat="45.1541364" lon="7.8338606"><ele>188.0</ele><time>2026-03-29T14:38:17.187Z</time></trkpt><trkpt lat="45.1543381" lon="7.8335335"><ele>188.0</ele><time>2026-03-29T14:38:18.177Z</time></trkpt><trkpt lat="45.1545474" lon="7.8332014"><ele>188.5</ele><time>2026-03-29T14:38:19.19Z</time></trkpt><trkpt lat="45.154763" lon="7.8328676"><ele>189.0</ele><time>2026-03-29T14:38:20.18Z</time></trkpt><trkpt lat="45.1549806" lon="7.8325301"><ele>186.0</ele><time>2026-03-29T14:38:21.183Z</time></trkpt><trkpt lat="45.1551972" lon="7.8321913"><ele>183.0</ele><time>2026-03-29T14:38:22.178Z</time></trkpt><trkpt lat="45.1554116" lon="7.8318504"><ele>183.0</ele><time>2026-03-29T14:38:23.185Z</time></trkpt><trkpt lat="45.1556257" lon="7.8315122"><ele>183.0</ele><time>2026-03-29T14:38:24.18Z</time></trkpt><trkpt lat="45.1558343" lon="7.8311844"><ele>182.0</ele><time>2026-03-29T14:38:25.181Z</time></trkpt><trkpt lat="45.1560358" lon="7.8308643"><ele>181.0</ele><time>2026-03-29T14:38:26.178Z</time></trkpt><trkpt lat="45.1562352" lon="7.8305535"><ele>181.0</ele><time>2026-03-29T14:38:27.191Z</time></trkpt><trkpt lat="45.1564306" lon="7.8302461"><ele>181.0</ele><time>2026-03-29T14:38:28.207Z</time></trkpt><trkpt lat="45.1566233" lon="7.8299384"><ele>183.0</ele><time>2026-03-29T14:38:29.182Z</time></trkpt><trkpt lat="45.1568168" lon="7.829632"><ele>185.0</ele><time>2026-03-29T14:38:30.181Z</time></trkpt><trkpt lat="45.1570112" lon="7.8293293"><ele>186.0</ele><time>2026-03-29T14:38:31.183Z</time></trkpt><trkpt lat="45.1572041" lon="7.829027"><ele>187.0</ele><time>2026-03-29T14:38:32.188Z</time></trkpt><trkpt lat="45.1573966" lon="7.8287241"><ele>187.0</ele><time>2026-03-29T14:38:33.187Z</time></trkpt><trkpt lat="45.1575898" lon="7.8284147"><ele>187.0</ele><time>2026-03-29T14:38:34.179Z</time></trkpt><trkpt lat="45.1577876" lon="7.8281031"><ele>187.0</ele><time>2026-03-29T14:38:35.18Z</time></trkpt><trkpt lat="45.1579837" lon="7.8277936"><ele>187.0</ele><time>2026-03-29T14:38:36.19Z</time></trkpt><trkpt lat="45.1581776" lon="7.827488"><ele>188.5</ele><time>2026-03-29T14:38:37.182Z</time></trkpt><trkpt lat="45.1583693" lon="7.827186"><ele>190.0</ele><time>2026-03-29T14:38:38.18Z</time></trkpt><trkpt lat="45.1585609" lon="7.8268856"><ele>189.0</ele><time>2026-03-29T14:38:39.182Z</time></trkpt><trkpt lat="45.1587549" lon="7.8265891"><ele>188.0</ele><time>2026-03-29T14:38:40.18Z</time></trkpt><trkpt lat="45.158948" lon="7.8262965"><ele>187.5</ele><time>2026-03-29T14:38:41.179Z</time></trkpt><trkpt lat="45.1591354" lon="7.8260057"><ele>187.0</ele><time>2026-03-29T14:38:42.187Z</time></trkpt><trkpt lat="45.1593193" lon="7.8257145"><ele>185.5</ele><time>2026-03-29T14:38:43.178Z</time></trkpt><trkpt lat="45.1595006" lon="7.8254269"><ele>184.0</ele><time>2026-03-29T14:38:44.19Z</time></trkpt><trkpt lat="45.1596803" lon="7.8251472"><ele>184.0</ele><time>2026-03-29T14:38:45.19Z</time></trkpt><trkpt lat="45.1598576" lon="7.824877"><ele>184.0</ele><time>2026-03-29T14:38:46.184Z</time></trkpt><trkpt lat="45.1600338" lon="7.8246191"><ele>185.0</ele><time>2026-03-29T14:38:47.186Z</time></trkpt><trkpt lat="45.1602131" lon="7.8243733"><ele>186.0</ele><time>2026-03-29T14:38:48.177Z</time></trkpt><trkpt lat="45.1604025" lon="7.8241345"><ele>188.0</ele><time>2026-03-29T14:38:49.177Z</time></trkpt><trkpt lat="45.1606098" lon="7.8239037"><ele>190.0</ele><time>2026-03-29T14:38:50.177Z</time></trkpt><trkpt lat="45.1608307" lon="7.8236739"><ele>190.5</ele><time>2026-03-29T14:38:51.186Z</time></trkpt><trkpt lat="45.1610596" lon="7.8234445"><ele>191.0</ele><time>2026-03-29T14:38:52.181Z</time></trkpt><trkpt lat="45.161288" lon="7.8232197"><ele>191.0</ele><time>2026-03-29T14:38:53.181Z</time></trkpt><trkpt lat="45.1615155" lon="7.8229941"><ele>191.0</ele><time>2026-03-29T14:38:54.185Z</time></trkpt><trkpt lat="45.1617407" lon="7.8227693"><ele>191.5</ele><time>2026-03-29T14:38:55.184Z</time></trkpt><trkpt lat="45.1619629" lon="7.8225488"><ele>192.0</ele><time>2026-03-29T14:38:56.179Z</time></trkpt><trkpt lat="45.1621805" lon="7.8223304"><ele>191.5</ele><time>2026-03-29T14:38:57.185Z</time></trkpt><trkpt lat="45.1623983" lon="7.8221129"><ele>191.0</ele><time>2026-03-29T14:38:58.181Z</time></trkpt><trkpt lat="45.1626216" lon="7.821895"><ele>191.5</ele><time>2026-03-29T14:38:59.179Z</time></trkpt><trkpt lat="45.1628475" lon="7.8216692"><ele>192.0</ele><time>2026-03-29T14:39:00.181Z</time></trkpt><trkpt lat="45.1630724" lon="7.8214393"><ele>193.0</ele><time>2026-03-29T14:39:01.21Z</time></trkpt><trkpt lat="45.163304" lon="7.8212095"><ele>194.0</ele><time>2026-03-29T14:39:02.187Z</time></trkpt><trkpt lat="45.1635356" lon="7.8209777"><ele>194.0</ele><time>2026-03-29T14:39:03.184Z</time></trkpt><trkpt lat="45.1637637" lon="7.8207509"><ele>194.0</ele><time>2026-03-29T14:39:04.19Z</time></trkpt><trkpt lat="45.1639869" lon="7.8205324"><ele>193.0</ele><time>2026-03-29T14:39:05.182Z</time></trkpt><trkpt lat="45.1641989" lon="7.8203223"><ele>192.0</ele><time>2026-03-29T14:39:06.189Z</time></trkpt><trkpt lat="45.1643969" lon="7.8201216"><ele>192.0</ele><time>2026-03-29T14:39:07.177Z</time></trkpt><trkpt lat="45.1645799" lon="7.8199282"><ele>192.0</ele><time>2026-03-29T14:39:08.209Z</time></trkpt><trkpt lat="45.1647571" lon="7.819734"><ele>191.5</ele><time>2026-03-29T14:39:09.18Z</time></trkpt><trkpt lat="45.164934" lon="7.8195193"><ele>191.0</ele><time>2026-03-29T14:39:10.186Z</time></trkpt><trkpt lat="45.1651137" lon="7.8192756"><ele>190.5</ele><time>2026-03-29T14:39:11.187Z</time></trkpt><trkpt lat="45.1652979" lon="7.8189995"><ele>190.0</ele><time>2026-03-29T14:39:12.185Z</time></trkpt><trkpt lat="45.1654821" lon="7.8186854"><ele>189.0</ele><time>2026-03-29T14:39:13.207Z</time></trkpt><trkpt lat="45.1656623" lon="7.8183403"><ele>188.0</ele><time>2026-03-29T14:39:14.184Z</time></trkpt><trkpt lat="45.1658371" lon="7.8179638"><ele>187.5</ele><time>2026-03-29T14:39:15.194Z</time></trkpt><trkpt lat="45.1659957" lon="7.8175629"><ele>187.0</ele><time>2026-03-29T14:39:16.185Z</time></trkpt><trkpt lat="45.1661364" lon="7.8171597"><ele>186.0</ele><time>2026-03-29T14:39:17.182Z</time></trkpt><trkpt lat="45.1662766" lon="7.81677"><ele>185.0</ele><time>2026-03-29T14:39:18.187Z</time></trkpt><trkpt lat="45.1664304" lon="7.8163998"><ele>186.5</ele><time>2026-03-29T14:39:19.182Z</time></trkpt><trkpt lat="45.1665923" lon="7.8160525"><ele>188.0</ele><time>2026-03-29T14:39:20.182Z</time></trkpt><trkpt lat="45.16676" lon="7.815731"><ele>188.0</ele><time>2026-03-29T14:39:21.185Z</time></trkpt><trkpt lat="45.1669285" lon="7.815424"><ele>188.0</ele><time>2026-03-29T14:39:22.187Z</time></trkpt><trkpt lat="45.167102" lon="7.8151187"><ele>190.0</ele><time>2026-03-29T14:39:23.178Z</time></trkpt><trkpt lat="45.1672788" lon="7.8148058"><ele>192.0</ele><time>2026-03-29T14:39:24.191Z</time></trkpt><trkpt lat="45.1674566" lon="7.8144879"><ele>194.0</ele><time>2026-03-29T14:39:25.184Z</time></trkpt><trkpt lat="45.1676345" lon="7.8141706"><ele>196.0</ele><time>2026-03-29T14:39:26.181Z</time></trkpt><trkpt lat="45.1678062" lon="7.8138579"><ele>196.0</ele><time>2026-03-29T14:39:27.183Z</time></trkpt><trkpt lat="45.1679728" lon="7.8135541"><ele>196.0</ele><time>2026-03-29T14:39:28.18Z</time></trkpt><trkpt lat="45.1681374" lon="7.8132529"><ele>195.0</ele><time>2026-03-29T14:39:29.179Z</time></trkpt><trkpt lat="45.1683055" lon="7.8129532"><ele>194.0</ele><time>2026-03-29T14:39:30.189Z</time></trkpt><trkpt lat="45.1684744" lon="7.8126474"><ele>194.0</ele><time>2026-03-29T14:39:31.188Z</time></trkpt><trkpt lat="45.1686462" lon="7.8123349"><ele>194.0</ele><time>2026-03-29T14:39:32.181Z</time></trkpt><trkpt lat="45.1688248" lon="7.8120157"><ele>195.5</ele><time>2026-03-29T14:39:33.185Z</time></trkpt><trkpt lat="45.1690065" lon="7.8116888"><ele>197.0</ele><time>2026-03-29T14:39:34.179Z</time></trkpt><trkpt lat="45.1691877" lon="7.8113559"><ele>197.5</ele><time>2026-03-29T14:39:35.211Z</time></trkpt><trkpt lat="45.1693662" lon="7.8110255"><ele>198.0</ele><time>2026-03-29T14:39:36.181Z</time></trkpt><trkpt lat="45.169542" lon="7.8107055"><ele>198.5</ele><time>2026-03-29T14:39:37.179Z</time></trkpt><trkpt lat="45.1697085" lon="7.8103937"><ele>199.0</ele><time>2026-03-29T14:39:38.183Z</time></trkpt><trkpt lat="45.1698717" lon="7.8100897"><ele>199.0</ele><time>2026-03-29T14:39:39.179Z</time></trkpt><trkpt lat="45.1700373" lon="7.8097945"><ele>199.0</ele><time>2026-03-29T14:39:40.177Z</time></trkpt><trkpt lat="45.1702147" lon="7.8095181"><ele>199.0</ele><time>2026-03-29T14:39:41.18Z</time></trkpt><trkpt lat="45.1704081" lon="7.8092637"><ele>199.0</ele><time>2026-03-29T14:39:42.186Z</time></trkpt><trkpt lat="45.1706127" lon="7.8090257"><ele>198.5</ele><time>2026-03-29T14:39:43.18Z</time></trkpt><trkpt lat="45.1708544" lon="7.8087949"><ele>198.0</ele><time>2026-03-29T14:39:44.175Z</time></trkpt><trkpt lat="45.1711062" lon="7.8085647"><ele>199.0</ele><time>2026-03-29T14:39:45.182Z</time></trkpt><trkpt lat="45.1713744" lon="7.8083246"><ele>200.0</ele><time>2026-03-29T14:39:46.189Z</time></trkpt><trkpt lat="45.1716424" lon="7.8080841"><ele>200.0</ele><time>2026-03-29T14:39:47.182Z</time></trkpt><trkpt lat="45.1719183" lon="7.8078448"><ele>200.0</ele><time>2026-03-29T14:39:48.183Z</time></trkpt><trkpt lat="45.1721889" lon="7.8075713"><ele>200.0</ele><time>2026-03-29T14:39:49.178Z</time></trkpt><trkpt lat="45.1724724" lon="7.807309"><ele>200.0</ele><time>2026-03-29T14:39:50.18Z</time></trkpt><trkpt lat="45.1727543" lon="7.8070334"><ele>200.0</ele><time>2026-03-29T14:39:51.178Z</time></trkpt><trkpt lat="45.1730344" lon="7.8067536"><ele>200.0</ele><time>2026-03-29T14:39:52.186Z</time></trkpt><trkpt lat="45.1733161" lon="7.806474"><ele>201.5</ele><time>2026-03-29T14:39:53.182Z</time></trkpt><trkpt lat="45.1736015" lon="7.8061919"><ele>203.0</ele><time>2026-03-29T14:39:54.178Z</time></trkpt><trkpt lat="45.1738871" lon="7.8059089"><ele>204.5</ele><time>2026-03-29T14:39:55.178Z</time></trkpt><trkpt lat="45.1741676" lon="7.8056302"><ele>206.0</ele><time>2026-03-29T14:39:56.179Z</time></trkpt><trkpt lat="45.1744401" lon="7.805362"><ele>205.5</ele><time>2026-03-29T14:39:57.181Z</time></trkpt><trkpt lat="45.1747014" lon="7.8051129"><ele>205.0</ele><time>2026-03-29T14:39:58.184Z</time></trkpt><trkpt lat="45.1749536" lon="7.8048827"><ele>204.0</ele><time>2026-03-29T14:39:59.213Z</time></trkpt><trkpt lat="45.1751941" lon="7.804658"><ele>203.0</ele><time>2026-03-29T14:40:00.187Z</time></trkpt><trkpt lat="45.1754267" lon="7.804434"><ele>202.5</ele><time>2026-03-29T14:40:01.178Z</time></trkpt><trkpt lat="45.1756537" lon="7.8042043"><ele>202.0</ele><time>2026-03-29T14:40:02.181Z</time></trkpt><trkpt lat="45.1758812" lon="7.8039751"><ele>202.0</ele><time>2026-03-29T14:40:03.178Z</time></trkpt><trkpt lat="45.1761083" lon="7.8037519"><ele>202.0</ele><time>2026-03-29T14:40:04.184Z</time></trkpt><trkpt lat="45.1763358" lon="7.8035293"><ele>202.0</ele><time>2026-03-29T14:40:05.192Z</time></trkpt><trkpt lat="45.1765635" lon="7.8033069"><ele>202.0</ele><time>2026-03-29T14:40:06.182Z</time></trkpt><trkpt lat="45.1767946" lon="7.8030903"><ele>202.0</ele><time>2026-03-29T14:40:07.184Z</time></trkpt><trkpt lat="45.1770292" lon="7.8028845"><ele>202.0</ele><time>2026-03-29T14:40:08.188Z</time></trkpt><trkpt lat="45.1772691" lon="7.802692"><ele>202.5</ele><time>2026-03-29T14:40:09.181Z</time></trkpt><trkpt lat="45.1775157" lon="7.8025174"><ele>203.0</ele><time>2026-03-29T14:40:10.18Z</time></trkpt><trkpt lat="45.177769" lon="7.8023559"><ele>203.0</ele><time>2026-03-29T14:40:11.205Z</time></trkpt><trkpt lat="45.1780264" lon="7.8022038"><ele>203.0</ele><time>2026-03-29T14:40:12.186Z</time></trkpt><trkpt lat="45.178288" lon="7.8020518"><ele>202.5</ele><time>2026-03-29T14:40:13.186Z</time></trkpt><trkpt lat="45.1785527" lon="7.8018946"><ele>202.0</ele><time>2026-03-29T14:40:14.19Z</time></trkpt><trkpt lat="45.1788192" lon="7.8017356"><ele>204.5</ele><time>2026-03-29T14:40:15.178Z</time></trkpt><trkpt lat="45.1790899" lon="7.8015723"><ele>207.0</ele><time>2026-03-29T14:40:16.184Z</time></trkpt><trkpt lat="45.1793593" lon="7.8014049"><ele>207.0</ele><time>2026-03-29T14:40:17.183Z</time></trkpt><trkpt lat="45.1796361" lon="7.8012391"><ele>207.0</ele><time>2026-03-29T14:40:18.181Z</time></trkpt><trkpt lat="45.1799162" lon="7.8010698"><ele>205.5</ele><time>2026-03-29T14:40:19.187Z</time></trkpt><trkpt lat="45.1801999" lon="7.8008984"><ele>204.0</ele><time>2026-03-29T14:40:20.194Z</time></trkpt><trkpt lat="45.1804799" lon="7.8007317"><ele>204.5</ele><time>2026-03-29T14:40:21.181Z</time></trkpt><trkpt lat="45.1807488" lon="7.8005743"><ele>205.0</ele><time>2026-03-29T14:40:22.178Z</time></trkpt><trkpt lat="45.1810041" lon="7.8004199"><ele>205.0</ele><time>2026-03-29T14:40:23.191Z</time></trkpt><trkpt lat="45.1812472" lon="7.8002634"><ele>205.0</ele><time>2026-03-29T14:40:24.193Z</time></trkpt><trkpt lat="45.18148" lon="7.8001122"><ele>205.0</ele><time>2026-03-29T14:40:25.26Z</time></trkpt><trkpt lat="45.1817041" lon="7.7999635"><ele>205.0</ele><time>2026-03-29T14:40:26.186Z</time></trkpt><trkpt lat="45.1819171" lon="7.7998079"><ele>205.0</ele><time>2026-03-29T14:40:27.198Z</time></trkpt><trkpt lat="45.1821135" lon="7.7996398"><ele>205.0</ele><time>2026-03-29T14:40:28.179Z</time></trkpt><trkpt lat="45.1822953" lon="7.799452"><ele>205.33333333333331</ele><time>2026-03-29T14:40:29.183Z</time></trkpt><trkpt lat="45.1824671" lon="7.7992469"><ele>205.66666666666669</ele><time>2026-03-29T14:40:30.183Z</time></trkpt><trkpt lat="45.1826319" lon="7.7990304"><ele>206.0</ele><time>2026-03-29T14:40:31.181Z</time></trkpt><trkpt lat="45.1827825" lon="7.7988011"><ele>206.0</ele><time>2026-03-29T14:40:32.185Z</time></trkpt><trkpt lat="45.1829162" lon="7.7985713"><ele>206.0</ele><time>2026-03-29T14:40:33.192Z</time></trkpt><trkpt lat="45.1830324" lon="7.7983453"><ele>206.0</ele><time>2026-03-29T14:40:34.184Z</time></trkpt><trkpt lat="45.183132" lon="7.7981224"><ele>205.33333333333334</ele><time>2026-03-29T14:40:35.183Z</time></trkpt><trkpt lat="45.1832177" lon="7.7979092"><ele>204.66666666666669</ele><time>2026-03-29T14:40:36.185Z</time></trkpt><trkpt lat="45.1832908" lon="7.797706"><ele>204.0</ele><time>2026-03-29T14:40:37.189Z</time></trkpt><trkpt lat="45.1833516" lon="7.7975189"><ele>204.0</ele><time>2026-03-29T14:40:38.184Z</time></trkpt><trkpt lat="45.1833978" lon="7.797347"><ele>204.0</ele><time>2026-03-29T14:40:39.183Z</time></trkpt><trkpt lat="45.1834375" lon="7.7971889"><ele>204.0</ele><time>2026-03-29T14:40:40.185Z</time></trkpt><trkpt lat="45.1834709" lon="7.7970421"><ele>204.0</ele><time>2026-03-29T14:40:41.178Z</time></trkpt><trkpt lat="45.1835053" lon="7.7969074"><ele>204.0</ele><time>2026-03-29T14:40:42.183Z</time></trkpt><trkpt lat="45.18355" lon="7.7967868"><ele>204.0</ele><time>2026-03-29T14:40:43.227Z</time></trkpt><trkpt lat="45.1836124" lon="7.7966726"><ele>204.0</ele><time>2026-03-29T14:40:44.181Z</time></trkpt><trkpt lat="45.1836797" lon="7.7965703"><ele>204.0</ele><time>2026-03-29T14:40:45.184Z</time></trkpt><trkpt lat="45.1837413" lon="7.7964679"><ele>204.0</ele><time>2026-03-29T14:40:46.209Z</time></trkpt><trkpt lat="45.1837908" lon="7.7963526"><ele>204.0</ele><time>2026-03-29T14:40:47.182Z</time></trkpt><trkpt lat="45.1838168" lon="7.7962237"><ele>204.0</ele><time>2026-03-29T14:40:48.177Z</time></trkpt><trkpt lat="45.1838104" lon="7.7960819"><ele>204.0</ele><time>2026-03-29T14:40:49.184Z</time></trkpt><trkpt lat="45.1837774" lon="7.7959333"><ele>204.0</ele><time>2026-03-29T14:40:50.18Z</time></trkpt><trkpt lat="45.1837334" lon="7.7957822"><ele>204.0</ele><time>2026-03-29T14:40:51.18Z</time></trkpt><trkpt lat="45.1837056" lon="7.7956304"><ele>204.0</ele><time>2026-03-29T14:40:52.18Z</time></trkpt><trkpt lat="45.1837022" lon="7.7954719"><ele>204.0</ele><time>2026-03-29T14:40:53.196Z</time></trkpt><trkpt lat="45.1837237" lon="7.795285"><ele>204.0</ele><time>2026-03-29T14:40:54.201Z</time></trkpt><trkpt lat="45.1837605" lon="7.7950651"><ele>204.0</ele><time>2026-03-29T14:40:55.188Z</time></trkpt><trkpt lat="45.1838084" lon="7.7948084"><ele>204.33333333333331</ele><time>2026-03-29T14:40:56.187Z</time></trkpt><trkpt lat="45.1838563" lon="7.7945354"><ele>204.66666666666666</ele><time>2026-03-29T14:40:57.186Z</time></trkpt><trkpt lat="45.1839064" lon="7.7942617"><ele>205.0</ele><time>2026-03-29T14:40:58.18Z</time></trkpt><trkpt lat="45.1839643" lon="7.7939811"><ele>205.33333333333331</ele><time>2026-03-29T14:40:59.179Z</time></trkpt><trkpt lat="45.1840251" lon="7.7937022"><ele>205.66666666666669</ele><time>2026-03-29T14:41:00.18Z</time></trkpt><trkpt lat="45.1840826" lon="7.7934204"><ele>206.0</ele><time>2026-03-29T14:41:01.183Z</time></trkpt><trkpt lat="45.1841338" lon="7.7931316"><ele>206.0</ele><time>2026-03-29T14:41:02.188Z</time></trkpt><trkpt lat="45.1841836" lon="7.7928417"><ele>206.0</ele><time>2026-03-29T14:41:03.205Z</time></trkpt><trkpt lat="45.1842361" lon="7.7925536"><ele>206.0</ele><time>2026-03-29T14:41:04.179Z</time></trkpt><trkpt lat="45.1842884" lon="7.7922689"><ele>206.66666666666669</ele><time>2026-03-29T14:41:05.182Z</time></trkpt><trkpt lat="45.1843374" lon="7.7919855"><ele>207.33333333333331</ele><time>2026-03-29T14:41:06.177Z</time></trkpt><trkpt lat="45.1843858" lon="7.7917052"><ele>208.0</ele><time>2026-03-29T14:41:07.184Z</time></trkpt><trkpt lat="45.1844369" lon="7.7914258"><ele>208.0</ele><time>2026-03-29T14:41:08.191Z</time></trkpt><trkpt lat="45.1844862" lon="7.7911483"><ele>208.0</ele><time>2026-03-29T14:41:09.185Z</time></trkpt><trkpt lat="45.1845355" lon="7.7908713"><ele>208.0</ele><time>2026-03-29T14:41:10.186Z</time></trkpt><trkpt lat="45.1845884" lon="7.7905919"><ele>208.0</ele><time>2026-03-29T14:41:11.188Z</time></trkpt><trkpt lat="45.1846406" lon="7.7903205"><ele>208.0</ele><time>2026-03-29T14:41:12.178Z</time></trkpt><trkpt lat="45.1846891" lon="7.7900576"><ele>208.0</ele><time>2026-03-29T14:41:13.182Z</time></trkpt><trkpt lat="45.1847357" lon="7.7897988"><ele>207.66666666666666</ele><time>2026-03-29T14:41:14.188Z</time></trkpt><trkpt lat="45.1847791" lon="7.789541"><ele>207.33333333333331</ele><time>2026-03-29T14:41:15.181Z</time></trkpt><trkpt lat="45.1848229" lon="7.789287"><ele>207.0</ele><time>2026-03-29T14:41:16.183Z</time></trkpt><trkpt lat="45.1848676" lon="7.7890309"><ele>208.0</ele><time>2026-03-29T14:41:17.219Z</time></trkpt><trkpt lat="45.1849125" lon="7.7887693"><ele>209.0</ele><time>2026-03-29T14:41:18.182Z</time></trkpt><trkpt lat="45.1849562" lon="7.7884959"><ele>210.0</ele><time>2026-03-29T14:41:19.178Z</time></trkpt><trkpt lat="45.1850019" lon="7.7882117"><ele>210.0</ele><time>2026-03-29T14:41:20.181Z</time></trkpt><trkpt lat="45.1850496" lon="7.7879174"><ele>210.0</ele><time>2026-03-29T14:41:21.188Z</time></trkpt><trkpt lat="45.185096" lon="7.7876207"><ele>210.0</ele><time>2026-03-29T14:41:22.181Z</time></trkpt><trkpt lat="45.185143" lon="7.7873271"><ele>210.66666666666669</ele><time>2026-03-29T14:41:23.182Z</time></trkpt><trkpt lat="45.1851918" lon="7.7870356"><ele>211.33333333333334</ele><time>2026-03-29T14:41:24.183Z</time></trkpt><trkpt lat="45.1852398" lon="7.786746"><ele>212.0</ele><time>2026-03-29T14:41:25.183Z</time></trkpt><trkpt lat="45.185286" lon="7.7864574"><ele>212.0</ele><time>2026-03-29T14:41:26.187Z</time></trkpt><trkpt lat="45.185335" lon="7.7861682"><ele>212.0</ele><time>2026-03-29T14:41:27.19Z</time></trkpt><trkpt lat="45.185384" lon="7.7858791"><ele>212.0</ele><time>2026-03-29T14:41:28.18Z</time></trkpt><trkpt lat="45.1854325" lon="7.7855916"><ele>211.66666666666669</ele><time>2026-03-29T14:41:29.183Z</time></trkpt><trkpt lat="45.185482" lon="7.7853048"><ele>211.33333333333331</ele><time>2026-03-29T14:41:30.185Z</time></trkpt><trkpt lat="45.1855314" lon="7.7850154"><ele>211.0</ele><time>2026-03-29T14:41:31.189Z</time></trkpt><trkpt lat="45.1855783" lon="7.7847276"><ele>211.0</ele><time>2026-03-29T14:41:32.181Z</time></trkpt><trkpt lat="45.1856226" lon="7.7844375"><ele>211.0</ele><time>2026-03-29T14:41:33.186Z</time></trkpt><trkpt lat="45.1856677" lon="7.7841468"><ele>211.0</ele><time>2026-03-29T14:41:34.178Z</time></trkpt><trkpt lat="45.1857136" lon="7.7838583"><ele>211.33333333333331</ele><time>2026-03-29T14:41:35.181Z</time></trkpt><trkpt lat="45.18576" lon="7.7835686"><ele>211.66666666666669</ele><time>2026-03-29T14:41:36.187Z</time></trkpt><trkpt lat="45.1858078" lon="7.7832804"><ele>212.0</ele><time>2026-03-29T14:41:37.183Z</time></trkpt><trkpt lat="45.185857" lon="7.782993"><ele>212.0</ele><time>2026-03-29T14:41:38.182Z</time></trkpt><trkpt lat="45.1859064" lon="7.7827048"><ele>212.0</ele><time>2026-03-29T14:41:39.177Z</time></trkpt><trkpt lat="45.1859575" lon="7.7824196"><ele>212.0</ele><time>2026-03-29T14:41:40.181Z</time></trkpt><trkpt lat="45.1860056" lon="7.7821359"><ele>212.66666666666669</ele><time>2026-03-29T14:41:41.181Z</time></trkpt><trkpt lat="45.1860529" lon="7.7818468"><ele>213.33333333333331</ele><time>2026-03-29T14:41:42.193Z</time></trkpt><trkpt lat="45.1861018" lon="7.7815439"><ele>214.0</ele><time>2026-03-29T14:41:43.188Z</time></trkpt><trkpt lat="45.1861547" lon="7.7812276"><ele>214.0</ele><time>2026-03-29T14:41:44.182Z</time></trkpt><trkpt lat="45.1862082" lon="7.7808992"><ele>214.0</ele><time>2026-03-29T14:41:45.187Z</time></trkpt><trkpt lat="45.1862638" lon="7.7805641"><ele>214.0</ele><time>2026-03-29T14:41:46.19Z</time></trkpt><trkpt lat="45.1863197" lon="7.7802255"><ele>214.0</ele><time>2026-03-29T14:41:47.182Z</time></trkpt><trkpt lat="45.1863762" lon="7.779887"><ele>214.5</ele><time>2026-03-29T14:41:48.18Z</time></trkpt><trkpt lat="45.1864359" lon="7.7795538"><ele>215.0</ele><time>2026-03-29T14:41:49.183Z</time></trkpt><trkpt lat="45.1864942" lon="7.779224"><ele>216.5</ele><time>2026-03-29T14:41:50.21Z</time></trkpt><trkpt lat="45.186551" lon="7.7788911"><ele>218.0</ele><time>2026-03-29T14:41:51.184Z</time></trkpt><trkpt lat="45.1866067" lon="7.7785587"><ele>218.0</ele><time>2026-03-29T14:41:52.188Z</time></trkpt><trkpt lat="45.186663" lon="7.778236"><ele>218.0</ele><time>2026-03-29T14:41:53.181Z</time></trkpt><trkpt lat="45.1867165" lon="7.7779215"><ele>219.0</ele><time>2026-03-29T14:41:54.18Z</time></trkpt><trkpt lat="45.1867671" lon="7.7776098"><ele>220.0</ele><time>2026-03-29T14:41:55.184Z</time></trkpt><trkpt lat="45.1868147" lon="7.7772939"><ele>220.0</ele><time>2026-03-29T14:41:56.18Z</time></trkpt><trkpt lat="45.1868631" lon="7.7769773"><ele>220.0</ele><time>2026-03-29T14:41:57.181Z</time></trkpt><trkpt lat="45.1869116" lon="7.7766594"><ele>220.0</ele><time>2026-03-29T14:41:58.179Z</time></trkpt><trkpt lat="45.1869617" lon="7.7763442"><ele>220.0</ele><time>2026-03-29T14:41:59.186Z</time></trkpt><trkpt lat="45.1870136" lon="7.7760374"><ele>219.0</ele><time>2026-03-29T14:42:00.187Z</time></trkpt><trkpt lat="45.18706" lon="7.7757454"><ele>218.0</ele><time>2026-03-29T14:42:01.186Z</time></trkpt><trkpt lat="45.1871007" lon="7.7754631"><ele>217.0</ele><time>2026-03-29T14:42:02.181Z</time></trkpt><trkpt lat="45.1871337" lon="7.7751789"><ele>217.0</ele><time>2026-03-29T14:42:03.176Z</time></trkpt><trkpt lat="45.1871648" lon="7.7748882"><ele>217.0</ele><time>2026-03-29T14:42:04.207Z</time></trkpt><trkpt lat="45.1871981" lon="7.7745953"><ele>217.0</ele><time>2026-03-29T14:42:05.183Z</time></trkpt><trkpt lat="45.1872323" lon="7.7743011"><ele>217.33333333333331</ele><time>2026-03-29T14:42:06.183Z</time></trkpt><trkpt lat="45.1872691" lon="7.7740044"><ele>217.66666666666669</ele><time>2026-03-29T14:42:07.178Z</time></trkpt><trkpt lat="45.1873043" lon="7.7737074"><ele>218.0</ele><time>2026-03-29T14:42:08.196Z</time></trkpt><trkpt lat="45.1873393" lon="7.7734091"><ele>218.33333333333334</ele><time>2026-03-29T14:42:09.212Z</time></trkpt><trkpt lat="45.187375" lon="7.773112"><ele>218.66666666666669</ele><time>2026-03-29T14:42:10.183Z</time></trkpt><trkpt lat="45.1874113" lon="7.7728122"><ele>219.0</ele><time>2026-03-29T14:42:11.185Z</time></trkpt><trkpt lat="45.1874475" lon="7.7725122"><ele>219.0</ele><time>2026-03-29T14:42:12.186Z</time></trkpt><trkpt lat="45.1874815" lon="7.7722126"><ele>219.0</ele><time>2026-03-29T14:42:13.178Z</time></trkpt><trkpt lat="45.1875148" lon="7.7719126"><ele>219.0</ele><time>2026-03-29T14:42:14.178Z</time></trkpt><trkpt lat="45.18755" lon="7.7716115"><ele>219.66666666666669</ele><time>2026-03-29T14:42:15.19Z</time></trkpt><trkpt lat="45.1875846" lon="7.771311"><ele>220.33333333333334</ele><time>2026-03-29T14:42:16.179Z</time></trkpt><trkpt lat="45.1876189" lon="7.7710109"><ele>221.0</ele><time>2026-03-29T14:42:17.179Z</time></trkpt><trkpt lat="45.18765" lon="7.7707118"><ele>221.0</ele><time>2026-03-29T14:42:18.178Z</time></trkpt><trkpt lat="45.1876811" lon="7.7704128"><ele>221.0</ele><time>2026-03-29T14:42:19.178Z</time></trkpt><trkpt lat="45.1877107" lon="7.7701138"><ele>221.0</ele><time>2026-03-29T14:42:20.186Z</time></trkpt><trkpt lat="45.1877408" lon="7.7698147"><ele>220.66666666666669</ele><time>2026-03-29T14:42:21.179Z</time></trkpt><trkpt lat="45.1877716" lon="7.7695175"><ele>220.33333333333331</ele><time>2026-03-29T14:42:22.178Z</time></trkpt><trkpt lat="45.1878021" lon="7.7692208"><ele>220.0</ele><time>2026-03-29T14:42:23.197Z</time></trkpt><trkpt lat="45.1878318" lon="7.7689252"><ele>220.0</ele><time>2026-03-29T14:42:24.177Z</time></trkpt><trkpt lat="45.1878618" lon="7.768632"><ele>220.0</ele><time>2026-03-29T14:42:25.185Z</time></trkpt><trkpt lat="45.1878908" lon="7.7683361"><ele>220.0</ele><time>2026-03-29T14:42:26.181Z</time></trkpt><trkpt lat="45.187922" lon="7.7680371"><ele>220.0</ele><time>2026-03-29T14:42:27.179Z</time></trkpt><trkpt lat="45.1879555" lon="7.7677384"><ele>220.0</ele><time>2026-03-29T14:42:28.187Z</time></trkpt><trkpt lat="45.1879897" lon="7.7674421"><ele>220.0</ele><time>2026-03-29T14:42:29.181Z</time></trkpt><trkpt lat="45.188025" lon="7.7671447"><ele>220.66666666666666</ele><time>2026-03-29T14:42:30.182Z</time></trkpt><trkpt lat="45.1880598" lon="7.7668478"><ele>221.33333333333331</ele><time>2026-03-29T14:42:31.178Z</time></trkpt><trkpt lat="45.1880955" lon="7.7665502"><ele>222.0</ele><time>2026-03-29T14:42:32.181Z</time></trkpt><trkpt lat="45.1881292" lon="7.7662548"><ele>222.0</ele><time>2026-03-29T14:42:33.181Z</time></trkpt><trkpt lat="45.1881637" lon="7.7659594"><ele>222.0</ele><time>2026-03-29T14:42:34.184Z</time></trkpt><trkpt lat="45.1881969" lon="7.7656645"><ele>222.0</ele><time>2026-03-29T14:42:35.183Z</time></trkpt><trkpt lat="45.1882298" lon="7.7653691"><ele>221.66666666666669</ele><time>2026-03-29T14:42:36.19Z</time></trkpt><trkpt lat="45.1882641" lon="7.7650718"><ele>221.33333333333334</ele><time>2026-03-29T14:42:37.225Z</time></trkpt><trkpt lat="45.1882988" lon="7.7647734"><ele>221.0</ele><time>2026-03-29T14:42:38.183Z</time></trkpt><trkpt lat="45.1883317" lon="7.7644749"><ele>221.0</ele><time>2026-03-29T14:42:39.178Z</time></trkpt><trkpt lat="45.1883637" lon="7.7641757"><ele>221.0</ele><time>2026-03-29T14:42:40.176Z</time></trkpt><trkpt lat="45.1883954" lon="7.7638755"><ele>221.0</ele><time>2026-03-29T14:42:41.178Z</time></trkpt><trkpt lat="45.1884286" lon="7.7635753"><ele>221.66666666666669</ele><time>2026-03-29T14:42:42.184Z</time></trkpt><trkpt lat="45.1884625" lon="7.7632781"><ele>222.33333333333331</ele><time>2026-03-29T14:42:43.178Z</time></trkpt><trkpt lat="45.1884978" lon="7.7629816"><ele>223.0</ele><time>2026-03-29T14:42:44.183Z</time></trkpt><trkpt lat="45.188531" lon="7.7626832"><ele>223.0</ele><time>2026-03-29T14:42:45.178Z</time></trkpt><trkpt lat="45.1885613" lon="7.762385"><ele>223.0</ele><time>2026-03-29T14:42:46.179Z</time></trkpt><trkpt lat="45.1885892" lon="7.7620888"><ele>223.0</ele><time>2026-03-29T14:42:47.184Z</time></trkpt><trkpt lat="45.1886168" lon="7.7617921"><ele>223.0</ele><time>2026-03-29T14:42:48.177Z</time></trkpt><trkpt lat="45.1886446" lon="7.7614966"><ele>223.0</ele><time>2026-03-29T14:42:49.185Z</time></trkpt><trkpt lat="45.1886733" lon="7.7612007"><ele>223.0</ele><time>2026-03-29T14:42:50.178Z</time></trkpt><trkpt lat="45.1887034" lon="7.7609025"><ele>223.0</ele><time>2026-03-29T14:42:51.18Z</time></trkpt><trkpt lat="45.1887332" lon="7.7606044"><ele>223.0</ele><time>2026-03-29T14:42:52.178Z</time></trkpt><trkpt lat="45.1887651" lon="7.7603063"><ele>223.0</ele><time>2026-03-29T14:42:53.202Z</time></trkpt><trkpt lat="45.1887969" lon="7.76001"><ele>223.0</ele><time>2026-03-29T14:42:54.18Z</time></trkpt><trkpt lat="45.1888282" lon="7.7597103"><ele>223.0</ele><time>2026-03-29T14:42:55.18Z</time></trkpt><trkpt lat="45.188858" lon="7.7594095"><ele>223.0</ele><time>2026-03-29T14:42:56.191Z</time></trkpt><trkpt lat="45.188891" lon="7.7591095"><ele>223.66666666666666</ele><time>2026-03-29T14:42:57.188Z</time></trkpt><trkpt lat="45.1889293" lon="7.7588088"><ele>224.33333333333331</ele><time>2026-03-29T14:42:58.18Z</time></trkpt><trkpt lat="45.1889694" lon="7.7585093"><ele>225.0</ele><time>2026-03-29T14:42:59.186Z</time></trkpt><trkpt lat="45.1890072" lon="7.7582094"><ele>225.0</ele><time>2026-03-29T14:43:00.176Z</time></trkpt><trkpt lat="45.1890454" lon="7.7579089"><ele>225.0</ele><time>2026-03-29T14:43:01.182Z</time></trkpt><trkpt lat="45.1890821" lon="7.7576114"><ele>225.0</ele><time>2026-03-29T14:43:02.19Z</time></trkpt><trkpt lat="45.1891194" lon="7.7573154"><ele>224.66666666666669</ele><time>2026-03-29T14:43:03.18Z</time></trkpt><trkpt lat="45.1891563" lon="7.7570193"><ele>224.33333333333334</ele><time>2026-03-29T14:43:04.174Z</time></trkpt><trkpt lat="45.1891932" lon="7.7567215"><ele>224.0</ele><time>2026-03-29T14:43:05.183Z</time></trkpt><trkpt lat="45.1892277" lon="7.7564221"><ele>224.66666666666669</ele><time>2026-03-29T14:43:06.183Z</time></trkpt><trkpt lat="45.1892617" lon="7.7561218"><ele>225.33333333333331</ele><time>2026-03-29T14:43:07.182Z</time></trkpt><trkpt lat="45.1892949" lon="7.7558218"><ele>226.0</ele><time>2026-03-29T14:43:08.186Z</time></trkpt><trkpt lat="45.1893278" lon="7.7555238"><ele>226.33333333333331</ele><time>2026-03-29T14:43:09.178Z</time></trkpt><trkpt lat="45.1893606" lon="7.7552317"><ele>226.66666666666669</ele><time>2026-03-29T14:43:10.177Z</time></trkpt><trkpt lat="45.1893922" lon="7.7549522"><ele>227.0</ele><time>2026-03-29T14:43:11.19Z</time></trkpt><trkpt lat="45.1894213" lon="7.7546869"><ele>227.0</ele><time>2026-03-29T14:43:12.184Z</time></trkpt><trkpt lat="45.1894473" lon="7.7544345"><ele>227.0</ele><time>2026-03-29T14:43:13.183Z</time></trkpt><trkpt lat="45.1894691" lon="7.7541846"><ele>227.0</ele><time>2026-03-29T14:43:14.183Z</time></trkpt><trkpt lat="45.1894886" lon="7.7539363"><ele>227.0</ele><time>2026-03-29T14:43:15.176Z</time></trkpt><trkpt lat="45.189509" lon="7.7536887"><ele>227.0</ele><time>2026-03-29T14:43:16.177Z</time></trkpt><trkpt lat="45.1895314" lon="7.7534403"><ele>227.0</ele><time>2026-03-29T14:43:17.187Z</time></trkpt><trkpt lat="45.1895566" lon="7.7531925"><ele>227.0</ele><time>2026-03-29T14:43:18.182Z</time></trkpt><trkpt lat="45.1895835" lon="7.7529476"><ele>227.0</ele><time>2026-03-29T14:43:19.179Z</time></trkpt><trkpt lat="45.1896089" lon="7.7527072"><ele>227.0</ele><time>2026-03-29T14:43:20.188Z</time></trkpt><trkpt lat="45.1896328" lon="7.7524736"><ele>227.66666666666669</ele><time>2026-03-29T14:43:21.181Z</time></trkpt><trkpt lat="45.189659" lon="7.7522431"><ele>228.33333333333331</ele><time>2026-03-29T14:43:22.177Z</time></trkpt><trkpt lat="45.1896826" lon="7.7520152"><ele>229.0</ele><time>2026-03-29T14:43:23.177Z</time></trkpt><trkpt lat="45.1897063" lon="7.7517894"><ele>229.0</ele><time>2026-03-29T14:43:24.184Z</time></trkpt><trkpt lat="45.1897314" lon="7.751562"><ele>229.0</ele><time>2026-03-29T14:43:25.185Z</time></trkpt><trkpt lat="45.1897564" lon="7.7513345"><ele>229.0</ele><time>2026-03-29T14:43:26.209Z</time></trkpt><trkpt lat="45.1897819" lon="7.7511127"><ele>228.75</ele><time>2026-03-29T14:43:27.209Z</time></trkpt><trkpt lat="45.1898077" lon="7.7509"><ele>228.5</ele><time>2026-03-29T14:43:28.183Z</time></trkpt><trkpt lat="45.1898345" lon="7.7506998"><ele>228.25</ele><time>2026-03-29T14:43:29.211Z</time></trkpt><trkpt lat="45.1898623" lon="7.7505164"><ele>228.0</ele><time>2026-03-29T14:43:30.179Z</time></trkpt><trkpt lat="45.189889" lon="7.7503502"><ele>228.4</ele><time>2026-03-29T14:43:31.179Z</time></trkpt><trkpt lat="45.1899128" lon="7.7501981"><ele>228.8</ele><time>2026-03-29T14:43:32.186Z</time></trkpt><trkpt lat="45.1899365" lon="7.7500605"><ele>229.2</ele><time>2026-03-29T14:43:33.181Z</time></trkpt><trkpt lat="45.1899626" lon="7.7499317"><ele>229.6</ele><time>2026-03-29T14:43:34.187Z</time></trkpt><trkpt lat="45.1899956" lon="7.7498148"><ele>230.0</ele><time>2026-03-29T14:43:35.185Z</time></trkpt><trkpt lat="45.1900367" lon="7.7497118"><ele>229.99999999999997</ele><time>2026-03-29T14:43:36.185Z</time></trkpt><trkpt lat="45.1900892" lon="7.7496323"><ele>230.0</ele><time>2026-03-29T14:43:37.2Z</time></trkpt><trkpt lat="45.1901517" lon="7.7495735"><ele>229.99999999999997</ele><time>2026-03-29T14:43:38.183Z</time></trkpt><trkpt lat="45.1902115" lon="7.7495274"><ele>229.99999999999997</ele><time>2026-03-29T14:43:39.186Z</time></trkpt><trkpt lat="45.1902603" lon="7.7494682"><ele>230.0</ele><time>2026-03-29T14:43:40.198Z</time></trkpt><trkpt lat="45.1902939" lon="7.7493905"><ele>229.99999999999997</ele><time>2026-03-29T14:43:41.182Z</time></trkpt><trkpt lat="45.1902897" lon="7.7492956"><ele>229.99999999999997</ele><time>2026-03-29T14:43:42.183Z</time></trkpt><trkpt lat="45.1902539" lon="7.7491981"><ele>230.4</ele><time>2026-03-29T14:43:43.177Z</time></trkpt><trkpt lat="45.1901928" lon="7.749112"><ele>230.8</ele><time>2026-03-29T14:43:44.186Z</time></trkpt><trkpt lat="45.1901126" lon="7.7490302"><ele>231.2</ele><time>2026-03-29T14:43:45.182Z</time></trkpt><trkpt lat="45.1900282" lon="7.7489328"><ele>231.6</ele><time>2026-03-29T14:43:46.177Z</time></trkpt><trkpt lat="45.1899598" lon="7.7488033"><ele>232.0</ele><time>2026-03-29T14:43:47.183Z</time></trkpt><trkpt lat="45.1899045" lon="7.7486404"><ele>232.25</ele><time>2026-03-29T14:43:48.185Z</time></trkpt><trkpt lat="45.1898535" lon="7.7484527"><ele>232.5</ele><time>2026-03-29T14:43:49.214Z</time></trkpt><trkpt lat="45.1898034" lon="7.7482477"><ele>232.75</ele><time>2026-03-29T14:43:50.184Z</time></trkpt><trkpt lat="45.1897546" lon="7.7480433"><ele>233.0</ele><time>2026-03-29T14:43:51.178Z</time></trkpt><trkpt lat="45.1897008" lon="7.7478496"><ele>232.33333333333334</ele><time>2026-03-29T14:43:52.178Z</time></trkpt><trkpt lat="45.1896427" lon="7.7476567"><ele>231.66666666666669</ele><time>2026-03-29T14:43:53.178Z</time></trkpt><trkpt lat="45.1895761" lon="7.7474608"><ele>231.0</ele><time>2026-03-29T14:43:54.181Z</time></trkpt><trkpt lat="45.1895051" lon="7.7472616"><ele>231.0</ele><time>2026-03-29T14:43:55.181Z</time></trkpt><trkpt lat="45.1894323" lon="7.7470633"><ele>231.0</ele><time>2026-03-29T14:43:56.183Z</time></trkpt><trkpt lat="45.1893576" lon="7.7468687"><ele>231.0</ele><time>2026-03-29T14:43:57.182Z</time></trkpt><trkpt lat="45.1892832" lon="7.7466832"><ele>231.0</ele><time>2026-03-29T14:43:58.214Z</time></trkpt><trkpt lat="45.1892101" lon="7.7465005"><ele>231.0</ele><time>2026-03-29T14:43:59.178Z</time></trkpt><trkpt lat="45.1891369" lon="7.7463198"><ele>231.0</ele><time>2026-03-29T14:44:00.184Z</time></trkpt><trkpt lat="45.1890656" lon="7.7461418"><ele>231.0</ele><time>2026-03-29T14:44:01.178Z</time></trkpt><trkpt lat="45.1889934" lon="7.7459605"><ele>231.66666666666669</ele><time>2026-03-29T14:44:02.178Z</time></trkpt><trkpt lat="45.1889197" lon="7.7457766"><ele>232.33333333333334</ele><time>2026-03-29T14:44:03.177Z</time></trkpt><trkpt lat="45.1888456" lon="7.7455893"><ele>233.0</ele><time>2026-03-29T14:44:04.185Z</time></trkpt><trkpt lat="45.1887717" lon="7.7454014"><ele>233.0</ele><time>2026-03-29T14:44:05.185Z</time></trkpt><trkpt lat="45.1886973" lon="7.7452123"><ele>233.0</ele><time>2026-03-29T14:44:06.182Z</time></trkpt><trkpt lat="45.1886225" lon="7.7450217"><ele>233.0</ele><time>2026-03-29T14:44:07.179Z</time></trkpt><trkpt lat="45.1885452" lon="7.7448287"><ele>233.0</ele><time>2026-03-29T14:44:08.182Z</time></trkpt><trkpt lat="45.1884675" lon="7.7446338"><ele>233.0</ele><time>2026-03-29T14:44:09.181Z</time></trkpt><trkpt lat="45.1883872" lon="7.744438"><ele>233.0</ele><time>2026-03-29T14:44:10.181Z</time></trkpt><trkpt lat="45.1883068" lon="7.7442385"><ele>233.33333333333334</ele><time>2026-03-29T14:44:11.212Z</time></trkpt><trkpt lat="45.1882269" lon="7.7440378"><ele>233.66666666666669</ele><time>2026-03-29T14:44:12.179Z</time></trkpt><trkpt lat="45.188147" lon="7.743829"><ele>234.0</ele><time>2026-03-29T14:44:13.178Z</time></trkpt><trkpt lat="45.1880602" lon="7.7436121"><ele>233.33333333333331</ele><time>2026-03-29T14:44:14.235Z</time></trkpt><trkpt lat="45.1879703" lon="7.7433876"><ele>232.66666666666666</ele><time>2026-03-29T14:44:15.178Z</time></trkpt><trkpt lat="45.1878778" lon="7.7431587"><ele>232.0</ele><time>2026-03-29T14:44:16.184Z</time></trkpt><trkpt lat="45.1877861" lon="7.7429308"><ele>232.0</ele><time>2026-03-29T14:44:17.184Z</time></trkpt><trkpt lat="45.1876955" lon="7.7427032"><ele>232.0</ele><time>2026-03-29T14:44:18.182Z</time></trkpt><trkpt lat="45.187607" lon="7.7424785"><ele>232.0</ele><time>2026-03-29T14:44:19.181Z</time></trkpt><trkpt lat="45.1875142" lon="7.7422492"><ele>232.0</ele><time>2026-03-29T14:44:20.181Z</time></trkpt><trkpt lat="45.1874236" lon="7.7420215"><ele>232.0</ele><time>2026-03-29T14:44:21.177Z</time></trkpt><trkpt lat="45.1873346" lon="7.741792"><ele>232.0</ele><time>2026-03-29T14:44:22.184Z</time></trkpt><trkpt lat="45.1872544" lon="7.7415608"><ele>233.0</ele><time>2026-03-29T14:44:23.182Z</time></trkpt><trkpt lat="45.1871799" lon="7.741322"><ele>234.0</ele><time>2026-03-29T14:44:24.176Z</time></trkpt><trkpt lat="45.1871181" lon="7.7410772"><ele>235.0</ele><time>2026-03-29T14:44:25.179Z</time></trkpt><trkpt lat="45.1870662" lon="7.7408288"><ele>235.66666666666666</ele><time>2026-03-29T14:44:26.183Z</time></trkpt><trkpt lat="45.1870187" lon="7.7405801"><ele>236.33333333333331</ele><time>2026-03-29T14:44:27.179Z</time></trkpt><trkpt lat="45.1869741" lon="7.7403317"><ele>237.0</ele><time>2026-03-29T14:44:28.185Z</time></trkpt><trkpt lat="45.1869254" lon="7.7400793"><ele>237.0</ele><time>2026-03-29T14:44:29.18Z</time></trkpt><trkpt lat="45.1868787" lon="7.73983"><ele>237.0</ele><time>2026-03-29T14:44:30.188Z</time></trkpt><trkpt lat="45.1868305" lon="7.7395815"><ele>237.0</ele><time>2026-03-29T14:44:31.176Z</time></trkpt><trkpt lat="45.1867823" lon="7.7393314"><ele>236.66666666666669</ele><time>2026-03-29T14:44:32.186Z</time></trkpt><trkpt lat="45.1867325" lon="7.7390815"><ele>236.33333333333334</ele><time>2026-03-29T14:44:33.178Z</time></trkpt><trkpt lat="45.1866798" lon="7.7388351"><ele>236.0</ele><time>2026-03-29T14:44:34.183Z</time></trkpt><trkpt lat="45.1866226" lon="7.7385935"><ele>235.66666666666669</ele><time>2026-03-29T14:44:35.189Z</time></trkpt><trkpt lat="45.1865603" lon="7.7383519"><ele>235.33333333333331</ele><time>2026-03-29T14:44:36.181Z</time></trkpt><trkpt lat="45.1864958" lon="7.7381053"><ele>235.0</ele><time>2026-03-29T14:44:37.179Z</time></trkpt><trkpt lat="45.1864274" lon="7.7378576"><ele>235.0</ele><time>2026-03-29T14:44:38.248Z</time></trkpt><trkpt lat="45.1863584" lon="7.7376083"><ele>235.0</ele><time>2026-03-29T14:44:39.18Z</time></trkpt><trkpt lat="45.1862902" lon="7.7373582"><ele>235.0</ele><time>2026-03-29T14:44:40.177Z</time></trkpt><trkpt lat="45.1862244" lon="7.7371081"><ele>235.33333333333331</ele><time>2026-03-29T14:44:41.181Z</time></trkpt><trkpt lat="45.186158" lon="7.7368616"><ele>235.66666666666669</ele><time>2026-03-29T14:44:42.183Z</time></trkpt><trkpt lat="45.1860889" lon="7.736612"><ele>236.0</ele><time>2026-03-29T14:44:43.181Z</time></trkpt><trkpt lat="45.186021" lon="7.7363651"><ele>236.0</ele><time>2026-03-29T14:44:44.178Z</time></trkpt><trkpt lat="45.185958" lon="7.7361234"><ele>236.0</ele><time>2026-03-29T14:44:45.185Z</time></trkpt><trkpt lat="45.1858945" lon="7.7358853"><ele>236.0</ele><time>2026-03-29T14:44:46.181Z</time></trkpt><trkpt lat="45.1858281" lon="7.7356486"><ele>236.33333333333334</ele><time>2026-03-29T14:44:47.179Z</time></trkpt><trkpt lat="45.1857562" lon="7.7354198"><ele>236.66666666666669</ele><time>2026-03-29T14:44:48.182Z</time></trkpt><trkpt lat="45.1856853" lon="7.7351894"><ele>237.0</ele><time>2026-03-29T14:44:49.192Z</time></trkpt><trkpt lat="45.1856178" lon="7.7349584"><ele>237.0</ele><time>2026-03-29T14:44:50.182Z</time></trkpt><trkpt lat="45.1855527" lon="7.734733"><ele>237.0</ele><time>2026-03-29T14:44:51.181Z</time></trkpt><trkpt lat="45.1854895" lon="7.7345202"><ele>237.0</ele><time>2026-03-29T14:44:52.179Z</time></trkpt><trkpt lat="45.1854307" lon="7.7343188"><ele>237.75</ele><time>2026-03-29T14:44:53.184Z</time></trkpt><trkpt lat="45.1853807" lon="7.7341263"><ele>238.5</ele><time>2026-03-29T14:44:54.211Z</time></trkpt><trkpt lat="45.1853368" lon="7.7339427"><ele>239.25</ele><time>2026-03-29T14:44:55.178Z</time></trkpt><trkpt lat="45.1852895" lon="7.7337769"><ele>240.0</ele><time>2026-03-29T14:44:56.178Z</time></trkpt><trkpt lat="45.1852484" lon="7.7336366"><ele>240.0</ele><time>2026-03-29T14:44:57.178Z</time></trkpt><trkpt lat="45.1852066" lon="7.7335076"><ele>240.0</ele><time>2026-03-29T14:44:58.181Z</time></trkpt><trkpt lat="45.1851712" lon="7.7333864"><ele>240.0</ele><time>2026-03-29T14:44:59.188Z</time></trkpt><trkpt lat="45.1851447" lon="7.7332743"><ele>240.0</ele><time>2026-03-29T14:45:00.177Z</time></trkpt><trkpt lat="45.1851225" lon="7.7331719"><ele>240.0</ele><time>2026-03-29T14:45:01.196Z</time></trkpt><trkpt lat="45.1851287" lon="7.7329984"><ele>240.0</ele><time>2026-03-29T14:45:03.177Z</time></trkpt><trkpt lat="45.1851603" lon="7.7329202"><ele>240.0</ele><time>2026-03-29T14:45:04.184Z</time></trkpt><trkpt lat="45.1852159" lon="7.7328427"><ele>240.0</ele><time>2026-03-29T14:45:05.177Z</time></trkpt><trkpt lat="45.1852837" lon="7.7327618"><ele>240.0</ele><time>2026-03-29T14:45:06.179Z</time></trkpt><trkpt lat="45.1853413" lon="7.7326775"><ele>240.0</ele><time>2026-03-29T14:45:07.175Z</time></trkpt><trkpt lat="45.185375" lon="7.7325844"><ele>240.0</ele><time>2026-03-29T14:45:08.182Z</time></trkpt><trkpt lat="45.1853695" lon="7.7324919"><ele>239.66666666666666</ele><time>2026-03-29T14:45:09.182Z</time></trkpt><trkpt lat="45.1853278" lon="7.7324181"><ele>239.33333333333331</ele><time>2026-03-29T14:45:10.175Z</time></trkpt><trkpt lat="45.1852585" lon="7.7323651"><ele>239.0</ele><time>2026-03-29T14:45:11.178Z</time></trkpt><trkpt lat="45.1851742" lon="7.7323348"><ele>238.66666666666666</ele><time>2026-03-29T14:45:12.18Z</time></trkpt><trkpt lat="45.1850829" lon="7.7323125"><ele>238.33333333333331</ele><time>2026-03-29T14:45:13.178Z</time></trkpt><trkpt lat="45.1850011" lon="7.7322691"><ele>238.0</ele><time>2026-03-29T14:45:14.214Z</time></trkpt><trkpt lat="45.1849322" lon="7.7321926"><ele>238.0</ele><time>2026-03-29T14:45:15.178Z</time></trkpt><trkpt lat="45.1848738" lon="7.732085"><ele>238.0</ele><time>2026-03-29T14:45:16.177Z</time></trkpt><trkpt lat="45.184828" lon="7.7319547"><ele>238.0</ele><time>2026-03-29T14:45:17.188Z</time></trkpt><trkpt lat="45.1847937" lon="7.7318023"><ele>238.0</ele><time>2026-03-29T14:45:18.175Z</time></trkpt><trkpt lat="45.1847709" lon="7.7316316"><ele>238.0</ele><time>2026-03-29T14:45:19.183Z</time></trkpt><trkpt lat="45.1847584" lon="7.731444"><ele>238.66666666666666</ele><time>2026-03-29T14:45:20.186Z</time></trkpt><trkpt lat="45.1847585" lon="7.7312465"><ele>239.33333333333331</ele><time>2026-03-29T14:45:21.18Z</time></trkpt><trkpt lat="45.1847598" lon="7.7310265"><ele>240.0</ele><time>2026-03-29T14:45:22.176Z</time></trkpt><trkpt lat="45.1847668" lon="7.7307893"><ele>240.0</ele><time>2026-03-29T14:45:23.184Z</time></trkpt><trkpt lat="45.1847727" lon="7.7305373"><ele>240.0</ele><time>2026-03-29T14:45:24.181Z</time></trkpt><trkpt lat="45.1847774" lon="7.7302698"><ele>240.0</ele><time>2026-03-29T14:45:25.18Z</time></trkpt><trkpt lat="45.1847797" lon="7.7299877"><ele>240.33333333333331</ele><time>2026-03-29T14:45:26.184Z</time></trkpt><trkpt lat="45.1847842" lon="7.7297001"><ele>240.66666666666666</ele><time>2026-03-29T14:45:27.181Z</time></trkpt><trkpt lat="45.1847831" lon="7.7294225"><ele>241.0</ele><time>2026-03-29T14:45:28.18Z</time></trkpt><trkpt lat="45.1847847" lon="7.7291611"><ele>241.0</ele><time>2026-03-29T14:45:29.2Z</time></trkpt><trkpt lat="45.1847832" lon="7.7289233"><ele>241.0</ele><time>2026-03-29T14:45:30.179Z</time></trkpt><trkpt lat="45.1847792" lon="7.7287141"><ele>241.0</ele><time>2026-03-29T14:45:31.18Z</time></trkpt><trkpt lat="45.1847738" lon="7.7285243"><ele>241.0</ele><time>2026-03-29T14:45:32.184Z</time></trkpt><trkpt lat="45.1847749" lon="7.7283511"><ele>241.0</ele><time>2026-03-29T14:45:33.18Z</time></trkpt><trkpt lat="45.1847926" lon="7.7281807"><ele>241.0</ele><time>2026-03-29T14:45:34.18Z</time></trkpt><trkpt lat="45.1847955" lon="7.7280117"><ele>241.0</ele><time>2026-03-29T14:45:35.179Z</time></trkpt><trkpt lat="45.1848025" lon="7.7278466"><ele>241.0</ele><time>2026-03-29T14:45:36.182Z</time></trkpt><trkpt lat="45.1848056" lon="7.7276843"><ele>241.20000000000002</ele><time>2026-03-29T14:45:37.189Z</time></trkpt><trkpt lat="45.1848028" lon="7.7275298"><ele>241.40000000000003</ele><time>2026-03-29T14:45:38.176Z</time></trkpt><trkpt lat="45.1847982" lon="7.7273841"><ele>241.6</ele><time>2026-03-29T14:45:39.181Z</time></trkpt><trkpt lat="45.1847926" lon="7.7272516"><ele>241.8</ele><time>2026-03-29T14:45:40.18Z</time></trkpt><trkpt lat="45.1847907" lon="7.7271276"><ele>242.0</ele><time>2026-03-29T14:45:41.177Z</time></trkpt><trkpt lat="45.1847862" lon="7.727005"><ele>242.0</ele><time>2026-03-29T14:45:42.179Z</time></trkpt><trkpt lat="45.1847831" lon="7.7268788"><ele>242.0</ele><time>2026-03-29T14:45:43.183Z</time></trkpt><trkpt lat="45.1847779" lon="7.7267477"><ele>242.0</ele><time>2026-03-29T14:45:44.19Z</time></trkpt><trkpt lat="45.1847746" lon="7.7266113"><ele>242.0</ele><time>2026-03-29T14:45:45.181Z</time></trkpt><trkpt lat="45.1847747" lon="7.7264686"><ele>242.0</ele><time>2026-03-29T14:45:46.186Z</time></trkpt><trkpt lat="45.1847762" lon="7.7263233"><ele>242.0</ele><time>2026-03-29T14:45:47.184Z</time></trkpt><trkpt lat="45.1847811" lon="7.7261767"><ele>242.0</ele><time>2026-03-29T14:45:48.18Z</time></trkpt><trkpt lat="45.184787" lon="7.7260315"><ele>242.0</ele><time>2026-03-29T14:45:49.18Z</time></trkpt><trkpt lat="45.1847934" lon="7.7258881"><ele>242.0</ele><time>2026-03-29T14:45:50.176Z</time></trkpt><trkpt lat="45.1847976" lon="7.7257515"><ele>242.0</ele><time>2026-03-29T14:45:51.183Z</time></trkpt><trkpt lat="45.1847998" lon="7.7256291"><ele>241.83333333333334</ele><time>2026-03-29T14:45:52.215Z</time></trkpt><trkpt lat="45.1847971" lon="7.7255139"><ele>241.66666666666669</ele><time>2026-03-29T14:45:53.182Z</time></trkpt><trkpt lat="45.1848042" lon="7.725398"><ele>241.5</ele><time>2026-03-29T14:45:54.181Z</time></trkpt><trkpt lat="45.1848045" lon="7.7252837"><ele>241.33333333333331</ele><time>2026-03-29T14:45:55.181Z</time></trkpt><trkpt lat="45.1848091" lon="7.7251807"><ele>241.16666666666666</ele><time>2026-03-29T14:45:56.183Z</time></trkpt><trkpt lat="45.1848093" lon="7.7250877"><ele>241.0</ele><time>2026-03-29T14:45:57.184Z</time></trkpt><trkpt lat="45.1848041" lon="7.7249241"><ele>241.0</ele><time>2026-03-29T14:45:59.182Z</time></trkpt><trkpt lat="45.1848094" lon="7.7247635"><ele>241.00000000000003</ele><time>2026-03-29T14:46:01.206Z</time></trkpt><trkpt lat="45.1848054" lon="7.7246142"><ele>241.00000000000003</ele><time>2026-03-29T14:46:03.19Z</time></trkpt><trkpt lat="45.1848049" lon="7.7245153"><ele>241.0</ele><time>2026-03-29T14:46:05.175Z</time></trkpt><trkpt lat="45.1848203" lon="7.7244205"><ele>241.0</ele><time>2026-03-29T14:46:11.184Z</time></trkpt><trkpt lat="45.1848169" lon="7.7242474"><ele>240.99999999999997</ele><time>2026-03-29T14:46:13.178Z</time></trkpt><trkpt lat="45.1848157" lon="7.7241454"><ele>241.0</ele><time>2026-03-29T14:46:14.177Z</time></trkpt><trkpt lat="45.1848132" lon="7.724025"><ele>241.0</ele><time>2026-03-29T14:46:15.187Z</time></trkpt><trkpt lat="45.1848114" lon="7.7239026"><ele>241.0</ele><time>2026-03-29T14:46:16.184Z</time></trkpt><trkpt lat="45.1848185" lon="7.723778"><ele>240.99999999999997</ele><time>2026-03-29T14:46:17.181Z</time></trkpt><trkpt lat="45.1848327" lon="7.7236488"><ele>241.0</ele><time>2026-03-29T14:46:18.198Z</time></trkpt><trkpt lat="45.1848463" lon="7.7235065"><ele>241.75</ele><time>2026-03-29T14:46:19.187Z</time></trkpt><trkpt lat="45.1848545" lon="7.7233408"><ele>242.5</ele><time>2026-03-29T14:46:20.18Z</time></trkpt><trkpt lat="45.1848564" lon="7.7231527"><ele>243.25</ele><time>2026-03-29T14:46:21.181Z</time></trkpt><trkpt lat="45.1848575" lon="7.7229529"><ele>244.0</ele><time>2026-03-29T14:46:22.179Z</time></trkpt><trkpt lat="45.1848589" lon="7.722745"><ele>243.5</ele><time>2026-03-29T14:46:23.192Z</time></trkpt><trkpt lat="45.1848615" lon="7.7225355"><ele>243.0</ele><time>2026-03-29T14:46:24.176Z</time></trkpt><trkpt lat="45.184866" lon="7.7223336"><ele>242.5</ele><time>2026-03-29T14:46:25.184Z</time></trkpt><trkpt lat="45.1848716" lon="7.722146"><ele>242.0</ele><time>2026-03-29T14:46:26.186Z</time></trkpt><trkpt lat="45.184873" lon="7.7219729"><ele>242.0</ele><time>2026-03-29T14:46:27.183Z</time></trkpt><trkpt lat="45.1848734" lon="7.721805"><ele>242.0</ele><time>2026-03-29T14:46:28.183Z</time></trkpt><trkpt lat="45.1848733" lon="7.7216401"><ele>242.0</ele><time>2026-03-29T14:46:29.194Z</time></trkpt><trkpt lat="45.1848758" lon="7.7214836"><ele>242.0</ele><time>2026-03-29T14:46:30.181Z</time></trkpt><trkpt lat="45.1848742" lon="7.7213413"><ele>242.0</ele><time>2026-03-29T14:46:31.182Z</time></trkpt><trkpt lat="45.1848687" lon="7.7212108"><ele>242.00000000000003</ele><time>2026-03-29T14:46:32.178Z</time></trkpt><trkpt lat="45.1848705" lon="7.721085"><ele>242.0</ele><time>2026-03-29T14:46:33.179Z</time></trkpt><trkpt lat="45.1848698" lon="7.720966"><ele>242.0</ele><time>2026-03-29T14:46:34.181Z</time></trkpt><trkpt lat="45.1848713" lon="7.7208554"><ele>242.0</ele><time>2026-03-29T14:46:35.183Z</time></trkpt><trkpt lat="45.1848708" lon="7.720755"><ele>242.00000000000003</ele><time>2026-03-29T14:46:36.179Z</time></trkpt><trkpt lat="45.1848753" lon="7.7205943"><ele>242.0</ele><time>2026-03-29T14:46:38.181Z</time></trkpt><trkpt lat="45.1848948" lon="7.7204597"><ele>243.0</ele><time>2026-03-29T14:46:40.186Z</time></trkpt><trkpt lat="45.1849505" lon="7.7203354"><ele>244.0</ele><time>2026-03-29T14:46:42.182Z</time></trkpt><trkpt lat="45.1850175" lon="7.7201944"><ele>245.0</ele><time>2026-03-29T14:46:44.19Z</time></trkpt><trkpt lat="45.1850036" lon="7.7200384"><ele>246.0</ele><time>2026-03-29T14:46:46.179Z</time></trkpt><trkpt lat="45.1849101" lon="7.7199354"><ele>246.0</ele><time>2026-03-29T14:46:48.184Z</time></trkpt><trkpt lat="45.1848422" lon="7.7199204"><ele>246.0</ele><time>2026-03-29T14:46:49.176Z</time></trkpt><trkpt lat="45.1847733" lon="7.7199382"><ele>246.0</ele><time>2026-03-29T14:46:50.182Z</time></trkpt><trkpt lat="45.1846993" lon="7.7199832"><ele>246.0</ele><time>2026-03-29T14:46:51.175Z</time></trkpt><trkpt lat="45.1846273" lon="7.7200395"><ele>246.0</ele><time>2026-03-29T14:46:52.177Z</time></trkpt><trkpt lat="45.1845538" lon="7.7200724"><ele>246.0</ele><time>2026-03-29T14:46:53.181Z</time></trkpt><trkpt lat="45.1844183" lon="7.7200706"><ele>246.0</ele><time>2026-03-29T14:46:55.195Z</time></trkpt><trkpt lat="45.1843446" lon="7.7200545"><ele>246.0</ele><time>2026-03-29T14:46:56.178Z</time></trkpt><trkpt lat="45.1842653" lon="7.7200385"><ele>246.0</ele><time>2026-03-29T14:46:57.185Z</time></trkpt><trkpt lat="45.1841723" lon="7.7200304"><ele>246.0</ele><time>2026-03-29T14:46:58.178Z</time></trkpt><trkpt lat="45.1840747" lon="7.7200167"><ele>246.0</ele><time>2026-03-29T14:46:59.178Z</time></trkpt><trkpt lat="45.1839735" lon="7.7200087"><ele>246.0</ele><time>2026-03-29T14:47:00.183Z</time></trkpt><trkpt lat="45.1838632" lon="7.7199868"><ele>245.8</ele><time>2026-03-29T14:47:01.176Z</time></trkpt><trkpt lat="45.1837519" lon="7.7199547"><ele>245.60000000000002</ele><time>2026-03-29T14:47:02.186Z</time></trkpt><trkpt lat="45.1836493" lon="7.7199138"><ele>245.4</ele><time>2026-03-29T14:47:03.186Z</time></trkpt><trkpt lat="45.1835512" lon="7.7198552"><ele>245.2</ele><time>2026-03-29T14:47:04.178Z</time></trkpt><trkpt lat="45.1834663" lon="7.7198086"><ele>245.0</ele><time>2026-03-29T14:47:05.181Z</time></trkpt><trkpt lat="45.183385" lon="7.7197667"><ele>245.0</ele><time>2026-03-29T14:47:06.183Z</time></trkpt><trkpt lat="45.1833025" lon="7.7197168"><ele>245.0</ele><time>2026-03-29T14:47:07.178Z</time></trkpt><trkpt lat="45.1832136" lon="7.7196647"><ele>245.0</ele><time>2026-03-29T14:47:08.182Z</time></trkpt><trkpt lat="45.1831161" lon="7.7196107"><ele>245.0</ele><time>2026-03-29T14:47:09.177Z</time></trkpt><trkpt lat="45.1830082" lon="7.7195487"><ele>245.0</ele><time>2026-03-29T14:47:10.185Z</time></trkpt><trkpt lat="45.1828934" lon="7.7194888"><ele>245.33333333333334</ele><time>2026-03-29T14:47:11.185Z</time></trkpt><trkpt lat="45.1827604" lon="7.7194223"><ele>245.66666666666669</ele><time>2026-03-29T14:47:12.192Z</time></trkpt><trkpt lat="45.1826133" lon="7.7193459"><ele>246.0</ele><time>2026-03-29T14:47:13.182Z</time></trkpt><trkpt lat="45.1824587" lon="7.7192606"><ele>245.75</ele><time>2026-03-29T14:47:14.184Z</time></trkpt><trkpt lat="45.1823069" lon="7.7191726"><ele>245.5</ele><time>2026-03-29T14:47:15.182Z</time></trkpt><trkpt lat="45.1821693" lon="7.7190888"><ele>245.25</ele><time>2026-03-29T14:47:16.184Z</time></trkpt><trkpt lat="45.1820493" lon="7.7190137"><ele>245.0</ele><time>2026-03-29T14:47:17.188Z</time></trkpt><trkpt lat="45.1819412" lon="7.718948"><ele>245.0</ele><time>2026-03-29T14:47:18.181Z</time></trkpt><trkpt lat="45.1818442" lon="7.7188916"><ele>245.0</ele><time>2026-03-29T14:47:19.175Z</time></trkpt><trkpt lat="45.181747" lon="7.7188413"><ele>245.0</ele><time>2026-03-29T14:47:20.18Z</time></trkpt><trkpt lat="45.1816574" lon="7.7187936"><ele>245.0</ele><time>2026-03-29T14:47:21.182Z</time></trkpt><trkpt lat="45.181576" lon="7.7187488"><ele>245.0</ele><time>2026-03-29T14:47:22.187Z</time></trkpt><trkpt lat="45.1815001" lon="7.71871"><ele>245.0</ele><time>2026-03-29T14:47:23.189Z</time></trkpt><trkpt lat="45.1814368" lon="7.7186763"><ele>245.0</ele><time>2026-03-29T14:47:24.175Z</time></trkpt><trkpt lat="45.1813527" lon="7.7186399"><ele>245.0</ele><time>2026-03-29T14:47:26.178Z</time></trkpt><trkpt lat="45.1812605" lon="7.7186005"><ele>245.0</ele><time>2026-03-29T14:47:29.179Z</time></trkpt><trkpt lat="45.1811926" lon="7.718522"><ele>245.0</ele><time>2026-03-29T14:47:31.18Z</time></trkpt><trkpt lat="45.1811005" lon="7.7184235"><ele>245.00000000000003</ele><time>2026-03-29T14:47:33.183Z</time></trkpt><trkpt lat="45.1810431" lon="7.7183753"><ele>245.0</ele><time>2026-03-29T14:47:34.189Z</time></trkpt><trkpt lat="45.1809824" lon="7.7183226"><ele>245.0</ele><time>2026-03-29T14:47:35.179Z</time></trkpt><trkpt lat="45.1809185" lon="7.718261"><ele>245.0</ele><time>2026-03-29T14:47:36.188Z</time></trkpt><trkpt lat="45.1808533" lon="7.718188"><ele>245.00000000000003</ele><time>2026-03-29T14:47:37.194Z</time></trkpt><trkpt lat="45.180786" lon="7.7181014"><ele>245.0</ele><time>2026-03-29T14:47:38.189Z</time></trkpt><trkpt lat="45.1807157" lon="7.7180007"><ele>244.6</ele><time>2026-03-29T14:47:39.179Z</time></trkpt><trkpt lat="45.1806455" lon="7.7178938"><ele>244.2</ele><time>2026-03-29T14:47:40.217Z</time></trkpt><trkpt lat="45.1805737" lon="7.7177949"><ele>243.8</ele><time>2026-03-29T14:47:41.183Z</time></trkpt><trkpt lat="45.1805022" lon="7.7176972"><ele>243.4</ele><time>2026-03-29T14:47:42.191Z</time></trkpt><trkpt lat="45.1804377" lon="7.7175991"><ele>243.0</ele><time>2026-03-29T14:47:43.185Z</time></trkpt><trkpt lat="45.1803743" lon="7.7174908"><ele>243.0</ele><time>2026-03-29T14:47:44.178Z</time></trkpt><trkpt lat="45.1803112" lon="7.7173647"><ele>243.0</ele><time>2026-03-29T14:47:45.187Z</time></trkpt><trkpt lat="45.1802576" lon="7.717236"><ele>243.0</ele><time>2026-03-29T14:47:46.187Z</time></trkpt><trkpt lat="45.1802067" lon="7.7171057"><ele>243.0</ele><time>2026-03-29T14:47:47.179Z</time></trkpt><trkpt lat="45.1801591" lon="7.7169704"><ele>243.0</ele><time>2026-03-29T14:47:48.217Z</time></trkpt><trkpt lat="45.1801173" lon="7.7168359"><ele>243.4</ele><time>2026-03-29T14:47:49.184Z</time></trkpt><trkpt lat="45.1800745" lon="7.7166979"><ele>243.8</ele><time>2026-03-29T14:47:50.181Z</time></trkpt><trkpt lat="45.1800372" lon="7.7165641"><ele>244.2</ele><time>2026-03-29T14:47:51.184Z</time></trkpt><trkpt lat="45.1800084" lon="7.7164388"><ele>244.6</ele><time>2026-03-29T14:47:52.183Z</time></trkpt><trkpt lat="45.1799784" lon="7.7163188"><ele>245.0</ele><time>2026-03-29T14:47:53.18Z</time></trkpt><trkpt lat="45.1799497" lon="7.7162001"><ele>245.00000000000003</ele><time>2026-03-29T14:47:54.179Z</time></trkpt><trkpt lat="45.1799202" lon="7.7160805"><ele>245.0</ele><time>2026-03-29T14:47:55.189Z</time></trkpt><trkpt lat="45.1798881" lon="7.7159624"><ele>245.0</ele><time>2026-03-29T14:47:56.186Z</time></trkpt><trkpt lat="45.1798598" lon="7.7158569"><ele>245.0</ele><time>2026-03-29T14:47:57.211Z</time></trkpt><trkpt lat="45.1798354" lon="7.715763"><ele>245.00000000000003</ele><time>2026-03-29T14:47:58.189Z</time></trkpt><trkpt lat="45.1798078" lon="7.715616"><ele>245.0</ele><time>2026-03-29T14:48:00.179Z</time></trkpt><trkpt lat="45.179793" lon="7.7155093"><ele>245.16666666666669</ele><time>2026-03-29T14:48:03.182Z</time></trkpt><trkpt lat="45.179788" lon="7.7154155"><ele>245.33333333333334</ele><time>2026-03-29T14:48:05.185Z</time></trkpt><trkpt lat="45.1798076" lon="7.7152624"><ele>245.5</ele><time>2026-03-29T14:48:07.182Z</time></trkpt><trkpt lat="45.179812" lon="7.7151732"><ele>245.66666666666669</ele><time>2026-03-29T14:48:08.179Z</time></trkpt><trkpt lat="45.1797609" lon="7.7150185"><ele>245.83333333333334</ele><time>2026-03-29T14:48:10.198Z</time></trkpt><trkpt lat="45.1796914" lon="7.7149742"><ele>246.0</ele><time>2026-03-29T14:48:11.178Z</time></trkpt><trkpt lat="45.179601" lon="7.7149632"><ele>246.0</ele><time>2026-03-29T14:48:12.186Z</time></trkpt><trkpt lat="45.1794932" lon="7.714969"><ele>246.0</ele><time>2026-03-29T14:48:13.207Z</time></trkpt><trkpt lat="45.1793711" lon="7.7149637"><ele>246.0</ele><time>2026-03-29T14:48:14.177Z</time></trkpt><trkpt lat="45.1792383" lon="7.7149366"><ele>246.0</ele><time>2026-03-29T14:48:15.179Z</time></trkpt><trkpt lat="45.1790942" lon="7.7148895"><ele>246.0</ele><time>2026-03-29T14:48:16.189Z</time></trkpt><trkpt lat="45.1789321" lon="7.7148369"><ele>246.0</ele><time>2026-03-29T14:48:17.199Z</time></trkpt><trkpt lat="45.1787681" lon="7.7147865"><ele>246.0</ele><time>2026-03-29T14:48:18.176Z</time></trkpt><trkpt lat="45.1786051" lon="7.7147468"><ele>246.0</ele><time>2026-03-29T14:48:19.19Z</time></trkpt><trkpt lat="45.1784415" lon="7.7147103"><ele>246.0</ele><time>2026-03-29T14:48:20.177Z</time></trkpt><trkpt lat="45.1782724" lon="7.7146673"><ele>246.0</ele><time>2026-03-29T14:48:21.18Z</time></trkpt><trkpt lat="45.1781018" lon="7.7146185"><ele>245.66666666666669</ele><time>2026-03-29T14:48:22.183Z</time></trkpt><trkpt lat="45.1779401" lon="7.7145774"><ele>245.33333333333334</ele><time>2026-03-29T14:48:23.179Z</time></trkpt><trkpt lat="45.1777902" lon="7.714535"><ele>245.0</ele><time>2026-03-29T14:48:24.196Z</time></trkpt><trkpt lat="45.1776227" lon="7.7144916"><ele>245.0</ele><time>2026-03-29T14:48:25.18Z</time></trkpt><trkpt lat="45.1774528" lon="7.714452"><ele>245.0</ele><time>2026-03-29T14:48:26.211Z</time></trkpt><trkpt lat="45.177278" lon="7.7144169"><ele>245.0</ele><time>2026-03-29T14:48:27.185Z</time></trkpt><trkpt lat="45.1770962" lon="7.7143809"><ele>245.0</ele><time>2026-03-29T14:48:28.179Z</time></trkpt><trkpt lat="45.1769147" lon="7.7143437"><ele>245.0</ele><time>2026-03-29T14:48:29.176Z</time></trkpt><trkpt lat="45.1767364" lon="7.7143063"><ele>245.0</ele><time>2026-03-29T14:48:30.177Z</time></trkpt><trkpt lat="45.1765612" lon="7.7142676"><ele>245.0</ele><time>2026-03-29T14:48:31.216Z</time></trkpt><trkpt lat="45.1763978" lon="7.7142213"><ele>245.0</ele><time>2026-03-29T14:48:32.179Z</time></trkpt><trkpt lat="45.1762368" lon="7.7141771"><ele>245.0</ele><time>2026-03-29T14:48:33.206Z</time></trkpt><trkpt lat="45.1760818" lon="7.7141444"><ele>245.0</ele><time>2026-03-29T14:48:34.178Z</time></trkpt><trkpt lat="45.1759251" lon="7.7141082"><ele>245.0</ele><time>2026-03-29T14:48:35.185Z</time></trkpt><trkpt lat="45.1757696" lon="7.714079"><ele>245.0</ele><time>2026-03-29T14:48:36.177Z</time></trkpt><trkpt lat="45.1756109" lon="7.7140476"><ele>245.66666666666669</ele><time>2026-03-29T14:48:37.178Z</time></trkpt><trkpt lat="45.1754484" lon="7.7140144"><ele>246.33333333333331</ele><time>2026-03-29T14:48:38.178Z</time></trkpt><trkpt lat="45.1752893" lon="7.7139773"><ele>247.0</ele><time>2026-03-29T14:48:39.184Z</time></trkpt><trkpt lat="45.1751331" lon="7.713937"><ele>247.0</ele><time>2026-03-29T14:48:40.185Z</time></trkpt><trkpt lat="45.1749859" lon="7.7139007"><ele>247.0</ele><time>2026-03-29T14:48:41.194Z</time></trkpt><trkpt lat="45.1748476" lon="7.7138732"><ele>247.0</ele><time>2026-03-29T14:48:42.181Z</time></trkpt><trkpt lat="45.1747184" lon="7.713847"><ele>247.0</ele><time>2026-03-29T14:48:43.185Z</time></trkpt><trkpt lat="45.1745902" lon="7.7138125"><ele>246.5</ele><time>2026-03-29T14:48:44.183Z</time></trkpt><trkpt lat="45.1744656" lon="7.7137759"><ele>246.0</ele><time>2026-03-29T14:48:45.181Z</time></trkpt><trkpt lat="45.1743454" lon="7.7137448"><ele>245.5</ele><time>2026-03-29T14:48:46.191Z</time></trkpt><trkpt lat="45.1742265" lon="7.7137156"><ele>245.0</ele><time>2026-03-29T14:48:47.194Z</time></trkpt><trkpt lat="45.1741082" lon="7.7136843"><ele>245.0</ele><time>2026-03-29T14:48:48.187Z</time></trkpt><trkpt lat="45.1739907" lon="7.7136558"><ele>245.0</ele><time>2026-03-29T14:48:49.178Z</time></trkpt><trkpt lat="45.1738736" lon="7.7136307"><ele>245.0</ele><time>2026-03-29T14:48:50.213Z</time></trkpt><trkpt lat="45.1737671" lon="7.7136103"><ele>245.0</ele><time>2026-03-29T14:48:51.177Z</time></trkpt><trkpt lat="45.1736581" lon="7.7135854"><ele>245.25</ele><time>2026-03-29T14:48:52.186Z</time></trkpt><trkpt lat="45.1735478" lon="7.7135579"><ele>245.5</ele><time>2026-03-29T14:48:53.189Z</time></trkpt><trkpt lat="45.1734354" lon="7.7135284"><ele>245.75</ele><time>2026-03-29T14:48:54.176Z</time></trkpt><trkpt lat="45.1733183" lon="7.7134988"><ele>246.0</ele><time>2026-03-29T14:48:55.177Z</time></trkpt><trkpt lat="45.1731965" lon="7.713469"><ele>245.5</ele><time>2026-03-29T14:48:56.211Z</time></trkpt><trkpt lat="45.1730743" lon="7.7134411"><ele>245.0</ele><time>2026-03-29T14:48:57.18Z</time></trkpt><trkpt lat="45.1729479" lon="7.7134141"><ele>244.5</ele><time>2026-03-29T14:48:58.183Z</time></trkpt><trkpt lat="45.1728195" lon="7.713386"><ele>244.0</ele><time>2026-03-29T14:48:59.18Z</time></trkpt><trkpt lat="45.1726899" lon="7.713356"><ele>244.0</ele><time>2026-03-29T14:49:00.196Z</time></trkpt><trkpt lat="45.1725563" lon="7.7133258"><ele>244.0</ele><time>2026-03-29T14:49:01.187Z</time></trkpt><trkpt lat="45.1724255" lon="7.7132991"><ele>244.0</ele><time>2026-03-29T14:49:02.181Z</time></trkpt><trkpt lat="45.1722969" lon="7.7132729"><ele>244.0</ele><time>2026-03-29T14:49:03.177Z</time></trkpt><trkpt lat="45.1721735" lon="7.7132452"><ele>243.79999999999998</ele><time>2026-03-29T14:49:04.186Z</time></trkpt><trkpt lat="45.1720583" lon="7.7132175"><ele>243.59999999999997</ele><time>2026-03-29T14:49:05.179Z</time></trkpt><trkpt lat="45.1719472" lon="7.7131894"><ele>243.4</ele><time>2026-03-29T14:49:06.187Z</time></trkpt><trkpt lat="45.1718413" lon="7.7131606"><ele>243.2</ele><time>2026-03-29T14:49:07.178Z</time></trkpt><trkpt lat="45.1717413" lon="7.7131337"><ele>243.0</ele><time>2026-03-29T14:49:08.175Z</time></trkpt><trkpt lat="45.171642" lon="7.7131082"><ele>243.0</ele><time>2026-03-29T14:49:09.178Z</time></trkpt><trkpt lat="45.171535" lon="7.7130845"><ele>243.0</ele><time>2026-03-29T14:49:10.179Z</time></trkpt><trkpt lat="45.1714226" lon="7.7130588"><ele>243.0</ele><time>2026-03-29T14:49:11.18Z</time></trkpt><trkpt lat="45.1713034" lon="7.7130297"><ele>243.0</ele><time>2026-03-29T14:49:12.18Z</time></trkpt><trkpt lat="45.1711796" lon="7.7129995"><ele>242.75</ele><time>2026-03-29T14:49:13.188Z</time></trkpt><trkpt lat="45.1710561" lon="7.7129697"><ele>242.5</ele><time>2026-03-29T14:49:14.182Z</time></trkpt><trkpt lat="45.1709342" lon="7.7129386"><ele>242.25</ele><time>2026-03-29T14:49:15.191Z</time></trkpt><trkpt lat="45.1708114" lon="7.7129077"><ele>242.0</ele><time>2026-03-29T14:49:16.182Z</time></trkpt><trkpt lat="45.170689" lon="7.7128805"><ele>242.0</ele><time>2026-03-29T14:49:17.183Z</time></trkpt><trkpt lat="45.1705673" lon="7.7128532"><ele>242.0</ele><time>2026-03-29T14:49:18.184Z</time></trkpt><trkpt lat="45.1704472" lon="7.7128219"><ele>242.0</ele><time>2026-03-29T14:49:19.184Z</time></trkpt><trkpt lat="45.170325" lon="7.7127921"><ele>242.0</ele><time>2026-03-29T14:49:20.182Z</time></trkpt><trkpt lat="45.1702041" lon="7.7127673"><ele>242.0</ele><time>2026-03-29T14:49:21.179Z</time></trkpt><trkpt lat="45.170082" lon="7.712741"><ele>242.0</ele><time>2026-03-29T14:49:22.179Z</time></trkpt><trkpt lat="45.1699579" lon="7.7127122"><ele>242.0</ele><time>2026-03-29T14:49:23.188Z</time></trkpt><trkpt lat="45.1698342" lon="7.7126844"><ele>242.0</ele><time>2026-03-29T14:49:24.18Z</time></trkpt><trkpt lat="45.1697123" lon="7.712658"><ele>242.39999999999998</ele><time>2026-03-29T14:49:25.182Z</time></trkpt><trkpt lat="45.1695957" lon="7.7126346"><ele>242.79999999999998</ele><time>2026-03-29T14:49:26.177Z</time></trkpt><trkpt lat="45.1694846" lon="7.7126123"><ele>243.2</ele><time>2026-03-29T14:49:27.197Z</time></trkpt><trkpt lat="45.1693774" lon="7.7125888"><ele>243.6</ele><time>2026-03-29T14:49:28.182Z</time></trkpt><trkpt lat="45.1692788" lon="7.712571"><ele>244.0</ele><time>2026-03-29T14:49:29.18Z</time></trkpt><trkpt lat="45.169183" lon="7.7125486"><ele>244.0</ele><time>2026-03-29T14:49:30.178Z</time></trkpt><trkpt lat="45.1690936" lon="7.7125245"><ele>243.99999999999997</ele><time>2026-03-29T14:49:31.179Z</time></trkpt><trkpt lat="45.1690053" lon="7.7125042"><ele>243.99999999999997</ele><time>2026-03-29T14:49:32.187Z</time></trkpt><trkpt lat="45.1689134" lon="7.7124874"><ele>244.0</ele><time>2026-03-29T14:49:33.188Z</time></trkpt><trkpt lat="45.1688153" lon="7.7124681"><ele>244.0</ele><time>2026-03-29T14:49:34.188Z</time></trkpt><trkpt lat="45.1687071" lon="7.7124441"><ele>243.75</ele><time>2026-03-29T14:49:35.184Z</time></trkpt><trkpt lat="45.1685919" lon="7.7124171"><ele>243.5</ele><time>2026-03-29T14:49:36.181Z</time></trkpt><trkpt lat="45.1684665" lon="7.7123885"><ele>243.25</ele><time>2026-03-29T14:49:37.18Z</time></trkpt><trkpt lat="45.1683376" lon="7.7123609"><ele>243.0</ele><time>2026-03-29T14:49:38.18Z</time></trkpt><trkpt lat="45.1682038" lon="7.7123311"><ele>243.0</ele><time>2026-03-29T14:49:39.181Z</time></trkpt><trkpt lat="45.1680637" lon="7.7122975"><ele>243.0</ele><time>2026-03-29T14:49:40.185Z</time></trkpt><trkpt lat="45.1679197" lon="7.7122643"><ele>243.0</ele><time>2026-03-29T14:49:41.185Z</time></trkpt><trkpt lat="45.1677762" lon="7.7122275"><ele>243.0</ele><time>2026-03-29T14:49:42.19Z</time></trkpt><trkpt lat="45.1676311" lon="7.7121858"><ele>243.0</ele><time>2026-03-29T14:49:43.187Z</time></trkpt><trkpt lat="45.1674917" lon="7.7121493"><ele>243.0</ele><time>2026-03-29T14:49:44.182Z</time></trkpt><trkpt lat="45.1673471" lon="7.712114"><ele>243.0</ele><time>2026-03-29T14:49:45.182Z</time></trkpt><trkpt lat="45.1672003" lon="7.7120774"><ele>243.0</ele><time>2026-03-29T14:49:46.182Z</time></trkpt><trkpt lat="45.1670561" lon="7.7120405"><ele>243.0</ele><time>2026-03-29T14:49:47.191Z</time></trkpt><trkpt lat="45.1669143" lon="7.712006"><ele>243.0</ele><time>2026-03-29T14:49:48.183Z</time></trkpt><trkpt lat="45.166772" lon="7.7119684"><ele>243.0</ele><time>2026-03-29T14:49:49.18Z</time></trkpt><trkpt lat="45.1666328" lon="7.7119324"><ele>243.0</ele><time>2026-03-29T14:49:50.179Z</time></trkpt><trkpt lat="45.1664935" lon="7.7118981"><ele>243.0</ele><time>2026-03-29T14:49:51.188Z</time></trkpt><trkpt lat="45.1663554" lon="7.7118712"><ele>243.0</ele><time>2026-03-29T14:49:52.183Z</time></trkpt><trkpt lat="45.166214" lon="7.7118441"><ele>243.0</ele><time>2026-03-29T14:49:53.189Z</time></trkpt><trkpt lat="45.1660761" lon="7.71182"><ele>243.0</ele><time>2026-03-29T14:49:54.182Z</time></trkpt><trkpt lat="45.1659424" lon="7.7117907"><ele>243.0</ele><time>2026-03-29T14:49:55.185Z</time></trkpt><trkpt lat="45.1658099" lon="7.7117593"><ele>243.0</ele><time>2026-03-29T14:49:56.18Z</time></trkpt><trkpt lat="45.1656812" lon="7.7117322"><ele>243.0</ele><time>2026-03-29T14:49:57.179Z</time></trkpt><trkpt lat="45.1655514" lon="7.7117038"><ele>243.0</ele><time>2026-03-29T14:49:58.192Z</time></trkpt><trkpt lat="45.1654232" lon="7.7116785"><ele>242.75</ele><time>2026-03-29T14:49:59.184Z</time></trkpt><trkpt lat="45.1652979" lon="7.7116526"><ele>242.5</ele><time>2026-03-29T14:50:00.209Z</time></trkpt><trkpt lat="45.1651772" lon="7.7116251"><ele>242.25</ele><time>2026-03-29T14:50:01.186Z</time></trkpt><trkpt lat="45.1650574" lon="7.7115961"><ele>242.0</ele><time>2026-03-29T14:50:02.189Z</time></trkpt><trkpt lat="45.1649421" lon="7.7115684"><ele>241.75</ele><time>2026-03-29T14:50:03.18Z</time></trkpt><trkpt lat="45.1648256" lon="7.711537"><ele>241.5</ele><time>2026-03-29T14:50:04.212Z</time></trkpt><trkpt lat="45.1647103" lon="7.7115069"><ele>241.25</ele><time>2026-03-29T14:50:05.191Z</time></trkpt><trkpt lat="45.1645911" lon="7.7114775"><ele>241.0</ele><time>2026-03-29T14:50:06.189Z</time></trkpt><trkpt lat="45.1644711" lon="7.7114463"><ele>241.0</ele><time>2026-03-29T14:50:07.193Z</time></trkpt><trkpt lat="45.1643498" lon="7.7114191"><ele>241.0</ele><time>2026-03-29T14:50:08.207Z</time></trkpt><trkpt lat="45.1642257" lon="7.7113924"><ele>241.0</ele><time>2026-03-29T14:50:09.216Z</time></trkpt><trkpt lat="45.1641003" lon="7.7113632"><ele>241.0</ele><time>2026-03-29T14:50:10.22Z</time></trkpt><trkpt lat="45.1639641" lon="7.711328"><ele>241.0</ele><time>2026-03-29T14:50:11.18Z</time></trkpt><trkpt lat="45.1638295" lon="7.7112942"><ele>241.0</ele><time>2026-03-29T14:50:12.185Z</time></trkpt><trkpt lat="45.1636967" lon="7.7112633"><ele>241.0</ele><time>2026-03-29T14:50:13.212Z</time></trkpt><trkpt lat="45.1635748" lon="7.7112381"><ele>241.0</ele><time>2026-03-29T14:50:14.18Z</time></trkpt><trkpt lat="45.1634589" lon="7.7112109"><ele>240.99999999999997</ele><time>2026-03-29T14:50:15.186Z</time></trkpt><trkpt lat="45.1633526" lon="7.7111853"><ele>241.0</ele><time>2026-03-29T14:50:16.184Z</time></trkpt><trkpt lat="45.1632612" lon="7.711154"><ele>241.0</ele><time>2026-03-29T14:50:17.189Z</time></trkpt><trkpt lat="45.1631932" lon="7.7111246"><ele>241.0</ele><time>2026-03-29T14:50:18.181Z</time></trkpt><trkpt lat="45.1631671" lon="7.7110224"><ele>240.99999999999997</ele><time>2026-03-29T14:50:21.188Z</time></trkpt><trkpt lat="45.1632177" lon="7.7109079"><ele>241.0</ele><time>2026-03-29T14:50:23.194Z</time></trkpt><trkpt lat="45.1632753" lon="7.7107263"><ele>240.8</ele><time>2026-03-29T14:50:25.197Z</time></trkpt><trkpt lat="45.163315" lon="7.7106013"><ele>240.60000000000002</ele><time>2026-03-29T14:50:26.188Z</time></trkpt><trkpt lat="45.1633506" lon="7.7104595"><ele>240.4</ele><time>2026-03-29T14:50:27.191Z</time></trkpt><trkpt lat="45.1633867" lon="7.7103137"><ele>240.2</ele><time>2026-03-29T14:50:28.183Z</time></trkpt><trkpt lat="45.163421" lon="7.7101734"><ele>240.0</ele><time>2026-03-29T14:50:29.184Z</time></trkpt><trkpt lat="45.1634552" lon="7.7100439"><ele>240.0</ele><time>2026-03-29T14:50:30.183Z</time></trkpt><trkpt lat="45.1634866" lon="7.7099103"><ele>240.0</ele><time>2026-03-29T14:50:31.187Z</time></trkpt><trkpt lat="45.1635217" lon="7.709782"><ele>240.0</ele><time>2026-03-29T14:50:32.191Z</time></trkpt><trkpt lat="45.1635496" lon="7.7096567"><ele>240.0</ele><time>2026-03-29T14:50:33.179Z</time></trkpt><trkpt lat="45.1635715" lon="7.7095396"><ele>240.0</ele><time>2026-03-29T14:50:34.191Z</time></trkpt><trkpt lat="45.1636006" lon="7.7094179"><ele>239.83333333333334</ele><time>2026-03-29T14:50:35.218Z</time></trkpt><trkpt lat="45.1636275" lon="7.709293"><ele>239.66666666666669</ele><time>2026-03-29T14:50:36.18Z</time></trkpt><trkpt lat="45.1636581" lon="7.7091731"><ele>239.5</ele><time>2026-03-29T14:50:37.191Z</time></trkpt><trkpt lat="45.1636804" lon="7.7090804"><ele>239.33333333333334</ele><time>2026-03-29T14:50:38.191Z</time></trkpt><trkpt lat="45.1637129" lon="7.7089868"><ele>239.16666666666669</ele><time>2026-03-29T14:50:39.186Z</time></trkpt><trkpt lat="45.1637538" lon="7.7088303"><ele>239.0</ele><time>2026-03-29T14:50:41.188Z</time></trkpt><trkpt lat="45.1637767" lon="7.7087402"><ele>239.0</ele><time>2026-03-29T14:50:43.185Z</time></trkpt><trkpt lat="45.1637987" lon="7.7086332"><ele>239.0</ele><time>2026-03-29T14:50:45.183Z</time></trkpt><trkpt lat="45.1638119" lon="7.7085143"><ele>239.0</ele><time>2026-03-29T14:50:46.186Z</time></trkpt><trkpt lat="45.1638285" lon="7.7083359"><ele>239.0</ele><time>2026-03-29T14:50:47.194Z</time></trkpt><trkpt lat="45.1638456" lon="7.708103"><ele>239.0</ele><time>2026-03-29T14:50:48.188Z</time></trkpt><trkpt lat="45.1638653" lon="7.7078532"><ele>239.0</ele><time>2026-03-29T14:50:49.181Z</time></trkpt><trkpt lat="45.1638879" lon="7.7075894"><ele>239.0</ele><time>2026-03-29T14:50:50.194Z</time></trkpt><trkpt lat="45.1639084" lon="7.7073122"><ele>239.33333333333334</ele><time>2026-03-29T14:50:51.208Z</time></trkpt><trkpt lat="45.1639129" lon="7.7070298"><ele>239.66666666666669</ele><time>2026-03-29T14:50:52.185Z</time></trkpt><trkpt lat="45.163906" lon="7.7067392"><ele>240.0</ele><time>2026-03-29T14:50:53.182Z</time></trkpt><trkpt lat="45.1638788" lon="7.70644"><ele>240.0</ele><time>2026-03-29T14:50:54.187Z</time></trkpt><trkpt lat="45.1638302" lon="7.7061284"><ele>240.0</ele><time>2026-03-29T14:50:55.185Z</time></trkpt><trkpt lat="45.1637731" lon="7.7058063"><ele>240.0</ele><time>2026-03-29T14:50:56.209Z</time></trkpt><trkpt lat="45.1637182" lon="7.7054863"><ele>240.0</ele><time>2026-03-29T14:50:57.197Z</time></trkpt><trkpt lat="45.163663" lon="7.7051756"><ele>240.33333333333331</ele><time>2026-03-29T14:50:58.195Z</time></trkpt><trkpt lat="45.1636116" lon="7.7048715"><ele>240.66666666666666</ele><time>2026-03-29T14:50:59.185Z</time></trkpt><trkpt lat="45.1635566" lon="7.7045613"><ele>241.0</ele><time>2026-03-29T14:51:00.182Z</time></trkpt><trkpt lat="45.1635007" lon="7.7042447"><ele>241.5</ele><time>2026-03-29T14:51:01.179Z</time></trkpt><trkpt lat="45.1634447" lon="7.7039228"><ele>242.0</ele><time>2026-03-29T14:51:02.185Z</time></trkpt><trkpt lat="45.1633923" lon="7.7035941"><ele>242.5</ele><time>2026-03-29T14:51:03.185Z</time></trkpt><trkpt lat="45.1633411" lon="7.7032611"><ele>243.0</ele><time>2026-03-29T14:51:04.19Z</time></trkpt><trkpt lat="45.1632927" lon="7.7029294"><ele>244.0</ele><time>2026-03-29T14:51:05.188Z</time></trkpt><trkpt lat="45.1632446" lon="7.7025956"><ele>245.0</ele><time>2026-03-29T14:51:06.183Z</time></trkpt><trkpt lat="45.1631965" lon="7.7022611"><ele>245.0</ele><time>2026-03-29T14:51:07.182Z</time></trkpt><trkpt lat="45.1631523" lon="7.7019233"><ele>245.0</ele><time>2026-03-29T14:51:08.185Z</time></trkpt><trkpt lat="45.1631058" lon="7.7015818"><ele>245.0</ele><time>2026-03-29T14:51:09.18Z</time></trkpt><trkpt lat="45.1630612" lon="7.7012465"><ele>245.0</ele><time>2026-03-29T14:51:10.178Z</time></trkpt><trkpt lat="45.1630158" lon="7.7009204"><ele>245.0</ele><time>2026-03-29T14:51:11.178Z</time></trkpt><trkpt lat="45.1629726" lon="7.7006042"><ele>245.0</ele><time>2026-03-29T14:51:12.18Z</time></trkpt><trkpt lat="45.1629352" lon="7.7003007"><ele>245.0</ele><time>2026-03-29T14:51:13.214Z</time></trkpt><trkpt lat="45.1629007" lon="7.7000104"><ele>244.33333333333334</ele><time>2026-03-29T14:51:14.183Z</time></trkpt><trkpt lat="45.1628648" lon="7.6997395"><ele>243.66666666666669</ele><time>2026-03-29T14:51:15.184Z</time></trkpt><trkpt lat="45.1628154" lon="7.6994849"><ele>243.0</ele><time>2026-03-29T14:51:16.177Z</time></trkpt><trkpt lat="45.162748" lon="7.6992301"><ele>243.0</ele><time>2026-03-29T14:51:17.178Z</time></trkpt><trkpt lat="45.1626618" lon="7.6989685"><ele>243.0</ele><time>2026-03-29T14:51:18.189Z</time></trkpt><trkpt lat="45.162559" lon="7.698694"><ele>243.0</ele><time>2026-03-29T14:51:19.177Z</time></trkpt><trkpt lat="45.1624635" lon="7.6983974"><ele>243.0</ele><time>2026-03-29T14:51:20.181Z</time></trkpt><trkpt lat="45.1623891" lon="7.6980785"><ele>243.0</ele><time>2026-03-29T14:51:21.182Z</time></trkpt><trkpt lat="45.1623356" lon="7.6977377"><ele>243.5</ele><time>2026-03-29T14:51:22.177Z</time></trkpt><trkpt lat="45.1622948" lon="7.6973893"><ele>244.0</ele><time>2026-03-29T14:51:23.184Z</time></trkpt><trkpt lat="45.1622593" lon="7.6970535"><ele>244.0</ele><time>2026-03-29T14:51:24.188Z</time></trkpt><trkpt lat="45.1622256" lon="7.6967398"><ele>244.0</ele><time>2026-03-29T14:51:25.178Z</time></trkpt><trkpt lat="45.1621941" lon="7.6964463"><ele>244.0</ele><time>2026-03-29T14:51:26.185Z</time></trkpt><trkpt lat="45.1621581" lon="7.6961656"><ele>244.0</ele><time>2026-03-29T14:51:27.179Z</time></trkpt><trkpt lat="45.1621271" lon="7.6958959"><ele>244.0</ele><time>2026-03-29T14:51:28.177Z</time></trkpt><trkpt lat="45.1620991" lon="7.6956241"><ele>244.0</ele><time>2026-03-29T14:51:29.181Z</time></trkpt><trkpt lat="45.1620722" lon="7.6953498"><ele>244.33333333333331</ele><time>2026-03-29T14:51:30.175Z</time></trkpt><trkpt lat="45.1620466" lon="7.6950872"><ele>244.66666666666669</ele><time>2026-03-29T14:51:31.186Z</time></trkpt><trkpt lat="45.1620255" lon="7.6948478"><ele>245.0</ele><time>2026-03-29T14:51:32.182Z</time></trkpt><trkpt lat="45.1620126" lon="7.6946311"><ele>245.0</ele><time>2026-03-29T14:51:33.188Z</time></trkpt><trkpt lat="45.1620088" lon="7.6944327"><ele>245.0</ele><time>2026-03-29T14:51:34.177Z</time></trkpt><trkpt lat="45.162012" lon="7.6942474"><ele>245.0</ele><time>2026-03-29T14:51:35.175Z</time></trkpt><trkpt lat="45.1620281" lon="7.6940679"><ele>245.0</ele><time>2026-03-29T14:51:36.19Z</time></trkpt><trkpt lat="45.1620582" lon="7.6938796"><ele>245.25</ele><time>2026-03-29T14:51:37.188Z</time></trkpt><trkpt lat="45.1620973" lon="7.6936895"><ele>245.5</ele><time>2026-03-29T14:51:38.182Z</time></trkpt><trkpt lat="45.1621352" lon="7.6935141"><ele>245.75</ele><time>2026-03-29T14:51:39.179Z</time></trkpt><trkpt lat="45.1621672" lon="7.693351"><ele>246.0</ele><time>2026-03-29T14:51:40.181Z</time></trkpt><trkpt lat="45.1621955" lon="7.6932041"><ele>246.0</ele><time>2026-03-29T14:51:41.179Z</time></trkpt><trkpt lat="45.1622215" lon="7.6930691"><ele>246.0</ele><time>2026-03-29T14:51:42.179Z</time></trkpt><trkpt lat="45.1622647" lon="7.6929351"><ele>246.0</ele><time>2026-03-29T14:51:43.181Z</time></trkpt><trkpt lat="45.1623156" lon="7.6927851"><ele>246.0</ele><time>2026-03-29T14:51:44.186Z</time></trkpt><trkpt lat="45.1623862" lon="7.6926081"><ele>246.33333333333331</ele><time>2026-03-29T14:51:45.186Z</time></trkpt><trkpt lat="45.1624673" lon="7.6923913"><ele>246.66666666666666</ele><time>2026-03-29T14:51:46.181Z</time></trkpt><trkpt lat="45.1625546" lon="7.6921406"><ele>247.0</ele><time>2026-03-29T14:51:47.201Z</time></trkpt><trkpt lat="45.1626533" lon="7.6918622"><ele>247.0</ele><time>2026-03-29T14:51:48.177Z</time></trkpt><trkpt lat="45.1627595" lon="7.6915707"><ele>247.0</ele><time>2026-03-29T14:51:49.209Z</time></trkpt><trkpt lat="45.1628702" lon="7.6912618"><ele>247.0</ele><time>2026-03-29T14:51:50.179Z</time></trkpt><trkpt lat="45.1629848" lon="7.6909431"><ele>247.0</ele><time>2026-03-29T14:51:51.182Z</time></trkpt><trkpt lat="45.1630961" lon="7.6906293"><ele>247.5</ele><time>2026-03-29T14:51:52.181Z</time></trkpt><trkpt lat="45.1631992" lon="7.6903303"><ele>248.0</ele><time>2026-03-29T14:51:53.177Z</time></trkpt><trkpt lat="45.1632913" lon="7.6900438"><ele>248.0</ele><time>2026-03-29T14:51:54.192Z</time></trkpt><trkpt lat="45.1633746" lon="7.689751"><ele>248.0</ele><time>2026-03-29T14:51:55.175Z</time></trkpt><trkpt lat="45.163454" lon="7.6894569"><ele>248.0</ele><time>2026-03-29T14:51:56.178Z</time></trkpt><trkpt lat="45.1635301" lon="7.6891664"><ele>248.0</ele><time>2026-03-29T14:51:57.179Z</time></trkpt><trkpt lat="45.1636011" lon="7.688883"><ele>248.0</ele><time>2026-03-29T14:51:58.178Z</time></trkpt><trkpt lat="45.1636677" lon="7.6886109"><ele>248.0</ele><time>2026-03-29T14:51:59.176Z</time></trkpt><trkpt lat="45.1637319" lon="7.6883484"><ele>248.33333333333334</ele><time>2026-03-29T14:52:00.177Z</time></trkpt><trkpt lat="45.1637979" lon="7.6880938"><ele>248.66666666666669</ele><time>2026-03-29T14:52:01.179Z</time></trkpt><trkpt lat="45.1638679" lon="7.687854"><ele>249.0</ele><time>2026-03-29T14:52:02.176Z</time></trkpt><trkpt lat="45.1639525" lon="7.6876312"><ele>249.0</ele><time>2026-03-29T14:52:03.179Z</time></trkpt><trkpt lat="45.1640579" lon="7.6874242"><ele>249.0</ele><time>2026-03-29T14:52:04.184Z</time></trkpt><trkpt lat="45.1641885" lon="7.6872385"><ele>249.0</ele><time>2026-03-29T14:52:05.179Z</time></trkpt><trkpt lat="45.164352" lon="7.6870745"><ele>249.5</ele><time>2026-03-29T14:52:06.175Z</time></trkpt><trkpt lat="45.1645437" lon="7.6869256"><ele>250.0</ele><time>2026-03-29T14:52:07.182Z</time></trkpt><trkpt lat="45.1647603" lon="7.6867856"><ele>250.0</ele><time>2026-03-29T14:52:08.235Z</time></trkpt><trkpt lat="45.1649769" lon="7.6866428"><ele>250.0</ele><time>2026-03-29T14:52:09.182Z</time></trkpt><trkpt lat="45.1651749" lon="7.6865017"><ele>250.0</ele><time>2026-03-29T14:52:10.181Z</time></trkpt><trkpt lat="45.1653519" lon="7.6863662"><ele>250.0</ele><time>2026-03-29T14:52:11.183Z</time></trkpt><trkpt lat="45.1655113" lon="7.6862349"><ele>250.0</ele><time>2026-03-29T14:52:12.18Z</time></trkpt><trkpt lat="45.1656594" lon="7.6860951"><ele>251.33333333333331</ele><time>2026-03-29T14:52:13.182Z</time></trkpt><trkpt lat="45.1657905" lon="7.6859339"><ele>252.66666666666669</ele><time>2026-03-29T14:52:14.178Z</time></trkpt><trkpt lat="45.1658999" lon="7.6857454"><ele>254.0</ele><time>2026-03-29T14:52:15.192Z</time></trkpt><trkpt lat="45.165986" lon="7.685529"><ele>254.0</ele><time>2026-03-29T14:52:16.208Z</time></trkpt><trkpt lat="45.166044" lon="7.6852861"><ele>254.0</ele><time>2026-03-29T14:52:17.215Z</time></trkpt><trkpt lat="45.166075" lon="7.6850265"><ele>254.0</ele><time>2026-03-29T14:52:18.177Z</time></trkpt><trkpt lat="45.166078" lon="7.6847576"><ele>254.66666666666669</ele><time>2026-03-29T14:52:19.21Z</time></trkpt><trkpt lat="45.1660568" lon="7.6844947"><ele>255.33333333333331</ele><time>2026-03-29T14:52:20.18Z</time></trkpt><trkpt lat="45.1660084" lon="7.6842434"><ele>256.0</ele><time>2026-03-29T14:52:21.179Z</time></trkpt><trkpt lat="45.1659302" lon="7.6840022"><ele>256.0</ele><time>2026-03-29T14:52:22.193Z</time></trkpt><trkpt lat="45.1658344" lon="7.6837664"><ele>256.0</ele><time>2026-03-29T14:52:23.18Z</time></trkpt><trkpt lat="45.1657307" lon="7.6835274"><ele>256.0</ele><time>2026-03-29T14:52:24.178Z</time></trkpt><trkpt lat="45.1656269" lon="7.6832802"><ele>255.33333333333331</ele><time>2026-03-29T14:52:25.178Z</time></trkpt><trkpt lat="45.1655294" lon="7.6830327"><ele>254.66666666666669</ele><time>2026-03-29T14:52:26.175Z</time></trkpt><trkpt lat="45.1654476" lon="7.6827791"><ele>254.0</ele><time>2026-03-29T14:52:27.19Z</time></trkpt><trkpt lat="45.1653856" lon="7.6825136"><ele>254.0</ele><time>2026-03-29T14:52:28.177Z</time></trkpt><trkpt lat="45.165347" lon="7.682247"><ele>254.0</ele><time>2026-03-29T14:52:29.177Z</time></trkpt><trkpt lat="45.1653293" lon="7.6819828"><ele>254.0</ele><time>2026-03-29T14:52:30.179Z</time></trkpt><trkpt lat="45.1653258" lon="7.6817136"><ele>254.0</ele><time>2026-03-29T14:52:31.179Z</time></trkpt><trkpt lat="45.1653433" lon="7.6814369"><ele>254.0</ele><time>2026-03-29T14:52:32.186Z</time></trkpt><trkpt lat="45.1653796" lon="7.6811508"><ele>254.0</ele><time>2026-03-29T14:52:33.181Z</time></trkpt><trkpt lat="45.1654348" lon="7.6808595"><ele>254.0</ele><time>2026-03-29T14:52:34.175Z</time></trkpt><trkpt lat="45.1655017" lon="7.6805702"><ele>254.0</ele><time>2026-03-29T14:52:35.177Z</time></trkpt><trkpt lat="45.1655722" lon="7.6802909"><ele>254.0</ele><time>2026-03-29T14:52:36.175Z</time></trkpt><trkpt lat="45.1656417" lon="7.6800164"><ele>254.0</ele><time>2026-03-29T14:52:37.185Z</time></trkpt><trkpt lat="45.1657136" lon="7.6797453"><ele>254.0</ele><time>2026-03-29T14:52:38.179Z</time></trkpt><trkpt lat="45.1657918" lon="7.6794699"><ele>254.0</ele><time>2026-03-29T14:52:39.192Z</time></trkpt><trkpt lat="45.1658753" lon="7.6791809"><ele>254.0</ele><time>2026-03-29T14:52:40.18Z</time></trkpt><trkpt lat="45.1659622" lon="7.6788704"><ele>254.0</ele><time>2026-03-29T14:52:41.18Z</time></trkpt><trkpt lat="45.1660559" lon="7.6785459"><ele>255.0</ele><time>2026-03-29T14:52:42.18Z</time></trkpt><trkpt lat="45.1661517" lon="7.6782244"><ele>256.0</ele><time>2026-03-29T14:52:43.184Z</time></trkpt><trkpt lat="45.1662441" lon="7.6779152"><ele>256.0</ele><time>2026-03-29T14:52:44.178Z</time></trkpt><trkpt lat="45.1663317" lon="7.6776223"><ele>256.0</ele><time>2026-03-29T14:52:45.181Z</time></trkpt><trkpt lat="45.1664113" lon="7.6773481"><ele>256.0</ele><time>2026-03-29T14:52:46.187Z</time></trkpt><trkpt lat="45.1664886" lon="7.6770851"><ele>256.0</ele><time>2026-03-29T14:52:47.184Z</time></trkpt><trkpt lat="45.1665629" lon="7.6768295"><ele>256.0</ele><time>2026-03-29T14:52:48.176Z</time></trkpt><trkpt lat="45.1666333" lon="7.6765819"><ele>256.0</ele><time>2026-03-29T14:52:49.174Z</time></trkpt><trkpt lat="45.1667036" lon="7.6763387"><ele>256.0</ele><time>2026-03-29T14:52:50.177Z</time></trkpt><trkpt lat="45.1667727" lon="7.6760927"><ele>256.0</ele><time>2026-03-29T14:52:51.178Z</time></trkpt><trkpt lat="45.1668417" lon="7.6758446"><ele>256.0</ele><time>2026-03-29T14:52:52.183Z</time></trkpt><trkpt lat="45.1669071" lon="7.6755975"><ele>256.0</ele><time>2026-03-29T14:52:53.177Z</time></trkpt><trkpt lat="45.1669681" lon="7.6753603"><ele>256.0</ele><time>2026-03-29T14:52:54.182Z</time></trkpt><trkpt lat="45.1670243" lon="7.6751357"><ele>256.0</ele><time>2026-03-29T14:52:55.186Z</time></trkpt><trkpt lat="45.1670733" lon="7.6749251"><ele>256.0</ele><time>2026-03-29T14:52:56.179Z</time></trkpt><trkpt lat="45.1671168" lon="7.674731"><ele>256.0</ele><time>2026-03-29T14:52:57.182Z</time></trkpt><trkpt lat="45.1671564" lon="7.6745552"><ele>256.0</ele><time>2026-03-29T14:52:58.189Z</time></trkpt><trkpt lat="45.1671902" lon="7.6743945"><ele>256.0</ele><time>2026-03-29T14:52:59.192Z</time></trkpt><trkpt lat="45.167222" lon="7.6742474"><ele>256.40000000000003</ele><time>2026-03-29T14:53:00.182Z</time></trkpt><trkpt lat="45.1672499" lon="7.6741193"><ele>256.8</ele><time>2026-03-29T14:53:01.174Z</time></trkpt><trkpt lat="45.167272" lon="7.6740081"><ele>257.20000000000005</ele><time>2026-03-29T14:53:02.18Z</time></trkpt><trkpt lat="45.1672826" lon="7.6739123"><ele>257.6</ele><time>2026-03-29T14:53:03.177Z</time></trkpt><trkpt lat="45.1672469" lon="7.6737869"><ele>258.0</ele><time>2026-03-29T14:53:05.177Z</time></trkpt><trkpt lat="45.1671268" lon="7.673778"><ele>258.0</ele><time>2026-03-29T14:53:07.182Z</time></trkpt><trkpt lat="45.1670404" lon="7.6737939"><ele>258.0</ele><time>2026-03-29T14:53:08.181Z</time></trkpt><trkpt lat="45.1669324" lon="7.6738006"><ele>258.0</ele><time>2026-03-29T14:53:09.181Z</time></trkpt><trkpt lat="45.1668028" lon="7.6737905"><ele>258.0</ele><time>2026-03-29T14:53:10.179Z</time></trkpt><trkpt lat="45.1666484" lon="7.6737635"><ele>257.3333333333333</ele><time>2026-03-29T14:53:11.178Z</time></trkpt><trkpt lat="45.1664726" lon="7.6737231"><ele>256.66666666666663</ele><time>2026-03-29T14:53:12.179Z</time></trkpt><trkpt lat="45.1662863" lon="7.6736796"><ele>256.0</ele><time>2026-03-29T14:53:13.182Z</time></trkpt><trkpt lat="45.1661006" lon="7.6736309"><ele>256.0</ele><time>2026-03-29T14:53:14.176Z</time></trkpt><trkpt lat="45.1659166" lon="7.6735788"><ele>256.0</ele><time>2026-03-29T14:53:15.207Z</time></trkpt><trkpt lat="45.1657419" lon="7.6735309"><ele>256.0</ele><time>2026-03-29T14:53:16.183Z</time></trkpt><trkpt lat="45.1655771" lon="7.6734879"><ele>255.75</ele><time>2026-03-29T14:53:17.178Z</time></trkpt><trkpt lat="45.1654232" lon="7.6734464"><ele>255.5</ele><time>2026-03-29T14:53:18.179Z</time></trkpt><trkpt lat="45.1652793" lon="7.6734061"><ele>255.25</ele><time>2026-03-29T14:53:19.198Z</time></trkpt><trkpt lat="45.1651395" lon="7.6733641"><ele>255.0</ele><time>2026-03-29T14:53:20.179Z</time></trkpt><trkpt lat="45.164994" lon="7.6733252"><ele>255.33333333333331</ele><time>2026-03-29T14:53:21.182Z</time></trkpt><trkpt lat="45.164845" lon="7.6732879"><ele>255.66666666666666</ele><time>2026-03-29T14:53:22.177Z</time></trkpt><trkpt lat="45.164693" lon="7.6732551"><ele>256.0</ele><time>2026-03-29T14:53:23.192Z</time></trkpt><trkpt lat="45.1645462" lon="7.6732235"><ele>256.0</ele><time>2026-03-29T14:53:24.179Z</time></trkpt><trkpt lat="45.1644103" lon="7.6731796"><ele>256.0</ele><time>2026-03-29T14:53:25.185Z</time></trkpt><trkpt lat="45.1642834" lon="7.6731175"><ele>256.0</ele><time>2026-03-29T14:53:26.183Z</time></trkpt><trkpt lat="45.1641685" lon="7.6730163"><ele>256.0</ele><time>2026-03-29T14:53:27.177Z</time></trkpt><trkpt lat="45.1640635" lon="7.6728698"><ele>255.66666666666666</ele><time>2026-03-29T14:53:28.178Z</time></trkpt><trkpt lat="45.163948" lon="7.6726846"><ele>255.33333333333331</ele><time>2026-03-29T14:53:29.186Z</time></trkpt><trkpt lat="45.1638166" lon="7.6724669"><ele>255.0</ele><time>2026-03-29T14:53:30.188Z</time></trkpt><trkpt lat="45.1636897" lon="7.6722478"><ele>255.0</ele><time>2026-03-29T14:53:31.19Z</time></trkpt><trkpt lat="45.1635608" lon="7.6720436"><ele>255.0</ele><time>2026-03-29T14:53:32.184Z</time></trkpt><trkpt lat="45.1634425" lon="7.6718579"><ele>255.0</ele><time>2026-03-29T14:53:33.186Z</time></trkpt><trkpt lat="45.1633276" lon="7.6716929"><ele>255.33333333333331</ele><time>2026-03-29T14:53:34.177Z</time></trkpt><trkpt lat="45.1632165" lon="7.6715364"><ele>255.66666666666666</ele><time>2026-03-29T14:53:35.181Z</time></trkpt><trkpt lat="45.1631024" lon="7.6713787"><ele>256.0</ele><time>2026-03-29T14:53:36.194Z</time></trkpt><trkpt lat="45.1629858" lon="7.6712158"><ele>256.0</ele><time>2026-03-29T14:53:37.19Z</time></trkpt><trkpt lat="45.1628768" lon="7.6710557"><ele>256.0</ele><time>2026-03-29T14:53:38.182Z</time></trkpt><trkpt lat="45.1627747" lon="7.6709078"><ele>256.0</ele><time>2026-03-29T14:53:39.179Z</time></trkpt><trkpt lat="45.1626848" lon="7.6707781"><ele>256.0</ele><time>2026-03-29T14:53:40.177Z</time></trkpt><trkpt lat="45.1626123" lon="7.670672"><ele>255.99999999999997</ele><time>2026-03-29T14:53:41.187Z</time></trkpt><trkpt lat="45.1625568" lon="7.6705834"><ele>256.0</ele><time>2026-03-29T14:53:42.176Z</time></trkpt><trkpt lat="45.1625189" lon="7.6704987"><ele>256.0</ele><time>2026-03-29T14:53:43.178Z</time></trkpt><trkpt lat="45.1625044" lon="7.6704044"><ele>256.0</ele><time>2026-03-29T14:53:44.19Z</time></trkpt><trkpt lat="45.1625144" lon="7.6702898"><ele>255.99999999999997</ele><time>2026-03-29T14:53:45.182Z</time></trkpt><trkpt lat="45.1625392" lon="7.6701609"><ele>256.0</ele><time>2026-03-29T14:53:46.18Z</time></trkpt><trkpt lat="45.1625477" lon="7.6700164"><ele>255.75</ele><time>2026-03-29T14:53:47.177Z</time></trkpt><trkpt lat="45.1625279" lon="7.6698729"><ele>255.5</ele><time>2026-03-29T14:53:48.177Z</time></trkpt><trkpt lat="45.1624697" lon="7.669735"><ele>255.25</ele><time>2026-03-29T14:53:49.208Z</time></trkpt><trkpt lat="45.1623757" lon="7.6696096"><ele>255.0</ele><time>2026-03-29T14:53:50.185Z</time></trkpt><trkpt lat="45.1622455" lon="7.6694824"><ele>255.33333333333331</ele><time>2026-03-29T14:53:51.181Z</time></trkpt><trkpt lat="45.1620982" lon="7.6693463"><ele>255.66666666666666</ele><time>2026-03-29T14:53:52.186Z</time></trkpt><trkpt lat="45.1619439" lon="7.6691992"><ele>256.0</ele><time>2026-03-29T14:53:53.194Z</time></trkpt><trkpt lat="45.1617834" lon="7.6690388"><ele>256.0</ele><time>2026-03-29T14:53:54.177Z</time></trkpt><trkpt lat="45.1616162" lon="7.6688655"><ele>256.0</ele><time>2026-03-29T14:53:55.177Z</time></trkpt><trkpt lat="45.1614502" lon="7.668691"><ele>256.0</ele><time>2026-03-29T14:53:56.179Z</time></trkpt><trkpt lat="45.1612858" lon="7.6685183"><ele>256.0</ele><time>2026-03-29T14:53:57.189Z</time></trkpt><trkpt lat="45.1611204" lon="7.6683443"><ele>256.0</ele><time>2026-03-29T14:53:58.177Z</time></trkpt><trkpt lat="45.1609579" lon="7.6681637"><ele>256.0</ele><time>2026-03-29T14:53:59.181Z</time></trkpt><trkpt lat="45.1608116" lon="7.6679778"><ele>255.66666666666666</ele><time>2026-03-29T14:54:00.176Z</time></trkpt><trkpt lat="45.160684" lon="7.6677831"><ele>255.33333333333331</ele><time>2026-03-29T14:54:01.176Z</time></trkpt><trkpt lat="45.1605776" lon="7.6675845"><ele>255.0</ele><time>2026-03-29T14:54:02.185Z</time></trkpt><trkpt lat="45.1604809" lon="7.6673825"><ele>255.0</ele><time>2026-03-29T14:54:03.177Z</time></trkpt><trkpt lat="45.1603829" lon="7.667185"><ele>255.0</ele><time>2026-03-29T14:54:04.189Z</time></trkpt><trkpt lat="45.1602848" lon="7.6670026"><ele>255.0</ele><time>2026-03-29T14:54:05.181Z</time></trkpt><trkpt lat="45.1601915" lon="7.6668395"><ele>255.0</ele><time>2026-03-29T14:54:06.213Z</time></trkpt><trkpt lat="45.1601046" lon="7.6667018"><ele>255.0</ele><time>2026-03-29T14:54:07.187Z</time></trkpt><trkpt lat="45.1600225" lon="7.6665936"><ele>255.0</ele><time>2026-03-29T14:54:08.188Z</time></trkpt><trkpt lat="45.1599513" lon="7.6665209"><ele>255.0</ele><time>2026-03-29T14:54:09.212Z</time></trkpt><trkpt lat="45.1598894" lon="7.6664797"><ele>255.0</ele><time>2026-03-29T14:54:10.18Z</time></trkpt><trkpt lat="45.1598203" lon="7.6664656"><ele>254.83333333333334</ele><time>2026-03-29T14:54:12.196Z</time></trkpt><trkpt lat="45.1598541" lon="7.666552"><ele>254.66666666666669</ele><time>2026-03-29T14:54:15.18Z</time></trkpt><trkpt lat="45.1597849" lon="7.6665127"><ele>254.5</ele><time>2026-03-29T14:54:25.179Z</time></trkpt><trkpt lat="45.1597199" lon="7.6664618"><ele>254.33333333333334</ele><time>2026-03-29T14:54:26.18Z</time></trkpt><trkpt lat="45.1596396" lon="7.6663952"><ele>254.16666666666669</ele><time>2026-03-29T14:54:27.207Z</time></trkpt><trkpt lat="45.1595568" lon="7.6663141"><ele>254.0</ele><time>2026-03-29T14:54:28.184Z</time></trkpt><trkpt lat="45.1594729" lon="7.6662099"><ele>254.0</ele><time>2026-03-29T14:54:29.178Z</time></trkpt><trkpt lat="45.1593924" lon="7.6660928"><ele>254.0</ele><time>2026-03-29T14:54:30.178Z</time></trkpt><trkpt lat="45.1593087" lon="7.6659506"><ele>254.0</ele><time>2026-03-29T14:54:31.182Z</time></trkpt><trkpt lat="45.1592293" lon="7.6658104"><ele>254.0</ele><time>2026-03-29T14:54:32.183Z</time></trkpt><trkpt lat="45.1591443" lon="7.66566"><ele>254.0</ele><time>2026-03-29T14:54:33.179Z</time></trkpt><trkpt lat="45.1590453" lon="7.6654947"><ele>254.0</ele><time>2026-03-29T14:54:34.19Z</time></trkpt><trkpt lat="45.1589404" lon="7.6653157"><ele>254.0</ele><time>2026-03-29T14:54:35.182Z</time></trkpt><trkpt lat="45.1588447" lon="7.6651216"><ele>254.66666666666669</ele><time>2026-03-29T14:54:36.181Z</time></trkpt><trkpt lat="45.1587577" lon="7.6649021"><ele>255.33333333333331</ele><time>2026-03-29T14:54:37.182Z</time></trkpt><trkpt lat="45.158685" lon="7.6646615"><ele>256.0</ele><time>2026-03-29T14:54:38.177Z</time></trkpt><trkpt lat="45.158632" lon="7.6644154"><ele>256.3333333333333</ele><time>2026-03-29T14:54:39.192Z</time></trkpt><trkpt lat="45.1585909" lon="7.6641733"><ele>256.6666666666667</ele><time>2026-03-29T14:54:40.178Z</time></trkpt><trkpt lat="45.1585389" lon="7.6639411"><ele>257.0</ele><time>2026-03-29T14:54:41.202Z</time></trkpt><trkpt lat="45.1584724" lon="7.6637277"><ele>257.0</ele><time>2026-03-29T14:54:42.189Z</time></trkpt><trkpt lat="45.15839" lon="7.6635431"><ele>257.0</ele><time>2026-03-29T14:54:43.182Z</time></trkpt><trkpt lat="45.1582832" lon="7.6633993"><ele>257.0</ele><time>2026-03-29T14:54:44.178Z</time></trkpt><trkpt lat="45.1581527" lon="7.6632899"><ele>257.0</ele><time>2026-03-29T14:54:45.179Z</time></trkpt><trkpt lat="45.1580084" lon="7.6632242"><ele>257.0</ele><time>2026-03-29T14:54:46.177Z</time></trkpt><trkpt lat="45.1578512" lon="7.6631946"><ele>257.0</ele><time>2026-03-29T14:54:47.189Z</time></trkpt><trkpt lat="45.157688" lon="7.6631927"><ele>257.0</ele><time>2026-03-29T14:54:48.179Z</time></trkpt><trkpt lat="45.1575218" lon="7.6632034"><ele>257.0</ele><time>2026-03-29T14:54:49.179Z</time></trkpt><trkpt lat="45.1573658" lon="7.6632103"><ele>257.0</ele><time>2026-03-29T14:54:50.181Z</time></trkpt><trkpt lat="45.1572189" lon="7.6632162"><ele>257.0</ele><time>2026-03-29T14:54:51.179Z</time></trkpt><trkpt lat="45.1570822" lon="7.6632251"><ele>257.0</ele><time>2026-03-29T14:54:52.186Z</time></trkpt><trkpt lat="45.1569575" lon="7.6632341"><ele>257.0</ele><time>2026-03-29T14:54:53.178Z</time></trkpt><trkpt lat="45.1568463" lon="7.6632457"><ele>257.0</ele><time>2026-03-29T14:54:54.184Z</time></trkpt><trkpt lat="45.1567534" lon="7.6632594"><ele>257.0</ele><time>2026-03-29T14:54:55.183Z</time></trkpt><trkpt lat="45.1566594" lon="7.6632667"><ele>257.0</ele><time>2026-03-29T14:54:56.182Z</time></trkpt><trkpt lat="45.156551" lon="7.6632652"><ele>257.0</ele><time>2026-03-29T14:54:57.186Z</time></trkpt><trkpt lat="45.1564259" lon="7.6632526"><ele>257.0</ele><time>2026-03-29T14:54:58.177Z</time></trkpt><trkpt lat="45.1562842" lon="7.6632402"><ele>256.6666666666667</ele><time>2026-03-29T14:54:59.18Z</time></trkpt><trkpt lat="45.1561362" lon="7.6632297"><ele>256.3333333333333</ele><time>2026-03-29T14:55:00.181Z</time></trkpt><trkpt lat="45.1559849" lon="7.6632237"><ele>256.0</ele><time>2026-03-29T14:55:01.198Z</time></trkpt><trkpt lat="45.1558322" lon="7.663215"><ele>256.0</ele><time>2026-03-29T14:55:02.182Z</time></trkpt><trkpt lat="45.1556831" lon="7.6632021"><ele>256.0</ele><time>2026-03-29T14:55:03.175Z</time></trkpt><trkpt lat="45.1555377" lon="7.6631801"><ele>256.0</ele><time>2026-03-29T14:55:04.178Z</time></trkpt><trkpt lat="45.1554064" lon="7.6631416"><ele>256.0</ele><time>2026-03-29T14:55:05.177Z</time></trkpt><trkpt lat="45.1552825" lon="7.6630922"><ele>256.0</ele><time>2026-03-29T14:55:06.179Z</time></trkpt><trkpt lat="45.1551663" lon="7.6630464"><ele>256.0</ele><time>2026-03-29T14:55:07.194Z</time></trkpt><trkpt lat="45.1550602" lon="7.6630061"><ele>256.0</ele><time>2026-03-29T14:55:08.176Z</time></trkpt><trkpt lat="45.1549696" lon="7.6629754"><ele>256.0</ele><time>2026-03-29T14:55:09.177Z</time></trkpt><trkpt lat="45.1548913" lon="7.6629372"><ele>256.0</ele><time>2026-03-29T14:55:10.179Z</time></trkpt><trkpt lat="45.1548242" lon="7.6628848"><ele>256.0</ele><time>2026-03-29T14:55:11.177Z</time></trkpt><trkpt lat="45.1547404" lon="7.6627415"><ele>256.0</ele><time>2026-03-29T14:55:13.182Z</time></trkpt><trkpt lat="45.1546804" lon="7.6627053"><ele>256.0</ele><time>2026-03-29T14:55:14.173Z</time></trkpt><trkpt lat="45.1545711" lon="7.6627894"><ele>256.0</ele><time>2026-03-29T14:55:16.177Z</time></trkpt><trkpt lat="45.1545233" lon="7.6628737"><ele>256.0</ele><time>2026-03-29T14:55:17.177Z</time></trkpt><trkpt lat="45.1544693" lon="7.6629318"><ele>255.99999999999997</ele><time>2026-03-29T14:55:18.194Z</time></trkpt><trkpt lat="45.1544098" lon="7.662966"><ele>256.0</ele><time>2026-03-29T14:55:19.179Z</time></trkpt><trkpt lat="45.1543377" lon="7.6629941"><ele>256.0</ele><time>2026-03-29T14:55:20.173Z</time></trkpt><trkpt lat="45.1542558" lon="7.6630237"><ele>256.0</ele><time>2026-03-29T14:55:21.179Z</time></trkpt><trkpt lat="45.1541805" lon="7.663057"><ele>255.99999999999997</ele><time>2026-03-29T14:55:22.192Z</time></trkpt><trkpt lat="45.1541043" lon="7.6630809"><ele>256.0</ele><time>2026-03-29T14:55:23.18Z</time></trkpt><trkpt lat="45.1540256" lon="7.6630788"><ele>256.2</ele><time>2026-03-29T14:55:24.174Z</time></trkpt><trkpt lat="45.1539496" lon="7.6630508"><ele>256.40000000000003</ele><time>2026-03-29T14:55:25.179Z</time></trkpt><trkpt lat="45.153878" lon="7.6629939"><ele>256.6</ele><time>2026-03-29T14:55:26.213Z</time></trkpt><trkpt lat="45.153815" lon="7.662903"><ele>256.8</ele><time>2026-03-29T14:55:27.176Z</time></trkpt><trkpt lat="45.1537597" lon="7.6627816"><ele>257.0</ele><time>2026-03-29T14:55:28.182Z</time></trkpt><trkpt lat="45.1537021" lon="7.6626234"><ele>257.4</ele><time>2026-03-29T14:55:29.194Z</time></trkpt><trkpt lat="45.1536498" lon="7.6624643"><ele>257.79999999999995</ele><time>2026-03-29T14:55:30.182Z</time></trkpt><trkpt lat="45.1535991" lon="7.6623154"><ele>258.2</ele><time>2026-03-29T14:55:31.187Z</time></trkpt><trkpt lat="45.1535485" lon="7.6621848"><ele>258.59999999999997</ele><time>2026-03-29T14:55:32.191Z</time></trkpt><trkpt lat="45.1534931" lon="7.6620643"><ele>259.0</ele><time>2026-03-29T14:55:33.183Z</time></trkpt><trkpt lat="45.1534449" lon="7.6619653"><ele>258.8333333333333</ele><time>2026-03-29T14:55:34.178Z</time></trkpt><trkpt lat="45.1534031" lon="7.6618808"><ele>258.66666666666663</ele><time>2026-03-29T14:55:35.186Z</time></trkpt><trkpt lat="45.1533715" lon="7.6618017"><ele>258.5</ele><time>2026-03-29T14:55:36.181Z</time></trkpt><trkpt lat="45.1533461" lon="7.6617191"><ele>258.3333333333333</ele><time>2026-03-29T14:55:37.187Z</time></trkpt><trkpt lat="45.1533391" lon="7.66156"><ele>258.1666666666667</ele><time>2026-03-29T14:55:39.174Z</time></trkpt><trkpt lat="45.1532928" lon="7.6614242"><ele>258.0</ele><time>2026-03-29T14:55:41.176Z</time></trkpt><trkpt lat="45.1532413" lon="7.6613649"><ele>258.0</ele><time>2026-03-29T14:55:42.178Z</time></trkpt><trkpt lat="45.1531969" lon="7.6612904"><ele>258.0</ele><time>2026-03-29T14:55:43.179Z</time></trkpt><trkpt lat="45.1531214" lon="7.6611521"><ele>258.0</ele><time>2026-03-29T14:55:44.175Z</time></trkpt><trkpt lat="45.1530448" lon="7.6609843"><ele>258.0</ele><time>2026-03-29T14:55:45.184Z</time></trkpt><trkpt lat="45.1529624" lon="7.6608086"><ele>258.0</ele><time>2026-03-29T14:55:46.176Z</time></trkpt><trkpt lat="45.1528817" lon="7.6606187"><ele>258.0</ele><time>2026-03-29T14:55:47.18Z</time></trkpt><trkpt lat="45.1528029" lon="7.6604327"><ele>258.0</ele><time>2026-03-29T14:55:48.181Z</time></trkpt><trkpt lat="45.1527338" lon="7.6602517"><ele>257.75</ele><time>2026-03-29T14:55:49.187Z</time></trkpt><trkpt lat="45.1526747" lon="7.6600896"><ele>257.5</ele><time>2026-03-29T14:55:50.179Z</time></trkpt><trkpt lat="45.1526192" lon="7.659946"><ele>257.25</ele><time>2026-03-29T14:55:51.174Z</time></trkpt><trkpt lat="45.1525684" lon="7.6598124"><ele>257.0</ele><time>2026-03-29T14:55:52.18Z</time></trkpt><trkpt lat="45.1525207" lon="7.6596905"><ele>257.0</ele><time>2026-03-29T14:55:53.174Z</time></trkpt><trkpt lat="45.1524814" lon="7.6595964"><ele>257.0</ele><time>2026-03-29T14:55:54.185Z</time></trkpt><trkpt lat="45.1524343" lon="7.6594598"><ele>257.0</ele><time>2026-03-29T14:55:56.18Z</time></trkpt><trkpt lat="45.1524029" lon="7.6593669"><ele>257.0</ele><time>2026-03-29T14:55:58.184Z</time></trkpt><trkpt lat="45.1523133" lon="7.6594002"><ele>257.0</ele><time>2026-03-29T14:56:00.178Z</time></trkpt><trkpt lat="45.1522643" lon="7.6594593"><ele>257.0</ele><time>2026-03-29T14:56:01.178Z</time></trkpt><trkpt lat="45.1522135" lon="7.6595521"><ele>257.0</ele><time>2026-03-29T14:56:02.185Z</time></trkpt><trkpt lat="45.1521458" lon="7.6596562"><ele>257.0</ele><time>2026-03-29T14:56:03.19Z</time></trkpt><trkpt lat="45.1520705" lon="7.6597591"><ele>257.0</ele><time>2026-03-29T14:56:04.186Z</time></trkpt><trkpt lat="45.1519862" lon="7.6598501"><ele>257.0</ele><time>2026-03-29T14:56:05.184Z</time></trkpt><trkpt lat="45.1519045" lon="7.659926"><ele>257.0</ele><time>2026-03-29T14:56:06.182Z</time></trkpt><trkpt lat="45.1518292" lon="7.6599795"><ele>257.0</ele><time>2026-03-29T14:56:07.186Z</time></trkpt><trkpt lat="45.1517743" lon="7.6600258"><ele>257.0</ele><time>2026-03-29T14:56:08.18Z</time></trkpt><trkpt lat="45.1516679" lon="7.6601114"><ele>257.0</ele><time>2026-03-29T14:56:10.182Z</time></trkpt><trkpt lat="45.1516044" lon="7.6601603"><ele>257.0</ele><time>2026-03-29T14:56:11.177Z</time></trkpt><trkpt lat="45.1515434" lon="7.6602011"><ele>257.0</ele><time>2026-03-29T14:56:12.191Z</time></trkpt><trkpt lat="45.1514384" lon="7.6602449"><ele>257.0</ele><time>2026-03-29T14:56:14.195Z</time></trkpt><trkpt lat="45.1513516" lon="7.6602215"><ele>256.8</ele><time>2026-03-29T14:56:16.178Z</time></trkpt><trkpt lat="45.1513124" lon="7.6600855"><ele>256.6</ele><time>2026-03-29T14:56:18.177Z</time></trkpt><trkpt lat="45.1513037" lon="7.6599851"><ele>256.40000000000003</ele><time>2026-03-29T14:56:19.181Z</time></trkpt><trkpt lat="45.1513433" lon="7.6598559"><ele>256.2</ele><time>2026-03-29T14:56:20.212Z</time></trkpt><trkpt lat="45.1513785" lon="7.659729"><ele>256.0</ele><time>2026-03-29T14:56:21.178Z</time></trkpt><trkpt lat="45.1514089" lon="7.6595995"><ele>256.0</ele><time>2026-03-29T14:56:22.176Z</time></trkpt><trkpt lat="45.1514324" lon="7.6594775"><ele>255.99999999999997</ele><time>2026-03-29T14:56:23.189Z</time></trkpt><trkpt lat="45.1514435" lon="7.6593751"><ele>256.0</ele><time>2026-03-29T14:56:24.179Z</time></trkpt><trkpt lat="45.1514416" lon="7.6592842"><ele>256.0</ele><time>2026-03-29T14:56:25.177Z</time></trkpt><trkpt lat="45.1514386" lon="7.6591946"><ele>255.99999999999997</ele><time>2026-03-29T14:56:26.178Z</time></trkpt><trkpt lat="45.1514321" lon="7.6590963"><ele>256.0</ele><time>2026-03-29T14:56:27.178Z</time></trkpt><trkpt lat="45.151415" lon="7.6589902"><ele>256.0</ele><time>2026-03-29T14:56:28.189Z</time></trkpt><trkpt lat="45.1514032" lon="7.6588867"><ele>255.99999999999997</ele><time>2026-03-29T14:56:29.177Z</time></trkpt><trkpt lat="45.1513948" lon="7.6587901"><ele>256.0</ele><time>2026-03-29T14:56:30.18Z</time></trkpt><trkpt lat="45.151384" lon="7.6586309"><ele>256.0</ele><time>2026-03-29T14:56:32.199Z</time></trkpt><trkpt lat="45.151369" lon="7.6585145"><ele>256.0</ele><time>2026-03-29T14:56:34.186Z</time></trkpt><trkpt lat="45.1513778" lon="7.6583904"><ele>255.99999999999997</ele><time>2026-03-29T14:56:37.185Z</time></trkpt><trkpt lat="45.1513613" lon="7.6582672"><ele>256.0</ele><time>2026-03-29T14:56:39.19Z</time></trkpt><trkpt lat="45.151354" lon="7.6580702"><ele>256.16666666666663</ele><time>2026-03-29T14:56:41.178Z</time></trkpt><trkpt lat="45.1513481" lon="7.6579492"><ele>256.3333333333333</ele><time>2026-03-29T14:56:42.174Z</time></trkpt><trkpt lat="45.151358" lon="7.6578359"><ele>256.5</ele><time>2026-03-29T14:56:43.175Z</time></trkpt><trkpt lat="45.1513671" lon="7.6577413"><ele>256.6666666666667</ele><time>2026-03-29T14:56:44.192Z</time></trkpt><trkpt lat="45.151372" lon="7.6575934"><ele>256.83333333333337</ele><time>2026-03-29T14:56:46.182Z</time></trkpt><trkpt lat="45.1513613" lon="7.6575051"><ele>257.0</ele><time>2026-03-29T14:56:48.188Z</time></trkpt><trkpt lat="45.1514527" lon="7.6574138"><ele>257.1666666666667</ele><time>2026-03-29T14:56:52.178Z</time></trkpt><trkpt lat="45.1515222" lon="7.6573853"><ele>257.33333333333337</ele><time>2026-03-29T14:56:53.176Z</time></trkpt><trkpt lat="45.1515822" lon="7.657355"><ele>257.5</ele><time>2026-03-29T14:56:54.18Z</time></trkpt><trkpt lat="45.1516996" lon="7.6573135"><ele>257.6666666666667</ele><time>2026-03-29T14:56:56.193Z</time></trkpt><trkpt lat="45.151765" lon="7.6572974"><ele>257.8333333333333</ele><time>2026-03-29T14:56:57.185Z</time></trkpt><trkpt lat="45.1518341" lon="7.6572757"><ele>258.0</ele><time>2026-03-29T14:56:58.175Z</time></trkpt><trkpt lat="45.151898" lon="7.6572257"><ele>258.0</ele><time>2026-03-29T14:56:59.178Z</time></trkpt><trkpt lat="45.1519613" lon="7.6571424"><ele>258.0</ele><time>2026-03-29T14:57:00.179Z</time></trkpt><trkpt lat="45.1520248" lon="7.6570389"><ele>258.0</ele><time>2026-03-29T14:57:01.18Z</time></trkpt><trkpt lat="45.1520877" lon="7.6569252"><ele>258.0</ele><time>2026-03-29T14:57:02.182Z</time></trkpt><trkpt lat="45.1521583" lon="7.656807"><ele>258.0</ele><time>2026-03-29T14:57:03.179Z</time></trkpt><trkpt lat="45.1522283" lon="7.6566778"><ele>258.0</ele><time>2026-03-29T14:57:04.185Z</time></trkpt><trkpt lat="45.1522948" lon="7.6565536"><ele>258.0</ele><time>2026-03-29T14:57:05.181Z</time></trkpt><trkpt lat="45.1523575" lon="7.6564459"><ele>258.0</ele><time>2026-03-29T14:57:06.175Z</time></trkpt><trkpt lat="45.152423" lon="7.6563662"><ele>260.0</ele><time>2026-03-29T14:57:07.182Z</time></trkpt><trkpt lat="45.1524784" lon="7.6563082"><ele>260.0</ele><time>2026-03-29T14:57:08.179Z</time></trkpt></trkseg></trk></gpx>